<?xml version="1.0" encoding="UTF-8" standalone="no" ?>
<gpx xmlns="http://www.topografix.com/GPX/1/1" xmlns:xsi="http://www.w3.org/2001/XMLSchema-instance" xsi:schemaLocation="http://www.topografix.com/GPX/1/1 http://www.topografix.com/GPX/1/1/gpx.xsd" version="1.1" creator="VisuGPX - https://www.visugpx.com">
  <metadata>
    <name>Dommartin</name>
    <desc><![CDATA[-3km boucle
- km C5 retour ]]></desc>
  </metadata>
  <trk>
    <name><![CDATA[Dommartin_1]]></name>
    <trkseg>
      <trkpt lat="49.79981" lon="2.38788">
        <ele>37</ele>
        <time>2024-07-24T07:01:56Z</time>
      </trkpt>
      <trkpt lat="49.79981" lon="2.38788">
        <ele>37</ele>
        <time>2024-07-24T07:01:57Z</time>
      </trkpt>
      <trkpt lat="49.79981" lon="2.38788">
        <ele>37</ele>
        <time>2024-07-24T07:01:58Z</time>
      </trkpt>
      <trkpt lat="49.79981" lon="2.38788">
        <ele>37</ele>
        <time>2024-07-24T07:01:59Z</time>
      </trkpt>
      <trkpt lat="49.79981" lon="2.38788">
        <ele>37</ele>
        <time>2024-07-24T07:02:00Z</time>
      </trkpt>
      <trkpt lat="49.79981" lon="2.38788">
        <ele>37</ele>
        <time>2024-07-24T07:02:01Z</time>
      </trkpt>
      <trkpt lat="49.79981" lon="2.38788">
        <ele>37</ele>
        <time>2024-07-24T07:02:02Z</time>
      </trkpt>
      <trkpt lat="49.79981" lon="2.38788">
        <ele>37</ele>
        <time>2024-07-24T07:02:03Z</time>
      </trkpt>
      <trkpt lat="49.79981" lon="2.38788">
        <ele>37</ele>
        <time>2024-07-24T07:02:04Z</time>
      </trkpt>
      <trkpt lat="49.79981" lon="2.38788">
        <ele>37</ele>
        <time>2024-07-24T07:02:05Z</time>
      </trkpt>
      <trkpt lat="49.79981" lon="2.38788">
        <ele>37</ele>
        <time>2024-07-24T07:02:06Z</time>
      </trkpt>
      <trkpt lat="49.79981" lon="2.38788">
        <ele>37</ele>
        <time>2024-07-24T07:02:07Z</time>
      </trkpt>
      <trkpt lat="49.79981" lon="2.38788">
        <ele>37</ele>
        <time>2024-07-24T07:02:08Z</time>
      </trkpt>
      <trkpt lat="49.79981" lon="2.38788">
        <ele>37</ele>
        <time>2024-07-24T07:02:09Z</time>
      </trkpt>
      <trkpt lat="49.79981" lon="2.38788">
        <ele>37</ele>
        <time>2024-07-24T07:02:10Z</time>
      </trkpt>
      <trkpt lat="49.79981" lon="2.38788">
        <ele>37</ele>
        <time>2024-07-24T07:02:11Z</time>
      </trkpt>
      <trkpt lat="49.79981" lon="2.38788">
        <ele>37</ele>
        <time>2024-07-24T07:02:12Z</time>
      </trkpt>
      <trkpt lat="49.79981" lon="2.38788">
        <ele>37</ele>
        <time>2024-07-24T07:02:13Z</time>
      </trkpt>
      <trkpt lat="49.79981" lon="2.38788">
        <ele>37</ele>
        <time>2024-07-24T07:02:14Z</time>
      </trkpt>
      <trkpt lat="49.79981" lon="2.38788">
        <ele>37</ele>
        <time>2024-07-24T07:02:15Z</time>
      </trkpt>
      <trkpt lat="49.79981" lon="2.38788">
        <ele>37</ele>
        <time>2024-07-24T07:02:16Z</time>
      </trkpt>
      <trkpt lat="49.79981" lon="2.38788">
        <ele>37</ele>
        <time>2024-07-24T07:02:17Z</time>
      </trkpt>
      <trkpt lat="49.79981" lon="2.38788">
        <ele>37</ele>
        <time>2024-07-24T07:02:18Z</time>
      </trkpt>
      <trkpt lat="49.79981" lon="2.38788">
        <ele>37</ele>
        <time>2024-07-24T07:02:19Z</time>
      </trkpt>
      <trkpt lat="49.79981" lon="2.38788">
        <ele>37</ele>
        <time>2024-07-24T07:02:20Z</time>
      </trkpt>
      <trkpt lat="49.79981" lon="2.38788">
        <ele>37</ele>
        <time>2024-07-24T07:02:21Z</time>
      </trkpt>
      <trkpt lat="49.79981" lon="2.38788">
        <ele>37</ele>
        <time>2024-07-24T07:02:22Z</time>
      </trkpt>
      <trkpt lat="49.79981" lon="2.38788">
        <ele>37</ele>
        <time>2024-07-24T07:02:23Z</time>
      </trkpt>
      <trkpt lat="49.79981" lon="2.38788">
        <ele>37</ele>
        <time>2024-07-24T07:02:24Z</time>
      </trkpt>
      <trkpt lat="49.79981" lon="2.38788">
        <ele>37</ele>
        <time>2024-07-24T07:02:25Z</time>
      </trkpt>
      <trkpt lat="49.79981" lon="2.38788">
        <ele>37</ele>
        <time>2024-07-24T07:02:26Z</time>
      </trkpt>
      <trkpt lat="49.79981" lon="2.38788">
        <ele>37</ele>
        <time>2024-07-24T07:02:27Z</time>
      </trkpt>
      <trkpt lat="49.79981" lon="2.38788">
        <ele>37</ele>
        <time>2024-07-24T07:02:28Z</time>
      </trkpt>
      <trkpt lat="49.79981" lon="2.38788">
        <ele>37</ele>
        <time>2024-07-24T07:02:29Z</time>
      </trkpt>
      <trkpt lat="49.79981" lon="2.38788">
        <ele>37</ele>
        <time>2024-07-24T07:02:30Z</time>
      </trkpt>
      <trkpt lat="49.79981" lon="2.38788">
        <ele>37</ele>
        <time>2024-07-24T07:02:31Z</time>
      </trkpt>
      <trkpt lat="49.79981" lon="2.38788">
        <ele>37</ele>
        <time>2024-07-24T07:02:32Z</time>
      </trkpt>
      <trkpt lat="49.79981" lon="2.38788">
        <ele>37</ele>
        <time>2024-07-24T07:02:33Z</time>
      </trkpt>
      <trkpt lat="49.79981" lon="2.38788">
        <ele>37</ele>
        <time>2024-07-24T07:02:34Z</time>
      </trkpt>
      <trkpt lat="49.79981" lon="2.38788">
        <ele>37</ele>
        <time>2024-07-24T07:02:35Z</time>
      </trkpt>
      <trkpt lat="49.79981" lon="2.38788">
        <ele>37</ele>
        <time>2024-07-24T07:02:36Z</time>
      </trkpt>
      <trkpt lat="49.79981" lon="2.38788">
        <ele>37</ele>
        <time>2024-07-24T07:02:37Z</time>
      </trkpt>
      <trkpt lat="49.79981" lon="2.38788">
        <ele>37</ele>
        <time>2024-07-24T07:02:39Z</time>
      </trkpt>
      <trkpt lat="49.79981" lon="2.38788">
        <ele>37</ele>
        <time>2024-07-24T07:02:40Z</time>
      </trkpt>
      <trkpt lat="49.79981" lon="2.38788">
        <ele>37</ele>
        <time>2024-07-24T07:02:41Z</time>
      </trkpt>
      <trkpt lat="49.79981" lon="2.38788">
        <ele>37</ele>
        <time>2024-07-24T07:02:42Z</time>
      </trkpt>
      <trkpt lat="49.79981" lon="2.38788">
        <ele>37</ele>
        <time>2024-07-24T07:02:43Z</time>
      </trkpt>
      <trkpt lat="49.79981" lon="2.38788">
        <ele>37</ele>
        <time>2024-07-24T07:02:44Z</time>
      </trkpt>
      <trkpt lat="49.79981" lon="2.38788">
        <ele>37</ele>
        <time>2024-07-24T07:02:45Z</time>
      </trkpt>
      <trkpt lat="49.79981" lon="2.38788">
        <ele>37</ele>
        <time>2024-07-24T07:02:46Z</time>
      </trkpt>
      <trkpt lat="49.79981" lon="2.38788">
        <ele>37</ele>
        <time>2024-07-24T07:02:47Z</time>
      </trkpt>
      <trkpt lat="49.79983" lon="2.38784">
        <ele>37</ele>
        <time>2024-07-24T07:02:48Z</time>
      </trkpt>
      <trkpt lat="49.79981" lon="2.38785">
        <ele>37</ele>
        <time>2024-07-24T07:02:49Z</time>
      </trkpt>
      <trkpt lat="49.79981" lon="2.38783">
        <ele>37</ele>
        <time>2024-07-24T07:02:50Z</time>
      </trkpt>
      <trkpt lat="49.79982" lon="2.38781">
        <ele>37</ele>
        <time>2024-07-24T07:02:51Z</time>
      </trkpt>
      <trkpt lat="49.79983" lon="2.3878">
        <ele>37</ele>
        <time>2024-07-24T07:02:52Z</time>
      </trkpt>
      <trkpt lat="49.79983" lon="2.38779">
        <ele>37</ele>
        <time>2024-07-24T07:02:53Z</time>
      </trkpt>
      <trkpt lat="49.79983" lon="2.38779">
        <ele>37</ele>
        <time>2024-07-24T07:02:54Z</time>
      </trkpt>
      <trkpt lat="49.79983" lon="2.38778">
        <ele>37</ele>
        <time>2024-07-24T07:02:55Z</time>
      </trkpt>
      <trkpt lat="49.79983" lon="2.38777">
        <ele>37</ele>
        <time>2024-07-24T07:02:56Z</time>
      </trkpt>
      <trkpt lat="49.79983" lon="2.38776">
        <ele>37</ele>
        <time>2024-07-24T07:02:57Z</time>
      </trkpt>
      <trkpt lat="49.79983" lon="2.38776">
        <ele>37</ele>
        <time>2024-07-24T07:02:58Z</time>
      </trkpt>
      <trkpt lat="49.79982" lon="2.38775">
        <ele>37</ele>
        <time>2024-07-24T07:02:59Z</time>
      </trkpt>
      <trkpt lat="49.79981" lon="2.38774">
        <ele>37</ele>
        <time>2024-07-24T07:03:00Z</time>
      </trkpt>
      <trkpt lat="49.7998" lon="2.38774">
        <ele>37</ele>
        <time>2024-07-24T07:03:01Z</time>
      </trkpt>
      <trkpt lat="49.79979" lon="2.38773">
        <ele>37</ele>
        <time>2024-07-24T07:03:02Z</time>
      </trkpt>
      <trkpt lat="49.79978" lon="2.38772">
        <ele>37</ele>
        <time>2024-07-24T07:03:03Z</time>
      </trkpt>
      <trkpt lat="49.79978" lon="2.38771">
        <ele>37</ele>
        <time>2024-07-24T07:03:04Z</time>
      </trkpt>
      <trkpt lat="49.79976" lon="2.38771">
        <ele>37</ele>
        <time>2024-07-24T07:03:05Z</time>
      </trkpt>
      <trkpt lat="49.79974" lon="2.3877">
        <ele>37</ele>
        <time>2024-07-24T07:03:06Z</time>
      </trkpt>
      <trkpt lat="49.79973" lon="2.3877">
        <ele>37.1</ele>
        <time>2024-07-24T07:03:07Z</time>
      </trkpt>
      <trkpt lat="49.79973" lon="2.38769">
        <ele>37.1</ele>
        <time>2024-07-24T07:03:08Z</time>
      </trkpt>
      <trkpt lat="49.79971" lon="2.38767">
        <ele>37.1</ele>
        <time>2024-07-24T07:03:09Z</time>
      </trkpt>
      <trkpt lat="49.79971" lon="2.38766">
        <ele>37.1</ele>
        <time>2024-07-24T07:03:10Z</time>
      </trkpt>
      <trkpt lat="49.7997" lon="2.38765">
        <ele>37.1</ele>
        <time>2024-07-24T07:03:11Z</time>
      </trkpt>
      <trkpt lat="49.79969" lon="2.38763">
        <ele>37.1</ele>
        <time>2024-07-24T07:03:12Z</time>
      </trkpt>
      <trkpt lat="49.79967" lon="2.38762">
        <ele>37.1</ele>
        <time>2024-07-24T07:03:13Z</time>
      </trkpt>
      <trkpt lat="49.79965" lon="2.38759">
        <ele>37.1</ele>
        <time>2024-07-24T07:03:14Z</time>
      </trkpt>
      <trkpt lat="49.79964" lon="2.38758">
        <ele>37.1</ele>
        <time>2024-07-24T07:03:15Z</time>
      </trkpt>
      <trkpt lat="49.79963" lon="2.38756">
        <ele>37.1</ele>
        <time>2024-07-24T07:03:16Z</time>
      </trkpt>
      <trkpt lat="49.79962" lon="2.38755">
        <ele>37.1</ele>
        <time>2024-07-24T07:03:17Z</time>
      </trkpt>
      <trkpt lat="49.79961" lon="2.38754">
        <ele>37.1</ele>
        <time>2024-07-24T07:03:18Z</time>
      </trkpt>
      <trkpt lat="49.7996" lon="2.38752">
        <ele>37.1</ele>
        <time>2024-07-24T07:03:19Z</time>
      </trkpt>
      <trkpt lat="49.7996" lon="2.38752">
        <ele>37.1</ele>
        <time>2024-07-24T07:03:20Z</time>
      </trkpt>
      <trkpt lat="49.79959" lon="2.3875">
        <ele>37.1</ele>
        <time>2024-07-24T07:03:21Z</time>
      </trkpt>
      <trkpt lat="49.79959" lon="2.38749">
        <ele>37.1</ele>
        <time>2024-07-24T07:03:22Z</time>
      </trkpt>
      <trkpt lat="49.79958" lon="2.38748">
        <ele>37.1</ele>
        <time>2024-07-24T07:03:23Z</time>
      </trkpt>
      <trkpt lat="49.79957" lon="2.38747">
        <ele>37.1</ele>
        <time>2024-07-24T07:03:24Z</time>
      </trkpt>
      <trkpt lat="49.79956" lon="2.38746">
        <ele>37.1</ele>
        <time>2024-07-24T07:03:25Z</time>
      </trkpt>
      <trkpt lat="49.79956" lon="2.38745">
        <ele>37.1</ele>
        <time>2024-07-24T07:03:26Z</time>
      </trkpt>
      <trkpt lat="49.79955" lon="2.38744">
        <ele>37.1</ele>
        <time>2024-07-24T07:03:27Z</time>
      </trkpt>
      <trkpt lat="49.79955" lon="2.38744">
        <ele>37.1</ele>
        <time>2024-07-24T07:03:28Z</time>
      </trkpt>
      <trkpt lat="49.79955" lon="2.38743">
        <ele>37.1</ele>
        <time>2024-07-24T07:03:29Z</time>
      </trkpt>
      <trkpt lat="49.79954" lon="2.38741">
        <ele>37.1</ele>
        <time>2024-07-24T07:03:30Z</time>
      </trkpt>
      <trkpt lat="49.79953" lon="2.3874">
        <ele>37.1</ele>
        <time>2024-07-24T07:03:31Z</time>
      </trkpt>
      <trkpt lat="49.79952" lon="2.38738">
        <ele>37.1</ele>
        <time>2024-07-24T07:03:32Z</time>
      </trkpt>
      <trkpt lat="49.79951" lon="2.38737">
        <ele>37.1</ele>
        <time>2024-07-24T07:03:33Z</time>
      </trkpt>
      <trkpt lat="49.7995" lon="2.38735">
        <ele>37.1</ele>
        <time>2024-07-24T07:03:34Z</time>
      </trkpt>
      <trkpt lat="49.79949" lon="2.38733">
        <ele>37.1</ele>
        <time>2024-07-24T07:03:35Z</time>
      </trkpt>
      <trkpt lat="49.79947" lon="2.38731">
        <ele>37.2</ele>
        <time>2024-07-24T07:03:36Z</time>
      </trkpt>
      <trkpt lat="49.79946" lon="2.38729">
        <ele>37.2</ele>
        <time>2024-07-24T07:03:37Z</time>
      </trkpt>
      <trkpt lat="49.79945" lon="2.38728">
        <ele>37.2</ele>
        <time>2024-07-24T07:03:38Z</time>
      </trkpt>
      <trkpt lat="49.79944" lon="2.38727">
        <ele>37.2</ele>
        <time>2024-07-24T07:03:39Z</time>
      </trkpt>
      <trkpt lat="49.79942" lon="2.38725">
        <ele>37.2</ele>
        <time>2024-07-24T07:03:40Z</time>
      </trkpt>
      <trkpt lat="49.79941" lon="2.38724">
        <ele>37.2</ele>
        <time>2024-07-24T07:03:41Z</time>
      </trkpt>
      <trkpt lat="49.79941" lon="2.38723">
        <ele>37.2</ele>
        <time>2024-07-24T07:03:42Z</time>
      </trkpt>
      <trkpt lat="49.79939" lon="2.38721">
        <ele>37.2</ele>
        <time>2024-07-24T07:03:43Z</time>
      </trkpt>
      <trkpt lat="49.79938" lon="2.3872">
        <ele>37.2</ele>
        <time>2024-07-24T07:03:44Z</time>
      </trkpt>
      <trkpt lat="49.79938" lon="2.38719">
        <ele>37.2</ele>
        <time>2024-07-24T07:03:45Z</time>
      </trkpt>
      <trkpt lat="49.79936" lon="2.38718">
        <ele>37.2</ele>
        <time>2024-07-24T07:03:46Z</time>
      </trkpt>
      <trkpt lat="49.79935" lon="2.38717">
        <ele>37.2</ele>
        <time>2024-07-24T07:03:47Z</time>
      </trkpt>
      <trkpt lat="49.79935" lon="2.38716">
        <ele>37.2</ele>
        <time>2024-07-24T07:03:48Z</time>
      </trkpt>
      <trkpt lat="49.79934" lon="2.38715">
        <ele>37.2</ele>
        <time>2024-07-24T07:03:49Z</time>
      </trkpt>
      <trkpt lat="49.79933" lon="2.38713">
        <ele>37.2</ele>
        <time>2024-07-24T07:03:50Z</time>
      </trkpt>
      <trkpt lat="49.79932" lon="2.38712">
        <ele>37.2</ele>
        <time>2024-07-24T07:03:51Z</time>
      </trkpt>
      <trkpt lat="49.79931" lon="2.38711">
        <ele>37.2</ele>
        <time>2024-07-24T07:03:52Z</time>
      </trkpt>
      <trkpt lat="49.79931" lon="2.38709">
        <ele>37.2</ele>
        <time>2024-07-24T07:03:53Z</time>
      </trkpt>
      <trkpt lat="49.7993" lon="2.38708">
        <ele>37.2</ele>
        <time>2024-07-24T07:03:54Z</time>
      </trkpt>
      <trkpt lat="49.79929" lon="2.38706">
        <ele>37.2</ele>
        <time>2024-07-24T07:03:55Z</time>
      </trkpt>
      <trkpt lat="49.79929" lon="2.38705">
        <ele>37.2</ele>
        <time>2024-07-24T07:03:56Z</time>
      </trkpt>
      <trkpt lat="49.79928" lon="2.38704">
        <ele>37.2</ele>
        <time>2024-07-24T07:03:57Z</time>
      </trkpt>
      <trkpt lat="49.79927" lon="2.38702">
        <ele>37.2</ele>
        <time>2024-07-24T07:03:58Z</time>
      </trkpt>
      <trkpt lat="49.79926" lon="2.38701">
        <ele>37.2</ele>
        <time>2024-07-24T07:03:59Z</time>
      </trkpt>
      <trkpt lat="49.79925" lon="2.387">
        <ele>37.2</ele>
        <time>2024-07-24T07:04:00Z</time>
      </trkpt>
      <trkpt lat="49.79924" lon="2.38699">
        <ele>37.2</ele>
        <time>2024-07-24T07:04:01Z</time>
      </trkpt>
      <trkpt lat="49.79924" lon="2.38698">
        <ele>37.2</ele>
        <time>2024-07-24T07:04:02Z</time>
      </trkpt>
      <trkpt lat="49.79923" lon="2.38696">
        <ele>37.2</ele>
        <time>2024-07-24T07:04:03Z</time>
      </trkpt>
      <trkpt lat="49.79921" lon="2.38695">
        <ele>37.2</ele>
        <time>2024-07-24T07:04:04Z</time>
      </trkpt>
      <trkpt lat="49.7992" lon="2.38694">
        <ele>37.2</ele>
        <time>2024-07-24T07:04:05Z</time>
      </trkpt>
      <trkpt lat="49.79919" lon="2.38694">
        <ele>37.2</ele>
        <time>2024-07-24T07:04:06Z</time>
      </trkpt>
      <trkpt lat="49.79918" lon="2.38692">
        <ele>37.2</ele>
        <time>2024-07-24T07:04:07Z</time>
      </trkpt>
      <trkpt lat="49.79918" lon="2.38691">
        <ele>37.2</ele>
        <time>2024-07-24T07:04:08Z</time>
      </trkpt>
      <trkpt lat="49.79918" lon="2.3869">
        <ele>37.2</ele>
        <time>2024-07-24T07:04:09Z</time>
      </trkpt>
      <trkpt lat="49.79918" lon="2.38688">
        <ele>37.2</ele>
        <time>2024-07-24T07:04:10Z</time>
      </trkpt>
      <trkpt lat="49.79918" lon="2.38687">
        <ele>37.2</ele>
        <time>2024-07-24T07:04:11Z</time>
      </trkpt>
      <trkpt lat="49.79918" lon="2.38684">
        <ele>37.2</ele>
        <time>2024-07-24T07:04:12Z</time>
      </trkpt>
      <trkpt lat="49.79918" lon="2.38683">
        <ele>37.2</ele>
        <time>2024-07-24T07:04:13Z</time>
      </trkpt>
      <trkpt lat="49.79917" lon="2.38682">
        <ele>37.2</ele>
        <time>2024-07-24T07:04:14Z</time>
      </trkpt>
      <trkpt lat="49.79915" lon="2.38681">
        <ele>37.2</ele>
        <time>2024-07-24T07:04:15Z</time>
      </trkpt>
      <trkpt lat="49.79914" lon="2.38681">
        <ele>37.2</ele>
        <time>2024-07-24T07:04:17Z</time>
      </trkpt>
      <trkpt lat="49.79912" lon="2.38681">
        <ele>37.2</ele>
        <time>2024-07-24T07:04:18Z</time>
      </trkpt>
      <trkpt lat="49.79911" lon="2.38682">
        <ele>37.2</ele>
        <time>2024-07-24T07:04:19Z</time>
      </trkpt>
      <trkpt lat="49.7991" lon="2.38683">
        <ele>37.2</ele>
        <time>2024-07-24T07:04:20Z</time>
      </trkpt>
      <trkpt lat="49.79909" lon="2.38684">
        <ele>37.2</ele>
        <time>2024-07-24T07:04:21Z</time>
      </trkpt>
      <trkpt lat="49.79908" lon="2.38684">
        <ele>37.2</ele>
        <time>2024-07-24T07:04:22Z</time>
      </trkpt>
      <trkpt lat="49.79907" lon="2.38685">
        <ele>37.2</ele>
        <time>2024-07-24T07:04:23Z</time>
      </trkpt>
      <trkpt lat="49.79906" lon="2.38685">
        <ele>37.2</ele>
        <time>2024-07-24T07:04:24Z</time>
      </trkpt>
      <trkpt lat="49.79905" lon="2.38684">
        <ele>37.2</ele>
        <time>2024-07-24T07:04:25Z</time>
      </trkpt>
      <trkpt lat="49.79904" lon="2.38683">
        <ele>37.2</ele>
        <time>2024-07-24T07:04:26Z</time>
      </trkpt>
      <trkpt lat="49.79904" lon="2.38683">
        <ele>37.2</ele>
        <time>2024-07-24T07:04:27Z</time>
      </trkpt>
      <trkpt lat="49.79904" lon="2.38682">
        <ele>37.2</ele>
        <time>2024-07-24T07:04:28Z</time>
      </trkpt>
      <trkpt lat="49.79903" lon="2.38681">
        <ele>37.2</ele>
        <time>2024-07-24T07:04:29Z</time>
      </trkpt>
      <trkpt lat="49.79902" lon="2.38681">
        <ele>37.2</ele>
        <time>2024-07-24T07:04:30Z</time>
      </trkpt>
      <trkpt lat="49.79901" lon="2.38681">
        <ele>37.2</ele>
        <time>2024-07-24T07:04:31Z</time>
      </trkpt>
      <trkpt lat="49.79901" lon="2.3868">
        <ele>37.2</ele>
        <time>2024-07-24T07:04:32Z</time>
      </trkpt>
      <trkpt lat="49.799" lon="2.3868">
        <ele>37.2</ele>
        <time>2024-07-24T07:04:33Z</time>
      </trkpt>
      <trkpt lat="49.79899" lon="2.38679">
        <ele>37.2</ele>
        <time>2024-07-24T07:04:34Z</time>
      </trkpt>
      <trkpt lat="49.79898" lon="2.38679">
        <ele>37.2</ele>
        <time>2024-07-24T07:04:35Z</time>
      </trkpt>
      <trkpt lat="49.79897" lon="2.38678">
        <ele>37.2</ele>
        <time>2024-07-24T07:04:36Z</time>
      </trkpt>
      <trkpt lat="49.79896" lon="2.38678">
        <ele>37.2</ele>
        <time>2024-07-24T07:04:37Z</time>
      </trkpt>
      <trkpt lat="49.79895" lon="2.38678">
        <ele>37.2</ele>
        <time>2024-07-24T07:04:38Z</time>
      </trkpt>
      <trkpt lat="49.79894" lon="2.38678">
        <ele>37.2</ele>
        <time>2024-07-24T07:04:39Z</time>
      </trkpt>
      <trkpt lat="49.79893" lon="2.38678">
        <ele>37.2</ele>
        <time>2024-07-24T07:04:40Z</time>
      </trkpt>
      <trkpt lat="49.79892" lon="2.38677">
        <ele>37.2</ele>
        <time>2024-07-24T07:04:41Z</time>
      </trkpt>
      <trkpt lat="49.79892" lon="2.38677">
        <ele>37.2</ele>
        <time>2024-07-24T07:04:42Z</time>
      </trkpt>
      <trkpt lat="49.7989" lon="2.38677">
        <ele>37.2</ele>
        <time>2024-07-24T07:04:43Z</time>
      </trkpt>
      <trkpt lat="49.79889" lon="2.38676">
        <ele>37.2</ele>
        <time>2024-07-24T07:04:44Z</time>
      </trkpt>
      <trkpt lat="49.79885" lon="2.38675">
        <ele>37.2</ele>
        <time>2024-07-24T07:04:45Z</time>
      </trkpt>
      <trkpt lat="49.79884" lon="2.38674">
        <ele>37.2</ele>
        <time>2024-07-24T07:04:46Z</time>
      </trkpt>
      <trkpt lat="49.79882" lon="2.38674">
        <ele>37.2</ele>
        <time>2024-07-24T07:04:47Z</time>
      </trkpt>
      <trkpt lat="49.79881" lon="2.38673">
        <ele>37.2</ele>
        <time>2024-07-24T07:04:48Z</time>
      </trkpt>
      <trkpt lat="49.79879" lon="2.38672">
        <ele>37.2</ele>
        <time>2024-07-24T07:04:49Z</time>
      </trkpt>
      <trkpt lat="49.79878" lon="2.38672">
        <ele>37.2</ele>
        <time>2024-07-24T07:04:50Z</time>
      </trkpt>
      <trkpt lat="49.79877" lon="2.38672">
        <ele>37.2</ele>
        <time>2024-07-24T07:04:51Z</time>
      </trkpt>
      <trkpt lat="49.79875" lon="2.38671">
        <ele>37.2</ele>
        <time>2024-07-24T07:04:52Z</time>
      </trkpt>
      <trkpt lat="49.79874" lon="2.38671">
        <ele>37.2</ele>
        <time>2024-07-24T07:04:53Z</time>
      </trkpt>
      <trkpt lat="49.79873" lon="2.3867">
        <ele>37.2</ele>
        <time>2024-07-24T07:04:54Z</time>
      </trkpt>
      <trkpt lat="49.79872" lon="2.3867">
        <ele>37.2</ele>
        <time>2024-07-24T07:04:55Z</time>
      </trkpt>
      <trkpt lat="49.79871" lon="2.38669">
        <ele>37.2</ele>
        <time>2024-07-24T07:04:56Z</time>
      </trkpt>
      <trkpt lat="49.7987" lon="2.38669">
        <ele>37.1</ele>
        <time>2024-07-24T07:04:57Z</time>
      </trkpt>
      <trkpt lat="49.79869" lon="2.38668">
        <ele>37.1</ele>
        <time>2024-07-24T07:04:58Z</time>
      </trkpt>
      <trkpt lat="49.79868" lon="2.38667">
        <ele>37.1</ele>
        <time>2024-07-24T07:04:59Z</time>
      </trkpt>
      <trkpt lat="49.79867" lon="2.38667">
        <ele>37.1</ele>
        <time>2024-07-24T07:05:00Z</time>
      </trkpt>
      <trkpt lat="49.79865" lon="2.38666">
        <ele>37.1</ele>
        <time>2024-07-24T07:05:01Z</time>
      </trkpt>
      <trkpt lat="49.79864" lon="2.38666">
        <ele>37.1</ele>
        <time>2024-07-24T07:05:02Z</time>
      </trkpt>
      <trkpt lat="49.79863" lon="2.38665">
        <ele>37.1</ele>
        <time>2024-07-24T07:05:03Z</time>
      </trkpt>
      <trkpt lat="49.79862" lon="2.38664">
        <ele>37.1</ele>
        <time>2024-07-24T07:05:04Z</time>
      </trkpt>
      <trkpt lat="49.79861" lon="2.38663">
        <ele>37.1</ele>
        <time>2024-07-24T07:05:05Z</time>
      </trkpt>
      <trkpt lat="49.7986" lon="2.38662">
        <ele>37.1</ele>
        <time>2024-07-24T07:05:06Z</time>
      </trkpt>
      <trkpt lat="49.79858" lon="2.3866">
        <ele>37.1</ele>
        <time>2024-07-24T07:05:07Z</time>
      </trkpt>
      <trkpt lat="49.79858" lon="2.38659">
        <ele>37.1</ele>
        <time>2024-07-24T07:05:08Z</time>
      </trkpt>
      <trkpt lat="49.79857" lon="2.38659">
        <ele>37.1</ele>
        <time>2024-07-24T07:05:09Z</time>
      </trkpt>
      <trkpt lat="49.79856" lon="2.38658">
        <ele>37.1</ele>
        <time>2024-07-24T07:05:10Z</time>
      </trkpt>
      <trkpt lat="49.79855" lon="2.38657">
        <ele>37.1</ele>
        <time>2024-07-24T07:05:11Z</time>
      </trkpt>
      <trkpt lat="49.79854" lon="2.38655">
        <ele>37.1</ele>
        <time>2024-07-24T07:05:12Z</time>
      </trkpt>
      <trkpt lat="49.79853" lon="2.38654">
        <ele>37.1</ele>
        <time>2024-07-24T07:05:13Z</time>
      </trkpt>
      <trkpt lat="49.79852" lon="2.38653">
        <ele>37</ele>
        <time>2024-07-24T07:05:14Z</time>
      </trkpt>
      <trkpt lat="49.79851" lon="2.38652">
        <ele>37</ele>
        <time>2024-07-24T07:05:15Z</time>
      </trkpt>
      <trkpt lat="49.79851" lon="2.38651">
        <ele>37</ele>
        <time>2024-07-24T07:05:16Z</time>
      </trkpt>
      <trkpt lat="49.7985" lon="2.38649">
        <ele>37</ele>
        <time>2024-07-24T07:05:17Z</time>
      </trkpt>
      <trkpt lat="49.79849" lon="2.38648">
        <ele>37</ele>
        <time>2024-07-24T07:05:18Z</time>
      </trkpt>
      <trkpt lat="49.79849" lon="2.38647">
        <ele>37</ele>
        <time>2024-07-24T07:05:19Z</time>
      </trkpt>
      <trkpt lat="49.79848" lon="2.38646">
        <ele>37</ele>
        <time>2024-07-24T07:05:20Z</time>
      </trkpt>
      <trkpt lat="49.79848" lon="2.38644">
        <ele>37</ele>
        <time>2024-07-24T07:05:21Z</time>
      </trkpt>
      <trkpt lat="49.79847" lon="2.38643">
        <ele>37</ele>
        <time>2024-07-24T07:05:22Z</time>
      </trkpt>
      <trkpt lat="49.79846" lon="2.38642">
        <ele>37</ele>
        <time>2024-07-24T07:05:23Z</time>
      </trkpt>
      <trkpt lat="49.79845" lon="2.3864">
        <ele>37</ele>
        <time>2024-07-24T07:05:24Z</time>
      </trkpt>
      <trkpt lat="49.79844" lon="2.38639">
        <ele>37</ele>
        <time>2024-07-24T07:05:25Z</time>
      </trkpt>
      <trkpt lat="49.79844" lon="2.38638">
        <ele>37</ele>
        <time>2024-07-24T07:05:26Z</time>
      </trkpt>
      <trkpt lat="49.79843" lon="2.38637">
        <ele>37</ele>
        <time>2024-07-24T07:05:27Z</time>
      </trkpt>
      <trkpt lat="49.79843" lon="2.38637">
        <ele>37</ele>
        <time>2024-07-24T07:05:28Z</time>
      </trkpt>
      <trkpt lat="49.79842" lon="2.38636">
        <ele>37</ele>
        <time>2024-07-24T07:05:29Z</time>
      </trkpt>
      <trkpt lat="49.79841" lon="2.38635">
        <ele>37</ele>
        <time>2024-07-24T07:05:30Z</time>
      </trkpt>
      <trkpt lat="49.7984" lon="2.38634">
        <ele>37</ele>
        <time>2024-07-24T07:05:31Z</time>
      </trkpt>
      <trkpt lat="49.79839" lon="2.38633">
        <ele>37</ele>
        <time>2024-07-24T07:05:32Z</time>
      </trkpt>
      <trkpt lat="49.79838" lon="2.38632">
        <ele>37</ele>
        <time>2024-07-24T07:05:33Z</time>
      </trkpt>
      <trkpt lat="49.79837" lon="2.38631">
        <ele>37</ele>
        <time>2024-07-24T07:05:34Z</time>
      </trkpt>
      <trkpt lat="49.79836" lon="2.38631">
        <ele>37</ele>
        <time>2024-07-24T07:05:35Z</time>
      </trkpt>
      <trkpt lat="49.79835" lon="2.3863">
        <ele>37</ele>
        <time>2024-07-24T07:05:36Z</time>
      </trkpt>
      <trkpt lat="49.79834" lon="2.3863">
        <ele>37</ele>
        <time>2024-07-24T07:05:37Z</time>
      </trkpt>
      <trkpt lat="49.79832" lon="2.3863">
        <ele>37</ele>
        <time>2024-07-24T07:05:38Z</time>
      </trkpt>
      <trkpt lat="49.79831" lon="2.38631">
        <ele>37</ele>
        <time>2024-07-24T07:05:39Z</time>
      </trkpt>
      <trkpt lat="49.7983" lon="2.38631">
        <ele>37</ele>
        <time>2024-07-24T07:05:40Z</time>
      </trkpt>
      <trkpt lat="49.79829" lon="2.38631">
        <ele>37</ele>
        <time>2024-07-24T07:05:41Z</time>
      </trkpt>
      <trkpt lat="49.79828" lon="2.38633">
        <ele>37</ele>
        <time>2024-07-24T07:05:42Z</time>
      </trkpt>
      <trkpt lat="49.79826" lon="2.38634">
        <ele>37</ele>
        <time>2024-07-24T07:05:43Z</time>
      </trkpt>
      <trkpt lat="49.79825" lon="2.38634">
        <ele>37</ele>
        <time>2024-07-24T07:05:44Z</time>
      </trkpt>
      <trkpt lat="49.79824" lon="2.38635">
        <ele>37</ele>
        <time>2024-07-24T07:05:45Z</time>
      </trkpt>
      <trkpt lat="49.79823" lon="2.38636">
        <ele>37</ele>
        <time>2024-07-24T07:05:46Z</time>
      </trkpt>
      <trkpt lat="49.79822" lon="2.38636">
        <ele>37</ele>
        <time>2024-07-24T07:05:47Z</time>
      </trkpt>
      <trkpt lat="49.79821" lon="2.38637">
        <ele>37</ele>
        <time>2024-07-24T07:05:48Z</time>
      </trkpt>
      <trkpt lat="49.7982" lon="2.38638">
        <ele>37</ele>
        <time>2024-07-24T07:05:49Z</time>
      </trkpt>
      <trkpt lat="49.7982" lon="2.38639">
        <ele>37</ele>
        <time>2024-07-24T07:05:50Z</time>
      </trkpt>
      <trkpt lat="49.79819" lon="2.3864">
        <ele>37.1</ele>
        <time>2024-07-24T07:05:51Z</time>
      </trkpt>
      <trkpt lat="49.79818" lon="2.38641">
        <ele>37.1</ele>
        <time>2024-07-24T07:05:52Z</time>
      </trkpt>
      <trkpt lat="49.79817" lon="2.38641">
        <ele>37.1</ele>
        <time>2024-07-24T07:05:53Z</time>
      </trkpt>
      <trkpt lat="49.79816" lon="2.38642">
        <ele>37.1</ele>
        <time>2024-07-24T07:05:54Z</time>
      </trkpt>
      <trkpt lat="49.79815" lon="2.38642">
        <ele>37.1</ele>
        <time>2024-07-24T07:05:55Z</time>
      </trkpt>
      <trkpt lat="49.79814" lon="2.38643">
        <ele>37.1</ele>
        <time>2024-07-24T07:05:56Z</time>
      </trkpt>
      <trkpt lat="49.79813" lon="2.38644">
        <ele>37.1</ele>
        <time>2024-07-24T07:05:57Z</time>
      </trkpt>
      <trkpt lat="49.79812" lon="2.38645">
        <ele>37.1</ele>
        <time>2024-07-24T07:05:58Z</time>
      </trkpt>
      <trkpt lat="49.79811" lon="2.38645">
        <ele>37.1</ele>
        <time>2024-07-24T07:05:59Z</time>
      </trkpt>
      <trkpt lat="49.7981" lon="2.38646">
        <ele>37.1</ele>
        <time>2024-07-24T07:06:00Z</time>
      </trkpt>
      <trkpt lat="49.79809" lon="2.38647">
        <ele>37.1</ele>
        <time>2024-07-24T07:06:01Z</time>
      </trkpt>
      <trkpt lat="49.79808" lon="2.38647">
        <ele>37.1</ele>
        <time>2024-07-24T07:06:02Z</time>
      </trkpt>
      <trkpt lat="49.79807" lon="2.38648">
        <ele>37.1</ele>
        <time>2024-07-24T07:06:03Z</time>
      </trkpt>
      <trkpt lat="49.79806" lon="2.38648">
        <ele>37.1</ele>
        <time>2024-07-24T07:06:04Z</time>
      </trkpt>
      <trkpt lat="49.79805" lon="2.38649">
        <ele>37.2</ele>
        <time>2024-07-24T07:06:05Z</time>
      </trkpt>
      <trkpt lat="49.79804" lon="2.3865">
        <ele>37.2</ele>
        <time>2024-07-24T07:06:06Z</time>
      </trkpt>
      <trkpt lat="49.79803" lon="2.38651">
        <ele>37.2</ele>
        <time>2024-07-24T07:06:07Z</time>
      </trkpt>
      <trkpt lat="49.79802" lon="2.38651">
        <ele>37.2</ele>
        <time>2024-07-24T07:06:08Z</time>
      </trkpt>
      <trkpt lat="49.79802" lon="2.38652">
        <ele>37.2</ele>
        <time>2024-07-24T07:06:09Z</time>
      </trkpt>
      <trkpt lat="49.798" lon="2.38653">
        <ele>37.2</ele>
        <time>2024-07-24T07:06:10Z</time>
      </trkpt>
      <trkpt lat="49.79799" lon="2.38654">
        <ele>37.2</ele>
        <time>2024-07-24T07:06:11Z</time>
      </trkpt>
      <trkpt lat="49.79799" lon="2.38655">
        <ele>37.2</ele>
        <time>2024-07-24T07:06:12Z</time>
      </trkpt>
      <trkpt lat="49.79798" lon="2.38655">
        <ele>37.2</ele>
        <time>2024-07-24T07:06:13Z</time>
      </trkpt>
      <trkpt lat="49.79797" lon="2.38656">
        <ele>37.2</ele>
        <time>2024-07-24T07:06:14Z</time>
      </trkpt>
      <trkpt lat="49.79796" lon="2.38656">
        <ele>37.2</ele>
        <time>2024-07-24T07:06:15Z</time>
      </trkpt>
      <trkpt lat="49.79795" lon="2.38657">
        <ele>37.2</ele>
        <time>2024-07-24T07:06:16Z</time>
      </trkpt>
      <trkpt lat="49.79794" lon="2.38658">
        <ele>37.2</ele>
        <time>2024-07-24T07:06:17Z</time>
      </trkpt>
      <trkpt lat="49.79793" lon="2.38658">
        <ele>37.2</ele>
        <time>2024-07-24T07:06:18Z</time>
      </trkpt>
      <trkpt lat="49.79792" lon="2.38659">
        <ele>37.2</ele>
        <time>2024-07-24T07:06:19Z</time>
      </trkpt>
      <trkpt lat="49.79791" lon="2.3866">
        <ele>37.2</ele>
        <time>2024-07-24T07:06:20Z</time>
      </trkpt>
      <trkpt lat="49.7979" lon="2.38661">
        <ele>37.3</ele>
        <time>2024-07-24T07:06:21Z</time>
      </trkpt>
      <trkpt lat="49.79789" lon="2.38662">
        <ele>37.3</ele>
        <time>2024-07-24T07:06:22Z</time>
      </trkpt>
      <trkpt lat="49.79788" lon="2.38662">
        <ele>37.3</ele>
        <time>2024-07-24T07:06:23Z</time>
      </trkpt>
      <trkpt lat="49.79787" lon="2.38663">
        <ele>37.3</ele>
        <time>2024-07-24T07:06:24Z</time>
      </trkpt>
      <trkpt lat="49.79786" lon="2.38664">
        <ele>37.3</ele>
        <time>2024-07-24T07:06:25Z</time>
      </trkpt>
      <trkpt lat="49.79785" lon="2.38664">
        <ele>37.3</ele>
        <time>2024-07-24T07:06:26Z</time>
      </trkpt>
      <trkpt lat="49.79784" lon="2.38665">
        <ele>37.3</ele>
        <time>2024-07-24T07:06:27Z</time>
      </trkpt>
      <trkpt lat="49.79782" lon="2.38666">
        <ele>37.3</ele>
        <time>2024-07-24T07:06:28Z</time>
      </trkpt>
      <trkpt lat="49.79781" lon="2.38667">
        <ele>37.3</ele>
        <time>2024-07-24T07:06:29Z</time>
      </trkpt>
      <trkpt lat="49.7978" lon="2.38668">
        <ele>37.3</ele>
        <time>2024-07-24T07:06:30Z</time>
      </trkpt>
      <trkpt lat="49.7978" lon="2.38668">
        <ele>37.3</ele>
        <time>2024-07-24T07:06:31Z</time>
      </trkpt>
      <trkpt lat="49.79778" lon="2.38669">
        <ele>37.3</ele>
        <time>2024-07-24T07:06:32Z</time>
      </trkpt>
      <trkpt lat="49.79777" lon="2.3867">
        <ele>37.3</ele>
        <time>2024-07-24T07:06:33Z</time>
      </trkpt>
      <trkpt lat="49.79776" lon="2.38671">
        <ele>37.3</ele>
        <time>2024-07-24T07:06:34Z</time>
      </trkpt>
      <trkpt lat="49.79775" lon="2.38671">
        <ele>37.3</ele>
        <time>2024-07-24T07:06:35Z</time>
      </trkpt>
      <trkpt lat="49.79774" lon="2.38672">
        <ele>37.3</ele>
        <time>2024-07-24T07:06:36Z</time>
      </trkpt>
      <trkpt lat="49.79773" lon="2.38673">
        <ele>37.3</ele>
        <time>2024-07-24T07:06:37Z</time>
      </trkpt>
      <trkpt lat="49.79772" lon="2.38673">
        <ele>37.3</ele>
        <time>2024-07-24T07:06:38Z</time>
      </trkpt>
      <trkpt lat="49.79771" lon="2.38673">
        <ele>37.3</ele>
        <time>2024-07-24T07:06:39Z</time>
      </trkpt>
      <trkpt lat="49.79769" lon="2.38674">
        <ele>37.3</ele>
        <time>2024-07-24T07:06:40Z</time>
      </trkpt>
      <trkpt lat="49.79768" lon="2.38674">
        <ele>37.3</ele>
        <time>2024-07-24T07:06:41Z</time>
      </trkpt>
      <trkpt lat="49.79767" lon="2.38675">
        <ele>37.3</ele>
        <time>2024-07-24T07:06:42Z</time>
      </trkpt>
      <trkpt lat="49.79765" lon="2.38676">
        <ele>37.3</ele>
        <time>2024-07-24T07:06:43Z</time>
      </trkpt>
      <trkpt lat="49.79765" lon="2.38676">
        <ele>37.3</ele>
        <time>2024-07-24T07:06:44Z</time>
      </trkpt>
      <trkpt lat="49.79764" lon="2.38677">
        <ele>37.3</ele>
        <time>2024-07-24T07:06:45Z</time>
      </trkpt>
      <trkpt lat="49.79763" lon="2.38677">
        <ele>37.3</ele>
        <time>2024-07-24T07:06:46Z</time>
      </trkpt>
      <trkpt lat="49.79762" lon="2.38678">
        <ele>37.3</ele>
        <time>2024-07-24T07:06:47Z</time>
      </trkpt>
      <trkpt lat="49.79761" lon="2.38679">
        <ele>37.3</ele>
        <time>2024-07-24T07:06:48Z</time>
      </trkpt>
      <trkpt lat="49.7976" lon="2.3868">
        <ele>37.3</ele>
        <time>2024-07-24T07:06:49Z</time>
      </trkpt>
      <trkpt lat="49.79759" lon="2.3868">
        <ele>37.3</ele>
        <time>2024-07-24T07:06:50Z</time>
      </trkpt>
      <trkpt lat="49.79757" lon="2.38681">
        <ele>37.3</ele>
        <time>2024-07-24T07:06:51Z</time>
      </trkpt>
      <trkpt lat="49.79757" lon="2.38681">
        <ele>37.3</ele>
        <time>2024-07-24T07:06:52Z</time>
      </trkpt>
      <trkpt lat="49.79755" lon="2.38682">
        <ele>37.3</ele>
        <time>2024-07-24T07:06:53Z</time>
      </trkpt>
      <trkpt lat="49.79755" lon="2.38682">
        <ele>37.3</ele>
        <time>2024-07-24T07:06:54Z</time>
      </trkpt>
      <trkpt lat="49.79754" lon="2.38683">
        <ele>37.3</ele>
        <time>2024-07-24T07:06:55Z</time>
      </trkpt>
      <trkpt lat="49.79753" lon="2.38684">
        <ele>37.3</ele>
        <time>2024-07-24T07:06:56Z</time>
      </trkpt>
      <trkpt lat="49.79752" lon="2.38684">
        <ele>37.3</ele>
        <time>2024-07-24T07:06:57Z</time>
      </trkpt>
      <trkpt lat="49.79751" lon="2.38685">
        <ele>37.3</ele>
        <time>2024-07-24T07:06:58Z</time>
      </trkpt>
      <trkpt lat="49.7975" lon="2.38685">
        <ele>37.3</ele>
        <time>2024-07-24T07:06:59Z</time>
      </trkpt>
      <trkpt lat="49.79749" lon="2.38686">
        <ele>37.3</ele>
        <time>2024-07-24T07:07:00Z</time>
      </trkpt>
      <trkpt lat="49.79749" lon="2.38687">
        <ele>37.3</ele>
        <time>2024-07-24T07:07:01Z</time>
      </trkpt>
      <trkpt lat="49.79748" lon="2.38687">
        <ele>37.3</ele>
        <time>2024-07-24T07:07:02Z</time>
      </trkpt>
      <trkpt lat="49.79747" lon="2.38688">
        <ele>37.3</ele>
        <time>2024-07-24T07:07:03Z</time>
      </trkpt>
      <trkpt lat="49.79746" lon="2.38689">
        <ele>37.3</ele>
        <time>2024-07-24T07:07:04Z</time>
      </trkpt>
      <trkpt lat="49.79745" lon="2.38689">
        <ele>37.3</ele>
        <time>2024-07-24T07:07:05Z</time>
      </trkpt>
      <trkpt lat="49.79745" lon="2.3869">
        <ele>37.2</ele>
        <time>2024-07-24T07:07:06Z</time>
      </trkpt>
      <trkpt lat="49.79744" lon="2.38691">
        <ele>37.2</ele>
        <time>2024-07-24T07:07:07Z</time>
      </trkpt>
      <trkpt lat="49.79743" lon="2.38692">
        <ele>37.2</ele>
        <time>2024-07-24T07:07:08Z</time>
      </trkpt>
      <trkpt lat="49.79742" lon="2.38692">
        <ele>37.2</ele>
        <time>2024-07-24T07:07:09Z</time>
      </trkpt>
      <trkpt lat="49.79741" lon="2.38693">
        <ele>37.2</ele>
        <time>2024-07-24T07:07:10Z</time>
      </trkpt>
      <trkpt lat="49.7974" lon="2.38694">
        <ele>37.2</ele>
        <time>2024-07-24T07:07:11Z</time>
      </trkpt>
      <trkpt lat="49.79739" lon="2.38694">
        <ele>37.2</ele>
        <time>2024-07-24T07:07:12Z</time>
      </trkpt>
      <trkpt lat="49.79738" lon="2.38694">
        <ele>37.2</ele>
        <time>2024-07-24T07:07:13Z</time>
      </trkpt>
      <trkpt lat="49.79737" lon="2.38695">
        <ele>37.2</ele>
        <time>2024-07-24T07:07:14Z</time>
      </trkpt>
      <trkpt lat="49.79736" lon="2.38695">
        <ele>37.2</ele>
        <time>2024-07-24T07:07:15Z</time>
      </trkpt>
      <trkpt lat="49.79735" lon="2.38696">
        <ele>37.2</ele>
        <time>2024-07-24T07:07:16Z</time>
      </trkpt>
      <trkpt lat="49.79733" lon="2.38697">
        <ele>37.2</ele>
        <time>2024-07-24T07:07:17Z</time>
      </trkpt>
      <trkpt lat="49.79732" lon="2.38697">
        <ele>37.2</ele>
        <time>2024-07-24T07:07:18Z</time>
      </trkpt>
      <trkpt lat="49.7973" lon="2.38698">
        <ele>37.2</ele>
        <time>2024-07-24T07:07:19Z</time>
      </trkpt>
      <trkpt lat="49.79729" lon="2.38699">
        <ele>37.1</ele>
        <time>2024-07-24T07:07:20Z</time>
      </trkpt>
      <trkpt lat="49.79728" lon="2.387">
        <ele>37.1</ele>
        <time>2024-07-24T07:07:21Z</time>
      </trkpt>
      <trkpt lat="49.79727" lon="2.387">
        <ele>37.1</ele>
        <time>2024-07-24T07:07:22Z</time>
      </trkpt>
      <trkpt lat="49.79726" lon="2.387">
        <ele>37.1</ele>
        <time>2024-07-24T07:07:23Z</time>
      </trkpt>
      <trkpt lat="49.79725" lon="2.38701">
        <ele>37.1</ele>
        <time>2024-07-24T07:07:24Z</time>
      </trkpt>
      <trkpt lat="49.79725" lon="2.38701">
        <ele>37.1</ele>
        <time>2024-07-24T07:07:25Z</time>
      </trkpt>
      <trkpt lat="49.79724" lon="2.38702">
        <ele>37.1</ele>
        <time>2024-07-24T07:07:26Z</time>
      </trkpt>
      <trkpt lat="49.79723" lon="2.38703">
        <ele>37.1</ele>
        <time>2024-07-24T07:07:27Z</time>
      </trkpt>
      <trkpt lat="49.79722" lon="2.38704">
        <ele>37.1</ele>
        <time>2024-07-24T07:07:28Z</time>
      </trkpt>
      <trkpt lat="49.79721" lon="2.38704">
        <ele>37.1</ele>
        <time>2024-07-24T07:07:29Z</time>
      </trkpt>
      <trkpt lat="49.79721" lon="2.38705">
        <ele>37.1</ele>
        <time>2024-07-24T07:07:30Z</time>
      </trkpt>
      <trkpt lat="49.7972" lon="2.38705">
        <ele>37.1</ele>
        <time>2024-07-24T07:07:31Z</time>
      </trkpt>
      <trkpt lat="49.79719" lon="2.38705">
        <ele>37.1</ele>
        <time>2024-07-24T07:07:32Z</time>
      </trkpt>
      <trkpt lat="49.79719" lon="2.38706">
        <ele>37.1</ele>
        <time>2024-07-24T07:07:33Z</time>
      </trkpt>
      <trkpt lat="49.79718" lon="2.38706">
        <ele>37.1</ele>
        <time>2024-07-24T07:07:34Z</time>
      </trkpt>
      <trkpt lat="49.79717" lon="2.38706">
        <ele>37</ele>
        <time>2024-07-24T07:07:35Z</time>
      </trkpt>
      <trkpt lat="49.79716" lon="2.38707">
        <ele>37</ele>
        <time>2024-07-24T07:07:36Z</time>
      </trkpt>
      <trkpt lat="49.79715" lon="2.38708">
        <ele>37</ele>
        <time>2024-07-24T07:07:37Z</time>
      </trkpt>
      <trkpt lat="49.79714" lon="2.38708">
        <ele>37</ele>
        <time>2024-07-24T07:07:38Z</time>
      </trkpt>
      <trkpt lat="49.79713" lon="2.38709">
        <ele>37</ele>
        <time>2024-07-24T07:07:39Z</time>
      </trkpt>
      <trkpt lat="49.79712" lon="2.3871">
        <ele>37</ele>
        <time>2024-07-24T07:07:40Z</time>
      </trkpt>
      <trkpt lat="49.79711" lon="2.38711">
        <ele>37</ele>
        <time>2024-07-24T07:07:41Z</time>
      </trkpt>
      <trkpt lat="49.7971" lon="2.38712">
        <ele>37</ele>
        <time>2024-07-24T07:07:42Z</time>
      </trkpt>
      <trkpt lat="49.79709" lon="2.38712">
        <ele>37</ele>
        <time>2024-07-24T07:07:43Z</time>
      </trkpt>
      <trkpt lat="49.79708" lon="2.38713">
        <ele>37</ele>
        <time>2024-07-24T07:07:44Z</time>
      </trkpt>
      <trkpt lat="49.79708" lon="2.38713">
        <ele>37</ele>
        <time>2024-07-24T07:07:45Z</time>
      </trkpt>
      <trkpt lat="49.79706" lon="2.38714">
        <ele>37</ele>
        <time>2024-07-24T07:07:46Z</time>
      </trkpt>
      <trkpt lat="49.79706" lon="2.38714">
        <ele>37</ele>
        <time>2024-07-24T07:07:47Z</time>
      </trkpt>
      <trkpt lat="49.79705" lon="2.38715">
        <ele>37</ele>
        <time>2024-07-24T07:07:48Z</time>
      </trkpt>
      <trkpt lat="49.79704" lon="2.38716">
        <ele>37</ele>
        <time>2024-07-24T07:07:49Z</time>
      </trkpt>
      <trkpt lat="49.79703" lon="2.38717">
        <ele>37</ele>
        <time>2024-07-24T07:07:50Z</time>
      </trkpt>
      <trkpt lat="49.79702" lon="2.38718">
        <ele>37</ele>
        <time>2024-07-24T07:07:51Z</time>
      </trkpt>
      <trkpt lat="49.797" lon="2.38719">
        <ele>37</ele>
        <time>2024-07-24T07:07:52Z</time>
      </trkpt>
      <trkpt lat="49.797" lon="2.3872">
        <ele>37</ele>
        <time>2024-07-24T07:07:53Z</time>
      </trkpt>
      <trkpt lat="49.79699" lon="2.38721">
        <ele>37</ele>
        <time>2024-07-24T07:07:54Z</time>
      </trkpt>
      <trkpt lat="49.79698" lon="2.38721">
        <ele>37</ele>
        <time>2024-07-24T07:07:55Z</time>
      </trkpt>
      <trkpt lat="49.79697" lon="2.38722">
        <ele>37</ele>
        <time>2024-07-24T07:07:56Z</time>
      </trkpt>
      <trkpt lat="49.79696" lon="2.38723">
        <ele>36.9</ele>
        <time>2024-07-24T07:07:57Z</time>
      </trkpt>
      <trkpt lat="49.79695" lon="2.38724">
        <ele>36.9</ele>
        <time>2024-07-24T07:07:58Z</time>
      </trkpt>
      <trkpt lat="49.79694" lon="2.38725">
        <ele>36.9</ele>
        <time>2024-07-24T07:07:59Z</time>
      </trkpt>
      <trkpt lat="49.79693" lon="2.38726">
        <ele>36.9</ele>
        <time>2024-07-24T07:08:00Z</time>
      </trkpt>
      <trkpt lat="49.79692" lon="2.38727">
        <ele>36.9</ele>
        <time>2024-07-24T07:08:01Z</time>
      </trkpt>
      <trkpt lat="49.79691" lon="2.38728">
        <ele>36.9</ele>
        <time>2024-07-24T07:08:02Z</time>
      </trkpt>
      <trkpt lat="49.7969" lon="2.38728">
        <ele>36.9</ele>
        <time>2024-07-24T07:08:03Z</time>
      </trkpt>
      <trkpt lat="49.79689" lon="2.38729">
        <ele>36.9</ele>
        <time>2024-07-24T07:08:04Z</time>
      </trkpt>
      <trkpt lat="49.79688" lon="2.3873">
        <ele>36.9</ele>
        <time>2024-07-24T07:08:05Z</time>
      </trkpt>
      <trkpt lat="49.79687" lon="2.38731">
        <ele>37</ele>
        <time>2024-07-24T07:08:06Z</time>
      </trkpt>
      <trkpt lat="49.79686" lon="2.38731">
        <ele>37</ele>
        <time>2024-07-24T07:08:07Z</time>
      </trkpt>
      <trkpt lat="49.79685" lon="2.38732">
        <ele>37</ele>
        <time>2024-07-24T07:08:08Z</time>
      </trkpt>
      <trkpt lat="49.79684" lon="2.38733">
        <ele>37</ele>
        <time>2024-07-24T07:08:09Z</time>
      </trkpt>
      <trkpt lat="49.79684" lon="2.38733">
        <ele>37</ele>
        <time>2024-07-24T07:08:10Z</time>
      </trkpt>
      <trkpt lat="49.79683" lon="2.38734">
        <ele>37</ele>
        <time>2024-07-24T07:08:11Z</time>
      </trkpt>
      <trkpt lat="49.79682" lon="2.38735">
        <ele>37</ele>
        <time>2024-07-24T07:08:12Z</time>
      </trkpt>
      <trkpt lat="49.79681" lon="2.38735">
        <ele>37</ele>
        <time>2024-07-24T07:08:13Z</time>
      </trkpt>
      <trkpt lat="49.79679" lon="2.38736">
        <ele>37</ele>
        <time>2024-07-24T07:08:14Z</time>
      </trkpt>
      <trkpt lat="49.79678" lon="2.38737">
        <ele>37</ele>
        <time>2024-07-24T07:08:15Z</time>
      </trkpt>
      <trkpt lat="49.79677" lon="2.38737">
        <ele>37</ele>
        <time>2024-07-24T07:08:16Z</time>
      </trkpt>
      <trkpt lat="49.79676" lon="2.38738">
        <ele>37</ele>
        <time>2024-07-24T07:08:17Z</time>
      </trkpt>
      <trkpt lat="49.79675" lon="2.38738">
        <ele>37</ele>
        <time>2024-07-24T07:08:18Z</time>
      </trkpt>
      <trkpt lat="49.79674" lon="2.38739">
        <ele>37</ele>
        <time>2024-07-24T07:08:19Z</time>
      </trkpt>
      <trkpt lat="49.79673" lon="2.3874">
        <ele>37</ele>
        <time>2024-07-24T07:08:20Z</time>
      </trkpt>
      <trkpt lat="49.79673" lon="2.38741">
        <ele>37</ele>
        <time>2024-07-24T07:08:21Z</time>
      </trkpt>
      <trkpt lat="49.79672" lon="2.38742">
        <ele>37</ele>
        <time>2024-07-24T07:08:22Z</time>
      </trkpt>
      <trkpt lat="49.79671" lon="2.38743">
        <ele>37</ele>
        <time>2024-07-24T07:08:23Z</time>
      </trkpt>
      <trkpt lat="49.79671" lon="2.38743">
        <ele>37</ele>
        <time>2024-07-24T07:08:24Z</time>
      </trkpt>
      <trkpt lat="49.7967" lon="2.38744">
        <ele>37.1</ele>
        <time>2024-07-24T07:08:25Z</time>
      </trkpt>
      <trkpt lat="49.79669" lon="2.38745">
        <ele>37.1</ele>
        <time>2024-07-24T07:08:26Z</time>
      </trkpt>
      <trkpt lat="49.79668" lon="2.38745">
        <ele>37.1</ele>
        <time>2024-07-24T07:08:27Z</time>
      </trkpt>
      <trkpt lat="49.79667" lon="2.38746">
        <ele>37.1</ele>
        <time>2024-07-24T07:08:28Z</time>
      </trkpt>
      <trkpt lat="49.79666" lon="2.38746">
        <ele>37.1</ele>
        <time>2024-07-24T07:08:29Z</time>
      </trkpt>
      <trkpt lat="49.79665" lon="2.38747">
        <ele>37.1</ele>
        <time>2024-07-24T07:08:30Z</time>
      </trkpt>
      <trkpt lat="49.79664" lon="2.38748">
        <ele>37.1</ele>
        <time>2024-07-24T07:08:31Z</time>
      </trkpt>
      <trkpt lat="49.79663" lon="2.38748">
        <ele>37.1</ele>
        <time>2024-07-24T07:08:32Z</time>
      </trkpt>
      <trkpt lat="49.79662" lon="2.38749">
        <ele>37.1</ele>
        <time>2024-07-24T07:08:33Z</time>
      </trkpt>
      <trkpt lat="49.79661" lon="2.38749">
        <ele>37.1</ele>
        <time>2024-07-24T07:08:34Z</time>
      </trkpt>
      <trkpt lat="49.7966" lon="2.38749">
        <ele>37.2</ele>
        <time>2024-07-24T07:08:35Z</time>
      </trkpt>
      <trkpt lat="49.79659" lon="2.3875">
        <ele>37.2</ele>
        <time>2024-07-24T07:08:36Z</time>
      </trkpt>
      <trkpt lat="49.79658" lon="2.38751">
        <ele>37.2</ele>
        <time>2024-07-24T07:08:37Z</time>
      </trkpt>
      <trkpt lat="49.79657" lon="2.38751">
        <ele>37.2</ele>
        <time>2024-07-24T07:08:38Z</time>
      </trkpt>
      <trkpt lat="49.79655" lon="2.38752">
        <ele>37.2</ele>
        <time>2024-07-24T07:08:39Z</time>
      </trkpt>
      <trkpt lat="49.79655" lon="2.38754">
        <ele>37.2</ele>
        <time>2024-07-24T07:08:40Z</time>
      </trkpt>
      <trkpt lat="49.79654" lon="2.38754">
        <ele>37.3</ele>
        <time>2024-07-24T07:08:41Z</time>
      </trkpt>
      <trkpt lat="49.79652" lon="2.38754">
        <ele>37.3</ele>
        <time>2024-07-24T07:08:42Z</time>
      </trkpt>
      <trkpt lat="49.79651" lon="2.38755">
        <ele>37.3</ele>
        <time>2024-07-24T07:08:43Z</time>
      </trkpt>
      <trkpt lat="49.7965" lon="2.38755">
        <ele>37.3</ele>
        <time>2024-07-24T07:08:44Z</time>
      </trkpt>
      <trkpt lat="49.79649" lon="2.38756">
        <ele>37.3</ele>
        <time>2024-07-24T07:08:45Z</time>
      </trkpt>
      <trkpt lat="49.79648" lon="2.38756">
        <ele>37.3</ele>
        <time>2024-07-24T07:08:46Z</time>
      </trkpt>
      <trkpt lat="49.79647" lon="2.38757">
        <ele>37.4</ele>
        <time>2024-07-24T07:08:47Z</time>
      </trkpt>
      <trkpt lat="49.79646" lon="2.38757">
        <ele>37.4</ele>
        <time>2024-07-24T07:08:48Z</time>
      </trkpt>
      <trkpt lat="49.79645" lon="2.38758">
        <ele>37.4</ele>
        <time>2024-07-24T07:08:49Z</time>
      </trkpt>
      <trkpt lat="49.79643" lon="2.38759">
        <ele>37.4</ele>
        <time>2024-07-24T07:08:50Z</time>
      </trkpt>
      <trkpt lat="49.79642" lon="2.3876">
        <ele>37.4</ele>
        <time>2024-07-24T07:08:51Z</time>
      </trkpt>
      <trkpt lat="49.79641" lon="2.38761">
        <ele>37.5</ele>
        <time>2024-07-24T07:08:52Z</time>
      </trkpt>
      <trkpt lat="49.7964" lon="2.38762">
        <ele>37.5</ele>
        <time>2024-07-24T07:08:53Z</time>
      </trkpt>
      <trkpt lat="49.79639" lon="2.38763">
        <ele>37.5</ele>
        <time>2024-07-24T07:08:54Z</time>
      </trkpt>
      <trkpt lat="49.79639" lon="2.38764">
        <ele>37.5</ele>
        <time>2024-07-24T07:08:55Z</time>
      </trkpt>
      <trkpt lat="49.79638" lon="2.38765">
        <ele>37.6</ele>
        <time>2024-07-24T07:08:56Z</time>
      </trkpt>
      <trkpt lat="49.79637" lon="2.38765">
        <ele>37.6</ele>
        <time>2024-07-24T07:08:57Z</time>
      </trkpt>
      <trkpt lat="49.79636" lon="2.38766">
        <ele>37.6</ele>
        <time>2024-07-24T07:08:58Z</time>
      </trkpt>
      <trkpt lat="49.79635" lon="2.38767">
        <ele>37.6</ele>
        <time>2024-07-24T07:08:59Z</time>
      </trkpt>
      <trkpt lat="49.79634" lon="2.38769">
        <ele>37.6</ele>
        <time>2024-07-24T07:09:00Z</time>
      </trkpt>
      <trkpt lat="49.79634" lon="2.3877">
        <ele>37.7</ele>
        <time>2024-07-24T07:09:01Z</time>
      </trkpt>
      <trkpt lat="49.79633" lon="2.38771">
        <ele>37.7</ele>
        <time>2024-07-24T07:09:02Z</time>
      </trkpt>
      <trkpt lat="49.79632" lon="2.38772">
        <ele>37.7</ele>
        <time>2024-07-24T07:09:03Z</time>
      </trkpt>
      <trkpt lat="49.79631" lon="2.38773">
        <ele>37.7</ele>
        <time>2024-07-24T07:09:04Z</time>
      </trkpt>
      <trkpt lat="49.79631" lon="2.38774">
        <ele>37.7</ele>
        <time>2024-07-24T07:09:05Z</time>
      </trkpt>
      <trkpt lat="49.7963" lon="2.38775">
        <ele>37.8</ele>
        <time>2024-07-24T07:09:06Z</time>
      </trkpt>
      <trkpt lat="49.7963" lon="2.38776">
        <ele>37.8</ele>
        <time>2024-07-24T07:09:07Z</time>
      </trkpt>
      <trkpt lat="49.79629" lon="2.38777">
        <ele>37.8</ele>
        <time>2024-07-24T07:09:08Z</time>
      </trkpt>
      <trkpt lat="49.79628" lon="2.38778">
        <ele>37.8</ele>
        <time>2024-07-24T07:09:09Z</time>
      </trkpt>
      <trkpt lat="49.79628" lon="2.38779">
        <ele>37.9</ele>
        <time>2024-07-24T07:09:10Z</time>
      </trkpt>
      <trkpt lat="49.79627" lon="2.3878">
        <ele>37.9</ele>
        <time>2024-07-24T07:09:11Z</time>
      </trkpt>
      <trkpt lat="49.79626" lon="2.38781">
        <ele>37.9</ele>
        <time>2024-07-24T07:09:12Z</time>
      </trkpt>
      <trkpt lat="49.79626" lon="2.38782">
        <ele>37.9</ele>
        <time>2024-07-24T07:09:13Z</time>
      </trkpt>
      <trkpt lat="49.79625" lon="2.38783">
        <ele>38</ele>
        <time>2024-07-24T07:09:14Z</time>
      </trkpt>
      <trkpt lat="49.79625" lon="2.38785">
        <ele>38</ele>
        <time>2024-07-24T07:09:15Z</time>
      </trkpt>
      <trkpt lat="49.79624" lon="2.38786">
        <ele>38</ele>
        <time>2024-07-24T07:09:16Z</time>
      </trkpt>
      <trkpt lat="49.79623" lon="2.38787">
        <ele>38</ele>
        <time>2024-07-24T07:09:17Z</time>
      </trkpt>
      <trkpt lat="49.79623" lon="2.38788">
        <ele>38.1</ele>
        <time>2024-07-24T07:09:18Z</time>
      </trkpt>
      <trkpt lat="49.79622" lon="2.3879">
        <ele>38.1</ele>
        <time>2024-07-24T07:09:19Z</time>
      </trkpt>
      <trkpt lat="49.79622" lon="2.38791">
        <ele>38.1</ele>
        <time>2024-07-24T07:09:20Z</time>
      </trkpt>
      <trkpt lat="49.79621" lon="2.38792">
        <ele>38.1</ele>
        <time>2024-07-24T07:09:21Z</time>
      </trkpt>
      <trkpt lat="49.79621" lon="2.38794">
        <ele>38.2</ele>
        <time>2024-07-24T07:09:22Z</time>
      </trkpt>
      <trkpt lat="49.7962" lon="2.38795">
        <ele>38.2</ele>
        <time>2024-07-24T07:09:23Z</time>
      </trkpt>
      <trkpt lat="49.79619" lon="2.38796">
        <ele>38.2</ele>
        <time>2024-07-24T07:09:24Z</time>
      </trkpt>
      <trkpt lat="49.79619" lon="2.38797">
        <ele>38.2</ele>
        <time>2024-07-24T07:09:25Z</time>
      </trkpt>
      <trkpt lat="49.79618" lon="2.38799">
        <ele>38.2</ele>
        <time>2024-07-24T07:09:26Z</time>
      </trkpt>
      <trkpt lat="49.79618" lon="2.38801">
        <ele>38.2</ele>
        <time>2024-07-24T07:09:27Z</time>
      </trkpt>
      <trkpt lat="49.79617" lon="2.38802">
        <ele>38.3</ele>
        <time>2024-07-24T07:09:28Z</time>
      </trkpt>
      <trkpt lat="49.79617" lon="2.38803">
        <ele>38.3</ele>
        <time>2024-07-24T07:09:29Z</time>
      </trkpt>
      <trkpt lat="49.79617" lon="2.38805">
        <ele>38.3</ele>
        <time>2024-07-24T07:09:30Z</time>
      </trkpt>
      <trkpt lat="49.79616" lon="2.38806">
        <ele>38.3</ele>
        <time>2024-07-24T07:09:31Z</time>
      </trkpt>
      <trkpt lat="49.79615" lon="2.38808">
        <ele>38.3</ele>
        <time>2024-07-24T07:09:32Z</time>
      </trkpt>
      <trkpt lat="49.79615" lon="2.38809">
        <ele>38.3</ele>
        <time>2024-07-24T07:09:33Z</time>
      </trkpt>
      <trkpt lat="49.79614" lon="2.3881">
        <ele>38.4</ele>
        <time>2024-07-24T07:09:34Z</time>
      </trkpt>
      <trkpt lat="49.79613" lon="2.38811">
        <ele>38.4</ele>
        <time>2024-07-24T07:09:35Z</time>
      </trkpt>
      <trkpt lat="49.79613" lon="2.38813">
        <ele>38.4</ele>
        <time>2024-07-24T07:09:36Z</time>
      </trkpt>
      <trkpt lat="49.79613" lon="2.38814">
        <ele>38.4</ele>
        <time>2024-07-24T07:09:37Z</time>
      </trkpt>
      <trkpt lat="49.79613" lon="2.38816">
        <ele>38.4</ele>
        <time>2024-07-24T07:09:38Z</time>
      </trkpt>
      <trkpt lat="49.79612" lon="2.38818">
        <ele>38.4</ele>
        <time>2024-07-24T07:09:39Z</time>
      </trkpt>
      <trkpt lat="49.79612" lon="2.38819">
        <ele>38.4</ele>
        <time>2024-07-24T07:09:40Z</time>
      </trkpt>
      <trkpt lat="49.79611" lon="2.38821">
        <ele>38.4</ele>
        <time>2024-07-24T07:09:41Z</time>
      </trkpt>
      <trkpt lat="49.79611" lon="2.38823">
        <ele>38.5</ele>
        <time>2024-07-24T07:09:42Z</time>
      </trkpt>
      <trkpt lat="49.79611" lon="2.38824">
        <ele>38.5</ele>
        <time>2024-07-24T07:09:43Z</time>
      </trkpt>
      <trkpt lat="49.7961" lon="2.38826">
        <ele>38.5</ele>
        <time>2024-07-24T07:09:44Z</time>
      </trkpt>
      <trkpt lat="49.7961" lon="2.38829">
        <ele>38.5</ele>
        <time>2024-07-24T07:09:45Z</time>
      </trkpt>
      <trkpt lat="49.79609" lon="2.3883">
        <ele>38.5</ele>
        <time>2024-07-24T07:09:46Z</time>
      </trkpt>
      <trkpt lat="49.79609" lon="2.38831">
        <ele>38.5</ele>
        <time>2024-07-24T07:09:47Z</time>
      </trkpt>
      <trkpt lat="49.79609" lon="2.38832">
        <ele>38.5</ele>
        <time>2024-07-24T07:09:48Z</time>
      </trkpt>
      <trkpt lat="49.79609" lon="2.38833">
        <ele>38.5</ele>
        <time>2024-07-24T07:09:49Z</time>
      </trkpt>
      <trkpt lat="49.79608" lon="2.38835">
        <ele>38.5</ele>
        <time>2024-07-24T07:09:50Z</time>
      </trkpt>
      <trkpt lat="49.79608" lon="2.38836">
        <ele>38.6</ele>
        <time>2024-07-24T07:09:51Z</time>
      </trkpt>
      <trkpt lat="49.79607" lon="2.38839">
        <ele>38.6</ele>
        <time>2024-07-24T07:09:52Z</time>
      </trkpt>
      <trkpt lat="49.79607" lon="2.3884">
        <ele>38.6</ele>
        <time>2024-07-24T07:09:53Z</time>
      </trkpt>
      <trkpt lat="49.79607" lon="2.38841">
        <ele>38.6</ele>
        <time>2024-07-24T07:09:54Z</time>
      </trkpt>
      <trkpt lat="49.79606" lon="2.38845">
        <ele>38.6</ele>
        <time>2024-07-24T07:09:55Z</time>
      </trkpt>
      <trkpt lat="49.79606" lon="2.38846">
        <ele>38.6</ele>
        <time>2024-07-24T07:09:56Z</time>
      </trkpt>
      <trkpt lat="49.79606" lon="2.38848">
        <ele>38.6</ele>
        <time>2024-07-24T07:09:57Z</time>
      </trkpt>
      <trkpt lat="49.79606" lon="2.38849">
        <ele>38.7</ele>
        <time>2024-07-24T07:09:58Z</time>
      </trkpt>
      <trkpt lat="49.79606" lon="2.38851">
        <ele>38.7</ele>
        <time>2024-07-24T07:09:59Z</time>
      </trkpt>
      <trkpt lat="49.79605" lon="2.38853">
        <ele>38.7</ele>
        <time>2024-07-24T07:10:00Z</time>
      </trkpt>
      <trkpt lat="49.79605" lon="2.38854">
        <ele>38.7</ele>
        <time>2024-07-24T07:10:01Z</time>
      </trkpt>
      <trkpt lat="49.79605" lon="2.38857">
        <ele>38.7</ele>
        <time>2024-07-24T07:10:02Z</time>
      </trkpt>
      <trkpt lat="49.79605" lon="2.38858">
        <ele>38.8</ele>
        <time>2024-07-24T07:10:03Z</time>
      </trkpt>
      <trkpt lat="49.79604" lon="2.3886">
        <ele>38.8</ele>
        <time>2024-07-24T07:10:04Z</time>
      </trkpt>
      <trkpt lat="49.79604" lon="2.38862">
        <ele>38.8</ele>
        <time>2024-07-24T07:10:05Z</time>
      </trkpt>
      <trkpt lat="49.79604" lon="2.38864">
        <ele>38.8</ele>
        <time>2024-07-24T07:10:06Z</time>
      </trkpt>
      <trkpt lat="49.79603" lon="2.38866">
        <ele>38.8</ele>
        <time>2024-07-24T07:10:07Z</time>
      </trkpt>
      <trkpt lat="49.79603" lon="2.38868">
        <ele>38.9</ele>
        <time>2024-07-24T07:10:08Z</time>
      </trkpt>
      <trkpt lat="49.79603" lon="2.3887">
        <ele>38.9</ele>
        <time>2024-07-24T07:10:09Z</time>
      </trkpt>
      <trkpt lat="49.79603" lon="2.38872">
        <ele>38.9</ele>
        <time>2024-07-24T07:10:10Z</time>
      </trkpt>
      <trkpt lat="49.79603" lon="2.38874">
        <ele>38.9</ele>
        <time>2024-07-24T07:10:11Z</time>
      </trkpt>
      <trkpt lat="49.79603" lon="2.38876">
        <ele>39</ele>
        <time>2024-07-24T07:10:12Z</time>
      </trkpt>
      <trkpt lat="49.79602" lon="2.38877">
        <ele>39</ele>
        <time>2024-07-24T07:10:13Z</time>
      </trkpt>
      <trkpt lat="49.79602" lon="2.38879">
        <ele>39.1</ele>
        <time>2024-07-24T07:10:14Z</time>
      </trkpt>
      <trkpt lat="49.79602" lon="2.38881">
        <ele>39.1</ele>
        <time>2024-07-24T07:10:15Z</time>
      </trkpt>
      <trkpt lat="49.79602" lon="2.38883">
        <ele>39.1</ele>
        <time>2024-07-24T07:10:16Z</time>
      </trkpt>
      <trkpt lat="49.79602" lon="2.38885">
        <ele>39.2</ele>
        <time>2024-07-24T07:10:17Z</time>
      </trkpt>
      <trkpt lat="49.79602" lon="2.38887">
        <ele>39.2</ele>
        <time>2024-07-24T07:10:18Z</time>
      </trkpt>
      <trkpt lat="49.79602" lon="2.38889">
        <ele>39.3</ele>
        <time>2024-07-24T07:10:19Z</time>
      </trkpt>
      <trkpt lat="49.79602" lon="2.3889">
        <ele>39.3</ele>
        <time>2024-07-24T07:10:20Z</time>
      </trkpt>
      <trkpt lat="49.79602" lon="2.38892">
        <ele>39.3</ele>
        <time>2024-07-24T07:10:21Z</time>
      </trkpt>
      <trkpt lat="49.79601" lon="2.38894">
        <ele>39.4</ele>
        <time>2024-07-24T07:10:22Z</time>
      </trkpt>
      <trkpt lat="49.79601" lon="2.38895">
        <ele>39.4</ele>
        <time>2024-07-24T07:10:23Z</time>
      </trkpt>
      <trkpt lat="49.79601" lon="2.38897">
        <ele>39.5</ele>
        <time>2024-07-24T07:10:24Z</time>
      </trkpt>
      <trkpt lat="49.79601" lon="2.38899">
        <ele>39.5</ele>
        <time>2024-07-24T07:10:25Z</time>
      </trkpt>
      <trkpt lat="49.796" lon="2.389">
        <ele>39.6</ele>
        <time>2024-07-24T07:10:26Z</time>
      </trkpt>
      <trkpt lat="49.796" lon="2.38902">
        <ele>39.6</ele>
        <time>2024-07-24T07:10:27Z</time>
      </trkpt>
      <trkpt lat="49.796" lon="2.38903">
        <ele>39.7</ele>
        <time>2024-07-24T07:10:28Z</time>
      </trkpt>
      <trkpt lat="49.79599" lon="2.38905">
        <ele>39.7</ele>
        <time>2024-07-24T07:10:29Z</time>
      </trkpt>
      <trkpt lat="49.79599" lon="2.38907">
        <ele>39.8</ele>
        <time>2024-07-24T07:10:30Z</time>
      </trkpt>
      <trkpt lat="49.79599" lon="2.38908">
        <ele>39.8</ele>
        <time>2024-07-24T07:10:31Z</time>
      </trkpt>
      <trkpt lat="49.79599" lon="2.3891">
        <ele>39.9</ele>
        <time>2024-07-24T07:10:32Z</time>
      </trkpt>
      <trkpt lat="49.79598" lon="2.38912">
        <ele>39.9</ele>
        <time>2024-07-24T07:10:33Z</time>
      </trkpt>
      <trkpt lat="49.79598" lon="2.38913">
        <ele>40</ele>
        <time>2024-07-24T07:10:34Z</time>
      </trkpt>
      <trkpt lat="49.79598" lon="2.38915">
        <ele>40</ele>
        <time>2024-07-24T07:10:35Z</time>
      </trkpt>
      <trkpt lat="49.79597" lon="2.38917">
        <ele>40.1</ele>
        <time>2024-07-24T07:10:36Z</time>
      </trkpt>
      <trkpt lat="49.79596" lon="2.38918">
        <ele>40.2</ele>
        <time>2024-07-24T07:10:37Z</time>
      </trkpt>
      <trkpt lat="49.79596" lon="2.3892">
        <ele>40.3</ele>
        <time>2024-07-24T07:10:38Z</time>
      </trkpt>
      <trkpt lat="49.79596" lon="2.38921">
        <ele>40.3</ele>
        <time>2024-07-24T07:10:39Z</time>
      </trkpt>
      <trkpt lat="49.79595" lon="2.38923">
        <ele>40.4</ele>
        <time>2024-07-24T07:10:40Z</time>
      </trkpt>
      <trkpt lat="49.79595" lon="2.38925">
        <ele>40.5</ele>
        <time>2024-07-24T07:10:41Z</time>
      </trkpt>
      <trkpt lat="49.79594" lon="2.38926">
        <ele>40.5</ele>
        <time>2024-07-24T07:10:42Z</time>
      </trkpt>
      <trkpt lat="49.79594" lon="2.38928">
        <ele>40.6</ele>
        <time>2024-07-24T07:10:43Z</time>
      </trkpt>
      <trkpt lat="49.79594" lon="2.38929">
        <ele>40.7</ele>
        <time>2024-07-24T07:10:44Z</time>
      </trkpt>
      <trkpt lat="49.79593" lon="2.3893">
        <ele>40.7</ele>
        <time>2024-07-24T07:10:45Z</time>
      </trkpt>
      <trkpt lat="49.79593" lon="2.38932">
        <ele>40.8</ele>
        <time>2024-07-24T07:10:46Z</time>
      </trkpt>
      <trkpt lat="49.79593" lon="2.38933">
        <ele>40.9</ele>
        <time>2024-07-24T07:10:47Z</time>
      </trkpt>
      <trkpt lat="49.79593" lon="2.38935">
        <ele>40.9</ele>
        <time>2024-07-24T07:10:48Z</time>
      </trkpt>
      <trkpt lat="49.79592" lon="2.38936">
        <ele>41</ele>
        <time>2024-07-24T07:10:49Z</time>
      </trkpt>
      <trkpt lat="49.79592" lon="2.38937">
        <ele>41.1</ele>
        <time>2024-07-24T07:10:50Z</time>
      </trkpt>
      <trkpt lat="49.79592" lon="2.38939">
        <ele>41.1</ele>
        <time>2024-07-24T07:10:51Z</time>
      </trkpt>
      <trkpt lat="49.79591" lon="2.3894">
        <ele>41.2</ele>
        <time>2024-07-24T07:10:52Z</time>
      </trkpt>
      <trkpt lat="49.79591" lon="2.38942">
        <ele>41.3</ele>
        <time>2024-07-24T07:10:53Z</time>
      </trkpt>
      <trkpt lat="49.79591" lon="2.38943">
        <ele>41.4</ele>
        <time>2024-07-24T07:10:54Z</time>
      </trkpt>
      <trkpt lat="49.7959" lon="2.38944">
        <ele>41.4</ele>
        <time>2024-07-24T07:10:55Z</time>
      </trkpt>
      <trkpt lat="49.7959" lon="2.38946">
        <ele>41.5</ele>
        <time>2024-07-24T07:10:56Z</time>
      </trkpt>
      <trkpt lat="49.7959" lon="2.38947">
        <ele>41.5</ele>
        <time>2024-07-24T07:10:57Z</time>
      </trkpt>
      <trkpt lat="49.7959" lon="2.38948">
        <ele>41.6</ele>
        <time>2024-07-24T07:10:58Z</time>
      </trkpt>
      <trkpt lat="49.79589" lon="2.38949">
        <ele>41.7</ele>
        <time>2024-07-24T07:10:59Z</time>
      </trkpt>
      <trkpt lat="49.79589" lon="2.3895">
        <ele>41.7</ele>
        <time>2024-07-24T07:11:00Z</time>
      </trkpt>
      <trkpt lat="49.79588" lon="2.38951">
        <ele>41.8</ele>
        <time>2024-07-24T07:11:01Z</time>
      </trkpt>
      <trkpt lat="49.79588" lon="2.38952">
        <ele>41.8</ele>
        <time>2024-07-24T07:11:02Z</time>
      </trkpt>
      <trkpt lat="49.79587" lon="2.38954">
        <ele>41.9</ele>
        <time>2024-07-24T07:11:03Z</time>
      </trkpt>
      <trkpt lat="49.79587" lon="2.38955">
        <ele>41.9</ele>
        <time>2024-07-24T07:11:04Z</time>
      </trkpt>
      <trkpt lat="49.79587" lon="2.38956">
        <ele>41.9</ele>
        <time>2024-07-24T07:11:05Z</time>
      </trkpt>
      <trkpt lat="49.79587" lon="2.38957">
        <ele>42</ele>
        <time>2024-07-24T07:11:06Z</time>
      </trkpt>
      <trkpt lat="49.79586" lon="2.38958">
        <ele>42</ele>
        <time>2024-07-24T07:11:07Z</time>
      </trkpt>
      <trkpt lat="49.79586" lon="2.38959">
        <ele>42.1</ele>
        <time>2024-07-24T07:11:08Z</time>
      </trkpt>
      <trkpt lat="49.79586" lon="2.38961">
        <ele>42.1</ele>
        <time>2024-07-24T07:11:09Z</time>
      </trkpt>
      <trkpt lat="49.79585" lon="2.38962">
        <ele>42.1</ele>
        <time>2024-07-24T07:11:10Z</time>
      </trkpt>
      <trkpt lat="49.79585" lon="2.38963">
        <ele>42.2</ele>
        <time>2024-07-24T07:11:11Z</time>
      </trkpt>
      <trkpt lat="49.79585" lon="2.38963">
        <ele>42.2</ele>
        <time>2024-07-24T07:11:12Z</time>
      </trkpt>
      <trkpt lat="49.79585" lon="2.38965">
        <ele>42.3</ele>
        <time>2024-07-24T07:11:13Z</time>
      </trkpt>
      <trkpt lat="49.79586" lon="2.38965">
        <ele>42.3</ele>
        <time>2024-07-24T07:11:14Z</time>
      </trkpt>
      <trkpt lat="49.79586" lon="2.38966">
        <ele>42.3</ele>
        <time>2024-07-24T07:11:15Z</time>
      </trkpt>
      <trkpt lat="49.79586" lon="2.38967">
        <ele>42.3</ele>
        <time>2024-07-24T07:11:16Z</time>
      </trkpt>
      <trkpt lat="49.79586" lon="2.38968">
        <ele>42.4</ele>
        <time>2024-07-24T07:11:17Z</time>
      </trkpt>
      <trkpt lat="49.79586" lon="2.3897">
        <ele>42.4</ele>
        <time>2024-07-24T07:11:18Z</time>
      </trkpt>
      <trkpt lat="49.79586" lon="2.38971">
        <ele>42.5</ele>
        <time>2024-07-24T07:11:19Z</time>
      </trkpt>
      <trkpt lat="49.79585" lon="2.38973">
        <ele>42.5</ele>
        <time>2024-07-24T07:11:20Z</time>
      </trkpt>
      <trkpt lat="49.79585" lon="2.38975">
        <ele>42.6</ele>
        <time>2024-07-24T07:11:21Z</time>
      </trkpt>
      <trkpt lat="49.79585" lon="2.38976">
        <ele>42.6</ele>
        <time>2024-07-24T07:11:22Z</time>
      </trkpt>
      <trkpt lat="49.79585" lon="2.38977">
        <ele>42.7</ele>
        <time>2024-07-24T07:11:23Z</time>
      </trkpt>
      <trkpt lat="49.79585" lon="2.38979">
        <ele>42.7</ele>
        <time>2024-07-24T07:11:24Z</time>
      </trkpt>
      <trkpt lat="49.79585" lon="2.3898">
        <ele>42.8</ele>
        <time>2024-07-24T07:11:25Z</time>
      </trkpt>
      <trkpt lat="49.79584" lon="2.38983">
        <ele>42.9</ele>
        <time>2024-07-24T07:11:26Z</time>
      </trkpt>
      <trkpt lat="49.79584" lon="2.38984">
        <ele>42.9</ele>
        <time>2024-07-24T07:11:27Z</time>
      </trkpt>
      <trkpt lat="49.79584" lon="2.38985">
        <ele>42.9</ele>
        <time>2024-07-24T07:11:28Z</time>
      </trkpt>
      <trkpt lat="49.79584" lon="2.38986">
        <ele>43</ele>
        <time>2024-07-24T07:11:29Z</time>
      </trkpt>
      <trkpt lat="49.79584" lon="2.38987">
        <ele>43</ele>
        <time>2024-07-24T07:11:30Z</time>
      </trkpt>
      <trkpt lat="49.79584" lon="2.38989">
        <ele>43.1</ele>
        <time>2024-07-24T07:11:31Z</time>
      </trkpt>
      <trkpt lat="49.79584" lon="2.3899">
        <ele>43.1</ele>
        <time>2024-07-24T07:11:32Z</time>
      </trkpt>
      <trkpt lat="49.79584" lon="2.38992">
        <ele>43.2</ele>
        <time>2024-07-24T07:11:33Z</time>
      </trkpt>
      <trkpt lat="49.79583" lon="2.38993">
        <ele>43.2</ele>
        <time>2024-07-24T07:11:34Z</time>
      </trkpt>
      <trkpt lat="49.79583" lon="2.38994">
        <ele>43.2</ele>
        <time>2024-07-24T07:11:35Z</time>
      </trkpt>
      <trkpt lat="49.79583" lon="2.38996">
        <ele>43.3</ele>
        <time>2024-07-24T07:11:36Z</time>
      </trkpt>
      <trkpt lat="49.79583" lon="2.38997">
        <ele>43.3</ele>
        <time>2024-07-24T07:11:37Z</time>
      </trkpt>
      <trkpt lat="49.79583" lon="2.38999">
        <ele>43.3</ele>
        <time>2024-07-24T07:11:38Z</time>
      </trkpt>
      <trkpt lat="49.79582" lon="2.39001">
        <ele>43.3</ele>
        <time>2024-07-24T07:11:39Z</time>
      </trkpt>
      <trkpt lat="49.79582" lon="2.39002">
        <ele>43.3</ele>
        <time>2024-07-24T07:11:40Z</time>
      </trkpt>
      <trkpt lat="49.79582" lon="2.39003">
        <ele>43.3</ele>
        <time>2024-07-24T07:11:41Z</time>
      </trkpt>
      <trkpt lat="49.79581" lon="2.39004">
        <ele>43.3</ele>
        <time>2024-07-24T07:11:42Z</time>
      </trkpt>
      <trkpt lat="49.79581" lon="2.39006">
        <ele>43.3</ele>
        <time>2024-07-24T07:11:43Z</time>
      </trkpt>
      <trkpt lat="49.7958" lon="2.39007">
        <ele>43.4</ele>
        <time>2024-07-24T07:11:44Z</time>
      </trkpt>
      <trkpt lat="49.7958" lon="2.39008">
        <ele>43.4</ele>
        <time>2024-07-24T07:11:45Z</time>
      </trkpt>
      <trkpt lat="49.7958" lon="2.39009">
        <ele>43.4</ele>
        <time>2024-07-24T07:11:46Z</time>
      </trkpt>
      <trkpt lat="49.79579" lon="2.39011">
        <ele>43.4</ele>
        <time>2024-07-24T07:11:47Z</time>
      </trkpt>
      <trkpt lat="49.79579" lon="2.39012">
        <ele>43.4</ele>
        <time>2024-07-24T07:11:48Z</time>
      </trkpt>
      <trkpt lat="49.79578" lon="2.39014">
        <ele>43.4</ele>
        <time>2024-07-24T07:11:49Z</time>
      </trkpt>
      <trkpt lat="49.79577" lon="2.39015">
        <ele>43.4</ele>
        <time>2024-07-24T07:11:50Z</time>
      </trkpt>
      <trkpt lat="49.79577" lon="2.39016">
        <ele>43.4</ele>
        <time>2024-07-24T07:11:51Z</time>
      </trkpt>
      <trkpt lat="49.79576" lon="2.39017">
        <ele>43.4</ele>
        <time>2024-07-24T07:11:52Z</time>
      </trkpt>
      <trkpt lat="49.79575" lon="2.3902">
        <ele>43.4</ele>
        <time>2024-07-24T07:11:53Z</time>
      </trkpt>
      <trkpt lat="49.79574" lon="2.39021">
        <ele>43.5</ele>
        <time>2024-07-24T07:11:54Z</time>
      </trkpt>
      <trkpt lat="49.79574" lon="2.39022">
        <ele>43.5</ele>
        <time>2024-07-24T07:11:55Z</time>
      </trkpt>
      <trkpt lat="49.79574" lon="2.39023">
        <ele>43.5</ele>
        <time>2024-07-24T07:11:56Z</time>
      </trkpt>
      <trkpt lat="49.79573" lon="2.39024">
        <ele>43.5</ele>
        <time>2024-07-24T07:11:57Z</time>
      </trkpt>
      <trkpt lat="49.79573" lon="2.39026">
        <ele>43.5</ele>
        <time>2024-07-24T07:11:58Z</time>
      </trkpt>
      <trkpt lat="49.79572" lon="2.39027">
        <ele>43.5</ele>
        <time>2024-07-24T07:11:59Z</time>
      </trkpt>
      <trkpt lat="49.79572" lon="2.39029">
        <ele>43.5</ele>
        <time>2024-07-24T07:12:00Z</time>
      </trkpt>
      <trkpt lat="49.79571" lon="2.3903">
        <ele>43.5</ele>
        <time>2024-07-24T07:12:01Z</time>
      </trkpt>
      <trkpt lat="49.79571" lon="2.39032">
        <ele>43.5</ele>
        <time>2024-07-24T07:12:02Z</time>
      </trkpt>
      <trkpt lat="49.79571" lon="2.39034">
        <ele>43.5</ele>
        <time>2024-07-24T07:12:03Z</time>
      </trkpt>
      <trkpt lat="49.7957" lon="2.39035">
        <ele>43.5</ele>
        <time>2024-07-24T07:12:04Z</time>
      </trkpt>
      <trkpt lat="49.7957" lon="2.39037">
        <ele>43.5</ele>
        <time>2024-07-24T07:12:05Z</time>
      </trkpt>
      <trkpt lat="49.79569" lon="2.39039">
        <ele>43.6</ele>
        <time>2024-07-24T07:12:06Z</time>
      </trkpt>
      <trkpt lat="49.79569" lon="2.39041">
        <ele>43.6</ele>
        <time>2024-07-24T07:12:07Z</time>
      </trkpt>
      <trkpt lat="49.79568" lon="2.39043">
        <ele>43.6</ele>
        <time>2024-07-24T07:12:08Z</time>
      </trkpt>
      <trkpt lat="49.79568" lon="2.39044">
        <ele>43.6</ele>
        <time>2024-07-24T07:12:09Z</time>
      </trkpt>
      <trkpt lat="49.79568" lon="2.39046">
        <ele>43.6</ele>
        <time>2024-07-24T07:12:10Z</time>
      </trkpt>
      <trkpt lat="49.79568" lon="2.39047">
        <ele>43.6</ele>
        <time>2024-07-24T07:12:11Z</time>
      </trkpt>
      <trkpt lat="49.79567" lon="2.39049">
        <ele>43.7</ele>
        <time>2024-07-24T07:12:12Z</time>
      </trkpt>
      <trkpt lat="49.79567" lon="2.39052">
        <ele>43.7</ele>
        <time>2024-07-24T07:12:13Z</time>
      </trkpt>
      <trkpt lat="49.79567" lon="2.39054">
        <ele>43.7</ele>
        <time>2024-07-24T07:12:14Z</time>
      </trkpt>
      <trkpt lat="49.79566" lon="2.39055">
        <ele>43.7</ele>
        <time>2024-07-24T07:12:15Z</time>
      </trkpt>
      <trkpt lat="49.79566" lon="2.39057">
        <ele>43.7</ele>
        <time>2024-07-24T07:12:16Z</time>
      </trkpt>
      <trkpt lat="49.79566" lon="2.39058">
        <ele>43.8</ele>
        <time>2024-07-24T07:12:17Z</time>
      </trkpt>
      <trkpt lat="49.79565" lon="2.3906">
        <ele>43.8</ele>
        <time>2024-07-24T07:12:18Z</time>
      </trkpt>
      <trkpt lat="49.79565" lon="2.39062">
        <ele>43.8</ele>
        <time>2024-07-24T07:12:19Z</time>
      </trkpt>
      <trkpt lat="49.79565" lon="2.39063">
        <ele>43.8</ele>
        <time>2024-07-24T07:12:20Z</time>
      </trkpt>
      <trkpt lat="49.79564" lon="2.39065">
        <ele>43.9</ele>
        <time>2024-07-24T07:12:21Z</time>
      </trkpt>
      <trkpt lat="49.79564" lon="2.39068">
        <ele>43.9</ele>
        <time>2024-07-24T07:12:22Z</time>
      </trkpt>
      <trkpt lat="49.79564" lon="2.39069">
        <ele>43.9</ele>
        <time>2024-07-24T07:12:23Z</time>
      </trkpt>
      <trkpt lat="49.79564" lon="2.39071">
        <ele>44</ele>
        <time>2024-07-24T07:12:24Z</time>
      </trkpt>
      <trkpt lat="49.79563" lon="2.39072">
        <ele>44</ele>
        <time>2024-07-24T07:12:25Z</time>
      </trkpt>
      <trkpt lat="49.79563" lon="2.39074">
        <ele>44</ele>
        <time>2024-07-24T07:12:26Z</time>
      </trkpt>
      <trkpt lat="49.79563" lon="2.39075">
        <ele>44.1</ele>
        <time>2024-07-24T07:12:27Z</time>
      </trkpt>
      <trkpt lat="49.79562" lon="2.39076">
        <ele>44.1</ele>
        <time>2024-07-24T07:12:28Z</time>
      </trkpt>
      <trkpt lat="49.79562" lon="2.39078">
        <ele>44.1</ele>
        <time>2024-07-24T07:12:29Z</time>
      </trkpt>
      <trkpt lat="49.79562" lon="2.3908">
        <ele>44.2</ele>
        <time>2024-07-24T07:12:30Z</time>
      </trkpt>
      <trkpt lat="49.79561" lon="2.39081">
        <ele>44.2</ele>
        <time>2024-07-24T07:12:31Z</time>
      </trkpt>
      <trkpt lat="49.79561" lon="2.39083">
        <ele>44.3</ele>
        <time>2024-07-24T07:12:32Z</time>
      </trkpt>
      <trkpt lat="49.7956" lon="2.39084">
        <ele>44.3</ele>
        <time>2024-07-24T07:12:33Z</time>
      </trkpt>
      <trkpt lat="49.7956" lon="2.39086">
        <ele>44.4</ele>
        <time>2024-07-24T07:12:34Z</time>
      </trkpt>
      <trkpt lat="49.7956" lon="2.39087">
        <ele>44.4</ele>
        <time>2024-07-24T07:12:35Z</time>
      </trkpt>
      <trkpt lat="49.79559" lon="2.39089">
        <ele>44.4</ele>
        <time>2024-07-24T07:12:36Z</time>
      </trkpt>
      <trkpt lat="49.79559" lon="2.3909">
        <ele>44.5</ele>
        <time>2024-07-24T07:12:37Z</time>
      </trkpt>
      <trkpt lat="49.79558" lon="2.39092">
        <ele>44.5</ele>
        <time>2024-07-24T07:12:38Z</time>
      </trkpt>
      <trkpt lat="49.79558" lon="2.39093">
        <ele>44.6</ele>
        <time>2024-07-24T07:12:39Z</time>
      </trkpt>
      <trkpt lat="49.79558" lon="2.39095">
        <ele>44.6</ele>
        <time>2024-07-24T07:12:40Z</time>
      </trkpt>
      <trkpt lat="49.79557" lon="2.39096">
        <ele>44.6</ele>
        <time>2024-07-24T07:12:41Z</time>
      </trkpt>
      <trkpt lat="49.79557" lon="2.39098">
        <ele>44.7</ele>
        <time>2024-07-24T07:12:42Z</time>
      </trkpt>
      <trkpt lat="49.79556" lon="2.391">
        <ele>44.8</ele>
        <time>2024-07-24T07:12:43Z</time>
      </trkpt>
      <trkpt lat="49.79555" lon="2.39101">
        <ele>44.8</ele>
        <time>2024-07-24T07:12:44Z</time>
      </trkpt>
      <trkpt lat="49.79555" lon="2.39102">
        <ele>44.8</ele>
        <time>2024-07-24T07:12:45Z</time>
      </trkpt>
      <trkpt lat="49.79554" lon="2.39104">
        <ele>44.9</ele>
        <time>2024-07-24T07:12:46Z</time>
      </trkpt>
      <trkpt lat="49.79554" lon="2.39105">
        <ele>44.9</ele>
        <time>2024-07-24T07:12:47Z</time>
      </trkpt>
      <trkpt lat="49.79553" lon="2.39106">
        <ele>45</ele>
        <time>2024-07-24T07:12:48Z</time>
      </trkpt>
      <trkpt lat="49.79553" lon="2.39108">
        <ele>45.1</ele>
        <time>2024-07-24T07:12:49Z</time>
      </trkpt>
      <trkpt lat="49.79553" lon="2.3911">
        <ele>45.1</ele>
        <time>2024-07-24T07:12:50Z</time>
      </trkpt>
      <trkpt lat="49.79553" lon="2.39111">
        <ele>45.2</ele>
        <time>2024-07-24T07:12:51Z</time>
      </trkpt>
      <trkpt lat="49.79553" lon="2.39114">
        <ele>45.3</ele>
        <time>2024-07-24T07:12:52Z</time>
      </trkpt>
      <trkpt lat="49.79553" lon="2.39115">
        <ele>45.3</ele>
        <time>2024-07-24T07:12:53Z</time>
      </trkpt>
      <trkpt lat="49.79554" lon="2.39117">
        <ele>45.4</ele>
        <time>2024-07-24T07:12:54Z</time>
      </trkpt>
      <trkpt lat="49.79554" lon="2.39118">
        <ele>45.4</ele>
        <time>2024-07-24T07:12:55Z</time>
      </trkpt>
      <trkpt lat="49.79554" lon="2.3912">
        <ele>45.5</ele>
        <time>2024-07-24T07:12:56Z</time>
      </trkpt>
      <trkpt lat="49.79554" lon="2.39121">
        <ele>45.6</ele>
        <time>2024-07-24T07:12:57Z</time>
      </trkpt>
      <trkpt lat="49.79554" lon="2.39123">
        <ele>45.6</ele>
        <time>2024-07-24T07:12:58Z</time>
      </trkpt>
      <trkpt lat="49.79554" lon="2.39125">
        <ele>45.7</ele>
        <time>2024-07-24T07:12:59Z</time>
      </trkpt>
      <trkpt lat="49.79554" lon="2.39126">
        <ele>45.8</ele>
        <time>2024-07-24T07:13:00Z</time>
      </trkpt>
      <trkpt lat="49.79553" lon="2.39128">
        <ele>45.8</ele>
        <time>2024-07-24T07:13:01Z</time>
      </trkpt>
      <trkpt lat="49.79553" lon="2.3913">
        <ele>45.9</ele>
        <time>2024-07-24T07:13:02Z</time>
      </trkpt>
      <trkpt lat="49.79553" lon="2.39131">
        <ele>46</ele>
        <time>2024-07-24T07:13:03Z</time>
      </trkpt>
      <trkpt lat="49.79553" lon="2.39134">
        <ele>46.1</ele>
        <time>2024-07-24T07:13:04Z</time>
      </trkpt>
      <trkpt lat="49.79553" lon="2.39135">
        <ele>46.1</ele>
        <time>2024-07-24T07:13:05Z</time>
      </trkpt>
      <trkpt lat="49.79553" lon="2.39136">
        <ele>46.2</ele>
        <time>2024-07-24T07:13:06Z</time>
      </trkpt>
      <trkpt lat="49.79552" lon="2.39138">
        <ele>46.3</ele>
        <time>2024-07-24T07:13:07Z</time>
      </trkpt>
      <trkpt lat="49.79552" lon="2.39139">
        <ele>46.4</ele>
        <time>2024-07-24T07:13:08Z</time>
      </trkpt>
      <trkpt lat="49.79552" lon="2.39141">
        <ele>46.5</ele>
        <time>2024-07-24T07:13:09Z</time>
      </trkpt>
      <trkpt lat="49.79551" lon="2.39142">
        <ele>46.5</ele>
        <time>2024-07-24T07:13:10Z</time>
      </trkpt>
      <trkpt lat="49.79551" lon="2.39144">
        <ele>46.6</ele>
        <time>2024-07-24T07:13:11Z</time>
      </trkpt>
      <trkpt lat="49.79551" lon="2.39145">
        <ele>46.7</ele>
        <time>2024-07-24T07:13:12Z</time>
      </trkpt>
      <trkpt lat="49.79551" lon="2.39146">
        <ele>46.7</ele>
        <time>2024-07-24T07:13:13Z</time>
      </trkpt>
      <trkpt lat="49.79551" lon="2.39148">
        <ele>46.8</ele>
        <time>2024-07-24T07:13:14Z</time>
      </trkpt>
      <trkpt lat="49.79551" lon="2.39149">
        <ele>46.9</ele>
        <time>2024-07-24T07:13:15Z</time>
      </trkpt>
      <trkpt lat="49.7955" lon="2.39151">
        <ele>46.9</ele>
        <time>2024-07-24T07:13:16Z</time>
      </trkpt>
      <trkpt lat="49.79549" lon="2.39153">
        <ele>47.1</ele>
        <time>2024-07-24T07:13:17Z</time>
      </trkpt>
      <trkpt lat="49.79549" lon="2.39155">
        <ele>47.1</ele>
        <time>2024-07-24T07:13:18Z</time>
      </trkpt>
      <trkpt lat="49.79549" lon="2.39156">
        <ele>47.2</ele>
        <time>2024-07-24T07:13:19Z</time>
      </trkpt>
      <trkpt lat="49.79548" lon="2.39157">
        <ele>47.3</ele>
        <time>2024-07-24T07:13:20Z</time>
      </trkpt>
      <trkpt lat="49.79548" lon="2.39159">
        <ele>47.4</ele>
        <time>2024-07-24T07:13:21Z</time>
      </trkpt>
      <trkpt lat="49.79548" lon="2.3916">
        <ele>47.4</ele>
        <time>2024-07-24T07:13:22Z</time>
      </trkpt>
      <trkpt lat="49.79547" lon="2.39162">
        <ele>47.5</ele>
        <time>2024-07-24T07:13:23Z</time>
      </trkpt>
      <trkpt lat="49.79546" lon="2.39164">
        <ele>47.6</ele>
        <time>2024-07-24T07:13:24Z</time>
      </trkpt>
      <trkpt lat="49.79546" lon="2.39165">
        <ele>47.7</ele>
        <time>2024-07-24T07:13:25Z</time>
      </trkpt>
      <trkpt lat="49.79546" lon="2.39166">
        <ele>47.8</ele>
        <time>2024-07-24T07:13:26Z</time>
      </trkpt>
      <trkpt lat="49.79545" lon="2.39167">
        <ele>47.8</ele>
        <time>2024-07-24T07:13:27Z</time>
      </trkpt>
      <trkpt lat="49.79544" lon="2.39168">
        <ele>47.9</ele>
        <time>2024-07-24T07:13:28Z</time>
      </trkpt>
      <trkpt lat="49.79544" lon="2.3917">
        <ele>48</ele>
        <time>2024-07-24T07:13:29Z</time>
      </trkpt>
      <trkpt lat="49.79543" lon="2.39171">
        <ele>48</ele>
        <time>2024-07-24T07:13:30Z</time>
      </trkpt>
      <trkpt lat="49.79543" lon="2.39173">
        <ele>48.1</ele>
        <time>2024-07-24T07:13:31Z</time>
      </trkpt>
      <trkpt lat="49.79543" lon="2.39174">
        <ele>48.2</ele>
        <time>2024-07-24T07:13:32Z</time>
      </trkpt>
      <trkpt lat="49.79542" lon="2.39175">
        <ele>48.2</ele>
        <time>2024-07-24T07:13:33Z</time>
      </trkpt>
      <trkpt lat="49.79542" lon="2.39176">
        <ele>48.3</ele>
        <time>2024-07-24T07:13:34Z</time>
      </trkpt>
      <trkpt lat="49.79541" lon="2.39177">
        <ele>48.4</ele>
        <time>2024-07-24T07:13:35Z</time>
      </trkpt>
      <trkpt lat="49.79541" lon="2.39178">
        <ele>48.4</ele>
        <time>2024-07-24T07:13:36Z</time>
      </trkpt>
      <trkpt lat="49.79541" lon="2.3918">
        <ele>48.5</ele>
        <time>2024-07-24T07:13:37Z</time>
      </trkpt>
      <trkpt lat="49.7954" lon="2.39181">
        <ele>48.5</ele>
        <time>2024-07-24T07:13:38Z</time>
      </trkpt>
      <trkpt lat="49.7954" lon="2.39182">
        <ele>48.6</ele>
        <time>2024-07-24T07:13:39Z</time>
      </trkpt>
      <trkpt lat="49.79539" lon="2.39183">
        <ele>48.7</ele>
        <time>2024-07-24T07:13:40Z</time>
      </trkpt>
      <trkpt lat="49.79539" lon="2.39184">
        <ele>48.7</ele>
        <time>2024-07-24T07:13:41Z</time>
      </trkpt>
      <trkpt lat="49.79539" lon="2.39185">
        <ele>48.8</ele>
        <time>2024-07-24T07:13:42Z</time>
      </trkpt>
      <trkpt lat="49.79538" lon="2.39187">
        <ele>48.8</ele>
        <time>2024-07-24T07:13:43Z</time>
      </trkpt>
      <trkpt lat="49.79538" lon="2.39188">
        <ele>48.9</ele>
        <time>2024-07-24T07:13:44Z</time>
      </trkpt>
      <trkpt lat="49.79538" lon="2.39189">
        <ele>48.9</ele>
        <time>2024-07-24T07:13:45Z</time>
      </trkpt>
      <trkpt lat="49.79537" lon="2.3919">
        <ele>49</ele>
        <time>2024-07-24T07:13:46Z</time>
      </trkpt>
      <trkpt lat="49.79537" lon="2.39191">
        <ele>49</ele>
        <time>2024-07-24T07:13:47Z</time>
      </trkpt>
      <trkpt lat="49.79537" lon="2.39193">
        <ele>49.1</ele>
        <time>2024-07-24T07:13:48Z</time>
      </trkpt>
      <trkpt lat="49.79536" lon="2.39194">
        <ele>49.1</ele>
        <time>2024-07-24T07:13:49Z</time>
      </trkpt>
      <trkpt lat="49.79536" lon="2.39195">
        <ele>49.2</ele>
        <time>2024-07-24T07:13:50Z</time>
      </trkpt>
      <trkpt lat="49.79536" lon="2.39196">
        <ele>49.3</ele>
        <time>2024-07-24T07:13:51Z</time>
      </trkpt>
      <trkpt lat="49.79536" lon="2.39197">
        <ele>49.3</ele>
        <time>2024-07-24T07:13:52Z</time>
      </trkpt>
      <trkpt lat="49.79536" lon="2.39199">
        <ele>49.4</ele>
        <time>2024-07-24T07:13:53Z</time>
      </trkpt>
      <trkpt lat="49.79536" lon="2.392">
        <ele>49.4</ele>
        <time>2024-07-24T07:13:54Z</time>
      </trkpt>
      <trkpt lat="49.79535" lon="2.39201">
        <ele>49.5</ele>
        <time>2024-07-24T07:13:55Z</time>
      </trkpt>
      <trkpt lat="49.79535" lon="2.39203">
        <ele>49.5</ele>
        <time>2024-07-24T07:13:56Z</time>
      </trkpt>
      <trkpt lat="49.79535" lon="2.39204">
        <ele>49.6</ele>
        <time>2024-07-24T07:13:57Z</time>
      </trkpt>
      <trkpt lat="49.79534" lon="2.39206">
        <ele>49.7</ele>
        <time>2024-07-24T07:13:58Z</time>
      </trkpt>
      <trkpt lat="49.79534" lon="2.39207">
        <ele>49.7</ele>
        <time>2024-07-24T07:13:59Z</time>
      </trkpt>
      <trkpt lat="49.79534" lon="2.39209">
        <ele>49.8</ele>
        <time>2024-07-24T07:14:00Z</time>
      </trkpt>
      <trkpt lat="49.79534" lon="2.3921">
        <ele>49.9</ele>
        <time>2024-07-24T07:14:01Z</time>
      </trkpt>
      <trkpt lat="49.79533" lon="2.39212">
        <ele>49.9</ele>
        <time>2024-07-24T07:14:02Z</time>
      </trkpt>
      <trkpt lat="49.79533" lon="2.39213">
        <ele>50</ele>
        <time>2024-07-24T07:14:03Z</time>
      </trkpt>
      <trkpt lat="49.79533" lon="2.39215">
        <ele>50.1</ele>
        <time>2024-07-24T07:14:04Z</time>
      </trkpt>
      <trkpt lat="49.79532" lon="2.39217">
        <ele>50.2</ele>
        <time>2024-07-24T07:14:05Z</time>
      </trkpt>
      <trkpt lat="49.79532" lon="2.39218">
        <ele>50.2</ele>
        <time>2024-07-24T07:14:06Z</time>
      </trkpt>
      <trkpt lat="49.79532" lon="2.3922">
        <ele>50.3</ele>
        <time>2024-07-24T07:14:07Z</time>
      </trkpt>
      <trkpt lat="49.79532" lon="2.39222">
        <ele>50.4</ele>
        <time>2024-07-24T07:14:08Z</time>
      </trkpt>
      <trkpt lat="49.79531" lon="2.39223">
        <ele>50.5</ele>
        <time>2024-07-24T07:14:09Z</time>
      </trkpt>
      <trkpt lat="49.79531" lon="2.39225">
        <ele>50.5</ele>
        <time>2024-07-24T07:14:10Z</time>
      </trkpt>
      <trkpt lat="49.7953" lon="2.39226">
        <ele>50.6</ele>
        <time>2024-07-24T07:14:11Z</time>
      </trkpt>
      <trkpt lat="49.7953" lon="2.39228">
        <ele>50.7</ele>
        <time>2024-07-24T07:14:12Z</time>
      </trkpt>
      <trkpt lat="49.7953" lon="2.39229">
        <ele>50.7</ele>
        <time>2024-07-24T07:14:13Z</time>
      </trkpt>
      <trkpt lat="49.79529" lon="2.39231">
        <ele>50.8</ele>
        <time>2024-07-24T07:14:14Z</time>
      </trkpt>
      <trkpt lat="49.79529" lon="2.39233">
        <ele>50.9</ele>
        <time>2024-07-24T07:14:15Z</time>
      </trkpt>
      <trkpt lat="49.79528" lon="2.39234">
        <ele>50.9</ele>
        <time>2024-07-24T07:14:16Z</time>
      </trkpt>
      <trkpt lat="49.79528" lon="2.39235">
        <ele>51</ele>
        <time>2024-07-24T07:14:17Z</time>
      </trkpt>
      <trkpt lat="49.79527" lon="2.39235">
        <ele>51</ele>
        <time>2024-07-24T07:14:18Z</time>
      </trkpt>
      <trkpt lat="49.79527" lon="2.39236">
        <ele>51</ele>
        <time>2024-07-24T07:14:19Z</time>
      </trkpt>
      <trkpt lat="49.79526" lon="2.39237">
        <ele>51.1</ele>
        <time>2024-07-24T07:14:20Z</time>
      </trkpt>
      <trkpt lat="49.79526" lon="2.39237">
        <ele>51.1</ele>
        <time>2024-07-24T07:14:21Z</time>
      </trkpt>
      <trkpt lat="49.79526" lon="2.39238">
        <ele>51.1</ele>
        <time>2024-07-24T07:14:22Z</time>
      </trkpt>
      <trkpt lat="49.79525" lon="2.39238">
        <ele>51.1</ele>
        <time>2024-07-24T07:14:23Z</time>
      </trkpt>
      <trkpt lat="49.79525" lon="2.39239">
        <ele>51.2</ele>
        <time>2024-07-24T07:14:24Z</time>
      </trkpt>
      <trkpt lat="49.79525" lon="2.39239">
        <ele>51.2</ele>
        <time>2024-07-24T07:14:25Z</time>
      </trkpt>
      <trkpt lat="49.79525" lon="2.39239">
        <ele>51.2</ele>
        <time>2024-07-24T07:14:26Z</time>
      </trkpt>
      <trkpt lat="49.79525" lon="2.39239">
        <ele>51.2</ele>
        <time>2024-07-24T07:14:27Z</time>
      </trkpt>
      <trkpt lat="49.79525" lon="2.3924">
        <ele>51.2</ele>
        <time>2024-07-24T07:14:28Z</time>
      </trkpt>
      <trkpt lat="49.79524" lon="2.3924">
        <ele>51.2</ele>
        <time>2024-07-24T07:14:29Z</time>
      </trkpt>
      <trkpt lat="49.79524" lon="2.39241">
        <ele>51.3</ele>
        <time>2024-07-24T07:14:30Z</time>
      </trkpt>
      <trkpt lat="49.79523" lon="2.39242">
        <ele>51.3</ele>
        <time>2024-07-24T07:14:31Z</time>
      </trkpt>
      <trkpt lat="49.79523" lon="2.39242">
        <ele>51.3</ele>
        <time>2024-07-24T07:14:32Z</time>
      </trkpt>
      <trkpt lat="49.79523" lon="2.39242">
        <ele>51.3</ele>
        <time>2024-07-24T07:14:33Z</time>
      </trkpt>
      <trkpt lat="49.79523" lon="2.39242">
        <ele>51.3</ele>
        <time>2024-07-24T07:14:34Z</time>
      </trkpt>
      <trkpt lat="49.79524" lon="2.39241">
        <ele>51.3</ele>
        <time>2024-07-24T07:14:35Z</time>
      </trkpt>
      <trkpt lat="49.79524" lon="2.39241">
        <ele>51.3</ele>
        <time>2024-07-24T07:14:36Z</time>
      </trkpt>
      <trkpt lat="49.79524" lon="2.39241">
        <ele>51.3</ele>
        <time>2024-07-24T07:14:37Z</time>
      </trkpt>
      <trkpt lat="49.79524" lon="2.3924">
        <ele>51.3</ele>
        <time>2024-07-24T07:14:38Z</time>
      </trkpt>
      <trkpt lat="49.79524" lon="2.3924">
        <ele>51.3</ele>
        <time>2024-07-24T07:14:39Z</time>
      </trkpt>
      <trkpt lat="49.79524" lon="2.3924">
        <ele>51.3</ele>
        <time>2024-07-24T07:14:40Z</time>
      </trkpt>
      <trkpt lat="49.79524" lon="2.3924">
        <ele>51.3</ele>
        <time>2024-07-24T07:14:41Z</time>
      </trkpt>
      <trkpt lat="49.79524" lon="2.3924">
        <ele>51.3</ele>
        <time>2024-07-24T07:14:42Z</time>
      </trkpt>
      <trkpt lat="49.79524" lon="2.3924">
        <ele>51.3</ele>
        <time>2024-07-24T07:14:43Z</time>
      </trkpt>
      <trkpt lat="49.79525" lon="2.3924">
        <ele>51.3</ele>
        <time>2024-07-24T07:14:44Z</time>
      </trkpt>
      <trkpt lat="49.79525" lon="2.39241">
        <ele>51.3</ele>
        <time>2024-07-24T07:14:45Z</time>
      </trkpt>
      <trkpt lat="49.79525" lon="2.39241">
        <ele>51.3</ele>
        <time>2024-07-24T07:14:46Z</time>
      </trkpt>
      <trkpt lat="49.79525" lon="2.39242">
        <ele>51.3</ele>
        <time>2024-07-24T07:14:47Z</time>
      </trkpt>
      <trkpt lat="49.79525" lon="2.39242">
        <ele>51.3</ele>
        <time>2024-07-24T07:14:48Z</time>
      </trkpt>
      <trkpt lat="49.79526" lon="2.39242">
        <ele>51.3</ele>
        <time>2024-07-24T07:14:49Z</time>
      </trkpt>
      <trkpt lat="49.79526" lon="2.39242">
        <ele>51.3</ele>
        <time>2024-07-24T07:14:50Z</time>
      </trkpt>
      <trkpt lat="49.79526" lon="2.39242">
        <ele>51.3</ele>
        <time>2024-07-24T07:14:51Z</time>
      </trkpt>
      <trkpt lat="49.79527" lon="2.39241">
        <ele>51.4</ele>
        <time>2024-07-24T07:14:52Z</time>
      </trkpt>
      <trkpt lat="49.79527" lon="2.39241">
        <ele>51.4</ele>
        <time>2024-07-24T07:14:53Z</time>
      </trkpt>
      <trkpt lat="49.79527" lon="2.39241">
        <ele>51.4</ele>
        <time>2024-07-24T07:14:54Z</time>
      </trkpt>
      <trkpt lat="49.79528" lon="2.39241">
        <ele>51.4</ele>
        <time>2024-07-24T07:14:55Z</time>
      </trkpt>
      <trkpt lat="49.79528" lon="2.39241">
        <ele>51.4</ele>
        <time>2024-07-24T07:14:56Z</time>
      </trkpt>
      <trkpt lat="49.79528" lon="2.39242">
        <ele>51.4</ele>
        <time>2024-07-24T07:14:57Z</time>
      </trkpt>
      <trkpt lat="49.79528" lon="2.39243">
        <ele>51.4</ele>
        <time>2024-07-24T07:14:58Z</time>
      </trkpt>
      <trkpt lat="49.79528" lon="2.39244">
        <ele>51.4</ele>
        <time>2024-07-24T07:14:59Z</time>
      </trkpt>
      <trkpt lat="49.79527" lon="2.39246">
        <ele>51.4</ele>
        <time>2024-07-24T07:15:00Z</time>
      </trkpt>
      <trkpt lat="49.79527" lon="2.39247">
        <ele>51.4</ele>
        <time>2024-07-24T07:15:01Z</time>
      </trkpt>
      <trkpt lat="49.79527" lon="2.39248">
        <ele>51.5</ele>
        <time>2024-07-24T07:15:02Z</time>
      </trkpt>
      <trkpt lat="49.79527" lon="2.39249">
        <ele>51.5</ele>
        <time>2024-07-24T07:15:03Z</time>
      </trkpt>
      <trkpt lat="49.79527" lon="2.39251">
        <ele>51.5</ele>
        <time>2024-07-24T07:15:04Z</time>
      </trkpt>
      <trkpt lat="49.79527" lon="2.39253">
        <ele>51.5</ele>
        <time>2024-07-24T07:15:05Z</time>
      </trkpt>
      <trkpt lat="49.79527" lon="2.39254">
        <ele>51.6</ele>
        <time>2024-07-24T07:15:06Z</time>
      </trkpt>
      <trkpt lat="49.79526" lon="2.39255">
        <ele>51.6</ele>
        <time>2024-07-24T07:15:07Z</time>
      </trkpt>
      <trkpt lat="49.79526" lon="2.39256">
        <ele>51.6</ele>
        <time>2024-07-24T07:15:08Z</time>
      </trkpt>
      <trkpt lat="49.79526" lon="2.39258">
        <ele>51.6</ele>
        <time>2024-07-24T07:15:09Z</time>
      </trkpt>
      <trkpt lat="49.79526" lon="2.39259">
        <ele>51.6</ele>
        <time>2024-07-24T07:15:10Z</time>
      </trkpt>
      <trkpt lat="49.79526" lon="2.39261">
        <ele>51.7</ele>
        <time>2024-07-24T07:15:11Z</time>
      </trkpt>
      <trkpt lat="49.79525" lon="2.39262">
        <ele>51.7</ele>
        <time>2024-07-24T07:15:12Z</time>
      </trkpt>
      <trkpt lat="49.79525" lon="2.39263">
        <ele>51.7</ele>
        <time>2024-07-24T07:15:13Z</time>
      </trkpt>
      <trkpt lat="49.79525" lon="2.39265">
        <ele>51.7</ele>
        <time>2024-07-24T07:15:14Z</time>
      </trkpt>
      <trkpt lat="49.79525" lon="2.39266">
        <ele>51.7</ele>
        <time>2024-07-24T07:15:15Z</time>
      </trkpt>
      <trkpt lat="49.79526" lon="2.39268">
        <ele>51.7</ele>
        <time>2024-07-24T07:15:16Z</time>
      </trkpt>
      <trkpt lat="49.79525" lon="2.39269">
        <ele>51.7</ele>
        <time>2024-07-24T07:15:17Z</time>
      </trkpt>
      <trkpt lat="49.79524" lon="2.3927">
        <ele>51.8</ele>
        <time>2024-07-24T07:15:18Z</time>
      </trkpt>
      <trkpt lat="49.79524" lon="2.39272">
        <ele>51.8</ele>
        <time>2024-07-24T07:15:19Z</time>
      </trkpt>
      <trkpt lat="49.79524" lon="2.39274">
        <ele>51.8</ele>
        <time>2024-07-24T07:15:20Z</time>
      </trkpt>
      <trkpt lat="49.79524" lon="2.39275">
        <ele>51.8</ele>
        <time>2024-07-24T07:15:21Z</time>
      </trkpt>
      <trkpt lat="49.79524" lon="2.39277">
        <ele>51.8</ele>
        <time>2024-07-24T07:15:22Z</time>
      </trkpt>
      <trkpt lat="49.79524" lon="2.39278">
        <ele>51.8</ele>
        <time>2024-07-24T07:15:23Z</time>
      </trkpt>
      <trkpt lat="49.79524" lon="2.39279">
        <ele>51.8</ele>
        <time>2024-07-24T07:15:24Z</time>
      </trkpt>
      <trkpt lat="49.79524" lon="2.3928">
        <ele>51.9</ele>
        <time>2024-07-24T07:15:25Z</time>
      </trkpt>
      <trkpt lat="49.79524" lon="2.39281">
        <ele>51.9</ele>
        <time>2024-07-24T07:15:26Z</time>
      </trkpt>
      <trkpt lat="49.79524" lon="2.39282">
        <ele>51.9</ele>
        <time>2024-07-24T07:15:27Z</time>
      </trkpt>
      <trkpt lat="49.79523" lon="2.39284">
        <ele>51.9</ele>
        <time>2024-07-24T07:15:28Z</time>
      </trkpt>
      <trkpt lat="49.79523" lon="2.39285">
        <ele>51.9</ele>
        <time>2024-07-24T07:15:29Z</time>
      </trkpt>
      <trkpt lat="49.79522" lon="2.39288">
        <ele>51.9</ele>
        <time>2024-07-24T07:15:30Z</time>
      </trkpt>
      <trkpt lat="49.79522" lon="2.39289">
        <ele>51.9</ele>
        <time>2024-07-24T07:15:31Z</time>
      </trkpt>
      <trkpt lat="49.79522" lon="2.3929">
        <ele>51.9</ele>
        <time>2024-07-24T07:15:32Z</time>
      </trkpt>
      <trkpt lat="49.79522" lon="2.39291">
        <ele>52</ele>
        <time>2024-07-24T07:15:33Z</time>
      </trkpt>
      <trkpt lat="49.79521" lon="2.39293">
        <ele>52</ele>
        <time>2024-07-24T07:15:34Z</time>
      </trkpt>
      <trkpt lat="49.79521" lon="2.39294">
        <ele>52</ele>
        <time>2024-07-24T07:15:35Z</time>
      </trkpt>
      <trkpt lat="49.7952" lon="2.39296">
        <ele>52</ele>
        <time>2024-07-24T07:15:36Z</time>
      </trkpt>
      <trkpt lat="49.7952" lon="2.39298">
        <ele>52</ele>
        <time>2024-07-24T07:15:37Z</time>
      </trkpt>
      <trkpt lat="49.79519" lon="2.393">
        <ele>52.1</ele>
        <time>2024-07-24T07:15:38Z</time>
      </trkpt>
      <trkpt lat="49.79518" lon="2.39302">
        <ele>52.1</ele>
        <time>2024-07-24T07:15:39Z</time>
      </trkpt>
      <trkpt lat="49.79518" lon="2.39304">
        <ele>52.1</ele>
        <time>2024-07-24T07:15:40Z</time>
      </trkpt>
      <trkpt lat="49.79517" lon="2.39306">
        <ele>52.1</ele>
        <time>2024-07-24T07:15:41Z</time>
      </trkpt>
      <trkpt lat="49.79517" lon="2.39308">
        <ele>52.2</ele>
        <time>2024-07-24T07:15:42Z</time>
      </trkpt>
      <trkpt lat="49.79516" lon="2.39311">
        <ele>52.2</ele>
        <time>2024-07-24T07:15:43Z</time>
      </trkpt>
      <trkpt lat="49.79516" lon="2.39313">
        <ele>52.2</ele>
        <time>2024-07-24T07:15:44Z</time>
      </trkpt>
      <trkpt lat="49.79516" lon="2.39314">
        <ele>52.2</ele>
        <time>2024-07-24T07:15:45Z</time>
      </trkpt>
      <trkpt lat="49.79515" lon="2.39316">
        <ele>52.2</ele>
        <time>2024-07-24T07:15:46Z</time>
      </trkpt>
      <trkpt lat="49.79515" lon="2.39317">
        <ele>52.3</ele>
        <time>2024-07-24T07:15:47Z</time>
      </trkpt>
      <trkpt lat="49.79515" lon="2.39319">
        <ele>52.3</ele>
        <time>2024-07-24T07:15:48Z</time>
      </trkpt>
      <trkpt lat="49.79515" lon="2.39321">
        <ele>52.3</ele>
        <time>2024-07-24T07:15:49Z</time>
      </trkpt>
      <trkpt lat="49.79514" lon="2.39323">
        <ele>52.3</ele>
        <time>2024-07-24T07:15:50Z</time>
      </trkpt>
      <trkpt lat="49.79514" lon="2.39324">
        <ele>52.3</ele>
        <time>2024-07-24T07:15:51Z</time>
      </trkpt>
      <trkpt lat="49.79514" lon="2.39325">
        <ele>52.4</ele>
        <time>2024-07-24T07:15:52Z</time>
      </trkpt>
      <trkpt lat="49.79513" lon="2.39327">
        <ele>52.4</ele>
        <time>2024-07-24T07:15:53Z</time>
      </trkpt>
      <trkpt lat="49.79513" lon="2.39329">
        <ele>52.4</ele>
        <time>2024-07-24T07:15:54Z</time>
      </trkpt>
      <trkpt lat="49.79512" lon="2.3933">
        <ele>52.4</ele>
        <time>2024-07-24T07:15:55Z</time>
      </trkpt>
      <trkpt lat="49.79512" lon="2.39332">
        <ele>52.4</ele>
        <time>2024-07-24T07:15:56Z</time>
      </trkpt>
      <trkpt lat="49.79512" lon="2.39334">
        <ele>52.5</ele>
        <time>2024-07-24T07:15:57Z</time>
      </trkpt>
      <trkpt lat="49.79511" lon="2.39335">
        <ele>52.5</ele>
        <time>2024-07-24T07:15:58Z</time>
      </trkpt>
      <trkpt lat="49.79511" lon="2.39337">
        <ele>52.5</ele>
        <time>2024-07-24T07:15:59Z</time>
      </trkpt>
      <trkpt lat="49.7951" lon="2.39338">
        <ele>52.5</ele>
        <time>2024-07-24T07:16:00Z</time>
      </trkpt>
      <trkpt lat="49.7951" lon="2.3934">
        <ele>52.5</ele>
        <time>2024-07-24T07:16:01Z</time>
      </trkpt>
      <trkpt lat="49.79509" lon="2.39341">
        <ele>52.5</ele>
        <time>2024-07-24T07:16:02Z</time>
      </trkpt>
      <trkpt lat="49.79509" lon="2.39343">
        <ele>52.5</ele>
        <time>2024-07-24T07:16:03Z</time>
      </trkpt>
      <trkpt lat="49.79508" lon="2.39345">
        <ele>52.6</ele>
        <time>2024-07-24T07:16:04Z</time>
      </trkpt>
      <trkpt lat="49.79508" lon="2.39347">
        <ele>52.6</ele>
        <time>2024-07-24T07:16:05Z</time>
      </trkpt>
      <trkpt lat="49.79507" lon="2.39348">
        <ele>52.6</ele>
        <time>2024-07-24T07:16:06Z</time>
      </trkpt>
      <trkpt lat="49.79507" lon="2.3935">
        <ele>52.6</ele>
        <time>2024-07-24T07:16:07Z</time>
      </trkpt>
      <trkpt lat="49.79506" lon="2.39351">
        <ele>52.6</ele>
        <time>2024-07-24T07:16:08Z</time>
      </trkpt>
      <trkpt lat="49.79506" lon="2.39353">
        <ele>52.6</ele>
        <time>2024-07-24T07:16:09Z</time>
      </trkpt>
      <trkpt lat="49.79506" lon="2.39354">
        <ele>52.6</ele>
        <time>2024-07-24T07:16:10Z</time>
      </trkpt>
      <trkpt lat="49.79505" lon="2.39356">
        <ele>52.7</ele>
        <time>2024-07-24T07:16:11Z</time>
      </trkpt>
      <trkpt lat="49.79505" lon="2.39357">
        <ele>52.7</ele>
        <time>2024-07-24T07:16:12Z</time>
      </trkpt>
      <trkpt lat="49.79504" lon="2.39359">
        <ele>52.7</ele>
        <time>2024-07-24T07:16:13Z</time>
      </trkpt>
      <trkpt lat="49.79504" lon="2.3936">
        <ele>52.7</ele>
        <time>2024-07-24T07:16:14Z</time>
      </trkpt>
      <trkpt lat="49.79503" lon="2.39362">
        <ele>52.7</ele>
        <time>2024-07-24T07:16:15Z</time>
      </trkpt>
      <trkpt lat="49.79503" lon="2.39363">
        <ele>52.7</ele>
        <time>2024-07-24T07:16:16Z</time>
      </trkpt>
      <trkpt lat="49.79503" lon="2.39365">
        <ele>52.7</ele>
        <time>2024-07-24T07:16:17Z</time>
      </trkpt>
      <trkpt lat="49.79502" lon="2.39366">
        <ele>52.7</ele>
        <time>2024-07-24T07:16:18Z</time>
      </trkpt>
      <trkpt lat="49.79502" lon="2.39368">
        <ele>52.7</ele>
        <time>2024-07-24T07:16:19Z</time>
      </trkpt>
      <trkpt lat="49.79501" lon="2.3937">
        <ele>52.7</ele>
        <time>2024-07-24T07:16:20Z</time>
      </trkpt>
      <trkpt lat="49.79501" lon="2.39371">
        <ele>52.8</ele>
        <time>2024-07-24T07:16:21Z</time>
      </trkpt>
      <trkpt lat="49.795" lon="2.39372">
        <ele>52.8</ele>
        <time>2024-07-24T07:16:22Z</time>
      </trkpt>
      <trkpt lat="49.795" lon="2.39373">
        <ele>52.8</ele>
        <time>2024-07-24T07:16:23Z</time>
      </trkpt>
      <trkpt lat="49.795" lon="2.39375">
        <ele>52.8</ele>
        <time>2024-07-24T07:16:24Z</time>
      </trkpt>
      <trkpt lat="49.79499" lon="2.39377">
        <ele>52.8</ele>
        <time>2024-07-24T07:16:25Z</time>
      </trkpt>
      <trkpt lat="49.79499" lon="2.39377">
        <ele>52.8</ele>
        <time>2024-07-24T07:16:26Z</time>
      </trkpt>
      <trkpt lat="49.79499" lon="2.39379">
        <ele>52.8</ele>
        <time>2024-07-24T07:16:27Z</time>
      </trkpt>
      <trkpt lat="49.79498" lon="2.39379">
        <ele>52.8</ele>
        <time>2024-07-24T07:16:28Z</time>
      </trkpt>
      <trkpt lat="49.79498" lon="2.39381">
        <ele>52.8</ele>
        <time>2024-07-24T07:16:29Z</time>
      </trkpt>
      <trkpt lat="49.79498" lon="2.39382">
        <ele>52.8</ele>
        <time>2024-07-24T07:16:30Z</time>
      </trkpt>
      <trkpt lat="49.79497" lon="2.39383">
        <ele>52.8</ele>
        <time>2024-07-24T07:16:31Z</time>
      </trkpt>
      <trkpt lat="49.79497" lon="2.39385">
        <ele>52.8</ele>
        <time>2024-07-24T07:16:32Z</time>
      </trkpt>
      <trkpt lat="49.79497" lon="2.39386">
        <ele>52.9</ele>
        <time>2024-07-24T07:16:33Z</time>
      </trkpt>
      <trkpt lat="49.79496" lon="2.39387">
        <ele>52.9</ele>
        <time>2024-07-24T07:16:34Z</time>
      </trkpt>
      <trkpt lat="49.79496" lon="2.39389">
        <ele>52.9</ele>
        <time>2024-07-24T07:16:35Z</time>
      </trkpt>
      <trkpt lat="49.79495" lon="2.3939">
        <ele>52.9</ele>
        <time>2024-07-24T07:16:36Z</time>
      </trkpt>
      <trkpt lat="49.79495" lon="2.39391">
        <ele>52.9</ele>
        <time>2024-07-24T07:16:37Z</time>
      </trkpt>
      <trkpt lat="49.79494" lon="2.39393">
        <ele>52.9</ele>
        <time>2024-07-24T07:16:38Z</time>
      </trkpt>
      <trkpt lat="49.79494" lon="2.39394">
        <ele>52.9</ele>
        <time>2024-07-24T07:16:39Z</time>
      </trkpt>
      <trkpt lat="49.79493" lon="2.39396">
        <ele>52.9</ele>
        <time>2024-07-24T07:16:40Z</time>
      </trkpt>
      <trkpt lat="49.79493" lon="2.39397">
        <ele>52.9</ele>
        <time>2024-07-24T07:16:41Z</time>
      </trkpt>
      <trkpt lat="49.79493" lon="2.39398">
        <ele>52.9</ele>
        <time>2024-07-24T07:16:42Z</time>
      </trkpt>
      <trkpt lat="49.79492" lon="2.394">
        <ele>52.9</ele>
        <time>2024-07-24T07:16:43Z</time>
      </trkpt>
      <trkpt lat="49.79491" lon="2.39402">
        <ele>53</ele>
        <time>2024-07-24T07:16:44Z</time>
      </trkpt>
      <trkpt lat="49.79491" lon="2.39403">
        <ele>53</ele>
        <time>2024-07-24T07:16:45Z</time>
      </trkpt>
      <trkpt lat="49.79491" lon="2.39404">
        <ele>53</ele>
        <time>2024-07-24T07:16:46Z</time>
      </trkpt>
      <trkpt lat="49.7949" lon="2.39405">
        <ele>53</ele>
        <time>2024-07-24T07:16:47Z</time>
      </trkpt>
      <trkpt lat="49.79489" lon="2.39407">
        <ele>53</ele>
        <time>2024-07-24T07:16:48Z</time>
      </trkpt>
      <trkpt lat="49.79489" lon="2.39409">
        <ele>53</ele>
        <time>2024-07-24T07:16:49Z</time>
      </trkpt>
      <trkpt lat="49.79489" lon="2.3941">
        <ele>53</ele>
        <time>2024-07-24T07:16:50Z</time>
      </trkpt>
      <trkpt lat="49.79488" lon="2.39412">
        <ele>53.1</ele>
        <time>2024-07-24T07:16:51Z</time>
      </trkpt>
      <trkpt lat="49.79487" lon="2.39413">
        <ele>53.1</ele>
        <time>2024-07-24T07:16:52Z</time>
      </trkpt>
      <trkpt lat="49.79487" lon="2.39415">
        <ele>53.1</ele>
        <time>2024-07-24T07:16:53Z</time>
      </trkpt>
      <trkpt lat="49.79486" lon="2.39416">
        <ele>53.1</ele>
        <time>2024-07-24T07:16:54Z</time>
      </trkpt>
      <trkpt lat="49.79486" lon="2.39417">
        <ele>53.1</ele>
        <time>2024-07-24T07:16:55Z</time>
      </trkpt>
      <trkpt lat="49.79485" lon="2.39419">
        <ele>53.1</ele>
        <time>2024-07-24T07:16:56Z</time>
      </trkpt>
      <trkpt lat="49.79485" lon="2.3942">
        <ele>53.1</ele>
        <time>2024-07-24T07:16:57Z</time>
      </trkpt>
      <trkpt lat="49.79484" lon="2.39421">
        <ele>53.1</ele>
        <time>2024-07-24T07:16:58Z</time>
      </trkpt>
      <trkpt lat="49.79484" lon="2.39423">
        <ele>53.2</ele>
        <time>2024-07-24T07:16:59Z</time>
      </trkpt>
      <trkpt lat="49.79483" lon="2.39425">
        <ele>53.2</ele>
        <time>2024-07-24T07:17:00Z</time>
      </trkpt>
      <trkpt lat="49.79483" lon="2.39426">
        <ele>53.2</ele>
        <time>2024-07-24T07:17:01Z</time>
      </trkpt>
      <trkpt lat="49.79483" lon="2.39427">
        <ele>53.2</ele>
        <time>2024-07-24T07:17:02Z</time>
      </trkpt>
      <trkpt lat="49.79482" lon="2.39429">
        <ele>53.2</ele>
        <time>2024-07-24T07:17:03Z</time>
      </trkpt>
      <trkpt lat="49.79482" lon="2.39431">
        <ele>53.2</ele>
        <time>2024-07-24T07:17:04Z</time>
      </trkpt>
      <trkpt lat="49.79481" lon="2.39434">
        <ele>53.3</ele>
        <time>2024-07-24T07:17:05Z</time>
      </trkpt>
      <trkpt lat="49.7948" lon="2.39435">
        <ele>53.3</ele>
        <time>2024-07-24T07:17:06Z</time>
      </trkpt>
      <trkpt lat="49.7948" lon="2.39436">
        <ele>53.3</ele>
        <time>2024-07-24T07:17:07Z</time>
      </trkpt>
      <trkpt lat="49.79479" lon="2.39437">
        <ele>53.3</ele>
        <time>2024-07-24T07:17:08Z</time>
      </trkpt>
      <trkpt lat="49.79479" lon="2.39439">
        <ele>53.3</ele>
        <time>2024-07-24T07:17:09Z</time>
      </trkpt>
      <trkpt lat="49.79478" lon="2.3944">
        <ele>53.3</ele>
        <time>2024-07-24T07:17:10Z</time>
      </trkpt>
      <trkpt lat="49.79478" lon="2.39442">
        <ele>53.4</ele>
        <time>2024-07-24T07:17:11Z</time>
      </trkpt>
      <trkpt lat="49.79477" lon="2.39443">
        <ele>53.4</ele>
        <time>2024-07-24T07:17:12Z</time>
      </trkpt>
      <trkpt lat="49.79476" lon="2.39445">
        <ele>53.4</ele>
        <time>2024-07-24T07:17:13Z</time>
      </trkpt>
      <trkpt lat="49.79476" lon="2.39446">
        <ele>53.4</ele>
        <time>2024-07-24T07:17:14Z</time>
      </trkpt>
      <trkpt lat="49.79475" lon="2.39448">
        <ele>53.4</ele>
        <time>2024-07-24T07:17:15Z</time>
      </trkpt>
      <trkpt lat="49.79475" lon="2.3945">
        <ele>53.5</ele>
        <time>2024-07-24T07:17:16Z</time>
      </trkpt>
      <trkpt lat="49.79475" lon="2.39451">
        <ele>53.5</ele>
        <time>2024-07-24T07:17:17Z</time>
      </trkpt>
      <trkpt lat="49.79474" lon="2.39452">
        <ele>53.5</ele>
        <time>2024-07-24T07:17:18Z</time>
      </trkpt>
      <trkpt lat="49.79473" lon="2.39454">
        <ele>53.5</ele>
        <time>2024-07-24T07:17:19Z</time>
      </trkpt>
      <trkpt lat="49.79473" lon="2.39455">
        <ele>53.5</ele>
        <time>2024-07-24T07:17:20Z</time>
      </trkpt>
      <trkpt lat="49.79472" lon="2.39457">
        <ele>53.6</ele>
        <time>2024-07-24T07:17:21Z</time>
      </trkpt>
      <trkpt lat="49.79471" lon="2.39458">
        <ele>53.6</ele>
        <time>2024-07-24T07:17:22Z</time>
      </trkpt>
      <trkpt lat="49.79471" lon="2.39459">
        <ele>53.6</ele>
        <time>2024-07-24T07:17:23Z</time>
      </trkpt>
      <trkpt lat="49.7947" lon="2.3946">
        <ele>53.6</ele>
        <time>2024-07-24T07:17:24Z</time>
      </trkpt>
      <trkpt lat="49.7947" lon="2.39462">
        <ele>53.6</ele>
        <time>2024-07-24T07:17:25Z</time>
      </trkpt>
      <trkpt lat="49.79469" lon="2.39463">
        <ele>53.7</ele>
        <time>2024-07-24T07:17:26Z</time>
      </trkpt>
      <trkpt lat="49.79468" lon="2.39464">
        <ele>53.7</ele>
        <time>2024-07-24T07:17:27Z</time>
      </trkpt>
      <trkpt lat="49.79468" lon="2.39466">
        <ele>53.7</ele>
        <time>2024-07-24T07:17:28Z</time>
      </trkpt>
      <trkpt lat="49.79467" lon="2.39467">
        <ele>53.7</ele>
        <time>2024-07-24T07:17:29Z</time>
      </trkpt>
      <trkpt lat="49.79466" lon="2.39468">
        <ele>53.7</ele>
        <time>2024-07-24T07:17:30Z</time>
      </trkpt>
      <trkpt lat="49.79466" lon="2.3947">
        <ele>53.8</ele>
        <time>2024-07-24T07:17:31Z</time>
      </trkpt>
      <trkpt lat="49.79465" lon="2.39471">
        <ele>53.8</ele>
        <time>2024-07-24T07:17:32Z</time>
      </trkpt>
      <trkpt lat="49.79464" lon="2.39472">
        <ele>53.8</ele>
        <time>2024-07-24T07:17:33Z</time>
      </trkpt>
      <trkpt lat="49.79464" lon="2.39473">
        <ele>53.8</ele>
        <time>2024-07-24T07:17:34Z</time>
      </trkpt>
      <trkpt lat="49.79463" lon="2.39474">
        <ele>53.8</ele>
        <time>2024-07-24T07:17:35Z</time>
      </trkpt>
      <trkpt lat="49.79462" lon="2.39476">
        <ele>53.9</ele>
        <time>2024-07-24T07:17:36Z</time>
      </trkpt>
      <trkpt lat="49.79462" lon="2.39477">
        <ele>53.9</ele>
        <time>2024-07-24T07:17:37Z</time>
      </trkpt>
      <trkpt lat="49.79461" lon="2.39479">
        <ele>53.9</ele>
        <time>2024-07-24T07:17:38Z</time>
      </trkpt>
      <trkpt lat="49.7946" lon="2.3948">
        <ele>53.9</ele>
        <time>2024-07-24T07:17:39Z</time>
      </trkpt>
      <trkpt lat="49.7946" lon="2.39481">
        <ele>53.9</ele>
        <time>2024-07-24T07:17:40Z</time>
      </trkpt>
      <trkpt lat="49.79459" lon="2.39483">
        <ele>54</ele>
        <time>2024-07-24T07:17:41Z</time>
      </trkpt>
      <trkpt lat="49.79458" lon="2.39484">
        <ele>54</ele>
        <time>2024-07-24T07:17:42Z</time>
      </trkpt>
      <trkpt lat="49.79458" lon="2.39484">
        <ele>54</ele>
        <time>2024-07-24T07:17:43Z</time>
      </trkpt>
      <trkpt lat="49.79457" lon="2.39486">
        <ele>54</ele>
        <time>2024-07-24T07:17:44Z</time>
      </trkpt>
      <trkpt lat="49.79456" lon="2.39488">
        <ele>54</ele>
        <time>2024-07-24T07:17:45Z</time>
      </trkpt>
      <trkpt lat="49.79456" lon="2.39489">
        <ele>54.1</ele>
        <time>2024-07-24T07:17:46Z</time>
      </trkpt>
      <trkpt lat="49.79455" lon="2.3949">
        <ele>54.1</ele>
        <time>2024-07-24T07:17:47Z</time>
      </trkpt>
      <trkpt lat="49.79454" lon="2.39491">
        <ele>54.1</ele>
        <time>2024-07-24T07:17:48Z</time>
      </trkpt>
      <trkpt lat="49.79454" lon="2.39493">
        <ele>54.1</ele>
        <time>2024-07-24T07:17:49Z</time>
      </trkpt>
      <trkpt lat="49.79453" lon="2.39494">
        <ele>54.1</ele>
        <time>2024-07-24T07:17:50Z</time>
      </trkpt>
      <trkpt lat="49.79452" lon="2.39496">
        <ele>54.2</ele>
        <time>2024-07-24T07:17:51Z</time>
      </trkpt>
      <trkpt lat="49.79452" lon="2.39496">
        <ele>54.2</ele>
        <time>2024-07-24T07:17:52Z</time>
      </trkpt>
      <trkpt lat="49.79451" lon="2.39497">
        <ele>54.2</ele>
        <time>2024-07-24T07:17:53Z</time>
      </trkpt>
      <trkpt lat="49.7945" lon="2.39499">
        <ele>54.2</ele>
        <time>2024-07-24T07:17:54Z</time>
      </trkpt>
      <trkpt lat="49.79449" lon="2.395">
        <ele>54.3</ele>
        <time>2024-07-24T07:17:55Z</time>
      </trkpt>
      <trkpt lat="49.79448" lon="2.39503">
        <ele>54.3</ele>
        <time>2024-07-24T07:17:56Z</time>
      </trkpt>
      <trkpt lat="49.79448" lon="2.39504">
        <ele>54.3</ele>
        <time>2024-07-24T07:17:57Z</time>
      </trkpt>
      <trkpt lat="49.79447" lon="2.39505">
        <ele>54.4</ele>
        <time>2024-07-24T07:17:58Z</time>
      </trkpt>
      <trkpt lat="49.79446" lon="2.39508">
        <ele>54.4</ele>
        <time>2024-07-24T07:17:59Z</time>
      </trkpt>
      <trkpt lat="49.79445" lon="2.39509">
        <ele>54.4</ele>
        <time>2024-07-24T07:18:00Z</time>
      </trkpt>
      <trkpt lat="49.79445" lon="2.3951">
        <ele>54.5</ele>
        <time>2024-07-24T07:18:01Z</time>
      </trkpt>
      <trkpt lat="49.79444" lon="2.39511">
        <ele>54.5</ele>
        <time>2024-07-24T07:18:02Z</time>
      </trkpt>
      <trkpt lat="49.79444" lon="2.39513">
        <ele>54.5</ele>
        <time>2024-07-24T07:18:03Z</time>
      </trkpt>
      <trkpt lat="49.79443" lon="2.39514">
        <ele>54.5</ele>
        <time>2024-07-24T07:18:04Z</time>
      </trkpt>
      <trkpt lat="49.79442" lon="2.39516">
        <ele>54.6</ele>
        <time>2024-07-24T07:18:05Z</time>
      </trkpt>
      <trkpt lat="49.79441" lon="2.39517">
        <ele>54.6</ele>
        <time>2024-07-24T07:18:06Z</time>
      </trkpt>
      <trkpt lat="49.79441" lon="2.39518">
        <ele>54.6</ele>
        <time>2024-07-24T07:18:07Z</time>
      </trkpt>
      <trkpt lat="49.7944" lon="2.39519">
        <ele>54.6</ele>
        <time>2024-07-24T07:18:08Z</time>
      </trkpt>
      <trkpt lat="49.7944" lon="2.39521">
        <ele>54.7</ele>
        <time>2024-07-24T07:18:09Z</time>
      </trkpt>
      <trkpt lat="49.79439" lon="2.39522">
        <ele>54.7</ele>
        <time>2024-07-24T07:18:10Z</time>
      </trkpt>
      <trkpt lat="49.79438" lon="2.39523">
        <ele>54.7</ele>
        <time>2024-07-24T07:18:11Z</time>
      </trkpt>
      <trkpt lat="49.79438" lon="2.39524">
        <ele>54.7</ele>
        <time>2024-07-24T07:18:12Z</time>
      </trkpt>
      <trkpt lat="49.79437" lon="2.39525">
        <ele>54.8</ele>
        <time>2024-07-24T07:18:13Z</time>
      </trkpt>
      <trkpt lat="49.79437" lon="2.39526">
        <ele>54.8</ele>
        <time>2024-07-24T07:18:14Z</time>
      </trkpt>
      <trkpt lat="49.79436" lon="2.39527">
        <ele>54.8</ele>
        <time>2024-07-24T07:18:15Z</time>
      </trkpt>
      <trkpt lat="49.79435" lon="2.39529">
        <ele>54.9</ele>
        <time>2024-07-24T07:18:16Z</time>
      </trkpt>
      <trkpt lat="49.79435" lon="2.3953">
        <ele>54.9</ele>
        <time>2024-07-24T07:18:17Z</time>
      </trkpt>
      <trkpt lat="49.79434" lon="2.39531">
        <ele>54.9</ele>
        <time>2024-07-24T07:18:18Z</time>
      </trkpt>
      <trkpt lat="49.79433" lon="2.39533">
        <ele>55</ele>
        <time>2024-07-24T07:18:19Z</time>
      </trkpt>
      <trkpt lat="49.79432" lon="2.39534">
        <ele>55</ele>
        <time>2024-07-24T07:18:20Z</time>
      </trkpt>
      <trkpt lat="49.79432" lon="2.39535">
        <ele>55</ele>
        <time>2024-07-24T07:18:21Z</time>
      </trkpt>
      <trkpt lat="49.79431" lon="2.39536">
        <ele>55</ele>
        <time>2024-07-24T07:18:22Z</time>
      </trkpt>
      <trkpt lat="49.7943" lon="2.39537">
        <ele>55.1</ele>
        <time>2024-07-24T07:18:23Z</time>
      </trkpt>
      <trkpt lat="49.7943" lon="2.39539">
        <ele>55.1</ele>
        <time>2024-07-24T07:18:24Z</time>
      </trkpt>
      <trkpt lat="49.79429" lon="2.3954">
        <ele>55.1</ele>
        <time>2024-07-24T07:18:25Z</time>
      </trkpt>
      <trkpt lat="49.79429" lon="2.39541">
        <ele>55.2</ele>
        <time>2024-07-24T07:18:26Z</time>
      </trkpt>
      <trkpt lat="49.79428" lon="2.39543">
        <ele>55.2</ele>
        <time>2024-07-24T07:18:27Z</time>
      </trkpt>
      <trkpt lat="49.79427" lon="2.39544">
        <ele>55.2</ele>
        <time>2024-07-24T07:18:28Z</time>
      </trkpt>
      <trkpt lat="49.79426" lon="2.39545">
        <ele>55.3</ele>
        <time>2024-07-24T07:18:29Z</time>
      </trkpt>
      <trkpt lat="49.79426" lon="2.39546">
        <ele>55.3</ele>
        <time>2024-07-24T07:18:30Z</time>
      </trkpt>
      <trkpt lat="49.79425" lon="2.39548">
        <ele>55.3</ele>
        <time>2024-07-24T07:18:31Z</time>
      </trkpt>
      <trkpt lat="49.79424" lon="2.39549">
        <ele>55.4</ele>
        <time>2024-07-24T07:18:32Z</time>
      </trkpt>
      <trkpt lat="49.79424" lon="2.3955">
        <ele>55.4</ele>
        <time>2024-07-24T07:18:33Z</time>
      </trkpt>
      <trkpt lat="49.79423" lon="2.39552">
        <ele>55.4</ele>
        <time>2024-07-24T07:18:34Z</time>
      </trkpt>
      <trkpt lat="49.79423" lon="2.39553">
        <ele>55.5</ele>
        <time>2024-07-24T07:18:35Z</time>
      </trkpt>
      <trkpt lat="49.79422" lon="2.39554">
        <ele>55.5</ele>
        <time>2024-07-24T07:18:36Z</time>
      </trkpt>
      <trkpt lat="49.79422" lon="2.39556">
        <ele>55.5</ele>
        <time>2024-07-24T07:18:37Z</time>
      </trkpt>
      <trkpt lat="49.79421" lon="2.39557">
        <ele>55.6</ele>
        <time>2024-07-24T07:18:38Z</time>
      </trkpt>
      <trkpt lat="49.79421" lon="2.39558">
        <ele>55.6</ele>
        <time>2024-07-24T07:18:39Z</time>
      </trkpt>
      <trkpt lat="49.7942" lon="2.3956">
        <ele>55.6</ele>
        <time>2024-07-24T07:18:40Z</time>
      </trkpt>
      <trkpt lat="49.7942" lon="2.39561">
        <ele>55.7</ele>
        <time>2024-07-24T07:18:41Z</time>
      </trkpt>
      <trkpt lat="49.79419" lon="2.39563">
        <ele>55.7</ele>
        <time>2024-07-24T07:18:42Z</time>
      </trkpt>
      <trkpt lat="49.79419" lon="2.39564">
        <ele>55.7</ele>
        <time>2024-07-24T07:18:43Z</time>
      </trkpt>
      <trkpt lat="49.79418" lon="2.39565">
        <ele>55.8</ele>
        <time>2024-07-24T07:18:44Z</time>
      </trkpt>
      <trkpt lat="49.79417" lon="2.39566">
        <ele>55.8</ele>
        <time>2024-07-24T07:18:45Z</time>
      </trkpt>
      <trkpt lat="49.79417" lon="2.39567">
        <ele>55.8</ele>
        <time>2024-07-24T07:18:46Z</time>
      </trkpt>
      <trkpt lat="49.79416" lon="2.39568">
        <ele>55.9</ele>
        <time>2024-07-24T07:18:47Z</time>
      </trkpt>
      <trkpt lat="49.79416" lon="2.39569">
        <ele>55.9</ele>
        <time>2024-07-24T07:18:48Z</time>
      </trkpt>
      <trkpt lat="49.79415" lon="2.39571">
        <ele>56</ele>
        <time>2024-07-24T07:18:49Z</time>
      </trkpt>
      <trkpt lat="49.79414" lon="2.39572">
        <ele>56</ele>
        <time>2024-07-24T07:18:50Z</time>
      </trkpt>
      <trkpt lat="49.79414" lon="2.39572">
        <ele>56</ele>
        <time>2024-07-24T07:18:51Z</time>
      </trkpt>
      <trkpt lat="49.79413" lon="2.39573">
        <ele>56.1</ele>
        <time>2024-07-24T07:18:52Z</time>
      </trkpt>
      <trkpt lat="49.79412" lon="2.39574">
        <ele>56.1</ele>
        <time>2024-07-24T07:18:53Z</time>
      </trkpt>
      <trkpt lat="49.79411" lon="2.39576">
        <ele>56.2</ele>
        <time>2024-07-24T07:18:54Z</time>
      </trkpt>
      <trkpt lat="49.7941" lon="2.39577">
        <ele>56.2</ele>
        <time>2024-07-24T07:18:55Z</time>
      </trkpt>
      <trkpt lat="49.7941" lon="2.39577">
        <ele>56.2</ele>
        <time>2024-07-24T07:18:56Z</time>
      </trkpt>
      <trkpt lat="49.79409" lon="2.39578">
        <ele>56.2</ele>
        <time>2024-07-24T07:18:57Z</time>
      </trkpt>
      <trkpt lat="49.79409" lon="2.39579">
        <ele>56.3</ele>
        <time>2024-07-24T07:18:58Z</time>
      </trkpt>
      <trkpt lat="49.79408" lon="2.3958">
        <ele>56.3</ele>
        <time>2024-07-24T07:18:59Z</time>
      </trkpt>
      <trkpt lat="49.79407" lon="2.39581">
        <ele>56.4</ele>
        <time>2024-07-24T07:19:00Z</time>
      </trkpt>
      <trkpt lat="49.79407" lon="2.39583">
        <ele>56.4</ele>
        <time>2024-07-24T07:19:01Z</time>
      </trkpt>
      <trkpt lat="49.79406" lon="2.39584">
        <ele>56.5</ele>
        <time>2024-07-24T07:19:02Z</time>
      </trkpt>
      <trkpt lat="49.79405" lon="2.39585">
        <ele>56.5</ele>
        <time>2024-07-24T07:19:03Z</time>
      </trkpt>
      <trkpt lat="49.79405" lon="2.39586">
        <ele>56.6</ele>
        <time>2024-07-24T07:19:04Z</time>
      </trkpt>
      <trkpt lat="49.79404" lon="2.39587">
        <ele>56.6</ele>
        <time>2024-07-24T07:19:05Z</time>
      </trkpt>
      <trkpt lat="49.79403" lon="2.39589">
        <ele>56.7</ele>
        <time>2024-07-24T07:19:06Z</time>
      </trkpt>
      <trkpt lat="49.79403" lon="2.3959">
        <ele>56.7</ele>
        <time>2024-07-24T07:19:07Z</time>
      </trkpt>
      <trkpt lat="49.79402" lon="2.39591">
        <ele>56.8</ele>
        <time>2024-07-24T07:19:08Z</time>
      </trkpt>
      <trkpt lat="49.79402" lon="2.39593">
        <ele>56.8</ele>
        <time>2024-07-24T07:19:09Z</time>
      </trkpt>
      <trkpt lat="49.79401" lon="2.39594">
        <ele>56.9</ele>
        <time>2024-07-24T07:19:10Z</time>
      </trkpt>
      <trkpt lat="49.794" lon="2.39595">
        <ele>57</ele>
        <time>2024-07-24T07:19:11Z</time>
      </trkpt>
      <trkpt lat="49.79399" lon="2.39596">
        <ele>57</ele>
        <time>2024-07-24T07:19:12Z</time>
      </trkpt>
      <trkpt lat="49.79399" lon="2.39598">
        <ele>57.1</ele>
        <time>2024-07-24T07:19:13Z</time>
      </trkpt>
      <trkpt lat="49.79398" lon="2.39599">
        <ele>57.1</ele>
        <time>2024-07-24T07:19:14Z</time>
      </trkpt>
      <trkpt lat="49.79397" lon="2.396">
        <ele>57.2</ele>
        <time>2024-07-24T07:19:15Z</time>
      </trkpt>
      <trkpt lat="49.79397" lon="2.39601">
        <ele>57.2</ele>
        <time>2024-07-24T07:19:16Z</time>
      </trkpt>
      <trkpt lat="49.79396" lon="2.39603">
        <ele>57.3</ele>
        <time>2024-07-24T07:19:17Z</time>
      </trkpt>
      <trkpt lat="49.79395" lon="2.39604">
        <ele>57.3</ele>
        <time>2024-07-24T07:19:18Z</time>
      </trkpt>
      <trkpt lat="49.79395" lon="2.39605">
        <ele>57.4</ele>
        <time>2024-07-24T07:19:19Z</time>
      </trkpt>
      <trkpt lat="49.79394" lon="2.39606">
        <ele>57.4</ele>
        <time>2024-07-24T07:19:20Z</time>
      </trkpt>
      <trkpt lat="49.79393" lon="2.39607">
        <ele>57.5</ele>
        <time>2024-07-24T07:19:21Z</time>
      </trkpt>
      <trkpt lat="49.79393" lon="2.39608">
        <ele>57.6</ele>
        <time>2024-07-24T07:19:22Z</time>
      </trkpt>
      <trkpt lat="49.79392" lon="2.3961">
        <ele>57.6</ele>
        <time>2024-07-24T07:19:23Z</time>
      </trkpt>
      <trkpt lat="49.79392" lon="2.39611">
        <ele>57.7</ele>
        <time>2024-07-24T07:19:24Z</time>
      </trkpt>
      <trkpt lat="49.79391" lon="2.39612">
        <ele>57.7</ele>
        <time>2024-07-24T07:19:25Z</time>
      </trkpt>
      <trkpt lat="49.7939" lon="2.39613">
        <ele>57.8</ele>
        <time>2024-07-24T07:19:26Z</time>
      </trkpt>
      <trkpt lat="49.7939" lon="2.39615">
        <ele>57.9</ele>
        <time>2024-07-24T07:19:27Z</time>
      </trkpt>
      <trkpt lat="49.79389" lon="2.39616">
        <ele>57.9</ele>
        <time>2024-07-24T07:19:28Z</time>
      </trkpt>
      <trkpt lat="49.79388" lon="2.39618">
        <ele>58</ele>
        <time>2024-07-24T07:19:29Z</time>
      </trkpt>
      <trkpt lat="49.79388" lon="2.39619">
        <ele>58</ele>
        <time>2024-07-24T07:19:30Z</time>
      </trkpt>
      <trkpt lat="49.79387" lon="2.3962">
        <ele>58.1</ele>
        <time>2024-07-24T07:19:31Z</time>
      </trkpt>
      <trkpt lat="49.79386" lon="2.39621">
        <ele>58.2</ele>
        <time>2024-07-24T07:19:32Z</time>
      </trkpt>
      <trkpt lat="49.79386" lon="2.39622">
        <ele>58.2</ele>
        <time>2024-07-24T07:19:33Z</time>
      </trkpt>
      <trkpt lat="49.79385" lon="2.39623">
        <ele>58.3</ele>
        <time>2024-07-24T07:19:34Z</time>
      </trkpt>
      <trkpt lat="49.79384" lon="2.39624">
        <ele>58.4</ele>
        <time>2024-07-24T07:19:35Z</time>
      </trkpt>
      <trkpt lat="49.79383" lon="2.39625">
        <ele>58.4</ele>
        <time>2024-07-24T07:19:36Z</time>
      </trkpt>
      <trkpt lat="49.79382" lon="2.39626">
        <ele>58.5</ele>
        <time>2024-07-24T07:19:37Z</time>
      </trkpt>
      <trkpt lat="49.79382" lon="2.39627">
        <ele>58.5</ele>
        <time>2024-07-24T07:19:38Z</time>
      </trkpt>
      <trkpt lat="49.79381" lon="2.39628">
        <ele>58.6</ele>
        <time>2024-07-24T07:19:39Z</time>
      </trkpt>
      <trkpt lat="49.7938" lon="2.3963">
        <ele>58.7</ele>
        <time>2024-07-24T07:19:40Z</time>
      </trkpt>
      <trkpt lat="49.7938" lon="2.39631">
        <ele>58.7</ele>
        <time>2024-07-24T07:19:41Z</time>
      </trkpt>
      <trkpt lat="49.79379" lon="2.39631">
        <ele>58.8</ele>
        <time>2024-07-24T07:19:42Z</time>
      </trkpt>
      <trkpt lat="49.79378" lon="2.39633">
        <ele>58.9</ele>
        <time>2024-07-24T07:19:43Z</time>
      </trkpt>
      <trkpt lat="49.79377" lon="2.39634">
        <ele>58.9</ele>
        <time>2024-07-24T07:19:44Z</time>
      </trkpt>
      <trkpt lat="49.79377" lon="2.39635">
        <ele>59</ele>
        <time>2024-07-24T07:19:45Z</time>
      </trkpt>
      <trkpt lat="49.79376" lon="2.39636">
        <ele>59</ele>
        <time>2024-07-24T07:19:46Z</time>
      </trkpt>
      <trkpt lat="49.79375" lon="2.39637">
        <ele>59.1</ele>
        <time>2024-07-24T07:19:47Z</time>
      </trkpt>
      <trkpt lat="49.79375" lon="2.39638">
        <ele>59.2</ele>
        <time>2024-07-24T07:19:48Z</time>
      </trkpt>
      <trkpt lat="49.79374" lon="2.39639">
        <ele>59.2</ele>
        <time>2024-07-24T07:19:49Z</time>
      </trkpt>
      <trkpt lat="49.79373" lon="2.3964">
        <ele>59.3</ele>
        <time>2024-07-24T07:19:50Z</time>
      </trkpt>
      <trkpt lat="49.79373" lon="2.39641">
        <ele>59.3</ele>
        <time>2024-07-24T07:19:51Z</time>
      </trkpt>
      <trkpt lat="49.79372" lon="2.39642">
        <ele>59.4</ele>
        <time>2024-07-24T07:19:52Z</time>
      </trkpt>
      <trkpt lat="49.79371" lon="2.39643">
        <ele>59.5</ele>
        <time>2024-07-24T07:19:53Z</time>
      </trkpt>
      <trkpt lat="49.7937" lon="2.39644">
        <ele>59.5</ele>
        <time>2024-07-24T07:19:54Z</time>
      </trkpt>
      <trkpt lat="49.7937" lon="2.39645">
        <ele>59.6</ele>
        <time>2024-07-24T07:19:55Z</time>
      </trkpt>
      <trkpt lat="49.79369" lon="2.39646">
        <ele>59.6</ele>
        <time>2024-07-24T07:19:56Z</time>
      </trkpt>
      <trkpt lat="49.79368" lon="2.39647">
        <ele>59.7</ele>
        <time>2024-07-24T07:19:57Z</time>
      </trkpt>
      <trkpt lat="49.79368" lon="2.39649">
        <ele>59.7</ele>
        <time>2024-07-24T07:19:58Z</time>
      </trkpt>
      <trkpt lat="49.79367" lon="2.3965">
        <ele>59.8</ele>
        <time>2024-07-24T07:19:59Z</time>
      </trkpt>
      <trkpt lat="49.79366" lon="2.39651">
        <ele>59.8</ele>
        <time>2024-07-24T07:20:00Z</time>
      </trkpt>
      <trkpt lat="49.79366" lon="2.39652">
        <ele>59.9</ele>
        <time>2024-07-24T07:20:01Z</time>
      </trkpt>
      <trkpt lat="49.79365" lon="2.39653">
        <ele>60</ele>
        <time>2024-07-24T07:20:02Z</time>
      </trkpt>
      <trkpt lat="49.79364" lon="2.39654">
        <ele>60</ele>
        <time>2024-07-24T07:20:03Z</time>
      </trkpt>
      <trkpt lat="49.79363" lon="2.39655">
        <ele>60.1</ele>
        <time>2024-07-24T07:20:04Z</time>
      </trkpt>
      <trkpt lat="49.79363" lon="2.39656">
        <ele>60.2</ele>
        <time>2024-07-24T07:20:05Z</time>
      </trkpt>
      <trkpt lat="49.79362" lon="2.39658">
        <ele>60.2</ele>
        <time>2024-07-24T07:20:06Z</time>
      </trkpt>
      <trkpt lat="49.79361" lon="2.39659">
        <ele>60.3</ele>
        <time>2024-07-24T07:20:07Z</time>
      </trkpt>
      <trkpt lat="49.7936" lon="2.3966">
        <ele>60.3</ele>
        <time>2024-07-24T07:20:08Z</time>
      </trkpt>
      <trkpt lat="49.7936" lon="2.39661">
        <ele>60.4</ele>
        <time>2024-07-24T07:20:09Z</time>
      </trkpt>
      <trkpt lat="49.79359" lon="2.39662">
        <ele>60.4</ele>
        <time>2024-07-24T07:20:10Z</time>
      </trkpt>
      <trkpt lat="49.79358" lon="2.39663">
        <ele>60.5</ele>
        <time>2024-07-24T07:20:11Z</time>
      </trkpt>
      <trkpt lat="49.79358" lon="2.39664">
        <ele>60.5</ele>
        <time>2024-07-24T07:20:12Z</time>
      </trkpt>
      <trkpt lat="49.79357" lon="2.39665">
        <ele>60.6</ele>
        <time>2024-07-24T07:20:13Z</time>
      </trkpt>
      <trkpt lat="49.79356" lon="2.39666">
        <ele>60.6</ele>
        <time>2024-07-24T07:20:14Z</time>
      </trkpt>
      <trkpt lat="49.79355" lon="2.39666">
        <ele>60.7</ele>
        <time>2024-07-24T07:20:15Z</time>
      </trkpt>
      <trkpt lat="49.79354" lon="2.39667">
        <ele>60.7</ele>
        <time>2024-07-24T07:20:16Z</time>
      </trkpt>
      <trkpt lat="49.79353" lon="2.39668">
        <ele>60.8</ele>
        <time>2024-07-24T07:20:17Z</time>
      </trkpt>
      <trkpt lat="49.79352" lon="2.3967">
        <ele>60.8</ele>
        <time>2024-07-24T07:20:18Z</time>
      </trkpt>
      <trkpt lat="49.79352" lon="2.3967">
        <ele>60.9</ele>
        <time>2024-07-24T07:20:19Z</time>
      </trkpt>
      <trkpt lat="49.79351" lon="2.39671">
        <ele>60.9</ele>
        <time>2024-07-24T07:20:20Z</time>
      </trkpt>
      <trkpt lat="49.7935" lon="2.39672">
        <ele>61</ele>
        <time>2024-07-24T07:20:21Z</time>
      </trkpt>
      <trkpt lat="49.79349" lon="2.39673">
        <ele>61</ele>
        <time>2024-07-24T07:20:22Z</time>
      </trkpt>
      <trkpt lat="49.79348" lon="2.39674">
        <ele>61.1</ele>
        <time>2024-07-24T07:20:23Z</time>
      </trkpt>
      <trkpt lat="49.79348" lon="2.39674">
        <ele>61.1</ele>
        <time>2024-07-24T07:20:24Z</time>
      </trkpt>
      <trkpt lat="49.79347" lon="2.39675">
        <ele>61.1</ele>
        <time>2024-07-24T07:20:25Z</time>
      </trkpt>
      <trkpt lat="49.79347" lon="2.39676">
        <ele>61.2</ele>
        <time>2024-07-24T07:20:26Z</time>
      </trkpt>
      <trkpt lat="49.79346" lon="2.39677">
        <ele>61.2</ele>
        <time>2024-07-24T07:20:27Z</time>
      </trkpt>
      <trkpt lat="49.79345" lon="2.39678">
        <ele>61.3</ele>
        <time>2024-07-24T07:20:28Z</time>
      </trkpt>
      <trkpt lat="49.79344" lon="2.39679">
        <ele>61.3</ele>
        <time>2024-07-24T07:20:29Z</time>
      </trkpt>
      <trkpt lat="49.79344" lon="2.3968">
        <ele>61.4</ele>
        <time>2024-07-24T07:20:30Z</time>
      </trkpt>
      <trkpt lat="49.79343" lon="2.39681">
        <ele>61.4</ele>
        <time>2024-07-24T07:20:31Z</time>
      </trkpt>
      <trkpt lat="49.79343" lon="2.39682">
        <ele>61.4</ele>
        <time>2024-07-24T07:20:32Z</time>
      </trkpt>
      <trkpt lat="49.79341" lon="2.39683">
        <ele>61.5</ele>
        <time>2024-07-24T07:20:33Z</time>
      </trkpt>
      <trkpt lat="49.79341" lon="2.39684">
        <ele>61.5</ele>
        <time>2024-07-24T07:20:34Z</time>
      </trkpt>
      <trkpt lat="49.7934" lon="2.39685">
        <ele>61.6</ele>
        <time>2024-07-24T07:20:35Z</time>
      </trkpt>
      <trkpt lat="49.7934" lon="2.39687">
        <ele>61.6</ele>
        <time>2024-07-24T07:20:36Z</time>
      </trkpt>
      <trkpt lat="49.79339" lon="2.39688">
        <ele>61.7</ele>
        <time>2024-07-24T07:20:37Z</time>
      </trkpt>
      <trkpt lat="49.79338" lon="2.39689">
        <ele>61.7</ele>
        <time>2024-07-24T07:20:38Z</time>
      </trkpt>
      <trkpt lat="49.79337" lon="2.3969">
        <ele>61.8</ele>
        <time>2024-07-24T07:20:39Z</time>
      </trkpt>
      <trkpt lat="49.79337" lon="2.39691">
        <ele>61.8</ele>
        <time>2024-07-24T07:20:40Z</time>
      </trkpt>
      <trkpt lat="49.79336" lon="2.39692">
        <ele>61.8</ele>
        <time>2024-07-24T07:20:41Z</time>
      </trkpt>
      <trkpt lat="49.79335" lon="2.39694">
        <ele>61.9</ele>
        <time>2024-07-24T07:20:42Z</time>
      </trkpt>
      <trkpt lat="49.79335" lon="2.39694">
        <ele>61.9</ele>
        <time>2024-07-24T07:20:43Z</time>
      </trkpt>
      <trkpt lat="49.79334" lon="2.39695">
        <ele>62</ele>
        <time>2024-07-24T07:20:44Z</time>
      </trkpt>
      <trkpt lat="49.79333" lon="2.39696">
        <ele>62</ele>
        <time>2024-07-24T07:20:45Z</time>
      </trkpt>
      <trkpt lat="49.79332" lon="2.39697">
        <ele>62</ele>
        <time>2024-07-24T07:20:46Z</time>
      </trkpt>
      <trkpt lat="49.79332" lon="2.39699">
        <ele>62.1</ele>
        <time>2024-07-24T07:20:47Z</time>
      </trkpt>
      <trkpt lat="49.79331" lon="2.397">
        <ele>62.1</ele>
        <time>2024-07-24T07:20:48Z</time>
      </trkpt>
      <trkpt lat="49.7933" lon="2.39701">
        <ele>62.2</ele>
        <time>2024-07-24T07:20:49Z</time>
      </trkpt>
      <trkpt lat="49.7933" lon="2.39702">
        <ele>62.2</ele>
        <time>2024-07-24T07:20:50Z</time>
      </trkpt>
      <trkpt lat="49.79329" lon="2.39703">
        <ele>62.2</ele>
        <time>2024-07-24T07:20:51Z</time>
      </trkpt>
      <trkpt lat="49.79328" lon="2.39703">
        <ele>62.3</ele>
        <time>2024-07-24T07:20:52Z</time>
      </trkpt>
      <trkpt lat="49.79327" lon="2.39703">
        <ele>62.3</ele>
        <time>2024-07-24T07:20:53Z</time>
      </trkpt>
      <trkpt lat="49.79326" lon="2.39703">
        <ele>62.4</ele>
        <time>2024-07-24T07:20:54Z</time>
      </trkpt>
      <trkpt lat="49.79326" lon="2.39704">
        <ele>62.4</ele>
        <time>2024-07-24T07:20:55Z</time>
      </trkpt>
      <trkpt lat="49.79325" lon="2.39705">
        <ele>62.4</ele>
        <time>2024-07-24T07:20:56Z</time>
      </trkpt>
      <trkpt lat="49.79324" lon="2.39706">
        <ele>62.5</ele>
        <time>2024-07-24T07:20:57Z</time>
      </trkpt>
      <trkpt lat="49.79323" lon="2.39707">
        <ele>62.5</ele>
        <time>2024-07-24T07:20:58Z</time>
      </trkpt>
      <trkpt lat="49.79323" lon="2.39708">
        <ele>62.5</ele>
        <time>2024-07-24T07:20:59Z</time>
      </trkpt>
      <trkpt lat="49.79322" lon="2.39709">
        <ele>62.6</ele>
        <time>2024-07-24T07:21:00Z</time>
      </trkpt>
      <trkpt lat="49.79321" lon="2.3971">
        <ele>62.6</ele>
        <time>2024-07-24T07:21:01Z</time>
      </trkpt>
      <trkpt lat="49.79321" lon="2.39711">
        <ele>62.6</ele>
        <time>2024-07-24T07:21:02Z</time>
      </trkpt>
      <trkpt lat="49.7932" lon="2.39713">
        <ele>62.7</ele>
        <time>2024-07-24T07:21:03Z</time>
      </trkpt>
      <trkpt lat="49.7932" lon="2.39714">
        <ele>62.7</ele>
        <time>2024-07-24T07:21:04Z</time>
      </trkpt>
      <trkpt lat="49.79319" lon="2.39715">
        <ele>62.8</ele>
        <time>2024-07-24T07:21:05Z</time>
      </trkpt>
      <trkpt lat="49.79318" lon="2.39716">
        <ele>62.8</ele>
        <time>2024-07-24T07:21:06Z</time>
      </trkpt>
      <trkpt lat="49.79317" lon="2.39718">
        <ele>62.9</ele>
        <time>2024-07-24T07:21:07Z</time>
      </trkpt>
      <trkpt lat="49.79317" lon="2.39719">
        <ele>62.9</ele>
        <time>2024-07-24T07:21:08Z</time>
      </trkpt>
      <trkpt lat="49.79316" lon="2.3972">
        <ele>62.9</ele>
        <time>2024-07-24T07:21:09Z</time>
      </trkpt>
      <trkpt lat="49.79316" lon="2.39721">
        <ele>63</ele>
        <time>2024-07-24T07:21:10Z</time>
      </trkpt>
      <trkpt lat="49.79315" lon="2.39722">
        <ele>63</ele>
        <time>2024-07-24T07:21:11Z</time>
      </trkpt>
      <trkpt lat="49.79314" lon="2.39724">
        <ele>63.1</ele>
        <time>2024-07-24T07:21:12Z</time>
      </trkpt>
      <trkpt lat="49.79314" lon="2.39725">
        <ele>63.1</ele>
        <time>2024-07-24T07:21:13Z</time>
      </trkpt>
      <trkpt lat="49.79313" lon="2.39726">
        <ele>63.1</ele>
        <time>2024-07-24T07:21:14Z</time>
      </trkpt>
      <trkpt lat="49.79312" lon="2.39727">
        <ele>63.2</ele>
        <time>2024-07-24T07:21:15Z</time>
      </trkpt>
      <trkpt lat="49.79312" lon="2.39728">
        <ele>63.2</ele>
        <time>2024-07-24T07:21:16Z</time>
      </trkpt>
      <trkpt lat="49.79311" lon="2.39729">
        <ele>63.3</ele>
        <time>2024-07-24T07:21:17Z</time>
      </trkpt>
      <trkpt lat="49.7931" lon="2.3973">
        <ele>63.3</ele>
        <time>2024-07-24T07:21:18Z</time>
      </trkpt>
      <trkpt lat="49.79308" lon="2.39733">
        <ele>63.4</ele>
        <time>2024-07-24T07:21:19Z</time>
      </trkpt>
      <trkpt lat="49.79308" lon="2.39733">
        <ele>63.4</ele>
        <time>2024-07-24T07:21:20Z</time>
      </trkpt>
      <trkpt lat="49.79307" lon="2.39734">
        <ele>63.5</ele>
        <time>2024-07-24T07:21:21Z</time>
      </trkpt>
      <trkpt lat="49.79307" lon="2.39735">
        <ele>63.5</ele>
        <time>2024-07-24T07:21:22Z</time>
      </trkpt>
      <trkpt lat="49.79306" lon="2.39736">
        <ele>63.5</ele>
        <time>2024-07-24T07:21:23Z</time>
      </trkpt>
      <trkpt lat="49.79305" lon="2.39737">
        <ele>63.6</ele>
        <time>2024-07-24T07:21:24Z</time>
      </trkpt>
      <trkpt lat="49.79304" lon="2.39738">
        <ele>63.6</ele>
        <time>2024-07-24T07:21:25Z</time>
      </trkpt>
      <trkpt lat="49.79304" lon="2.39739">
        <ele>63.7</ele>
        <time>2024-07-24T07:21:26Z</time>
      </trkpt>
      <trkpt lat="49.79303" lon="2.39741">
        <ele>63.7</ele>
        <time>2024-07-24T07:21:27Z</time>
      </trkpt>
      <trkpt lat="49.79302" lon="2.39742">
        <ele>63.8</ele>
        <time>2024-07-24T07:21:28Z</time>
      </trkpt>
      <trkpt lat="49.79301" lon="2.39743">
        <ele>63.8</ele>
        <time>2024-07-24T07:21:29Z</time>
      </trkpt>
      <trkpt lat="49.79301" lon="2.39744">
        <ele>63.9</ele>
        <time>2024-07-24T07:21:30Z</time>
      </trkpt>
      <trkpt lat="49.793" lon="2.39745">
        <ele>63.9</ele>
        <time>2024-07-24T07:21:31Z</time>
      </trkpt>
      <trkpt lat="49.79299" lon="2.39747">
        <ele>64</ele>
        <time>2024-07-24T07:21:32Z</time>
      </trkpt>
      <trkpt lat="49.79298" lon="2.39748">
        <ele>64</ele>
        <time>2024-07-24T07:21:33Z</time>
      </trkpt>
      <trkpt lat="49.79298" lon="2.3975">
        <ele>64.1</ele>
        <time>2024-07-24T07:21:34Z</time>
      </trkpt>
      <trkpt lat="49.79297" lon="2.39751">
        <ele>64.1</ele>
        <time>2024-07-24T07:21:35Z</time>
      </trkpt>
      <trkpt lat="49.79296" lon="2.39753">
        <ele>64.2</ele>
        <time>2024-07-24T07:21:36Z</time>
      </trkpt>
      <trkpt lat="49.79296" lon="2.39753">
        <ele>64.2</ele>
        <time>2024-07-24T07:21:37Z</time>
      </trkpt>
      <trkpt lat="49.79295" lon="2.39755">
        <ele>64.2</ele>
        <time>2024-07-24T07:21:38Z</time>
      </trkpt>
      <trkpt lat="49.79294" lon="2.39756">
        <ele>64.3</ele>
        <time>2024-07-24T07:21:39Z</time>
      </trkpt>
      <trkpt lat="49.79294" lon="2.39757">
        <ele>64.3</ele>
        <time>2024-07-24T07:21:40Z</time>
      </trkpt>
      <trkpt lat="49.79293" lon="2.39759">
        <ele>64.4</ele>
        <time>2024-07-24T07:21:41Z</time>
      </trkpt>
      <trkpt lat="49.79292" lon="2.3976">
        <ele>64.4</ele>
        <time>2024-07-24T07:21:42Z</time>
      </trkpt>
      <trkpt lat="49.79292" lon="2.39761">
        <ele>64.5</ele>
        <time>2024-07-24T07:21:43Z</time>
      </trkpt>
      <trkpt lat="49.79291" lon="2.39763">
        <ele>64.5</ele>
        <time>2024-07-24T07:21:44Z</time>
      </trkpt>
      <trkpt lat="49.7929" lon="2.39764">
        <ele>64.5</ele>
        <time>2024-07-24T07:21:45Z</time>
      </trkpt>
      <trkpt lat="49.7929" lon="2.39765">
        <ele>64.6</ele>
        <time>2024-07-24T07:21:46Z</time>
      </trkpt>
      <trkpt lat="49.79289" lon="2.39766">
        <ele>64.6</ele>
        <time>2024-07-24T07:21:47Z</time>
      </trkpt>
      <trkpt lat="49.79288" lon="2.39767">
        <ele>64.7</ele>
        <time>2024-07-24T07:21:48Z</time>
      </trkpt>
      <trkpt lat="49.79287" lon="2.39769">
        <ele>64.7</ele>
        <time>2024-07-24T07:21:49Z</time>
      </trkpt>
      <trkpt lat="49.79287" lon="2.3977">
        <ele>64.7</ele>
        <time>2024-07-24T07:21:50Z</time>
      </trkpt>
      <trkpt lat="49.79286" lon="2.39772">
        <ele>64.8</ele>
        <time>2024-07-24T07:21:51Z</time>
      </trkpt>
      <trkpt lat="49.79285" lon="2.39774">
        <ele>64.9</ele>
        <time>2024-07-24T07:21:52Z</time>
      </trkpt>
      <trkpt lat="49.79284" lon="2.39775">
        <ele>64.9</ele>
        <time>2024-07-24T07:21:53Z</time>
      </trkpt>
      <trkpt lat="49.79284" lon="2.39776">
        <ele>64.9</ele>
        <time>2024-07-24T07:21:54Z</time>
      </trkpt>
      <trkpt lat="49.79283" lon="2.39777">
        <ele>65</ele>
        <time>2024-07-24T07:21:55Z</time>
      </trkpt>
      <trkpt lat="49.79282" lon="2.39778">
        <ele>65</ele>
        <time>2024-07-24T07:21:56Z</time>
      </trkpt>
      <trkpt lat="49.79281" lon="2.3978">
        <ele>65</ele>
        <time>2024-07-24T07:21:57Z</time>
      </trkpt>
      <trkpt lat="49.79281" lon="2.39781">
        <ele>65.1</ele>
        <time>2024-07-24T07:21:58Z</time>
      </trkpt>
      <trkpt lat="49.7928" lon="2.39783">
        <ele>65.1</ele>
        <time>2024-07-24T07:21:59Z</time>
      </trkpt>
      <trkpt lat="49.79279" lon="2.39783">
        <ele>65.1</ele>
        <time>2024-07-24T07:22:00Z</time>
      </trkpt>
      <trkpt lat="49.79278" lon="2.39785">
        <ele>65.2</ele>
        <time>2024-07-24T07:22:01Z</time>
      </trkpt>
      <trkpt lat="49.79278" lon="2.39786">
        <ele>65.2</ele>
        <time>2024-07-24T07:22:02Z</time>
      </trkpt>
      <trkpt lat="49.79277" lon="2.39787">
        <ele>65.3</ele>
        <time>2024-07-24T07:22:03Z</time>
      </trkpt>
      <trkpt lat="49.79276" lon="2.3979">
        <ele>65.3</ele>
        <time>2024-07-24T07:22:04Z</time>
      </trkpt>
      <trkpt lat="49.79275" lon="2.39791">
        <ele>65.4</ele>
        <time>2024-07-24T07:22:05Z</time>
      </trkpt>
      <trkpt lat="49.79275" lon="2.39792">
        <ele>65.4</ele>
        <time>2024-07-24T07:22:06Z</time>
      </trkpt>
      <trkpt lat="49.79274" lon="2.39793">
        <ele>65.4</ele>
        <time>2024-07-24T07:22:07Z</time>
      </trkpt>
      <trkpt lat="49.79273" lon="2.39794">
        <ele>65.4</ele>
        <time>2024-07-24T07:22:08Z</time>
      </trkpt>
      <trkpt lat="49.79273" lon="2.39796">
        <ele>65.5</ele>
        <time>2024-07-24T07:22:09Z</time>
      </trkpt>
      <trkpt lat="49.79272" lon="2.39797">
        <ele>65.5</ele>
        <time>2024-07-24T07:22:10Z</time>
      </trkpt>
      <trkpt lat="49.79271" lon="2.39798">
        <ele>65.6</ele>
        <time>2024-07-24T07:22:11Z</time>
      </trkpt>
      <trkpt lat="49.79271" lon="2.398">
        <ele>65.6</ele>
        <time>2024-07-24T07:22:12Z</time>
      </trkpt>
      <trkpt lat="49.7927" lon="2.39801">
        <ele>65.6</ele>
        <time>2024-07-24T07:22:13Z</time>
      </trkpt>
      <trkpt lat="49.79269" lon="2.39803">
        <ele>65.7</ele>
        <time>2024-07-24T07:22:14Z</time>
      </trkpt>
      <trkpt lat="49.79268" lon="2.39804">
        <ele>65.7</ele>
        <time>2024-07-24T07:22:15Z</time>
      </trkpt>
      <trkpt lat="49.79268" lon="2.39805">
        <ele>65.7</ele>
        <time>2024-07-24T07:22:16Z</time>
      </trkpt>
      <trkpt lat="49.79267" lon="2.39806">
        <ele>65.7</ele>
        <time>2024-07-24T07:22:17Z</time>
      </trkpt>
      <trkpt lat="49.79267" lon="2.39807">
        <ele>65.8</ele>
        <time>2024-07-24T07:22:18Z</time>
      </trkpt>
      <trkpt lat="49.79266" lon="2.39809">
        <ele>65.8</ele>
        <time>2024-07-24T07:22:19Z</time>
      </trkpt>
      <trkpt lat="49.79265" lon="2.3981">
        <ele>65.8</ele>
        <time>2024-07-24T07:22:20Z</time>
      </trkpt>
      <trkpt lat="49.79265" lon="2.39812">
        <ele>65.8</ele>
        <time>2024-07-24T07:22:21Z</time>
      </trkpt>
      <trkpt lat="49.79264" lon="2.39813">
        <ele>65.9</ele>
        <time>2024-07-24T07:22:22Z</time>
      </trkpt>
      <trkpt lat="49.79263" lon="2.39815">
        <ele>65.9</ele>
        <time>2024-07-24T07:22:23Z</time>
      </trkpt>
      <trkpt lat="49.79263" lon="2.39816">
        <ele>65.9</ele>
        <time>2024-07-24T07:22:24Z</time>
      </trkpt>
      <trkpt lat="49.79262" lon="2.39817">
        <ele>66</ele>
        <time>2024-07-24T07:22:25Z</time>
      </trkpt>
      <trkpt lat="49.79261" lon="2.39818">
        <ele>66</ele>
        <time>2024-07-24T07:22:26Z</time>
      </trkpt>
      <trkpt lat="49.79261" lon="2.3982">
        <ele>66</ele>
        <time>2024-07-24T07:22:27Z</time>
      </trkpt>
      <trkpt lat="49.7926" lon="2.39822">
        <ele>66.1</ele>
        <time>2024-07-24T07:22:28Z</time>
      </trkpt>
      <trkpt lat="49.79259" lon="2.39823">
        <ele>66.1</ele>
        <time>2024-07-24T07:22:29Z</time>
      </trkpt>
      <trkpt lat="49.79259" lon="2.39825">
        <ele>66.1</ele>
        <time>2024-07-24T07:22:30Z</time>
      </trkpt>
      <trkpt lat="49.79258" lon="2.39827">
        <ele>66.1</ele>
        <time>2024-07-24T07:22:31Z</time>
      </trkpt>
      <trkpt lat="49.79257" lon="2.39828">
        <ele>66.2</ele>
        <time>2024-07-24T07:22:32Z</time>
      </trkpt>
      <trkpt lat="49.79257" lon="2.39829">
        <ele>66.2</ele>
        <time>2024-07-24T07:22:33Z</time>
      </trkpt>
      <trkpt lat="49.79256" lon="2.39831">
        <ele>66.2</ele>
        <time>2024-07-24T07:22:34Z</time>
      </trkpt>
      <trkpt lat="49.79255" lon="2.39833">
        <ele>66.3</ele>
        <time>2024-07-24T07:22:35Z</time>
      </trkpt>
      <trkpt lat="49.79255" lon="2.39834">
        <ele>66.3</ele>
        <time>2024-07-24T07:22:36Z</time>
      </trkpt>
      <trkpt lat="49.79253" lon="2.39837">
        <ele>66.3</ele>
        <time>2024-07-24T07:22:37Z</time>
      </trkpt>
      <trkpt lat="49.79253" lon="2.39838">
        <ele>66.3</ele>
        <time>2024-07-24T07:22:38Z</time>
      </trkpt>
      <trkpt lat="49.79252" lon="2.39839">
        <ele>66.4</ele>
        <time>2024-07-24T07:22:39Z</time>
      </trkpt>
      <trkpt lat="49.79251" lon="2.39841">
        <ele>66.4</ele>
        <time>2024-07-24T07:22:40Z</time>
      </trkpt>
      <trkpt lat="49.79251" lon="2.39842">
        <ele>66.4</ele>
        <time>2024-07-24T07:22:41Z</time>
      </trkpt>
      <trkpt lat="49.7925" lon="2.39843">
        <ele>66.4</ele>
        <time>2024-07-24T07:22:42Z</time>
      </trkpt>
      <trkpt lat="49.79249" lon="2.39846">
        <ele>66.5</ele>
        <time>2024-07-24T07:22:43Z</time>
      </trkpt>
      <trkpt lat="49.79248" lon="2.39847">
        <ele>66.5</ele>
        <time>2024-07-24T07:22:44Z</time>
      </trkpt>
      <trkpt lat="49.79248" lon="2.39848">
        <ele>66.5</ele>
        <time>2024-07-24T07:22:45Z</time>
      </trkpt>
      <trkpt lat="49.79247" lon="2.39849">
        <ele>66.5</ele>
        <time>2024-07-24T07:22:46Z</time>
      </trkpt>
      <trkpt lat="49.79246" lon="2.3985">
        <ele>66.5</ele>
        <time>2024-07-24T07:22:47Z</time>
      </trkpt>
      <trkpt lat="49.79246" lon="2.39852">
        <ele>66.6</ele>
        <time>2024-07-24T07:22:48Z</time>
      </trkpt>
      <trkpt lat="49.79245" lon="2.39853">
        <ele>66.6</ele>
        <time>2024-07-24T07:22:49Z</time>
      </trkpt>
      <trkpt lat="49.79244" lon="2.39855">
        <ele>66.6</ele>
        <time>2024-07-24T07:22:50Z</time>
      </trkpt>
      <trkpt lat="49.79243" lon="2.39856">
        <ele>66.6</ele>
        <time>2024-07-24T07:22:51Z</time>
      </trkpt>
      <trkpt lat="49.79242" lon="2.39858">
        <ele>66.7</ele>
        <time>2024-07-24T07:22:52Z</time>
      </trkpt>
      <trkpt lat="49.79242" lon="2.39859">
        <ele>66.7</ele>
        <time>2024-07-24T07:22:53Z</time>
      </trkpt>
      <trkpt lat="49.79241" lon="2.3986">
        <ele>66.7</ele>
        <time>2024-07-24T07:22:54Z</time>
      </trkpt>
      <trkpt lat="49.7924" lon="2.39861">
        <ele>66.7</ele>
        <time>2024-07-24T07:22:55Z</time>
      </trkpt>
      <trkpt lat="49.79239" lon="2.39863">
        <ele>66.7</ele>
        <time>2024-07-24T07:22:56Z</time>
      </trkpt>
      <trkpt lat="49.79238" lon="2.39865">
        <ele>66.8</ele>
        <time>2024-07-24T07:22:57Z</time>
      </trkpt>
      <trkpt lat="49.79238" lon="2.39866">
        <ele>66.8</ele>
        <time>2024-07-24T07:22:58Z</time>
      </trkpt>
      <trkpt lat="49.79237" lon="2.39867">
        <ele>66.8</ele>
        <time>2024-07-24T07:22:59Z</time>
      </trkpt>
      <trkpt lat="49.79236" lon="2.39869">
        <ele>66.8</ele>
        <time>2024-07-24T07:23:00Z</time>
      </trkpt>
      <trkpt lat="49.79236" lon="2.3987">
        <ele>66.8</ele>
        <time>2024-07-24T07:23:01Z</time>
      </trkpt>
      <trkpt lat="49.79235" lon="2.39871">
        <ele>66.8</ele>
        <time>2024-07-24T07:23:02Z</time>
      </trkpt>
      <trkpt lat="49.79234" lon="2.39873">
        <ele>66.9</ele>
        <time>2024-07-24T07:23:03Z</time>
      </trkpt>
      <trkpt lat="49.79233" lon="2.39874">
        <ele>66.9</ele>
        <time>2024-07-24T07:23:04Z</time>
      </trkpt>
      <trkpt lat="49.79233" lon="2.39875">
        <ele>66.9</ele>
        <time>2024-07-24T07:23:05Z</time>
      </trkpt>
      <trkpt lat="49.79232" lon="2.39877">
        <ele>66.9</ele>
        <time>2024-07-24T07:23:06Z</time>
      </trkpt>
      <trkpt lat="49.79231" lon="2.39878">
        <ele>66.9</ele>
        <time>2024-07-24T07:23:07Z</time>
      </trkpt>
      <trkpt lat="49.79231" lon="2.39879">
        <ele>66.9</ele>
        <time>2024-07-24T07:23:08Z</time>
      </trkpt>
      <trkpt lat="49.7923" lon="2.39881">
        <ele>66.9</ele>
        <time>2024-07-24T07:23:09Z</time>
      </trkpt>
      <trkpt lat="49.79229" lon="2.39882">
        <ele>66.9</ele>
        <time>2024-07-24T07:23:10Z</time>
      </trkpt>
      <trkpt lat="49.79229" lon="2.39883">
        <ele>67</ele>
        <time>2024-07-24T07:23:11Z</time>
      </trkpt>
      <trkpt lat="49.79228" lon="2.39885">
        <ele>67</ele>
        <time>2024-07-24T07:23:12Z</time>
      </trkpt>
      <trkpt lat="49.79227" lon="2.39886">
        <ele>67</ele>
        <time>2024-07-24T07:23:13Z</time>
      </trkpt>
      <trkpt lat="49.79227" lon="2.39887">
        <ele>67</ele>
        <time>2024-07-24T07:23:14Z</time>
      </trkpt>
      <trkpt lat="49.79226" lon="2.39889">
        <ele>67</ele>
        <time>2024-07-24T07:23:15Z</time>
      </trkpt>
      <trkpt lat="49.79225" lon="2.3989">
        <ele>67</ele>
        <time>2024-07-24T07:23:16Z</time>
      </trkpt>
      <trkpt lat="49.79224" lon="2.39891">
        <ele>67</ele>
        <time>2024-07-24T07:23:17Z</time>
      </trkpt>
      <trkpt lat="49.79223" lon="2.39894">
        <ele>67</ele>
        <time>2024-07-24T07:23:18Z</time>
      </trkpt>
      <trkpt lat="49.79222" lon="2.39895">
        <ele>67</ele>
        <time>2024-07-24T07:23:19Z</time>
      </trkpt>
      <trkpt lat="49.79222" lon="2.39896">
        <ele>67</ele>
        <time>2024-07-24T07:23:20Z</time>
      </trkpt>
      <trkpt lat="49.79221" lon="2.39897">
        <ele>67</ele>
        <time>2024-07-24T07:23:21Z</time>
      </trkpt>
      <trkpt lat="49.79221" lon="2.39898">
        <ele>67</ele>
        <time>2024-07-24T07:23:22Z</time>
      </trkpt>
      <trkpt lat="49.7922" lon="2.399">
        <ele>67</ele>
        <time>2024-07-24T07:23:23Z</time>
      </trkpt>
      <trkpt lat="49.79219" lon="2.39901">
        <ele>67</ele>
        <time>2024-07-24T07:23:24Z</time>
      </trkpt>
      <trkpt lat="49.79218" lon="2.39903">
        <ele>67</ele>
        <time>2024-07-24T07:23:25Z</time>
      </trkpt>
      <trkpt lat="49.79218" lon="2.39904">
        <ele>67</ele>
        <time>2024-07-24T07:23:26Z</time>
      </trkpt>
      <trkpt lat="49.79217" lon="2.39906">
        <ele>67</ele>
        <time>2024-07-24T07:23:27Z</time>
      </trkpt>
      <trkpt lat="49.79216" lon="2.39907">
        <ele>67</ele>
        <time>2024-07-24T07:23:28Z</time>
      </trkpt>
      <trkpt lat="49.79215" lon="2.39908">
        <ele>67</ele>
        <time>2024-07-24T07:23:29Z</time>
      </trkpt>
      <trkpt lat="49.79214" lon="2.39911">
        <ele>67</ele>
        <time>2024-07-24T07:23:30Z</time>
      </trkpt>
      <trkpt lat="49.79214" lon="2.39912">
        <ele>67</ele>
        <time>2024-07-24T07:23:31Z</time>
      </trkpt>
      <trkpt lat="49.79213" lon="2.39913">
        <ele>67</ele>
        <time>2024-07-24T07:23:32Z</time>
      </trkpt>
      <trkpt lat="49.79212" lon="2.39915">
        <ele>67</ele>
        <time>2024-07-24T07:23:33Z</time>
      </trkpt>
      <trkpt lat="49.79211" lon="2.39917">
        <ele>67</ele>
        <time>2024-07-24T07:23:34Z</time>
      </trkpt>
      <trkpt lat="49.79211" lon="2.39918">
        <ele>67</ele>
        <time>2024-07-24T07:23:35Z</time>
      </trkpt>
      <trkpt lat="49.7921" lon="2.39919">
        <ele>67</ele>
        <time>2024-07-24T07:23:36Z</time>
      </trkpt>
      <trkpt lat="49.7921" lon="2.3992">
        <ele>67</ele>
        <time>2024-07-24T07:23:37Z</time>
      </trkpt>
      <trkpt lat="49.79209" lon="2.39922">
        <ele>67</ele>
        <time>2024-07-24T07:23:38Z</time>
      </trkpt>
      <trkpt lat="49.79208" lon="2.39924">
        <ele>67</ele>
        <time>2024-07-24T07:23:39Z</time>
      </trkpt>
      <trkpt lat="49.79207" lon="2.39926">
        <ele>67</ele>
        <time>2024-07-24T07:23:40Z</time>
      </trkpt>
      <trkpt lat="49.79207" lon="2.39927">
        <ele>66.9</ele>
        <time>2024-07-24T07:23:41Z</time>
      </trkpt>
      <trkpt lat="49.79206" lon="2.39928">
        <ele>66.9</ele>
        <time>2024-07-24T07:23:42Z</time>
      </trkpt>
      <trkpt lat="49.79206" lon="2.39929">
        <ele>66.9</ele>
        <time>2024-07-24T07:23:43Z</time>
      </trkpt>
      <trkpt lat="49.79205" lon="2.39932">
        <ele>66.9</ele>
        <time>2024-07-24T07:23:44Z</time>
      </trkpt>
      <trkpt lat="49.79204" lon="2.39933">
        <ele>66.9</ele>
        <time>2024-07-24T07:23:45Z</time>
      </trkpt>
      <trkpt lat="49.79204" lon="2.39934">
        <ele>66.9</ele>
        <time>2024-07-24T07:23:46Z</time>
      </trkpt>
      <trkpt lat="49.79203" lon="2.39937">
        <ele>66.9</ele>
        <time>2024-07-24T07:23:47Z</time>
      </trkpt>
      <trkpt lat="49.79202" lon="2.39938">
        <ele>66.9</ele>
        <time>2024-07-24T07:23:48Z</time>
      </trkpt>
      <trkpt lat="49.79202" lon="2.39939">
        <ele>66.8</ele>
        <time>2024-07-24T07:23:49Z</time>
      </trkpt>
      <trkpt lat="49.79201" lon="2.39941">
        <ele>66.8</ele>
        <time>2024-07-24T07:23:50Z</time>
      </trkpt>
      <trkpt lat="49.792" lon="2.39942">
        <ele>66.8</ele>
        <time>2024-07-24T07:23:51Z</time>
      </trkpt>
      <trkpt lat="49.792" lon="2.39944">
        <ele>66.8</ele>
        <time>2024-07-24T07:23:52Z</time>
      </trkpt>
      <trkpt lat="49.79199" lon="2.39945">
        <ele>66.8</ele>
        <time>2024-07-24T07:23:53Z</time>
      </trkpt>
      <trkpt lat="49.79199" lon="2.39947">
        <ele>66.8</ele>
        <time>2024-07-24T07:23:54Z</time>
      </trkpt>
      <trkpt lat="49.79198" lon="2.39948">
        <ele>66.8</ele>
        <time>2024-07-24T07:23:55Z</time>
      </trkpt>
      <trkpt lat="49.79198" lon="2.39949">
        <ele>66.8</ele>
        <time>2024-07-24T07:23:56Z</time>
      </trkpt>
      <trkpt lat="49.79197" lon="2.39951">
        <ele>66.7</ele>
        <time>2024-07-24T07:23:57Z</time>
      </trkpt>
      <trkpt lat="49.79196" lon="2.39952">
        <ele>66.7</ele>
        <time>2024-07-24T07:23:58Z</time>
      </trkpt>
      <trkpt lat="49.79196" lon="2.39954">
        <ele>66.7</ele>
        <time>2024-07-24T07:23:59Z</time>
      </trkpt>
      <trkpt lat="49.79195" lon="2.39955">
        <ele>66.7</ele>
        <time>2024-07-24T07:24:00Z</time>
      </trkpt>
      <trkpt lat="49.79194" lon="2.39957">
        <ele>66.7</ele>
        <time>2024-07-24T07:24:01Z</time>
      </trkpt>
      <trkpt lat="49.79194" lon="2.39958">
        <ele>66.7</ele>
        <time>2024-07-24T07:24:02Z</time>
      </trkpt>
      <trkpt lat="49.79193" lon="2.39959">
        <ele>66.7</ele>
        <time>2024-07-24T07:24:03Z</time>
      </trkpt>
      <trkpt lat="49.79192" lon="2.3996">
        <ele>66.7</ele>
        <time>2024-07-24T07:24:04Z</time>
      </trkpt>
      <trkpt lat="49.79192" lon="2.39962">
        <ele>66.6</ele>
        <time>2024-07-24T07:24:05Z</time>
      </trkpt>
      <trkpt lat="49.79191" lon="2.39963">
        <ele>66.6</ele>
        <time>2024-07-24T07:24:06Z</time>
      </trkpt>
      <trkpt lat="49.7919" lon="2.39965">
        <ele>66.6</ele>
        <time>2024-07-24T07:24:07Z</time>
      </trkpt>
      <trkpt lat="49.7919" lon="2.39966">
        <ele>66.6</ele>
        <time>2024-07-24T07:24:08Z</time>
      </trkpt>
      <trkpt lat="49.79189" lon="2.39968">
        <ele>66.6</ele>
        <time>2024-07-24T07:24:09Z</time>
      </trkpt>
      <trkpt lat="49.79188" lon="2.39969">
        <ele>66.6</ele>
        <time>2024-07-24T07:24:10Z</time>
      </trkpt>
      <trkpt lat="49.79188" lon="2.39971">
        <ele>66.6</ele>
        <time>2024-07-24T07:24:11Z</time>
      </trkpt>
      <trkpt lat="49.79187" lon="2.39972">
        <ele>66.6</ele>
        <time>2024-07-24T07:24:12Z</time>
      </trkpt>
      <trkpt lat="49.79187" lon="2.39973">
        <ele>66.5</ele>
        <time>2024-07-24T07:24:13Z</time>
      </trkpt>
      <trkpt lat="49.79185" lon="2.39976">
        <ele>66.5</ele>
        <time>2024-07-24T07:24:14Z</time>
      </trkpt>
      <trkpt lat="49.79185" lon="2.39977">
        <ele>66.5</ele>
        <time>2024-07-24T07:24:15Z</time>
      </trkpt>
      <trkpt lat="49.79184" lon="2.39978">
        <ele>66.5</ele>
        <time>2024-07-24T07:24:16Z</time>
      </trkpt>
      <trkpt lat="49.79184" lon="2.39979">
        <ele>66.5</ele>
        <time>2024-07-24T07:24:17Z</time>
      </trkpt>
      <trkpt lat="49.79183" lon="2.39981">
        <ele>66.5</ele>
        <time>2024-07-24T07:24:18Z</time>
      </trkpt>
      <trkpt lat="49.79182" lon="2.39982">
        <ele>66.4</ele>
        <time>2024-07-24T07:24:19Z</time>
      </trkpt>
      <trkpt lat="49.79182" lon="2.39984">
        <ele>66.4</ele>
        <time>2024-07-24T07:24:20Z</time>
      </trkpt>
      <trkpt lat="49.79181" lon="2.39985">
        <ele>66.4</ele>
        <time>2024-07-24T07:24:21Z</time>
      </trkpt>
      <trkpt lat="49.7918" lon="2.39986">
        <ele>66.4</ele>
        <time>2024-07-24T07:24:22Z</time>
      </trkpt>
      <trkpt lat="49.7918" lon="2.39987">
        <ele>66.4</ele>
        <time>2024-07-24T07:24:23Z</time>
      </trkpt>
      <trkpt lat="49.79179" lon="2.39989">
        <ele>66.4</ele>
        <time>2024-07-24T07:24:24Z</time>
      </trkpt>
      <trkpt lat="49.79179" lon="2.3999">
        <ele>66.3</ele>
        <time>2024-07-24T07:24:25Z</time>
      </trkpt>
      <trkpt lat="49.79178" lon="2.39993">
        <ele>66.3</ele>
        <time>2024-07-24T07:24:26Z</time>
      </trkpt>
      <trkpt lat="49.79177" lon="2.39994">
        <ele>66.3</ele>
        <time>2024-07-24T07:24:27Z</time>
      </trkpt>
      <trkpt lat="49.79177" lon="2.39995">
        <ele>66.3</ele>
        <time>2024-07-24T07:24:28Z</time>
      </trkpt>
      <trkpt lat="49.79177" lon="2.39997">
        <ele>66.3</ele>
        <time>2024-07-24T07:24:29Z</time>
      </trkpt>
      <trkpt lat="49.79176" lon="2.39999">
        <ele>66.3</ele>
        <time>2024-07-24T07:24:30Z</time>
      </trkpt>
      <trkpt lat="49.79176" lon="2.4">
        <ele>66.3</ele>
        <time>2024-07-24T07:24:31Z</time>
      </trkpt>
      <trkpt lat="49.79175" lon="2.40001">
        <ele>66.2</ele>
        <time>2024-07-24T07:24:32Z</time>
      </trkpt>
      <trkpt lat="49.79174" lon="2.40003">
        <ele>66.2</ele>
        <time>2024-07-24T07:24:33Z</time>
      </trkpt>
      <trkpt lat="49.79174" lon="2.40004">
        <ele>66.2</ele>
        <time>2024-07-24T07:24:34Z</time>
      </trkpt>
      <trkpt lat="49.79173" lon="2.40006">
        <ele>66.2</ele>
        <time>2024-07-24T07:24:35Z</time>
      </trkpt>
      <trkpt lat="49.79172" lon="2.40005">
        <ele>66.2</ele>
        <time>2024-07-24T07:24:36Z</time>
      </trkpt>
      <trkpt lat="49.79171" lon="2.40005">
        <ele>66.2</ele>
        <time>2024-07-24T07:24:37Z</time>
      </trkpt>
      <trkpt lat="49.7917" lon="2.40006">
        <ele>66.2</ele>
        <time>2024-07-24T07:24:38Z</time>
      </trkpt>
      <trkpt lat="49.7917" lon="2.40008">
        <ele>66.2</ele>
        <time>2024-07-24T07:24:39Z</time>
      </trkpt>
      <trkpt lat="49.7917" lon="2.4001">
        <ele>66.2</ele>
        <time>2024-07-24T07:24:40Z</time>
      </trkpt>
      <trkpt lat="49.79169" lon="2.40013">
        <ele>66.1</ele>
        <time>2024-07-24T07:24:41Z</time>
      </trkpt>
      <trkpt lat="49.79169" lon="2.40014">
        <ele>66.1</ele>
        <time>2024-07-24T07:24:42Z</time>
      </trkpt>
      <trkpt lat="49.79169" lon="2.40015">
        <ele>66.1</ele>
        <time>2024-07-24T07:24:43Z</time>
      </trkpt>
      <trkpt lat="49.79168" lon="2.40019">
        <ele>66.1</ele>
        <time>2024-07-24T07:24:44Z</time>
      </trkpt>
      <trkpt lat="49.79168" lon="2.4002">
        <ele>66.1</ele>
        <time>2024-07-24T07:24:45Z</time>
      </trkpt>
      <trkpt lat="49.79168" lon="2.40022">
        <ele>66.1</ele>
        <time>2024-07-24T07:24:46Z</time>
      </trkpt>
      <trkpt lat="49.79168" lon="2.40023">
        <ele>66.1</ele>
        <time>2024-07-24T07:24:47Z</time>
      </trkpt>
      <trkpt lat="49.79168" lon="2.40025">
        <ele>66.1</ele>
        <time>2024-07-24T07:24:48Z</time>
      </trkpt>
      <trkpt lat="49.79167" lon="2.40026">
        <ele>66.1</ele>
        <time>2024-07-24T07:24:49Z</time>
      </trkpt>
      <trkpt lat="49.79167" lon="2.40028">
        <ele>66.1</ele>
        <time>2024-07-24T07:24:50Z</time>
      </trkpt>
      <trkpt lat="49.79167" lon="2.4003">
        <ele>66.1</ele>
        <time>2024-07-24T07:24:51Z</time>
      </trkpt>
      <trkpt lat="49.79166" lon="2.40032">
        <ele>66.1</ele>
        <time>2024-07-24T07:24:52Z</time>
      </trkpt>
      <trkpt lat="49.79166" lon="2.40033">
        <ele>66.1</ele>
        <time>2024-07-24T07:24:53Z</time>
      </trkpt>
      <trkpt lat="49.79165" lon="2.40035">
        <ele>66.1</ele>
        <time>2024-07-24T07:24:54Z</time>
      </trkpt>
      <trkpt lat="49.79165" lon="2.40036">
        <ele>66.1</ele>
        <time>2024-07-24T07:24:55Z</time>
      </trkpt>
      <trkpt lat="49.79164" lon="2.40039">
        <ele>66.1</ele>
        <time>2024-07-24T07:24:56Z</time>
      </trkpt>
      <trkpt lat="49.79163" lon="2.4004">
        <ele>66.1</ele>
        <time>2024-07-24T07:24:57Z</time>
      </trkpt>
      <trkpt lat="49.79163" lon="2.40041">
        <ele>66.1</ele>
        <time>2024-07-24T07:24:58Z</time>
      </trkpt>
      <trkpt lat="49.79162" lon="2.40043">
        <ele>66.1</ele>
        <time>2024-07-24T07:24:59Z</time>
      </trkpt>
      <trkpt lat="49.79162" lon="2.40044">
        <ele>66.1</ele>
        <time>2024-07-24T07:25:00Z</time>
      </trkpt>
      <trkpt lat="49.79161" lon="2.40046">
        <ele>66.1</ele>
        <time>2024-07-24T07:25:01Z</time>
      </trkpt>
      <trkpt lat="49.79161" lon="2.40047">
        <ele>66.1</ele>
        <time>2024-07-24T07:25:02Z</time>
      </trkpt>
      <trkpt lat="49.7916" lon="2.40047">
        <ele>66.1</ele>
        <time>2024-07-24T07:25:03Z</time>
      </trkpt>
      <trkpt lat="49.7916" lon="2.40048">
        <ele>66.1</ele>
        <time>2024-07-24T07:25:04Z</time>
      </trkpt>
      <trkpt lat="49.79161" lon="2.40048">
        <ele>66.1</ele>
        <time>2024-07-24T07:25:05Z</time>
      </trkpt>
      <trkpt lat="49.79163" lon="2.40047">
        <ele>66.1</ele>
        <time>2024-07-24T07:25:06Z</time>
      </trkpt>
      <trkpt lat="49.79163" lon="2.40047">
        <ele>66.1</ele>
        <time>2024-07-24T07:25:07Z</time>
      </trkpt>
      <trkpt lat="49.79163" lon="2.40046">
        <ele>66.1</ele>
        <time>2024-07-24T07:25:08Z</time>
      </trkpt>
      <trkpt lat="49.79164" lon="2.40046">
        <ele>66.1</ele>
        <time>2024-07-24T07:25:09Z</time>
      </trkpt>
      <trkpt lat="49.79164" lon="2.40046">
        <ele>66.1</ele>
        <time>2024-07-24T07:25:10Z</time>
      </trkpt>
      <trkpt lat="49.79164" lon="2.40047">
        <ele>66.1</ele>
        <time>2024-07-24T07:25:11Z</time>
      </trkpt>
      <trkpt lat="49.79163" lon="2.40047">
        <ele>66.1</ele>
        <time>2024-07-24T07:25:12Z</time>
      </trkpt>
      <trkpt lat="49.79163" lon="2.40047">
        <ele>66.1</ele>
        <time>2024-07-24T07:25:13Z</time>
      </trkpt>
      <trkpt lat="49.79163" lon="2.40048">
        <ele>66.1</ele>
        <time>2024-07-24T07:25:14Z</time>
      </trkpt>
      <trkpt lat="49.79162" lon="2.40049">
        <ele>66.1</ele>
        <time>2024-07-24T07:25:15Z</time>
      </trkpt>
      <trkpt lat="49.79161" lon="2.40049">
        <ele>66.1</ele>
        <time>2024-07-24T07:25:16Z</time>
      </trkpt>
      <trkpt lat="49.7916" lon="2.4005">
        <ele>66.1</ele>
        <time>2024-07-24T07:25:17Z</time>
      </trkpt>
      <trkpt lat="49.79159" lon="2.40051">
        <ele>66.1</ele>
        <time>2024-07-24T07:25:18Z</time>
      </trkpt>
      <trkpt lat="49.79159" lon="2.40052">
        <ele>66.1</ele>
        <time>2024-07-24T07:25:19Z</time>
      </trkpt>
      <trkpt lat="49.79158" lon="2.40054">
        <ele>66.1</ele>
        <time>2024-07-24T07:25:20Z</time>
      </trkpt>
      <trkpt lat="49.79158" lon="2.40055">
        <ele>66.1</ele>
        <time>2024-07-24T07:25:21Z</time>
      </trkpt>
      <trkpt lat="49.79157" lon="2.40055">
        <ele>66.1</ele>
        <time>2024-07-24T07:25:22Z</time>
      </trkpt>
      <trkpt lat="49.79157" lon="2.40056">
        <ele>66.1</ele>
        <time>2024-07-24T07:25:23Z</time>
      </trkpt>
      <trkpt lat="49.79156" lon="2.40057">
        <ele>66.1</ele>
        <time>2024-07-24T07:25:24Z</time>
      </trkpt>
      <trkpt lat="49.79156" lon="2.40057">
        <ele>66.1</ele>
        <time>2024-07-24T07:25:25Z</time>
      </trkpt>
      <trkpt lat="49.79155" lon="2.40057">
        <ele>66.1</ele>
        <time>2024-07-24T07:25:26Z</time>
      </trkpt>
      <trkpt lat="49.79154" lon="2.40058">
        <ele>66.1</ele>
        <time>2024-07-24T07:25:27Z</time>
      </trkpt>
      <trkpt lat="49.79154" lon="2.40058">
        <ele>66.1</ele>
        <time>2024-07-24T07:25:28Z</time>
      </trkpt>
      <trkpt lat="49.79154" lon="2.40059">
        <ele>66.1</ele>
        <time>2024-07-24T07:25:29Z</time>
      </trkpt>
      <trkpt lat="49.79154" lon="2.40059">
        <ele>66.1</ele>
        <time>2024-07-24T07:25:30Z</time>
      </trkpt>
      <trkpt lat="49.79154" lon="2.40059">
        <ele>66.1</ele>
        <time>2024-07-24T07:25:31Z</time>
      </trkpt>
      <trkpt lat="49.79154" lon="2.40059">
        <ele>66.1</ele>
        <time>2024-07-24T07:25:32Z</time>
      </trkpt>
      <trkpt lat="49.79154" lon="2.40059">
        <ele>66.1</ele>
        <time>2024-07-24T07:25:33Z</time>
      </trkpt>
      <trkpt lat="49.79154" lon="2.40059">
        <ele>66.1</ele>
        <time>2024-07-24T07:25:34Z</time>
      </trkpt>
      <trkpt lat="49.79154" lon="2.40059">
        <ele>66.1</ele>
        <time>2024-07-24T07:25:35Z</time>
      </trkpt>
      <trkpt lat="49.79154" lon="2.40059">
        <ele>66.1</ele>
        <time>2024-07-24T07:25:36Z</time>
      </trkpt>
      <trkpt lat="49.79154" lon="2.40059">
        <ele>66.1</ele>
        <time>2024-07-24T07:25:37Z</time>
      </trkpt>
      <trkpt lat="49.79154" lon="2.40059">
        <ele>66.1</ele>
        <time>2024-07-24T07:25:38Z</time>
      </trkpt>
      <trkpt lat="49.79154" lon="2.40059">
        <ele>66.1</ele>
        <time>2024-07-24T07:25:39Z</time>
      </trkpt>
      <trkpt lat="49.79154" lon="2.40059">
        <ele>66.1</ele>
        <time>2024-07-24T07:25:40Z</time>
      </trkpt>
      <trkpt lat="49.79154" lon="2.40059">
        <ele>66.1</ele>
        <time>2024-07-24T07:25:41Z</time>
      </trkpt>
      <trkpt lat="49.79154" lon="2.40059">
        <ele>66.1</ele>
        <time>2024-07-24T07:25:42Z</time>
      </trkpt>
      <trkpt lat="49.79154" lon="2.40059">
        <ele>66.1</ele>
        <time>2024-07-24T07:25:43Z</time>
      </trkpt>
      <trkpt lat="49.79154" lon="2.40059">
        <ele>66.1</ele>
        <time>2024-07-24T07:25:44Z</time>
      </trkpt>
      <trkpt lat="49.79154" lon="2.40058">
        <ele>66.1</ele>
        <time>2024-07-24T07:25:45Z</time>
      </trkpt>
      <trkpt lat="49.79155" lon="2.40058">
        <ele>66.1</ele>
        <time>2024-07-24T07:25:46Z</time>
      </trkpt>
      <trkpt lat="49.79155" lon="2.40058">
        <ele>66.1</ele>
        <time>2024-07-24T07:25:47Z</time>
      </trkpt>
      <trkpt lat="49.79155" lon="2.40058">
        <ele>66.1</ele>
        <time>2024-07-24T07:25:48Z</time>
      </trkpt>
      <trkpt lat="49.79155" lon="2.40058">
        <ele>66.1</ele>
        <time>2024-07-24T07:25:49Z</time>
      </trkpt>
      <trkpt lat="49.79155" lon="2.40058">
        <ele>66.1</ele>
        <time>2024-07-24T07:25:50Z</time>
      </trkpt>
      <trkpt lat="49.79154" lon="2.40058">
        <ele>66.1</ele>
        <time>2024-07-24T07:25:51Z</time>
      </trkpt>
      <trkpt lat="49.79154" lon="2.40059">
        <ele>66.1</ele>
        <time>2024-07-24T07:25:52Z</time>
      </trkpt>
      <trkpt lat="49.79154" lon="2.40059">
        <ele>66.1</ele>
        <time>2024-07-24T07:25:53Z</time>
      </trkpt>
      <trkpt lat="49.79154" lon="2.4006">
        <ele>66.1</ele>
        <time>2024-07-24T07:25:54Z</time>
      </trkpt>
      <trkpt lat="49.79154" lon="2.40061">
        <ele>66.2</ele>
        <time>2024-07-24T07:25:55Z</time>
      </trkpt>
      <trkpt lat="49.79154" lon="2.40061">
        <ele>66.2</ele>
        <time>2024-07-24T07:25:56Z</time>
      </trkpt>
      <trkpt lat="49.79154" lon="2.40062">
        <ele>66.2</ele>
        <time>2024-07-24T07:25:57Z</time>
      </trkpt>
      <trkpt lat="49.79154" lon="2.40063">
        <ele>66.2</ele>
        <time>2024-07-24T07:25:58Z</time>
      </trkpt>
      <trkpt lat="49.79155" lon="2.40064">
        <ele>66.2</ele>
        <time>2024-07-24T07:25:59Z</time>
      </trkpt>
      <trkpt lat="49.79154" lon="2.40065">
        <ele>66.2</ele>
        <time>2024-07-24T07:26:00Z</time>
      </trkpt>
      <trkpt lat="49.79154" lon="2.40066">
        <ele>66.2</ele>
        <time>2024-07-24T07:26:01Z</time>
      </trkpt>
      <trkpt lat="49.79154" lon="2.40068">
        <ele>66.2</ele>
        <time>2024-07-24T07:26:02Z</time>
      </trkpt>
      <trkpt lat="49.79154" lon="2.40068">
        <ele>66.2</ele>
        <time>2024-07-24T07:26:03Z</time>
      </trkpt>
      <trkpt lat="49.79154" lon="2.4007">
        <ele>66.2</ele>
        <time>2024-07-24T07:26:04Z</time>
      </trkpt>
      <trkpt lat="49.79153" lon="2.40071">
        <ele>66.2</ele>
        <time>2024-07-24T07:26:05Z</time>
      </trkpt>
      <trkpt lat="49.79153" lon="2.40072">
        <ele>66.2</ele>
        <time>2024-07-24T07:26:06Z</time>
      </trkpt>
      <trkpt lat="49.79152" lon="2.40073">
        <ele>66.2</ele>
        <time>2024-07-24T07:26:07Z</time>
      </trkpt>
      <trkpt lat="49.79152" lon="2.40075">
        <ele>66.2</ele>
        <time>2024-07-24T07:26:08Z</time>
      </trkpt>
      <trkpt lat="49.79151" lon="2.40077">
        <ele>66.2</ele>
        <time>2024-07-24T07:26:09Z</time>
      </trkpt>
      <trkpt lat="49.79151" lon="2.40078">
        <ele>66.2</ele>
        <time>2024-07-24T07:26:10Z</time>
      </trkpt>
      <trkpt lat="49.79151" lon="2.40079">
        <ele>66.2</ele>
        <time>2024-07-24T07:26:11Z</time>
      </trkpt>
      <trkpt lat="49.7915" lon="2.40082">
        <ele>66.2</ele>
        <time>2024-07-24T07:26:12Z</time>
      </trkpt>
      <trkpt lat="49.7915" lon="2.40084">
        <ele>66.3</ele>
        <time>2024-07-24T07:26:13Z</time>
      </trkpt>
      <trkpt lat="49.7915" lon="2.40085">
        <ele>66.3</ele>
        <time>2024-07-24T07:26:14Z</time>
      </trkpt>
      <trkpt lat="49.79149" lon="2.40086">
        <ele>66.3</ele>
        <time>2024-07-24T07:26:15Z</time>
      </trkpt>
      <trkpt lat="49.79149" lon="2.40088">
        <ele>66.3</ele>
        <time>2024-07-24T07:26:16Z</time>
      </trkpt>
      <trkpt lat="49.79149" lon="2.40089">
        <ele>66.3</ele>
        <time>2024-07-24T07:26:17Z</time>
      </trkpt>
      <trkpt lat="49.79148" lon="2.40091">
        <ele>66.3</ele>
        <time>2024-07-24T07:26:18Z</time>
      </trkpt>
      <trkpt lat="49.79148" lon="2.40093">
        <ele>66.3</ele>
        <time>2024-07-24T07:26:19Z</time>
      </trkpt>
      <trkpt lat="49.79148" lon="2.40095">
        <ele>66.3</ele>
        <time>2024-07-24T07:26:20Z</time>
      </trkpt>
      <trkpt lat="49.79148" lon="2.40097">
        <ele>66.3</ele>
        <time>2024-07-24T07:26:21Z</time>
      </trkpt>
      <trkpt lat="49.79148" lon="2.40098">
        <ele>66.3</ele>
        <time>2024-07-24T07:26:22Z</time>
      </trkpt>
      <trkpt lat="49.79148" lon="2.401">
        <ele>66.4</ele>
        <time>2024-07-24T07:26:23Z</time>
      </trkpt>
      <trkpt lat="49.79148" lon="2.40101">
        <ele>66.4</ele>
        <time>2024-07-24T07:26:24Z</time>
      </trkpt>
      <trkpt lat="49.79147" lon="2.40103">
        <ele>66.4</ele>
        <time>2024-07-24T07:26:25Z</time>
      </trkpt>
      <trkpt lat="49.79147" lon="2.40105">
        <ele>66.4</ele>
        <time>2024-07-24T07:26:26Z</time>
      </trkpt>
      <trkpt lat="49.79147" lon="2.40106">
        <ele>66.4</ele>
        <time>2024-07-24T07:26:27Z</time>
      </trkpt>
      <trkpt lat="49.79147" lon="2.40108">
        <ele>66.4</ele>
        <time>2024-07-24T07:26:28Z</time>
      </trkpt>
      <trkpt lat="49.79147" lon="2.40109">
        <ele>66.5</ele>
        <time>2024-07-24T07:26:29Z</time>
      </trkpt>
      <trkpt lat="49.79146" lon="2.40111">
        <ele>66.5</ele>
        <time>2024-07-24T07:26:30Z</time>
      </trkpt>
      <trkpt lat="49.79146" lon="2.40112">
        <ele>66.5</ele>
        <time>2024-07-24T07:26:31Z</time>
      </trkpt>
      <trkpt lat="49.79146" lon="2.40114">
        <ele>66.5</ele>
        <time>2024-07-24T07:26:32Z</time>
      </trkpt>
      <trkpt lat="49.79146" lon="2.40115">
        <ele>66.5</ele>
        <time>2024-07-24T07:26:33Z</time>
      </trkpt>
      <trkpt lat="49.79146" lon="2.40116">
        <ele>66.5</ele>
        <time>2024-07-24T07:26:34Z</time>
      </trkpt>
      <trkpt lat="49.79146" lon="2.40118">
        <ele>66.5</ele>
        <time>2024-07-24T07:26:35Z</time>
      </trkpt>
      <trkpt lat="49.79145" lon="2.40119">
        <ele>66.6</ele>
        <time>2024-07-24T07:26:36Z</time>
      </trkpt>
      <trkpt lat="49.79145" lon="2.4012">
        <ele>66.6</ele>
        <time>2024-07-24T07:26:37Z</time>
      </trkpt>
      <trkpt lat="49.79145" lon="2.40122">
        <ele>66.6</ele>
        <time>2024-07-24T07:26:38Z</time>
      </trkpt>
      <trkpt lat="49.79145" lon="2.40124">
        <ele>66.6</ele>
        <time>2024-07-24T07:26:39Z</time>
      </trkpt>
      <trkpt lat="49.79145" lon="2.40125">
        <ele>66.6</ele>
        <time>2024-07-24T07:26:40Z</time>
      </trkpt>
      <trkpt lat="49.79145" lon="2.40126">
        <ele>66.6</ele>
        <time>2024-07-24T07:26:41Z</time>
      </trkpt>
      <trkpt lat="49.79145" lon="2.40128">
        <ele>66.6</ele>
        <time>2024-07-24T07:26:42Z</time>
      </trkpt>
      <trkpt lat="49.79145" lon="2.4013">
        <ele>66.7</ele>
        <time>2024-07-24T07:26:43Z</time>
      </trkpt>
      <trkpt lat="49.79145" lon="2.40131">
        <ele>66.7</ele>
        <time>2024-07-24T07:26:44Z</time>
      </trkpt>
      <trkpt lat="49.79145" lon="2.40133">
        <ele>66.7</ele>
        <time>2024-07-24T07:26:45Z</time>
      </trkpt>
      <trkpt lat="49.79144" lon="2.40135">
        <ele>66.7</ele>
        <time>2024-07-24T07:26:46Z</time>
      </trkpt>
      <trkpt lat="49.79144" lon="2.40136">
        <ele>66.7</ele>
        <time>2024-07-24T07:26:47Z</time>
      </trkpt>
      <trkpt lat="49.79144" lon="2.40138">
        <ele>66.8</ele>
        <time>2024-07-24T07:26:48Z</time>
      </trkpt>
      <trkpt lat="49.79144" lon="2.40139">
        <ele>66.8</ele>
        <time>2024-07-24T07:26:49Z</time>
      </trkpt>
      <trkpt lat="49.79143" lon="2.40142">
        <ele>66.8</ele>
        <time>2024-07-24T07:26:50Z</time>
      </trkpt>
      <trkpt lat="49.79143" lon="2.40143">
        <ele>66.8</ele>
        <time>2024-07-24T07:26:51Z</time>
      </trkpt>
      <trkpt lat="49.79143" lon="2.40145">
        <ele>66.8</ele>
        <time>2024-07-24T07:26:52Z</time>
      </trkpt>
      <trkpt lat="49.79142" lon="2.40146">
        <ele>66.8</ele>
        <time>2024-07-24T07:26:53Z</time>
      </trkpt>
      <trkpt lat="49.79142" lon="2.40148">
        <ele>66.9</ele>
        <time>2024-07-24T07:26:54Z</time>
      </trkpt>
      <trkpt lat="49.79142" lon="2.4015">
        <ele>66.9</ele>
        <time>2024-07-24T07:26:55Z</time>
      </trkpt>
      <trkpt lat="49.79142" lon="2.40151">
        <ele>66.9</ele>
        <time>2024-07-24T07:26:56Z</time>
      </trkpt>
      <trkpt lat="49.79141" lon="2.40153">
        <ele>66.9</ele>
        <time>2024-07-24T07:26:57Z</time>
      </trkpt>
      <trkpt lat="49.79141" lon="2.40155">
        <ele>66.9</ele>
        <time>2024-07-24T07:26:58Z</time>
      </trkpt>
      <trkpt lat="49.79141" lon="2.40157">
        <ele>66.9</ele>
        <time>2024-07-24T07:26:59Z</time>
      </trkpt>
      <trkpt lat="49.79141" lon="2.40158">
        <ele>67</ele>
        <time>2024-07-24T07:27:00Z</time>
      </trkpt>
      <trkpt lat="49.7914" lon="2.4016">
        <ele>67</ele>
        <time>2024-07-24T07:27:01Z</time>
      </trkpt>
      <trkpt lat="49.7914" lon="2.40161">
        <ele>67</ele>
        <time>2024-07-24T07:27:02Z</time>
      </trkpt>
      <trkpt lat="49.7914" lon="2.40163">
        <ele>67</ele>
        <time>2024-07-24T07:27:03Z</time>
      </trkpt>
      <trkpt lat="49.7914" lon="2.40165">
        <ele>67</ele>
        <time>2024-07-24T07:27:04Z</time>
      </trkpt>
      <trkpt lat="49.7914" lon="2.40166">
        <ele>67</ele>
        <time>2024-07-24T07:27:05Z</time>
      </trkpt>
      <trkpt lat="49.79139" lon="2.40168">
        <ele>67</ele>
        <time>2024-07-24T07:27:06Z</time>
      </trkpt>
      <trkpt lat="49.79139" lon="2.40169">
        <ele>67.1</ele>
        <time>2024-07-24T07:27:07Z</time>
      </trkpt>
      <trkpt lat="49.79139" lon="2.4017">
        <ele>67.1</ele>
        <time>2024-07-24T07:27:08Z</time>
      </trkpt>
      <trkpt lat="49.79139" lon="2.40172">
        <ele>67.1</ele>
        <time>2024-07-24T07:27:09Z</time>
      </trkpt>
      <trkpt lat="49.79139" lon="2.40174">
        <ele>67.1</ele>
        <time>2024-07-24T07:27:10Z</time>
      </trkpt>
      <trkpt lat="49.79138" lon="2.40175">
        <ele>67.1</ele>
        <time>2024-07-24T07:27:11Z</time>
      </trkpt>
      <trkpt lat="49.79138" lon="2.40177">
        <ele>67.1</ele>
        <time>2024-07-24T07:27:12Z</time>
      </trkpt>
      <trkpt lat="49.79138" lon="2.40179">
        <ele>67.2</ele>
        <time>2024-07-24T07:27:13Z</time>
      </trkpt>
      <trkpt lat="49.79138" lon="2.4018">
        <ele>67.2</ele>
        <time>2024-07-24T07:27:14Z</time>
      </trkpt>
      <trkpt lat="49.79138" lon="2.40182">
        <ele>67.2</ele>
        <time>2024-07-24T07:27:15Z</time>
      </trkpt>
      <trkpt lat="49.79137" lon="2.40183">
        <ele>67.2</ele>
        <time>2024-07-24T07:27:16Z</time>
      </trkpt>
      <trkpt lat="49.79137" lon="2.40185">
        <ele>67.2</ele>
        <time>2024-07-24T07:27:17Z</time>
      </trkpt>
      <trkpt lat="49.79137" lon="2.40187">
        <ele>67.3</ele>
        <time>2024-07-24T07:27:18Z</time>
      </trkpt>
      <trkpt lat="49.79137" lon="2.40188">
        <ele>67.3</ele>
        <time>2024-07-24T07:27:19Z</time>
      </trkpt>
      <trkpt lat="49.79137" lon="2.4019">
        <ele>67.3</ele>
        <time>2024-07-24T07:27:20Z</time>
      </trkpt>
      <trkpt lat="49.79136" lon="2.40192">
        <ele>67.3</ele>
        <time>2024-07-24T07:27:21Z</time>
      </trkpt>
      <trkpt lat="49.79136" lon="2.40193">
        <ele>67.4</ele>
        <time>2024-07-24T07:27:22Z</time>
      </trkpt>
      <trkpt lat="49.79136" lon="2.40195">
        <ele>67.4</ele>
        <time>2024-07-24T07:27:23Z</time>
      </trkpt>
      <trkpt lat="49.79136" lon="2.40196">
        <ele>67.4</ele>
        <time>2024-07-24T07:27:24Z</time>
      </trkpt>
      <trkpt lat="49.79136" lon="2.40199">
        <ele>67.5</ele>
        <time>2024-07-24T07:27:25Z</time>
      </trkpt>
      <trkpt lat="49.79136" lon="2.402">
        <ele>67.5</ele>
        <time>2024-07-24T07:27:26Z</time>
      </trkpt>
      <trkpt lat="49.79136" lon="2.40202">
        <ele>67.5</ele>
        <time>2024-07-24T07:27:27Z</time>
      </trkpt>
      <trkpt lat="49.79136" lon="2.40203">
        <ele>67.6</ele>
        <time>2024-07-24T07:27:28Z</time>
      </trkpt>
      <trkpt lat="49.79135" lon="2.40205">
        <ele>67.6</ele>
        <time>2024-07-24T07:27:29Z</time>
      </trkpt>
      <trkpt lat="49.79135" lon="2.40207">
        <ele>67.7</ele>
        <time>2024-07-24T07:27:30Z</time>
      </trkpt>
      <trkpt lat="49.79135" lon="2.40208">
        <ele>67.7</ele>
        <time>2024-07-24T07:27:31Z</time>
      </trkpt>
      <trkpt lat="49.79135" lon="2.4021">
        <ele>67.7</ele>
        <time>2024-07-24T07:27:32Z</time>
      </trkpt>
      <trkpt lat="49.79135" lon="2.40211">
        <ele>67.7</ele>
        <time>2024-07-24T07:27:33Z</time>
      </trkpt>
      <trkpt lat="49.79135" lon="2.40213">
        <ele>67.8</ele>
        <time>2024-07-24T07:27:34Z</time>
      </trkpt>
      <trkpt lat="49.79135" lon="2.40215">
        <ele>67.8</ele>
        <time>2024-07-24T07:27:35Z</time>
      </trkpt>
      <trkpt lat="49.79135" lon="2.40216">
        <ele>67.9</ele>
        <time>2024-07-24T07:27:36Z</time>
      </trkpt>
      <trkpt lat="49.79135" lon="2.40218">
        <ele>67.9</ele>
        <time>2024-07-24T07:27:37Z</time>
      </trkpt>
      <trkpt lat="49.79134" lon="2.40219">
        <ele>68</ele>
        <time>2024-07-24T07:27:38Z</time>
      </trkpt>
      <trkpt lat="49.79134" lon="2.40221">
        <ele>68</ele>
        <time>2024-07-24T07:27:39Z</time>
      </trkpt>
      <trkpt lat="49.79134" lon="2.40223">
        <ele>68.1</ele>
        <time>2024-07-24T07:27:40Z</time>
      </trkpt>
      <trkpt lat="49.79134" lon="2.40224">
        <ele>68.1</ele>
        <time>2024-07-24T07:27:41Z</time>
      </trkpt>
      <trkpt lat="49.79134" lon="2.40226">
        <ele>68.2</ele>
        <time>2024-07-24T07:27:42Z</time>
      </trkpt>
      <trkpt lat="49.79134" lon="2.40228">
        <ele>68.2</ele>
        <time>2024-07-24T07:27:43Z</time>
      </trkpt>
      <trkpt lat="49.79134" lon="2.4023">
        <ele>68.3</ele>
        <time>2024-07-24T07:27:44Z</time>
      </trkpt>
      <trkpt lat="49.79134" lon="2.40232">
        <ele>68.3</ele>
        <time>2024-07-24T07:27:45Z</time>
      </trkpt>
      <trkpt lat="49.79134" lon="2.40233">
        <ele>68.4</ele>
        <time>2024-07-24T07:27:46Z</time>
      </trkpt>
      <trkpt lat="49.79135" lon="2.40235">
        <ele>68.4</ele>
        <time>2024-07-24T07:27:47Z</time>
      </trkpt>
      <trkpt lat="49.79135" lon="2.40236">
        <ele>68.5</ele>
        <time>2024-07-24T07:27:48Z</time>
      </trkpt>
      <trkpt lat="49.79135" lon="2.40238">
        <ele>68.6</ele>
        <time>2024-07-24T07:27:49Z</time>
      </trkpt>
      <trkpt lat="49.79135" lon="2.4024">
        <ele>68.6</ele>
        <time>2024-07-24T07:27:50Z</time>
      </trkpt>
      <trkpt lat="49.79135" lon="2.40241">
        <ele>68.7</ele>
        <time>2024-07-24T07:27:51Z</time>
      </trkpt>
      <trkpt lat="49.79135" lon="2.40242">
        <ele>68.7</ele>
        <time>2024-07-24T07:27:52Z</time>
      </trkpt>
      <trkpt lat="49.79135" lon="2.40244">
        <ele>68.8</ele>
        <time>2024-07-24T07:27:53Z</time>
      </trkpt>
      <trkpt lat="49.79136" lon="2.40246">
        <ele>68.8</ele>
        <time>2024-07-24T07:27:54Z</time>
      </trkpt>
      <trkpt lat="49.79136" lon="2.40247">
        <ele>68.9</ele>
        <time>2024-07-24T07:27:55Z</time>
      </trkpt>
      <trkpt lat="49.79136" lon="2.40248">
        <ele>68.9</ele>
        <time>2024-07-24T07:27:56Z</time>
      </trkpt>
      <trkpt lat="49.79136" lon="2.4025">
        <ele>69</ele>
        <time>2024-07-24T07:27:57Z</time>
      </trkpt>
      <trkpt lat="49.79137" lon="2.40251">
        <ele>69</ele>
        <time>2024-07-24T07:27:58Z</time>
      </trkpt>
      <trkpt lat="49.79137" lon="2.40252">
        <ele>69.1</ele>
        <time>2024-07-24T07:27:59Z</time>
      </trkpt>
      <trkpt lat="49.79137" lon="2.40253">
        <ele>69.1</ele>
        <time>2024-07-24T07:28:00Z</time>
      </trkpt>
      <trkpt lat="49.79138" lon="2.40255">
        <ele>69.2</ele>
        <time>2024-07-24T07:28:01Z</time>
      </trkpt>
      <trkpt lat="49.79138" lon="2.40256">
        <ele>69.2</ele>
        <time>2024-07-24T07:28:02Z</time>
      </trkpt>
      <trkpt lat="49.79139" lon="2.40258">
        <ele>69.3</ele>
        <time>2024-07-24T07:28:03Z</time>
      </trkpt>
      <trkpt lat="49.79139" lon="2.40259">
        <ele>69.4</ele>
        <time>2024-07-24T07:28:04Z</time>
      </trkpt>
      <trkpt lat="49.7914" lon="2.4026">
        <ele>69.4</ele>
        <time>2024-07-24T07:28:05Z</time>
      </trkpt>
      <trkpt lat="49.7914" lon="2.40262">
        <ele>69.5</ele>
        <time>2024-07-24T07:28:06Z</time>
      </trkpt>
      <trkpt lat="49.79141" lon="2.40263">
        <ele>69.5</ele>
        <time>2024-07-24T07:28:07Z</time>
      </trkpt>
      <trkpt lat="49.79141" lon="2.40264">
        <ele>69.6</ele>
        <time>2024-07-24T07:28:08Z</time>
      </trkpt>
      <trkpt lat="49.79142" lon="2.40266">
        <ele>69.6</ele>
        <time>2024-07-24T07:28:09Z</time>
      </trkpt>
      <trkpt lat="49.79142" lon="2.40267">
        <ele>69.7</ele>
        <time>2024-07-24T07:28:10Z</time>
      </trkpt>
      <trkpt lat="49.79143" lon="2.40269">
        <ele>69.8</ele>
        <time>2024-07-24T07:28:11Z</time>
      </trkpt>
      <trkpt lat="49.79143" lon="2.4027">
        <ele>69.8</ele>
        <time>2024-07-24T07:28:12Z</time>
      </trkpt>
      <trkpt lat="49.79144" lon="2.40271">
        <ele>69.9</ele>
        <time>2024-07-24T07:28:13Z</time>
      </trkpt>
      <trkpt lat="49.79144" lon="2.40273">
        <ele>69.9</ele>
        <time>2024-07-24T07:28:14Z</time>
      </trkpt>
      <trkpt lat="49.79145" lon="2.40274">
        <ele>70</ele>
        <time>2024-07-24T07:28:15Z</time>
      </trkpt>
      <trkpt lat="49.79146" lon="2.40275">
        <ele>70</ele>
        <time>2024-07-24T07:28:16Z</time>
      </trkpt>
      <trkpt lat="49.79146" lon="2.40276">
        <ele>70.1</ele>
        <time>2024-07-24T07:28:17Z</time>
      </trkpt>
      <trkpt lat="49.79147" lon="2.40277">
        <ele>70.1</ele>
        <time>2024-07-24T07:28:18Z</time>
      </trkpt>
      <trkpt lat="49.79148" lon="2.40278">
        <ele>70.2</ele>
        <time>2024-07-24T07:28:19Z</time>
      </trkpt>
      <trkpt lat="49.79149" lon="2.40279">
        <ele>70.3</ele>
        <time>2024-07-24T07:28:20Z</time>
      </trkpt>
      <trkpt lat="49.79149" lon="2.4028">
        <ele>70.3</ele>
        <time>2024-07-24T07:28:21Z</time>
      </trkpt>
      <trkpt lat="49.7915" lon="2.40281">
        <ele>70.4</ele>
        <time>2024-07-24T07:28:22Z</time>
      </trkpt>
      <trkpt lat="49.79151" lon="2.40282">
        <ele>70.4</ele>
        <time>2024-07-24T07:28:23Z</time>
      </trkpt>
      <trkpt lat="49.79151" lon="2.40282">
        <ele>70.5</ele>
        <time>2024-07-24T07:28:24Z</time>
      </trkpt>
      <trkpt lat="49.79152" lon="2.40283">
        <ele>70.5</ele>
        <time>2024-07-24T07:28:25Z</time>
      </trkpt>
      <trkpt lat="49.79153" lon="2.40285">
        <ele>70.6</ele>
        <time>2024-07-24T07:28:26Z</time>
      </trkpt>
      <trkpt lat="49.79153" lon="2.40285">
        <ele>70.6</ele>
        <time>2024-07-24T07:28:27Z</time>
      </trkpt>
      <trkpt lat="49.79154" lon="2.40286">
        <ele>70.7</ele>
        <time>2024-07-24T07:28:28Z</time>
      </trkpt>
      <trkpt lat="49.79154" lon="2.40287">
        <ele>70.7</ele>
        <time>2024-07-24T07:28:29Z</time>
      </trkpt>
      <trkpt lat="49.79155" lon="2.40288">
        <ele>70.7</ele>
        <time>2024-07-24T07:28:30Z</time>
      </trkpt>
      <trkpt lat="49.79155" lon="2.40289">
        <ele>70.8</ele>
        <time>2024-07-24T07:28:31Z</time>
      </trkpt>
      <trkpt lat="49.79156" lon="2.4029">
        <ele>70.8</ele>
        <time>2024-07-24T07:28:32Z</time>
      </trkpt>
      <trkpt lat="49.79156" lon="2.40291">
        <ele>70.9</ele>
        <time>2024-07-24T07:28:33Z</time>
      </trkpt>
      <trkpt lat="49.79157" lon="2.40291">
        <ele>70.9</ele>
        <time>2024-07-24T07:28:34Z</time>
      </trkpt>
      <trkpt lat="49.79157" lon="2.40293">
        <ele>71</ele>
        <time>2024-07-24T07:28:35Z</time>
      </trkpt>
      <trkpt lat="49.79158" lon="2.40294">
        <ele>71.1</ele>
        <time>2024-07-24T07:28:36Z</time>
      </trkpt>
      <trkpt lat="49.79159" lon="2.40295">
        <ele>71.1</ele>
        <time>2024-07-24T07:28:37Z</time>
      </trkpt>
      <trkpt lat="49.79159" lon="2.40296">
        <ele>71.2</ele>
        <time>2024-07-24T07:28:38Z</time>
      </trkpt>
      <trkpt lat="49.7916" lon="2.40297">
        <ele>71.2</ele>
        <time>2024-07-24T07:28:39Z</time>
      </trkpt>
      <trkpt lat="49.7916" lon="2.40298">
        <ele>71.3</ele>
        <time>2024-07-24T07:28:40Z</time>
      </trkpt>
      <trkpt lat="49.79161" lon="2.40299">
        <ele>71.4</ele>
        <time>2024-07-24T07:28:41Z</time>
      </trkpt>
      <trkpt lat="49.79162" lon="2.403">
        <ele>71.4</ele>
        <time>2024-07-24T07:28:42Z</time>
      </trkpt>
      <trkpt lat="49.79163" lon="2.40301">
        <ele>71.5</ele>
        <time>2024-07-24T07:28:43Z</time>
      </trkpt>
      <trkpt lat="49.79164" lon="2.40303">
        <ele>71.6</ele>
        <time>2024-07-24T07:28:44Z</time>
      </trkpt>
      <trkpt lat="49.79165" lon="2.40304">
        <ele>71.6</ele>
        <time>2024-07-24T07:28:45Z</time>
      </trkpt>
      <trkpt lat="49.79165" lon="2.40305">
        <ele>71.7</ele>
        <time>2024-07-24T07:28:46Z</time>
      </trkpt>
      <trkpt lat="49.79166" lon="2.40305">
        <ele>71.8</ele>
        <time>2024-07-24T07:28:47Z</time>
      </trkpt>
      <trkpt lat="49.79167" lon="2.40306">
        <ele>71.8</ele>
        <time>2024-07-24T07:28:48Z</time>
      </trkpt>
      <trkpt lat="49.79167" lon="2.40307">
        <ele>71.9</ele>
        <time>2024-07-24T07:28:49Z</time>
      </trkpt>
      <trkpt lat="49.79168" lon="2.40308">
        <ele>72</ele>
        <time>2024-07-24T07:28:50Z</time>
      </trkpt>
      <trkpt lat="49.79169" lon="2.40309">
        <ele>72</ele>
        <time>2024-07-24T07:28:51Z</time>
      </trkpt>
      <trkpt lat="49.7917" lon="2.4031">
        <ele>72.1</ele>
        <time>2024-07-24T07:28:52Z</time>
      </trkpt>
      <trkpt lat="49.7917" lon="2.40311">
        <ele>72.2</ele>
        <time>2024-07-24T07:28:53Z</time>
      </trkpt>
      <trkpt lat="49.79171" lon="2.40312">
        <ele>72.2</ele>
        <time>2024-07-24T07:28:54Z</time>
      </trkpt>
      <trkpt lat="49.79172" lon="2.40313">
        <ele>72.3</ele>
        <time>2024-07-24T07:28:55Z</time>
      </trkpt>
      <trkpt lat="49.79172" lon="2.40314">
        <ele>72.3</ele>
        <time>2024-07-24T07:28:56Z</time>
      </trkpt>
      <trkpt lat="49.79173" lon="2.40314">
        <ele>72.4</ele>
        <time>2024-07-24T07:28:57Z</time>
      </trkpt>
      <trkpt lat="49.79174" lon="2.40315">
        <ele>72.4</ele>
        <time>2024-07-24T07:28:58Z</time>
      </trkpt>
      <trkpt lat="49.79174" lon="2.40316">
        <ele>72.5</ele>
        <time>2024-07-24T07:28:59Z</time>
      </trkpt>
      <trkpt lat="49.79175" lon="2.40317">
        <ele>72.6</ele>
        <time>2024-07-24T07:29:00Z</time>
      </trkpt>
      <trkpt lat="49.79176" lon="2.40318">
        <ele>72.6</ele>
        <time>2024-07-24T07:29:01Z</time>
      </trkpt>
      <trkpt lat="49.79176" lon="2.40319">
        <ele>72.7</ele>
        <time>2024-07-24T07:29:02Z</time>
      </trkpt>
      <trkpt lat="49.79177" lon="2.4032">
        <ele>72.7</ele>
        <time>2024-07-24T07:29:03Z</time>
      </trkpt>
      <trkpt lat="49.79178" lon="2.40322">
        <ele>72.9</ele>
        <time>2024-07-24T07:29:04Z</time>
      </trkpt>
      <trkpt lat="49.79178" lon="2.40323">
        <ele>72.9</ele>
        <time>2024-07-24T07:29:05Z</time>
      </trkpt>
      <trkpt lat="49.79179" lon="2.40323">
        <ele>73</ele>
        <time>2024-07-24T07:29:06Z</time>
      </trkpt>
      <trkpt lat="49.79179" lon="2.40324">
        <ele>73</ele>
        <time>2024-07-24T07:29:07Z</time>
      </trkpt>
      <trkpt lat="49.7918" lon="2.40325">
        <ele>73.1</ele>
        <time>2024-07-24T07:29:08Z</time>
      </trkpt>
      <trkpt lat="49.79181" lon="2.40326">
        <ele>73.1</ele>
        <time>2024-07-24T07:29:09Z</time>
      </trkpt>
      <trkpt lat="49.79181" lon="2.40327">
        <ele>73.2</ele>
        <time>2024-07-24T07:29:10Z</time>
      </trkpt>
      <trkpt lat="49.79182" lon="2.40328">
        <ele>73.2</ele>
        <time>2024-07-24T07:29:11Z</time>
      </trkpt>
      <trkpt lat="49.79183" lon="2.40329">
        <ele>73.3</ele>
        <time>2024-07-24T07:29:12Z</time>
      </trkpt>
      <trkpt lat="49.79183" lon="2.40331">
        <ele>73.4</ele>
        <time>2024-07-24T07:29:13Z</time>
      </trkpt>
      <trkpt lat="49.79184" lon="2.40332">
        <ele>73.4</ele>
        <time>2024-07-24T07:29:14Z</time>
      </trkpt>
      <trkpt lat="49.79184" lon="2.40333">
        <ele>73.5</ele>
        <time>2024-07-24T07:29:15Z</time>
      </trkpt>
      <trkpt lat="49.79185" lon="2.40334">
        <ele>73.6</ele>
        <time>2024-07-24T07:29:16Z</time>
      </trkpt>
      <trkpt lat="49.79186" lon="2.40335">
        <ele>73.6</ele>
        <time>2024-07-24T07:29:17Z</time>
      </trkpt>
      <trkpt lat="49.79186" lon="2.40336">
        <ele>73.7</ele>
        <time>2024-07-24T07:29:18Z</time>
      </trkpt>
      <trkpt lat="49.79187" lon="2.40338">
        <ele>73.8</ele>
        <time>2024-07-24T07:29:19Z</time>
      </trkpt>
      <trkpt lat="49.79187" lon="2.40339">
        <ele>73.8</ele>
        <time>2024-07-24T07:29:20Z</time>
      </trkpt>
      <trkpt lat="49.79188" lon="2.4034">
        <ele>73.9</ele>
        <time>2024-07-24T07:29:21Z</time>
      </trkpt>
      <trkpt lat="49.79189" lon="2.40341">
        <ele>74</ele>
        <time>2024-07-24T07:29:22Z</time>
      </trkpt>
      <trkpt lat="49.79189" lon="2.40342">
        <ele>74</ele>
        <time>2024-07-24T07:29:23Z</time>
      </trkpt>
      <trkpt lat="49.7919" lon="2.40343">
        <ele>74.1</ele>
        <time>2024-07-24T07:29:24Z</time>
      </trkpt>
      <trkpt lat="49.7919" lon="2.40344">
        <ele>74.1</ele>
        <time>2024-07-24T07:29:25Z</time>
      </trkpt>
      <trkpt lat="49.79191" lon="2.40345">
        <ele>74.2</ele>
        <time>2024-07-24T07:29:26Z</time>
      </trkpt>
      <trkpt lat="49.79192" lon="2.40346">
        <ele>74.2</ele>
        <time>2024-07-24T07:29:27Z</time>
      </trkpt>
      <trkpt lat="49.79192" lon="2.40346">
        <ele>74.3</ele>
        <time>2024-07-24T07:29:28Z</time>
      </trkpt>
      <trkpt lat="49.79193" lon="2.40347">
        <ele>74.4</ele>
        <time>2024-07-24T07:29:29Z</time>
      </trkpt>
      <trkpt lat="49.79194" lon="2.40348">
        <ele>74.4</ele>
        <time>2024-07-24T07:29:30Z</time>
      </trkpt>
      <trkpt lat="49.79194" lon="2.40349">
        <ele>74.5</ele>
        <time>2024-07-24T07:29:31Z</time>
      </trkpt>
      <trkpt lat="49.79195" lon="2.4035">
        <ele>74.5</ele>
        <time>2024-07-24T07:29:32Z</time>
      </trkpt>
      <trkpt lat="49.79195" lon="2.40351">
        <ele>74.6</ele>
        <time>2024-07-24T07:29:33Z</time>
      </trkpt>
      <trkpt lat="49.79196" lon="2.40352">
        <ele>74.6</ele>
        <time>2024-07-24T07:29:34Z</time>
      </trkpt>
      <trkpt lat="49.79197" lon="2.40353">
        <ele>74.7</ele>
        <time>2024-07-24T07:29:35Z</time>
      </trkpt>
      <trkpt lat="49.79197" lon="2.40354">
        <ele>74.8</ele>
        <time>2024-07-24T07:29:36Z</time>
      </trkpt>
      <trkpt lat="49.79198" lon="2.40355">
        <ele>74.8</ele>
        <time>2024-07-24T07:29:37Z</time>
      </trkpt>
      <trkpt lat="49.79198" lon="2.40356">
        <ele>74.9</ele>
        <time>2024-07-24T07:29:38Z</time>
      </trkpt>
      <trkpt lat="49.79199" lon="2.40357">
        <ele>75</ele>
        <time>2024-07-24T07:29:39Z</time>
      </trkpt>
      <trkpt lat="49.792" lon="2.40358">
        <ele>75</ele>
        <time>2024-07-24T07:29:40Z</time>
      </trkpt>
      <trkpt lat="49.792" lon="2.40359">
        <ele>75.1</ele>
        <time>2024-07-24T07:29:41Z</time>
      </trkpt>
      <trkpt lat="49.79201" lon="2.40361">
        <ele>75.1</ele>
        <time>2024-07-24T07:29:42Z</time>
      </trkpt>
      <trkpt lat="49.79202" lon="2.40361">
        <ele>75.2</ele>
        <time>2024-07-24T07:29:43Z</time>
      </trkpt>
      <trkpt lat="49.79202" lon="2.40363">
        <ele>75.3</ele>
        <time>2024-07-24T07:29:44Z</time>
      </trkpt>
      <trkpt lat="49.79203" lon="2.40364">
        <ele>75.3</ele>
        <time>2024-07-24T07:29:45Z</time>
      </trkpt>
      <trkpt lat="49.79204" lon="2.40365">
        <ele>75.4</ele>
        <time>2024-07-24T07:29:46Z</time>
      </trkpt>
      <trkpt lat="49.79205" lon="2.40366">
        <ele>75.5</ele>
        <time>2024-07-24T07:29:47Z</time>
      </trkpt>
      <trkpt lat="49.79205" lon="2.40367">
        <ele>75.5</ele>
        <time>2024-07-24T07:29:48Z</time>
      </trkpt>
      <trkpt lat="49.79205" lon="2.40368">
        <ele>75.6</ele>
        <time>2024-07-24T07:29:49Z</time>
      </trkpt>
      <trkpt lat="49.79206" lon="2.40369">
        <ele>75.6</ele>
        <time>2024-07-24T07:29:50Z</time>
      </trkpt>
      <trkpt lat="49.79207" lon="2.4037">
        <ele>75.7</ele>
        <time>2024-07-24T07:29:51Z</time>
      </trkpt>
      <trkpt lat="49.79208" lon="2.40372">
        <ele>75.8</ele>
        <time>2024-07-24T07:29:52Z</time>
      </trkpt>
      <trkpt lat="49.79208" lon="2.40372">
        <ele>75.8</ele>
        <time>2024-07-24T07:29:53Z</time>
      </trkpt>
      <trkpt lat="49.79209" lon="2.40373">
        <ele>75.9</ele>
        <time>2024-07-24T07:29:54Z</time>
      </trkpt>
      <trkpt lat="49.79209" lon="2.40374">
        <ele>76</ele>
        <time>2024-07-24T07:29:55Z</time>
      </trkpt>
      <trkpt lat="49.7921" lon="2.40375">
        <ele>76</ele>
        <time>2024-07-24T07:29:56Z</time>
      </trkpt>
      <trkpt lat="49.79211" lon="2.40377">
        <ele>76.1</ele>
        <time>2024-07-24T07:29:57Z</time>
      </trkpt>
      <trkpt lat="49.79212" lon="2.40377">
        <ele>76.2</ele>
        <time>2024-07-24T07:29:58Z</time>
      </trkpt>
      <trkpt lat="49.79212" lon="2.40378">
        <ele>76.2</ele>
        <time>2024-07-24T07:29:59Z</time>
      </trkpt>
      <trkpt lat="49.79213" lon="2.40379">
        <ele>76.3</ele>
        <time>2024-07-24T07:30:00Z</time>
      </trkpt>
      <trkpt lat="49.79214" lon="2.4038">
        <ele>76.3</ele>
        <time>2024-07-24T07:30:01Z</time>
      </trkpt>
      <trkpt lat="49.79215" lon="2.40382">
        <ele>76.4</ele>
        <time>2024-07-24T07:30:02Z</time>
      </trkpt>
      <trkpt lat="49.79215" lon="2.40382">
        <ele>76.5</ele>
        <time>2024-07-24T07:30:03Z</time>
      </trkpt>
      <trkpt lat="49.79216" lon="2.40383">
        <ele>76.5</ele>
        <time>2024-07-24T07:30:04Z</time>
      </trkpt>
      <trkpt lat="49.79216" lon="2.40384">
        <ele>76.6</ele>
        <time>2024-07-24T07:30:05Z</time>
      </trkpt>
      <trkpt lat="49.79217" lon="2.40385">
        <ele>76.6</ele>
        <time>2024-07-24T07:30:06Z</time>
      </trkpt>
      <trkpt lat="49.79218" lon="2.40386">
        <ele>76.7</ele>
        <time>2024-07-24T07:30:07Z</time>
      </trkpt>
      <trkpt lat="49.79218" lon="2.40387">
        <ele>76.8</ele>
        <time>2024-07-24T07:30:08Z</time>
      </trkpt>
      <trkpt lat="49.79219" lon="2.40388">
        <ele>76.8</ele>
        <time>2024-07-24T07:30:09Z</time>
      </trkpt>
      <trkpt lat="49.7922" lon="2.40389">
        <ele>76.9</ele>
        <time>2024-07-24T07:30:10Z</time>
      </trkpt>
      <trkpt lat="49.7922" lon="2.4039">
        <ele>77</ele>
        <time>2024-07-24T07:30:11Z</time>
      </trkpt>
      <trkpt lat="49.79221" lon="2.40392">
        <ele>77.1</ele>
        <time>2024-07-24T07:30:12Z</time>
      </trkpt>
      <trkpt lat="49.79222" lon="2.40393">
        <ele>77.1</ele>
        <time>2024-07-24T07:30:13Z</time>
      </trkpt>
      <trkpt lat="49.79222" lon="2.40394">
        <ele>77.2</ele>
        <time>2024-07-24T07:30:14Z</time>
      </trkpt>
      <trkpt lat="49.79223" lon="2.40395">
        <ele>77.2</ele>
        <time>2024-07-24T07:30:15Z</time>
      </trkpt>
      <trkpt lat="49.79223" lon="2.40396">
        <ele>77.3</ele>
        <time>2024-07-24T07:30:16Z</time>
      </trkpt>
      <trkpt lat="49.79224" lon="2.40397">
        <ele>77.3</ele>
        <time>2024-07-24T07:30:17Z</time>
      </trkpt>
      <trkpt lat="49.79224" lon="2.40398">
        <ele>77.4</ele>
        <time>2024-07-24T07:30:18Z</time>
      </trkpt>
      <trkpt lat="49.79225" lon="2.40399">
        <ele>77.5</ele>
        <time>2024-07-24T07:30:19Z</time>
      </trkpt>
      <trkpt lat="49.79225" lon="2.404">
        <ele>77.5</ele>
        <time>2024-07-24T07:30:20Z</time>
      </trkpt>
      <trkpt lat="49.79226" lon="2.40401">
        <ele>77.6</ele>
        <time>2024-07-24T07:30:21Z</time>
      </trkpt>
      <trkpt lat="49.79227" lon="2.40402">
        <ele>77.7</ele>
        <time>2024-07-24T07:30:22Z</time>
      </trkpt>
      <trkpt lat="49.79228" lon="2.40403">
        <ele>77.8</ele>
        <time>2024-07-24T07:30:23Z</time>
      </trkpt>
      <trkpt lat="49.79228" lon="2.40404">
        <ele>77.8</ele>
        <time>2024-07-24T07:30:24Z</time>
      </trkpt>
      <trkpt lat="49.79229" lon="2.40405">
        <ele>77.9</ele>
        <time>2024-07-24T07:30:25Z</time>
      </trkpt>
      <trkpt lat="49.7923" lon="2.40406">
        <ele>78</ele>
        <time>2024-07-24T07:30:26Z</time>
      </trkpt>
      <trkpt lat="49.7923" lon="2.40407">
        <ele>78</ele>
        <time>2024-07-24T07:30:27Z</time>
      </trkpt>
      <trkpt lat="49.79231" lon="2.40408">
        <ele>78.1</ele>
        <time>2024-07-24T07:30:28Z</time>
      </trkpt>
      <trkpt lat="49.79232" lon="2.40409">
        <ele>78.2</ele>
        <time>2024-07-24T07:30:29Z</time>
      </trkpt>
      <trkpt lat="49.79232" lon="2.4041">
        <ele>78.2</ele>
        <time>2024-07-24T07:30:30Z</time>
      </trkpt>
      <trkpt lat="49.79233" lon="2.40411">
        <ele>78.3</ele>
        <time>2024-07-24T07:30:31Z</time>
      </trkpt>
      <trkpt lat="49.79234" lon="2.40412">
        <ele>78.3</ele>
        <time>2024-07-24T07:30:32Z</time>
      </trkpt>
      <trkpt lat="49.79234" lon="2.40413">
        <ele>78.4</ele>
        <time>2024-07-24T07:30:33Z</time>
      </trkpt>
      <trkpt lat="49.79235" lon="2.40414">
        <ele>78.5</ele>
        <time>2024-07-24T07:30:34Z</time>
      </trkpt>
      <trkpt lat="49.79235" lon="2.40415">
        <ele>78.5</ele>
        <time>2024-07-24T07:30:35Z</time>
      </trkpt>
      <trkpt lat="49.79236" lon="2.40416">
        <ele>78.6</ele>
        <time>2024-07-24T07:30:36Z</time>
      </trkpt>
      <trkpt lat="49.79236" lon="2.40417">
        <ele>78.6</ele>
        <time>2024-07-24T07:30:37Z</time>
      </trkpt>
      <trkpt lat="49.79237" lon="2.40418">
        <ele>78.7</ele>
        <time>2024-07-24T07:30:38Z</time>
      </trkpt>
      <trkpt lat="49.79238" lon="2.40419">
        <ele>78.8</ele>
        <time>2024-07-24T07:30:39Z</time>
      </trkpt>
      <trkpt lat="49.79239" lon="2.4042">
        <ele>78.9</ele>
        <time>2024-07-24T07:30:40Z</time>
      </trkpt>
      <trkpt lat="49.79239" lon="2.40421">
        <ele>78.9</ele>
        <time>2024-07-24T07:30:41Z</time>
      </trkpt>
      <trkpt lat="49.7924" lon="2.40422">
        <ele>79</ele>
        <time>2024-07-24T07:30:42Z</time>
      </trkpt>
      <trkpt lat="49.7924" lon="2.40424">
        <ele>79.1</ele>
        <time>2024-07-24T07:30:43Z</time>
      </trkpt>
      <trkpt lat="49.79241" lon="2.40425">
        <ele>79.2</ele>
        <time>2024-07-24T07:30:44Z</time>
      </trkpt>
      <trkpt lat="49.79242" lon="2.40426">
        <ele>79.2</ele>
        <time>2024-07-24T07:30:45Z</time>
      </trkpt>
      <trkpt lat="49.79242" lon="2.40427">
        <ele>79.3</ele>
        <time>2024-07-24T07:30:46Z</time>
      </trkpt>
      <trkpt lat="49.79243" lon="2.40428">
        <ele>79.4</ele>
        <time>2024-07-24T07:30:47Z</time>
      </trkpt>
      <trkpt lat="49.79244" lon="2.40429">
        <ele>79.4</ele>
        <time>2024-07-24T07:30:48Z</time>
      </trkpt>
      <trkpt lat="49.79244" lon="2.4043">
        <ele>79.5</ele>
        <time>2024-07-24T07:30:49Z</time>
      </trkpt>
      <trkpt lat="49.79245" lon="2.40431">
        <ele>79.6</ele>
        <time>2024-07-24T07:30:50Z</time>
      </trkpt>
      <trkpt lat="49.79245" lon="2.40432">
        <ele>79.6</ele>
        <time>2024-07-24T07:30:51Z</time>
      </trkpt>
      <trkpt lat="49.79246" lon="2.40433">
        <ele>79.7</ele>
        <time>2024-07-24T07:30:52Z</time>
      </trkpt>
      <trkpt lat="49.79247" lon="2.40434">
        <ele>79.8</ele>
        <time>2024-07-24T07:30:53Z</time>
      </trkpt>
      <trkpt lat="49.79247" lon="2.40435">
        <ele>79.8</ele>
        <time>2024-07-24T07:30:54Z</time>
      </trkpt>
      <trkpt lat="49.79248" lon="2.40436">
        <ele>79.9</ele>
        <time>2024-07-24T07:30:55Z</time>
      </trkpt>
      <trkpt lat="49.79248" lon="2.40437">
        <ele>80</ele>
        <time>2024-07-24T07:30:56Z</time>
      </trkpt>
      <trkpt lat="49.79249" lon="2.40438">
        <ele>80</ele>
        <time>2024-07-24T07:30:57Z</time>
      </trkpt>
      <trkpt lat="49.7925" lon="2.40439">
        <ele>80.1</ele>
        <time>2024-07-24T07:30:58Z</time>
      </trkpt>
      <trkpt lat="49.7925" lon="2.4044">
        <ele>80.2</ele>
        <time>2024-07-24T07:30:59Z</time>
      </trkpt>
      <trkpt lat="49.79251" lon="2.40441">
        <ele>80.2</ele>
        <time>2024-07-24T07:31:00Z</time>
      </trkpt>
      <trkpt lat="49.79251" lon="2.40442">
        <ele>80.3</ele>
        <time>2024-07-24T07:31:01Z</time>
      </trkpt>
      <trkpt lat="49.79252" lon="2.40443">
        <ele>80.4</ele>
        <time>2024-07-24T07:31:02Z</time>
      </trkpt>
      <trkpt lat="49.79252" lon="2.40444">
        <ele>80.4</ele>
        <time>2024-07-24T07:31:03Z</time>
      </trkpt>
      <trkpt lat="49.79253" lon="2.40445">
        <ele>80.5</ele>
        <time>2024-07-24T07:31:04Z</time>
      </trkpt>
      <trkpt lat="49.79254" lon="2.40446">
        <ele>80.5</ele>
        <time>2024-07-24T07:31:05Z</time>
      </trkpt>
      <trkpt lat="49.79254" lon="2.40447">
        <ele>80.6</ele>
        <time>2024-07-24T07:31:06Z</time>
      </trkpt>
      <trkpt lat="49.79255" lon="2.40448">
        <ele>80.7</ele>
        <time>2024-07-24T07:31:07Z</time>
      </trkpt>
      <trkpt lat="49.79256" lon="2.40449">
        <ele>80.8</ele>
        <time>2024-07-24T07:31:08Z</time>
      </trkpt>
      <trkpt lat="49.79256" lon="2.4045">
        <ele>80.8</ele>
        <time>2024-07-24T07:31:09Z</time>
      </trkpt>
      <trkpt lat="49.79257" lon="2.4045">
        <ele>80.9</ele>
        <time>2024-07-24T07:31:10Z</time>
      </trkpt>
      <trkpt lat="49.79258" lon="2.40451">
        <ele>81</ele>
        <time>2024-07-24T07:31:11Z</time>
      </trkpt>
      <trkpt lat="49.79258" lon="2.40452">
        <ele>81</ele>
        <time>2024-07-24T07:31:12Z</time>
      </trkpt>
      <trkpt lat="49.79259" lon="2.40453">
        <ele>81.1</ele>
        <time>2024-07-24T07:31:13Z</time>
      </trkpt>
      <trkpt lat="49.79259" lon="2.40454">
        <ele>81.2</ele>
        <time>2024-07-24T07:31:14Z</time>
      </trkpt>
      <trkpt lat="49.7926" lon="2.40455">
        <ele>81.2</ele>
        <time>2024-07-24T07:31:15Z</time>
      </trkpt>
      <trkpt lat="49.79261" lon="2.40456">
        <ele>81.3</ele>
        <time>2024-07-24T07:31:16Z</time>
      </trkpt>
      <trkpt lat="49.79261" lon="2.40457">
        <ele>81.4</ele>
        <time>2024-07-24T07:31:17Z</time>
      </trkpt>
      <trkpt lat="49.79262" lon="2.40458">
        <ele>81.5</ele>
        <time>2024-07-24T07:31:18Z</time>
      </trkpt>
      <trkpt lat="49.79262" lon="2.40459">
        <ele>81.5</ele>
        <time>2024-07-24T07:31:19Z</time>
      </trkpt>
      <trkpt lat="49.79263" lon="2.4046">
        <ele>81.6</ele>
        <time>2024-07-24T07:31:20Z</time>
      </trkpt>
      <trkpt lat="49.79264" lon="2.40461">
        <ele>81.7</ele>
        <time>2024-07-24T07:31:21Z</time>
      </trkpt>
      <trkpt lat="49.79264" lon="2.40461">
        <ele>81.7</ele>
        <time>2024-07-24T07:31:22Z</time>
      </trkpt>
      <trkpt lat="49.79265" lon="2.40462">
        <ele>81.8</ele>
        <time>2024-07-24T07:31:23Z</time>
      </trkpt>
      <trkpt lat="49.79265" lon="2.40463">
        <ele>81.8</ele>
        <time>2024-07-24T07:31:24Z</time>
      </trkpt>
      <trkpt lat="49.79266" lon="2.40464">
        <ele>81.9</ele>
        <time>2024-07-24T07:31:25Z</time>
      </trkpt>
      <trkpt lat="49.79266" lon="2.40465">
        <ele>82</ele>
        <time>2024-07-24T07:31:26Z</time>
      </trkpt>
      <trkpt lat="49.79267" lon="2.40466">
        <ele>82.1</ele>
        <time>2024-07-24T07:31:27Z</time>
      </trkpt>
      <trkpt lat="49.79267" lon="2.40467">
        <ele>82.1</ele>
        <time>2024-07-24T07:31:28Z</time>
      </trkpt>
      <trkpt lat="49.79268" lon="2.40467">
        <ele>82.2</ele>
        <time>2024-07-24T07:31:29Z</time>
      </trkpt>
      <trkpt lat="49.79268" lon="2.40468">
        <ele>82.3</ele>
        <time>2024-07-24T07:31:30Z</time>
      </trkpt>
      <trkpt lat="49.79269" lon="2.40469">
        <ele>82.3</ele>
        <time>2024-07-24T07:31:31Z</time>
      </trkpt>
      <trkpt lat="49.79269" lon="2.4047">
        <ele>82.4</ele>
        <time>2024-07-24T07:31:32Z</time>
      </trkpt>
      <trkpt lat="49.7927" lon="2.4047">
        <ele>82.4</ele>
        <time>2024-07-24T07:31:33Z</time>
      </trkpt>
      <trkpt lat="49.7927" lon="2.40471">
        <ele>82.5</ele>
        <time>2024-07-24T07:31:34Z</time>
      </trkpt>
      <trkpt lat="49.79271" lon="2.40472">
        <ele>82.6</ele>
        <time>2024-07-24T07:31:35Z</time>
      </trkpt>
      <trkpt lat="49.79271" lon="2.40472">
        <ele>82.6</ele>
        <time>2024-07-24T07:31:36Z</time>
      </trkpt>
      <trkpt lat="49.79272" lon="2.40473">
        <ele>82.7</ele>
        <time>2024-07-24T07:31:37Z</time>
      </trkpt>
      <trkpt lat="49.79272" lon="2.40474">
        <ele>82.8</ele>
        <time>2024-07-24T07:31:38Z</time>
      </trkpt>
      <trkpt lat="49.79273" lon="2.40475">
        <ele>82.8</ele>
        <time>2024-07-24T07:31:39Z</time>
      </trkpt>
      <trkpt lat="49.79273" lon="2.40477">
        <ele>83</ele>
        <time>2024-07-24T07:31:40Z</time>
      </trkpt>
      <trkpt lat="49.79273" lon="2.40478">
        <ele>83</ele>
        <time>2024-07-24T07:31:41Z</time>
      </trkpt>
      <trkpt lat="49.79273" lon="2.40479">
        <ele>83.1</ele>
        <time>2024-07-24T07:31:42Z</time>
      </trkpt>
      <trkpt lat="49.79274" lon="2.4048">
        <ele>83.2</ele>
        <time>2024-07-24T07:31:43Z</time>
      </trkpt>
      <trkpt lat="49.79274" lon="2.40482">
        <ele>83.3</ele>
        <time>2024-07-24T07:31:44Z</time>
      </trkpt>
      <trkpt lat="49.79274" lon="2.40483">
        <ele>83.4</ele>
        <time>2024-07-24T07:31:45Z</time>
      </trkpt>
      <trkpt lat="49.79274" lon="2.40485">
        <ele>83.4</ele>
        <time>2024-07-24T07:31:46Z</time>
      </trkpt>
      <trkpt lat="49.79274" lon="2.40486">
        <ele>83.5</ele>
        <time>2024-07-24T07:31:47Z</time>
      </trkpt>
      <trkpt lat="49.79274" lon="2.40486">
        <ele>83.5</ele>
        <time>2024-07-24T07:31:48Z</time>
      </trkpt>
      <trkpt lat="49.79274" lon="2.40485">
        <ele>83.5</ele>
        <time>2024-07-24T07:31:49Z</time>
      </trkpt>
      <trkpt lat="49.79274" lon="2.40485">
        <ele>83.5</ele>
        <time>2024-07-24T07:31:50Z</time>
      </trkpt>
      <trkpt lat="49.79274" lon="2.40485">
        <ele>83.5</ele>
        <time>2024-07-24T07:31:51Z</time>
      </trkpt>
      <trkpt lat="49.79274" lon="2.40485">
        <ele>83.5</ele>
        <time>2024-07-24T07:31:52Z</time>
      </trkpt>
      <trkpt lat="49.79274" lon="2.40485">
        <ele>83.5</ele>
        <time>2024-07-24T07:31:53Z</time>
      </trkpt>
      <trkpt lat="49.79274" lon="2.40485">
        <ele>83.5</ele>
        <time>2024-07-24T07:31:54Z</time>
      </trkpt>
      <trkpt lat="49.79274" lon="2.40485">
        <ele>83.5</ele>
        <time>2024-07-24T07:31:55Z</time>
      </trkpt>
      <trkpt lat="49.79274" lon="2.40485">
        <ele>83.5</ele>
        <time>2024-07-24T07:31:56Z</time>
      </trkpt>
      <trkpt lat="49.79274" lon="2.40484">
        <ele>83.5</ele>
        <time>2024-07-24T07:31:57Z</time>
      </trkpt>
      <trkpt lat="49.79273" lon="2.40484">
        <ele>83.5</ele>
        <time>2024-07-24T07:31:58Z</time>
      </trkpt>
      <trkpt lat="49.79273" lon="2.40484">
        <ele>83.5</ele>
        <time>2024-07-24T07:31:59Z</time>
      </trkpt>
      <trkpt lat="49.79273" lon="2.40484">
        <ele>83.5</ele>
        <time>2024-07-24T07:32:00Z</time>
      </trkpt>
      <trkpt lat="49.79273" lon="2.40484">
        <ele>83.5</ele>
        <time>2024-07-24T07:32:01Z</time>
      </trkpt>
      <trkpt lat="49.79273" lon="2.40484">
        <ele>83.5</ele>
        <time>2024-07-24T07:32:02Z</time>
      </trkpt>
      <trkpt lat="49.79273" lon="2.40484">
        <ele>83.5</ele>
        <time>2024-07-24T07:32:03Z</time>
      </trkpt>
      <trkpt lat="49.79273" lon="2.40484">
        <ele>83.5</ele>
        <time>2024-07-24T07:32:04Z</time>
      </trkpt>
      <trkpt lat="49.79273" lon="2.40484">
        <ele>83.5</ele>
        <time>2024-07-24T07:32:05Z</time>
      </trkpt>
      <trkpt lat="49.79273" lon="2.40483">
        <ele>83.4</ele>
        <time>2024-07-24T07:32:06Z</time>
      </trkpt>
      <trkpt lat="49.79273" lon="2.40483">
        <ele>83.4</ele>
        <time>2024-07-24T07:32:07Z</time>
      </trkpt>
      <trkpt lat="49.79273" lon="2.40483">
        <ele>83.4</ele>
        <time>2024-07-24T07:32:08Z</time>
      </trkpt>
      <trkpt lat="49.79273" lon="2.40483">
        <ele>83.4</ele>
        <time>2024-07-24T07:32:09Z</time>
      </trkpt>
      <trkpt lat="49.79273" lon="2.40483">
        <ele>83.4</ele>
        <time>2024-07-24T07:32:10Z</time>
      </trkpt>
      <trkpt lat="49.79273" lon="2.40483">
        <ele>83.4</ele>
        <time>2024-07-24T07:32:11Z</time>
      </trkpt>
      <trkpt lat="49.79273" lon="2.40483">
        <ele>83.4</ele>
        <time>2024-07-24T07:32:12Z</time>
      </trkpt>
      <trkpt lat="49.79273" lon="2.40483">
        <ele>83.4</ele>
        <time>2024-07-24T07:32:13Z</time>
      </trkpt>
      <trkpt lat="49.79273" lon="2.40482">
        <ele>83.4</ele>
        <time>2024-07-24T07:32:14Z</time>
      </trkpt>
      <trkpt lat="49.79273" lon="2.40482">
        <ele>83.4</ele>
        <time>2024-07-24T07:32:15Z</time>
      </trkpt>
      <trkpt lat="49.79273" lon="2.40482">
        <ele>83.4</ele>
        <time>2024-07-24T07:32:16Z</time>
      </trkpt>
      <trkpt lat="49.79273" lon="2.40482">
        <ele>83.4</ele>
        <time>2024-07-24T07:32:17Z</time>
      </trkpt>
      <trkpt lat="49.79273" lon="2.40482">
        <ele>83.4</ele>
        <time>2024-07-24T07:32:18Z</time>
      </trkpt>
      <trkpt lat="49.79273" lon="2.40482">
        <ele>83.4</ele>
        <time>2024-07-24T07:32:19Z</time>
      </trkpt>
      <trkpt lat="49.79273" lon="2.40482">
        <ele>83.4</ele>
        <time>2024-07-24T07:32:20Z</time>
      </trkpt>
      <trkpt lat="49.79273" lon="2.40482">
        <ele>83.4</ele>
        <time>2024-07-24T07:32:21Z</time>
      </trkpt>
      <trkpt lat="49.79273" lon="2.40482">
        <ele>83.4</ele>
        <time>2024-07-24T07:32:22Z</time>
      </trkpt>
      <trkpt lat="49.79273" lon="2.40481">
        <ele>83.3</ele>
        <time>2024-07-24T07:32:23Z</time>
      </trkpt>
      <trkpt lat="49.79273" lon="2.40481">
        <ele>83.3</ele>
        <time>2024-07-24T07:32:24Z</time>
      </trkpt>
      <trkpt lat="49.79273" lon="2.40481">
        <ele>83.3</ele>
        <time>2024-07-24T07:32:25Z</time>
      </trkpt>
      <trkpt lat="49.79273" lon="2.40481">
        <ele>83.3</ele>
        <time>2024-07-24T07:32:26Z</time>
      </trkpt>
      <trkpt lat="49.79273" lon="2.40481">
        <ele>83.3</ele>
        <time>2024-07-24T07:32:27Z</time>
      </trkpt>
      <trkpt lat="49.79273" lon="2.40481">
        <ele>83.3</ele>
        <time>2024-07-24T07:32:28Z</time>
      </trkpt>
      <trkpt lat="49.79273" lon="2.40481">
        <ele>83.3</ele>
        <time>2024-07-24T07:32:29Z</time>
      </trkpt>
      <trkpt lat="49.79273" lon="2.40481">
        <ele>83.3</ele>
        <time>2024-07-24T07:32:30Z</time>
      </trkpt>
      <trkpt lat="49.79273" lon="2.4048">
        <ele>83.3</ele>
        <time>2024-07-24T07:32:31Z</time>
      </trkpt>
      <trkpt lat="49.79273" lon="2.4048">
        <ele>83.3</ele>
        <time>2024-07-24T07:32:32Z</time>
      </trkpt>
      <trkpt lat="49.79273" lon="2.4048">
        <ele>83.3</ele>
        <time>2024-07-24T07:32:33Z</time>
      </trkpt>
      <trkpt lat="49.79273" lon="2.4048">
        <ele>83.3</ele>
        <time>2024-07-24T07:32:34Z</time>
      </trkpt>
      <trkpt lat="49.79273" lon="2.4048">
        <ele>83.3</ele>
        <time>2024-07-24T07:32:35Z</time>
      </trkpt>
      <trkpt lat="49.79273" lon="2.4048">
        <ele>83.3</ele>
        <time>2024-07-24T07:32:36Z</time>
      </trkpt>
      <trkpt lat="49.79273" lon="2.4048">
        <ele>83.3</ele>
        <time>2024-07-24T07:32:37Z</time>
      </trkpt>
      <trkpt lat="49.79273" lon="2.4048">
        <ele>83.3</ele>
        <time>2024-07-24T07:32:38Z</time>
      </trkpt>
      <trkpt lat="49.79272" lon="2.40479">
        <ele>83.2</ele>
        <time>2024-07-24T07:32:39Z</time>
      </trkpt>
      <trkpt lat="49.79272" lon="2.40479">
        <ele>83.2</ele>
        <time>2024-07-24T07:32:40Z</time>
      </trkpt>
      <trkpt lat="49.79272" lon="2.40479">
        <ele>83.2</ele>
        <time>2024-07-24T07:32:41Z</time>
      </trkpt>
      <trkpt lat="49.79272" lon="2.40479">
        <ele>83.2</ele>
        <time>2024-07-24T07:32:42Z</time>
      </trkpt>
      <trkpt lat="49.79272" lon="2.40479">
        <ele>83.2</ele>
        <time>2024-07-24T07:32:43Z</time>
      </trkpt>
      <trkpt lat="49.79272" lon="2.40479">
        <ele>83.2</ele>
        <time>2024-07-24T07:32:44Z</time>
      </trkpt>
      <trkpt lat="49.79272" lon="2.40479">
        <ele>83.2</ele>
        <time>2024-07-24T07:32:45Z</time>
      </trkpt>
      <trkpt lat="49.79272" lon="2.40479">
        <ele>83.2</ele>
        <time>2024-07-24T07:32:46Z</time>
      </trkpt>
      <trkpt lat="49.79272" lon="2.40479">
        <ele>83.2</ele>
        <time>2024-07-24T07:32:47Z</time>
      </trkpt>
      <trkpt lat="49.79272" lon="2.40478">
        <ele>83.2</ele>
        <time>2024-07-24T07:32:48Z</time>
      </trkpt>
      <trkpt lat="49.79272" lon="2.40478">
        <ele>83.2</ele>
        <time>2024-07-24T07:32:49Z</time>
      </trkpt>
      <trkpt lat="49.79272" lon="2.40478">
        <ele>83.2</ele>
        <time>2024-07-24T07:32:50Z</time>
      </trkpt>
      <trkpt lat="49.79272" lon="2.40478">
        <ele>83.2</ele>
        <time>2024-07-24T07:32:51Z</time>
      </trkpt>
      <trkpt lat="49.79272" lon="2.40478">
        <ele>83.2</ele>
        <time>2024-07-24T07:32:52Z</time>
      </trkpt>
      <trkpt lat="49.79272" lon="2.40478">
        <ele>83.2</ele>
        <time>2024-07-24T07:32:53Z</time>
      </trkpt>
      <trkpt lat="49.79272" lon="2.40478">
        <ele>83.2</ele>
        <time>2024-07-24T07:32:54Z</time>
      </trkpt>
      <trkpt lat="49.79272" lon="2.40478">
        <ele>83.2</ele>
        <time>2024-07-24T07:32:55Z</time>
      </trkpt>
      <trkpt lat="49.79272" lon="2.40477">
        <ele>83.2</ele>
        <time>2024-07-24T07:32:56Z</time>
      </trkpt>
      <trkpt lat="49.79272" lon="2.40477">
        <ele>83.1</ele>
        <time>2024-07-24T07:32:57Z</time>
      </trkpt>
      <trkpt lat="49.79272" lon="2.40477">
        <ele>83.1</ele>
        <time>2024-07-24T07:32:58Z</time>
      </trkpt>
      <trkpt lat="49.79272" lon="2.40477">
        <ele>83.1</ele>
        <time>2024-07-24T07:32:59Z</time>
      </trkpt>
      <trkpt lat="49.79272" lon="2.40477">
        <ele>83.1</ele>
        <time>2024-07-24T07:33:00Z</time>
      </trkpt>
      <trkpt lat="49.79272" lon="2.40477">
        <ele>83.1</ele>
        <time>2024-07-24T07:33:01Z</time>
      </trkpt>
      <trkpt lat="49.79271" lon="2.40477">
        <ele>83.1</ele>
        <time>2024-07-24T07:33:02Z</time>
      </trkpt>
      <trkpt lat="49.79271" lon="2.40477">
        <ele>83.1</ele>
        <time>2024-07-24T07:33:03Z</time>
      </trkpt>
      <trkpt lat="49.79272" lon="2.40477">
        <ele>83.1</ele>
        <time>2024-07-24T07:33:04Z</time>
      </trkpt>
      <trkpt lat="49.79272" lon="2.40477">
        <ele>83.1</ele>
        <time>2024-07-24T07:33:05Z</time>
      </trkpt>
      <trkpt lat="49.79271" lon="2.40477">
        <ele>83.1</ele>
        <time>2024-07-24T07:33:06Z</time>
      </trkpt>
      <trkpt lat="49.79271" lon="2.40477">
        <ele>83.1</ele>
        <time>2024-07-24T07:33:07Z</time>
      </trkpt>
      <trkpt lat="49.79271" lon="2.40477">
        <ele>83.1</ele>
        <time>2024-07-24T07:33:08Z</time>
      </trkpt>
      <trkpt lat="49.79271" lon="2.40477">
        <ele>83.1</ele>
        <time>2024-07-24T07:33:09Z</time>
      </trkpt>
      <trkpt lat="49.79271" lon="2.40477">
        <ele>83.1</ele>
        <time>2024-07-24T07:33:10Z</time>
      </trkpt>
      <trkpt lat="49.79271" lon="2.40477">
        <ele>83.1</ele>
        <time>2024-07-24T07:33:11Z</time>
      </trkpt>
      <trkpt lat="49.79271" lon="2.40477">
        <ele>83</ele>
        <time>2024-07-24T07:33:12Z</time>
      </trkpt>
      <trkpt lat="49.79271" lon="2.40477">
        <ele>83</ele>
        <time>2024-07-24T07:33:13Z</time>
      </trkpt>
      <trkpt lat="49.79271" lon="2.40477">
        <ele>83</ele>
        <time>2024-07-24T07:33:14Z</time>
      </trkpt>
      <trkpt lat="49.79271" lon="2.40477">
        <ele>83</ele>
        <time>2024-07-24T07:33:15Z</time>
      </trkpt>
      <trkpt lat="49.79271" lon="2.40477">
        <ele>83</ele>
        <time>2024-07-24T07:33:16Z</time>
      </trkpt>
      <trkpt lat="49.79271" lon="2.40477">
        <ele>83</ele>
        <time>2024-07-24T07:33:17Z</time>
      </trkpt>
      <trkpt lat="49.79271" lon="2.40477">
        <ele>83</ele>
        <time>2024-07-24T07:33:18Z</time>
      </trkpt>
      <trkpt lat="49.79271" lon="2.40477">
        <ele>83</ele>
        <time>2024-07-24T07:33:19Z</time>
      </trkpt>
      <trkpt lat="49.79271" lon="2.40477">
        <ele>83</ele>
        <time>2024-07-24T07:33:20Z</time>
      </trkpt>
      <trkpt lat="49.79271" lon="2.40477">
        <ele>83</ele>
        <time>2024-07-24T07:33:21Z</time>
      </trkpt>
      <trkpt lat="49.79271" lon="2.40477">
        <ele>83</ele>
        <time>2024-07-24T07:33:22Z</time>
      </trkpt>
      <trkpt lat="49.79271" lon="2.40477">
        <ele>83</ele>
        <time>2024-07-24T07:33:23Z</time>
      </trkpt>
      <trkpt lat="49.79271" lon="2.40477">
        <ele>83</ele>
        <time>2024-07-24T07:33:24Z</time>
      </trkpt>
      <trkpt lat="49.79271" lon="2.40477">
        <ele>83</ele>
        <time>2024-07-24T07:33:25Z</time>
      </trkpt>
      <trkpt lat="49.79271" lon="2.40477">
        <ele>83</ele>
        <time>2024-07-24T07:33:26Z</time>
      </trkpt>
      <trkpt lat="49.79271" lon="2.40477">
        <ele>83</ele>
        <time>2024-07-24T07:33:27Z</time>
      </trkpt>
      <trkpt lat="49.79271" lon="2.40477">
        <ele>83</ele>
        <time>2024-07-24T07:33:28Z</time>
      </trkpt>
      <trkpt lat="49.79271" lon="2.40477">
        <ele>83</ele>
        <time>2024-07-24T07:33:29Z</time>
      </trkpt>
      <trkpt lat="49.79271" lon="2.40477">
        <ele>83</ele>
        <time>2024-07-24T07:33:30Z</time>
      </trkpt>
      <trkpt lat="49.79271" lon="2.40477">
        <ele>83</ele>
        <time>2024-07-24T07:33:31Z</time>
      </trkpt>
      <trkpt lat="49.79271" lon="2.40477">
        <ele>83</ele>
        <time>2024-07-24T07:33:32Z</time>
      </trkpt>
      <trkpt lat="49.79271" lon="2.40477">
        <ele>83</ele>
        <time>2024-07-24T07:33:33Z</time>
      </trkpt>
      <trkpt lat="49.79271" lon="2.40477">
        <ele>83</ele>
        <time>2024-07-24T07:33:34Z</time>
      </trkpt>
      <trkpt lat="49.79271" lon="2.40477">
        <ele>83</ele>
        <time>2024-07-24T07:33:35Z</time>
      </trkpt>
      <trkpt lat="49.79271" lon="2.40477">
        <ele>83</ele>
        <time>2024-07-24T07:33:36Z</time>
      </trkpt>
      <trkpt lat="49.79271" lon="2.40477">
        <ele>83</ele>
        <time>2024-07-24T07:33:37Z</time>
      </trkpt>
      <trkpt lat="49.79271" lon="2.40477">
        <ele>83</ele>
        <time>2024-07-24T07:33:38Z</time>
      </trkpt>
      <trkpt lat="49.79271" lon="2.40477">
        <ele>83</ele>
        <time>2024-07-24T07:33:39Z</time>
      </trkpt>
      <trkpt lat="49.79271" lon="2.40477">
        <ele>83</ele>
        <time>2024-07-24T07:33:40Z</time>
      </trkpt>
      <trkpt lat="49.79271" lon="2.40477">
        <ele>83</ele>
        <time>2024-07-24T07:33:41Z</time>
      </trkpt>
      <trkpt lat="49.79271" lon="2.40477">
        <ele>83</ele>
        <time>2024-07-24T07:33:42Z</time>
      </trkpt>
      <trkpt lat="49.79271" lon="2.40477">
        <ele>83</ele>
        <time>2024-07-24T07:33:43Z</time>
      </trkpt>
      <trkpt lat="49.79271" lon="2.40477">
        <ele>83</ele>
        <time>2024-07-24T07:33:44Z</time>
      </trkpt>
      <trkpt lat="49.79271" lon="2.40477">
        <ele>83</ele>
        <time>2024-07-24T07:33:45Z</time>
      </trkpt>
      <trkpt lat="49.79271" lon="2.40477">
        <ele>83</ele>
        <time>2024-07-24T07:33:46Z</time>
      </trkpt>
      <trkpt lat="49.79271" lon="2.40477">
        <ele>83</ele>
        <time>2024-07-24T07:33:47Z</time>
      </trkpt>
      <trkpt lat="49.79271" lon="2.40477">
        <ele>83</ele>
        <time>2024-07-24T07:33:48Z</time>
      </trkpt>
      <trkpt lat="49.79271" lon="2.40477">
        <ele>83</ele>
        <time>2024-07-24T07:33:49Z</time>
      </trkpt>
      <trkpt lat="49.79271" lon="2.40477">
        <ele>83</ele>
        <time>2024-07-24T07:33:50Z</time>
      </trkpt>
      <trkpt lat="49.79271" lon="2.40477">
        <ele>83</ele>
        <time>2024-07-24T07:33:51Z</time>
      </trkpt>
      <trkpt lat="49.79271" lon="2.40477">
        <ele>83</ele>
        <time>2024-07-24T07:33:52Z</time>
      </trkpt>
      <trkpt lat="49.79271" lon="2.40477">
        <ele>83</ele>
        <time>2024-07-24T07:33:53Z</time>
      </trkpt>
      <trkpt lat="49.79271" lon="2.40477">
        <ele>83</ele>
        <time>2024-07-24T07:33:54Z</time>
      </trkpt>
      <trkpt lat="49.79271" lon="2.40477">
        <ele>83</ele>
        <time>2024-07-24T07:33:55Z</time>
      </trkpt>
      <trkpt lat="49.79271" lon="2.40477">
        <ele>83</ele>
        <time>2024-07-24T07:33:56Z</time>
      </trkpt>
      <trkpt lat="49.79271" lon="2.40477">
        <ele>83</ele>
        <time>2024-07-24T07:33:57Z</time>
      </trkpt>
      <trkpt lat="49.79271" lon="2.40477">
        <ele>83</ele>
        <time>2024-07-24T07:33:58Z</time>
      </trkpt>
      <trkpt lat="49.79271" lon="2.40477">
        <ele>83</ele>
        <time>2024-07-24T07:33:59Z</time>
      </trkpt>
      <trkpt lat="49.79271" lon="2.40477">
        <ele>83</ele>
        <time>2024-07-24T07:34:00Z</time>
      </trkpt>
      <trkpt lat="49.79271" lon="2.40477">
        <ele>83</ele>
        <time>2024-07-24T07:34:01Z</time>
      </trkpt>
      <trkpt lat="49.79271" lon="2.40477">
        <ele>83</ele>
        <time>2024-07-24T07:34:02Z</time>
      </trkpt>
      <trkpt lat="49.79271" lon="2.40477">
        <ele>83</ele>
        <time>2024-07-24T07:34:03Z</time>
      </trkpt>
      <trkpt lat="49.79271" lon="2.40477">
        <ele>83</ele>
        <time>2024-07-24T07:34:04Z</time>
      </trkpt>
      <trkpt lat="49.79271" lon="2.40477">
        <ele>83</ele>
        <time>2024-07-24T07:34:05Z</time>
      </trkpt>
      <trkpt lat="49.79271" lon="2.40477">
        <ele>83</ele>
        <time>2024-07-24T07:34:06Z</time>
      </trkpt>
      <trkpt lat="49.79271" lon="2.40477">
        <ele>83</ele>
        <time>2024-07-24T07:34:07Z</time>
      </trkpt>
      <trkpt lat="49.79271" lon="2.40477">
        <ele>83</ele>
        <time>2024-07-24T07:34:08Z</time>
      </trkpt>
      <trkpt lat="49.79271" lon="2.40477">
        <ele>83</ele>
        <time>2024-07-24T07:34:09Z</time>
      </trkpt>
      <trkpt lat="49.79271" lon="2.40477">
        <ele>83</ele>
        <time>2024-07-24T07:34:10Z</time>
      </trkpt>
      <trkpt lat="49.79271" lon="2.40477">
        <ele>83</ele>
        <time>2024-07-24T07:34:11Z</time>
      </trkpt>
      <trkpt lat="49.79271" lon="2.40477">
        <ele>83</ele>
        <time>2024-07-24T07:34:12Z</time>
      </trkpt>
      <trkpt lat="49.79271" lon="2.40477">
        <ele>83</ele>
        <time>2024-07-24T07:34:13Z</time>
      </trkpt>
      <trkpt lat="49.79271" lon="2.40477">
        <ele>83</ele>
        <time>2024-07-24T07:34:14Z</time>
      </trkpt>
      <trkpt lat="49.79271" lon="2.40477">
        <ele>83</ele>
        <time>2024-07-24T07:34:15Z</time>
      </trkpt>
      <trkpt lat="49.79271" lon="2.40477">
        <ele>83</ele>
        <time>2024-07-24T07:34:16Z</time>
      </trkpt>
      <trkpt lat="49.79271" lon="2.40477">
        <ele>83</ele>
        <time>2024-07-24T07:34:17Z</time>
      </trkpt>
      <trkpt lat="49.79271" lon="2.40477">
        <ele>83</ele>
        <time>2024-07-24T07:34:18Z</time>
      </trkpt>
      <trkpt lat="49.79271" lon="2.40477">
        <ele>83</ele>
        <time>2024-07-24T07:34:19Z</time>
      </trkpt>
      <trkpt lat="49.79271" lon="2.40477">
        <ele>83</ele>
        <time>2024-07-24T07:34:20Z</time>
      </trkpt>
      <trkpt lat="49.79271" lon="2.40477">
        <ele>83</ele>
        <time>2024-07-24T07:34:21Z</time>
      </trkpt>
      <trkpt lat="49.79271" lon="2.40477">
        <ele>83</ele>
        <time>2024-07-24T07:34:22Z</time>
      </trkpt>
      <trkpt lat="49.79271" lon="2.40477">
        <ele>83</ele>
        <time>2024-07-24T07:34:23Z</time>
      </trkpt>
      <trkpt lat="49.79271" lon="2.40477">
        <ele>83</ele>
        <time>2024-07-24T07:34:24Z</time>
      </trkpt>
      <trkpt lat="49.79271" lon="2.40477">
        <ele>83</ele>
        <time>2024-07-24T07:34:25Z</time>
      </trkpt>
      <trkpt lat="49.79271" lon="2.40477">
        <ele>83</ele>
        <time>2024-07-24T07:34:26Z</time>
      </trkpt>
      <trkpt lat="49.79271" lon="2.40477">
        <ele>83</ele>
        <time>2024-07-24T07:34:27Z</time>
      </trkpt>
      <trkpt lat="49.79271" lon="2.40477">
        <ele>83</ele>
        <time>2024-07-24T07:34:28Z</time>
      </trkpt>
      <trkpt lat="49.79271" lon="2.40477">
        <ele>83</ele>
        <time>2024-07-24T07:34:29Z</time>
      </trkpt>
      <trkpt lat="49.79271" lon="2.40477">
        <ele>83</ele>
        <time>2024-07-24T07:34:30Z</time>
      </trkpt>
      <trkpt lat="49.79271" lon="2.40477">
        <ele>83</ele>
        <time>2024-07-24T07:34:31Z</time>
      </trkpt>
      <trkpt lat="49.79271" lon="2.40477">
        <ele>83</ele>
        <time>2024-07-24T07:34:32Z</time>
      </trkpt>
      <trkpt lat="49.79271" lon="2.40477">
        <ele>83</ele>
        <time>2024-07-24T07:34:33Z</time>
      </trkpt>
      <trkpt lat="49.79271" lon="2.40477">
        <ele>83</ele>
        <time>2024-07-24T07:34:34Z</time>
      </trkpt>
      <trkpt lat="49.79271" lon="2.40477">
        <ele>83</ele>
        <time>2024-07-24T07:34:35Z</time>
      </trkpt>
      <trkpt lat="49.79271" lon="2.40477">
        <ele>83</ele>
        <time>2024-07-24T07:34:36Z</time>
      </trkpt>
      <trkpt lat="49.79271" lon="2.40477">
        <ele>83</ele>
        <time>2024-07-24T07:34:37Z</time>
      </trkpt>
      <trkpt lat="49.79271" lon="2.40477">
        <ele>83</ele>
        <time>2024-07-24T07:34:38Z</time>
      </trkpt>
      <trkpt lat="49.79271" lon="2.40477">
        <ele>83</ele>
        <time>2024-07-24T07:34:39Z</time>
      </trkpt>
      <trkpt lat="49.79271" lon="2.40477">
        <ele>83</ele>
        <time>2024-07-24T07:34:40Z</time>
      </trkpt>
      <trkpt lat="49.79271" lon="2.40477">
        <ele>83</ele>
        <time>2024-07-24T07:34:41Z</time>
      </trkpt>
      <trkpt lat="49.7927" lon="2.40478">
        <ele>82.9</ele>
        <time>2024-07-24T07:34:42Z</time>
      </trkpt>
      <trkpt lat="49.7927" lon="2.40479">
        <ele>82.9</ele>
        <time>2024-07-24T07:34:43Z</time>
      </trkpt>
      <trkpt lat="49.7927" lon="2.40481">
        <ele>82.8</ele>
        <time>2024-07-24T07:34:44Z</time>
      </trkpt>
      <trkpt lat="49.79269" lon="2.40482">
        <ele>82.8</ele>
        <time>2024-07-24T07:34:45Z</time>
      </trkpt>
      <trkpt lat="49.79268" lon="2.40484">
        <ele>82.7</ele>
        <time>2024-07-24T07:34:46Z</time>
      </trkpt>
      <trkpt lat="49.79268" lon="2.40485">
        <ele>82.7</ele>
        <time>2024-07-24T07:34:47Z</time>
      </trkpt>
      <trkpt lat="49.79266" lon="2.40487">
        <ele>82.6</ele>
        <time>2024-07-24T07:34:48Z</time>
      </trkpt>
      <trkpt lat="49.79266" lon="2.40488">
        <ele>82.6</ele>
        <time>2024-07-24T07:34:49Z</time>
      </trkpt>
      <trkpt lat="49.79265" lon="2.40489">
        <ele>82.5</ele>
        <time>2024-07-24T07:34:50Z</time>
      </trkpt>
      <trkpt lat="49.79264" lon="2.4049">
        <ele>82.5</ele>
        <time>2024-07-24T07:34:51Z</time>
      </trkpt>
      <trkpt lat="49.79263" lon="2.4049">
        <ele>82.5</ele>
        <time>2024-07-24T07:34:52Z</time>
      </trkpt>
      <trkpt lat="49.79262" lon="2.40491">
        <ele>82.4</ele>
        <time>2024-07-24T07:34:53Z</time>
      </trkpt>
      <trkpt lat="49.79261" lon="2.40491">
        <ele>82.4</ele>
        <time>2024-07-24T07:34:54Z</time>
      </trkpt>
      <trkpt lat="49.7926" lon="2.40492">
        <ele>82.4</ele>
        <time>2024-07-24T07:34:55Z</time>
      </trkpt>
      <trkpt lat="49.79259" lon="2.40492">
        <ele>82.4</ele>
        <time>2024-07-24T07:34:56Z</time>
      </trkpt>
      <trkpt lat="49.79257" lon="2.40493">
        <ele>82.4</ele>
        <time>2024-07-24T07:34:57Z</time>
      </trkpt>
      <trkpt lat="49.79257" lon="2.40493">
        <ele>82.3</ele>
        <time>2024-07-24T07:34:58Z</time>
      </trkpt>
      <trkpt lat="49.79256" lon="2.40493">
        <ele>82.3</ele>
        <time>2024-07-24T07:34:59Z</time>
      </trkpt>
      <trkpt lat="49.79255" lon="2.40493">
        <ele>82.3</ele>
        <time>2024-07-24T07:35:00Z</time>
      </trkpt>
      <trkpt lat="49.79254" lon="2.40494">
        <ele>82.3</ele>
        <time>2024-07-24T07:35:01Z</time>
      </trkpt>
      <trkpt lat="49.79254" lon="2.40495">
        <ele>82.3</ele>
        <time>2024-07-24T07:35:02Z</time>
      </trkpt>
      <trkpt lat="49.79252" lon="2.40496">
        <ele>82.3</ele>
        <time>2024-07-24T07:35:03Z</time>
      </trkpt>
      <trkpt lat="49.79251" lon="2.40496">
        <ele>82.4</ele>
        <time>2024-07-24T07:35:04Z</time>
      </trkpt>
      <trkpt lat="49.79251" lon="2.40498">
        <ele>82.4</ele>
        <time>2024-07-24T07:35:05Z</time>
      </trkpt>
      <trkpt lat="49.79249" lon="2.40498">
        <ele>82.4</ele>
        <time>2024-07-24T07:35:06Z</time>
      </trkpt>
      <trkpt lat="49.79248" lon="2.40499">
        <ele>82.4</ele>
        <time>2024-07-24T07:35:07Z</time>
      </trkpt>
      <trkpt lat="49.79247" lon="2.405">
        <ele>82.5</ele>
        <time>2024-07-24T07:35:08Z</time>
      </trkpt>
      <trkpt lat="49.79245" lon="2.40501">
        <ele>82.5</ele>
        <time>2024-07-24T07:35:09Z</time>
      </trkpt>
      <trkpt lat="49.79244" lon="2.40502">
        <ele>82.5</ele>
        <time>2024-07-24T07:35:10Z</time>
      </trkpt>
      <trkpt lat="49.79242" lon="2.40504">
        <ele>82.6</ele>
        <time>2024-07-24T07:35:11Z</time>
      </trkpt>
      <trkpt lat="49.79241" lon="2.40504">
        <ele>82.6</ele>
        <time>2024-07-24T07:35:12Z</time>
      </trkpt>
      <trkpt lat="49.79241" lon="2.40505">
        <ele>82.7</ele>
        <time>2024-07-24T07:35:13Z</time>
      </trkpt>
      <trkpt lat="49.79239" lon="2.40506">
        <ele>82.7</ele>
        <time>2024-07-24T07:35:14Z</time>
      </trkpt>
      <trkpt lat="49.79238" lon="2.40506">
        <ele>82.8</ele>
        <time>2024-07-24T07:35:15Z</time>
      </trkpt>
      <trkpt lat="49.79237" lon="2.40507">
        <ele>82.8</ele>
        <time>2024-07-24T07:35:16Z</time>
      </trkpt>
      <trkpt lat="49.79236" lon="2.40507">
        <ele>82.8</ele>
        <time>2024-07-24T07:35:17Z</time>
      </trkpt>
      <trkpt lat="49.79235" lon="2.40508">
        <ele>82.9</ele>
        <time>2024-07-24T07:35:18Z</time>
      </trkpt>
      <trkpt lat="49.79235" lon="2.40509">
        <ele>82.9</ele>
        <time>2024-07-24T07:35:19Z</time>
      </trkpt>
      <trkpt lat="49.79233" lon="2.40509">
        <ele>83</ele>
        <time>2024-07-24T07:35:20Z</time>
      </trkpt>
      <trkpt lat="49.79232" lon="2.4051">
        <ele>83</ele>
        <time>2024-07-24T07:35:21Z</time>
      </trkpt>
      <trkpt lat="49.79232" lon="2.4051">
        <ele>83</ele>
        <time>2024-07-24T07:35:22Z</time>
      </trkpt>
      <trkpt lat="49.79231" lon="2.4051">
        <ele>83.1</ele>
        <time>2024-07-24T07:35:23Z</time>
      </trkpt>
      <trkpt lat="49.7923" lon="2.40511">
        <ele>83.1</ele>
        <time>2024-07-24T07:35:24Z</time>
      </trkpt>
      <trkpt lat="49.79229" lon="2.40511">
        <ele>83.2</ele>
        <time>2024-07-24T07:35:25Z</time>
      </trkpt>
      <trkpt lat="49.79228" lon="2.40512">
        <ele>83.2</ele>
        <time>2024-07-24T07:35:26Z</time>
      </trkpt>
      <trkpt lat="49.79227" lon="2.40513">
        <ele>83.2</ele>
        <time>2024-07-24T07:35:27Z</time>
      </trkpt>
      <trkpt lat="49.79226" lon="2.40513">
        <ele>83.3</ele>
        <time>2024-07-24T07:35:28Z</time>
      </trkpt>
      <trkpt lat="49.79225" lon="2.40513">
        <ele>83.3</ele>
        <time>2024-07-24T07:35:29Z</time>
      </trkpt>
      <trkpt lat="49.79224" lon="2.40514">
        <ele>83.3</ele>
        <time>2024-07-24T07:35:30Z</time>
      </trkpt>
      <trkpt lat="49.79223" lon="2.40514">
        <ele>83.4</ele>
        <time>2024-07-24T07:35:31Z</time>
      </trkpt>
      <trkpt lat="49.79222" lon="2.40515">
        <ele>83.4</ele>
        <time>2024-07-24T07:35:32Z</time>
      </trkpt>
      <trkpt lat="49.79221" lon="2.40515">
        <ele>83.5</ele>
        <time>2024-07-24T07:35:33Z</time>
      </trkpt>
      <trkpt lat="49.7922" lon="2.40516">
        <ele>83.5</ele>
        <time>2024-07-24T07:35:34Z</time>
      </trkpt>
      <trkpt lat="49.79219" lon="2.40516">
        <ele>83.6</ele>
        <time>2024-07-24T07:35:35Z</time>
      </trkpt>
      <trkpt lat="49.79218" lon="2.40517">
        <ele>83.6</ele>
        <time>2024-07-24T07:35:36Z</time>
      </trkpt>
      <trkpt lat="49.79217" lon="2.40517">
        <ele>83.6</ele>
        <time>2024-07-24T07:35:37Z</time>
      </trkpt>
      <trkpt lat="49.79216" lon="2.40518">
        <ele>83.7</ele>
        <time>2024-07-24T07:35:38Z</time>
      </trkpt>
      <trkpt lat="49.79215" lon="2.40518">
        <ele>83.7</ele>
        <time>2024-07-24T07:35:39Z</time>
      </trkpt>
      <trkpt lat="49.79215" lon="2.40519">
        <ele>83.7</ele>
        <time>2024-07-24T07:35:40Z</time>
      </trkpt>
      <trkpt lat="49.79214" lon="2.40519">
        <ele>83.7</ele>
        <time>2024-07-24T07:35:41Z</time>
      </trkpt>
      <trkpt lat="49.79212" lon="2.4052">
        <ele>83.8</ele>
        <time>2024-07-24T07:35:42Z</time>
      </trkpt>
      <trkpt lat="49.79211" lon="2.4052">
        <ele>83.8</ele>
        <time>2024-07-24T07:35:43Z</time>
      </trkpt>
      <trkpt lat="49.7921" lon="2.4052">
        <ele>83.8</ele>
        <time>2024-07-24T07:35:44Z</time>
      </trkpt>
      <trkpt lat="49.79209" lon="2.4052">
        <ele>83.9</ele>
        <time>2024-07-24T07:35:45Z</time>
      </trkpt>
      <trkpt lat="49.79208" lon="2.4052">
        <ele>83.9</ele>
        <time>2024-07-24T07:35:46Z</time>
      </trkpt>
      <trkpt lat="49.79207" lon="2.4052">
        <ele>83.9</ele>
        <time>2024-07-24T07:35:47Z</time>
      </trkpt>
      <trkpt lat="49.79206" lon="2.4052">
        <ele>83.9</ele>
        <time>2024-07-24T07:35:48Z</time>
      </trkpt>
      <trkpt lat="49.79205" lon="2.4052">
        <ele>84</ele>
        <time>2024-07-24T07:35:49Z</time>
      </trkpt>
      <trkpt lat="49.79204" lon="2.4052">
        <ele>84</ele>
        <time>2024-07-24T07:35:50Z</time>
      </trkpt>
      <trkpt lat="49.79203" lon="2.4052">
        <ele>84</ele>
        <time>2024-07-24T07:35:51Z</time>
      </trkpt>
      <trkpt lat="49.79202" lon="2.4052">
        <ele>84</ele>
        <time>2024-07-24T07:35:52Z</time>
      </trkpt>
      <trkpt lat="49.79201" lon="2.4052">
        <ele>84.1</ele>
        <time>2024-07-24T07:35:53Z</time>
      </trkpt>
      <trkpt lat="49.792" lon="2.4052">
        <ele>84.1</ele>
        <time>2024-07-24T07:35:54Z</time>
      </trkpt>
      <trkpt lat="49.79199" lon="2.40521">
        <ele>84.1</ele>
        <time>2024-07-24T07:35:55Z</time>
      </trkpt>
      <trkpt lat="49.79198" lon="2.40521">
        <ele>84.1</ele>
        <time>2024-07-24T07:35:56Z</time>
      </trkpt>
      <trkpt lat="49.79197" lon="2.40521">
        <ele>84.1</ele>
        <time>2024-07-24T07:35:57Z</time>
      </trkpt>
      <trkpt lat="49.79196" lon="2.40522">
        <ele>84.1</ele>
        <time>2024-07-24T07:35:58Z</time>
      </trkpt>
      <trkpt lat="49.79195" lon="2.40522">
        <ele>84.2</ele>
        <time>2024-07-24T07:35:59Z</time>
      </trkpt>
      <trkpt lat="49.79194" lon="2.40523">
        <ele>84.2</ele>
        <time>2024-07-24T07:36:00Z</time>
      </trkpt>
      <trkpt lat="49.79193" lon="2.40523">
        <ele>84.2</ele>
        <time>2024-07-24T07:36:01Z</time>
      </trkpt>
      <trkpt lat="49.79192" lon="2.40523">
        <ele>84.2</ele>
        <time>2024-07-24T07:36:02Z</time>
      </trkpt>
      <trkpt lat="49.79191" lon="2.40524">
        <ele>84.2</ele>
        <time>2024-07-24T07:36:03Z</time>
      </trkpt>
      <trkpt lat="49.7919" lon="2.40524">
        <ele>84.3</ele>
        <time>2024-07-24T07:36:04Z</time>
      </trkpt>
      <trkpt lat="49.79189" lon="2.40525">
        <ele>84.3</ele>
        <time>2024-07-24T07:36:05Z</time>
      </trkpt>
      <trkpt lat="49.79188" lon="2.40525">
        <ele>84.3</ele>
        <time>2024-07-24T07:36:06Z</time>
      </trkpt>
      <trkpt lat="49.79187" lon="2.40526">
        <ele>84.3</ele>
        <time>2024-07-24T07:36:07Z</time>
      </trkpt>
      <trkpt lat="49.79186" lon="2.40526">
        <ele>84.3</ele>
        <time>2024-07-24T07:36:08Z</time>
      </trkpt>
      <trkpt lat="49.79185" lon="2.40526">
        <ele>84.4</ele>
        <time>2024-07-24T07:36:09Z</time>
      </trkpt>
      <trkpt lat="49.79184" lon="2.40527">
        <ele>84.4</ele>
        <time>2024-07-24T07:36:10Z</time>
      </trkpt>
      <trkpt lat="49.79184" lon="2.40527">
        <ele>84.4</ele>
        <time>2024-07-24T07:36:11Z</time>
      </trkpt>
      <trkpt lat="49.79183" lon="2.40527">
        <ele>84.4</ele>
        <time>2024-07-24T07:36:12Z</time>
      </trkpt>
      <trkpt lat="49.79182" lon="2.40527">
        <ele>84.4</ele>
        <time>2024-07-24T07:36:13Z</time>
      </trkpt>
      <trkpt lat="49.79181" lon="2.40527">
        <ele>84.4</ele>
        <time>2024-07-24T07:36:14Z</time>
      </trkpt>
      <trkpt lat="49.7918" lon="2.40528">
        <ele>84.4</ele>
        <time>2024-07-24T07:36:15Z</time>
      </trkpt>
      <trkpt lat="49.79179" lon="2.40528">
        <ele>84.5</ele>
        <time>2024-07-24T07:36:16Z</time>
      </trkpt>
      <trkpt lat="49.79178" lon="2.40528">
        <ele>84.5</ele>
        <time>2024-07-24T07:36:17Z</time>
      </trkpt>
      <trkpt lat="49.79176" lon="2.40529">
        <ele>84.5</ele>
        <time>2024-07-24T07:36:18Z</time>
      </trkpt>
      <trkpt lat="49.79175" lon="2.40529">
        <ele>84.5</ele>
        <time>2024-07-24T07:36:19Z</time>
      </trkpt>
      <trkpt lat="49.79174" lon="2.40529">
        <ele>84.5</ele>
        <time>2024-07-24T07:36:20Z</time>
      </trkpt>
      <trkpt lat="49.79173" lon="2.4053">
        <ele>84.5</ele>
        <time>2024-07-24T07:36:21Z</time>
      </trkpt>
      <trkpt lat="49.79172" lon="2.4053">
        <ele>84.5</ele>
        <time>2024-07-24T07:36:22Z</time>
      </trkpt>
      <trkpt lat="49.79171" lon="2.4053">
        <ele>84.5</ele>
        <time>2024-07-24T07:36:23Z</time>
      </trkpt>
      <trkpt lat="49.7917" lon="2.40531">
        <ele>84.5</ele>
        <time>2024-07-24T07:36:24Z</time>
      </trkpt>
      <trkpt lat="49.79169" lon="2.40531">
        <ele>84.5</ele>
        <time>2024-07-24T07:36:25Z</time>
      </trkpt>
      <trkpt lat="49.79167" lon="2.40532">
        <ele>84.5</ele>
        <time>2024-07-24T07:36:26Z</time>
      </trkpt>
      <trkpt lat="49.79167" lon="2.40532">
        <ele>84.5</ele>
        <time>2024-07-24T07:36:27Z</time>
      </trkpt>
      <trkpt lat="49.79166" lon="2.40532">
        <ele>84.5</ele>
        <time>2024-07-24T07:36:28Z</time>
      </trkpt>
      <trkpt lat="49.79164" lon="2.40533">
        <ele>84.5</ele>
        <time>2024-07-24T07:36:29Z</time>
      </trkpt>
      <trkpt lat="49.79163" lon="2.40533">
        <ele>84.5</ele>
        <time>2024-07-24T07:36:30Z</time>
      </trkpt>
      <trkpt lat="49.79162" lon="2.40533">
        <ele>84.5</ele>
        <time>2024-07-24T07:36:31Z</time>
      </trkpt>
      <trkpt lat="49.79161" lon="2.40534">
        <ele>84.5</ele>
        <time>2024-07-24T07:36:32Z</time>
      </trkpt>
      <trkpt lat="49.7916" lon="2.40534">
        <ele>84.5</ele>
        <time>2024-07-24T07:36:33Z</time>
      </trkpt>
      <trkpt lat="49.79159" lon="2.40534">
        <ele>84.5</ele>
        <time>2024-07-24T07:36:34Z</time>
      </trkpt>
      <trkpt lat="49.79158" lon="2.40535">
        <ele>84.5</ele>
        <time>2024-07-24T07:36:35Z</time>
      </trkpt>
      <trkpt lat="49.79156" lon="2.40535">
        <ele>84.5</ele>
        <time>2024-07-24T07:36:36Z</time>
      </trkpt>
      <trkpt lat="49.79155" lon="2.40536">
        <ele>84.5</ele>
        <time>2024-07-24T07:36:37Z</time>
      </trkpt>
      <trkpt lat="49.79154" lon="2.40536">
        <ele>84.5</ele>
        <time>2024-07-24T07:36:38Z</time>
      </trkpt>
      <trkpt lat="49.79152" lon="2.40537">
        <ele>84.4</ele>
        <time>2024-07-24T07:36:39Z</time>
      </trkpt>
      <trkpt lat="49.79152" lon="2.40537">
        <ele>84.4</ele>
        <time>2024-07-24T07:36:40Z</time>
      </trkpt>
      <trkpt lat="49.79151" lon="2.40537">
        <ele>84.4</ele>
        <time>2024-07-24T07:36:41Z</time>
      </trkpt>
      <trkpt lat="49.7915" lon="2.40538">
        <ele>84.4</ele>
        <time>2024-07-24T07:36:42Z</time>
      </trkpt>
      <trkpt lat="49.79149" lon="2.40538">
        <ele>84.4</ele>
        <time>2024-07-24T07:36:43Z</time>
      </trkpt>
      <trkpt lat="49.79148" lon="2.40538">
        <ele>84.4</ele>
        <time>2024-07-24T07:36:44Z</time>
      </trkpt>
      <trkpt lat="49.79147" lon="2.40539">
        <ele>84.4</ele>
        <time>2024-07-24T07:36:45Z</time>
      </trkpt>
      <trkpt lat="49.79146" lon="2.40539">
        <ele>84.3</ele>
        <time>2024-07-24T07:36:46Z</time>
      </trkpt>
      <trkpt lat="49.79144" lon="2.4054">
        <ele>84.3</ele>
        <time>2024-07-24T07:36:47Z</time>
      </trkpt>
      <trkpt lat="49.79143" lon="2.4054">
        <ele>84.3</ele>
        <time>2024-07-24T07:36:48Z</time>
      </trkpt>
      <trkpt lat="49.79142" lon="2.40541">
        <ele>84.3</ele>
        <time>2024-07-24T07:36:49Z</time>
      </trkpt>
      <trkpt lat="49.79141" lon="2.40541">
        <ele>84.2</ele>
        <time>2024-07-24T07:36:50Z</time>
      </trkpt>
      <trkpt lat="49.7914" lon="2.40542">
        <ele>84.2</ele>
        <time>2024-07-24T07:36:51Z</time>
      </trkpt>
      <trkpt lat="49.79139" lon="2.40542">
        <ele>84.2</ele>
        <time>2024-07-24T07:36:52Z</time>
      </trkpt>
      <trkpt lat="49.79138" lon="2.40542">
        <ele>84.2</ele>
        <time>2024-07-24T07:36:53Z</time>
      </trkpt>
      <trkpt lat="49.79137" lon="2.40543">
        <ele>84.2</ele>
        <time>2024-07-24T07:36:54Z</time>
      </trkpt>
      <trkpt lat="49.79136" lon="2.40543">
        <ele>84.1</ele>
        <time>2024-07-24T07:36:55Z</time>
      </trkpt>
      <trkpt lat="49.79135" lon="2.40543">
        <ele>84.1</ele>
        <time>2024-07-24T07:36:56Z</time>
      </trkpt>
      <trkpt lat="49.79134" lon="2.40543">
        <ele>84.1</ele>
        <time>2024-07-24T07:36:57Z</time>
      </trkpt>
      <trkpt lat="49.79133" lon="2.40544">
        <ele>84.1</ele>
        <time>2024-07-24T07:36:58Z</time>
      </trkpt>
      <trkpt lat="49.79132" lon="2.40544">
        <ele>84</ele>
        <time>2024-07-24T07:36:59Z</time>
      </trkpt>
      <trkpt lat="49.79131" lon="2.40544">
        <ele>84</ele>
        <time>2024-07-24T07:37:00Z</time>
      </trkpt>
      <trkpt lat="49.79129" lon="2.40545">
        <ele>84</ele>
        <time>2024-07-24T07:37:01Z</time>
      </trkpt>
      <trkpt lat="49.79129" lon="2.40545">
        <ele>83.9</ele>
        <time>2024-07-24T07:37:02Z</time>
      </trkpt>
      <trkpt lat="49.79127" lon="2.40545">
        <ele>83.9</ele>
        <time>2024-07-24T07:37:03Z</time>
      </trkpt>
      <trkpt lat="49.79126" lon="2.40545">
        <ele>83.9</ele>
        <time>2024-07-24T07:37:04Z</time>
      </trkpt>
      <trkpt lat="49.79125" lon="2.40546">
        <ele>83.8</ele>
        <time>2024-07-24T07:37:05Z</time>
      </trkpt>
      <trkpt lat="49.79124" lon="2.40546">
        <ele>83.8</ele>
        <time>2024-07-24T07:37:06Z</time>
      </trkpt>
      <trkpt lat="49.79123" lon="2.40546">
        <ele>83.7</ele>
        <time>2024-07-24T07:37:07Z</time>
      </trkpt>
      <trkpt lat="49.79122" lon="2.40547">
        <ele>83.7</ele>
        <time>2024-07-24T07:37:08Z</time>
      </trkpt>
      <trkpt lat="49.7912" lon="2.40547">
        <ele>83.6</ele>
        <time>2024-07-24T07:37:09Z</time>
      </trkpt>
      <trkpt lat="49.79119" lon="2.40547">
        <ele>83.6</ele>
        <time>2024-07-24T07:37:10Z</time>
      </trkpt>
      <trkpt lat="49.79118" lon="2.40548">
        <ele>83.6</ele>
        <time>2024-07-24T07:37:11Z</time>
      </trkpt>
      <trkpt lat="49.79118" lon="2.40548">
        <ele>83.5</ele>
        <time>2024-07-24T07:37:12Z</time>
      </trkpt>
      <trkpt lat="49.79117" lon="2.40548">
        <ele>83.5</ele>
        <time>2024-07-24T07:37:13Z</time>
      </trkpt>
      <trkpt lat="49.79116" lon="2.40549">
        <ele>83.5</ele>
        <time>2024-07-24T07:37:14Z</time>
      </trkpt>
      <trkpt lat="49.79115" lon="2.40549">
        <ele>83.4</ele>
        <time>2024-07-24T07:37:15Z</time>
      </trkpt>
      <trkpt lat="49.79113" lon="2.40549">
        <ele>83.3</ele>
        <time>2024-07-24T07:37:16Z</time>
      </trkpt>
      <trkpt lat="49.79113" lon="2.4055">
        <ele>83.3</ele>
        <time>2024-07-24T07:37:17Z</time>
      </trkpt>
      <trkpt lat="49.79112" lon="2.4055">
        <ele>83.3</ele>
        <time>2024-07-24T07:37:18Z</time>
      </trkpt>
      <trkpt lat="49.7911" lon="2.4055">
        <ele>83.2</ele>
        <time>2024-07-24T07:37:19Z</time>
      </trkpt>
      <trkpt lat="49.79109" lon="2.40551">
        <ele>83.1</ele>
        <time>2024-07-24T07:37:20Z</time>
      </trkpt>
      <trkpt lat="49.79108" lon="2.40551">
        <ele>83.1</ele>
        <time>2024-07-24T07:37:21Z</time>
      </trkpt>
      <trkpt lat="49.79107" lon="2.40551">
        <ele>83.1</ele>
        <time>2024-07-24T07:37:22Z</time>
      </trkpt>
      <trkpt lat="49.79106" lon="2.40552">
        <ele>83</ele>
        <time>2024-07-24T07:37:23Z</time>
      </trkpt>
      <trkpt lat="49.79105" lon="2.40552">
        <ele>83</ele>
        <time>2024-07-24T07:37:24Z</time>
      </trkpt>
      <trkpt lat="49.79104" lon="2.40553">
        <ele>82.9</ele>
        <time>2024-07-24T07:37:25Z</time>
      </trkpt>
      <trkpt lat="49.79104" lon="2.40553">
        <ele>82.9</ele>
        <time>2024-07-24T07:37:26Z</time>
      </trkpt>
      <trkpt lat="49.79102" lon="2.40554">
        <ele>82.8</ele>
        <time>2024-07-24T07:37:27Z</time>
      </trkpt>
      <trkpt lat="49.79101" lon="2.40554">
        <ele>82.8</ele>
        <time>2024-07-24T07:37:28Z</time>
      </trkpt>
      <trkpt lat="49.791" lon="2.40555">
        <ele>82.7</ele>
        <time>2024-07-24T07:37:29Z</time>
      </trkpt>
      <trkpt lat="49.79099" lon="2.40555">
        <ele>82.7</ele>
        <time>2024-07-24T07:37:30Z</time>
      </trkpt>
      <trkpt lat="49.79098" lon="2.40556">
        <ele>82.6</ele>
        <time>2024-07-24T07:37:31Z</time>
      </trkpt>
      <trkpt lat="49.79098" lon="2.40556">
        <ele>82.6</ele>
        <time>2024-07-24T07:37:32Z</time>
      </trkpt>
      <trkpt lat="49.79097" lon="2.40556">
        <ele>82.5</ele>
        <time>2024-07-24T07:37:33Z</time>
      </trkpt>
      <trkpt lat="49.79096" lon="2.40557">
        <ele>82.5</ele>
        <time>2024-07-24T07:37:34Z</time>
      </trkpt>
      <trkpt lat="49.79095" lon="2.40557">
        <ele>82.4</ele>
        <time>2024-07-24T07:37:35Z</time>
      </trkpt>
      <trkpt lat="49.79094" lon="2.40557">
        <ele>82.4</ele>
        <time>2024-07-24T07:37:36Z</time>
      </trkpt>
      <trkpt lat="49.79093" lon="2.40558">
        <ele>82.3</ele>
        <time>2024-07-24T07:37:37Z</time>
      </trkpt>
      <trkpt lat="49.79093" lon="2.40558">
        <ele>82.3</ele>
        <time>2024-07-24T07:37:38Z</time>
      </trkpt>
      <trkpt lat="49.79092" lon="2.40558">
        <ele>82.2</ele>
        <time>2024-07-24T07:37:39Z</time>
      </trkpt>
      <trkpt lat="49.79091" lon="2.40558">
        <ele>82.2</ele>
        <time>2024-07-24T07:37:40Z</time>
      </trkpt>
      <trkpt lat="49.7909" lon="2.40559">
        <ele>82.1</ele>
        <time>2024-07-24T07:37:41Z</time>
      </trkpt>
      <trkpt lat="49.79089" lon="2.40559">
        <ele>82.1</ele>
        <time>2024-07-24T07:37:42Z</time>
      </trkpt>
      <trkpt lat="49.79088" lon="2.40559">
        <ele>82</ele>
        <time>2024-07-24T07:37:43Z</time>
      </trkpt>
      <trkpt lat="49.79087" lon="2.4056">
        <ele>82</ele>
        <time>2024-07-24T07:37:44Z</time>
      </trkpt>
      <trkpt lat="49.79086" lon="2.4056">
        <ele>81.9</ele>
        <time>2024-07-24T07:37:45Z</time>
      </trkpt>
      <trkpt lat="49.79085" lon="2.40561">
        <ele>81.9</ele>
        <time>2024-07-24T07:37:46Z</time>
      </trkpt>
      <trkpt lat="49.79085" lon="2.40562">
        <ele>81.8</ele>
        <time>2024-07-24T07:37:47Z</time>
      </trkpt>
      <trkpt lat="49.79084" lon="2.40563">
        <ele>81.8</ele>
        <time>2024-07-24T07:37:48Z</time>
      </trkpt>
      <trkpt lat="49.79083" lon="2.40564">
        <ele>81.7</ele>
        <time>2024-07-24T07:37:49Z</time>
      </trkpt>
      <trkpt lat="49.79081" lon="2.40566">
        <ele>81.6</ele>
        <time>2024-07-24T07:37:50Z</time>
      </trkpt>
      <trkpt lat="49.79081" lon="2.40567">
        <ele>81.6</ele>
        <time>2024-07-24T07:37:51Z</time>
      </trkpt>
      <trkpt lat="49.7908" lon="2.40568">
        <ele>81.6</ele>
        <time>2024-07-24T07:37:52Z</time>
      </trkpt>
      <trkpt lat="49.79079" lon="2.4057">
        <ele>81.5</ele>
        <time>2024-07-24T07:37:53Z</time>
      </trkpt>
      <trkpt lat="49.79078" lon="2.40572">
        <ele>81.5</ele>
        <time>2024-07-24T07:37:54Z</time>
      </trkpt>
      <trkpt lat="49.79078" lon="2.40573">
        <ele>81.4</ele>
        <time>2024-07-24T07:37:55Z</time>
      </trkpt>
      <trkpt lat="49.79077" lon="2.40574">
        <ele>81.4</ele>
        <time>2024-07-24T07:37:56Z</time>
      </trkpt>
      <trkpt lat="49.79076" lon="2.40576">
        <ele>81.4</ele>
        <time>2024-07-24T07:37:57Z</time>
      </trkpt>
      <trkpt lat="49.79076" lon="2.40577">
        <ele>81.4</ele>
        <time>2024-07-24T07:37:58Z</time>
      </trkpt>
      <trkpt lat="49.79075" lon="2.40579">
        <ele>81.3</ele>
        <time>2024-07-24T07:37:59Z</time>
      </trkpt>
      <trkpt lat="49.79075" lon="2.4058">
        <ele>81.3</ele>
        <time>2024-07-24T07:38:00Z</time>
      </trkpt>
      <trkpt lat="49.79074" lon="2.40582">
        <ele>81.3</ele>
        <time>2024-07-24T07:38:01Z</time>
      </trkpt>
      <trkpt lat="49.79074" lon="2.40584">
        <ele>81.3</ele>
        <time>2024-07-24T07:38:02Z</time>
      </trkpt>
      <trkpt lat="49.79074" lon="2.40585">
        <ele>81.3</ele>
        <time>2024-07-24T07:38:03Z</time>
      </trkpt>
      <trkpt lat="49.79073" lon="2.40587">
        <ele>81.3</ele>
        <time>2024-07-24T07:38:04Z</time>
      </trkpt>
      <trkpt lat="49.79073" lon="2.40588">
        <ele>81.3</ele>
        <time>2024-07-24T07:38:05Z</time>
      </trkpt>
      <trkpt lat="49.79073" lon="2.4059">
        <ele>81.3</ele>
        <time>2024-07-24T07:38:06Z</time>
      </trkpt>
      <trkpt lat="49.79073" lon="2.40592">
        <ele>81.3</ele>
        <time>2024-07-24T07:38:07Z</time>
      </trkpt>
      <trkpt lat="49.79072" lon="2.40593">
        <ele>81.3</ele>
        <time>2024-07-24T07:38:08Z</time>
      </trkpt>
      <trkpt lat="49.79072" lon="2.40594">
        <ele>81.3</ele>
        <time>2024-07-24T07:38:09Z</time>
      </trkpt>
      <trkpt lat="49.79072" lon="2.40596">
        <ele>81.3</ele>
        <time>2024-07-24T07:38:10Z</time>
      </trkpt>
      <trkpt lat="49.79072" lon="2.40597">
        <ele>81.3</ele>
        <time>2024-07-24T07:38:11Z</time>
      </trkpt>
      <trkpt lat="49.79072" lon="2.40599">
        <ele>81.3</ele>
        <time>2024-07-24T07:38:12Z</time>
      </trkpt>
      <trkpt lat="49.79072" lon="2.406">
        <ele>81.3</ele>
        <time>2024-07-24T07:38:13Z</time>
      </trkpt>
      <trkpt lat="49.79072" lon="2.40602">
        <ele>81.3</ele>
        <time>2024-07-24T07:38:14Z</time>
      </trkpt>
      <trkpt lat="49.79072" lon="2.40603">
        <ele>81.3</ele>
        <time>2024-07-24T07:38:15Z</time>
      </trkpt>
      <trkpt lat="49.79072" lon="2.40605">
        <ele>81.4</ele>
        <time>2024-07-24T07:38:16Z</time>
      </trkpt>
      <trkpt lat="49.79072" lon="2.40606">
        <ele>81.4</ele>
        <time>2024-07-24T07:38:17Z</time>
      </trkpt>
      <trkpt lat="49.79072" lon="2.40608">
        <ele>81.4</ele>
        <time>2024-07-24T07:38:18Z</time>
      </trkpt>
      <trkpt lat="49.79072" lon="2.40609">
        <ele>81.4</ele>
        <time>2024-07-24T07:38:19Z</time>
      </trkpt>
      <trkpt lat="49.79072" lon="2.40611">
        <ele>81.5</ele>
        <time>2024-07-24T07:38:20Z</time>
      </trkpt>
      <trkpt lat="49.79072" lon="2.40612">
        <ele>81.5</ele>
        <time>2024-07-24T07:38:21Z</time>
      </trkpt>
      <trkpt lat="49.79072" lon="2.40615">
        <ele>81.6</ele>
        <time>2024-07-24T07:38:22Z</time>
      </trkpt>
      <trkpt lat="49.79072" lon="2.40616">
        <ele>81.6</ele>
        <time>2024-07-24T07:38:23Z</time>
      </trkpt>
      <trkpt lat="49.79072" lon="2.40617">
        <ele>81.6</ele>
        <time>2024-07-24T07:38:24Z</time>
      </trkpt>
      <trkpt lat="49.79072" lon="2.40618">
        <ele>81.6</ele>
        <time>2024-07-24T07:38:25Z</time>
      </trkpt>
      <trkpt lat="49.79072" lon="2.40619">
        <ele>81.7</ele>
        <time>2024-07-24T07:38:26Z</time>
      </trkpt>
      <trkpt lat="49.79073" lon="2.40621">
        <ele>81.7</ele>
        <time>2024-07-24T07:38:27Z</time>
      </trkpt>
      <trkpt lat="49.79073" lon="2.40622">
        <ele>81.8</ele>
        <time>2024-07-24T07:38:28Z</time>
      </trkpt>
      <trkpt lat="49.79073" lon="2.40623">
        <ele>81.8</ele>
        <time>2024-07-24T07:38:29Z</time>
      </trkpt>
      <trkpt lat="49.79073" lon="2.40625">
        <ele>81.9</ele>
        <time>2024-07-24T07:38:30Z</time>
      </trkpt>
      <trkpt lat="49.79073" lon="2.40626">
        <ele>81.9</ele>
        <time>2024-07-24T07:38:31Z</time>
      </trkpt>
      <trkpt lat="49.79073" lon="2.40629">
        <ele>82</ele>
        <time>2024-07-24T07:38:32Z</time>
      </trkpt>
      <trkpt lat="49.79073" lon="2.4063">
        <ele>82</ele>
        <time>2024-07-24T07:38:33Z</time>
      </trkpt>
      <trkpt lat="49.79073" lon="2.40631">
        <ele>82.1</ele>
        <time>2024-07-24T07:38:34Z</time>
      </trkpt>
      <trkpt lat="49.79073" lon="2.40632">
        <ele>82.1</ele>
        <time>2024-07-24T07:38:35Z</time>
      </trkpt>
      <trkpt lat="49.79073" lon="2.40634">
        <ele>82.2</ele>
        <time>2024-07-24T07:38:36Z</time>
      </trkpt>
      <trkpt lat="49.79073" lon="2.40635">
        <ele>82.2</ele>
        <time>2024-07-24T07:38:37Z</time>
      </trkpt>
      <trkpt lat="49.79073" lon="2.40637">
        <ele>82.3</ele>
        <time>2024-07-24T07:38:38Z</time>
      </trkpt>
      <trkpt lat="49.79073" lon="2.40638">
        <ele>82.3</ele>
        <time>2024-07-24T07:38:39Z</time>
      </trkpt>
      <trkpt lat="49.79073" lon="2.4064">
        <ele>82.4</ele>
        <time>2024-07-24T07:38:40Z</time>
      </trkpt>
      <trkpt lat="49.79073" lon="2.40641">
        <ele>82.5</ele>
        <time>2024-07-24T07:38:41Z</time>
      </trkpt>
      <trkpt lat="49.79073" lon="2.40643">
        <ele>82.6</ele>
        <time>2024-07-24T07:38:42Z</time>
      </trkpt>
      <trkpt lat="49.79074" lon="2.40644">
        <ele>82.6</ele>
        <time>2024-07-24T07:38:43Z</time>
      </trkpt>
      <trkpt lat="49.79074" lon="2.40645">
        <ele>82.7</ele>
        <time>2024-07-24T07:38:44Z</time>
      </trkpt>
      <trkpt lat="49.79074" lon="2.40647">
        <ele>82.7</ele>
        <time>2024-07-24T07:38:45Z</time>
      </trkpt>
      <trkpt lat="49.79074" lon="2.40648">
        <ele>82.8</ele>
        <time>2024-07-24T07:38:46Z</time>
      </trkpt>
      <trkpt lat="49.79074" lon="2.4065">
        <ele>82.9</ele>
        <time>2024-07-24T07:38:47Z</time>
      </trkpt>
      <trkpt lat="49.79074" lon="2.40651">
        <ele>83</ele>
        <time>2024-07-24T07:38:48Z</time>
      </trkpt>
      <trkpt lat="49.79074" lon="2.40653">
        <ele>83</ele>
        <time>2024-07-24T07:38:49Z</time>
      </trkpt>
      <trkpt lat="49.79074" lon="2.40655">
        <ele>83.1</ele>
        <time>2024-07-24T07:38:50Z</time>
      </trkpt>
      <trkpt lat="49.79075" lon="2.40656">
        <ele>83.2</ele>
        <time>2024-07-24T07:38:51Z</time>
      </trkpt>
      <trkpt lat="49.79075" lon="2.40658">
        <ele>83.3</ele>
        <time>2024-07-24T07:38:52Z</time>
      </trkpt>
      <trkpt lat="49.79075" lon="2.40659">
        <ele>83.4</ele>
        <time>2024-07-24T07:38:53Z</time>
      </trkpt>
      <trkpt lat="49.79075" lon="2.40661">
        <ele>83.4</ele>
        <time>2024-07-24T07:38:54Z</time>
      </trkpt>
      <trkpt lat="49.79075" lon="2.40662">
        <ele>83.5</ele>
        <time>2024-07-24T07:38:55Z</time>
      </trkpt>
      <trkpt lat="49.79075" lon="2.40663">
        <ele>83.6</ele>
        <time>2024-07-24T07:38:56Z</time>
      </trkpt>
      <trkpt lat="49.79075" lon="2.40665">
        <ele>83.6</ele>
        <time>2024-07-24T07:38:57Z</time>
      </trkpt>
      <trkpt lat="49.79075" lon="2.40666">
        <ele>83.7</ele>
        <time>2024-07-24T07:38:58Z</time>
      </trkpt>
      <trkpt lat="49.79075" lon="2.40667">
        <ele>83.8</ele>
        <time>2024-07-24T07:38:59Z</time>
      </trkpt>
      <trkpt lat="49.79075" lon="2.40668">
        <ele>83.8</ele>
        <time>2024-07-24T07:39:00Z</time>
      </trkpt>
      <trkpt lat="49.79075" lon="2.4067">
        <ele>83.9</ele>
        <time>2024-07-24T07:39:01Z</time>
      </trkpt>
      <trkpt lat="49.79075" lon="2.40671">
        <ele>84</ele>
        <time>2024-07-24T07:39:02Z</time>
      </trkpt>
      <trkpt lat="49.79075" lon="2.40673">
        <ele>84.1</ele>
        <time>2024-07-24T07:39:03Z</time>
      </trkpt>
      <trkpt lat="49.79075" lon="2.40674">
        <ele>84.1</ele>
        <time>2024-07-24T07:39:04Z</time>
      </trkpt>
      <trkpt lat="49.79075" lon="2.40675">
        <ele>84.2</ele>
        <time>2024-07-24T07:39:05Z</time>
      </trkpt>
      <trkpt lat="49.79074" lon="2.40677">
        <ele>84.3</ele>
        <time>2024-07-24T07:39:06Z</time>
      </trkpt>
      <trkpt lat="49.79074" lon="2.40678">
        <ele>84.4</ele>
        <time>2024-07-24T07:39:07Z</time>
      </trkpt>
      <trkpt lat="49.79074" lon="2.4068">
        <ele>84.4</ele>
        <time>2024-07-24T07:39:08Z</time>
      </trkpt>
      <trkpt lat="49.79074" lon="2.40681">
        <ele>84.5</ele>
        <time>2024-07-24T07:39:09Z</time>
      </trkpt>
      <trkpt lat="49.79074" lon="2.40682">
        <ele>84.5</ele>
        <time>2024-07-24T07:39:10Z</time>
      </trkpt>
      <trkpt lat="49.79074" lon="2.40683">
        <ele>84.6</ele>
        <time>2024-07-24T07:39:11Z</time>
      </trkpt>
      <trkpt lat="49.79074" lon="2.40684">
        <ele>84.6</ele>
        <time>2024-07-24T07:39:12Z</time>
      </trkpt>
      <trkpt lat="49.79074" lon="2.40685">
        <ele>84.7</ele>
        <time>2024-07-24T07:39:13Z</time>
      </trkpt>
      <trkpt lat="49.79074" lon="2.40686">
        <ele>84.7</ele>
        <time>2024-07-24T07:39:14Z</time>
      </trkpt>
      <trkpt lat="49.79074" lon="2.40687">
        <ele>84.8</ele>
        <time>2024-07-24T07:39:15Z</time>
      </trkpt>
      <trkpt lat="49.79074" lon="2.40688">
        <ele>84.9</ele>
        <time>2024-07-24T07:39:16Z</time>
      </trkpt>
      <trkpt lat="49.79074" lon="2.4069">
        <ele>85</ele>
        <time>2024-07-24T07:39:17Z</time>
      </trkpt>
      <trkpt lat="49.79074" lon="2.40692">
        <ele>85.1</ele>
        <time>2024-07-24T07:39:18Z</time>
      </trkpt>
      <trkpt lat="49.79074" lon="2.40693">
        <ele>85.1</ele>
        <time>2024-07-24T07:39:19Z</time>
      </trkpt>
      <trkpt lat="49.79074" lon="2.40694">
        <ele>85.2</ele>
        <time>2024-07-24T07:39:20Z</time>
      </trkpt>
      <trkpt lat="49.79074" lon="2.40695">
        <ele>85.2</ele>
        <time>2024-07-24T07:39:21Z</time>
      </trkpt>
      <trkpt lat="49.79074" lon="2.40696">
        <ele>85.3</ele>
        <time>2024-07-24T07:39:22Z</time>
      </trkpt>
      <trkpt lat="49.79074" lon="2.40698">
        <ele>85.4</ele>
        <time>2024-07-24T07:39:23Z</time>
      </trkpt>
      <trkpt lat="49.79074" lon="2.40699">
        <ele>85.4</ele>
        <time>2024-07-24T07:39:24Z</time>
      </trkpt>
      <trkpt lat="49.79074" lon="2.407">
        <ele>85.5</ele>
        <time>2024-07-24T07:39:25Z</time>
      </trkpt>
      <trkpt lat="49.79074" lon="2.407">
        <ele>85.5</ele>
        <time>2024-07-24T07:39:26Z</time>
      </trkpt>
      <trkpt lat="49.79074" lon="2.40701">
        <ele>85.6</ele>
        <time>2024-07-24T07:39:27Z</time>
      </trkpt>
      <trkpt lat="49.79073" lon="2.40702">
        <ele>85.6</ele>
        <time>2024-07-24T07:39:28Z</time>
      </trkpt>
      <trkpt lat="49.79073" lon="2.40703">
        <ele>85.7</ele>
        <time>2024-07-24T07:39:29Z</time>
      </trkpt>
      <trkpt lat="49.79073" lon="2.40704">
        <ele>85.7</ele>
        <time>2024-07-24T07:39:30Z</time>
      </trkpt>
      <trkpt lat="49.79073" lon="2.40705">
        <ele>85.8</ele>
        <time>2024-07-24T07:39:31Z</time>
      </trkpt>
      <trkpt lat="49.79073" lon="2.40706">
        <ele>85.8</ele>
        <time>2024-07-24T07:39:32Z</time>
      </trkpt>
      <trkpt lat="49.79073" lon="2.40708">
        <ele>85.9</ele>
        <time>2024-07-24T07:39:33Z</time>
      </trkpt>
      <trkpt lat="49.79073" lon="2.40709">
        <ele>85.9</ele>
        <time>2024-07-24T07:39:34Z</time>
      </trkpt>
      <trkpt lat="49.79073" lon="2.4071">
        <ele>86</ele>
        <time>2024-07-24T07:39:35Z</time>
      </trkpt>
      <trkpt lat="49.79073" lon="2.40711">
        <ele>86.1</ele>
        <time>2024-07-24T07:39:36Z</time>
      </trkpt>
      <trkpt lat="49.79073" lon="2.40712">
        <ele>86.1</ele>
        <time>2024-07-24T07:39:37Z</time>
      </trkpt>
      <trkpt lat="49.79073" lon="2.40714">
        <ele>86.2</ele>
        <time>2024-07-24T07:39:38Z</time>
      </trkpt>
      <trkpt lat="49.79073" lon="2.40715">
        <ele>86.3</ele>
        <time>2024-07-24T07:39:39Z</time>
      </trkpt>
      <trkpt lat="49.79073" lon="2.40718">
        <ele>86.4</ele>
        <time>2024-07-24T07:39:40Z</time>
      </trkpt>
      <trkpt lat="49.79073" lon="2.40719">
        <ele>86.4</ele>
        <time>2024-07-24T07:39:41Z</time>
      </trkpt>
      <trkpt lat="49.79074" lon="2.4072">
        <ele>86.5</ele>
        <time>2024-07-24T07:39:42Z</time>
      </trkpt>
      <trkpt lat="49.79074" lon="2.40721">
        <ele>86.6</ele>
        <time>2024-07-24T07:39:43Z</time>
      </trkpt>
      <trkpt lat="49.79074" lon="2.40722">
        <ele>86.6</ele>
        <time>2024-07-24T07:39:44Z</time>
      </trkpt>
      <trkpt lat="49.79074" lon="2.40723">
        <ele>86.7</ele>
        <time>2024-07-24T07:39:45Z</time>
      </trkpt>
      <trkpt lat="49.79074" lon="2.40725">
        <ele>86.7</ele>
        <time>2024-07-24T07:39:46Z</time>
      </trkpt>
      <trkpt lat="49.79074" lon="2.40726">
        <ele>86.8</ele>
        <time>2024-07-24T07:39:47Z</time>
      </trkpt>
      <trkpt lat="49.79074" lon="2.40727">
        <ele>86.9</ele>
        <time>2024-07-24T07:39:48Z</time>
      </trkpt>
      <trkpt lat="49.79074" lon="2.40728">
        <ele>86.9</ele>
        <time>2024-07-24T07:39:49Z</time>
      </trkpt>
      <trkpt lat="49.79075" lon="2.40729">
        <ele>87</ele>
        <time>2024-07-24T07:39:50Z</time>
      </trkpt>
      <trkpt lat="49.79075" lon="2.4073">
        <ele>87</ele>
        <time>2024-07-24T07:39:51Z</time>
      </trkpt>
      <trkpt lat="49.79075" lon="2.40732">
        <ele>87.1</ele>
        <time>2024-07-24T07:39:52Z</time>
      </trkpt>
      <trkpt lat="49.79075" lon="2.40733">
        <ele>87.2</ele>
        <time>2024-07-24T07:39:53Z</time>
      </trkpt>
      <trkpt lat="49.79075" lon="2.40734">
        <ele>87.2</ele>
        <time>2024-07-24T07:39:54Z</time>
      </trkpt>
      <trkpt lat="49.79075" lon="2.40735">
        <ele>87.3</ele>
        <time>2024-07-24T07:39:55Z</time>
      </trkpt>
      <trkpt lat="49.79075" lon="2.40736">
        <ele>87.3</ele>
        <time>2024-07-24T07:39:56Z</time>
      </trkpt>
      <trkpt lat="49.79075" lon="2.40738">
        <ele>87.4</ele>
        <time>2024-07-24T07:39:57Z</time>
      </trkpt>
      <trkpt lat="49.79075" lon="2.40739">
        <ele>87.5</ele>
        <time>2024-07-24T07:39:58Z</time>
      </trkpt>
      <trkpt lat="49.79075" lon="2.4074">
        <ele>87.5</ele>
        <time>2024-07-24T07:39:59Z</time>
      </trkpt>
      <trkpt lat="49.79074" lon="2.40741">
        <ele>87.6</ele>
        <time>2024-07-24T07:40:00Z</time>
      </trkpt>
      <trkpt lat="49.79074" lon="2.40742">
        <ele>87.6</ele>
        <time>2024-07-24T07:40:01Z</time>
      </trkpt>
      <trkpt lat="49.79074" lon="2.40743">
        <ele>87.7</ele>
        <time>2024-07-24T07:40:02Z</time>
      </trkpt>
      <trkpt lat="49.79074" lon="2.40745">
        <ele>87.8</ele>
        <time>2024-07-24T07:40:03Z</time>
      </trkpt>
      <trkpt lat="49.79074" lon="2.40746">
        <ele>87.9</ele>
        <time>2024-07-24T07:40:04Z</time>
      </trkpt>
      <trkpt lat="49.79073" lon="2.40748">
        <ele>88</ele>
        <time>2024-07-24T07:40:05Z</time>
      </trkpt>
      <trkpt lat="49.79073" lon="2.40749">
        <ele>88</ele>
        <time>2024-07-24T07:40:06Z</time>
      </trkpt>
      <trkpt lat="49.79073" lon="2.4075">
        <ele>88.1</ele>
        <time>2024-07-24T07:40:07Z</time>
      </trkpt>
      <trkpt lat="49.79073" lon="2.40751">
        <ele>88.2</ele>
        <time>2024-07-24T07:40:08Z</time>
      </trkpt>
      <trkpt lat="49.79073" lon="2.40752">
        <ele>88.2</ele>
        <time>2024-07-24T07:40:09Z</time>
      </trkpt>
      <trkpt lat="49.79073" lon="2.40753">
        <ele>88.3</ele>
        <time>2024-07-24T07:40:10Z</time>
      </trkpt>
      <trkpt lat="49.79073" lon="2.40754">
        <ele>88.4</ele>
        <time>2024-07-24T07:40:11Z</time>
      </trkpt>
      <trkpt lat="49.79073" lon="2.40755">
        <ele>88.4</ele>
        <time>2024-07-24T07:40:12Z</time>
      </trkpt>
      <trkpt lat="49.79073" lon="2.40757">
        <ele>88.5</ele>
        <time>2024-07-24T07:40:13Z</time>
      </trkpt>
      <trkpt lat="49.79073" lon="2.40758">
        <ele>88.6</ele>
        <time>2024-07-24T07:40:14Z</time>
      </trkpt>
      <trkpt lat="49.79073" lon="2.40759">
        <ele>88.6</ele>
        <time>2024-07-24T07:40:15Z</time>
      </trkpt>
      <trkpt lat="49.79073" lon="2.4076">
        <ele>88.7</ele>
        <time>2024-07-24T07:40:16Z</time>
      </trkpt>
      <trkpt lat="49.79073" lon="2.40761">
        <ele>88.8</ele>
        <time>2024-07-24T07:40:17Z</time>
      </trkpt>
      <trkpt lat="49.79073" lon="2.40763">
        <ele>88.9</ele>
        <time>2024-07-24T07:40:18Z</time>
      </trkpt>
      <trkpt lat="49.79073" lon="2.40764">
        <ele>88.9</ele>
        <time>2024-07-24T07:40:19Z</time>
      </trkpt>
      <trkpt lat="49.79073" lon="2.40765">
        <ele>89</ele>
        <time>2024-07-24T07:40:20Z</time>
      </trkpt>
      <trkpt lat="49.79072" lon="2.40766">
        <ele>89.1</ele>
        <time>2024-07-24T07:40:21Z</time>
      </trkpt>
      <trkpt lat="49.79072" lon="2.40767">
        <ele>89.1</ele>
        <time>2024-07-24T07:40:22Z</time>
      </trkpt>
      <trkpt lat="49.79072" lon="2.40769">
        <ele>89.2</ele>
        <time>2024-07-24T07:40:23Z</time>
      </trkpt>
      <trkpt lat="49.79072" lon="2.4077">
        <ele>89.3</ele>
        <time>2024-07-24T07:40:24Z</time>
      </trkpt>
      <trkpt lat="49.79072" lon="2.40771">
        <ele>89.3</ele>
        <time>2024-07-24T07:40:25Z</time>
      </trkpt>
      <trkpt lat="49.79072" lon="2.40772">
        <ele>89.4</ele>
        <time>2024-07-24T07:40:26Z</time>
      </trkpt>
      <trkpt lat="49.79072" lon="2.40773">
        <ele>89.5</ele>
        <time>2024-07-24T07:40:27Z</time>
      </trkpt>
      <trkpt lat="49.79072" lon="2.40774">
        <ele>89.5</ele>
        <time>2024-07-24T07:40:28Z</time>
      </trkpt>
      <trkpt lat="49.79072" lon="2.40775">
        <ele>89.6</ele>
        <time>2024-07-24T07:40:29Z</time>
      </trkpt>
      <trkpt lat="49.79072" lon="2.40776">
        <ele>89.6</ele>
        <time>2024-07-24T07:40:30Z</time>
      </trkpt>
      <trkpt lat="49.79071" lon="2.40777">
        <ele>89.7</ele>
        <time>2024-07-24T07:40:31Z</time>
      </trkpt>
      <trkpt lat="49.79071" lon="2.40778">
        <ele>89.7</ele>
        <time>2024-07-24T07:40:32Z</time>
      </trkpt>
      <trkpt lat="49.79071" lon="2.40779">
        <ele>89.8</ele>
        <time>2024-07-24T07:40:33Z</time>
      </trkpt>
      <trkpt lat="49.79071" lon="2.4078">
        <ele>89.9</ele>
        <time>2024-07-24T07:40:34Z</time>
      </trkpt>
      <trkpt lat="49.79071" lon="2.40781">
        <ele>89.9</ele>
        <time>2024-07-24T07:40:35Z</time>
      </trkpt>
      <trkpt lat="49.79071" lon="2.40783">
        <ele>90</ele>
        <time>2024-07-24T07:40:36Z</time>
      </trkpt>
      <trkpt lat="49.79071" lon="2.40784">
        <ele>90.1</ele>
        <time>2024-07-24T07:40:37Z</time>
      </trkpt>
      <trkpt lat="49.79071" lon="2.40785">
        <ele>90.1</ele>
        <time>2024-07-24T07:40:38Z</time>
      </trkpt>
      <trkpt lat="49.79071" lon="2.40787">
        <ele>90.2</ele>
        <time>2024-07-24T07:40:39Z</time>
      </trkpt>
      <trkpt lat="49.79071" lon="2.40788">
        <ele>90.3</ele>
        <time>2024-07-24T07:40:40Z</time>
      </trkpt>
      <trkpt lat="49.79071" lon="2.40789">
        <ele>90.3</ele>
        <time>2024-07-24T07:40:41Z</time>
      </trkpt>
      <trkpt lat="49.7907" lon="2.4079">
        <ele>90.4</ele>
        <time>2024-07-24T07:40:42Z</time>
      </trkpt>
      <trkpt lat="49.7907" lon="2.40792">
        <ele>90.5</ele>
        <time>2024-07-24T07:40:43Z</time>
      </trkpt>
      <trkpt lat="49.7907" lon="2.40793">
        <ele>90.6</ele>
        <time>2024-07-24T07:40:44Z</time>
      </trkpt>
      <trkpt lat="49.7907" lon="2.40794">
        <ele>90.6</ele>
        <time>2024-07-24T07:40:45Z</time>
      </trkpt>
      <trkpt lat="49.7907" lon="2.40795">
        <ele>90.7</ele>
        <time>2024-07-24T07:40:46Z</time>
      </trkpt>
      <trkpt lat="49.7907" lon="2.40797">
        <ele>90.8</ele>
        <time>2024-07-24T07:40:47Z</time>
      </trkpt>
      <trkpt lat="49.7907" lon="2.40798">
        <ele>90.8</ele>
        <time>2024-07-24T07:40:48Z</time>
      </trkpt>
      <trkpt lat="49.7907" lon="2.40799">
        <ele>90.9</ele>
        <time>2024-07-24T07:40:49Z</time>
      </trkpt>
      <trkpt lat="49.7907" lon="2.40801">
        <ele>91</ele>
        <time>2024-07-24T07:40:50Z</time>
      </trkpt>
      <trkpt lat="49.7907" lon="2.40802">
        <ele>91</ele>
        <time>2024-07-24T07:40:51Z</time>
      </trkpt>
      <trkpt lat="49.7907" lon="2.40803">
        <ele>91.1</ele>
        <time>2024-07-24T07:40:52Z</time>
      </trkpt>
      <trkpt lat="49.7907" lon="2.40804">
        <ele>91.1</ele>
        <time>2024-07-24T07:40:53Z</time>
      </trkpt>
      <trkpt lat="49.7907" lon="2.40806">
        <ele>91.2</ele>
        <time>2024-07-24T07:40:54Z</time>
      </trkpt>
      <trkpt lat="49.7907" lon="2.40807">
        <ele>91.3</ele>
        <time>2024-07-24T07:40:55Z</time>
      </trkpt>
      <trkpt lat="49.79069" lon="2.40808">
        <ele>91.4</ele>
        <time>2024-07-24T07:40:56Z</time>
      </trkpt>
      <trkpt lat="49.79069" lon="2.4081">
        <ele>91.4</ele>
        <time>2024-07-24T07:40:57Z</time>
      </trkpt>
      <trkpt lat="49.79069" lon="2.40811">
        <ele>91.5</ele>
        <time>2024-07-24T07:40:58Z</time>
      </trkpt>
      <trkpt lat="49.79069" lon="2.40813">
        <ele>91.6</ele>
        <time>2024-07-24T07:40:59Z</time>
      </trkpt>
      <trkpt lat="49.79069" lon="2.40814">
        <ele>91.6</ele>
        <time>2024-07-24T07:41:00Z</time>
      </trkpt>
      <trkpt lat="49.79069" lon="2.40815">
        <ele>91.7</ele>
        <time>2024-07-24T07:41:01Z</time>
      </trkpt>
      <trkpt lat="49.79069" lon="2.40816">
        <ele>91.7</ele>
        <time>2024-07-24T07:41:02Z</time>
      </trkpt>
      <trkpt lat="49.79069" lon="2.40818">
        <ele>91.8</ele>
        <time>2024-07-24T07:41:03Z</time>
      </trkpt>
      <trkpt lat="49.79069" lon="2.40819">
        <ele>91.9</ele>
        <time>2024-07-24T07:41:04Z</time>
      </trkpt>
      <trkpt lat="49.79069" lon="2.4082">
        <ele>91.9</ele>
        <time>2024-07-24T07:41:05Z</time>
      </trkpt>
      <trkpt lat="49.79069" lon="2.40821">
        <ele>92</ele>
        <time>2024-07-24T07:41:06Z</time>
      </trkpt>
      <trkpt lat="49.79069" lon="2.40823">
        <ele>92</ele>
        <time>2024-07-24T07:41:07Z</time>
      </trkpt>
      <trkpt lat="49.79069" lon="2.40824">
        <ele>92.1</ele>
        <time>2024-07-24T07:41:08Z</time>
      </trkpt>
      <trkpt lat="49.79069" lon="2.40825">
        <ele>92.2</ele>
        <time>2024-07-24T07:41:09Z</time>
      </trkpt>
      <trkpt lat="49.79069" lon="2.40826">
        <ele>92.2</ele>
        <time>2024-07-24T07:41:10Z</time>
      </trkpt>
      <trkpt lat="49.79069" lon="2.40827">
        <ele>92.3</ele>
        <time>2024-07-24T07:41:11Z</time>
      </trkpt>
      <trkpt lat="49.79069" lon="2.40828">
        <ele>92.3</ele>
        <time>2024-07-24T07:41:12Z</time>
      </trkpt>
      <trkpt lat="49.79069" lon="2.40829">
        <ele>92.4</ele>
        <time>2024-07-24T07:41:13Z</time>
      </trkpt>
      <trkpt lat="49.79069" lon="2.40831">
        <ele>92.4</ele>
        <time>2024-07-24T07:41:14Z</time>
      </trkpt>
      <trkpt lat="49.79069" lon="2.40832">
        <ele>92.5</ele>
        <time>2024-07-24T07:41:15Z</time>
      </trkpt>
      <trkpt lat="49.79069" lon="2.40833">
        <ele>92.5</ele>
        <time>2024-07-24T07:41:16Z</time>
      </trkpt>
      <trkpt lat="49.79069" lon="2.40834">
        <ele>92.6</ele>
        <time>2024-07-24T07:41:17Z</time>
      </trkpt>
      <trkpt lat="49.79069" lon="2.40836">
        <ele>92.6</ele>
        <time>2024-07-24T07:41:18Z</time>
      </trkpt>
      <trkpt lat="49.79069" lon="2.40837">
        <ele>92.7</ele>
        <time>2024-07-24T07:41:19Z</time>
      </trkpt>
      <trkpt lat="49.79069" lon="2.40838">
        <ele>92.8</ele>
        <time>2024-07-24T07:41:20Z</time>
      </trkpt>
      <trkpt lat="49.79069" lon="2.40839">
        <ele>92.8</ele>
        <time>2024-07-24T07:41:21Z</time>
      </trkpt>
      <trkpt lat="49.79069" lon="2.4084">
        <ele>92.9</ele>
        <time>2024-07-24T07:41:22Z</time>
      </trkpt>
      <trkpt lat="49.79069" lon="2.40842">
        <ele>92.9</ele>
        <time>2024-07-24T07:41:23Z</time>
      </trkpt>
      <trkpt lat="49.79069" lon="2.40844">
        <ele>93</ele>
        <time>2024-07-24T07:41:24Z</time>
      </trkpt>
      <trkpt lat="49.79069" lon="2.40845">
        <ele>93.1</ele>
        <time>2024-07-24T07:41:25Z</time>
      </trkpt>
      <trkpt lat="49.79069" lon="2.40846">
        <ele>93.1</ele>
        <time>2024-07-24T07:41:26Z</time>
      </trkpt>
      <trkpt lat="49.79069" lon="2.40847">
        <ele>93.2</ele>
        <time>2024-07-24T07:41:27Z</time>
      </trkpt>
      <trkpt lat="49.79068" lon="2.40849">
        <ele>93.3</ele>
        <time>2024-07-24T07:41:28Z</time>
      </trkpt>
      <trkpt lat="49.79069" lon="2.4085">
        <ele>93.3</ele>
        <time>2024-07-24T07:41:29Z</time>
      </trkpt>
      <trkpt lat="49.79068" lon="2.40851">
        <ele>93.4</ele>
        <time>2024-07-24T07:41:30Z</time>
      </trkpt>
      <trkpt lat="49.79068" lon="2.40853">
        <ele>93.5</ele>
        <time>2024-07-24T07:41:31Z</time>
      </trkpt>
      <trkpt lat="49.79068" lon="2.40854">
        <ele>93.5</ele>
        <time>2024-07-24T07:41:32Z</time>
      </trkpt>
      <trkpt lat="49.79068" lon="2.40855">
        <ele>93.6</ele>
        <time>2024-07-24T07:41:33Z</time>
      </trkpt>
      <trkpt lat="49.79068" lon="2.40857">
        <ele>93.6</ele>
        <time>2024-07-24T07:41:34Z</time>
      </trkpt>
      <trkpt lat="49.79068" lon="2.40858">
        <ele>93.7</ele>
        <time>2024-07-24T07:41:35Z</time>
      </trkpt>
      <trkpt lat="49.79068" lon="2.4086">
        <ele>93.8</ele>
        <time>2024-07-24T07:41:36Z</time>
      </trkpt>
      <trkpt lat="49.79068" lon="2.40861">
        <ele>93.8</ele>
        <time>2024-07-24T07:41:37Z</time>
      </trkpt>
      <trkpt lat="49.79068" lon="2.40863">
        <ele>93.9</ele>
        <time>2024-07-24T07:41:38Z</time>
      </trkpt>
      <trkpt lat="49.79068" lon="2.40865">
        <ele>94</ele>
        <time>2024-07-24T07:41:39Z</time>
      </trkpt>
      <trkpt lat="49.79068" lon="2.40867">
        <ele>94.1</ele>
        <time>2024-07-24T07:41:40Z</time>
      </trkpt>
      <trkpt lat="49.79067" lon="2.40869">
        <ele>94.2</ele>
        <time>2024-07-24T07:41:41Z</time>
      </trkpt>
      <trkpt lat="49.79067" lon="2.4087">
        <ele>94.2</ele>
        <time>2024-07-24T07:41:42Z</time>
      </trkpt>
      <trkpt lat="49.79067" lon="2.40872">
        <ele>94.3</ele>
        <time>2024-07-24T07:41:43Z</time>
      </trkpt>
      <trkpt lat="49.79067" lon="2.40873">
        <ele>94.4</ele>
        <time>2024-07-24T07:41:44Z</time>
      </trkpt>
      <trkpt lat="49.79067" lon="2.40874">
        <ele>94.4</ele>
        <time>2024-07-24T07:41:45Z</time>
      </trkpt>
      <trkpt lat="49.79067" lon="2.40875">
        <ele>94.5</ele>
        <time>2024-07-24T07:41:46Z</time>
      </trkpt>
      <trkpt lat="49.79066" lon="2.40877">
        <ele>94.6</ele>
        <time>2024-07-24T07:41:47Z</time>
      </trkpt>
      <trkpt lat="49.79066" lon="2.40879">
        <ele>94.6</ele>
        <time>2024-07-24T07:41:48Z</time>
      </trkpt>
      <trkpt lat="49.79066" lon="2.4088">
        <ele>94.7</ele>
        <time>2024-07-24T07:41:49Z</time>
      </trkpt>
      <trkpt lat="49.79066" lon="2.40881">
        <ele>94.7</ele>
        <time>2024-07-24T07:41:50Z</time>
      </trkpt>
      <trkpt lat="49.79065" lon="2.40882">
        <ele>94.8</ele>
        <time>2024-07-24T07:41:51Z</time>
      </trkpt>
      <trkpt lat="49.79065" lon="2.40883">
        <ele>94.8</ele>
        <time>2024-07-24T07:41:52Z</time>
      </trkpt>
      <trkpt lat="49.79065" lon="2.40884">
        <ele>94.9</ele>
        <time>2024-07-24T07:41:53Z</time>
      </trkpt>
      <trkpt lat="49.79065" lon="2.40886">
        <ele>94.9</ele>
        <time>2024-07-24T07:41:54Z</time>
      </trkpt>
      <trkpt lat="49.79065" lon="2.40887">
        <ele>95</ele>
        <time>2024-07-24T07:41:55Z</time>
      </trkpt>
      <trkpt lat="49.79065" lon="2.40888">
        <ele>95</ele>
        <time>2024-07-24T07:41:56Z</time>
      </trkpt>
      <trkpt lat="49.79065" lon="2.40889">
        <ele>95.1</ele>
        <time>2024-07-24T07:41:57Z</time>
      </trkpt>
      <trkpt lat="49.79065" lon="2.4089">
        <ele>95.1</ele>
        <time>2024-07-24T07:41:58Z</time>
      </trkpt>
      <trkpt lat="49.79065" lon="2.40891">
        <ele>95.2</ele>
        <time>2024-07-24T07:41:59Z</time>
      </trkpt>
      <trkpt lat="49.79065" lon="2.40892">
        <ele>95.3</ele>
        <time>2024-07-24T07:42:00Z</time>
      </trkpt>
      <trkpt lat="49.79065" lon="2.40894">
        <ele>95.3</ele>
        <time>2024-07-24T07:42:01Z</time>
      </trkpt>
      <trkpt lat="49.79065" lon="2.40895">
        <ele>95.4</ele>
        <time>2024-07-24T07:42:02Z</time>
      </trkpt>
      <trkpt lat="49.79065" lon="2.40896">
        <ele>95.4</ele>
        <time>2024-07-24T07:42:03Z</time>
      </trkpt>
      <trkpt lat="49.79065" lon="2.40898">
        <ele>95.5</ele>
        <time>2024-07-24T07:42:04Z</time>
      </trkpt>
      <trkpt lat="49.79065" lon="2.409">
        <ele>95.6</ele>
        <time>2024-07-24T07:42:05Z</time>
      </trkpt>
      <trkpt lat="49.79065" lon="2.40901">
        <ele>95.6</ele>
        <time>2024-07-24T07:42:06Z</time>
      </trkpt>
      <trkpt lat="49.79065" lon="2.40902">
        <ele>95.7</ele>
        <time>2024-07-24T07:42:07Z</time>
      </trkpt>
      <trkpt lat="49.79065" lon="2.40903">
        <ele>95.7</ele>
        <time>2024-07-24T07:42:08Z</time>
      </trkpt>
      <trkpt lat="49.79065" lon="2.40904">
        <ele>95.8</ele>
        <time>2024-07-24T07:42:09Z</time>
      </trkpt>
      <trkpt lat="49.79065" lon="2.40906">
        <ele>95.9</ele>
        <time>2024-07-24T07:42:10Z</time>
      </trkpt>
      <trkpt lat="49.79065" lon="2.40907">
        <ele>95.9</ele>
        <time>2024-07-24T07:42:11Z</time>
      </trkpt>
      <trkpt lat="49.79065" lon="2.40908">
        <ele>95.9</ele>
        <time>2024-07-24T07:42:12Z</time>
      </trkpt>
      <trkpt lat="49.79065" lon="2.40909">
        <ele>96</ele>
        <time>2024-07-24T07:42:13Z</time>
      </trkpt>
      <trkpt lat="49.79065" lon="2.4091">
        <ele>96</ele>
        <time>2024-07-24T07:42:14Z</time>
      </trkpt>
      <trkpt lat="49.79065" lon="2.40912">
        <ele>96.1</ele>
        <time>2024-07-24T07:42:15Z</time>
      </trkpt>
      <trkpt lat="49.79065" lon="2.40913">
        <ele>96.2</ele>
        <time>2024-07-24T07:42:16Z</time>
      </trkpt>
      <trkpt lat="49.79065" lon="2.40914">
        <ele>96.2</ele>
        <time>2024-07-24T07:42:17Z</time>
      </trkpt>
      <trkpt lat="49.79064" lon="2.40916">
        <ele>96.3</ele>
        <time>2024-07-24T07:42:18Z</time>
      </trkpt>
      <trkpt lat="49.79064" lon="2.40917">
        <ele>96.3</ele>
        <time>2024-07-24T07:42:19Z</time>
      </trkpt>
      <trkpt lat="49.79064" lon="2.40919">
        <ele>96.4</ele>
        <time>2024-07-24T07:42:20Z</time>
      </trkpt>
      <trkpt lat="49.79064" lon="2.4092">
        <ele>96.5</ele>
        <time>2024-07-24T07:42:21Z</time>
      </trkpt>
      <trkpt lat="49.79064" lon="2.40922">
        <ele>96.5</ele>
        <time>2024-07-24T07:42:22Z</time>
      </trkpt>
      <trkpt lat="49.79063" lon="2.40923">
        <ele>96.6</ele>
        <time>2024-07-24T07:42:23Z</time>
      </trkpt>
      <trkpt lat="49.79063" lon="2.40924">
        <ele>96.6</ele>
        <time>2024-07-24T07:42:24Z</time>
      </trkpt>
      <trkpt lat="49.79063" lon="2.40925">
        <ele>96.7</ele>
        <time>2024-07-24T07:42:25Z</time>
      </trkpt>
      <trkpt lat="49.79063" lon="2.40926">
        <ele>96.7</ele>
        <time>2024-07-24T07:42:26Z</time>
      </trkpt>
      <trkpt lat="49.79063" lon="2.40928">
        <ele>96.8</ele>
        <time>2024-07-24T07:42:27Z</time>
      </trkpt>
      <trkpt lat="49.79062" lon="2.40929">
        <ele>96.8</ele>
        <time>2024-07-24T07:42:28Z</time>
      </trkpt>
      <trkpt lat="49.79062" lon="2.4093">
        <ele>96.9</ele>
        <time>2024-07-24T07:42:29Z</time>
      </trkpt>
      <trkpt lat="49.79062" lon="2.40931">
        <ele>96.9</ele>
        <time>2024-07-24T07:42:30Z</time>
      </trkpt>
      <trkpt lat="49.79062" lon="2.40932">
        <ele>97</ele>
        <time>2024-07-24T07:42:31Z</time>
      </trkpt>
      <trkpt lat="49.79062" lon="2.40933">
        <ele>97</ele>
        <time>2024-07-24T07:42:32Z</time>
      </trkpt>
      <trkpt lat="49.79062" lon="2.40934">
        <ele>97</ele>
        <time>2024-07-24T07:42:33Z</time>
      </trkpt>
      <trkpt lat="49.79062" lon="2.40935">
        <ele>97.1</ele>
        <time>2024-07-24T07:42:34Z</time>
      </trkpt>
      <trkpt lat="49.79062" lon="2.40936">
        <ele>97.1</ele>
        <time>2024-07-24T07:42:35Z</time>
      </trkpt>
      <trkpt lat="49.79062" lon="2.40937">
        <ele>97.2</ele>
        <time>2024-07-24T07:42:36Z</time>
      </trkpt>
      <trkpt lat="49.79062" lon="2.40939">
        <ele>97.2</ele>
        <time>2024-07-24T07:42:37Z</time>
      </trkpt>
      <trkpt lat="49.79062" lon="2.4094">
        <ele>97.3</ele>
        <time>2024-07-24T07:42:38Z</time>
      </trkpt>
      <trkpt lat="49.79063" lon="2.40941">
        <ele>97.3</ele>
        <time>2024-07-24T07:42:39Z</time>
      </trkpt>
      <trkpt lat="49.79063" lon="2.40942">
        <ele>97.3</ele>
        <time>2024-07-24T07:42:40Z</time>
      </trkpt>
      <trkpt lat="49.79063" lon="2.40943">
        <ele>97.4</ele>
        <time>2024-07-24T07:42:41Z</time>
      </trkpt>
      <trkpt lat="49.79063" lon="2.40944">
        <ele>97.4</ele>
        <time>2024-07-24T07:42:42Z</time>
      </trkpt>
      <trkpt lat="49.79063" lon="2.40946">
        <ele>97.5</ele>
        <time>2024-07-24T07:42:43Z</time>
      </trkpt>
      <trkpt lat="49.79062" lon="2.40947">
        <ele>97.5</ele>
        <time>2024-07-24T07:42:44Z</time>
      </trkpt>
      <trkpt lat="49.79062" lon="2.40948">
        <ele>97.5</ele>
        <time>2024-07-24T07:42:45Z</time>
      </trkpt>
      <trkpt lat="49.79062" lon="2.4095">
        <ele>97.6</ele>
        <time>2024-07-24T07:42:46Z</time>
      </trkpt>
      <trkpt lat="49.79062" lon="2.40951">
        <ele>97.7</ele>
        <time>2024-07-24T07:42:47Z</time>
      </trkpt>
      <trkpt lat="49.79062" lon="2.40953">
        <ele>97.7</ele>
        <time>2024-07-24T07:42:48Z</time>
      </trkpt>
      <trkpt lat="49.79061" lon="2.40955">
        <ele>97.8</ele>
        <time>2024-07-24T07:42:49Z</time>
      </trkpt>
      <trkpt lat="49.79061" lon="2.40956">
        <ele>97.8</ele>
        <time>2024-07-24T07:42:50Z</time>
      </trkpt>
      <trkpt lat="49.79061" lon="2.40957">
        <ele>97.8</ele>
        <time>2024-07-24T07:42:51Z</time>
      </trkpt>
      <trkpt lat="49.79061" lon="2.40958">
        <ele>97.9</ele>
        <time>2024-07-24T07:42:52Z</time>
      </trkpt>
      <trkpt lat="49.7906" lon="2.4096">
        <ele>97.9</ele>
        <time>2024-07-24T07:42:53Z</time>
      </trkpt>
      <trkpt lat="49.7906" lon="2.40961">
        <ele>98</ele>
        <time>2024-07-24T07:42:54Z</time>
      </trkpt>
      <trkpt lat="49.7906" lon="2.40963">
        <ele>98</ele>
        <time>2024-07-24T07:42:55Z</time>
      </trkpt>
      <trkpt lat="49.79059" lon="2.40965">
        <ele>98.1</ele>
        <time>2024-07-24T07:42:56Z</time>
      </trkpt>
      <trkpt lat="49.79059" lon="2.40966">
        <ele>98.1</ele>
        <time>2024-07-24T07:42:57Z</time>
      </trkpt>
      <trkpt lat="49.79059" lon="2.40968">
        <ele>98.2</ele>
        <time>2024-07-24T07:42:58Z</time>
      </trkpt>
      <trkpt lat="49.79058" lon="2.40969">
        <ele>98.2</ele>
        <time>2024-07-24T07:42:59Z</time>
      </trkpt>
      <trkpt lat="49.79058" lon="2.4097">
        <ele>98.3</ele>
        <time>2024-07-24T07:43:00Z</time>
      </trkpt>
      <trkpt lat="49.79058" lon="2.40971">
        <ele>98.3</ele>
        <time>2024-07-24T07:43:01Z</time>
      </trkpt>
      <trkpt lat="49.79058" lon="2.40973">
        <ele>98.3</ele>
        <time>2024-07-24T07:43:02Z</time>
      </trkpt>
      <trkpt lat="49.79058" lon="2.40975">
        <ele>98.4</ele>
        <time>2024-07-24T07:43:03Z</time>
      </trkpt>
      <trkpt lat="49.79058" lon="2.40977">
        <ele>98.4</ele>
        <time>2024-07-24T07:43:04Z</time>
      </trkpt>
      <trkpt lat="49.79058" lon="2.40978">
        <ele>98.5</ele>
        <time>2024-07-24T07:43:05Z</time>
      </trkpt>
      <trkpt lat="49.79058" lon="2.40978">
        <ele>98.5</ele>
        <time>2024-07-24T07:43:06Z</time>
      </trkpt>
      <trkpt lat="49.79057" lon="2.4098">
        <ele>98.5</ele>
        <time>2024-07-24T07:43:07Z</time>
      </trkpt>
      <trkpt lat="49.79057" lon="2.40982">
        <ele>98.6</ele>
        <time>2024-07-24T07:43:08Z</time>
      </trkpt>
      <trkpt lat="49.79057" lon="2.40983">
        <ele>98.6</ele>
        <time>2024-07-24T07:43:09Z</time>
      </trkpt>
      <trkpt lat="49.79056" lon="2.40984">
        <ele>98.6</ele>
        <time>2024-07-24T07:43:10Z</time>
      </trkpt>
      <trkpt lat="49.79056" lon="2.40985">
        <ele>98.7</ele>
        <time>2024-07-24T07:43:11Z</time>
      </trkpt>
      <trkpt lat="49.79056" lon="2.40987">
        <ele>98.7</ele>
        <time>2024-07-24T07:43:12Z</time>
      </trkpt>
      <trkpt lat="49.79056" lon="2.40988">
        <ele>98.8</ele>
        <time>2024-07-24T07:43:13Z</time>
      </trkpt>
      <trkpt lat="49.79055" lon="2.40989">
        <ele>98.8</ele>
        <time>2024-07-24T07:43:14Z</time>
      </trkpt>
      <trkpt lat="49.79055" lon="2.40991">
        <ele>98.8</ele>
        <time>2024-07-24T07:43:15Z</time>
      </trkpt>
      <trkpt lat="49.79055" lon="2.40992">
        <ele>98.9</ele>
        <time>2024-07-24T07:43:16Z</time>
      </trkpt>
      <trkpt lat="49.79055" lon="2.40994">
        <ele>98.9</ele>
        <time>2024-07-24T07:43:17Z</time>
      </trkpt>
      <trkpt lat="49.79054" lon="2.40995">
        <ele>99</ele>
        <time>2024-07-24T07:43:18Z</time>
      </trkpt>
      <trkpt lat="49.79054" lon="2.40996">
        <ele>99</ele>
        <time>2024-07-24T07:43:19Z</time>
      </trkpt>
      <trkpt lat="49.79054" lon="2.40997">
        <ele>99</ele>
        <time>2024-07-24T07:43:20Z</time>
      </trkpt>
      <trkpt lat="49.79054" lon="2.40998">
        <ele>99.1</ele>
        <time>2024-07-24T07:43:21Z</time>
      </trkpt>
      <trkpt lat="49.79053" lon="2.40999">
        <ele>99.1</ele>
        <time>2024-07-24T07:43:22Z</time>
      </trkpt>
      <trkpt lat="49.79053" lon="2.41">
        <ele>99.1</ele>
        <time>2024-07-24T07:43:23Z</time>
      </trkpt>
      <trkpt lat="49.79053" lon="2.41001">
        <ele>99.2</ele>
        <time>2024-07-24T07:43:24Z</time>
      </trkpt>
      <trkpt lat="49.79052" lon="2.41003">
        <ele>99.2</ele>
        <time>2024-07-24T07:43:25Z</time>
      </trkpt>
      <trkpt lat="49.79052" lon="2.41004">
        <ele>99.3</ele>
        <time>2024-07-24T07:43:26Z</time>
      </trkpt>
      <trkpt lat="49.79052" lon="2.41005">
        <ele>99.3</ele>
        <time>2024-07-24T07:43:27Z</time>
      </trkpt>
      <trkpt lat="49.79052" lon="2.41007">
        <ele>99.3</ele>
        <time>2024-07-24T07:43:28Z</time>
      </trkpt>
      <trkpt lat="49.79051" lon="2.41008">
        <ele>99.4</ele>
        <time>2024-07-24T07:43:29Z</time>
      </trkpt>
      <trkpt lat="49.79051" lon="2.41009">
        <ele>99.4</ele>
        <time>2024-07-24T07:43:30Z</time>
      </trkpt>
      <trkpt lat="49.79051" lon="2.41011">
        <ele>99.5</ele>
        <time>2024-07-24T07:43:31Z</time>
      </trkpt>
      <trkpt lat="49.79051" lon="2.41012">
        <ele>99.5</ele>
        <time>2024-07-24T07:43:32Z</time>
      </trkpt>
      <trkpt lat="49.79051" lon="2.41013">
        <ele>99.6</ele>
        <time>2024-07-24T07:43:33Z</time>
      </trkpt>
      <trkpt lat="49.7905" lon="2.41015">
        <ele>99.6</ele>
        <time>2024-07-24T07:43:34Z</time>
      </trkpt>
      <trkpt lat="49.7905" lon="2.41016">
        <ele>99.6</ele>
        <time>2024-07-24T07:43:35Z</time>
      </trkpt>
      <trkpt lat="49.7905" lon="2.41017">
        <ele>99.7</ele>
        <time>2024-07-24T07:43:36Z</time>
      </trkpt>
      <trkpt lat="49.7905" lon="2.41019">
        <ele>99.7</ele>
        <time>2024-07-24T07:43:37Z</time>
      </trkpt>
      <trkpt lat="49.7905" lon="2.4102">
        <ele>99.8</ele>
        <time>2024-07-24T07:43:38Z</time>
      </trkpt>
      <trkpt lat="49.79049" lon="2.41022">
        <ele>99.8</ele>
        <time>2024-07-24T07:43:39Z</time>
      </trkpt>
      <trkpt lat="49.79049" lon="2.41023">
        <ele>99.9</ele>
        <time>2024-07-24T07:43:40Z</time>
      </trkpt>
      <trkpt lat="49.79049" lon="2.41025">
        <ele>99.9</ele>
        <time>2024-07-24T07:43:41Z</time>
      </trkpt>
      <trkpt lat="49.79049" lon="2.41026">
        <ele>100</ele>
        <time>2024-07-24T07:43:42Z</time>
      </trkpt>
      <trkpt lat="49.79048" lon="2.41027">
        <ele>100</ele>
        <time>2024-07-24T07:43:43Z</time>
      </trkpt>
      <trkpt lat="49.79048" lon="2.41029">
        <ele>100.1</ele>
        <time>2024-07-24T07:43:44Z</time>
      </trkpt>
      <trkpt lat="49.79048" lon="2.4103">
        <ele>100.1</ele>
        <time>2024-07-24T07:43:45Z</time>
      </trkpt>
      <trkpt lat="49.79048" lon="2.41031">
        <ele>100.1</ele>
        <time>2024-07-24T07:43:46Z</time>
      </trkpt>
      <trkpt lat="49.79047" lon="2.41033">
        <ele>100.2</ele>
        <time>2024-07-24T07:43:47Z</time>
      </trkpt>
      <trkpt lat="49.79047" lon="2.41034">
        <ele>100.2</ele>
        <time>2024-07-24T07:43:48Z</time>
      </trkpt>
      <trkpt lat="49.79047" lon="2.41036">
        <ele>100.3</ele>
        <time>2024-07-24T07:43:49Z</time>
      </trkpt>
      <trkpt lat="49.79047" lon="2.41037">
        <ele>100.3</ele>
        <time>2024-07-24T07:43:50Z</time>
      </trkpt>
      <trkpt lat="49.79046" lon="2.41038">
        <ele>100.4</ele>
        <time>2024-07-24T07:43:51Z</time>
      </trkpt>
      <trkpt lat="49.79046" lon="2.41039">
        <ele>100.4</ele>
        <time>2024-07-24T07:43:52Z</time>
      </trkpt>
      <trkpt lat="49.79046" lon="2.41041">
        <ele>100.5</ele>
        <time>2024-07-24T07:43:53Z</time>
      </trkpt>
      <trkpt lat="49.79045" lon="2.41042">
        <ele>100.5</ele>
        <time>2024-07-24T07:43:54Z</time>
      </trkpt>
      <trkpt lat="49.79045" lon="2.41043">
        <ele>100.5</ele>
        <time>2024-07-24T07:43:55Z</time>
      </trkpt>
      <trkpt lat="49.79045" lon="2.41045">
        <ele>100.6</ele>
        <time>2024-07-24T07:43:56Z</time>
      </trkpt>
      <trkpt lat="49.79045" lon="2.41046">
        <ele>100.6</ele>
        <time>2024-07-24T07:43:57Z</time>
      </trkpt>
      <trkpt lat="49.79045" lon="2.41047">
        <ele>100.7</ele>
        <time>2024-07-24T07:43:58Z</time>
      </trkpt>
      <trkpt lat="49.79044" lon="2.41049">
        <ele>100.7</ele>
        <time>2024-07-24T07:43:59Z</time>
      </trkpt>
      <trkpt lat="49.79044" lon="2.4105">
        <ele>100.8</ele>
        <time>2024-07-24T07:44:00Z</time>
      </trkpt>
      <trkpt lat="49.79044" lon="2.41052">
        <ele>100.8</ele>
        <time>2024-07-24T07:44:01Z</time>
      </trkpt>
      <trkpt lat="49.79044" lon="2.41053">
        <ele>100.9</ele>
        <time>2024-07-24T07:44:02Z</time>
      </trkpt>
      <trkpt lat="49.79044" lon="2.41055">
        <ele>100.9</ele>
        <time>2024-07-24T07:44:03Z</time>
      </trkpt>
      <trkpt lat="49.79044" lon="2.41056">
        <ele>101</ele>
        <time>2024-07-24T07:44:04Z</time>
      </trkpt>
      <trkpt lat="49.79044" lon="2.41057">
        <ele>101</ele>
        <time>2024-07-24T07:44:05Z</time>
      </trkpt>
      <trkpt lat="49.79044" lon="2.41059">
        <ele>101.1</ele>
        <time>2024-07-24T07:44:06Z</time>
      </trkpt>
      <trkpt lat="49.79043" lon="2.41061">
        <ele>101.1</ele>
        <time>2024-07-24T07:44:07Z</time>
      </trkpt>
      <trkpt lat="49.79043" lon="2.41062">
        <ele>101.2</ele>
        <time>2024-07-24T07:44:08Z</time>
      </trkpt>
      <trkpt lat="49.79043" lon="2.41064">
        <ele>101.2</ele>
        <time>2024-07-24T07:44:09Z</time>
      </trkpt>
      <trkpt lat="49.79043" lon="2.41066">
        <ele>101.3</ele>
        <time>2024-07-24T07:44:10Z</time>
      </trkpt>
      <trkpt lat="49.79043" lon="2.41067">
        <ele>101.3</ele>
        <time>2024-07-24T07:44:11Z</time>
      </trkpt>
      <trkpt lat="49.79043" lon="2.41069">
        <ele>101.3</ele>
        <time>2024-07-24T07:44:12Z</time>
      </trkpt>
      <trkpt lat="49.79043" lon="2.4107">
        <ele>101.4</ele>
        <time>2024-07-24T07:44:13Z</time>
      </trkpt>
      <trkpt lat="49.79043" lon="2.41071">
        <ele>101.4</ele>
        <time>2024-07-24T07:44:14Z</time>
      </trkpt>
      <trkpt lat="49.79043" lon="2.41072">
        <ele>101.5</ele>
        <time>2024-07-24T07:44:15Z</time>
      </trkpt>
      <trkpt lat="49.79043" lon="2.41074">
        <ele>101.5</ele>
        <time>2024-07-24T07:44:16Z</time>
      </trkpt>
      <trkpt lat="49.79043" lon="2.41075">
        <ele>101.5</ele>
        <time>2024-07-24T07:44:17Z</time>
      </trkpt>
      <trkpt lat="49.79043" lon="2.41076">
        <ele>101.6</ele>
        <time>2024-07-24T07:44:18Z</time>
      </trkpt>
      <trkpt lat="49.79042" lon="2.41078">
        <ele>101.6</ele>
        <time>2024-07-24T07:44:19Z</time>
      </trkpt>
      <trkpt lat="49.79042" lon="2.41079">
        <ele>101.6</ele>
        <time>2024-07-24T07:44:20Z</time>
      </trkpt>
      <trkpt lat="49.79042" lon="2.41082">
        <ele>101.7</ele>
        <time>2024-07-24T07:44:21Z</time>
      </trkpt>
      <trkpt lat="49.79042" lon="2.41083">
        <ele>101.7</ele>
        <time>2024-07-24T07:44:22Z</time>
      </trkpt>
      <trkpt lat="49.79042" lon="2.41084">
        <ele>101.8</ele>
        <time>2024-07-24T07:44:23Z</time>
      </trkpt>
      <trkpt lat="49.79041" lon="2.41085">
        <ele>101.8</ele>
        <time>2024-07-24T07:44:24Z</time>
      </trkpt>
      <trkpt lat="49.79041" lon="2.41086">
        <ele>101.8</ele>
        <time>2024-07-24T07:44:25Z</time>
      </trkpt>
      <trkpt lat="49.79041" lon="2.41087">
        <ele>101.8</ele>
        <time>2024-07-24T07:44:26Z</time>
      </trkpt>
      <trkpt lat="49.79041" lon="2.41089">
        <ele>101.9</ele>
        <time>2024-07-24T07:44:27Z</time>
      </trkpt>
      <trkpt lat="49.79041" lon="2.4109">
        <ele>101.9</ele>
        <time>2024-07-24T07:44:28Z</time>
      </trkpt>
      <trkpt lat="49.79041" lon="2.41092">
        <ele>101.9</ele>
        <time>2024-07-24T07:44:29Z</time>
      </trkpt>
      <trkpt lat="49.79041" lon="2.41094">
        <ele>102</ele>
        <time>2024-07-24T07:44:30Z</time>
      </trkpt>
      <trkpt lat="49.79041" lon="2.41095">
        <ele>102</ele>
        <time>2024-07-24T07:44:31Z</time>
      </trkpt>
      <trkpt lat="49.7904" lon="2.41097">
        <ele>102</ele>
        <time>2024-07-24T07:44:32Z</time>
      </trkpt>
      <trkpt lat="49.7904" lon="2.41099">
        <ele>102.1</ele>
        <time>2024-07-24T07:44:33Z</time>
      </trkpt>
      <trkpt lat="49.7904" lon="2.411">
        <ele>102.1</ele>
        <time>2024-07-24T07:44:34Z</time>
      </trkpt>
      <trkpt lat="49.7904" lon="2.41101">
        <ele>102.1</ele>
        <time>2024-07-24T07:44:35Z</time>
      </trkpt>
      <trkpt lat="49.7904" lon="2.41103">
        <ele>102.2</ele>
        <time>2024-07-24T07:44:36Z</time>
      </trkpt>
      <trkpt lat="49.79039" lon="2.41105">
        <ele>102.2</ele>
        <time>2024-07-24T07:44:37Z</time>
      </trkpt>
      <trkpt lat="49.79039" lon="2.41106">
        <ele>102.2</ele>
        <time>2024-07-24T07:44:38Z</time>
      </trkpt>
      <trkpt lat="49.79039" lon="2.41108">
        <ele>102.3</ele>
        <time>2024-07-24T07:44:39Z</time>
      </trkpt>
      <trkpt lat="49.79039" lon="2.41109">
        <ele>102.3</ele>
        <time>2024-07-24T07:44:40Z</time>
      </trkpt>
      <trkpt lat="49.79039" lon="2.4111">
        <ele>102.3</ele>
        <time>2024-07-24T07:44:41Z</time>
      </trkpt>
      <trkpt lat="49.79039" lon="2.41112">
        <ele>102.4</ele>
        <time>2024-07-24T07:44:42Z</time>
      </trkpt>
      <trkpt lat="49.79038" lon="2.41113">
        <ele>102.4</ele>
        <time>2024-07-24T07:44:43Z</time>
      </trkpt>
      <trkpt lat="49.79038" lon="2.41115">
        <ele>102.4</ele>
        <time>2024-07-24T07:44:44Z</time>
      </trkpt>
      <trkpt lat="49.79038" lon="2.41117">
        <ele>102.5</ele>
        <time>2024-07-24T07:44:45Z</time>
      </trkpt>
      <trkpt lat="49.79038" lon="2.41118">
        <ele>102.5</ele>
        <time>2024-07-24T07:44:46Z</time>
      </trkpt>
      <trkpt lat="49.79038" lon="2.4112">
        <ele>102.5</ele>
        <time>2024-07-24T07:44:47Z</time>
      </trkpt>
      <trkpt lat="49.79038" lon="2.41121">
        <ele>102.6</ele>
        <time>2024-07-24T07:44:48Z</time>
      </trkpt>
      <trkpt lat="49.79038" lon="2.41123">
        <ele>102.6</ele>
        <time>2024-07-24T07:44:49Z</time>
      </trkpt>
      <trkpt lat="49.79038" lon="2.41124">
        <ele>102.6</ele>
        <time>2024-07-24T07:44:50Z</time>
      </trkpt>
      <trkpt lat="49.79038" lon="2.41126">
        <ele>102.6</ele>
        <time>2024-07-24T07:44:51Z</time>
      </trkpt>
      <trkpt lat="49.79038" lon="2.41127">
        <ele>102.7</ele>
        <time>2024-07-24T07:44:52Z</time>
      </trkpt>
      <trkpt lat="49.79038" lon="2.41129">
        <ele>102.7</ele>
        <time>2024-07-24T07:44:53Z</time>
      </trkpt>
      <trkpt lat="49.79038" lon="2.41131">
        <ele>102.8</ele>
        <time>2024-07-24T07:44:54Z</time>
      </trkpt>
      <trkpt lat="49.79038" lon="2.41132">
        <ele>102.8</ele>
        <time>2024-07-24T07:44:55Z</time>
      </trkpt>
      <trkpt lat="49.79038" lon="2.41133">
        <ele>102.8</ele>
        <time>2024-07-24T07:44:56Z</time>
      </trkpt>
      <trkpt lat="49.79038" lon="2.41135">
        <ele>102.8</ele>
        <time>2024-07-24T07:44:57Z</time>
      </trkpt>
      <trkpt lat="49.79038" lon="2.41136">
        <ele>102.9</ele>
        <time>2024-07-24T07:44:58Z</time>
      </trkpt>
      <trkpt lat="49.79038" lon="2.41137">
        <ele>102.9</ele>
        <time>2024-07-24T07:44:59Z</time>
      </trkpt>
      <trkpt lat="49.79038" lon="2.41139">
        <ele>102.9</ele>
        <time>2024-07-24T07:45:00Z</time>
      </trkpt>
      <trkpt lat="49.79038" lon="2.4114">
        <ele>103</ele>
        <time>2024-07-24T07:45:01Z</time>
      </trkpt>
      <trkpt lat="49.79038" lon="2.41142">
        <ele>103</ele>
        <time>2024-07-24T07:45:02Z</time>
      </trkpt>
      <trkpt lat="49.79038" lon="2.41143">
        <ele>103</ele>
        <time>2024-07-24T07:45:03Z</time>
      </trkpt>
      <trkpt lat="49.79038" lon="2.41145">
        <ele>103.1</ele>
        <time>2024-07-24T07:45:04Z</time>
      </trkpt>
      <trkpt lat="49.79038" lon="2.41146">
        <ele>103.1</ele>
        <time>2024-07-24T07:45:05Z</time>
      </trkpt>
      <trkpt lat="49.79038" lon="2.41148">
        <ele>103.1</ele>
        <time>2024-07-24T07:45:06Z</time>
      </trkpt>
      <trkpt lat="49.79038" lon="2.41149">
        <ele>103.2</ele>
        <time>2024-07-24T07:45:07Z</time>
      </trkpt>
      <trkpt lat="49.79038" lon="2.41151">
        <ele>103.2</ele>
        <time>2024-07-24T07:45:08Z</time>
      </trkpt>
      <trkpt lat="49.79038" lon="2.41152">
        <ele>103.2</ele>
        <time>2024-07-24T07:45:09Z</time>
      </trkpt>
      <trkpt lat="49.79038" lon="2.41154">
        <ele>103.3</ele>
        <time>2024-07-24T07:45:10Z</time>
      </trkpt>
      <trkpt lat="49.79038" lon="2.41156">
        <ele>103.3</ele>
        <time>2024-07-24T07:45:11Z</time>
      </trkpt>
      <trkpt lat="49.79038" lon="2.41157">
        <ele>103.3</ele>
        <time>2024-07-24T07:45:12Z</time>
      </trkpt>
      <trkpt lat="49.79038" lon="2.41158">
        <ele>103.4</ele>
        <time>2024-07-24T07:45:13Z</time>
      </trkpt>
      <trkpt lat="49.79038" lon="2.4116">
        <ele>103.4</ele>
        <time>2024-07-24T07:45:14Z</time>
      </trkpt>
      <trkpt lat="49.79038" lon="2.41161">
        <ele>103.4</ele>
        <time>2024-07-24T07:45:15Z</time>
      </trkpt>
      <trkpt lat="49.79038" lon="2.41162">
        <ele>103.5</ele>
        <time>2024-07-24T07:45:16Z</time>
      </trkpt>
      <trkpt lat="49.79038" lon="2.41164">
        <ele>103.5</ele>
        <time>2024-07-24T07:45:17Z</time>
      </trkpt>
      <trkpt lat="49.79038" lon="2.41165">
        <ele>103.5</ele>
        <time>2024-07-24T07:45:18Z</time>
      </trkpt>
      <trkpt lat="49.79038" lon="2.41167">
        <ele>103.6</ele>
        <time>2024-07-24T07:45:19Z</time>
      </trkpt>
      <trkpt lat="49.79038" lon="2.41168">
        <ele>103.6</ele>
        <time>2024-07-24T07:45:20Z</time>
      </trkpt>
      <trkpt lat="49.79038" lon="2.41169">
        <ele>103.6</ele>
        <time>2024-07-24T07:45:21Z</time>
      </trkpt>
      <trkpt lat="49.79038" lon="2.41171">
        <ele>103.6</ele>
        <time>2024-07-24T07:45:22Z</time>
      </trkpt>
      <trkpt lat="49.79038" lon="2.41172">
        <ele>103.7</ele>
        <time>2024-07-24T07:45:23Z</time>
      </trkpt>
      <trkpt lat="49.79038" lon="2.41174">
        <ele>103.7</ele>
        <time>2024-07-24T07:45:24Z</time>
      </trkpt>
      <trkpt lat="49.79037" lon="2.41175">
        <ele>103.7</ele>
        <time>2024-07-24T07:45:25Z</time>
      </trkpt>
      <trkpt lat="49.79037" lon="2.41176">
        <ele>103.8</ele>
        <time>2024-07-24T07:45:26Z</time>
      </trkpt>
      <trkpt lat="49.79037" lon="2.41178">
        <ele>103.8</ele>
        <time>2024-07-24T07:45:27Z</time>
      </trkpt>
      <trkpt lat="49.79037" lon="2.41179">
        <ele>103.8</ele>
        <time>2024-07-24T07:45:28Z</time>
      </trkpt>
      <trkpt lat="49.79037" lon="2.41181">
        <ele>103.9</ele>
        <time>2024-07-24T07:45:29Z</time>
      </trkpt>
      <trkpt lat="49.79036" lon="2.41182">
        <ele>103.9</ele>
        <time>2024-07-24T07:45:30Z</time>
      </trkpt>
      <trkpt lat="49.79036" lon="2.41183">
        <ele>103.9</ele>
        <time>2024-07-24T07:45:31Z</time>
      </trkpt>
      <trkpt lat="49.79036" lon="2.41185">
        <ele>104</ele>
        <time>2024-07-24T07:45:32Z</time>
      </trkpt>
      <trkpt lat="49.79035" lon="2.41186">
        <ele>104</ele>
        <time>2024-07-24T07:45:33Z</time>
      </trkpt>
      <trkpt lat="49.79035" lon="2.41188">
        <ele>104</ele>
        <time>2024-07-24T07:45:34Z</time>
      </trkpt>
      <trkpt lat="49.79035" lon="2.4119">
        <ele>104.1</ele>
        <time>2024-07-24T07:45:35Z</time>
      </trkpt>
      <trkpt lat="49.79035" lon="2.41191">
        <ele>104.1</ele>
        <time>2024-07-24T07:45:36Z</time>
      </trkpt>
      <trkpt lat="49.79035" lon="2.41193">
        <ele>104.1</ele>
        <time>2024-07-24T07:45:37Z</time>
      </trkpt>
      <trkpt lat="49.79035" lon="2.41194">
        <ele>104.2</ele>
        <time>2024-07-24T07:45:38Z</time>
      </trkpt>
      <trkpt lat="49.79035" lon="2.41196">
        <ele>104.2</ele>
        <time>2024-07-24T07:45:39Z</time>
      </trkpt>
      <trkpt lat="49.79034" lon="2.41197">
        <ele>104.2</ele>
        <time>2024-07-24T07:45:40Z</time>
      </trkpt>
      <trkpt lat="49.79034" lon="2.41199">
        <ele>104.3</ele>
        <time>2024-07-24T07:45:41Z</time>
      </trkpt>
      <trkpt lat="49.79034" lon="2.412">
        <ele>104.3</ele>
        <time>2024-07-24T07:45:42Z</time>
      </trkpt>
      <trkpt lat="49.79034" lon="2.41201">
        <ele>104.3</ele>
        <time>2024-07-24T07:45:43Z</time>
      </trkpt>
      <trkpt lat="49.79034" lon="2.41203">
        <ele>104.3</ele>
        <time>2024-07-24T07:45:44Z</time>
      </trkpt>
      <trkpt lat="49.79034" lon="2.41204">
        <ele>104.4</ele>
        <time>2024-07-24T07:45:45Z</time>
      </trkpt>
      <trkpt lat="49.79034" lon="2.41206">
        <ele>104.4</ele>
        <time>2024-07-24T07:45:46Z</time>
      </trkpt>
      <trkpt lat="49.79034" lon="2.41207">
        <ele>104.4</ele>
        <time>2024-07-24T07:45:47Z</time>
      </trkpt>
      <trkpt lat="49.79034" lon="2.41209">
        <ele>104.5</ele>
        <time>2024-07-24T07:45:48Z</time>
      </trkpt>
      <trkpt lat="49.79034" lon="2.4121">
        <ele>104.5</ele>
        <time>2024-07-24T07:45:49Z</time>
      </trkpt>
      <trkpt lat="49.79034" lon="2.41212">
        <ele>104.5</ele>
        <time>2024-07-24T07:45:50Z</time>
      </trkpt>
      <trkpt lat="49.79034" lon="2.41213">
        <ele>104.5</ele>
        <time>2024-07-24T07:45:51Z</time>
      </trkpt>
      <trkpt lat="49.79034" lon="2.41215">
        <ele>104.6</ele>
        <time>2024-07-24T07:45:52Z</time>
      </trkpt>
      <trkpt lat="49.79034" lon="2.41216">
        <ele>104.6</ele>
        <time>2024-07-24T07:45:53Z</time>
      </trkpt>
      <trkpt lat="49.79034" lon="2.41217">
        <ele>104.6</ele>
        <time>2024-07-24T07:45:54Z</time>
      </trkpt>
      <trkpt lat="49.79034" lon="2.41219">
        <ele>104.6</ele>
        <time>2024-07-24T07:45:55Z</time>
      </trkpt>
      <trkpt lat="49.79034" lon="2.4122">
        <ele>104.7</ele>
        <time>2024-07-24T07:45:56Z</time>
      </trkpt>
      <trkpt lat="49.79034" lon="2.41221">
        <ele>104.7</ele>
        <time>2024-07-24T07:45:57Z</time>
      </trkpt>
      <trkpt lat="49.79034" lon="2.41223">
        <ele>104.7</ele>
        <time>2024-07-24T07:45:58Z</time>
      </trkpt>
      <trkpt lat="49.79034" lon="2.41224">
        <ele>104.7</ele>
        <time>2024-07-24T07:45:59Z</time>
      </trkpt>
      <trkpt lat="49.79035" lon="2.41226">
        <ele>104.8</ele>
        <time>2024-07-24T07:46:00Z</time>
      </trkpt>
      <trkpt lat="49.79035" lon="2.41228">
        <ele>104.8</ele>
        <time>2024-07-24T07:46:01Z</time>
      </trkpt>
      <trkpt lat="49.79034" lon="2.41229">
        <ele>104.8</ele>
        <time>2024-07-24T07:46:02Z</time>
      </trkpt>
      <trkpt lat="49.79035" lon="2.41231">
        <ele>104.8</ele>
        <time>2024-07-24T07:46:03Z</time>
      </trkpt>
      <trkpt lat="49.79034" lon="2.41232">
        <ele>104.9</ele>
        <time>2024-07-24T07:46:04Z</time>
      </trkpt>
      <trkpt lat="49.79034" lon="2.41234">
        <ele>104.9</ele>
        <time>2024-07-24T07:46:05Z</time>
      </trkpt>
      <trkpt lat="49.79034" lon="2.41235">
        <ele>104.9</ele>
        <time>2024-07-24T07:46:06Z</time>
      </trkpt>
      <trkpt lat="49.79034" lon="2.41237">
        <ele>104.9</ele>
        <time>2024-07-24T07:46:07Z</time>
      </trkpt>
      <trkpt lat="49.79034" lon="2.41238">
        <ele>105</ele>
        <time>2024-07-24T07:46:08Z</time>
      </trkpt>
      <trkpt lat="49.79034" lon="2.41239">
        <ele>105</ele>
        <time>2024-07-24T07:46:09Z</time>
      </trkpt>
      <trkpt lat="49.79034" lon="2.41241">
        <ele>105</ele>
        <time>2024-07-24T07:46:10Z</time>
      </trkpt>
      <trkpt lat="49.79034" lon="2.41242">
        <ele>105</ele>
        <time>2024-07-24T07:46:11Z</time>
      </trkpt>
      <trkpt lat="49.79034" lon="2.41244">
        <ele>105.1</ele>
        <time>2024-07-24T07:46:12Z</time>
      </trkpt>
      <trkpt lat="49.79034" lon="2.41245">
        <ele>105.1</ele>
        <time>2024-07-24T07:46:13Z</time>
      </trkpt>
      <trkpt lat="49.79033" lon="2.41247">
        <ele>105.1</ele>
        <time>2024-07-24T07:46:14Z</time>
      </trkpt>
      <trkpt lat="49.79033" lon="2.41248">
        <ele>105.1</ele>
        <time>2024-07-24T07:46:15Z</time>
      </trkpt>
      <trkpt lat="49.79033" lon="2.4125">
        <ele>105.2</ele>
        <time>2024-07-24T07:46:16Z</time>
      </trkpt>
      <trkpt lat="49.79033" lon="2.41251">
        <ele>105.2</ele>
        <time>2024-07-24T07:46:17Z</time>
      </trkpt>
      <trkpt lat="49.79033" lon="2.41253">
        <ele>105.2</ele>
        <time>2024-07-24T07:46:18Z</time>
      </trkpt>
      <trkpt lat="49.79033" lon="2.41254">
        <ele>105.3</ele>
        <time>2024-07-24T07:46:19Z</time>
      </trkpt>
      <trkpt lat="49.79033" lon="2.41256">
        <ele>105.3</ele>
        <time>2024-07-24T07:46:20Z</time>
      </trkpt>
      <trkpt lat="49.79033" lon="2.41257">
        <ele>105.3</ele>
        <time>2024-07-24T07:46:21Z</time>
      </trkpt>
      <trkpt lat="49.79032" lon="2.41259">
        <ele>105.3</ele>
        <time>2024-07-24T07:46:22Z</time>
      </trkpt>
      <trkpt lat="49.79032" lon="2.41261">
        <ele>105.4</ele>
        <time>2024-07-24T07:46:23Z</time>
      </trkpt>
      <trkpt lat="49.79032" lon="2.41263">
        <ele>105.4</ele>
        <time>2024-07-24T07:46:24Z</time>
      </trkpt>
      <trkpt lat="49.79032" lon="2.41264">
        <ele>105.4</ele>
        <time>2024-07-24T07:46:25Z</time>
      </trkpt>
      <trkpt lat="49.79032" lon="2.41266">
        <ele>105.4</ele>
        <time>2024-07-24T07:46:26Z</time>
      </trkpt>
      <trkpt lat="49.79032" lon="2.41267">
        <ele>105.5</ele>
        <time>2024-07-24T07:46:27Z</time>
      </trkpt>
      <trkpt lat="49.79032" lon="2.41269">
        <ele>105.5</ele>
        <time>2024-07-24T07:46:28Z</time>
      </trkpt>
      <trkpt lat="49.79032" lon="2.4127">
        <ele>105.5</ele>
        <time>2024-07-24T07:46:29Z</time>
      </trkpt>
      <trkpt lat="49.79032" lon="2.41272">
        <ele>105.6</ele>
        <time>2024-07-24T07:46:30Z</time>
      </trkpt>
      <trkpt lat="49.79032" lon="2.41273">
        <ele>105.6</ele>
        <time>2024-07-24T07:46:31Z</time>
      </trkpt>
      <trkpt lat="49.79032" lon="2.41275">
        <ele>105.6</ele>
        <time>2024-07-24T07:46:32Z</time>
      </trkpt>
      <trkpt lat="49.79031" lon="2.41277">
        <ele>105.6</ele>
        <time>2024-07-24T07:46:33Z</time>
      </trkpt>
      <trkpt lat="49.79031" lon="2.41278">
        <ele>105.7</ele>
        <time>2024-07-24T07:46:34Z</time>
      </trkpt>
      <trkpt lat="49.79031" lon="2.4128">
        <ele>105.7</ele>
        <time>2024-07-24T07:46:35Z</time>
      </trkpt>
      <trkpt lat="49.79031" lon="2.41281">
        <ele>105.7</ele>
        <time>2024-07-24T07:46:36Z</time>
      </trkpt>
      <trkpt lat="49.79031" lon="2.41283">
        <ele>105.7</ele>
        <time>2024-07-24T07:46:37Z</time>
      </trkpt>
      <trkpt lat="49.79031" lon="2.41284">
        <ele>105.8</ele>
        <time>2024-07-24T07:46:38Z</time>
      </trkpt>
      <trkpt lat="49.79031" lon="2.41286">
        <ele>105.8</ele>
        <time>2024-07-24T07:46:39Z</time>
      </trkpt>
      <trkpt lat="49.79031" lon="2.41287">
        <ele>105.8</ele>
        <time>2024-07-24T07:46:40Z</time>
      </trkpt>
      <trkpt lat="49.79031" lon="2.41289">
        <ele>105.8</ele>
        <time>2024-07-24T07:46:41Z</time>
      </trkpt>
      <trkpt lat="49.7903" lon="2.41291">
        <ele>105.9</ele>
        <time>2024-07-24T07:46:42Z</time>
      </trkpt>
      <trkpt lat="49.7903" lon="2.41292">
        <ele>105.9</ele>
        <time>2024-07-24T07:46:43Z</time>
      </trkpt>
      <trkpt lat="49.7903" lon="2.41294">
        <ele>105.9</ele>
        <time>2024-07-24T07:46:44Z</time>
      </trkpt>
      <trkpt lat="49.7903" lon="2.41295">
        <ele>105.9</ele>
        <time>2024-07-24T07:46:45Z</time>
      </trkpt>
      <trkpt lat="49.7903" lon="2.41296">
        <ele>106</ele>
        <time>2024-07-24T07:46:46Z</time>
      </trkpt>
      <trkpt lat="49.7903" lon="2.41298">
        <ele>106</ele>
        <time>2024-07-24T07:46:47Z</time>
      </trkpt>
      <trkpt lat="49.7903" lon="2.413">
        <ele>106</ele>
        <time>2024-07-24T07:46:48Z</time>
      </trkpt>
      <trkpt lat="49.7903" lon="2.41302">
        <ele>106</ele>
        <time>2024-07-24T07:46:49Z</time>
      </trkpt>
      <trkpt lat="49.79029" lon="2.41303">
        <ele>106</ele>
        <time>2024-07-24T07:46:50Z</time>
      </trkpt>
      <trkpt lat="49.79029" lon="2.41304">
        <ele>106</ele>
        <time>2024-07-24T07:46:51Z</time>
      </trkpt>
      <trkpt lat="49.79029" lon="2.41305">
        <ele>106.1</ele>
        <time>2024-07-24T07:46:52Z</time>
      </trkpt>
      <trkpt lat="49.79029" lon="2.41307">
        <ele>106.1</ele>
        <time>2024-07-24T07:46:53Z</time>
      </trkpt>
      <trkpt lat="49.79029" lon="2.41308">
        <ele>106.1</ele>
        <time>2024-07-24T07:46:54Z</time>
      </trkpt>
      <trkpt lat="49.79029" lon="2.41309">
        <ele>106.1</ele>
        <time>2024-07-24T07:46:55Z</time>
      </trkpt>
      <trkpt lat="49.79029" lon="2.41311">
        <ele>106.1</ele>
        <time>2024-07-24T07:46:56Z</time>
      </trkpt>
      <trkpt lat="49.79029" lon="2.41312">
        <ele>106.1</ele>
        <time>2024-07-24T07:46:57Z</time>
      </trkpt>
      <trkpt lat="49.79029" lon="2.41313">
        <ele>106.1</ele>
        <time>2024-07-24T07:46:58Z</time>
      </trkpt>
      <trkpt lat="49.79029" lon="2.41315">
        <ele>106.2</ele>
        <time>2024-07-24T07:46:59Z</time>
      </trkpt>
      <trkpt lat="49.79028" lon="2.41316">
        <ele>106.2</ele>
        <time>2024-07-24T07:47:00Z</time>
      </trkpt>
      <trkpt lat="49.79028" lon="2.41318">
        <ele>106.2</ele>
        <time>2024-07-24T07:47:01Z</time>
      </trkpt>
      <trkpt lat="49.79028" lon="2.41319">
        <ele>106.2</ele>
        <time>2024-07-24T07:47:02Z</time>
      </trkpt>
      <trkpt lat="49.79028" lon="2.4132">
        <ele>106.2</ele>
        <time>2024-07-24T07:47:03Z</time>
      </trkpt>
      <trkpt lat="49.79028" lon="2.41322">
        <ele>106.2</ele>
        <time>2024-07-24T07:47:04Z</time>
      </trkpt>
      <trkpt lat="49.79028" lon="2.41323">
        <ele>106.2</ele>
        <time>2024-07-24T07:47:05Z</time>
      </trkpt>
      <trkpt lat="49.79028" lon="2.41326">
        <ele>106.3</ele>
        <time>2024-07-24T07:47:06Z</time>
      </trkpt>
      <trkpt lat="49.79028" lon="2.41327">
        <ele>106.3</ele>
        <time>2024-07-24T07:47:07Z</time>
      </trkpt>
      <trkpt lat="49.79028" lon="2.41328">
        <ele>106.3</ele>
        <time>2024-07-24T07:47:08Z</time>
      </trkpt>
      <trkpt lat="49.79027" lon="2.41329">
        <ele>106.3</ele>
        <time>2024-07-24T07:47:09Z</time>
      </trkpt>
      <trkpt lat="49.79027" lon="2.4133">
        <ele>106.3</ele>
        <time>2024-07-24T07:47:10Z</time>
      </trkpt>
      <trkpt lat="49.79027" lon="2.41332">
        <ele>106.3</ele>
        <time>2024-07-24T07:47:11Z</time>
      </trkpt>
      <trkpt lat="49.79027" lon="2.41333">
        <ele>106.3</ele>
        <time>2024-07-24T07:47:12Z</time>
      </trkpt>
      <trkpt lat="49.79026" lon="2.41335">
        <ele>106.3</ele>
        <time>2024-07-24T07:47:13Z</time>
      </trkpt>
      <trkpt lat="49.79026" lon="2.41336">
        <ele>106.4</ele>
        <time>2024-07-24T07:47:14Z</time>
      </trkpt>
      <trkpt lat="49.79026" lon="2.41337">
        <ele>106.4</ele>
        <time>2024-07-24T07:47:15Z</time>
      </trkpt>
      <trkpt lat="49.79026" lon="2.41339">
        <ele>106.4</ele>
        <time>2024-07-24T07:47:16Z</time>
      </trkpt>
      <trkpt lat="49.79026" lon="2.4134">
        <ele>106.4</ele>
        <time>2024-07-24T07:47:17Z</time>
      </trkpt>
      <trkpt lat="49.79026" lon="2.41341">
        <ele>106.4</ele>
        <time>2024-07-24T07:47:18Z</time>
      </trkpt>
      <trkpt lat="49.79025" lon="2.41343">
        <ele>106.4</ele>
        <time>2024-07-24T07:47:19Z</time>
      </trkpt>
      <trkpt lat="49.79025" lon="2.41345">
        <ele>106.4</ele>
        <time>2024-07-24T07:47:20Z</time>
      </trkpt>
      <trkpt lat="49.79025" lon="2.41346">
        <ele>106.4</ele>
        <time>2024-07-24T07:47:21Z</time>
      </trkpt>
      <trkpt lat="49.79025" lon="2.41347">
        <ele>106.5</ele>
        <time>2024-07-24T07:47:22Z</time>
      </trkpt>
      <trkpt lat="49.79025" lon="2.41349">
        <ele>106.5</ele>
        <time>2024-07-24T07:47:23Z</time>
      </trkpt>
      <trkpt lat="49.79025" lon="2.4135">
        <ele>106.5</ele>
        <time>2024-07-24T07:47:24Z</time>
      </trkpt>
      <trkpt lat="49.79025" lon="2.41352">
        <ele>106.5</ele>
        <time>2024-07-24T07:47:25Z</time>
      </trkpt>
      <trkpt lat="49.79025" lon="2.41353">
        <ele>106.5</ele>
        <time>2024-07-24T07:47:26Z</time>
      </trkpt>
      <trkpt lat="49.79025" lon="2.41355">
        <ele>106.5</ele>
        <time>2024-07-24T07:47:27Z</time>
      </trkpt>
      <trkpt lat="49.79024" lon="2.41356">
        <ele>106.5</ele>
        <time>2024-07-24T07:47:28Z</time>
      </trkpt>
      <trkpt lat="49.79024" lon="2.41357">
        <ele>106.5</ele>
        <time>2024-07-24T07:47:29Z</time>
      </trkpt>
      <trkpt lat="49.79024" lon="2.41359">
        <ele>106.6</ele>
        <time>2024-07-24T07:47:30Z</time>
      </trkpt>
      <trkpt lat="49.79024" lon="2.4136">
        <ele>106.6</ele>
        <time>2024-07-24T07:47:31Z</time>
      </trkpt>
      <trkpt lat="49.79024" lon="2.41361">
        <ele>106.6</ele>
        <time>2024-07-24T07:47:32Z</time>
      </trkpt>
      <trkpt lat="49.79024" lon="2.41362">
        <ele>106.6</ele>
        <time>2024-07-24T07:47:33Z</time>
      </trkpt>
      <trkpt lat="49.79024" lon="2.41364">
        <ele>106.6</ele>
        <time>2024-07-24T07:47:34Z</time>
      </trkpt>
      <trkpt lat="49.79024" lon="2.41365">
        <ele>106.6</ele>
        <time>2024-07-24T07:47:35Z</time>
      </trkpt>
      <trkpt lat="49.79023" lon="2.41366">
        <ele>106.6</ele>
        <time>2024-07-24T07:47:36Z</time>
      </trkpt>
      <trkpt lat="49.79023" lon="2.41367">
        <ele>106.6</ele>
        <time>2024-07-24T07:47:37Z</time>
      </trkpt>
      <trkpt lat="49.79023" lon="2.41369">
        <ele>106.6</ele>
        <time>2024-07-24T07:47:38Z</time>
      </trkpt>
      <trkpt lat="49.79023" lon="2.4137">
        <ele>106.6</ele>
        <time>2024-07-24T07:47:39Z</time>
      </trkpt>
      <trkpt lat="49.79023" lon="2.41372">
        <ele>106.6</ele>
        <time>2024-07-24T07:47:40Z</time>
      </trkpt>
      <trkpt lat="49.79023" lon="2.41373">
        <ele>106.6</ele>
        <time>2024-07-24T07:47:41Z</time>
      </trkpt>
      <trkpt lat="49.79023" lon="2.41374">
        <ele>106.6</ele>
        <time>2024-07-24T07:47:42Z</time>
      </trkpt>
      <trkpt lat="49.79023" lon="2.41375">
        <ele>106.6</ele>
        <time>2024-07-24T07:47:43Z</time>
      </trkpt>
      <trkpt lat="49.79023" lon="2.41376">
        <ele>106.6</ele>
        <time>2024-07-24T07:47:44Z</time>
      </trkpt>
      <trkpt lat="49.79023" lon="2.41377">
        <ele>106.6</ele>
        <time>2024-07-24T07:47:45Z</time>
      </trkpt>
      <trkpt lat="49.79023" lon="2.41379">
        <ele>106.6</ele>
        <time>2024-07-24T07:47:46Z</time>
      </trkpt>
      <trkpt lat="49.79022" lon="2.4138">
        <ele>106.6</ele>
        <time>2024-07-24T07:47:47Z</time>
      </trkpt>
      <trkpt lat="49.79022" lon="2.41381">
        <ele>106.6</ele>
        <time>2024-07-24T07:47:48Z</time>
      </trkpt>
      <trkpt lat="49.79022" lon="2.41382">
        <ele>106.6</ele>
        <time>2024-07-24T07:47:49Z</time>
      </trkpt>
      <trkpt lat="49.79022" lon="2.41383">
        <ele>106.6</ele>
        <time>2024-07-24T07:47:50Z</time>
      </trkpt>
      <trkpt lat="49.79022" lon="2.41385">
        <ele>106.6</ele>
        <time>2024-07-24T07:47:51Z</time>
      </trkpt>
      <trkpt lat="49.79022" lon="2.41386">
        <ele>106.6</ele>
        <time>2024-07-24T07:47:52Z</time>
      </trkpt>
      <trkpt lat="49.79021" lon="2.41387">
        <ele>106.6</ele>
        <time>2024-07-24T07:47:53Z</time>
      </trkpt>
      <trkpt lat="49.79021" lon="2.41388">
        <ele>106.6</ele>
        <time>2024-07-24T07:47:54Z</time>
      </trkpt>
      <trkpt lat="49.79021" lon="2.41389">
        <ele>106.6</ele>
        <time>2024-07-24T07:47:55Z</time>
      </trkpt>
      <trkpt lat="49.79021" lon="2.4139">
        <ele>106.6</ele>
        <time>2024-07-24T07:47:56Z</time>
      </trkpt>
      <trkpt lat="49.79021" lon="2.4139">
        <ele>106.6</ele>
        <time>2024-07-24T07:47:57Z</time>
      </trkpt>
      <trkpt lat="49.79021" lon="2.41391">
        <ele>106.6</ele>
        <time>2024-07-24T07:47:58Z</time>
      </trkpt>
      <trkpt lat="49.79021" lon="2.4139">
        <ele>106.6</ele>
        <time>2024-07-24T07:47:59Z</time>
      </trkpt>
      <trkpt lat="49.79021" lon="2.4139">
        <ele>106.6</ele>
        <time>2024-07-24T07:48:00Z</time>
      </trkpt>
      <trkpt lat="49.79021" lon="2.4139">
        <ele>106.6</ele>
        <time>2024-07-24T07:48:01Z</time>
      </trkpt>
      <trkpt lat="49.79021" lon="2.4139">
        <ele>106.6</ele>
        <time>2024-07-24T07:48:02Z</time>
      </trkpt>
      <trkpt lat="49.79021" lon="2.4139">
        <ele>106.6</ele>
        <time>2024-07-24T07:48:03Z</time>
      </trkpt>
      <trkpt lat="49.79021" lon="2.4139">
        <ele>106.6</ele>
        <time>2024-07-24T07:48:04Z</time>
      </trkpt>
      <trkpt lat="49.79021" lon="2.4139">
        <ele>106.6</ele>
        <time>2024-07-24T07:48:05Z</time>
      </trkpt>
      <trkpt lat="49.79021" lon="2.4139">
        <ele>106.6</ele>
        <time>2024-07-24T07:48:06Z</time>
      </trkpt>
      <trkpt lat="49.79021" lon="2.41389">
        <ele>106.6</ele>
        <time>2024-07-24T07:48:07Z</time>
      </trkpt>
      <trkpt lat="49.79021" lon="2.41389">
        <ele>106.6</ele>
        <time>2024-07-24T07:48:08Z</time>
      </trkpt>
      <trkpt lat="49.79021" lon="2.41389">
        <ele>106.6</ele>
        <time>2024-07-24T07:48:09Z</time>
      </trkpt>
      <trkpt lat="49.79021" lon="2.41389">
        <ele>106.6</ele>
        <time>2024-07-24T07:48:10Z</time>
      </trkpt>
      <trkpt lat="49.79021" lon="2.4139">
        <ele>106.6</ele>
        <time>2024-07-24T07:48:11Z</time>
      </trkpt>
      <trkpt lat="49.79021" lon="2.4139">
        <ele>106.6</ele>
        <time>2024-07-24T07:48:12Z</time>
      </trkpt>
      <trkpt lat="49.79021" lon="2.4139">
        <ele>106.6</ele>
        <time>2024-07-24T07:48:13Z</time>
      </trkpt>
      <trkpt lat="49.79021" lon="2.4139">
        <ele>106.6</ele>
        <time>2024-07-24T07:48:14Z</time>
      </trkpt>
      <trkpt lat="49.79021" lon="2.41389">
        <ele>106.6</ele>
        <time>2024-07-24T07:48:15Z</time>
      </trkpt>
      <trkpt lat="49.7902" lon="2.41389">
        <ele>106.6</ele>
        <time>2024-07-24T07:48:16Z</time>
      </trkpt>
      <trkpt lat="49.7902" lon="2.41389">
        <ele>106.6</ele>
        <time>2024-07-24T07:48:17Z</time>
      </trkpt>
      <trkpt lat="49.7902" lon="2.41389">
        <ele>106.6</ele>
        <time>2024-07-24T07:48:18Z</time>
      </trkpt>
      <trkpt lat="49.7902" lon="2.41389">
        <ele>106.6</ele>
        <time>2024-07-24T07:48:19Z</time>
      </trkpt>
      <trkpt lat="49.7902" lon="2.41389">
        <ele>106.6</ele>
        <time>2024-07-24T07:48:20Z</time>
      </trkpt>
      <trkpt lat="49.7902" lon="2.41389">
        <ele>106.6</ele>
        <time>2024-07-24T07:48:21Z</time>
      </trkpt>
      <trkpt lat="49.7902" lon="2.41389">
        <ele>106.6</ele>
        <time>2024-07-24T07:48:22Z</time>
      </trkpt>
      <trkpt lat="49.7902" lon="2.41389">
        <ele>106.6</ele>
        <time>2024-07-24T07:48:23Z</time>
      </trkpt>
      <trkpt lat="49.7902" lon="2.41389">
        <ele>106.6</ele>
        <time>2024-07-24T07:48:24Z</time>
      </trkpt>
      <trkpt lat="49.7902" lon="2.41389">
        <ele>106.6</ele>
        <time>2024-07-24T07:48:25Z</time>
      </trkpt>
      <trkpt lat="49.7902" lon="2.41389">
        <ele>106.6</ele>
        <time>2024-07-24T07:48:26Z</time>
      </trkpt>
      <trkpt lat="49.7902" lon="2.41389">
        <ele>106.6</ele>
        <time>2024-07-24T07:48:27Z</time>
      </trkpt>
      <trkpt lat="49.7902" lon="2.41389">
        <ele>106.6</ele>
        <time>2024-07-24T07:48:28Z</time>
      </trkpt>
      <trkpt lat="49.7902" lon="2.41389">
        <ele>106.6</ele>
        <time>2024-07-24T07:48:29Z</time>
      </trkpt>
      <trkpt lat="49.7902" lon="2.41389">
        <ele>106.6</ele>
        <time>2024-07-24T07:48:30Z</time>
      </trkpt>
      <trkpt lat="49.7902" lon="2.41389">
        <ele>106.6</ele>
        <time>2024-07-24T07:48:31Z</time>
      </trkpt>
      <trkpt lat="49.7902" lon="2.41389">
        <ele>106.6</ele>
        <time>2024-07-24T07:48:32Z</time>
      </trkpt>
      <trkpt lat="49.7902" lon="2.41389">
        <ele>106.6</ele>
        <time>2024-07-24T07:48:33Z</time>
      </trkpt>
      <trkpt lat="49.7902" lon="2.41389">
        <ele>106.6</ele>
        <time>2024-07-24T07:48:34Z</time>
      </trkpt>
      <trkpt lat="49.7902" lon="2.41389">
        <ele>106.6</ele>
        <time>2024-07-24T07:48:35Z</time>
      </trkpt>
      <trkpt lat="49.7902" lon="2.41389">
        <ele>106.6</ele>
        <time>2024-07-24T07:48:36Z</time>
      </trkpt>
      <trkpt lat="49.7902" lon="2.41389">
        <ele>106.6</ele>
        <time>2024-07-24T07:48:37Z</time>
      </trkpt>
      <trkpt lat="49.7902" lon="2.41389">
        <ele>106.6</ele>
        <time>2024-07-24T07:48:38Z</time>
      </trkpt>
      <trkpt lat="49.7902" lon="2.41389">
        <ele>106.6</ele>
        <time>2024-07-24T07:48:39Z</time>
      </trkpt>
      <trkpt lat="49.7902" lon="2.41389">
        <ele>106.6</ele>
        <time>2024-07-24T07:48:40Z</time>
      </trkpt>
      <trkpt lat="49.7902" lon="2.41389">
        <ele>106.6</ele>
        <time>2024-07-24T07:48:41Z</time>
      </trkpt>
      <trkpt lat="49.7902" lon="2.41389">
        <ele>106.6</ele>
        <time>2024-07-24T07:48:42Z</time>
      </trkpt>
      <trkpt lat="49.7902" lon="2.41389">
        <ele>106.6</ele>
        <time>2024-07-24T07:48:43Z</time>
      </trkpt>
      <trkpt lat="49.7902" lon="2.41389">
        <ele>106.6</ele>
        <time>2024-07-24T07:48:44Z</time>
      </trkpt>
      <trkpt lat="49.7902" lon="2.41389">
        <ele>106.6</ele>
        <time>2024-07-24T07:48:45Z</time>
      </trkpt>
      <trkpt lat="49.7902" lon="2.41389">
        <ele>106.6</ele>
        <time>2024-07-24T07:48:46Z</time>
      </trkpt>
      <trkpt lat="49.7902" lon="2.41389">
        <ele>106.6</ele>
        <time>2024-07-24T07:48:47Z</time>
      </trkpt>
      <trkpt lat="49.7902" lon="2.41389">
        <ele>106.6</ele>
        <time>2024-07-24T07:48:48Z</time>
      </trkpt>
      <trkpt lat="49.7902" lon="2.41389">
        <ele>106.6</ele>
        <time>2024-07-24T07:48:49Z</time>
      </trkpt>
      <trkpt lat="49.7902" lon="2.41389">
        <ele>106.6</ele>
        <time>2024-07-24T07:48:50Z</time>
      </trkpt>
      <trkpt lat="49.7902" lon="2.41389">
        <ele>106.6</ele>
        <time>2024-07-24T07:48:51Z</time>
      </trkpt>
      <trkpt lat="49.7902" lon="2.41389">
        <ele>106.6</ele>
        <time>2024-07-24T07:48:52Z</time>
      </trkpt>
      <trkpt lat="49.7902" lon="2.41389">
        <ele>106.6</ele>
        <time>2024-07-24T07:48:53Z</time>
      </trkpt>
      <trkpt lat="49.7902" lon="2.41389">
        <ele>106.6</ele>
        <time>2024-07-24T07:48:54Z</time>
      </trkpt>
      <trkpt lat="49.7902" lon="2.41389">
        <ele>106.6</ele>
        <time>2024-07-24T07:48:55Z</time>
      </trkpt>
      <trkpt lat="49.7902" lon="2.41389">
        <ele>106.6</ele>
        <time>2024-07-24T07:48:56Z</time>
      </trkpt>
      <trkpt lat="49.7902" lon="2.41389">
        <ele>106.6</ele>
        <time>2024-07-24T07:48:57Z</time>
      </trkpt>
      <trkpt lat="49.7902" lon="2.41389">
        <ele>106.6</ele>
        <time>2024-07-24T07:48:58Z</time>
      </trkpt>
      <trkpt lat="49.7902" lon="2.41389">
        <ele>106.6</ele>
        <time>2024-07-24T07:48:59Z</time>
      </trkpt>
      <trkpt lat="49.7902" lon="2.41389">
        <ele>106.6</ele>
        <time>2024-07-24T07:49:00Z</time>
      </trkpt>
      <trkpt lat="49.7902" lon="2.41389">
        <ele>106.6</ele>
        <time>2024-07-24T07:49:01Z</time>
      </trkpt>
      <trkpt lat="49.7902" lon="2.41389">
        <ele>106.6</ele>
        <time>2024-07-24T07:49:02Z</time>
      </trkpt>
      <trkpt lat="49.7902" lon="2.41389">
        <ele>106.6</ele>
        <time>2024-07-24T07:49:03Z</time>
      </trkpt>
      <trkpt lat="49.7902" lon="2.41389">
        <ele>106.6</ele>
        <time>2024-07-24T07:49:04Z</time>
      </trkpt>
      <trkpt lat="49.7902" lon="2.41389">
        <ele>106.6</ele>
        <time>2024-07-24T07:49:05Z</time>
      </trkpt>
      <trkpt lat="49.7902" lon="2.41389">
        <ele>106.6</ele>
        <time>2024-07-24T07:49:06Z</time>
      </trkpt>
      <trkpt lat="49.7902" lon="2.41389">
        <ele>106.6</ele>
        <time>2024-07-24T07:49:07Z</time>
      </trkpt>
      <trkpt lat="49.7902" lon="2.41389">
        <ele>106.6</ele>
        <time>2024-07-24T07:49:08Z</time>
      </trkpt>
      <trkpt lat="49.7902" lon="2.41389">
        <ele>106.6</ele>
        <time>2024-07-24T07:49:09Z</time>
      </trkpt>
      <trkpt lat="49.7902" lon="2.41389">
        <ele>106.6</ele>
        <time>2024-07-24T07:49:10Z</time>
      </trkpt>
      <trkpt lat="49.7902" lon="2.41389">
        <ele>106.6</ele>
        <time>2024-07-24T07:49:11Z</time>
      </trkpt>
      <trkpt lat="49.7902" lon="2.41389">
        <ele>106.6</ele>
        <time>2024-07-24T07:49:12Z</time>
      </trkpt>
      <trkpt lat="49.7902" lon="2.41389">
        <ele>106.6</ele>
        <time>2024-07-24T07:49:13Z</time>
      </trkpt>
      <trkpt lat="49.7902" lon="2.41389">
        <ele>106.6</ele>
        <time>2024-07-24T07:49:14Z</time>
      </trkpt>
      <trkpt lat="49.7902" lon="2.41389">
        <ele>106.6</ele>
        <time>2024-07-24T07:49:15Z</time>
      </trkpt>
      <trkpt lat="49.7902" lon="2.41389">
        <ele>106.6</ele>
        <time>2024-07-24T07:49:16Z</time>
      </trkpt>
      <trkpt lat="49.7902" lon="2.41389">
        <ele>106.6</ele>
        <time>2024-07-24T07:49:17Z</time>
      </trkpt>
      <trkpt lat="49.7902" lon="2.41389">
        <ele>106.6</ele>
        <time>2024-07-24T07:49:18Z</time>
      </trkpt>
      <trkpt lat="49.7902" lon="2.41389">
        <ele>106.6</ele>
        <time>2024-07-24T07:49:19Z</time>
      </trkpt>
      <trkpt lat="49.7902" lon="2.41389">
        <ele>106.6</ele>
        <time>2024-07-24T07:49:20Z</time>
      </trkpt>
      <trkpt lat="49.7902" lon="2.41389">
        <ele>106.6</ele>
        <time>2024-07-24T07:49:21Z</time>
      </trkpt>
      <trkpt lat="49.7902" lon="2.41389">
        <ele>106.6</ele>
        <time>2024-07-24T07:49:22Z</time>
      </trkpt>
      <trkpt lat="49.7902" lon="2.41389">
        <ele>106.6</ele>
        <time>2024-07-24T07:49:23Z</time>
      </trkpt>
      <trkpt lat="49.7902" lon="2.41389">
        <ele>106.6</ele>
        <time>2024-07-24T07:49:24Z</time>
      </trkpt>
      <trkpt lat="49.7902" lon="2.41389">
        <ele>106.6</ele>
        <time>2024-07-24T07:49:25Z</time>
      </trkpt>
      <trkpt lat="49.7902" lon="2.41389">
        <ele>106.6</ele>
        <time>2024-07-24T07:49:26Z</time>
      </trkpt>
      <trkpt lat="49.7902" lon="2.41389">
        <ele>106.6</ele>
        <time>2024-07-24T07:49:27Z</time>
      </trkpt>
      <trkpt lat="49.7902" lon="2.41389">
        <ele>106.6</ele>
        <time>2024-07-24T07:49:28Z</time>
      </trkpt>
      <trkpt lat="49.79023" lon="2.41385">
        <ele>106.6</ele>
        <time>2024-07-24T07:49:29Z</time>
      </trkpt>
      <trkpt lat="49.79023" lon="2.41384">
        <ele>106.6</ele>
        <time>2024-07-24T07:49:30Z</time>
      </trkpt>
      <trkpt lat="49.79023" lon="2.41384">
        <ele>106.6</ele>
        <time>2024-07-24T07:49:31Z</time>
      </trkpt>
      <trkpt lat="49.79023" lon="2.41384">
        <ele>106.6</ele>
        <time>2024-07-24T07:49:32Z</time>
      </trkpt>
      <trkpt lat="49.79023" lon="2.41384">
        <ele>106.6</ele>
        <time>2024-07-24T07:49:33Z</time>
      </trkpt>
      <trkpt lat="49.79023" lon="2.41384">
        <ele>106.6</ele>
        <time>2024-07-24T07:49:34Z</time>
      </trkpt>
      <trkpt lat="49.79023" lon="2.41384">
        <ele>106.6</ele>
        <time>2024-07-24T07:49:35Z</time>
      </trkpt>
      <trkpt lat="49.79023" lon="2.41384">
        <ele>106.6</ele>
        <time>2024-07-24T07:49:36Z</time>
      </trkpt>
      <trkpt lat="49.79023" lon="2.41383">
        <ele>106.6</ele>
        <time>2024-07-24T07:49:37Z</time>
      </trkpt>
      <trkpt lat="49.79023" lon="2.41383">
        <ele>106.6</ele>
        <time>2024-07-24T07:49:38Z</time>
      </trkpt>
      <trkpt lat="49.79023" lon="2.41383">
        <ele>106.6</ele>
        <time>2024-07-24T07:49:39Z</time>
      </trkpt>
      <trkpt lat="49.79023" lon="2.41382">
        <ele>106.6</ele>
        <time>2024-07-24T07:49:40Z</time>
      </trkpt>
      <trkpt lat="49.79023" lon="2.41383">
        <ele>106.6</ele>
        <time>2024-07-24T07:49:41Z</time>
      </trkpt>
      <trkpt lat="49.79023" lon="2.41384">
        <ele>106.6</ele>
        <time>2024-07-24T07:49:42Z</time>
      </trkpt>
      <trkpt lat="49.79023" lon="2.41384">
        <ele>106.6</ele>
        <time>2024-07-24T07:49:43Z</time>
      </trkpt>
      <trkpt lat="49.79023" lon="2.41384">
        <ele>106.6</ele>
        <time>2024-07-24T07:49:44Z</time>
      </trkpt>
      <trkpt lat="49.79023" lon="2.41384">
        <ele>106.6</ele>
        <time>2024-07-24T07:49:45Z</time>
      </trkpt>
      <trkpt lat="49.79023" lon="2.41384">
        <ele>106.6</ele>
        <time>2024-07-24T07:49:46Z</time>
      </trkpt>
      <trkpt lat="49.79023" lon="2.41384">
        <ele>106.6</ele>
        <time>2024-07-24T07:49:47Z</time>
      </trkpt>
      <trkpt lat="49.79023" lon="2.41384">
        <ele>106.6</ele>
        <time>2024-07-24T07:49:48Z</time>
      </trkpt>
      <trkpt lat="49.79023" lon="2.41384">
        <ele>106.6</ele>
        <time>2024-07-24T07:49:49Z</time>
      </trkpt>
      <trkpt lat="49.79023" lon="2.41384">
        <ele>106.6</ele>
        <time>2024-07-24T07:49:50Z</time>
      </trkpt>
      <trkpt lat="49.79023" lon="2.41384">
        <ele>106.6</ele>
        <time>2024-07-24T07:49:51Z</time>
      </trkpt>
      <trkpt lat="49.79023" lon="2.41384">
        <ele>106.6</ele>
        <time>2024-07-24T07:49:52Z</time>
      </trkpt>
      <trkpt lat="49.79023" lon="2.41384">
        <ele>106.6</ele>
        <time>2024-07-24T07:49:53Z</time>
      </trkpt>
      <trkpt lat="49.79023" lon="2.41384">
        <ele>106.6</ele>
        <time>2024-07-24T07:49:54Z</time>
      </trkpt>
      <trkpt lat="49.79023" lon="2.41384">
        <ele>106.6</ele>
        <time>2024-07-24T07:49:55Z</time>
      </trkpt>
      <trkpt lat="49.79023" lon="2.41384">
        <ele>106.6</ele>
        <time>2024-07-24T07:49:56Z</time>
      </trkpt>
      <trkpt lat="49.79023" lon="2.41384">
        <ele>106.6</ele>
        <time>2024-07-24T07:49:57Z</time>
      </trkpt>
      <trkpt lat="49.79023" lon="2.41384">
        <ele>106.6</ele>
        <time>2024-07-24T07:49:58Z</time>
      </trkpt>
      <trkpt lat="49.79023" lon="2.41384">
        <ele>106.6</ele>
        <time>2024-07-24T07:49:59Z</time>
      </trkpt>
      <trkpt lat="49.79023" lon="2.41384">
        <ele>106.6</ele>
        <time>2024-07-24T07:50:00Z</time>
      </trkpt>
      <trkpt lat="49.79023" lon="2.41384">
        <ele>106.6</ele>
        <time>2024-07-24T07:50:01Z</time>
      </trkpt>
      <trkpt lat="49.79023" lon="2.41384">
        <ele>106.6</ele>
        <time>2024-07-24T07:50:02Z</time>
      </trkpt>
      <trkpt lat="49.79023" lon="2.41384">
        <ele>106.6</ele>
        <time>2024-07-24T07:50:03Z</time>
      </trkpt>
      <trkpt lat="49.79024" lon="2.41384">
        <ele>106.6</ele>
        <time>2024-07-24T07:50:04Z</time>
      </trkpt>
      <trkpt lat="49.79024" lon="2.41385">
        <ele>106.6</ele>
        <time>2024-07-24T07:50:05Z</time>
      </trkpt>
      <trkpt lat="49.79025" lon="2.41386">
        <ele>106.6</ele>
        <time>2024-07-24T07:50:06Z</time>
      </trkpt>
      <trkpt lat="49.79026" lon="2.41387">
        <ele>106.6</ele>
        <time>2024-07-24T07:50:07Z</time>
      </trkpt>
      <trkpt lat="49.79026" lon="2.41388">
        <ele>106.6</ele>
        <time>2024-07-24T07:50:08Z</time>
      </trkpt>
      <trkpt lat="49.79027" lon="2.41389">
        <ele>106.5</ele>
        <time>2024-07-24T07:50:09Z</time>
      </trkpt>
      <trkpt lat="49.79028" lon="2.41389">
        <ele>106.5</ele>
        <time>2024-07-24T07:50:10Z</time>
      </trkpt>
      <trkpt lat="49.79028" lon="2.41389">
        <ele>106.5</ele>
        <time>2024-07-24T07:50:11Z</time>
      </trkpt>
      <trkpt lat="49.79028" lon="2.41389">
        <ele>106.5</ele>
        <time>2024-07-24T07:50:12Z</time>
      </trkpt>
      <trkpt lat="49.79029" lon="2.41389">
        <ele>106.5</ele>
        <time>2024-07-24T07:50:13Z</time>
      </trkpt>
      <trkpt lat="49.7903" lon="2.4139">
        <ele>106.5</ele>
        <time>2024-07-24T07:50:14Z</time>
      </trkpt>
      <trkpt lat="49.79031" lon="2.4139">
        <ele>106.5</ele>
        <time>2024-07-24T07:50:15Z</time>
      </trkpt>
      <trkpt lat="49.79031" lon="2.4139">
        <ele>106.5</ele>
        <time>2024-07-24T07:50:16Z</time>
      </trkpt>
      <trkpt lat="49.79032" lon="2.4139">
        <ele>106.5</ele>
        <time>2024-07-24T07:50:17Z</time>
      </trkpt>
      <trkpt lat="49.79033" lon="2.41391">
        <ele>106.5</ele>
        <time>2024-07-24T07:50:18Z</time>
      </trkpt>
      <trkpt lat="49.79035" lon="2.41391">
        <ele>106.5</ele>
        <time>2024-07-24T07:50:19Z</time>
      </trkpt>
      <trkpt lat="49.79036" lon="2.41391">
        <ele>106.5</ele>
        <time>2024-07-24T07:50:20Z</time>
      </trkpt>
      <trkpt lat="49.79037" lon="2.41391">
        <ele>106.5</ele>
        <time>2024-07-24T07:50:21Z</time>
      </trkpt>
      <trkpt lat="49.79038" lon="2.41391">
        <ele>106.4</ele>
        <time>2024-07-24T07:50:22Z</time>
      </trkpt>
      <trkpt lat="49.79039" lon="2.41392">
        <ele>106.4</ele>
        <time>2024-07-24T07:50:23Z</time>
      </trkpt>
      <trkpt lat="49.7904" lon="2.41392">
        <ele>106.4</ele>
        <time>2024-07-24T07:50:24Z</time>
      </trkpt>
      <trkpt lat="49.79041" lon="2.41392">
        <ele>106.4</ele>
        <time>2024-07-24T07:50:25Z</time>
      </trkpt>
      <trkpt lat="49.79043" lon="2.41392">
        <ele>106.4</ele>
        <time>2024-07-24T07:50:26Z</time>
      </trkpt>
      <trkpt lat="49.79044" lon="2.41391">
        <ele>106.4</ele>
        <time>2024-07-24T07:50:27Z</time>
      </trkpt>
      <trkpt lat="49.79045" lon="2.41391">
        <ele>106.4</ele>
        <time>2024-07-24T07:50:28Z</time>
      </trkpt>
      <trkpt lat="49.79047" lon="2.41391">
        <ele>106.4</ele>
        <time>2024-07-24T07:50:29Z</time>
      </trkpt>
      <trkpt lat="49.79048" lon="2.4139">
        <ele>106.4</ele>
        <time>2024-07-24T07:50:30Z</time>
      </trkpt>
      <trkpt lat="49.79049" lon="2.4139">
        <ele>106.4</ele>
        <time>2024-07-24T07:50:31Z</time>
      </trkpt>
      <trkpt lat="49.7905" lon="2.4139">
        <ele>106.4</ele>
        <time>2024-07-24T07:50:32Z</time>
      </trkpt>
      <trkpt lat="49.79051" lon="2.41389">
        <ele>106.4</ele>
        <time>2024-07-24T07:50:33Z</time>
      </trkpt>
      <trkpt lat="49.79052" lon="2.41389">
        <ele>106.4</ele>
        <time>2024-07-24T07:50:34Z</time>
      </trkpt>
      <trkpt lat="49.79053" lon="2.41388">
        <ele>106.4</ele>
        <time>2024-07-24T07:50:35Z</time>
      </trkpt>
      <trkpt lat="49.79054" lon="2.41388">
        <ele>106.4</ele>
        <time>2024-07-24T07:50:36Z</time>
      </trkpt>
      <trkpt lat="49.79055" lon="2.41387">
        <ele>106.4</ele>
        <time>2024-07-24T07:50:37Z</time>
      </trkpt>
      <trkpt lat="49.79056" lon="2.41387">
        <ele>106.4</ele>
        <time>2024-07-24T07:50:38Z</time>
      </trkpt>
      <trkpt lat="49.79057" lon="2.41386">
        <ele>106.4</ele>
        <time>2024-07-24T07:50:39Z</time>
      </trkpt>
      <trkpt lat="49.79058" lon="2.41386">
        <ele>106.4</ele>
        <time>2024-07-24T07:50:40Z</time>
      </trkpt>
      <trkpt lat="49.79059" lon="2.41385">
        <ele>106.4</ele>
        <time>2024-07-24T07:50:41Z</time>
      </trkpt>
      <trkpt lat="49.7906" lon="2.41385">
        <ele>106.3</ele>
        <time>2024-07-24T07:50:42Z</time>
      </trkpt>
      <trkpt lat="49.79061" lon="2.41384">
        <ele>106.3</ele>
        <time>2024-07-24T07:50:43Z</time>
      </trkpt>
      <trkpt lat="49.79062" lon="2.41383">
        <ele>106.3</ele>
        <time>2024-07-24T07:50:44Z</time>
      </trkpt>
      <trkpt lat="49.79063" lon="2.41383">
        <ele>106.3</ele>
        <time>2024-07-24T07:50:45Z</time>
      </trkpt>
      <trkpt lat="49.79064" lon="2.41383">
        <ele>106.3</ele>
        <time>2024-07-24T07:50:46Z</time>
      </trkpt>
      <trkpt lat="49.79065" lon="2.41382">
        <ele>106.3</ele>
        <time>2024-07-24T07:50:47Z</time>
      </trkpt>
      <trkpt lat="49.79066" lon="2.41382">
        <ele>106.3</ele>
        <time>2024-07-24T07:50:48Z</time>
      </trkpt>
      <trkpt lat="49.79067" lon="2.41381">
        <ele>106.3</ele>
        <time>2024-07-24T07:50:49Z</time>
      </trkpt>
      <trkpt lat="49.79068" lon="2.41381">
        <ele>106.3</ele>
        <time>2024-07-24T07:50:50Z</time>
      </trkpt>
      <trkpt lat="49.79069" lon="2.41381">
        <ele>106.3</ele>
        <time>2024-07-24T07:50:51Z</time>
      </trkpt>
      <trkpt lat="49.79071" lon="2.4138">
        <ele>106.3</ele>
        <time>2024-07-24T07:50:52Z</time>
      </trkpt>
      <trkpt lat="49.79072" lon="2.4138">
        <ele>106.3</ele>
        <time>2024-07-24T07:50:53Z</time>
      </trkpt>
      <trkpt lat="49.79072" lon="2.4138">
        <ele>106.3</ele>
        <time>2024-07-24T07:50:54Z</time>
      </trkpt>
      <trkpt lat="49.79074" lon="2.4138">
        <ele>106.3</ele>
        <time>2024-07-24T07:50:55Z</time>
      </trkpt>
      <trkpt lat="49.79074" lon="2.4138">
        <ele>106.3</ele>
        <time>2024-07-24T07:50:56Z</time>
      </trkpt>
      <trkpt lat="49.79075" lon="2.4138">
        <ele>106.3</ele>
        <time>2024-07-24T07:50:57Z</time>
      </trkpt>
      <trkpt lat="49.79077" lon="2.41379">
        <ele>106.3</ele>
        <time>2024-07-24T07:50:58Z</time>
      </trkpt>
      <trkpt lat="49.79078" lon="2.41379">
        <ele>106.3</ele>
        <time>2024-07-24T07:50:59Z</time>
      </trkpt>
      <trkpt lat="49.79079" lon="2.41378">
        <ele>106.3</ele>
        <time>2024-07-24T07:51:00Z</time>
      </trkpt>
      <trkpt lat="49.79081" lon="2.41377">
        <ele>106.3</ele>
        <time>2024-07-24T07:51:01Z</time>
      </trkpt>
      <trkpt lat="49.79082" lon="2.41377">
        <ele>106.3</ele>
        <time>2024-07-24T07:51:02Z</time>
      </trkpt>
      <trkpt lat="49.79082" lon="2.41377">
        <ele>106.3</ele>
        <time>2024-07-24T07:51:03Z</time>
      </trkpt>
      <trkpt lat="49.79084" lon="2.41376">
        <ele>106.3</ele>
        <time>2024-07-24T07:51:04Z</time>
      </trkpt>
      <trkpt lat="49.79085" lon="2.41376">
        <ele>106.3</ele>
        <time>2024-07-24T07:51:05Z</time>
      </trkpt>
      <trkpt lat="49.79086" lon="2.41376">
        <ele>106.3</ele>
        <time>2024-07-24T07:51:06Z</time>
      </trkpt>
      <trkpt lat="49.79087" lon="2.41375">
        <ele>106.3</ele>
        <time>2024-07-24T07:51:07Z</time>
      </trkpt>
      <trkpt lat="49.79088" lon="2.41375">
        <ele>106.3</ele>
        <time>2024-07-24T07:51:08Z</time>
      </trkpt>
      <trkpt lat="49.79089" lon="2.41375">
        <ele>106.3</ele>
        <time>2024-07-24T07:51:09Z</time>
      </trkpt>
      <trkpt lat="49.79091" lon="2.41374">
        <ele>106.3</ele>
        <time>2024-07-24T07:51:10Z</time>
      </trkpt>
      <trkpt lat="49.79092" lon="2.41374">
        <ele>106.3</ele>
        <time>2024-07-24T07:51:11Z</time>
      </trkpt>
      <trkpt lat="49.79093" lon="2.41373">
        <ele>106.3</ele>
        <time>2024-07-24T07:51:12Z</time>
      </trkpt>
      <trkpt lat="49.79094" lon="2.41373">
        <ele>106.3</ele>
        <time>2024-07-24T07:51:13Z</time>
      </trkpt>
      <trkpt lat="49.79095" lon="2.41372">
        <ele>106.3</ele>
        <time>2024-07-24T07:51:14Z</time>
      </trkpt>
      <trkpt lat="49.79096" lon="2.41372">
        <ele>106.3</ele>
        <time>2024-07-24T07:51:15Z</time>
      </trkpt>
      <trkpt lat="49.79097" lon="2.41371">
        <ele>106.3</ele>
        <time>2024-07-24T07:51:16Z</time>
      </trkpt>
      <trkpt lat="49.79098" lon="2.41371">
        <ele>106.3</ele>
        <time>2024-07-24T07:51:17Z</time>
      </trkpt>
      <trkpt lat="49.79099" lon="2.4137">
        <ele>106.3</ele>
        <time>2024-07-24T07:51:18Z</time>
      </trkpt>
      <trkpt lat="49.791" lon="2.4137">
        <ele>106.3</ele>
        <time>2024-07-24T07:51:19Z</time>
      </trkpt>
      <trkpt lat="49.79101" lon="2.4137">
        <ele>106.3</ele>
        <time>2024-07-24T07:51:20Z</time>
      </trkpt>
      <trkpt lat="49.79103" lon="2.41369">
        <ele>106.3</ele>
        <time>2024-07-24T07:51:21Z</time>
      </trkpt>
      <trkpt lat="49.79104" lon="2.41369">
        <ele>106.3</ele>
        <time>2024-07-24T07:51:22Z</time>
      </trkpt>
      <trkpt lat="49.79105" lon="2.41368">
        <ele>106.3</ele>
        <time>2024-07-24T07:51:23Z</time>
      </trkpt>
      <trkpt lat="49.79106" lon="2.41368">
        <ele>106.3</ele>
        <time>2024-07-24T07:51:24Z</time>
      </trkpt>
      <trkpt lat="49.79107" lon="2.41368">
        <ele>106.3</ele>
        <time>2024-07-24T07:51:25Z</time>
      </trkpt>
      <trkpt lat="49.79108" lon="2.41367">
        <ele>106.3</ele>
        <time>2024-07-24T07:51:26Z</time>
      </trkpt>
      <trkpt lat="49.79109" lon="2.41367">
        <ele>106.3</ele>
        <time>2024-07-24T07:51:27Z</time>
      </trkpt>
      <trkpt lat="49.7911" lon="2.41367">
        <ele>106.3</ele>
        <time>2024-07-24T07:51:28Z</time>
      </trkpt>
      <trkpt lat="49.79111" lon="2.41366">
        <ele>106.3</ele>
        <time>2024-07-24T07:51:29Z</time>
      </trkpt>
      <trkpt lat="49.79112" lon="2.41366">
        <ele>106.3</ele>
        <time>2024-07-24T07:51:30Z</time>
      </trkpt>
      <trkpt lat="49.79113" lon="2.41365">
        <ele>106.3</ele>
        <time>2024-07-24T07:51:31Z</time>
      </trkpt>
      <trkpt lat="49.79114" lon="2.41365">
        <ele>106.3</ele>
        <time>2024-07-24T07:51:32Z</time>
      </trkpt>
      <trkpt lat="49.79115" lon="2.41365">
        <ele>106.3</ele>
        <time>2024-07-24T07:51:33Z</time>
      </trkpt>
      <trkpt lat="49.79116" lon="2.41364">
        <ele>106.3</ele>
        <time>2024-07-24T07:51:34Z</time>
      </trkpt>
      <trkpt lat="49.79117" lon="2.41364">
        <ele>106.2</ele>
        <time>2024-07-24T07:51:35Z</time>
      </trkpt>
      <trkpt lat="49.79118" lon="2.41364">
        <ele>106.2</ele>
        <time>2024-07-24T07:51:36Z</time>
      </trkpt>
      <trkpt lat="49.7912" lon="2.41363">
        <ele>106.2</ele>
        <time>2024-07-24T07:51:37Z</time>
      </trkpt>
      <trkpt lat="49.79121" lon="2.41363">
        <ele>106.2</ele>
        <time>2024-07-24T07:51:38Z</time>
      </trkpt>
      <trkpt lat="49.79122" lon="2.41362">
        <ele>106.2</ele>
        <time>2024-07-24T07:51:39Z</time>
      </trkpt>
      <trkpt lat="49.79123" lon="2.41362">
        <ele>106.2</ele>
        <time>2024-07-24T07:51:40Z</time>
      </trkpt>
      <trkpt lat="49.79124" lon="2.41361">
        <ele>106.2</ele>
        <time>2024-07-24T07:51:41Z</time>
      </trkpt>
      <trkpt lat="49.79125" lon="2.41361">
        <ele>106.2</ele>
        <time>2024-07-24T07:51:42Z</time>
      </trkpt>
      <trkpt lat="49.79126" lon="2.41361">
        <ele>106.2</ele>
        <time>2024-07-24T07:51:43Z</time>
      </trkpt>
      <trkpt lat="49.79127" lon="2.4136">
        <ele>106.2</ele>
        <time>2024-07-24T07:51:44Z</time>
      </trkpt>
      <trkpt lat="49.79128" lon="2.4136">
        <ele>106.2</ele>
        <time>2024-07-24T07:51:45Z</time>
      </trkpt>
      <trkpt lat="49.7913" lon="2.41359">
        <ele>106.2</ele>
        <time>2024-07-24T07:51:46Z</time>
      </trkpt>
      <trkpt lat="49.79131" lon="2.41358">
        <ele>106.2</ele>
        <time>2024-07-24T07:51:47Z</time>
      </trkpt>
      <trkpt lat="49.79131" lon="2.41358">
        <ele>106.2</ele>
        <time>2024-07-24T07:51:48Z</time>
      </trkpt>
      <trkpt lat="49.79132" lon="2.41357">
        <ele>106.2</ele>
        <time>2024-07-24T07:51:49Z</time>
      </trkpt>
      <trkpt lat="49.79134" lon="2.41357">
        <ele>106.2</ele>
        <time>2024-07-24T07:51:50Z</time>
      </trkpt>
      <trkpt lat="49.79135" lon="2.41356">
        <ele>106.2</ele>
        <time>2024-07-24T07:51:51Z</time>
      </trkpt>
      <trkpt lat="49.79136" lon="2.41356">
        <ele>106.2</ele>
        <time>2024-07-24T07:51:52Z</time>
      </trkpt>
      <trkpt lat="49.79137" lon="2.41355">
        <ele>106.2</ele>
        <time>2024-07-24T07:51:53Z</time>
      </trkpt>
      <trkpt lat="49.79138" lon="2.41355">
        <ele>106.2</ele>
        <time>2024-07-24T07:51:54Z</time>
      </trkpt>
      <trkpt lat="49.7914" lon="2.41354">
        <ele>106.2</ele>
        <time>2024-07-24T07:51:55Z</time>
      </trkpt>
      <trkpt lat="49.79141" lon="2.41354">
        <ele>106.2</ele>
        <time>2024-07-24T07:51:56Z</time>
      </trkpt>
      <trkpt lat="49.79142" lon="2.41353">
        <ele>106.2</ele>
        <time>2024-07-24T07:51:57Z</time>
      </trkpt>
      <trkpt lat="49.79143" lon="2.41353">
        <ele>106.2</ele>
        <time>2024-07-24T07:51:58Z</time>
      </trkpt>
      <trkpt lat="49.79144" lon="2.41353">
        <ele>106.1</ele>
        <time>2024-07-24T07:51:59Z</time>
      </trkpt>
      <trkpt lat="49.79145" lon="2.41352">
        <ele>106.1</ele>
        <time>2024-07-24T07:52:00Z</time>
      </trkpt>
      <trkpt lat="49.79146" lon="2.41352">
        <ele>106.1</ele>
        <time>2024-07-24T07:52:01Z</time>
      </trkpt>
      <trkpt lat="49.79147" lon="2.41351">
        <ele>106.1</ele>
        <time>2024-07-24T07:52:02Z</time>
      </trkpt>
      <trkpt lat="49.79148" lon="2.41351">
        <ele>106.1</ele>
        <time>2024-07-24T07:52:03Z</time>
      </trkpt>
      <trkpt lat="49.79149" lon="2.4135">
        <ele>106.1</ele>
        <time>2024-07-24T07:52:04Z</time>
      </trkpt>
      <trkpt lat="49.7915" lon="2.4135">
        <ele>106.1</ele>
        <time>2024-07-24T07:52:05Z</time>
      </trkpt>
      <trkpt lat="49.79151" lon="2.41349">
        <ele>106.1</ele>
        <time>2024-07-24T07:52:06Z</time>
      </trkpt>
      <trkpt lat="49.79152" lon="2.41349">
        <ele>106.1</ele>
        <time>2024-07-24T07:52:07Z</time>
      </trkpt>
      <trkpt lat="49.79153" lon="2.41349">
        <ele>106.1</ele>
        <time>2024-07-24T07:52:08Z</time>
      </trkpt>
      <trkpt lat="49.79154" lon="2.41348">
        <ele>106.1</ele>
        <time>2024-07-24T07:52:09Z</time>
      </trkpt>
      <trkpt lat="49.79155" lon="2.41348">
        <ele>106.1</ele>
        <time>2024-07-24T07:52:10Z</time>
      </trkpt>
      <trkpt lat="49.79156" lon="2.41348">
        <ele>106.1</ele>
        <time>2024-07-24T07:52:11Z</time>
      </trkpt>
      <trkpt lat="49.79157" lon="2.41347">
        <ele>106.1</ele>
        <time>2024-07-24T07:52:12Z</time>
      </trkpt>
      <trkpt lat="49.79159" lon="2.41347">
        <ele>106</ele>
        <time>2024-07-24T07:52:13Z</time>
      </trkpt>
      <trkpt lat="49.7916" lon="2.41347">
        <ele>106</ele>
        <time>2024-07-24T07:52:14Z</time>
      </trkpt>
      <trkpt lat="49.79161" lon="2.41346">
        <ele>106</ele>
        <time>2024-07-24T07:52:15Z</time>
      </trkpt>
      <trkpt lat="49.79162" lon="2.41346">
        <ele>106</ele>
        <time>2024-07-24T07:52:16Z</time>
      </trkpt>
      <trkpt lat="49.79163" lon="2.41345">
        <ele>106</ele>
        <time>2024-07-24T07:52:17Z</time>
      </trkpt>
      <trkpt lat="49.79164" lon="2.41345">
        <ele>106</ele>
        <time>2024-07-24T07:52:18Z</time>
      </trkpt>
      <trkpt lat="49.79165" lon="2.41344">
        <ele>106</ele>
        <time>2024-07-24T07:52:19Z</time>
      </trkpt>
      <trkpt lat="49.79166" lon="2.41344">
        <ele>106</ele>
        <time>2024-07-24T07:52:20Z</time>
      </trkpt>
      <trkpt lat="49.79167" lon="2.41343">
        <ele>106</ele>
        <time>2024-07-24T07:52:21Z</time>
      </trkpt>
      <trkpt lat="49.79168" lon="2.41343">
        <ele>106</ele>
        <time>2024-07-24T07:52:22Z</time>
      </trkpt>
      <trkpt lat="49.79169" lon="2.41343">
        <ele>106</ele>
        <time>2024-07-24T07:52:23Z</time>
      </trkpt>
      <trkpt lat="49.7917" lon="2.41343">
        <ele>106</ele>
        <time>2024-07-24T07:52:24Z</time>
      </trkpt>
      <trkpt lat="49.79171" lon="2.41343">
        <ele>106</ele>
        <time>2024-07-24T07:52:25Z</time>
      </trkpt>
      <trkpt lat="49.79172" lon="2.41343">
        <ele>106</ele>
        <time>2024-07-24T07:52:26Z</time>
      </trkpt>
      <trkpt lat="49.79173" lon="2.41342">
        <ele>106</ele>
        <time>2024-07-24T07:52:27Z</time>
      </trkpt>
      <trkpt lat="49.79174" lon="2.41342">
        <ele>106</ele>
        <time>2024-07-24T07:52:28Z</time>
      </trkpt>
      <trkpt lat="49.79175" lon="2.41341">
        <ele>106</ele>
        <time>2024-07-24T07:52:29Z</time>
      </trkpt>
      <trkpt lat="49.79176" lon="2.41341">
        <ele>106</ele>
        <time>2024-07-24T07:52:30Z</time>
      </trkpt>
      <trkpt lat="49.79177" lon="2.4134">
        <ele>106</ele>
        <time>2024-07-24T07:52:31Z</time>
      </trkpt>
      <trkpt lat="49.79178" lon="2.4134">
        <ele>106</ele>
        <time>2024-07-24T07:52:32Z</time>
      </trkpt>
      <trkpt lat="49.79179" lon="2.41339">
        <ele>106</ele>
        <time>2024-07-24T07:52:33Z</time>
      </trkpt>
      <trkpt lat="49.7918" lon="2.41339">
        <ele>106</ele>
        <time>2024-07-24T07:52:34Z</time>
      </trkpt>
      <trkpt lat="49.79181" lon="2.41339">
        <ele>106</ele>
        <time>2024-07-24T07:52:35Z</time>
      </trkpt>
      <trkpt lat="49.79182" lon="2.41338">
        <ele>106</ele>
        <time>2024-07-24T07:52:36Z</time>
      </trkpt>
      <trkpt lat="49.79184" lon="2.41338">
        <ele>106</ele>
        <time>2024-07-24T07:52:37Z</time>
      </trkpt>
      <trkpt lat="49.79185" lon="2.41337">
        <ele>106</ele>
        <time>2024-07-24T07:52:38Z</time>
      </trkpt>
      <trkpt lat="49.79186" lon="2.41337">
        <ele>106</ele>
        <time>2024-07-24T07:52:39Z</time>
      </trkpt>
      <trkpt lat="49.79187" lon="2.41336">
        <ele>106</ele>
        <time>2024-07-24T07:52:40Z</time>
      </trkpt>
      <trkpt lat="49.79188" lon="2.41336">
        <ele>106</ele>
        <time>2024-07-24T07:52:41Z</time>
      </trkpt>
      <trkpt lat="49.79189" lon="2.41335">
        <ele>106</ele>
        <time>2024-07-24T07:52:42Z</time>
      </trkpt>
      <trkpt lat="49.7919" lon="2.41335">
        <ele>106</ele>
        <time>2024-07-24T07:52:43Z</time>
      </trkpt>
      <trkpt lat="49.79191" lon="2.41335">
        <ele>106</ele>
        <time>2024-07-24T07:52:44Z</time>
      </trkpt>
      <trkpt lat="49.79192" lon="2.41334">
        <ele>106</ele>
        <time>2024-07-24T07:52:45Z</time>
      </trkpt>
      <trkpt lat="49.79194" lon="2.41333">
        <ele>106</ele>
        <time>2024-07-24T07:52:46Z</time>
      </trkpt>
      <trkpt lat="49.79195" lon="2.41333">
        <ele>106</ele>
        <time>2024-07-24T07:52:47Z</time>
      </trkpt>
      <trkpt lat="49.79196" lon="2.41333">
        <ele>106</ele>
        <time>2024-07-24T07:52:48Z</time>
      </trkpt>
      <trkpt lat="49.79197" lon="2.41333">
        <ele>106</ele>
        <time>2024-07-24T07:52:49Z</time>
      </trkpt>
      <trkpt lat="49.79198" lon="2.41332">
        <ele>106</ele>
        <time>2024-07-24T07:52:50Z</time>
      </trkpt>
      <trkpt lat="49.79199" lon="2.41332">
        <ele>106</ele>
        <time>2024-07-24T07:52:51Z</time>
      </trkpt>
      <trkpt lat="49.792" lon="2.41332">
        <ele>106</ele>
        <time>2024-07-24T07:52:52Z</time>
      </trkpt>
      <trkpt lat="49.79201" lon="2.41331">
        <ele>106</ele>
        <time>2024-07-24T07:52:53Z</time>
      </trkpt>
      <trkpt lat="49.79203" lon="2.41331">
        <ele>106</ele>
        <time>2024-07-24T07:52:54Z</time>
      </trkpt>
      <trkpt lat="49.79205" lon="2.4133">
        <ele>106</ele>
        <time>2024-07-24T07:52:55Z</time>
      </trkpt>
      <trkpt lat="49.79205" lon="2.4133">
        <ele>106</ele>
        <time>2024-07-24T07:52:56Z</time>
      </trkpt>
      <trkpt lat="49.79206" lon="2.4133">
        <ele>106</ele>
        <time>2024-07-24T07:52:57Z</time>
      </trkpt>
      <trkpt lat="49.79208" lon="2.41329">
        <ele>106</ele>
        <time>2024-07-24T07:52:58Z</time>
      </trkpt>
      <trkpt lat="49.79209" lon="2.41329">
        <ele>106</ele>
        <time>2024-07-24T07:52:59Z</time>
      </trkpt>
      <trkpt lat="49.7921" lon="2.41329">
        <ele>106</ele>
        <time>2024-07-24T07:53:00Z</time>
      </trkpt>
      <trkpt lat="49.79211" lon="2.41328">
        <ele>106</ele>
        <time>2024-07-24T07:53:01Z</time>
      </trkpt>
      <trkpt lat="49.79212" lon="2.41328">
        <ele>106</ele>
        <time>2024-07-24T07:53:02Z</time>
      </trkpt>
      <trkpt lat="49.79213" lon="2.41327">
        <ele>106</ele>
        <time>2024-07-24T07:53:03Z</time>
      </trkpt>
      <trkpt lat="49.79214" lon="2.41327">
        <ele>106</ele>
        <time>2024-07-24T07:53:04Z</time>
      </trkpt>
      <trkpt lat="49.79215" lon="2.41327">
        <ele>105.9</ele>
        <time>2024-07-24T07:53:05Z</time>
      </trkpt>
      <trkpt lat="49.79216" lon="2.41326">
        <ele>105.9</ele>
        <time>2024-07-24T07:53:06Z</time>
      </trkpt>
      <trkpt lat="49.79218" lon="2.41325">
        <ele>105.9</ele>
        <time>2024-07-24T07:53:07Z</time>
      </trkpt>
      <trkpt lat="49.79219" lon="2.41325">
        <ele>105.9</ele>
        <time>2024-07-24T07:53:08Z</time>
      </trkpt>
      <trkpt lat="49.7922" lon="2.41325">
        <ele>105.9</ele>
        <time>2024-07-24T07:53:09Z</time>
      </trkpt>
      <trkpt lat="49.79221" lon="2.41324">
        <ele>105.9</ele>
        <time>2024-07-24T07:53:10Z</time>
      </trkpt>
      <trkpt lat="49.79222" lon="2.41324">
        <ele>105.9</ele>
        <time>2024-07-24T07:53:11Z</time>
      </trkpt>
      <trkpt lat="49.79223" lon="2.41323">
        <ele>105.9</ele>
        <time>2024-07-24T07:53:12Z</time>
      </trkpt>
      <trkpt lat="49.79224" lon="2.41323">
        <ele>105.9</ele>
        <time>2024-07-24T07:53:13Z</time>
      </trkpt>
      <trkpt lat="49.79225" lon="2.41323">
        <ele>105.9</ele>
        <time>2024-07-24T07:53:14Z</time>
      </trkpt>
      <trkpt lat="49.79226" lon="2.41322">
        <ele>105.9</ele>
        <time>2024-07-24T07:53:15Z</time>
      </trkpt>
      <trkpt lat="49.79227" lon="2.41322">
        <ele>105.9</ele>
        <time>2024-07-24T07:53:16Z</time>
      </trkpt>
      <trkpt lat="49.79228" lon="2.41321">
        <ele>105.9</ele>
        <time>2024-07-24T07:53:17Z</time>
      </trkpt>
      <trkpt lat="49.79229" lon="2.41321">
        <ele>105.9</ele>
        <time>2024-07-24T07:53:18Z</time>
      </trkpt>
      <trkpt lat="49.7923" lon="2.4132">
        <ele>105.9</ele>
        <time>2024-07-24T07:53:19Z</time>
      </trkpt>
      <trkpt lat="49.79231" lon="2.41319">
        <ele>105.9</ele>
        <time>2024-07-24T07:53:20Z</time>
      </trkpt>
      <trkpt lat="49.79232" lon="2.41319">
        <ele>105.9</ele>
        <time>2024-07-24T07:53:21Z</time>
      </trkpt>
      <trkpt lat="49.79233" lon="2.41318">
        <ele>105.9</ele>
        <time>2024-07-24T07:53:22Z</time>
      </trkpt>
      <trkpt lat="49.79234" lon="2.41318">
        <ele>105.9</ele>
        <time>2024-07-24T07:53:23Z</time>
      </trkpt>
      <trkpt lat="49.79236" lon="2.41317">
        <ele>105.9</ele>
        <time>2024-07-24T07:53:24Z</time>
      </trkpt>
      <trkpt lat="49.79237" lon="2.41317">
        <ele>105.9</ele>
        <time>2024-07-24T07:53:25Z</time>
      </trkpt>
      <trkpt lat="49.79238" lon="2.41316">
        <ele>105.9</ele>
        <time>2024-07-24T07:53:26Z</time>
      </trkpt>
      <trkpt lat="49.79239" lon="2.41316">
        <ele>105.8</ele>
        <time>2024-07-24T07:53:27Z</time>
      </trkpt>
      <trkpt lat="49.7924" lon="2.41315">
        <ele>105.8</ele>
        <time>2024-07-24T07:53:28Z</time>
      </trkpt>
      <trkpt lat="49.79241" lon="2.41315">
        <ele>105.8</ele>
        <time>2024-07-24T07:53:29Z</time>
      </trkpt>
      <trkpt lat="49.79242" lon="2.41315">
        <ele>105.8</ele>
        <time>2024-07-24T07:53:30Z</time>
      </trkpt>
      <trkpt lat="49.79243" lon="2.41314">
        <ele>105.8</ele>
        <time>2024-07-24T07:53:31Z</time>
      </trkpt>
      <trkpt lat="49.79244" lon="2.41314">
        <ele>105.8</ele>
        <time>2024-07-24T07:53:32Z</time>
      </trkpt>
      <trkpt lat="49.79245" lon="2.41314">
        <ele>105.8</ele>
        <time>2024-07-24T07:53:33Z</time>
      </trkpt>
      <trkpt lat="49.79246" lon="2.41313">
        <ele>105.8</ele>
        <time>2024-07-24T07:53:34Z</time>
      </trkpt>
      <trkpt lat="49.79248" lon="2.41313">
        <ele>105.8</ele>
        <time>2024-07-24T07:53:35Z</time>
      </trkpt>
      <trkpt lat="49.79249" lon="2.41312">
        <ele>105.8</ele>
        <time>2024-07-24T07:53:36Z</time>
      </trkpt>
      <trkpt lat="49.7925" lon="2.41312">
        <ele>105.8</ele>
        <time>2024-07-24T07:53:37Z</time>
      </trkpt>
      <trkpt lat="49.79251" lon="2.41311">
        <ele>105.8</ele>
        <time>2024-07-24T07:53:38Z</time>
      </trkpt>
      <trkpt lat="49.79252" lon="2.41311">
        <ele>105.8</ele>
        <time>2024-07-24T07:53:39Z</time>
      </trkpt>
      <trkpt lat="49.79253" lon="2.41311">
        <ele>105.8</ele>
        <time>2024-07-24T07:53:40Z</time>
      </trkpt>
      <trkpt lat="49.79254" lon="2.41311">
        <ele>105.8</ele>
        <time>2024-07-24T07:53:41Z</time>
      </trkpt>
      <trkpt lat="49.79255" lon="2.4131">
        <ele>105.8</ele>
        <time>2024-07-24T07:53:42Z</time>
      </trkpt>
      <trkpt lat="49.79257" lon="2.41309">
        <ele>105.8</ele>
        <time>2024-07-24T07:53:43Z</time>
      </trkpt>
      <trkpt lat="49.79258" lon="2.41309">
        <ele>105.8</ele>
        <time>2024-07-24T07:53:44Z</time>
      </trkpt>
      <trkpt lat="49.79259" lon="2.41308">
        <ele>105.8</ele>
        <time>2024-07-24T07:53:45Z</time>
      </trkpt>
      <trkpt lat="49.7926" lon="2.41308">
        <ele>105.8</ele>
        <time>2024-07-24T07:53:46Z</time>
      </trkpt>
      <trkpt lat="49.79261" lon="2.41308">
        <ele>105.8</ele>
        <time>2024-07-24T07:53:47Z</time>
      </trkpt>
      <trkpt lat="49.79262" lon="2.41307">
        <ele>105.7</ele>
        <time>2024-07-24T07:53:48Z</time>
      </trkpt>
      <trkpt lat="49.79263" lon="2.41307">
        <ele>105.7</ele>
        <time>2024-07-24T07:53:49Z</time>
      </trkpt>
      <trkpt lat="49.79264" lon="2.41306">
        <ele>105.7</ele>
        <time>2024-07-24T07:53:50Z</time>
      </trkpt>
      <trkpt lat="49.79265" lon="2.41306">
        <ele>105.7</ele>
        <time>2024-07-24T07:53:51Z</time>
      </trkpt>
      <trkpt lat="49.79266" lon="2.41305">
        <ele>105.7</ele>
        <time>2024-07-24T07:53:52Z</time>
      </trkpt>
      <trkpt lat="49.79267" lon="2.41305">
        <ele>105.7</ele>
        <time>2024-07-24T07:53:53Z</time>
      </trkpt>
      <trkpt lat="49.79268" lon="2.41304">
        <ele>105.7</ele>
        <time>2024-07-24T07:53:54Z</time>
      </trkpt>
      <trkpt lat="49.79269" lon="2.41304">
        <ele>105.7</ele>
        <time>2024-07-24T07:53:55Z</time>
      </trkpt>
      <trkpt lat="49.79271" lon="2.41303">
        <ele>105.7</ele>
        <time>2024-07-24T07:53:56Z</time>
      </trkpt>
      <trkpt lat="49.79272" lon="2.41303">
        <ele>105.7</ele>
        <time>2024-07-24T07:53:57Z</time>
      </trkpt>
      <trkpt lat="49.79273" lon="2.41303">
        <ele>105.7</ele>
        <time>2024-07-24T07:53:58Z</time>
      </trkpt>
      <trkpt lat="49.79274" lon="2.41302">
        <ele>105.7</ele>
        <time>2024-07-24T07:53:59Z</time>
      </trkpt>
      <trkpt lat="49.79275" lon="2.41302">
        <ele>105.6</ele>
        <time>2024-07-24T07:54:00Z</time>
      </trkpt>
      <trkpt lat="49.79276" lon="2.41301">
        <ele>105.6</ele>
        <time>2024-07-24T07:54:01Z</time>
      </trkpt>
      <trkpt lat="49.79277" lon="2.41301">
        <ele>105.6</ele>
        <time>2024-07-24T07:54:02Z</time>
      </trkpt>
      <trkpt lat="49.79278" lon="2.413">
        <ele>105.6</ele>
        <time>2024-07-24T07:54:03Z</time>
      </trkpt>
      <trkpt lat="49.79279" lon="2.413">
        <ele>105.6</ele>
        <time>2024-07-24T07:54:04Z</time>
      </trkpt>
      <trkpt lat="49.7928" lon="2.41299">
        <ele>105.6</ele>
        <time>2024-07-24T07:54:05Z</time>
      </trkpt>
      <trkpt lat="49.79281" lon="2.41299">
        <ele>105.6</ele>
        <time>2024-07-24T07:54:06Z</time>
      </trkpt>
      <trkpt lat="49.79283" lon="2.41299">
        <ele>105.6</ele>
        <time>2024-07-24T07:54:07Z</time>
      </trkpt>
      <trkpt lat="49.79284" lon="2.41299">
        <ele>105.6</ele>
        <time>2024-07-24T07:54:08Z</time>
      </trkpt>
      <trkpt lat="49.79285" lon="2.41298">
        <ele>105.5</ele>
        <time>2024-07-24T07:54:09Z</time>
      </trkpt>
      <trkpt lat="49.79287" lon="2.41297">
        <ele>105.5</ele>
        <time>2024-07-24T07:54:10Z</time>
      </trkpt>
      <trkpt lat="49.79288" lon="2.41297">
        <ele>105.5</ele>
        <time>2024-07-24T07:54:11Z</time>
      </trkpt>
      <trkpt lat="49.79288" lon="2.41297">
        <ele>105.5</ele>
        <time>2024-07-24T07:54:12Z</time>
      </trkpt>
      <trkpt lat="49.7929" lon="2.41297">
        <ele>105.5</ele>
        <time>2024-07-24T07:54:13Z</time>
      </trkpt>
      <trkpt lat="49.79291" lon="2.41297">
        <ele>105.5</ele>
        <time>2024-07-24T07:54:14Z</time>
      </trkpt>
      <trkpt lat="49.79292" lon="2.41296">
        <ele>105.5</ele>
        <time>2024-07-24T07:54:15Z</time>
      </trkpt>
      <trkpt lat="49.79293" lon="2.41296">
        <ele>105.5</ele>
        <time>2024-07-24T07:54:16Z</time>
      </trkpt>
      <trkpt lat="49.79294" lon="2.41296">
        <ele>105.5</ele>
        <time>2024-07-24T07:54:17Z</time>
      </trkpt>
      <trkpt lat="49.79295" lon="2.41295">
        <ele>105.4</ele>
        <time>2024-07-24T07:54:18Z</time>
      </trkpt>
      <trkpt lat="49.79296" lon="2.41295">
        <ele>105.4</ele>
        <time>2024-07-24T07:54:19Z</time>
      </trkpt>
      <trkpt lat="49.79297" lon="2.41294">
        <ele>105.4</ele>
        <time>2024-07-24T07:54:20Z</time>
      </trkpt>
      <trkpt lat="49.79298" lon="2.41294">
        <ele>105.4</ele>
        <time>2024-07-24T07:54:21Z</time>
      </trkpt>
      <trkpt lat="49.79299" lon="2.41293">
        <ele>105.4</ele>
        <time>2024-07-24T07:54:22Z</time>
      </trkpt>
      <trkpt lat="49.793" lon="2.41293">
        <ele>105.4</ele>
        <time>2024-07-24T07:54:23Z</time>
      </trkpt>
      <trkpt lat="49.79301" lon="2.41292">
        <ele>105.4</ele>
        <time>2024-07-24T07:54:24Z</time>
      </trkpt>
      <trkpt lat="49.79302" lon="2.41292">
        <ele>105.4</ele>
        <time>2024-07-24T07:54:25Z</time>
      </trkpt>
      <trkpt lat="49.79303" lon="2.41292">
        <ele>105.4</ele>
        <time>2024-07-24T07:54:26Z</time>
      </trkpt>
      <trkpt lat="49.79304" lon="2.41291">
        <ele>105.4</ele>
        <time>2024-07-24T07:54:27Z</time>
      </trkpt>
      <trkpt lat="49.79305" lon="2.41291">
        <ele>105.4</ele>
        <time>2024-07-24T07:54:28Z</time>
      </trkpt>
      <trkpt lat="49.79306" lon="2.4129">
        <ele>105.3</ele>
        <time>2024-07-24T07:54:29Z</time>
      </trkpt>
      <trkpt lat="49.79307" lon="2.4129">
        <ele>105.3</ele>
        <time>2024-07-24T07:54:30Z</time>
      </trkpt>
      <trkpt lat="49.79308" lon="2.41289">
        <ele>105.3</ele>
        <time>2024-07-24T07:54:31Z</time>
      </trkpt>
      <trkpt lat="49.79309" lon="2.41289">
        <ele>105.3</ele>
        <time>2024-07-24T07:54:32Z</time>
      </trkpt>
      <trkpt lat="49.7931" lon="2.41288">
        <ele>105.3</ele>
        <time>2024-07-24T07:54:33Z</time>
      </trkpt>
      <trkpt lat="49.79311" lon="2.41288">
        <ele>105.3</ele>
        <time>2024-07-24T07:54:34Z</time>
      </trkpt>
      <trkpt lat="49.79312" lon="2.41287">
        <ele>105.3</ele>
        <time>2024-07-24T07:54:35Z</time>
      </trkpt>
      <trkpt lat="49.79313" lon="2.41287">
        <ele>105.3</ele>
        <time>2024-07-24T07:54:36Z</time>
      </trkpt>
      <trkpt lat="49.79314" lon="2.41286">
        <ele>105.3</ele>
        <time>2024-07-24T07:54:37Z</time>
      </trkpt>
      <trkpt lat="49.79315" lon="2.41286">
        <ele>105.3</ele>
        <time>2024-07-24T07:54:38Z</time>
      </trkpt>
      <trkpt lat="49.79316" lon="2.41285">
        <ele>105.3</ele>
        <time>2024-07-24T07:54:39Z</time>
      </trkpt>
      <trkpt lat="49.79317" lon="2.41285">
        <ele>105.3</ele>
        <time>2024-07-24T07:54:40Z</time>
      </trkpt>
      <trkpt lat="49.79318" lon="2.41284">
        <ele>105.3</ele>
        <time>2024-07-24T07:54:41Z</time>
      </trkpt>
      <trkpt lat="49.79319" lon="2.41284">
        <ele>105.3</ele>
        <time>2024-07-24T07:54:42Z</time>
      </trkpt>
      <trkpt lat="49.7932" lon="2.41283">
        <ele>105.3</ele>
        <time>2024-07-24T07:54:43Z</time>
      </trkpt>
      <trkpt lat="49.79321" lon="2.41283">
        <ele>105.3</ele>
        <time>2024-07-24T07:54:44Z</time>
      </trkpt>
      <trkpt lat="49.79322" lon="2.41282">
        <ele>105.2</ele>
        <time>2024-07-24T07:54:45Z</time>
      </trkpt>
      <trkpt lat="49.79323" lon="2.41282">
        <ele>105.2</ele>
        <time>2024-07-24T07:54:46Z</time>
      </trkpt>
      <trkpt lat="49.79325" lon="2.41281">
        <ele>105.2</ele>
        <time>2024-07-24T07:54:47Z</time>
      </trkpt>
      <trkpt lat="49.79326" lon="2.41281">
        <ele>105.2</ele>
        <time>2024-07-24T07:54:48Z</time>
      </trkpt>
      <trkpt lat="49.79326" lon="2.41281">
        <ele>105.2</ele>
        <time>2024-07-24T07:54:49Z</time>
      </trkpt>
      <trkpt lat="49.79328" lon="2.41281">
        <ele>105.2</ele>
        <time>2024-07-24T07:54:50Z</time>
      </trkpt>
      <trkpt lat="49.79329" lon="2.41281">
        <ele>105.2</ele>
        <time>2024-07-24T07:54:51Z</time>
      </trkpt>
      <trkpt lat="49.79331" lon="2.41281">
        <ele>105.2</ele>
        <time>2024-07-24T07:54:52Z</time>
      </trkpt>
      <trkpt lat="49.79332" lon="2.41281">
        <ele>105.2</ele>
        <time>2024-07-24T07:54:53Z</time>
      </trkpt>
      <trkpt lat="49.79332" lon="2.41281">
        <ele>105.2</ele>
        <time>2024-07-24T07:54:54Z</time>
      </trkpt>
      <trkpt lat="49.79334" lon="2.41283">
        <ele>105.2</ele>
        <time>2024-07-24T07:54:55Z</time>
      </trkpt>
      <trkpt lat="49.79335" lon="2.41283">
        <ele>105.2</ele>
        <time>2024-07-24T07:54:56Z</time>
      </trkpt>
      <trkpt lat="49.79336" lon="2.41284">
        <ele>105.2</ele>
        <time>2024-07-24T07:54:57Z</time>
      </trkpt>
      <trkpt lat="49.79336" lon="2.41285">
        <ele>105.2</ele>
        <time>2024-07-24T07:54:58Z</time>
      </trkpt>
      <trkpt lat="49.79337" lon="2.41286">
        <ele>105.2</ele>
        <time>2024-07-24T07:54:59Z</time>
      </trkpt>
      <trkpt lat="49.79338" lon="2.41288">
        <ele>105.2</ele>
        <time>2024-07-24T07:55:00Z</time>
      </trkpt>
      <trkpt lat="49.79339" lon="2.41289">
        <ele>105.2</ele>
        <time>2024-07-24T07:55:01Z</time>
      </trkpt>
      <trkpt lat="49.79339" lon="2.41291">
        <ele>105.2</ele>
        <time>2024-07-24T07:55:02Z</time>
      </trkpt>
      <trkpt lat="49.7934" lon="2.41292">
        <ele>105.2</ele>
        <time>2024-07-24T07:55:03Z</time>
      </trkpt>
      <trkpt lat="49.7934" lon="2.41294">
        <ele>105.2</ele>
        <time>2024-07-24T07:55:04Z</time>
      </trkpt>
      <trkpt lat="49.79341" lon="2.41296">
        <ele>105.2</ele>
        <time>2024-07-24T07:55:05Z</time>
      </trkpt>
      <trkpt lat="49.79341" lon="2.41297">
        <ele>105.2</ele>
        <time>2024-07-24T07:55:06Z</time>
      </trkpt>
      <trkpt lat="49.79341" lon="2.41299">
        <ele>105.2</ele>
        <time>2024-07-24T07:55:07Z</time>
      </trkpt>
      <trkpt lat="49.79341" lon="2.413">
        <ele>105.2</ele>
        <time>2024-07-24T07:55:08Z</time>
      </trkpt>
      <trkpt lat="49.79341" lon="2.41302">
        <ele>105.2</ele>
        <time>2024-07-24T07:55:09Z</time>
      </trkpt>
      <trkpt lat="49.79341" lon="2.41304">
        <ele>105.2</ele>
        <time>2024-07-24T07:55:10Z</time>
      </trkpt>
      <trkpt lat="49.79341" lon="2.41305">
        <ele>105.2</ele>
        <time>2024-07-24T07:55:11Z</time>
      </trkpt>
      <trkpt lat="49.7934" lon="2.41307">
        <ele>105.2</ele>
        <time>2024-07-24T07:55:12Z</time>
      </trkpt>
      <trkpt lat="49.7934" lon="2.41309">
        <ele>105.2</ele>
        <time>2024-07-24T07:55:13Z</time>
      </trkpt>
      <trkpt lat="49.7934" lon="2.4131">
        <ele>105.2</ele>
        <time>2024-07-24T07:55:14Z</time>
      </trkpt>
      <trkpt lat="49.79339" lon="2.41312">
        <ele>105.2</ele>
        <time>2024-07-24T07:55:15Z</time>
      </trkpt>
      <trkpt lat="49.79339" lon="2.41313">
        <ele>105.2</ele>
        <time>2024-07-24T07:55:16Z</time>
      </trkpt>
      <trkpt lat="49.79339" lon="2.41315">
        <ele>105.2</ele>
        <time>2024-07-24T07:55:17Z</time>
      </trkpt>
      <trkpt lat="49.79339" lon="2.41316">
        <ele>105.2</ele>
        <time>2024-07-24T07:55:18Z</time>
      </trkpt>
      <trkpt lat="49.79338" lon="2.41318">
        <ele>105.2</ele>
        <time>2024-07-24T07:55:19Z</time>
      </trkpt>
      <trkpt lat="49.79338" lon="2.4132">
        <ele>105.2</ele>
        <time>2024-07-24T07:55:20Z</time>
      </trkpt>
      <trkpt lat="49.79338" lon="2.41322">
        <ele>105.2</ele>
        <time>2024-07-24T07:55:21Z</time>
      </trkpt>
      <trkpt lat="49.79337" lon="2.41323">
        <ele>105.2</ele>
        <time>2024-07-24T07:55:22Z</time>
      </trkpt>
      <trkpt lat="49.79337" lon="2.41325">
        <ele>105.2</ele>
        <time>2024-07-24T07:55:23Z</time>
      </trkpt>
      <trkpt lat="49.79337" lon="2.41327">
        <ele>105.2</ele>
        <time>2024-07-24T07:55:24Z</time>
      </trkpt>
      <trkpt lat="49.79337" lon="2.41328">
        <ele>105.2</ele>
        <time>2024-07-24T07:55:25Z</time>
      </trkpt>
      <trkpt lat="49.79337" lon="2.4133">
        <ele>105.2</ele>
        <time>2024-07-24T07:55:26Z</time>
      </trkpt>
      <trkpt lat="49.79337" lon="2.41331">
        <ele>105.2</ele>
        <time>2024-07-24T07:55:27Z</time>
      </trkpt>
      <trkpt lat="49.79336" lon="2.41333">
        <ele>105.2</ele>
        <time>2024-07-24T07:55:28Z</time>
      </trkpt>
      <trkpt lat="49.79336" lon="2.41335">
        <ele>105.2</ele>
        <time>2024-07-24T07:55:29Z</time>
      </trkpt>
      <trkpt lat="49.79336" lon="2.41337">
        <ele>105.2</ele>
        <time>2024-07-24T07:55:30Z</time>
      </trkpt>
      <trkpt lat="49.79336" lon="2.41338">
        <ele>105.2</ele>
        <time>2024-07-24T07:55:31Z</time>
      </trkpt>
      <trkpt lat="49.79336" lon="2.4134">
        <ele>105.2</ele>
        <time>2024-07-24T07:55:32Z</time>
      </trkpt>
      <trkpt lat="49.79336" lon="2.41342">
        <ele>105.2</ele>
        <time>2024-07-24T07:55:33Z</time>
      </trkpt>
      <trkpt lat="49.79335" lon="2.41343">
        <ele>105.2</ele>
        <time>2024-07-24T07:55:34Z</time>
      </trkpt>
      <trkpt lat="49.79335" lon="2.41345">
        <ele>105.2</ele>
        <time>2024-07-24T07:55:35Z</time>
      </trkpt>
      <trkpt lat="49.79335" lon="2.41347">
        <ele>105.2</ele>
        <time>2024-07-24T07:55:36Z</time>
      </trkpt>
      <trkpt lat="49.79335" lon="2.41349">
        <ele>105.2</ele>
        <time>2024-07-24T07:55:37Z</time>
      </trkpt>
      <trkpt lat="49.79335" lon="2.4135">
        <ele>105.2</ele>
        <time>2024-07-24T07:55:38Z</time>
      </trkpt>
      <trkpt lat="49.79335" lon="2.41352">
        <ele>105.2</ele>
        <time>2024-07-24T07:55:39Z</time>
      </trkpt>
      <trkpt lat="49.79335" lon="2.41354">
        <ele>105.2</ele>
        <time>2024-07-24T07:55:40Z</time>
      </trkpt>
      <trkpt lat="49.79335" lon="2.41356">
        <ele>105.2</ele>
        <time>2024-07-24T07:55:41Z</time>
      </trkpt>
      <trkpt lat="49.79335" lon="2.41357">
        <ele>105.2</ele>
        <time>2024-07-24T07:55:42Z</time>
      </trkpt>
      <trkpt lat="49.79335" lon="2.41359">
        <ele>105.2</ele>
        <time>2024-07-24T07:55:43Z</time>
      </trkpt>
      <trkpt lat="49.79335" lon="2.41361">
        <ele>105.2</ele>
        <time>2024-07-24T07:55:44Z</time>
      </trkpt>
      <trkpt lat="49.79335" lon="2.41362">
        <ele>105.2</ele>
        <time>2024-07-24T07:55:45Z</time>
      </trkpt>
      <trkpt lat="49.79335" lon="2.41364">
        <ele>105.2</ele>
        <time>2024-07-24T07:55:46Z</time>
      </trkpt>
      <trkpt lat="49.79335" lon="2.41366">
        <ele>105.2</ele>
        <time>2024-07-24T07:55:47Z</time>
      </trkpt>
      <trkpt lat="49.79335" lon="2.41368">
        <ele>105.2</ele>
        <time>2024-07-24T07:55:48Z</time>
      </trkpt>
      <trkpt lat="49.79335" lon="2.41369">
        <ele>105.2</ele>
        <time>2024-07-24T07:55:49Z</time>
      </trkpt>
      <trkpt lat="49.79335" lon="2.41371">
        <ele>105.2</ele>
        <time>2024-07-24T07:55:50Z</time>
      </trkpt>
      <trkpt lat="49.79335" lon="2.41373">
        <ele>105.2</ele>
        <time>2024-07-24T07:55:51Z</time>
      </trkpt>
      <trkpt lat="49.79335" lon="2.41375">
        <ele>105.2</ele>
        <time>2024-07-24T07:55:52Z</time>
      </trkpt>
      <trkpt lat="49.79335" lon="2.41376">
        <ele>105.2</ele>
        <time>2024-07-24T07:55:53Z</time>
      </trkpt>
      <trkpt lat="49.79335" lon="2.41378">
        <ele>105.2</ele>
        <time>2024-07-24T07:55:54Z</time>
      </trkpt>
      <trkpt lat="49.79335" lon="2.41381">
        <ele>105.2</ele>
        <time>2024-07-24T07:55:55Z</time>
      </trkpt>
      <trkpt lat="49.79335" lon="2.41383">
        <ele>105.2</ele>
        <time>2024-07-24T07:55:56Z</time>
      </trkpt>
      <trkpt lat="49.79335" lon="2.41384">
        <ele>105.2</ele>
        <time>2024-07-24T07:55:57Z</time>
      </trkpt>
      <trkpt lat="49.79335" lon="2.41386">
        <ele>105.2</ele>
        <time>2024-07-24T07:55:58Z</time>
      </trkpt>
      <trkpt lat="49.79335" lon="2.41388">
        <ele>105.2</ele>
        <time>2024-07-24T07:55:59Z</time>
      </trkpt>
      <trkpt lat="49.79335" lon="2.41389">
        <ele>105.2</ele>
        <time>2024-07-24T07:56:00Z</time>
      </trkpt>
      <trkpt lat="49.79335" lon="2.41391">
        <ele>105.2</ele>
        <time>2024-07-24T07:56:01Z</time>
      </trkpt>
      <trkpt lat="49.79335" lon="2.41392">
        <ele>105.2</ele>
        <time>2024-07-24T07:56:02Z</time>
      </trkpt>
      <trkpt lat="49.79335" lon="2.41394">
        <ele>105.2</ele>
        <time>2024-07-24T07:56:03Z</time>
      </trkpt>
      <trkpt lat="49.79335" lon="2.41396">
        <ele>105.2</ele>
        <time>2024-07-24T07:56:04Z</time>
      </trkpt>
      <trkpt lat="49.79334" lon="2.41397">
        <ele>105.2</ele>
        <time>2024-07-24T07:56:05Z</time>
      </trkpt>
      <trkpt lat="49.79334" lon="2.41399">
        <ele>105.2</ele>
        <time>2024-07-24T07:56:06Z</time>
      </trkpt>
      <trkpt lat="49.79334" lon="2.41402">
        <ele>105.2</ele>
        <time>2024-07-24T07:56:07Z</time>
      </trkpt>
      <trkpt lat="49.79334" lon="2.41404">
        <ele>105.2</ele>
        <time>2024-07-24T07:56:08Z</time>
      </trkpt>
      <trkpt lat="49.79334" lon="2.41405">
        <ele>105.2</ele>
        <time>2024-07-24T07:56:09Z</time>
      </trkpt>
      <trkpt lat="49.79334" lon="2.41406">
        <ele>105.2</ele>
        <time>2024-07-24T07:56:10Z</time>
      </trkpt>
      <trkpt lat="49.79334" lon="2.41408">
        <ele>105.2</ele>
        <time>2024-07-24T07:56:11Z</time>
      </trkpt>
      <trkpt lat="49.79334" lon="2.4141">
        <ele>105.2</ele>
        <time>2024-07-24T07:56:12Z</time>
      </trkpt>
      <trkpt lat="49.79334" lon="2.41411">
        <ele>105.2</ele>
        <time>2024-07-24T07:56:13Z</time>
      </trkpt>
      <trkpt lat="49.79334" lon="2.41413">
        <ele>105.2</ele>
        <time>2024-07-24T07:56:14Z</time>
      </trkpt>
      <trkpt lat="49.79334" lon="2.41415">
        <ele>105.2</ele>
        <time>2024-07-24T07:56:15Z</time>
      </trkpt>
      <trkpt lat="49.79334" lon="2.41416">
        <ele>105.2</ele>
        <time>2024-07-24T07:56:16Z</time>
      </trkpt>
      <trkpt lat="49.79334" lon="2.41418">
        <ele>105.2</ele>
        <time>2024-07-24T07:56:17Z</time>
      </trkpt>
      <trkpt lat="49.79334" lon="2.41419">
        <ele>105.2</ele>
        <time>2024-07-24T07:56:18Z</time>
      </trkpt>
      <trkpt lat="49.79333" lon="2.41421">
        <ele>105.2</ele>
        <time>2024-07-24T07:56:19Z</time>
      </trkpt>
      <trkpt lat="49.79333" lon="2.41423">
        <ele>105.2</ele>
        <time>2024-07-24T07:56:20Z</time>
      </trkpt>
      <trkpt lat="49.79333" lon="2.41424">
        <ele>105.2</ele>
        <time>2024-07-24T07:56:21Z</time>
      </trkpt>
      <trkpt lat="49.79333" lon="2.41426">
        <ele>105.2</ele>
        <time>2024-07-24T07:56:22Z</time>
      </trkpt>
      <trkpt lat="49.79332" lon="2.41428">
        <ele>105.2</ele>
        <time>2024-07-24T07:56:23Z</time>
      </trkpt>
      <trkpt lat="49.79332" lon="2.41429">
        <ele>105.2</ele>
        <time>2024-07-24T07:56:24Z</time>
      </trkpt>
      <trkpt lat="49.79332" lon="2.41431">
        <ele>105.2</ele>
        <time>2024-07-24T07:56:25Z</time>
      </trkpt>
      <trkpt lat="49.79331" lon="2.41433">
        <ele>105.2</ele>
        <time>2024-07-24T07:56:26Z</time>
      </trkpt>
      <trkpt lat="49.79331" lon="2.41434">
        <ele>105.2</ele>
        <time>2024-07-24T07:56:27Z</time>
      </trkpt>
      <trkpt lat="49.79331" lon="2.41436">
        <ele>105.2</ele>
        <time>2024-07-24T07:56:28Z</time>
      </trkpt>
      <trkpt lat="49.79331" lon="2.41438">
        <ele>105.2</ele>
        <time>2024-07-24T07:56:29Z</time>
      </trkpt>
      <trkpt lat="49.7933" lon="2.41439">
        <ele>105.2</ele>
        <time>2024-07-24T07:56:30Z</time>
      </trkpt>
      <trkpt lat="49.7933" lon="2.41442">
        <ele>105.2</ele>
        <time>2024-07-24T07:56:31Z</time>
      </trkpt>
      <trkpt lat="49.7933" lon="2.41444">
        <ele>105.2</ele>
        <time>2024-07-24T07:56:32Z</time>
      </trkpt>
      <trkpt lat="49.7933" lon="2.41445">
        <ele>105.2</ele>
        <time>2024-07-24T07:56:33Z</time>
      </trkpt>
      <trkpt lat="49.79329" lon="2.41446">
        <ele>105.2</ele>
        <time>2024-07-24T07:56:34Z</time>
      </trkpt>
      <trkpt lat="49.79329" lon="2.41448">
        <ele>105.2</ele>
        <time>2024-07-24T07:56:35Z</time>
      </trkpt>
      <trkpt lat="49.79329" lon="2.4145">
        <ele>105.2</ele>
        <time>2024-07-24T07:56:36Z</time>
      </trkpt>
      <trkpt lat="49.79329" lon="2.41452">
        <ele>105.2</ele>
        <time>2024-07-24T07:56:37Z</time>
      </trkpt>
      <trkpt lat="49.79329" lon="2.41453">
        <ele>105.2</ele>
        <time>2024-07-24T07:56:38Z</time>
      </trkpt>
      <trkpt lat="49.79329" lon="2.41455">
        <ele>105.1</ele>
        <time>2024-07-24T07:56:39Z</time>
      </trkpt>
      <trkpt lat="49.79329" lon="2.41457">
        <ele>105.1</ele>
        <time>2024-07-24T07:56:40Z</time>
      </trkpt>
      <trkpt lat="49.79329" lon="2.41459">
        <ele>105.1</ele>
        <time>2024-07-24T07:56:41Z</time>
      </trkpt>
      <trkpt lat="49.79329" lon="2.41461">
        <ele>105.1</ele>
        <time>2024-07-24T07:56:42Z</time>
      </trkpt>
      <trkpt lat="49.79329" lon="2.41462">
        <ele>105.1</ele>
        <time>2024-07-24T07:56:43Z</time>
      </trkpt>
      <trkpt lat="49.79329" lon="2.41464">
        <ele>105.1</ele>
        <time>2024-07-24T07:56:44Z</time>
      </trkpt>
      <trkpt lat="49.79329" lon="2.41465">
        <ele>105.1</ele>
        <time>2024-07-24T07:56:45Z</time>
      </trkpt>
      <trkpt lat="49.79329" lon="2.41467">
        <ele>105.1</ele>
        <time>2024-07-24T07:56:46Z</time>
      </trkpt>
      <trkpt lat="49.79329" lon="2.41469">
        <ele>105.1</ele>
        <time>2024-07-24T07:56:47Z</time>
      </trkpt>
      <trkpt lat="49.79329" lon="2.41471">
        <ele>105.1</ele>
        <time>2024-07-24T07:56:48Z</time>
      </trkpt>
      <trkpt lat="49.79329" lon="2.41474">
        <ele>105.1</ele>
        <time>2024-07-24T07:56:49Z</time>
      </trkpt>
      <trkpt lat="49.79329" lon="2.41475">
        <ele>105.1</ele>
        <time>2024-07-24T07:56:50Z</time>
      </trkpt>
      <trkpt lat="49.79329" lon="2.41477">
        <ele>105.1</ele>
        <time>2024-07-24T07:56:51Z</time>
      </trkpt>
      <trkpt lat="49.79329" lon="2.41479">
        <ele>105.1</ele>
        <time>2024-07-24T07:56:52Z</time>
      </trkpt>
      <trkpt lat="49.79329" lon="2.4148">
        <ele>105.1</ele>
        <time>2024-07-24T07:56:53Z</time>
      </trkpt>
      <trkpt lat="49.79329" lon="2.41482">
        <ele>105.1</ele>
        <time>2024-07-24T07:56:54Z</time>
      </trkpt>
      <trkpt lat="49.7933" lon="2.41484">
        <ele>105.1</ele>
        <time>2024-07-24T07:56:55Z</time>
      </trkpt>
      <trkpt lat="49.7933" lon="2.41485">
        <ele>105.1</ele>
        <time>2024-07-24T07:56:56Z</time>
      </trkpt>
      <trkpt lat="49.7933" lon="2.41487">
        <ele>105.1</ele>
        <time>2024-07-24T07:56:57Z</time>
      </trkpt>
      <trkpt lat="49.7933" lon="2.41489">
        <ele>105.1</ele>
        <time>2024-07-24T07:56:58Z</time>
      </trkpt>
      <trkpt lat="49.7933" lon="2.41491">
        <ele>105.1</ele>
        <time>2024-07-24T07:56:59Z</time>
      </trkpt>
      <trkpt lat="49.7933" lon="2.41493">
        <ele>105.1</ele>
        <time>2024-07-24T07:57:00Z</time>
      </trkpt>
      <trkpt lat="49.7933" lon="2.41494">
        <ele>105.1</ele>
        <time>2024-07-24T07:57:01Z</time>
      </trkpt>
      <trkpt lat="49.7933" lon="2.41496">
        <ele>105.1</ele>
        <time>2024-07-24T07:57:02Z</time>
      </trkpt>
      <trkpt lat="49.7933" lon="2.41497">
        <ele>105.1</ele>
        <time>2024-07-24T07:57:03Z</time>
      </trkpt>
      <trkpt lat="49.7933" lon="2.41499">
        <ele>105.1</ele>
        <time>2024-07-24T07:57:04Z</time>
      </trkpt>
      <trkpt lat="49.7933" lon="2.41501">
        <ele>105.1</ele>
        <time>2024-07-24T07:57:05Z</time>
      </trkpt>
      <trkpt lat="49.7933" lon="2.41503">
        <ele>105.1</ele>
        <time>2024-07-24T07:57:06Z</time>
      </trkpt>
      <trkpt lat="49.7933" lon="2.41505">
        <ele>105.1</ele>
        <time>2024-07-24T07:57:07Z</time>
      </trkpt>
      <trkpt lat="49.7933" lon="2.41506">
        <ele>105.1</ele>
        <time>2024-07-24T07:57:08Z</time>
      </trkpt>
      <trkpt lat="49.7933" lon="2.41508">
        <ele>105</ele>
        <time>2024-07-24T07:57:09Z</time>
      </trkpt>
      <trkpt lat="49.7933" lon="2.4151">
        <ele>105</ele>
        <time>2024-07-24T07:57:10Z</time>
      </trkpt>
      <trkpt lat="49.7933" lon="2.41512">
        <ele>105</ele>
        <time>2024-07-24T07:57:11Z</time>
      </trkpt>
      <trkpt lat="49.79331" lon="2.41513">
        <ele>105</ele>
        <time>2024-07-24T07:57:12Z</time>
      </trkpt>
      <trkpt lat="49.79331" lon="2.41517">
        <ele>105</ele>
        <time>2024-07-24T07:57:13Z</time>
      </trkpt>
      <trkpt lat="49.79331" lon="2.41518">
        <ele>105</ele>
        <time>2024-07-24T07:57:14Z</time>
      </trkpt>
      <trkpt lat="49.79332" lon="2.41519">
        <ele>105</ele>
        <time>2024-07-24T07:57:15Z</time>
      </trkpt>
      <trkpt lat="49.79332" lon="2.41522">
        <ele>105</ele>
        <time>2024-07-24T07:57:16Z</time>
      </trkpt>
      <trkpt lat="49.79332" lon="2.41523">
        <ele>105</ele>
        <time>2024-07-24T07:57:17Z</time>
      </trkpt>
      <trkpt lat="49.79333" lon="2.41525">
        <ele>105</ele>
        <time>2024-07-24T07:57:18Z</time>
      </trkpt>
      <trkpt lat="49.79333" lon="2.41526">
        <ele>105</ele>
        <time>2024-07-24T07:57:19Z</time>
      </trkpt>
      <trkpt lat="49.79333" lon="2.41528">
        <ele>105</ele>
        <time>2024-07-24T07:57:20Z</time>
      </trkpt>
      <trkpt lat="49.79333" lon="2.41529">
        <ele>105</ele>
        <time>2024-07-24T07:57:21Z</time>
      </trkpt>
      <trkpt lat="49.79334" lon="2.41531">
        <ele>105</ele>
        <time>2024-07-24T07:57:22Z</time>
      </trkpt>
      <trkpt lat="49.79334" lon="2.41532">
        <ele>105</ele>
        <time>2024-07-24T07:57:23Z</time>
      </trkpt>
      <trkpt lat="49.79335" lon="2.41534">
        <ele>105</ele>
        <time>2024-07-24T07:57:24Z</time>
      </trkpt>
      <trkpt lat="49.79335" lon="2.41535">
        <ele>105</ele>
        <time>2024-07-24T07:57:25Z</time>
      </trkpt>
      <trkpt lat="49.79335" lon="2.41536">
        <ele>105</ele>
        <time>2024-07-24T07:57:26Z</time>
      </trkpt>
      <trkpt lat="49.79336" lon="2.41538">
        <ele>105</ele>
        <time>2024-07-24T07:57:27Z</time>
      </trkpt>
      <trkpt lat="49.79336" lon="2.4154">
        <ele>105</ele>
        <time>2024-07-24T07:57:28Z</time>
      </trkpt>
      <trkpt lat="49.79336" lon="2.41541">
        <ele>104.9</ele>
        <time>2024-07-24T07:57:29Z</time>
      </trkpt>
      <trkpt lat="49.79337" lon="2.41543">
        <ele>104.9</ele>
        <time>2024-07-24T07:57:30Z</time>
      </trkpt>
      <trkpt lat="49.79337" lon="2.41544">
        <ele>104.9</ele>
        <time>2024-07-24T07:57:31Z</time>
      </trkpt>
      <trkpt lat="49.79337" lon="2.41545">
        <ele>104.9</ele>
        <time>2024-07-24T07:57:32Z</time>
      </trkpt>
      <trkpt lat="49.79338" lon="2.41546">
        <ele>104.9</ele>
        <time>2024-07-24T07:57:33Z</time>
      </trkpt>
      <trkpt lat="49.79338" lon="2.41547">
        <ele>104.9</ele>
        <time>2024-07-24T07:57:34Z</time>
      </trkpt>
      <trkpt lat="49.79338" lon="2.41548">
        <ele>104.9</ele>
        <time>2024-07-24T07:57:35Z</time>
      </trkpt>
      <trkpt lat="49.79338" lon="2.4155">
        <ele>104.9</ele>
        <time>2024-07-24T07:57:36Z</time>
      </trkpt>
      <trkpt lat="49.79339" lon="2.41551">
        <ele>104.9</ele>
        <time>2024-07-24T07:57:37Z</time>
      </trkpt>
      <trkpt lat="49.79339" lon="2.41551">
        <ele>104.9</ele>
        <time>2024-07-24T07:57:38Z</time>
      </trkpt>
      <trkpt lat="49.7934" lon="2.41552">
        <ele>104.9</ele>
        <time>2024-07-24T07:57:39Z</time>
      </trkpt>
      <trkpt lat="49.7934" lon="2.41553">
        <ele>104.9</ele>
        <time>2024-07-24T07:57:40Z</time>
      </trkpt>
      <trkpt lat="49.7934" lon="2.41554">
        <ele>104.9</ele>
        <time>2024-07-24T07:57:41Z</time>
      </trkpt>
      <trkpt lat="49.7934" lon="2.41555">
        <ele>104.9</ele>
        <time>2024-07-24T07:57:42Z</time>
      </trkpt>
      <trkpt lat="49.7934" lon="2.41557">
        <ele>104.9</ele>
        <time>2024-07-24T07:57:43Z</time>
      </trkpt>
      <trkpt lat="49.7934" lon="2.41557">
        <ele>104.9</ele>
        <time>2024-07-24T07:57:44Z</time>
      </trkpt>
      <trkpt lat="49.7934" lon="2.41557">
        <ele>104.9</ele>
        <time>2024-07-24T07:57:45Z</time>
      </trkpt>
      <trkpt lat="49.7934" lon="2.41557">
        <ele>104.9</ele>
        <time>2024-07-24T07:57:46Z</time>
      </trkpt>
      <trkpt lat="49.7934" lon="2.41557">
        <ele>104.9</ele>
        <time>2024-07-24T07:57:47Z</time>
      </trkpt>
      <trkpt lat="49.7934" lon="2.41557">
        <ele>104.9</ele>
        <time>2024-07-24T07:57:48Z</time>
      </trkpt>
      <trkpt lat="49.7934" lon="2.41557">
        <ele>104.9</ele>
        <time>2024-07-24T07:57:49Z</time>
      </trkpt>
      <trkpt lat="49.7934" lon="2.41557">
        <ele>104.9</ele>
        <time>2024-07-24T07:57:50Z</time>
      </trkpt>
      <trkpt lat="49.7934" lon="2.41557">
        <ele>104.9</ele>
        <time>2024-07-24T07:57:51Z</time>
      </trkpt>
      <trkpt lat="49.7934" lon="2.41557">
        <ele>104.9</ele>
        <time>2024-07-24T07:57:52Z</time>
      </trkpt>
      <trkpt lat="49.7934" lon="2.41556">
        <ele>104.9</ele>
        <time>2024-07-24T07:57:53Z</time>
      </trkpt>
      <trkpt lat="49.79339" lon="2.41556">
        <ele>104.9</ele>
        <time>2024-07-24T07:57:54Z</time>
      </trkpt>
      <trkpt lat="49.79339" lon="2.41556">
        <ele>104.9</ele>
        <time>2024-07-24T07:57:55Z</time>
      </trkpt>
      <trkpt lat="49.79339" lon="2.41556">
        <ele>104.9</ele>
        <time>2024-07-24T07:57:56Z</time>
      </trkpt>
      <trkpt lat="49.79339" lon="2.41556">
        <ele>104.9</ele>
        <time>2024-07-24T07:57:57Z</time>
      </trkpt>
      <trkpt lat="49.79339" lon="2.41556">
        <ele>104.9</ele>
        <time>2024-07-24T07:57:58Z</time>
      </trkpt>
      <trkpt lat="49.79339" lon="2.41556">
        <ele>104.9</ele>
        <time>2024-07-24T07:57:59Z</time>
      </trkpt>
      <trkpt lat="49.79339" lon="2.41556">
        <ele>104.9</ele>
        <time>2024-07-24T07:58:00Z</time>
      </trkpt>
      <trkpt lat="49.79339" lon="2.41556">
        <ele>104.9</ele>
        <time>2024-07-24T07:58:01Z</time>
      </trkpt>
      <trkpt lat="49.79339" lon="2.41556">
        <ele>104.9</ele>
        <time>2024-07-24T07:58:02Z</time>
      </trkpt>
      <trkpt lat="49.79339" lon="2.41556">
        <ele>104.9</ele>
        <time>2024-07-24T07:58:03Z</time>
      </trkpt>
      <trkpt lat="49.79339" lon="2.41556">
        <ele>104.9</ele>
        <time>2024-07-24T07:58:04Z</time>
      </trkpt>
      <trkpt lat="49.79339" lon="2.41556">
        <ele>104.9</ele>
        <time>2024-07-24T07:58:05Z</time>
      </trkpt>
      <trkpt lat="49.79339" lon="2.41556">
        <ele>104.9</ele>
        <time>2024-07-24T07:58:06Z</time>
      </trkpt>
      <trkpt lat="49.79339" lon="2.41556">
        <ele>104.9</ele>
        <time>2024-07-24T07:58:07Z</time>
      </trkpt>
      <trkpt lat="49.79339" lon="2.41556">
        <ele>104.9</ele>
        <time>2024-07-24T07:58:08Z</time>
      </trkpt>
      <trkpt lat="49.79339" lon="2.41556">
        <ele>104.9</ele>
        <time>2024-07-24T07:58:09Z</time>
      </trkpt>
      <trkpt lat="49.79339" lon="2.41556">
        <ele>104.9</ele>
        <time>2024-07-24T07:58:10Z</time>
      </trkpt>
      <trkpt lat="49.79339" lon="2.41556">
        <ele>104.9</ele>
        <time>2024-07-24T07:58:11Z</time>
      </trkpt>
      <trkpt lat="49.79339" lon="2.41556">
        <ele>104.9</ele>
        <time>2024-07-24T07:58:12Z</time>
      </trkpt>
      <trkpt lat="49.79339" lon="2.41556">
        <ele>104.9</ele>
        <time>2024-07-24T07:58:13Z</time>
      </trkpt>
      <trkpt lat="49.79339" lon="2.41556">
        <ele>104.9</ele>
        <time>2024-07-24T07:58:14Z</time>
      </trkpt>
      <trkpt lat="49.79339" lon="2.41556">
        <ele>104.9</ele>
        <time>2024-07-24T07:58:15Z</time>
      </trkpt>
      <trkpt lat="49.79339" lon="2.41556">
        <ele>104.9</ele>
        <time>2024-07-24T07:58:16Z</time>
      </trkpt>
      <trkpt lat="49.79339" lon="2.41556">
        <ele>104.9</ele>
        <time>2024-07-24T07:58:17Z</time>
      </trkpt>
      <trkpt lat="49.79339" lon="2.41556">
        <ele>104.9</ele>
        <time>2024-07-24T07:58:18Z</time>
      </trkpt>
      <trkpt lat="49.79339" lon="2.41555">
        <ele>104.8</ele>
        <time>2024-07-24T07:58:19Z</time>
      </trkpt>
      <trkpt lat="49.79339" lon="2.41555">
        <ele>104.8</ele>
        <time>2024-07-24T07:58:20Z</time>
      </trkpt>
      <trkpt lat="49.79339" lon="2.41555">
        <ele>104.8</ele>
        <time>2024-07-24T07:58:21Z</time>
      </trkpt>
      <trkpt lat="49.79339" lon="2.41555">
        <ele>104.8</ele>
        <time>2024-07-24T07:58:22Z</time>
      </trkpt>
      <trkpt lat="49.79339" lon="2.41555">
        <ele>104.8</ele>
        <time>2024-07-24T07:58:23Z</time>
      </trkpt>
      <trkpt lat="49.79339" lon="2.41555">
        <ele>104.8</ele>
        <time>2024-07-24T07:58:24Z</time>
      </trkpt>
      <trkpt lat="49.79339" lon="2.41555">
        <ele>104.8</ele>
        <time>2024-07-24T07:58:25Z</time>
      </trkpt>
      <trkpt lat="49.79339" lon="2.41555">
        <ele>104.8</ele>
        <time>2024-07-24T07:58:26Z</time>
      </trkpt>
      <trkpt lat="49.79339" lon="2.41555">
        <ele>104.8</ele>
        <time>2024-07-24T07:58:27Z</time>
      </trkpt>
      <trkpt lat="49.79339" lon="2.41555">
        <ele>104.8</ele>
        <time>2024-07-24T07:58:28Z</time>
      </trkpt>
      <trkpt lat="49.79339" lon="2.41555">
        <ele>104.8</ele>
        <time>2024-07-24T07:58:29Z</time>
      </trkpt>
      <trkpt lat="49.79339" lon="2.41555">
        <ele>104.8</ele>
        <time>2024-07-24T07:58:30Z</time>
      </trkpt>
      <trkpt lat="49.79339" lon="2.41555">
        <ele>104.8</ele>
        <time>2024-07-24T07:58:31Z</time>
      </trkpt>
      <trkpt lat="49.79339" lon="2.41555">
        <ele>104.8</ele>
        <time>2024-07-24T07:58:32Z</time>
      </trkpt>
      <trkpt lat="49.79339" lon="2.41555">
        <ele>104.8</ele>
        <time>2024-07-24T07:58:33Z</time>
      </trkpt>
      <trkpt lat="49.79339" lon="2.41555">
        <ele>104.8</ele>
        <time>2024-07-24T07:58:34Z</time>
      </trkpt>
      <trkpt lat="49.79339" lon="2.41555">
        <ele>104.8</ele>
        <time>2024-07-24T07:58:35Z</time>
      </trkpt>
      <trkpt lat="49.79339" lon="2.41555">
        <ele>104.8</ele>
        <time>2024-07-24T07:58:36Z</time>
      </trkpt>
      <trkpt lat="49.79339" lon="2.41555">
        <ele>104.8</ele>
        <time>2024-07-24T07:58:37Z</time>
      </trkpt>
      <trkpt lat="49.79339" lon="2.41555">
        <ele>104.8</ele>
        <time>2024-07-24T07:58:38Z</time>
      </trkpt>
      <trkpt lat="49.79339" lon="2.41555">
        <ele>104.8</ele>
        <time>2024-07-24T07:58:39Z</time>
      </trkpt>
      <trkpt lat="49.79339" lon="2.41555">
        <ele>104.8</ele>
        <time>2024-07-24T07:58:40Z</time>
      </trkpt>
      <trkpt lat="49.79339" lon="2.41555">
        <ele>104.8</ele>
        <time>2024-07-24T07:58:41Z</time>
      </trkpt>
      <trkpt lat="49.79339" lon="2.41555">
        <ele>104.8</ele>
        <time>2024-07-24T07:58:42Z</time>
      </trkpt>
      <trkpt lat="49.79339" lon="2.41555">
        <ele>104.8</ele>
        <time>2024-07-24T07:58:43Z</time>
      </trkpt>
      <trkpt lat="49.79339" lon="2.41555">
        <ele>104.8</ele>
        <time>2024-07-24T07:58:44Z</time>
      </trkpt>
      <trkpt lat="49.79339" lon="2.41554">
        <ele>104.8</ele>
        <time>2024-07-24T07:58:45Z</time>
      </trkpt>
      <trkpt lat="49.79339" lon="2.41554">
        <ele>104.8</ele>
        <time>2024-07-24T07:58:46Z</time>
      </trkpt>
      <trkpt lat="49.79339" lon="2.41554">
        <ele>104.8</ele>
        <time>2024-07-24T07:58:47Z</time>
      </trkpt>
      <trkpt lat="49.79339" lon="2.41554">
        <ele>104.8</ele>
        <time>2024-07-24T07:58:48Z</time>
      </trkpt>
      <trkpt lat="49.79339" lon="2.41554">
        <ele>104.8</ele>
        <time>2024-07-24T07:58:49Z</time>
      </trkpt>
      <trkpt lat="49.79339" lon="2.41554">
        <ele>104.8</ele>
        <time>2024-07-24T07:58:50Z</time>
      </trkpt>
      <trkpt lat="49.79339" lon="2.41554">
        <ele>104.8</ele>
        <time>2024-07-24T07:58:51Z</time>
      </trkpt>
      <trkpt lat="49.79339" lon="2.41554">
        <ele>104.8</ele>
        <time>2024-07-24T07:58:52Z</time>
      </trkpt>
      <trkpt lat="49.79339" lon="2.41554">
        <ele>104.8</ele>
        <time>2024-07-24T07:58:53Z</time>
      </trkpt>
      <trkpt lat="49.79339" lon="2.41554">
        <ele>104.8</ele>
        <time>2024-07-24T07:58:54Z</time>
      </trkpt>
      <trkpt lat="49.79339" lon="2.41554">
        <ele>104.8</ele>
        <time>2024-07-24T07:58:55Z</time>
      </trkpt>
      <trkpt lat="49.79339" lon="2.41554">
        <ele>104.8</ele>
        <time>2024-07-24T07:58:56Z</time>
      </trkpt>
      <trkpt lat="49.79339" lon="2.41554">
        <ele>104.8</ele>
        <time>2024-07-24T07:58:57Z</time>
      </trkpt>
      <trkpt lat="49.79339" lon="2.41554">
        <ele>104.8</ele>
        <time>2024-07-24T07:58:58Z</time>
      </trkpt>
      <trkpt lat="49.79339" lon="2.41554">
        <ele>104.8</ele>
        <time>2024-07-24T07:58:59Z</time>
      </trkpt>
      <trkpt lat="49.79339" lon="2.41554">
        <ele>104.8</ele>
        <time>2024-07-24T07:59:00Z</time>
      </trkpt>
      <trkpt lat="49.79339" lon="2.41554">
        <ele>104.8</ele>
        <time>2024-07-24T07:59:01Z</time>
      </trkpt>
      <trkpt lat="49.79339" lon="2.41554">
        <ele>104.8</ele>
        <time>2024-07-24T07:59:02Z</time>
      </trkpt>
      <trkpt lat="49.79339" lon="2.41554">
        <ele>104.8</ele>
        <time>2024-07-24T07:59:03Z</time>
      </trkpt>
      <trkpt lat="49.79339" lon="2.41554">
        <ele>104.8</ele>
        <time>2024-07-24T07:59:04Z</time>
      </trkpt>
      <trkpt lat="49.79339" lon="2.41554">
        <ele>104.8</ele>
        <time>2024-07-24T07:59:05Z</time>
      </trkpt>
      <trkpt lat="49.79339" lon="2.41554">
        <ele>104.8</ele>
        <time>2024-07-24T07:59:06Z</time>
      </trkpt>
      <trkpt lat="49.79339" lon="2.41554">
        <ele>104.8</ele>
        <time>2024-07-24T07:59:07Z</time>
      </trkpt>
      <trkpt lat="49.79339" lon="2.41554">
        <ele>104.8</ele>
        <time>2024-07-24T07:59:08Z</time>
      </trkpt>
      <trkpt lat="49.79339" lon="2.41554">
        <ele>104.8</ele>
        <time>2024-07-24T07:59:09Z</time>
      </trkpt>
      <trkpt lat="49.79339" lon="2.41554">
        <ele>104.8</ele>
        <time>2024-07-24T07:59:10Z</time>
      </trkpt>
      <trkpt lat="49.79339" lon="2.41553">
        <ele>104.8</ele>
        <time>2024-07-24T07:59:11Z</time>
      </trkpt>
      <trkpt lat="49.79339" lon="2.41553">
        <ele>104.8</ele>
        <time>2024-07-24T07:59:12Z</time>
      </trkpt>
      <trkpt lat="49.79339" lon="2.41553">
        <ele>104.8</ele>
        <time>2024-07-24T07:59:13Z</time>
      </trkpt>
      <trkpt lat="49.79339" lon="2.41553">
        <ele>104.8</ele>
        <time>2024-07-24T07:59:14Z</time>
      </trkpt>
      <trkpt lat="49.79339" lon="2.41553">
        <ele>104.8</ele>
        <time>2024-07-24T07:59:15Z</time>
      </trkpt>
      <trkpt lat="49.79339" lon="2.41553">
        <ele>104.8</ele>
        <time>2024-07-24T07:59:16Z</time>
      </trkpt>
      <trkpt lat="49.79339" lon="2.41553">
        <ele>104.8</ele>
        <time>2024-07-24T07:59:17Z</time>
      </trkpt>
      <trkpt lat="49.79339" lon="2.41553">
        <ele>104.8</ele>
        <time>2024-07-24T07:59:18Z</time>
      </trkpt>
      <trkpt lat="49.79339" lon="2.41553">
        <ele>104.8</ele>
        <time>2024-07-24T07:59:19Z</time>
      </trkpt>
      <trkpt lat="49.79339" lon="2.41553">
        <ele>104.8</ele>
        <time>2024-07-24T07:59:20Z</time>
      </trkpt>
      <trkpt lat="49.79339" lon="2.41553">
        <ele>104.8</ele>
        <time>2024-07-24T07:59:21Z</time>
      </trkpt>
      <trkpt lat="49.79339" lon="2.41553">
        <ele>104.8</ele>
        <time>2024-07-24T07:59:22Z</time>
      </trkpt>
      <trkpt lat="49.79339" lon="2.41553">
        <ele>104.8</ele>
        <time>2024-07-24T07:59:23Z</time>
      </trkpt>
      <trkpt lat="49.79339" lon="2.41553">
        <ele>104.8</ele>
        <time>2024-07-24T07:59:24Z</time>
      </trkpt>
      <trkpt lat="49.79339" lon="2.41553">
        <ele>104.8</ele>
        <time>2024-07-24T07:59:25Z</time>
      </trkpt>
      <trkpt lat="49.79339" lon="2.41553">
        <ele>104.8</ele>
        <time>2024-07-24T07:59:26Z</time>
      </trkpt>
      <trkpt lat="49.79339" lon="2.41553">
        <ele>104.8</ele>
        <time>2024-07-24T07:59:27Z</time>
      </trkpt>
      <trkpt lat="49.79339" lon="2.41553">
        <ele>104.8</ele>
        <time>2024-07-24T07:59:28Z</time>
      </trkpt>
      <trkpt lat="49.79339" lon="2.41553">
        <ele>104.8</ele>
        <time>2024-07-24T07:59:29Z</time>
      </trkpt>
      <trkpt lat="49.79339" lon="2.41553">
        <ele>104.8</ele>
        <time>2024-07-24T07:59:30Z</time>
      </trkpt>
      <trkpt lat="49.79339" lon="2.41553">
        <ele>104.8</ele>
        <time>2024-07-24T07:59:31Z</time>
      </trkpt>
      <trkpt lat="49.79339" lon="2.41553">
        <ele>104.8</ele>
        <time>2024-07-24T07:59:32Z</time>
      </trkpt>
      <trkpt lat="49.79339" lon="2.41553">
        <ele>104.8</ele>
        <time>2024-07-24T07:59:33Z</time>
      </trkpt>
      <trkpt lat="49.79339" lon="2.41553">
        <ele>104.8</ele>
        <time>2024-07-24T07:59:34Z</time>
      </trkpt>
      <trkpt lat="49.79339" lon="2.41553">
        <ele>104.8</ele>
        <time>2024-07-24T07:59:35Z</time>
      </trkpt>
      <trkpt lat="49.79339" lon="2.41553">
        <ele>104.8</ele>
        <time>2024-07-24T07:59:36Z</time>
      </trkpt>
      <trkpt lat="49.79339" lon="2.41552">
        <ele>104.8</ele>
        <time>2024-07-24T07:59:37Z</time>
      </trkpt>
      <trkpt lat="49.79339" lon="2.41552">
        <ele>104.8</ele>
        <time>2024-07-24T07:59:38Z</time>
      </trkpt>
      <trkpt lat="49.79339" lon="2.41552">
        <ele>104.8</ele>
        <time>2024-07-24T07:59:39Z</time>
      </trkpt>
      <trkpt lat="49.79339" lon="2.41552">
        <ele>104.8</ele>
        <time>2024-07-24T07:59:40Z</time>
      </trkpt>
      <trkpt lat="49.79339" lon="2.41552">
        <ele>104.8</ele>
        <time>2024-07-24T07:59:41Z</time>
      </trkpt>
      <trkpt lat="49.79339" lon="2.41552">
        <ele>104.8</ele>
        <time>2024-07-24T07:59:42Z</time>
      </trkpt>
      <trkpt lat="49.79339" lon="2.41552">
        <ele>104.8</ele>
        <time>2024-07-24T07:59:43Z</time>
      </trkpt>
      <trkpt lat="49.79339" lon="2.41552">
        <ele>104.8</ele>
        <time>2024-07-24T07:59:44Z</time>
      </trkpt>
      <trkpt lat="49.79339" lon="2.41552">
        <ele>104.8</ele>
        <time>2024-07-24T07:59:45Z</time>
      </trkpt>
      <trkpt lat="49.79339" lon="2.41552">
        <ele>104.8</ele>
        <time>2024-07-24T07:59:46Z</time>
      </trkpt>
      <trkpt lat="49.79339" lon="2.41552">
        <ele>104.8</ele>
        <time>2024-07-24T07:59:47Z</time>
      </trkpt>
      <trkpt lat="49.79339" lon="2.41552">
        <ele>104.8</ele>
        <time>2024-07-24T07:59:48Z</time>
      </trkpt>
      <trkpt lat="49.79339" lon="2.41552">
        <ele>104.8</ele>
        <time>2024-07-24T07:59:49Z</time>
      </trkpt>
      <trkpt lat="49.79339" lon="2.41552">
        <ele>104.8</ele>
        <time>2024-07-24T07:59:50Z</time>
      </trkpt>
      <trkpt lat="49.79339" lon="2.41552">
        <ele>104.8</ele>
        <time>2024-07-24T07:59:51Z</time>
      </trkpt>
      <trkpt lat="49.79339" lon="2.41552">
        <ele>104.8</ele>
        <time>2024-07-24T07:59:52Z</time>
      </trkpt>
      <trkpt lat="49.79339" lon="2.41552">
        <ele>104.8</ele>
        <time>2024-07-24T07:59:53Z</time>
      </trkpt>
      <trkpt lat="49.79339" lon="2.41552">
        <ele>104.8</ele>
        <time>2024-07-24T07:59:54Z</time>
      </trkpt>
      <trkpt lat="49.79339" lon="2.41552">
        <ele>104.8</ele>
        <time>2024-07-24T07:59:55Z</time>
      </trkpt>
      <trkpt lat="49.79339" lon="2.41552">
        <ele>104.8</ele>
        <time>2024-07-24T07:59:56Z</time>
      </trkpt>
      <trkpt lat="49.79339" lon="2.41552">
        <ele>104.8</ele>
        <time>2024-07-24T07:59:57Z</time>
      </trkpt>
      <trkpt lat="49.79339" lon="2.41552">
        <ele>104.8</ele>
        <time>2024-07-24T07:59:58Z</time>
      </trkpt>
      <trkpt lat="49.79339" lon="2.41552">
        <ele>104.8</ele>
        <time>2024-07-24T07:59:59Z</time>
      </trkpt>
      <trkpt lat="49.79339" lon="2.41552">
        <ele>104.8</ele>
        <time>2024-07-24T08:00:00Z</time>
      </trkpt>
      <trkpt lat="49.79339" lon="2.41552">
        <ele>104.8</ele>
        <time>2024-07-24T08:00:01Z</time>
      </trkpt>
      <trkpt lat="49.79339" lon="2.41552">
        <ele>104.8</ele>
        <time>2024-07-24T08:00:02Z</time>
      </trkpt>
      <trkpt lat="49.79339" lon="2.41551">
        <ele>104.8</ele>
        <time>2024-07-24T08:00:03Z</time>
      </trkpt>
      <trkpt lat="49.79339" lon="2.41551">
        <ele>104.8</ele>
        <time>2024-07-24T08:00:04Z</time>
      </trkpt>
      <trkpt lat="49.79339" lon="2.41551">
        <ele>104.8</ele>
        <time>2024-07-24T08:00:05Z</time>
      </trkpt>
      <trkpt lat="49.79339" lon="2.41551">
        <ele>104.8</ele>
        <time>2024-07-24T08:00:06Z</time>
      </trkpt>
      <trkpt lat="49.79339" lon="2.41551">
        <ele>104.8</ele>
        <time>2024-07-24T08:00:07Z</time>
      </trkpt>
      <trkpt lat="49.79339" lon="2.41551">
        <ele>104.8</ele>
        <time>2024-07-24T08:00:08Z</time>
      </trkpt>
      <trkpt lat="49.79339" lon="2.41551">
        <ele>104.8</ele>
        <time>2024-07-24T08:00:09Z</time>
      </trkpt>
      <trkpt lat="49.79339" lon="2.41551">
        <ele>104.8</ele>
        <time>2024-07-24T08:00:10Z</time>
      </trkpt>
      <trkpt lat="49.79339" lon="2.41551">
        <ele>104.8</ele>
        <time>2024-07-24T08:00:11Z</time>
      </trkpt>
      <trkpt lat="49.79339" lon="2.41551">
        <ele>104.8</ele>
        <time>2024-07-24T08:00:12Z</time>
      </trkpt>
      <trkpt lat="49.79339" lon="2.41551">
        <ele>104.8</ele>
        <time>2024-07-24T08:00:13Z</time>
      </trkpt>
      <trkpt lat="49.79339" lon="2.41551">
        <ele>104.8</ele>
        <time>2024-07-24T08:00:14Z</time>
      </trkpt>
      <trkpt lat="49.79339" lon="2.41551">
        <ele>104.8</ele>
        <time>2024-07-24T08:00:15Z</time>
      </trkpt>
      <trkpt lat="49.79339" lon="2.41551">
        <ele>104.8</ele>
        <time>2024-07-24T08:00:16Z</time>
      </trkpt>
      <trkpt lat="49.79339" lon="2.41551">
        <ele>104.8</ele>
        <time>2024-07-24T08:00:17Z</time>
      </trkpt>
      <trkpt lat="49.79339" lon="2.41551">
        <ele>104.8</ele>
        <time>2024-07-24T08:00:18Z</time>
      </trkpt>
      <trkpt lat="49.79339" lon="2.41551">
        <ele>104.8</ele>
        <time>2024-07-24T08:00:19Z</time>
      </trkpt>
      <trkpt lat="49.79339" lon="2.41551">
        <ele>104.8</ele>
        <time>2024-07-24T08:00:20Z</time>
      </trkpt>
      <trkpt lat="49.79339" lon="2.41551">
        <ele>104.8</ele>
        <time>2024-07-24T08:00:21Z</time>
      </trkpt>
      <trkpt lat="49.79339" lon="2.41551">
        <ele>104.8</ele>
        <time>2024-07-24T08:00:22Z</time>
      </trkpt>
      <trkpt lat="49.79339" lon="2.41551">
        <ele>104.8</ele>
        <time>2024-07-24T08:00:23Z</time>
      </trkpt>
      <trkpt lat="49.79339" lon="2.41551">
        <ele>104.8</ele>
        <time>2024-07-24T08:00:24Z</time>
      </trkpt>
      <trkpt lat="49.79339" lon="2.41551">
        <ele>104.8</ele>
        <time>2024-07-24T08:00:25Z</time>
      </trkpt>
      <trkpt lat="49.79339" lon="2.41551">
        <ele>104.8</ele>
        <time>2024-07-24T08:00:26Z</time>
      </trkpt>
      <trkpt lat="49.79339" lon="2.41551">
        <ele>104.8</ele>
        <time>2024-07-24T08:00:27Z</time>
      </trkpt>
      <trkpt lat="49.79339" lon="2.4155">
        <ele>104.8</ele>
        <time>2024-07-24T08:00:28Z</time>
      </trkpt>
      <trkpt lat="49.79339" lon="2.4155">
        <ele>104.8</ele>
        <time>2024-07-24T08:00:29Z</time>
      </trkpt>
      <trkpt lat="49.79339" lon="2.4155">
        <ele>104.8</ele>
        <time>2024-07-24T08:00:30Z</time>
      </trkpt>
      <trkpt lat="49.79339" lon="2.4155">
        <ele>104.8</ele>
        <time>2024-07-24T08:00:31Z</time>
      </trkpt>
      <trkpt lat="49.79339" lon="2.4155">
        <ele>104.8</ele>
        <time>2024-07-24T08:00:32Z</time>
      </trkpt>
      <trkpt lat="49.79339" lon="2.4155">
        <ele>104.8</ele>
        <time>2024-07-24T08:00:33Z</time>
      </trkpt>
      <trkpt lat="49.79339" lon="2.4155">
        <ele>104.8</ele>
        <time>2024-07-24T08:00:34Z</time>
      </trkpt>
      <trkpt lat="49.79339" lon="2.4155">
        <ele>104.8</ele>
        <time>2024-07-24T08:00:35Z</time>
      </trkpt>
      <trkpt lat="49.79339" lon="2.4155">
        <ele>104.8</ele>
        <time>2024-07-24T08:00:36Z</time>
      </trkpt>
      <trkpt lat="49.79339" lon="2.4155">
        <ele>104.8</ele>
        <time>2024-07-24T08:00:37Z</time>
      </trkpt>
      <trkpt lat="49.79339" lon="2.4155">
        <ele>104.8</ele>
        <time>2024-07-24T08:00:38Z</time>
      </trkpt>
      <trkpt lat="49.79339" lon="2.4155">
        <ele>104.8</ele>
        <time>2024-07-24T08:00:39Z</time>
      </trkpt>
      <trkpt lat="49.79339" lon="2.4155">
        <ele>104.8</ele>
        <time>2024-07-24T08:00:40Z</time>
      </trkpt>
      <trkpt lat="49.79339" lon="2.4155">
        <ele>104.8</ele>
        <time>2024-07-24T08:00:41Z</time>
      </trkpt>
      <trkpt lat="49.79338" lon="2.4155">
        <ele>104.8</ele>
        <time>2024-07-24T08:00:42Z</time>
      </trkpt>
      <trkpt lat="49.79338" lon="2.4155">
        <ele>104.8</ele>
        <time>2024-07-24T08:00:43Z</time>
      </trkpt>
      <trkpt lat="49.79338" lon="2.4155">
        <ele>104.8</ele>
        <time>2024-07-24T08:00:44Z</time>
      </trkpt>
      <trkpt lat="49.79338" lon="2.41548">
        <ele>104.8</ele>
        <time>2024-07-24T08:00:45Z</time>
      </trkpt>
      <trkpt lat="49.79338" lon="2.41548">
        <ele>104.8</ele>
        <time>2024-07-24T08:00:46Z</time>
      </trkpt>
      <trkpt lat="49.79338" lon="2.41547">
        <ele>104.8</ele>
        <time>2024-07-24T08:00:47Z</time>
      </trkpt>
      <trkpt lat="49.79338" lon="2.41547">
        <ele>104.8</ele>
        <time>2024-07-24T08:00:48Z</time>
      </trkpt>
      <trkpt lat="49.79338" lon="2.41547">
        <ele>104.8</ele>
        <time>2024-07-24T08:00:49Z</time>
      </trkpt>
      <trkpt lat="49.79338" lon="2.41547">
        <ele>104.8</ele>
        <time>2024-07-24T08:00:50Z</time>
      </trkpt>
      <trkpt lat="49.79338" lon="2.41547">
        <ele>104.8</ele>
        <time>2024-07-24T08:00:51Z</time>
      </trkpt>
      <trkpt lat="49.79338" lon="2.41547">
        <ele>104.8</ele>
        <time>2024-07-24T08:00:52Z</time>
      </trkpt>
      <trkpt lat="49.79338" lon="2.41547">
        <ele>104.8</ele>
        <time>2024-07-24T08:00:53Z</time>
      </trkpt>
      <trkpt lat="49.79338" lon="2.41547">
        <ele>104.8</ele>
        <time>2024-07-24T08:00:54Z</time>
      </trkpt>
      <trkpt lat="49.79338" lon="2.41547">
        <ele>104.8</ele>
        <time>2024-07-24T08:00:55Z</time>
      </trkpt>
      <trkpt lat="49.79338" lon="2.41547">
        <ele>104.8</ele>
        <time>2024-07-24T08:00:56Z</time>
      </trkpt>
      <trkpt lat="49.79338" lon="2.41547">
        <ele>104.8</ele>
        <time>2024-07-24T08:00:57Z</time>
      </trkpt>
      <trkpt lat="49.79338" lon="2.41547">
        <ele>104.8</ele>
        <time>2024-07-24T08:00:58Z</time>
      </trkpt>
      <trkpt lat="49.79338" lon="2.41547">
        <ele>104.8</ele>
        <time>2024-07-24T08:00:59Z</time>
      </trkpt>
      <trkpt lat="49.79338" lon="2.41547">
        <ele>104.8</ele>
        <time>2024-07-24T08:01:00Z</time>
      </trkpt>
      <trkpt lat="49.79338" lon="2.41547">
        <ele>104.8</ele>
        <time>2024-07-24T08:01:01Z</time>
      </trkpt>
      <trkpt lat="49.79338" lon="2.41547">
        <ele>104.8</ele>
        <time>2024-07-24T08:01:02Z</time>
      </trkpt>
      <trkpt lat="49.79338" lon="2.41547">
        <ele>104.8</ele>
        <time>2024-07-24T08:01:03Z</time>
      </trkpt>
      <trkpt lat="49.79338" lon="2.41547">
        <ele>104.8</ele>
        <time>2024-07-24T08:01:04Z</time>
      </trkpt>
      <trkpt lat="49.79338" lon="2.41547">
        <ele>104.8</ele>
        <time>2024-07-24T08:01:05Z</time>
      </trkpt>
      <trkpt lat="49.79338" lon="2.41547">
        <ele>104.8</ele>
        <time>2024-07-24T08:01:06Z</time>
      </trkpt>
      <trkpt lat="49.79338" lon="2.41547">
        <ele>104.8</ele>
        <time>2024-07-24T08:01:07Z</time>
      </trkpt>
      <trkpt lat="49.79338" lon="2.41547">
        <ele>104.8</ele>
        <time>2024-07-24T08:01:08Z</time>
      </trkpt>
      <trkpt lat="49.79338" lon="2.41547">
        <ele>104.8</ele>
        <time>2024-07-24T08:01:09Z</time>
      </trkpt>
      <trkpt lat="49.79338" lon="2.41547">
        <ele>104.8</ele>
        <time>2024-07-24T08:01:10Z</time>
      </trkpt>
      <trkpt lat="49.79338" lon="2.41547">
        <ele>104.8</ele>
        <time>2024-07-24T08:01:11Z</time>
      </trkpt>
      <trkpt lat="49.79338" lon="2.41547">
        <ele>104.8</ele>
        <time>2024-07-24T08:01:12Z</time>
      </trkpt>
      <trkpt lat="49.79338" lon="2.41547">
        <ele>104.8</ele>
        <time>2024-07-24T08:01:13Z</time>
      </trkpt>
      <trkpt lat="49.79338" lon="2.41547">
        <ele>104.8</ele>
        <time>2024-07-24T08:01:14Z</time>
      </trkpt>
      <trkpt lat="49.79338" lon="2.41547">
        <ele>104.8</ele>
        <time>2024-07-24T08:01:15Z</time>
      </trkpt>
      <trkpt lat="49.79338" lon="2.41547">
        <ele>104.8</ele>
        <time>2024-07-24T08:01:16Z</time>
      </trkpt>
      <trkpt lat="49.79338" lon="2.41547">
        <ele>104.8</ele>
        <time>2024-07-24T08:01:17Z</time>
      </trkpt>
      <trkpt lat="49.79338" lon="2.41547">
        <ele>104.8</ele>
        <time>2024-07-24T08:01:18Z</time>
      </trkpt>
      <trkpt lat="49.79338" lon="2.41547">
        <ele>104.8</ele>
        <time>2024-07-24T08:01:19Z</time>
      </trkpt>
      <trkpt lat="49.79338" lon="2.41547">
        <ele>104.8</ele>
        <time>2024-07-24T08:01:20Z</time>
      </trkpt>
      <trkpt lat="49.79338" lon="2.41547">
        <ele>104.8</ele>
        <time>2024-07-24T08:01:21Z</time>
      </trkpt>
      <trkpt lat="49.79338" lon="2.41547">
        <ele>104.8</ele>
        <time>2024-07-24T08:01:22Z</time>
      </trkpt>
      <trkpt lat="49.79338" lon="2.41547">
        <ele>104.8</ele>
        <time>2024-07-24T08:01:23Z</time>
      </trkpt>
      <trkpt lat="49.79338" lon="2.41547">
        <ele>104.8</ele>
        <time>2024-07-24T08:01:24Z</time>
      </trkpt>
      <trkpt lat="49.79338" lon="2.41547">
        <ele>104.8</ele>
        <time>2024-07-24T08:01:25Z</time>
      </trkpt>
      <trkpt lat="49.79338" lon="2.41547">
        <ele>104.8</ele>
        <time>2024-07-24T08:01:26Z</time>
      </trkpt>
      <trkpt lat="49.79338" lon="2.41547">
        <ele>104.8</ele>
        <time>2024-07-24T08:01:27Z</time>
      </trkpt>
      <trkpt lat="49.79338" lon="2.41547">
        <ele>104.8</ele>
        <time>2024-07-24T08:01:28Z</time>
      </trkpt>
      <trkpt lat="49.79339" lon="2.41551">
        <ele>104.8</ele>
        <time>2024-07-24T08:01:29Z</time>
      </trkpt>
      <trkpt lat="49.79339" lon="2.41551">
        <ele>104.8</ele>
        <time>2024-07-24T08:01:30Z</time>
      </trkpt>
      <trkpt lat="49.7934" lon="2.41551">
        <ele>104.8</ele>
        <time>2024-07-24T08:01:31Z</time>
      </trkpt>
      <trkpt lat="49.7934" lon="2.4155">
        <ele>104.8</ele>
        <time>2024-07-24T08:01:32Z</time>
      </trkpt>
      <trkpt lat="49.7934" lon="2.41549">
        <ele>104.7</ele>
        <time>2024-07-24T08:01:33Z</time>
      </trkpt>
      <trkpt lat="49.7934" lon="2.41548">
        <ele>104.7</ele>
        <time>2024-07-24T08:01:34Z</time>
      </trkpt>
      <trkpt lat="49.7934" lon="2.41547">
        <ele>104.7</ele>
        <time>2024-07-24T08:01:35Z</time>
      </trkpt>
      <trkpt lat="49.7934" lon="2.41546">
        <ele>104.7</ele>
        <time>2024-07-24T08:01:36Z</time>
      </trkpt>
      <trkpt lat="49.79341" lon="2.41546">
        <ele>104.7</ele>
        <time>2024-07-24T08:01:37Z</time>
      </trkpt>
      <trkpt lat="49.79342" lon="2.41547">
        <ele>104.7</ele>
        <time>2024-07-24T08:01:38Z</time>
      </trkpt>
      <trkpt lat="49.79342" lon="2.41547">
        <ele>104.7</ele>
        <time>2024-07-24T08:01:39Z</time>
      </trkpt>
      <trkpt lat="49.79342" lon="2.41547">
        <ele>104.7</ele>
        <time>2024-07-24T08:01:40Z</time>
      </trkpt>
      <trkpt lat="49.79342" lon="2.41546">
        <ele>104.7</ele>
        <time>2024-07-24T08:01:41Z</time>
      </trkpt>
      <trkpt lat="49.79343" lon="2.41546">
        <ele>104.7</ele>
        <time>2024-07-24T08:01:42Z</time>
      </trkpt>
      <trkpt lat="49.79343" lon="2.41547">
        <ele>104.7</ele>
        <time>2024-07-24T08:01:43Z</time>
      </trkpt>
      <trkpt lat="49.79343" lon="2.41547">
        <ele>104.7</ele>
        <time>2024-07-24T08:01:44Z</time>
      </trkpt>
      <trkpt lat="49.79343" lon="2.41547">
        <ele>104.7</ele>
        <time>2024-07-24T08:01:45Z</time>
      </trkpt>
      <trkpt lat="49.79343" lon="2.41547">
        <ele>104.7</ele>
        <time>2024-07-24T08:01:46Z</time>
      </trkpt>
      <trkpt lat="49.79343" lon="2.41547">
        <ele>104.7</ele>
        <time>2024-07-24T08:01:47Z</time>
      </trkpt>
      <trkpt lat="49.79343" lon="2.41547">
        <ele>104.7</ele>
        <time>2024-07-24T08:01:48Z</time>
      </trkpt>
      <trkpt lat="49.79343" lon="2.41547">
        <ele>104.7</ele>
        <time>2024-07-24T08:01:49Z</time>
      </trkpt>
      <trkpt lat="49.79343" lon="2.41547">
        <ele>104.7</ele>
        <time>2024-07-24T08:01:50Z</time>
      </trkpt>
      <trkpt lat="49.79343" lon="2.41547">
        <ele>104.7</ele>
        <time>2024-07-24T08:01:51Z</time>
      </trkpt>
      <trkpt lat="49.79343" lon="2.41547">
        <ele>104.7</ele>
        <time>2024-07-24T08:01:52Z</time>
      </trkpt>
      <trkpt lat="49.79343" lon="2.41546">
        <ele>104.7</ele>
        <time>2024-07-24T08:01:53Z</time>
      </trkpt>
      <trkpt lat="49.79343" lon="2.41545">
        <ele>104.7</ele>
        <time>2024-07-24T08:01:54Z</time>
      </trkpt>
      <trkpt lat="49.79343" lon="2.41544">
        <ele>104.7</ele>
        <time>2024-07-24T08:01:55Z</time>
      </trkpt>
      <trkpt lat="49.79343" lon="2.41543">
        <ele>104.7</ele>
        <time>2024-07-24T08:01:56Z</time>
      </trkpt>
      <trkpt lat="49.79342" lon="2.41542">
        <ele>104.7</ele>
        <time>2024-07-24T08:01:57Z</time>
      </trkpt>
      <trkpt lat="49.79342" lon="2.41541">
        <ele>104.7</ele>
        <time>2024-07-24T08:01:58Z</time>
      </trkpt>
      <trkpt lat="49.79342" lon="2.41539">
        <ele>104.6</ele>
        <time>2024-07-24T08:01:59Z</time>
      </trkpt>
      <trkpt lat="49.79342" lon="2.41538">
        <ele>104.6</ele>
        <time>2024-07-24T08:02:00Z</time>
      </trkpt>
      <trkpt lat="49.79341" lon="2.41536">
        <ele>104.6</ele>
        <time>2024-07-24T08:02:01Z</time>
      </trkpt>
      <trkpt lat="49.79341" lon="2.41535">
        <ele>104.6</ele>
        <time>2024-07-24T08:02:02Z</time>
      </trkpt>
      <trkpt lat="49.79341" lon="2.41533">
        <ele>104.6</ele>
        <time>2024-07-24T08:02:03Z</time>
      </trkpt>
      <trkpt lat="49.79341" lon="2.41532">
        <ele>104.6</ele>
        <time>2024-07-24T08:02:04Z</time>
      </trkpt>
      <trkpt lat="49.79341" lon="2.41531">
        <ele>104.6</ele>
        <time>2024-07-24T08:02:05Z</time>
      </trkpt>
      <trkpt lat="49.7934" lon="2.4153">
        <ele>104.6</ele>
        <time>2024-07-24T08:02:06Z</time>
      </trkpt>
      <trkpt lat="49.7934" lon="2.4153">
        <ele>104.6</ele>
        <time>2024-07-24T08:02:07Z</time>
      </trkpt>
      <trkpt lat="49.79339" lon="2.4153">
        <ele>104.6</ele>
        <time>2024-07-24T08:02:08Z</time>
      </trkpt>
      <trkpt lat="49.79339" lon="2.41529">
        <ele>104.6</ele>
        <time>2024-07-24T08:02:09Z</time>
      </trkpt>
      <trkpt lat="49.79339" lon="2.41528">
        <ele>104.6</ele>
        <time>2024-07-24T08:02:10Z</time>
      </trkpt>
      <trkpt lat="49.79339" lon="2.41527">
        <ele>104.6</ele>
        <time>2024-07-24T08:02:11Z</time>
      </trkpt>
      <trkpt lat="49.79339" lon="2.41525">
        <ele>104.6</ele>
        <time>2024-07-24T08:02:12Z</time>
      </trkpt>
      <trkpt lat="49.79338" lon="2.41524">
        <ele>104.5</ele>
        <time>2024-07-24T08:02:13Z</time>
      </trkpt>
      <trkpt lat="49.79338" lon="2.41524">
        <ele>104.5</ele>
        <time>2024-07-24T08:02:14Z</time>
      </trkpt>
      <trkpt lat="49.79338" lon="2.41523">
        <ele>104.5</ele>
        <time>2024-07-24T08:02:15Z</time>
      </trkpt>
      <trkpt lat="49.79337" lon="2.41523">
        <ele>104.5</ele>
        <time>2024-07-24T08:02:16Z</time>
      </trkpt>
      <trkpt lat="49.79337" lon="2.41523">
        <ele>104.5</ele>
        <time>2024-07-24T08:02:17Z</time>
      </trkpt>
      <trkpt lat="49.79336" lon="2.41522">
        <ele>104.5</ele>
        <time>2024-07-24T08:02:18Z</time>
      </trkpt>
      <trkpt lat="49.79336" lon="2.41522">
        <ele>104.5</ele>
        <time>2024-07-24T08:02:19Z</time>
      </trkpt>
      <trkpt lat="49.79336" lon="2.41522">
        <ele>104.5</ele>
        <time>2024-07-24T08:02:20Z</time>
      </trkpt>
      <trkpt lat="49.79336" lon="2.41522">
        <ele>104.5</ele>
        <time>2024-07-24T08:02:21Z</time>
      </trkpt>
      <trkpt lat="49.79337" lon="2.41523">
        <ele>104.5</ele>
        <time>2024-07-24T08:02:22Z</time>
      </trkpt>
      <trkpt lat="49.79337" lon="2.41523">
        <ele>104.5</ele>
        <time>2024-07-24T08:02:23Z</time>
      </trkpt>
      <trkpt lat="49.79338" lon="2.41524">
        <ele>104.5</ele>
        <time>2024-07-24T08:02:24Z</time>
      </trkpt>
      <trkpt lat="49.79338" lon="2.41525">
        <ele>104.5</ele>
        <time>2024-07-24T08:02:25Z</time>
      </trkpt>
      <trkpt lat="49.79338" lon="2.41526">
        <ele>104.5</ele>
        <time>2024-07-24T08:02:26Z</time>
      </trkpt>
      <trkpt lat="49.79339" lon="2.41527">
        <ele>104.5</ele>
        <time>2024-07-24T08:02:27Z</time>
      </trkpt>
      <trkpt lat="49.79339" lon="2.41527">
        <ele>104.5</ele>
        <time>2024-07-24T08:02:28Z</time>
      </trkpt>
      <trkpt lat="49.79339" lon="2.41528">
        <ele>104.5</ele>
        <time>2024-07-24T08:02:29Z</time>
      </trkpt>
      <trkpt lat="49.79339" lon="2.41528">
        <ele>104.5</ele>
        <time>2024-07-24T08:02:30Z</time>
      </trkpt>
      <trkpt lat="49.79339" lon="2.41528">
        <ele>104.5</ele>
        <time>2024-07-24T08:02:31Z</time>
      </trkpt>
      <trkpt lat="49.79339" lon="2.41529">
        <ele>104.5</ele>
        <time>2024-07-24T08:02:32Z</time>
      </trkpt>
      <trkpt lat="49.79339" lon="2.4153">
        <ele>104.4</ele>
        <time>2024-07-24T08:02:33Z</time>
      </trkpt>
      <trkpt lat="49.79338" lon="2.41532">
        <ele>104.4</ele>
        <time>2024-07-24T08:02:34Z</time>
      </trkpt>
      <trkpt lat="49.79338" lon="2.41533">
        <ele>104.4</ele>
        <time>2024-07-24T08:02:35Z</time>
      </trkpt>
      <trkpt lat="49.79338" lon="2.41534">
        <ele>104.4</ele>
        <time>2024-07-24T08:02:36Z</time>
      </trkpt>
      <trkpt lat="49.79338" lon="2.41535">
        <ele>104.4</ele>
        <time>2024-07-24T08:02:37Z</time>
      </trkpt>
      <trkpt lat="49.79339" lon="2.41536">
        <ele>104.4</ele>
        <time>2024-07-24T08:02:38Z</time>
      </trkpt>
      <trkpt lat="49.79339" lon="2.41537">
        <ele>104.4</ele>
        <time>2024-07-24T08:02:39Z</time>
      </trkpt>
      <trkpt lat="49.79339" lon="2.41538">
        <ele>104.4</ele>
        <time>2024-07-24T08:02:40Z</time>
      </trkpt>
      <trkpt lat="49.79339" lon="2.41538">
        <ele>104.4</ele>
        <time>2024-07-24T08:02:41Z</time>
      </trkpt>
      <trkpt lat="49.79339" lon="2.41539">
        <ele>104.4</ele>
        <time>2024-07-24T08:02:42Z</time>
      </trkpt>
      <trkpt lat="49.79339" lon="2.4154">
        <ele>104.4</ele>
        <time>2024-07-24T08:02:43Z</time>
      </trkpt>
      <trkpt lat="49.79339" lon="2.41541">
        <ele>104.4</ele>
        <time>2024-07-24T08:02:44Z</time>
      </trkpt>
      <trkpt lat="49.79339" lon="2.41541">
        <ele>104.4</ele>
        <time>2024-07-24T08:02:45Z</time>
      </trkpt>
      <trkpt lat="49.79339" lon="2.41542">
        <ele>104.4</ele>
        <time>2024-07-24T08:02:46Z</time>
      </trkpt>
      <trkpt lat="49.79339" lon="2.41542">
        <ele>104.3</ele>
        <time>2024-07-24T08:02:47Z</time>
      </trkpt>
      <trkpt lat="49.7934" lon="2.41541">
        <ele>104.3</ele>
        <time>2024-07-24T08:02:48Z</time>
      </trkpt>
      <trkpt lat="49.7934" lon="2.41541">
        <ele>104.3</ele>
        <time>2024-07-24T08:02:49Z</time>
      </trkpt>
      <trkpt lat="49.7934" lon="2.4154">
        <ele>104.3</ele>
        <time>2024-07-24T08:02:50Z</time>
      </trkpt>
      <trkpt lat="49.7934" lon="2.4154">
        <ele>104.3</ele>
        <time>2024-07-24T08:02:51Z</time>
      </trkpt>
      <trkpt lat="49.7934" lon="2.4154">
        <ele>104.3</ele>
        <time>2024-07-24T08:02:52Z</time>
      </trkpt>
      <trkpt lat="49.7934" lon="2.4154">
        <ele>104.3</ele>
        <time>2024-07-24T08:02:53Z</time>
      </trkpt>
      <trkpt lat="49.7934" lon="2.4154">
        <ele>104.3</ele>
        <time>2024-07-24T08:02:54Z</time>
      </trkpt>
      <trkpt lat="49.7934" lon="2.4154">
        <ele>104.3</ele>
        <time>2024-07-24T08:02:55Z</time>
      </trkpt>
      <trkpt lat="49.7934" lon="2.4154">
        <ele>104.3</ele>
        <time>2024-07-24T08:02:56Z</time>
      </trkpt>
      <trkpt lat="49.79339" lon="2.41539">
        <ele>104.3</ele>
        <time>2024-07-24T08:02:57Z</time>
      </trkpt>
      <trkpt lat="49.79339" lon="2.41539">
        <ele>104.3</ele>
        <time>2024-07-24T08:02:58Z</time>
      </trkpt>
      <trkpt lat="49.79339" lon="2.4154">
        <ele>104.3</ele>
        <time>2024-07-24T08:02:59Z</time>
      </trkpt>
      <trkpt lat="49.79339" lon="2.4154">
        <ele>104.3</ele>
        <time>2024-07-24T08:03:00Z</time>
      </trkpt>
      <trkpt lat="49.79339" lon="2.41541">
        <ele>104.3</ele>
        <time>2024-07-24T08:03:01Z</time>
      </trkpt>
      <trkpt lat="49.79339" lon="2.41542">
        <ele>104.3</ele>
        <time>2024-07-24T08:03:02Z</time>
      </trkpt>
      <trkpt lat="49.7934" lon="2.41542">
        <ele>104.3</ele>
        <time>2024-07-24T08:03:03Z</time>
      </trkpt>
      <trkpt lat="49.7934" lon="2.41542">
        <ele>104.3</ele>
        <time>2024-07-24T08:03:04Z</time>
      </trkpt>
      <trkpt lat="49.7934" lon="2.41542">
        <ele>104.3</ele>
        <time>2024-07-24T08:03:05Z</time>
      </trkpt>
      <trkpt lat="49.7934" lon="2.41542">
        <ele>104.3</ele>
        <time>2024-07-24T08:03:06Z</time>
      </trkpt>
      <trkpt lat="49.7934" lon="2.41542">
        <ele>104.3</ele>
        <time>2024-07-24T08:03:07Z</time>
      </trkpt>
      <trkpt lat="49.7934" lon="2.41542">
        <ele>104.3</ele>
        <time>2024-07-24T08:03:08Z</time>
      </trkpt>
      <trkpt lat="49.7934" lon="2.41542">
        <ele>104.2</ele>
        <time>2024-07-24T08:03:09Z</time>
      </trkpt>
      <trkpt lat="49.7934" lon="2.41542">
        <ele>104.2</ele>
        <time>2024-07-24T08:03:10Z</time>
      </trkpt>
      <trkpt lat="49.7934" lon="2.41542">
        <ele>104.2</ele>
        <time>2024-07-24T08:03:11Z</time>
      </trkpt>
      <trkpt lat="49.7934" lon="2.41542">
        <ele>104.2</ele>
        <time>2024-07-24T08:03:12Z</time>
      </trkpt>
      <trkpt lat="49.7934" lon="2.41542">
        <ele>104.2</ele>
        <time>2024-07-24T08:03:13Z</time>
      </trkpt>
      <trkpt lat="49.7934" lon="2.41542">
        <ele>104.2</ele>
        <time>2024-07-24T08:03:14Z</time>
      </trkpt>
      <trkpt lat="49.7934" lon="2.41542">
        <ele>104.2</ele>
        <time>2024-07-24T08:03:15Z</time>
      </trkpt>
      <trkpt lat="49.7934" lon="2.41542">
        <ele>104.2</ele>
        <time>2024-07-24T08:03:16Z</time>
      </trkpt>
      <trkpt lat="49.7934" lon="2.41542">
        <ele>104.2</ele>
        <time>2024-07-24T08:03:17Z</time>
      </trkpt>
      <trkpt lat="49.7934" lon="2.41542">
        <ele>104.2</ele>
        <time>2024-07-24T08:03:18Z</time>
      </trkpt>
      <trkpt lat="49.7934" lon="2.41542">
        <ele>104.2</ele>
        <time>2024-07-24T08:03:19Z</time>
      </trkpt>
      <trkpt lat="49.7934" lon="2.41542">
        <ele>104.2</ele>
        <time>2024-07-24T08:03:20Z</time>
      </trkpt>
      <trkpt lat="49.7934" lon="2.41542">
        <ele>104.2</ele>
        <time>2024-07-24T08:03:21Z</time>
      </trkpt>
      <trkpt lat="49.7934" lon="2.41542">
        <ele>104.2</ele>
        <time>2024-07-24T08:03:22Z</time>
      </trkpt>
      <trkpt lat="49.7934" lon="2.41542">
        <ele>104.2</ele>
        <time>2024-07-24T08:03:23Z</time>
      </trkpt>
      <trkpt lat="49.7934" lon="2.41542">
        <ele>104.2</ele>
        <time>2024-07-24T08:03:24Z</time>
      </trkpt>
      <trkpt lat="49.7934" lon="2.41542">
        <ele>104.2</ele>
        <time>2024-07-24T08:03:25Z</time>
      </trkpt>
      <trkpt lat="49.7934" lon="2.41542">
        <ele>104.2</ele>
        <time>2024-07-24T08:03:26Z</time>
      </trkpt>
      <trkpt lat="49.7934" lon="2.41542">
        <ele>104.2</ele>
        <time>2024-07-24T08:03:27Z</time>
      </trkpt>
      <trkpt lat="49.7934" lon="2.41542">
        <ele>104.2</ele>
        <time>2024-07-24T08:03:28Z</time>
      </trkpt>
      <trkpt lat="49.79338" lon="2.41538">
        <ele>104.2</ele>
        <time>2024-07-24T08:03:29Z</time>
      </trkpt>
      <trkpt lat="49.79337" lon="2.41537">
        <ele>104.2</ele>
        <time>2024-07-24T08:03:30Z</time>
      </trkpt>
      <trkpt lat="49.79337" lon="2.41536">
        <ele>104.2</ele>
        <time>2024-07-24T08:03:31Z</time>
      </trkpt>
      <trkpt lat="49.79337" lon="2.41536">
        <ele>104.2</ele>
        <time>2024-07-24T08:03:32Z</time>
      </trkpt>
      <trkpt lat="49.79337" lon="2.41536">
        <ele>104.2</ele>
        <time>2024-07-24T08:03:33Z</time>
      </trkpt>
      <trkpt lat="49.79337" lon="2.41536">
        <ele>104.2</ele>
        <time>2024-07-24T08:03:34Z</time>
      </trkpt>
      <trkpt lat="49.79337" lon="2.41536">
        <ele>104.2</ele>
        <time>2024-07-24T08:03:35Z</time>
      </trkpt>
      <trkpt lat="49.79337" lon="2.41536">
        <ele>104.2</ele>
        <time>2024-07-24T08:03:36Z</time>
      </trkpt>
      <trkpt lat="49.79337" lon="2.41536">
        <ele>104.2</ele>
        <time>2024-07-24T08:03:37Z</time>
      </trkpt>
      <trkpt lat="49.79337" lon="2.41536">
        <ele>104.2</ele>
        <time>2024-07-24T08:03:38Z</time>
      </trkpt>
      <trkpt lat="49.79337" lon="2.41536">
        <ele>104.2</ele>
        <time>2024-07-24T08:03:39Z</time>
      </trkpt>
      <trkpt lat="49.79337" lon="2.41536">
        <ele>104.2</ele>
        <time>2024-07-24T08:03:40Z</time>
      </trkpt>
      <trkpt lat="49.79337" lon="2.41536">
        <ele>104.2</ele>
        <time>2024-07-24T08:03:41Z</time>
      </trkpt>
      <trkpt lat="49.79337" lon="2.41536">
        <ele>104.2</ele>
        <time>2024-07-24T08:03:42Z</time>
      </trkpt>
      <trkpt lat="49.79337" lon="2.41536">
        <ele>104.2</ele>
        <time>2024-07-24T08:03:43Z</time>
      </trkpt>
      <trkpt lat="49.79337" lon="2.41536">
        <ele>104.2</ele>
        <time>2024-07-24T08:03:44Z</time>
      </trkpt>
      <trkpt lat="49.79337" lon="2.41536">
        <ele>104.2</ele>
        <time>2024-07-24T08:03:45Z</time>
      </trkpt>
      <trkpt lat="49.79337" lon="2.41536">
        <ele>104.2</ele>
        <time>2024-07-24T08:03:46Z</time>
      </trkpt>
      <trkpt lat="49.79337" lon="2.41536">
        <ele>104.2</ele>
        <time>2024-07-24T08:03:47Z</time>
      </trkpt>
      <trkpt lat="49.79337" lon="2.41536">
        <ele>104.2</ele>
        <time>2024-07-24T08:03:48Z</time>
      </trkpt>
      <trkpt lat="49.79337" lon="2.41536">
        <ele>104.2</ele>
        <time>2024-07-24T08:03:49Z</time>
      </trkpt>
      <trkpt lat="49.79337" lon="2.41536">
        <ele>104.2</ele>
        <time>2024-07-24T08:03:50Z</time>
      </trkpt>
      <trkpt lat="49.79337" lon="2.41536">
        <ele>104.2</ele>
        <time>2024-07-24T08:03:51Z</time>
      </trkpt>
      <trkpt lat="49.79337" lon="2.41536">
        <ele>104.2</ele>
        <time>2024-07-24T08:03:52Z</time>
      </trkpt>
      <trkpt lat="49.79337" lon="2.41536">
        <ele>104.2</ele>
        <time>2024-07-24T08:03:53Z</time>
      </trkpt>
      <trkpt lat="49.79337" lon="2.41536">
        <ele>104.2</ele>
        <time>2024-07-24T08:03:54Z</time>
      </trkpt>
      <trkpt lat="49.79337" lon="2.41536">
        <ele>104.2</ele>
        <time>2024-07-24T08:03:55Z</time>
      </trkpt>
      <trkpt lat="49.79337" lon="2.41536">
        <ele>104.2</ele>
        <time>2024-07-24T08:03:56Z</time>
      </trkpt>
      <trkpt lat="49.79337" lon="2.41536">
        <ele>104.2</ele>
        <time>2024-07-24T08:03:57Z</time>
      </trkpt>
      <trkpt lat="49.79337" lon="2.41536">
        <ele>104.2</ele>
        <time>2024-07-24T08:03:58Z</time>
      </trkpt>
      <trkpt lat="49.79337" lon="2.41536">
        <ele>104.2</ele>
        <time>2024-07-24T08:03:59Z</time>
      </trkpt>
      <trkpt lat="49.79337" lon="2.41536">
        <ele>104.2</ele>
        <time>2024-07-24T08:04:00Z</time>
      </trkpt>
      <trkpt lat="49.79337" lon="2.41536">
        <ele>104.2</ele>
        <time>2024-07-24T08:04:01Z</time>
      </trkpt>
      <trkpt lat="49.79337" lon="2.41536">
        <ele>104.2</ele>
        <time>2024-07-24T08:04:02Z</time>
      </trkpt>
      <trkpt lat="49.79337" lon="2.41536">
        <ele>104.2</ele>
        <time>2024-07-24T08:04:03Z</time>
      </trkpt>
      <trkpt lat="49.79337" lon="2.41536">
        <ele>104.2</ele>
        <time>2024-07-24T08:04:04Z</time>
      </trkpt>
      <trkpt lat="49.79337" lon="2.41536">
        <ele>104.2</ele>
        <time>2024-07-24T08:04:05Z</time>
      </trkpt>
      <trkpt lat="49.79337" lon="2.41536">
        <ele>104.2</ele>
        <time>2024-07-24T08:04:06Z</time>
      </trkpt>
      <trkpt lat="49.79337" lon="2.41536">
        <ele>104.2</ele>
        <time>2024-07-24T08:04:07Z</time>
      </trkpt>
      <trkpt lat="49.79337" lon="2.41536">
        <ele>104.2</ele>
        <time>2024-07-24T08:04:08Z</time>
      </trkpt>
      <trkpt lat="49.79337" lon="2.41536">
        <ele>104.2</ele>
        <time>2024-07-24T08:04:09Z</time>
      </trkpt>
      <trkpt lat="49.79337" lon="2.41536">
        <ele>104.2</ele>
        <time>2024-07-24T08:04:10Z</time>
      </trkpt>
      <trkpt lat="49.79337" lon="2.41536">
        <ele>104.2</ele>
        <time>2024-07-24T08:04:11Z</time>
      </trkpt>
      <trkpt lat="49.79337" lon="2.41536">
        <ele>104.2</ele>
        <time>2024-07-24T08:04:12Z</time>
      </trkpt>
      <trkpt lat="49.79337" lon="2.41536">
        <ele>104.2</ele>
        <time>2024-07-24T08:04:13Z</time>
      </trkpt>
      <trkpt lat="49.79337" lon="2.41536">
        <ele>104.2</ele>
        <time>2024-07-24T08:04:14Z</time>
      </trkpt>
      <trkpt lat="49.79337" lon="2.41536">
        <ele>104.2</ele>
        <time>2024-07-24T08:04:15Z</time>
      </trkpt>
      <trkpt lat="49.79337" lon="2.41536">
        <ele>104.2</ele>
        <time>2024-07-24T08:04:16Z</time>
      </trkpt>
      <trkpt lat="49.79337" lon="2.41536">
        <ele>104.2</ele>
        <time>2024-07-24T08:04:17Z</time>
      </trkpt>
      <trkpt lat="49.79337" lon="2.41536">
        <ele>104.2</ele>
        <time>2024-07-24T08:04:18Z</time>
      </trkpt>
      <trkpt lat="49.79337" lon="2.41536">
        <ele>104.2</ele>
        <time>2024-07-24T08:04:19Z</time>
      </trkpt>
      <trkpt lat="49.79337" lon="2.41536">
        <ele>104.2</ele>
        <time>2024-07-24T08:04:20Z</time>
      </trkpt>
      <trkpt lat="49.79337" lon="2.41536">
        <ele>104.2</ele>
        <time>2024-07-24T08:04:21Z</time>
      </trkpt>
      <trkpt lat="49.79337" lon="2.41536">
        <ele>104.2</ele>
        <time>2024-07-24T08:04:22Z</time>
      </trkpt>
      <trkpt lat="49.79337" lon="2.41536">
        <ele>104.2</ele>
        <time>2024-07-24T08:04:23Z</time>
      </trkpt>
      <trkpt lat="49.79337" lon="2.41536">
        <ele>104.2</ele>
        <time>2024-07-24T08:04:24Z</time>
      </trkpt>
      <trkpt lat="49.79337" lon="2.41536">
        <ele>104.2</ele>
        <time>2024-07-24T08:04:25Z</time>
      </trkpt>
      <trkpt lat="49.79337" lon="2.41536">
        <ele>104.2</ele>
        <time>2024-07-24T08:04:26Z</time>
      </trkpt>
      <trkpt lat="49.79337" lon="2.41536">
        <ele>104.2</ele>
        <time>2024-07-24T08:04:27Z</time>
      </trkpt>
      <trkpt lat="49.79337" lon="2.41536">
        <ele>104.2</ele>
        <time>2024-07-24T08:04:28Z</time>
      </trkpt>
      <trkpt lat="49.79337" lon="2.41536">
        <ele>104.2</ele>
        <time>2024-07-24T08:04:29Z</time>
      </trkpt>
      <trkpt lat="49.79337" lon="2.41536">
        <ele>104.2</ele>
        <time>2024-07-24T08:04:30Z</time>
      </trkpt>
      <trkpt lat="49.79337" lon="2.41536">
        <ele>104.2</ele>
        <time>2024-07-24T08:04:31Z</time>
      </trkpt>
      <trkpt lat="49.79337" lon="2.41536">
        <ele>104.2</ele>
        <time>2024-07-24T08:04:32Z</time>
      </trkpt>
      <trkpt lat="49.79337" lon="2.41536">
        <ele>104.2</ele>
        <time>2024-07-24T08:04:33Z</time>
      </trkpt>
      <trkpt lat="49.79337" lon="2.41536">
        <ele>104.2</ele>
        <time>2024-07-24T08:04:34Z</time>
      </trkpt>
      <trkpt lat="49.79337" lon="2.41536">
        <ele>104.2</ele>
        <time>2024-07-24T08:04:35Z</time>
      </trkpt>
      <trkpt lat="49.79337" lon="2.41536">
        <ele>104.2</ele>
        <time>2024-07-24T08:04:36Z</time>
      </trkpt>
      <trkpt lat="49.79337" lon="2.41536">
        <ele>104.2</ele>
        <time>2024-07-24T08:04:37Z</time>
      </trkpt>
      <trkpt lat="49.79337" lon="2.41536">
        <ele>104.2</ele>
        <time>2024-07-24T08:04:38Z</time>
      </trkpt>
      <trkpt lat="49.79337" lon="2.41536">
        <ele>104.2</ele>
        <time>2024-07-24T08:04:39Z</time>
      </trkpt>
      <trkpt lat="49.79337" lon="2.41536">
        <ele>104.2</ele>
        <time>2024-07-24T08:04:40Z</time>
      </trkpt>
      <trkpt lat="49.79337" lon="2.41536">
        <ele>104.2</ele>
        <time>2024-07-24T08:04:41Z</time>
      </trkpt>
      <trkpt lat="49.79337" lon="2.41536">
        <ele>104.2</ele>
        <time>2024-07-24T08:04:42Z</time>
      </trkpt>
      <trkpt lat="49.79337" lon="2.41536">
        <ele>104.2</ele>
        <time>2024-07-24T08:04:43Z</time>
      </trkpt>
      <trkpt lat="49.79337" lon="2.41536">
        <ele>104.2</ele>
        <time>2024-07-24T08:04:44Z</time>
      </trkpt>
      <trkpt lat="49.79337" lon="2.41536">
        <ele>104.2</ele>
        <time>2024-07-24T08:04:45Z</time>
      </trkpt>
      <trkpt lat="49.79337" lon="2.41536">
        <ele>104.2</ele>
        <time>2024-07-24T08:04:46Z</time>
      </trkpt>
      <trkpt lat="49.79337" lon="2.41536">
        <ele>104.2</ele>
        <time>2024-07-24T08:04:47Z</time>
      </trkpt>
      <trkpt lat="49.79337" lon="2.41536">
        <ele>104.2</ele>
        <time>2024-07-24T08:04:48Z</time>
      </trkpt>
      <trkpt lat="49.79337" lon="2.41536">
        <ele>104.2</ele>
        <time>2024-07-24T08:04:49Z</time>
      </trkpt>
      <trkpt lat="49.79337" lon="2.41536">
        <ele>104.2</ele>
        <time>2024-07-24T08:04:50Z</time>
      </trkpt>
      <trkpt lat="49.79337" lon="2.41536">
        <ele>104.2</ele>
        <time>2024-07-24T08:04:51Z</time>
      </trkpt>
      <trkpt lat="49.79337" lon="2.41536">
        <ele>104.2</ele>
        <time>2024-07-24T08:04:52Z</time>
      </trkpt>
      <trkpt lat="49.79337" lon="2.41536">
        <ele>104.2</ele>
        <time>2024-07-24T08:04:53Z</time>
      </trkpt>
      <trkpt lat="49.79337" lon="2.41536">
        <ele>104.2</ele>
        <time>2024-07-24T08:04:54Z</time>
      </trkpt>
      <trkpt lat="49.79337" lon="2.41536">
        <ele>104.2</ele>
        <time>2024-07-24T08:04:55Z</time>
      </trkpt>
      <trkpt lat="49.79337" lon="2.41536">
        <ele>104.2</ele>
        <time>2024-07-24T08:04:56Z</time>
      </trkpt>
      <trkpt lat="49.79337" lon="2.41536">
        <ele>104.2</ele>
        <time>2024-07-24T08:04:57Z</time>
      </trkpt>
      <trkpt lat="49.79337" lon="2.41536">
        <ele>104.2</ele>
        <time>2024-07-24T08:04:58Z</time>
      </trkpt>
      <trkpt lat="49.79337" lon="2.41536">
        <ele>104.2</ele>
        <time>2024-07-24T08:04:59Z</time>
      </trkpt>
      <trkpt lat="49.79337" lon="2.41536">
        <ele>104.2</ele>
        <time>2024-07-24T08:05:00Z</time>
      </trkpt>
      <trkpt lat="49.79337" lon="2.41536">
        <ele>104.2</ele>
        <time>2024-07-24T08:05:01Z</time>
      </trkpt>
      <trkpt lat="49.79337" lon="2.41536">
        <ele>104.2</ele>
        <time>2024-07-24T08:05:02Z</time>
      </trkpt>
      <trkpt lat="49.79337" lon="2.41536">
        <ele>104.2</ele>
        <time>2024-07-24T08:05:03Z</time>
      </trkpt>
      <trkpt lat="49.79337" lon="2.41536">
        <ele>104.2</ele>
        <time>2024-07-24T08:05:04Z</time>
      </trkpt>
      <trkpt lat="49.79337" lon="2.41536">
        <ele>104.2</ele>
        <time>2024-07-24T08:05:05Z</time>
      </trkpt>
      <trkpt lat="49.79337" lon="2.41536">
        <ele>104.2</ele>
        <time>2024-07-24T08:05:06Z</time>
      </trkpt>
      <trkpt lat="49.79337" lon="2.41536">
        <ele>104.2</ele>
        <time>2024-07-24T08:05:07Z</time>
      </trkpt>
      <trkpt lat="49.79337" lon="2.41536">
        <ele>104.2</ele>
        <time>2024-07-24T08:05:08Z</time>
      </trkpt>
      <trkpt lat="49.79337" lon="2.41536">
        <ele>104.2</ele>
        <time>2024-07-24T08:05:09Z</time>
      </trkpt>
      <trkpt lat="49.79337" lon="2.41536">
        <ele>104.2</ele>
        <time>2024-07-24T08:05:10Z</time>
      </trkpt>
      <trkpt lat="49.79337" lon="2.41536">
        <ele>104.2</ele>
        <time>2024-07-24T08:05:11Z</time>
      </trkpt>
      <trkpt lat="49.79337" lon="2.41536">
        <ele>104.2</ele>
        <time>2024-07-24T08:05:12Z</time>
      </trkpt>
      <trkpt lat="49.79337" lon="2.41536">
        <ele>104.2</ele>
        <time>2024-07-24T08:05:13Z</time>
      </trkpt>
      <trkpt lat="49.79337" lon="2.41536">
        <ele>104.2</ele>
        <time>2024-07-24T08:05:14Z</time>
      </trkpt>
      <trkpt lat="49.79337" lon="2.41536">
        <ele>104.2</ele>
        <time>2024-07-24T08:05:15Z</time>
      </trkpt>
      <trkpt lat="49.79337" lon="2.41536">
        <ele>104.2</ele>
        <time>2024-07-24T08:05:16Z</time>
      </trkpt>
      <trkpt lat="49.79337" lon="2.41536">
        <ele>104.2</ele>
        <time>2024-07-24T08:05:17Z</time>
      </trkpt>
      <trkpt lat="49.79337" lon="2.41536">
        <ele>104.2</ele>
        <time>2024-07-24T08:05:18Z</time>
      </trkpt>
      <trkpt lat="49.79337" lon="2.41536">
        <ele>104.2</ele>
        <time>2024-07-24T08:05:19Z</time>
      </trkpt>
      <trkpt lat="49.79337" lon="2.41536">
        <ele>104.2</ele>
        <time>2024-07-24T08:05:20Z</time>
      </trkpt>
      <trkpt lat="49.79337" lon="2.41536">
        <ele>104.2</ele>
        <time>2024-07-24T08:05:21Z</time>
      </trkpt>
      <trkpt lat="49.79337" lon="2.41536">
        <ele>104.2</ele>
        <time>2024-07-24T08:05:22Z</time>
      </trkpt>
      <trkpt lat="49.79337" lon="2.41536">
        <ele>104.2</ele>
        <time>2024-07-24T08:05:23Z</time>
      </trkpt>
      <trkpt lat="49.79337" lon="2.41536">
        <ele>104.2</ele>
        <time>2024-07-24T08:05:24Z</time>
      </trkpt>
      <trkpt lat="49.79337" lon="2.41536">
        <ele>104.2</ele>
        <time>2024-07-24T08:05:25Z</time>
      </trkpt>
      <trkpt lat="49.79337" lon="2.41536">
        <ele>104.2</ele>
        <time>2024-07-24T08:05:26Z</time>
      </trkpt>
      <trkpt lat="49.79337" lon="2.41536">
        <ele>104.2</ele>
        <time>2024-07-24T08:05:27Z</time>
      </trkpt>
      <trkpt lat="49.79337" lon="2.41536">
        <ele>104.2</ele>
        <time>2024-07-24T08:05:28Z</time>
      </trkpt>
      <trkpt lat="49.79337" lon="2.41536">
        <ele>104.2</ele>
        <time>2024-07-24T08:05:29Z</time>
      </trkpt>
      <trkpt lat="49.79337" lon="2.41536">
        <ele>104.2</ele>
        <time>2024-07-24T08:05:30Z</time>
      </trkpt>
      <trkpt lat="49.79337" lon="2.41536">
        <ele>104.2</ele>
        <time>2024-07-24T08:05:31Z</time>
      </trkpt>
      <trkpt lat="49.79337" lon="2.41536">
        <ele>104.2</ele>
        <time>2024-07-24T08:05:32Z</time>
      </trkpt>
      <trkpt lat="49.79337" lon="2.41536">
        <ele>104.2</ele>
        <time>2024-07-24T08:05:33Z</time>
      </trkpt>
      <trkpt lat="49.79337" lon="2.41536">
        <ele>104.2</ele>
        <time>2024-07-24T08:05:34Z</time>
      </trkpt>
      <trkpt lat="49.79337" lon="2.41536">
        <ele>104.2</ele>
        <time>2024-07-24T08:05:35Z</time>
      </trkpt>
      <trkpt lat="49.79337" lon="2.41536">
        <ele>104.2</ele>
        <time>2024-07-24T08:05:36Z</time>
      </trkpt>
      <trkpt lat="49.79337" lon="2.41536">
        <ele>104.2</ele>
        <time>2024-07-24T08:05:37Z</time>
      </trkpt>
      <trkpt lat="49.79337" lon="2.41536">
        <ele>104.2</ele>
        <time>2024-07-24T08:05:38Z</time>
      </trkpt>
      <trkpt lat="49.79337" lon="2.41536">
        <ele>104.2</ele>
        <time>2024-07-24T08:05:39Z</time>
      </trkpt>
      <trkpt lat="49.79337" lon="2.41536">
        <ele>104.2</ele>
        <time>2024-07-24T08:05:40Z</time>
      </trkpt>
      <trkpt lat="49.79337" lon="2.41536">
        <ele>104.2</ele>
        <time>2024-07-24T08:05:41Z</time>
      </trkpt>
      <trkpt lat="49.79337" lon="2.41536">
        <ele>104.2</ele>
        <time>2024-07-24T08:05:42Z</time>
      </trkpt>
      <trkpt lat="49.79337" lon="2.41536">
        <ele>104.2</ele>
        <time>2024-07-24T08:05:43Z</time>
      </trkpt>
      <trkpt lat="49.79337" lon="2.41536">
        <ele>104.2</ele>
        <time>2024-07-24T08:05:44Z</time>
      </trkpt>
      <trkpt lat="49.79337" lon="2.41536">
        <ele>104.2</ele>
        <time>2024-07-24T08:05:45Z</time>
      </trkpt>
      <trkpt lat="49.79337" lon="2.41536">
        <ele>104.2</ele>
        <time>2024-07-24T08:05:46Z</time>
      </trkpt>
      <trkpt lat="49.79337" lon="2.41536">
        <ele>104.2</ele>
        <time>2024-07-24T08:05:47Z</time>
      </trkpt>
      <trkpt lat="49.79337" lon="2.41536">
        <ele>104.2</ele>
        <time>2024-07-24T08:05:48Z</time>
      </trkpt>
      <trkpt lat="49.79337" lon="2.41536">
        <ele>104.2</ele>
        <time>2024-07-24T08:05:49Z</time>
      </trkpt>
      <trkpt lat="49.79337" lon="2.41536">
        <ele>104.2</ele>
        <time>2024-07-24T08:05:50Z</time>
      </trkpt>
      <trkpt lat="49.79337" lon="2.41536">
        <ele>104.2</ele>
        <time>2024-07-24T08:05:51Z</time>
      </trkpt>
      <trkpt lat="49.79337" lon="2.41536">
        <ele>104.2</ele>
        <time>2024-07-24T08:05:52Z</time>
      </trkpt>
      <trkpt lat="49.79337" lon="2.41536">
        <ele>104.2</ele>
        <time>2024-07-24T08:05:53Z</time>
      </trkpt>
      <trkpt lat="49.79337" lon="2.41536">
        <ele>104.2</ele>
        <time>2024-07-24T08:05:54Z</time>
      </trkpt>
      <trkpt lat="49.79337" lon="2.41536">
        <ele>104.2</ele>
        <time>2024-07-24T08:05:55Z</time>
      </trkpt>
      <trkpt lat="49.79337" lon="2.41536">
        <ele>104.2</ele>
        <time>2024-07-24T08:05:56Z</time>
      </trkpt>
      <trkpt lat="49.79337" lon="2.41536">
        <ele>104.2</ele>
        <time>2024-07-24T08:05:57Z</time>
      </trkpt>
      <trkpt lat="49.79337" lon="2.41536">
        <ele>104.2</ele>
        <time>2024-07-24T08:05:58Z</time>
      </trkpt>
      <trkpt lat="49.79337" lon="2.41536">
        <ele>104.2</ele>
        <time>2024-07-24T08:05:59Z</time>
      </trkpt>
      <trkpt lat="49.79337" lon="2.41536">
        <ele>104.2</ele>
        <time>2024-07-24T08:06:00Z</time>
      </trkpt>
      <trkpt lat="49.79337" lon="2.41536">
        <ele>104.2</ele>
        <time>2024-07-24T08:06:01Z</time>
      </trkpt>
      <trkpt lat="49.79337" lon="2.41536">
        <ele>104.2</ele>
        <time>2024-07-24T08:06:02Z</time>
      </trkpt>
      <trkpt lat="49.79337" lon="2.41536">
        <ele>104.2</ele>
        <time>2024-07-24T08:06:03Z</time>
      </trkpt>
      <trkpt lat="49.79337" lon="2.41536">
        <ele>104.2</ele>
        <time>2024-07-24T08:06:04Z</time>
      </trkpt>
      <trkpt lat="49.79337" lon="2.41536">
        <ele>104.2</ele>
        <time>2024-07-24T08:06:05Z</time>
      </trkpt>
      <trkpt lat="49.79337" lon="2.41536">
        <ele>104.2</ele>
        <time>2024-07-24T08:06:06Z</time>
      </trkpt>
      <trkpt lat="49.79337" lon="2.41536">
        <ele>104.2</ele>
        <time>2024-07-24T08:06:07Z</time>
      </trkpt>
      <trkpt lat="49.79337" lon="2.41536">
        <ele>104.2</ele>
        <time>2024-07-24T08:06:08Z</time>
      </trkpt>
      <trkpt lat="49.79337" lon="2.41536">
        <ele>104.2</ele>
        <time>2024-07-24T08:06:09Z</time>
      </trkpt>
      <trkpt lat="49.79337" lon="2.41536">
        <ele>104.2</ele>
        <time>2024-07-24T08:06:10Z</time>
      </trkpt>
      <trkpt lat="49.79337" lon="2.41536">
        <ele>104.2</ele>
        <time>2024-07-24T08:06:11Z</time>
      </trkpt>
      <trkpt lat="49.79337" lon="2.41536">
        <ele>104.2</ele>
        <time>2024-07-24T08:06:12Z</time>
      </trkpt>
      <trkpt lat="49.79337" lon="2.41536">
        <ele>104.2</ele>
        <time>2024-07-24T08:06:13Z</time>
      </trkpt>
      <trkpt lat="49.79337" lon="2.41536">
        <ele>104.2</ele>
        <time>2024-07-24T08:06:14Z</time>
      </trkpt>
      <trkpt lat="49.79337" lon="2.41536">
        <ele>104.2</ele>
        <time>2024-07-24T08:06:15Z</time>
      </trkpt>
      <trkpt lat="49.79337" lon="2.41536">
        <ele>104.2</ele>
        <time>2024-07-24T08:06:16Z</time>
      </trkpt>
      <trkpt lat="49.79337" lon="2.41536">
        <ele>104.2</ele>
        <time>2024-07-24T08:06:17Z</time>
      </trkpt>
      <trkpt lat="49.79337" lon="2.41536">
        <ele>104.2</ele>
        <time>2024-07-24T08:06:18Z</time>
      </trkpt>
      <trkpt lat="49.79337" lon="2.41536">
        <ele>104.2</ele>
        <time>2024-07-24T08:06:19Z</time>
      </trkpt>
      <trkpt lat="49.79337" lon="2.41536">
        <ele>104.2</ele>
        <time>2024-07-24T08:06:20Z</time>
      </trkpt>
      <trkpt lat="49.79337" lon="2.41536">
        <ele>104.2</ele>
        <time>2024-07-24T08:06:21Z</time>
      </trkpt>
      <trkpt lat="49.79337" lon="2.41536">
        <ele>104.2</ele>
        <time>2024-07-24T08:06:22Z</time>
      </trkpt>
      <trkpt lat="49.79337" lon="2.41536">
        <ele>104.2</ele>
        <time>2024-07-24T08:06:23Z</time>
      </trkpt>
      <trkpt lat="49.79337" lon="2.41536">
        <ele>104.2</ele>
        <time>2024-07-24T08:06:24Z</time>
      </trkpt>
      <trkpt lat="49.79337" lon="2.41536">
        <ele>104.2</ele>
        <time>2024-07-24T08:06:25Z</time>
      </trkpt>
      <trkpt lat="49.79337" lon="2.41536">
        <ele>104.2</ele>
        <time>2024-07-24T08:06:26Z</time>
      </trkpt>
      <trkpt lat="49.79337" lon="2.41536">
        <ele>104.2</ele>
        <time>2024-07-24T08:06:27Z</time>
      </trkpt>
      <trkpt lat="49.79337" lon="2.41536">
        <ele>104.2</ele>
        <time>2024-07-24T08:06:28Z</time>
      </trkpt>
      <trkpt lat="49.79337" lon="2.41536">
        <ele>104.2</ele>
        <time>2024-07-24T08:06:29Z</time>
      </trkpt>
      <trkpt lat="49.79337" lon="2.41536">
        <ele>104.2</ele>
        <time>2024-07-24T08:06:30Z</time>
      </trkpt>
      <trkpt lat="49.79337" lon="2.41536">
        <ele>104.2</ele>
        <time>2024-07-24T08:06:31Z</time>
      </trkpt>
      <trkpt lat="49.79337" lon="2.41536">
        <ele>104.2</ele>
        <time>2024-07-24T08:06:32Z</time>
      </trkpt>
      <trkpt lat="49.79337" lon="2.41536">
        <ele>104.2</ele>
        <time>2024-07-24T08:06:33Z</time>
      </trkpt>
      <trkpt lat="49.79337" lon="2.41536">
        <ele>104.2</ele>
        <time>2024-07-24T08:06:34Z</time>
      </trkpt>
      <trkpt lat="49.79337" lon="2.41536">
        <ele>104.2</ele>
        <time>2024-07-24T08:06:35Z</time>
      </trkpt>
      <trkpt lat="49.79337" lon="2.41536">
        <ele>104.2</ele>
        <time>2024-07-24T08:06:36Z</time>
      </trkpt>
      <trkpt lat="49.79337" lon="2.41536">
        <ele>104.2</ele>
        <time>2024-07-24T08:06:37Z</time>
      </trkpt>
      <trkpt lat="49.79337" lon="2.41536">
        <ele>104.2</ele>
        <time>2024-07-24T08:06:38Z</time>
      </trkpt>
      <trkpt lat="49.79337" lon="2.41536">
        <ele>104.2</ele>
        <time>2024-07-24T08:06:39Z</time>
      </trkpt>
      <trkpt lat="49.79337" lon="2.41536">
        <ele>104.2</ele>
        <time>2024-07-24T08:06:40Z</time>
      </trkpt>
      <trkpt lat="49.79337" lon="2.41536">
        <ele>104.2</ele>
        <time>2024-07-24T08:06:41Z</time>
      </trkpt>
      <trkpt lat="49.79337" lon="2.41536">
        <ele>104.2</ele>
        <time>2024-07-24T08:06:42Z</time>
      </trkpt>
      <trkpt lat="49.79337" lon="2.41536">
        <ele>104.2</ele>
        <time>2024-07-24T08:06:43Z</time>
      </trkpt>
      <trkpt lat="49.79337" lon="2.41536">
        <ele>104.2</ele>
        <time>2024-07-24T08:06:44Z</time>
      </trkpt>
      <trkpt lat="49.79337" lon="2.41536">
        <ele>104.2</ele>
        <time>2024-07-24T08:06:54Z</time>
      </trkpt>
      <trkpt lat="49.79337" lon="2.41536">
        <ele>104.2</ele>
        <time>2024-07-24T08:06:55Z</time>
      </trkpt>
      <trkpt lat="49.79337" lon="2.41536">
        <ele>104.2</ele>
        <time>2024-07-24T08:06:56Z</time>
      </trkpt>
      <trkpt lat="49.79337" lon="2.41536">
        <ele>104.2</ele>
        <time>2024-07-24T08:06:57Z</time>
      </trkpt>
      <trkpt lat="49.79337" lon="2.41536">
        <ele>104.2</ele>
        <time>2024-07-24T08:06:58Z</time>
      </trkpt>
      <trkpt lat="49.79337" lon="2.41536">
        <ele>104.2</ele>
        <time>2024-07-24T08:06:59Z</time>
      </trkpt>
      <trkpt lat="49.79337" lon="2.41536">
        <ele>104.2</ele>
        <time>2024-07-24T08:07:00Z</time>
      </trkpt>
      <trkpt lat="49.79337" lon="2.41536">
        <ele>104.2</ele>
        <time>2024-07-24T08:07:01Z</time>
      </trkpt>
      <trkpt lat="49.79337" lon="2.41536">
        <ele>104.2</ele>
        <time>2024-07-24T08:07:02Z</time>
      </trkpt>
      <trkpt lat="49.79337" lon="2.41536">
        <ele>104.2</ele>
        <time>2024-07-24T08:07:03Z</time>
      </trkpt>
      <trkpt lat="49.79337" lon="2.41536">
        <ele>104.2</ele>
        <time>2024-07-24T08:07:04Z</time>
      </trkpt>
      <trkpt lat="49.79337" lon="2.41536">
        <ele>104.2</ele>
        <time>2024-07-24T08:07:05Z</time>
      </trkpt>
      <trkpt lat="49.79337" lon="2.41536">
        <ele>104.2</ele>
        <time>2024-07-24T08:07:06Z</time>
      </trkpt>
      <trkpt lat="49.79337" lon="2.41536">
        <ele>104.2</ele>
        <time>2024-07-24T08:07:07Z</time>
      </trkpt>
      <trkpt lat="49.79337" lon="2.41536">
        <ele>104.2</ele>
        <time>2024-07-24T08:07:08Z</time>
      </trkpt>
      <trkpt lat="49.79337" lon="2.41536">
        <ele>104.2</ele>
        <time>2024-07-24T08:07:09Z</time>
      </trkpt>
      <trkpt lat="49.79337" lon="2.41536">
        <ele>104.2</ele>
        <time>2024-07-24T08:07:10Z</time>
      </trkpt>
      <trkpt lat="49.79337" lon="2.41536">
        <ele>104.2</ele>
        <time>2024-07-24T08:07:11Z</time>
      </trkpt>
      <trkpt lat="49.79337" lon="2.41536">
        <ele>104.2</ele>
        <time>2024-07-24T08:07:12Z</time>
      </trkpt>
      <trkpt lat="49.79337" lon="2.41536">
        <ele>104.2</ele>
        <time>2024-07-24T08:07:13Z</time>
      </trkpt>
      <trkpt lat="49.79337" lon="2.41536">
        <ele>104.2</ele>
        <time>2024-07-24T08:07:14Z</time>
      </trkpt>
      <trkpt lat="49.79337" lon="2.41536">
        <ele>104.2</ele>
        <time>2024-07-24T08:07:15Z</time>
      </trkpt>
      <trkpt lat="49.79337" lon="2.41536">
        <ele>104.2</ele>
        <time>2024-07-24T08:07:16Z</time>
      </trkpt>
      <trkpt lat="49.79337" lon="2.41536">
        <ele>104.2</ele>
        <time>2024-07-24T08:07:17Z</time>
      </trkpt>
      <trkpt lat="49.79337" lon="2.41536">
        <ele>104.2</ele>
        <time>2024-07-24T08:07:18Z</time>
      </trkpt>
      <trkpt lat="49.79337" lon="2.41536">
        <ele>104.2</ele>
        <time>2024-07-24T08:07:19Z</time>
      </trkpt>
      <trkpt lat="49.79337" lon="2.41536">
        <ele>104.2</ele>
        <time>2024-07-24T08:07:20Z</time>
      </trkpt>
      <trkpt lat="49.79337" lon="2.41536">
        <ele>104.2</ele>
        <time>2024-07-24T08:07:21Z</time>
      </trkpt>
      <trkpt lat="49.79337" lon="2.41536">
        <ele>104.2</ele>
        <time>2024-07-24T08:07:22Z</time>
      </trkpt>
      <trkpt lat="49.79337" lon="2.41536">
        <ele>104.2</ele>
        <time>2024-07-24T08:07:23Z</time>
      </trkpt>
      <trkpt lat="49.79337" lon="2.41536">
        <ele>104.2</ele>
        <time>2024-07-24T08:07:24Z</time>
      </trkpt>
      <trkpt lat="49.79337" lon="2.41536">
        <ele>104.2</ele>
        <time>2024-07-24T08:07:25Z</time>
      </trkpt>
      <trkpt lat="49.79337" lon="2.41536">
        <ele>104.2</ele>
        <time>2024-07-24T08:07:26Z</time>
      </trkpt>
      <trkpt lat="49.79337" lon="2.41536">
        <ele>104.2</ele>
        <time>2024-07-24T08:07:27Z</time>
      </trkpt>
      <trkpt lat="49.79337" lon="2.41536">
        <ele>104.2</ele>
        <time>2024-07-24T08:07:28Z</time>
      </trkpt>
      <trkpt lat="49.79337" lon="2.41536">
        <ele>104.2</ele>
        <time>2024-07-24T08:07:29Z</time>
      </trkpt>
      <trkpt lat="49.79337" lon="2.41536">
        <ele>104.2</ele>
        <time>2024-07-24T08:07:30Z</time>
      </trkpt>
      <trkpt lat="49.79337" lon="2.41536">
        <ele>104.2</ele>
        <time>2024-07-24T08:07:31Z</time>
      </trkpt>
      <trkpt lat="49.79337" lon="2.41536">
        <ele>104.2</ele>
        <time>2024-07-24T08:07:32Z</time>
      </trkpt>
      <trkpt lat="49.79337" lon="2.41536">
        <ele>104.2</ele>
        <time>2024-07-24T08:07:33Z</time>
      </trkpt>
      <trkpt lat="49.79337" lon="2.41536">
        <ele>104.2</ele>
        <time>2024-07-24T08:07:34Z</time>
      </trkpt>
      <trkpt lat="49.79337" lon="2.41536">
        <ele>104.2</ele>
        <time>2024-07-24T08:07:35Z</time>
      </trkpt>
      <trkpt lat="49.79337" lon="2.41536">
        <ele>104.2</ele>
        <time>2024-07-24T08:07:36Z</time>
      </trkpt>
      <trkpt lat="49.79337" lon="2.41536">
        <ele>104.2</ele>
        <time>2024-07-24T08:07:37Z</time>
      </trkpt>
      <trkpt lat="49.79337" lon="2.41536">
        <ele>104.2</ele>
        <time>2024-07-24T08:07:38Z</time>
      </trkpt>
      <trkpt lat="49.79337" lon="2.41536">
        <ele>104.2</ele>
        <time>2024-07-24T08:07:39Z</time>
      </trkpt>
      <trkpt lat="49.79337" lon="2.41536">
        <ele>104.2</ele>
        <time>2024-07-24T08:07:40Z</time>
      </trkpt>
      <trkpt lat="49.79337" lon="2.41536">
        <ele>104.2</ele>
        <time>2024-07-24T08:07:41Z</time>
      </trkpt>
      <trkpt lat="49.79337" lon="2.41536">
        <ele>104.2</ele>
        <time>2024-07-24T08:07:42Z</time>
      </trkpt>
      <trkpt lat="49.79337" lon="2.41536">
        <ele>104.2</ele>
        <time>2024-07-24T08:07:43Z</time>
      </trkpt>
      <trkpt lat="49.79337" lon="2.41536">
        <ele>104.2</ele>
        <time>2024-07-24T08:07:44Z</time>
      </trkpt>
      <trkpt lat="49.79337" lon="2.41536">
        <ele>104.2</ele>
        <time>2024-07-24T08:07:45Z</time>
      </trkpt>
      <trkpt lat="49.79337" lon="2.41536">
        <ele>104.2</ele>
        <time>2024-07-24T08:07:46Z</time>
      </trkpt>
      <trkpt lat="49.79337" lon="2.41536">
        <ele>104.2</ele>
        <time>2024-07-24T08:07:47Z</time>
      </trkpt>
      <trkpt lat="49.79337" lon="2.41536">
        <ele>104.2</ele>
        <time>2024-07-24T08:07:48Z</time>
      </trkpt>
      <trkpt lat="49.79337" lon="2.41536">
        <ele>104.2</ele>
        <time>2024-07-24T08:07:49Z</time>
      </trkpt>
      <trkpt lat="49.79337" lon="2.41536">
        <ele>104.2</ele>
        <time>2024-07-24T08:07:50Z</time>
      </trkpt>
      <trkpt lat="49.79337" lon="2.41536">
        <ele>104.2</ele>
        <time>2024-07-24T08:07:51Z</time>
      </trkpt>
      <trkpt lat="49.79337" lon="2.41536">
        <ele>104.2</ele>
        <time>2024-07-24T08:07:52Z</time>
      </trkpt>
      <trkpt lat="49.79337" lon="2.41536">
        <ele>104.2</ele>
        <time>2024-07-24T08:07:53Z</time>
      </trkpt>
      <trkpt lat="49.79337" lon="2.41536">
        <ele>104.2</ele>
        <time>2024-07-24T08:07:54Z</time>
      </trkpt>
      <trkpt lat="49.79337" lon="2.41536">
        <ele>104.2</ele>
        <time>2024-07-24T08:07:55Z</time>
      </trkpt>
      <trkpt lat="49.79337" lon="2.41536">
        <ele>104.2</ele>
        <time>2024-07-24T08:07:56Z</time>
      </trkpt>
      <trkpt lat="49.79337" lon="2.41536">
        <ele>104.2</ele>
        <time>2024-07-24T08:07:57Z</time>
      </trkpt>
      <trkpt lat="49.79337" lon="2.41536">
        <ele>104.2</ele>
        <time>2024-07-24T08:07:58Z</time>
      </trkpt>
      <trkpt lat="49.79337" lon="2.41536">
        <ele>104.2</ele>
        <time>2024-07-24T08:07:59Z</time>
      </trkpt>
      <trkpt lat="49.79337" lon="2.41536">
        <ele>104.2</ele>
        <time>2024-07-24T08:08:00Z</time>
      </trkpt>
      <trkpt lat="49.79337" lon="2.41536">
        <ele>104.2</ele>
        <time>2024-07-24T08:08:01Z</time>
      </trkpt>
      <trkpt lat="49.79337" lon="2.41536">
        <ele>104.2</ele>
        <time>2024-07-24T08:08:02Z</time>
      </trkpt>
      <trkpt lat="49.79337" lon="2.41536">
        <ele>104.2</ele>
        <time>2024-07-24T08:08:03Z</time>
      </trkpt>
      <trkpt lat="49.79337" lon="2.41536">
        <ele>104.2</ele>
        <time>2024-07-24T08:08:04Z</time>
      </trkpt>
      <trkpt lat="49.79337" lon="2.41536">
        <ele>104.2</ele>
        <time>2024-07-24T08:08:05Z</time>
      </trkpt>
      <trkpt lat="49.79337" lon="2.41536">
        <ele>104.2</ele>
        <time>2024-07-24T08:08:06Z</time>
      </trkpt>
      <trkpt lat="49.79337" lon="2.41536">
        <ele>104.2</ele>
        <time>2024-07-24T08:08:07Z</time>
      </trkpt>
      <trkpt lat="49.79337" lon="2.41536">
        <ele>104.2</ele>
        <time>2024-07-24T08:08:08Z</time>
      </trkpt>
      <trkpt lat="49.79337" lon="2.41536">
        <ele>104.2</ele>
        <time>2024-07-24T08:08:09Z</time>
      </trkpt>
      <trkpt lat="49.79337" lon="2.41536">
        <ele>104.2</ele>
        <time>2024-07-24T08:08:10Z</time>
      </trkpt>
      <trkpt lat="49.79337" lon="2.41536">
        <ele>104.2</ele>
        <time>2024-07-24T08:08:11Z</time>
      </trkpt>
      <trkpt lat="49.79337" lon="2.41536">
        <ele>104.2</ele>
        <time>2024-07-24T08:08:12Z</time>
      </trkpt>
      <trkpt lat="49.79337" lon="2.41536">
        <ele>104.2</ele>
        <time>2024-07-24T08:08:13Z</time>
      </trkpt>
      <trkpt lat="49.79337" lon="2.41536">
        <ele>104.2</ele>
        <time>2024-07-24T08:08:14Z</time>
      </trkpt>
      <trkpt lat="49.79337" lon="2.41536">
        <ele>104.2</ele>
        <time>2024-07-24T08:08:15Z</time>
      </trkpt>
      <trkpt lat="49.79337" lon="2.41536">
        <ele>104.2</ele>
        <time>2024-07-24T08:08:16Z</time>
      </trkpt>
      <trkpt lat="49.79337" lon="2.41536">
        <ele>104.2</ele>
        <time>2024-07-24T08:08:17Z</time>
      </trkpt>
      <trkpt lat="49.79337" lon="2.41536">
        <ele>104.2</ele>
        <time>2024-07-24T08:08:18Z</time>
      </trkpt>
      <trkpt lat="49.79337" lon="2.41536">
        <ele>104.2</ele>
        <time>2024-07-24T08:08:19Z</time>
      </trkpt>
      <trkpt lat="49.79337" lon="2.41536">
        <ele>104.2</ele>
        <time>2024-07-24T08:08:20Z</time>
      </trkpt>
      <trkpt lat="49.79337" lon="2.41536">
        <ele>104.2</ele>
        <time>2024-07-24T08:08:21Z</time>
      </trkpt>
      <trkpt lat="49.79337" lon="2.41538">
        <ele>104.1</ele>
        <time>2024-07-24T08:08:22Z</time>
      </trkpt>
      <trkpt lat="49.79337" lon="2.41538">
        <ele>104.1</ele>
        <time>2024-07-24T08:08:23Z</time>
      </trkpt>
      <trkpt lat="49.79338" lon="2.41538">
        <ele>104.1</ele>
        <time>2024-07-24T08:08:24Z</time>
      </trkpt>
      <trkpt lat="49.79338" lon="2.41538">
        <ele>104.1</ele>
        <time>2024-07-24T08:08:25Z</time>
      </trkpt>
      <trkpt lat="49.79338" lon="2.41538">
        <ele>104.1</ele>
        <time>2024-07-24T08:08:26Z</time>
      </trkpt>
      <trkpt lat="49.79338" lon="2.41538">
        <ele>104.1</ele>
        <time>2024-07-24T08:08:27Z</time>
      </trkpt>
      <trkpt lat="49.79338" lon="2.41538">
        <ele>104.1</ele>
        <time>2024-07-24T08:08:28Z</time>
      </trkpt>
      <trkpt lat="49.79338" lon="2.41538">
        <ele>104.1</ele>
        <time>2024-07-24T08:08:29Z</time>
      </trkpt>
      <trkpt lat="49.79338" lon="2.41538">
        <ele>104.1</ele>
        <time>2024-07-24T08:08:30Z</time>
      </trkpt>
      <trkpt lat="49.79338" lon="2.41538">
        <ele>104.1</ele>
        <time>2024-07-24T08:08:31Z</time>
      </trkpt>
      <trkpt lat="49.79338" lon="2.41538">
        <ele>104.1</ele>
        <time>2024-07-24T08:08:32Z</time>
      </trkpt>
      <trkpt lat="49.79338" lon="2.41538">
        <ele>104.1</ele>
        <time>2024-07-24T08:08:34Z</time>
      </trkpt>
      <trkpt lat="49.79338" lon="2.41538">
        <ele>104.1</ele>
        <time>2024-07-24T08:08:35Z</time>
      </trkpt>
      <trkpt lat="49.79338" lon="2.41538">
        <ele>104.1</ele>
        <time>2024-07-24T08:08:36Z</time>
      </trkpt>
      <trkpt lat="49.79338" lon="2.41538">
        <ele>104.1</ele>
        <time>2024-07-24T08:08:37Z</time>
      </trkpt>
      <trkpt lat="49.79338" lon="2.41538">
        <ele>104.1</ele>
        <time>2024-07-24T08:08:38Z</time>
      </trkpt>
      <trkpt lat="49.79338" lon="2.41538">
        <ele>104.1</ele>
        <time>2024-07-24T08:08:39Z</time>
      </trkpt>
      <trkpt lat="49.79338" lon="2.41538">
        <ele>104.1</ele>
        <time>2024-07-24T08:08:40Z</time>
      </trkpt>
      <trkpt lat="49.79338" lon="2.41538">
        <ele>104.1</ele>
        <time>2024-07-24T08:08:42Z</time>
      </trkpt>
      <trkpt lat="49.79338" lon="2.41538">
        <ele>104.1</ele>
        <time>2024-07-24T08:08:43Z</time>
      </trkpt>
      <trkpt lat="49.79338" lon="2.41538">
        <ele>104.1</ele>
        <time>2024-07-24T08:08:44Z</time>
      </trkpt>
      <trkpt lat="49.79338" lon="2.41538">
        <ele>104.1</ele>
        <time>2024-07-24T08:08:45Z</time>
      </trkpt>
      <trkpt lat="49.79338" lon="2.41538">
        <ele>104.1</ele>
        <time>2024-07-24T08:08:46Z</time>
      </trkpt>
      <trkpt lat="49.79338" lon="2.41538">
        <ele>104.1</ele>
        <time>2024-07-24T08:08:47Z</time>
      </trkpt>
      <trkpt lat="49.79338" lon="2.41538">
        <ele>104.1</ele>
        <time>2024-07-24T08:08:48Z</time>
      </trkpt>
      <trkpt lat="49.79338" lon="2.41538">
        <ele>104.1</ele>
        <time>2024-07-24T08:08:49Z</time>
      </trkpt>
      <trkpt lat="49.79338" lon="2.41538">
        <ele>104.1</ele>
        <time>2024-07-24T08:08:50Z</time>
      </trkpt>
      <trkpt lat="49.79338" lon="2.41538">
        <ele>104.1</ele>
        <time>2024-07-24T08:08:51Z</time>
      </trkpt>
      <trkpt lat="49.79338" lon="2.41538">
        <ele>104.1</ele>
        <time>2024-07-24T08:08:52Z</time>
      </trkpt>
      <trkpt lat="49.79338" lon="2.41538">
        <ele>104.1</ele>
        <time>2024-07-24T08:08:53Z</time>
      </trkpt>
      <trkpt lat="49.79338" lon="2.41538">
        <ele>104.1</ele>
        <time>2024-07-24T08:08:54Z</time>
      </trkpt>
      <trkpt lat="49.79338" lon="2.41538">
        <ele>104.1</ele>
        <time>2024-07-24T08:08:55Z</time>
      </trkpt>
      <trkpt lat="49.79338" lon="2.41538">
        <ele>104.1</ele>
        <time>2024-07-24T08:08:57Z</time>
      </trkpt>
      <trkpt lat="49.79338" lon="2.41538">
        <ele>104.1</ele>
        <time>2024-07-24T08:08:58Z</time>
      </trkpt>
      <trkpt lat="49.79338" lon="2.41538">
        <ele>104.1</ele>
        <time>2024-07-24T08:08:59Z</time>
      </trkpt>
      <trkpt lat="49.79338" lon="2.41538">
        <ele>104.1</ele>
        <time>2024-07-24T08:09:00Z</time>
      </trkpt>
      <trkpt lat="49.79338" lon="2.41538">
        <ele>104.1</ele>
        <time>2024-07-24T08:09:01Z</time>
      </trkpt>
      <trkpt lat="49.79338" lon="2.41538">
        <ele>104.1</ele>
        <time>2024-07-24T08:09:03Z</time>
      </trkpt>
      <trkpt lat="49.79338" lon="2.41538">
        <ele>104.1</ele>
        <time>2024-07-24T08:09:04Z</time>
      </trkpt>
      <trkpt lat="49.79338" lon="2.41538">
        <ele>104.1</ele>
        <time>2024-07-24T08:09:05Z</time>
      </trkpt>
      <trkpt lat="49.79338" lon="2.41538">
        <ele>104.1</ele>
        <time>2024-07-24T08:09:06Z</time>
      </trkpt>
      <trkpt lat="49.79338" lon="2.41538">
        <ele>104.1</ele>
        <time>2024-07-24T08:09:07Z</time>
      </trkpt>
      <trkpt lat="49.79338" lon="2.41538">
        <ele>104.1</ele>
        <time>2024-07-24T08:09:08Z</time>
      </trkpt>
      <trkpt lat="49.79338" lon="2.41538">
        <ele>104.1</ele>
        <time>2024-07-24T08:09:09Z</time>
      </trkpt>
      <trkpt lat="49.79338" lon="2.41538">
        <ele>104.1</ele>
        <time>2024-07-24T08:09:10Z</time>
      </trkpt>
      <trkpt lat="49.79338" lon="2.41538">
        <ele>104.1</ele>
        <time>2024-07-24T08:09:11Z</time>
      </trkpt>
      <trkpt lat="49.79338" lon="2.41538">
        <ele>104.1</ele>
        <time>2024-07-24T08:09:12Z</time>
      </trkpt>
      <trkpt lat="49.79338" lon="2.41538">
        <ele>104.1</ele>
        <time>2024-07-24T08:09:13Z</time>
      </trkpt>
      <trkpt lat="49.79339" lon="2.41538">
        <ele>104.1</ele>
        <time>2024-07-24T08:09:14Z</time>
      </trkpt>
      <trkpt lat="49.79339" lon="2.41538">
        <ele>104.1</ele>
        <time>2024-07-24T08:09:15Z</time>
      </trkpt>
      <trkpt lat="49.79339" lon="2.41538">
        <ele>104.1</ele>
        <time>2024-07-24T08:09:16Z</time>
      </trkpt>
      <trkpt lat="49.79339" lon="2.41538">
        <ele>104.1</ele>
        <time>2024-07-24T08:09:17Z</time>
      </trkpt>
      <trkpt lat="49.79339" lon="2.41538">
        <ele>104.1</ele>
        <time>2024-07-24T08:09:18Z</time>
      </trkpt>
      <trkpt lat="49.79339" lon="2.41538">
        <ele>104.1</ele>
        <time>2024-07-24T08:09:19Z</time>
      </trkpt>
      <trkpt lat="49.79339" lon="2.41538">
        <ele>104.1</ele>
        <time>2024-07-24T08:09:20Z</time>
      </trkpt>
      <trkpt lat="49.79339" lon="2.41538">
        <ele>104.1</ele>
        <time>2024-07-24T08:09:21Z</time>
      </trkpt>
      <trkpt lat="49.79339" lon="2.41538">
        <ele>104.1</ele>
        <time>2024-07-24T08:09:22Z</time>
      </trkpt>
      <trkpt lat="49.79339" lon="2.41538">
        <ele>104.1</ele>
        <time>2024-07-24T08:09:23Z</time>
      </trkpt>
      <trkpt lat="49.79339" lon="2.41538">
        <ele>104.1</ele>
        <time>2024-07-24T08:09:24Z</time>
      </trkpt>
      <trkpt lat="49.79339" lon="2.41538">
        <ele>104.1</ele>
        <time>2024-07-24T08:09:25Z</time>
      </trkpt>
      <trkpt lat="49.79339" lon="2.41538">
        <ele>104.1</ele>
        <time>2024-07-24T08:09:26Z</time>
      </trkpt>
      <trkpt lat="49.79339" lon="2.41538">
        <ele>104.1</ele>
        <time>2024-07-24T08:09:27Z</time>
      </trkpt>
      <trkpt lat="49.79339" lon="2.41538">
        <ele>104.1</ele>
        <time>2024-07-24T08:09:28Z</time>
      </trkpt>
      <trkpt lat="49.79339" lon="2.41538">
        <ele>104.1</ele>
        <time>2024-07-24T08:09:29Z</time>
      </trkpt>
      <trkpt lat="49.79339" lon="2.41538">
        <ele>104.1</ele>
        <time>2024-07-24T08:09:30Z</time>
      </trkpt>
      <trkpt lat="49.79339" lon="2.41538">
        <ele>104.1</ele>
        <time>2024-07-24T08:09:31Z</time>
      </trkpt>
      <trkpt lat="49.79339" lon="2.41538">
        <ele>104.1</ele>
        <time>2024-07-24T08:09:32Z</time>
      </trkpt>
      <trkpt lat="49.79339" lon="2.41538">
        <ele>104.1</ele>
        <time>2024-07-24T08:09:33Z</time>
      </trkpt>
      <trkpt lat="49.79339" lon="2.41538">
        <ele>104.1</ele>
        <time>2024-07-24T08:09:34Z</time>
      </trkpt>
      <trkpt lat="49.79339" lon="2.41538">
        <ele>104.1</ele>
        <time>2024-07-24T08:09:35Z</time>
      </trkpt>
      <trkpt lat="49.79339" lon="2.41538">
        <ele>104.1</ele>
        <time>2024-07-24T08:09:36Z</time>
      </trkpt>
      <trkpt lat="49.79339" lon="2.41538">
        <ele>104.1</ele>
        <time>2024-07-24T08:09:37Z</time>
      </trkpt>
      <trkpt lat="49.79339" lon="2.41538">
        <ele>104.1</ele>
        <time>2024-07-24T08:09:38Z</time>
      </trkpt>
      <trkpt lat="49.79339" lon="2.41538">
        <ele>104.1</ele>
        <time>2024-07-24T08:09:39Z</time>
      </trkpt>
      <trkpt lat="49.79339" lon="2.41538">
        <ele>104.1</ele>
        <time>2024-07-24T08:09:40Z</time>
      </trkpt>
      <trkpt lat="49.79339" lon="2.41538">
        <ele>104.1</ele>
        <time>2024-07-24T08:09:41Z</time>
      </trkpt>
      <trkpt lat="49.79339" lon="2.41538">
        <ele>104.1</ele>
        <time>2024-07-24T08:09:42Z</time>
      </trkpt>
      <trkpt lat="49.79339" lon="2.41538">
        <ele>104.1</ele>
        <time>2024-07-24T08:09:43Z</time>
      </trkpt>
      <trkpt lat="49.79339" lon="2.41538">
        <ele>104.1</ele>
        <time>2024-07-24T08:09:44Z</time>
      </trkpt>
      <trkpt lat="49.79339" lon="2.41538">
        <ele>104.1</ele>
        <time>2024-07-24T08:09:45Z</time>
      </trkpt>
      <trkpt lat="49.79339" lon="2.41538">
        <ele>104.1</ele>
        <time>2024-07-24T08:09:46Z</time>
      </trkpt>
      <trkpt lat="49.79339" lon="2.41538">
        <ele>104.1</ele>
        <time>2024-07-24T08:09:47Z</time>
      </trkpt>
      <trkpt lat="49.79339" lon="2.41538">
        <ele>104.1</ele>
        <time>2024-07-24T08:09:48Z</time>
      </trkpt>
      <trkpt lat="49.79339" lon="2.41538">
        <ele>104.1</ele>
        <time>2024-07-24T08:09:49Z</time>
      </trkpt>
      <trkpt lat="49.79339" lon="2.41538">
        <ele>104.1</ele>
        <time>2024-07-24T08:09:50Z</time>
      </trkpt>
      <trkpt lat="49.79339" lon="2.41538">
        <ele>104.1</ele>
        <time>2024-07-24T08:09:51Z</time>
      </trkpt>
      <trkpt lat="49.79339" lon="2.41538">
        <ele>104.1</ele>
        <time>2024-07-24T08:09:52Z</time>
      </trkpt>
      <trkpt lat="49.79339" lon="2.41538">
        <ele>104.1</ele>
        <time>2024-07-24T08:09:53Z</time>
      </trkpt>
      <trkpt lat="49.79339" lon="2.41538">
        <ele>104.1</ele>
        <time>2024-07-24T08:09:54Z</time>
      </trkpt>
      <trkpt lat="49.79339" lon="2.41538">
        <ele>104.1</ele>
        <time>2024-07-24T08:09:55Z</time>
      </trkpt>
      <trkpt lat="49.79339" lon="2.41538">
        <ele>104.1</ele>
        <time>2024-07-24T08:09:56Z</time>
      </trkpt>
      <trkpt lat="49.79339" lon="2.41538">
        <ele>104.1</ele>
        <time>2024-07-24T08:09:57Z</time>
      </trkpt>
      <trkpt lat="49.79339" lon="2.41538">
        <ele>104.1</ele>
        <time>2024-07-24T08:09:58Z</time>
      </trkpt>
      <trkpt lat="49.79339" lon="2.41538">
        <ele>104.1</ele>
        <time>2024-07-24T08:09:59Z</time>
      </trkpt>
      <trkpt lat="49.79339" lon="2.41538">
        <ele>104.1</ele>
        <time>2024-07-24T08:10:00Z</time>
      </trkpt>
      <trkpt lat="49.79339" lon="2.41538">
        <ele>104.1</ele>
        <time>2024-07-24T08:10:01Z</time>
      </trkpt>
      <trkpt lat="49.79339" lon="2.41538">
        <ele>104.1</ele>
        <time>2024-07-24T08:10:02Z</time>
      </trkpt>
      <trkpt lat="49.79339" lon="2.41538">
        <ele>104.1</ele>
        <time>2024-07-24T08:10:03Z</time>
      </trkpt>
      <trkpt lat="49.79339" lon="2.41538">
        <ele>104.1</ele>
        <time>2024-07-24T08:10:04Z</time>
      </trkpt>
      <trkpt lat="49.79339" lon="2.41538">
        <ele>104.1</ele>
        <time>2024-07-24T08:10:05Z</time>
      </trkpt>
      <trkpt lat="49.79339" lon="2.41538">
        <ele>104.1</ele>
        <time>2024-07-24T08:10:06Z</time>
      </trkpt>
      <trkpt lat="49.79339" lon="2.41538">
        <ele>104.1</ele>
        <time>2024-07-24T08:10:07Z</time>
      </trkpt>
      <trkpt lat="49.79339" lon="2.41538">
        <ele>104.1</ele>
        <time>2024-07-24T08:10:08Z</time>
      </trkpt>
      <trkpt lat="49.79339" lon="2.41538">
        <ele>104.1</ele>
        <time>2024-07-24T08:10:09Z</time>
      </trkpt>
      <trkpt lat="49.79339" lon="2.41538">
        <ele>104.1</ele>
        <time>2024-07-24T08:10:10Z</time>
      </trkpt>
      <trkpt lat="49.79339" lon="2.41538">
        <ele>104.1</ele>
        <time>2024-07-24T08:10:11Z</time>
      </trkpt>
      <trkpt lat="49.79339" lon="2.41538">
        <ele>104.1</ele>
        <time>2024-07-24T08:10:12Z</time>
      </trkpt>
      <trkpt lat="49.79339" lon="2.41538">
        <ele>104.1</ele>
        <time>2024-07-24T08:10:13Z</time>
      </trkpt>
      <trkpt lat="49.79339" lon="2.41538">
        <ele>104.1</ele>
        <time>2024-07-24T08:10:14Z</time>
      </trkpt>
      <trkpt lat="49.79339" lon="2.41538">
        <ele>104.1</ele>
        <time>2024-07-24T08:10:15Z</time>
      </trkpt>
      <trkpt lat="49.79339" lon="2.41538">
        <ele>104.1</ele>
        <time>2024-07-24T08:10:16Z</time>
      </trkpt>
      <trkpt lat="49.79339" lon="2.41538">
        <ele>104.1</ele>
        <time>2024-07-24T08:10:17Z</time>
      </trkpt>
      <trkpt lat="49.79339" lon="2.41538">
        <ele>104.1</ele>
        <time>2024-07-24T08:10:18Z</time>
      </trkpt>
      <trkpt lat="49.79339" lon="2.41538">
        <ele>104.1</ele>
        <time>2024-07-24T08:10:19Z</time>
      </trkpt>
      <trkpt lat="49.79339" lon="2.41538">
        <ele>104.1</ele>
        <time>2024-07-24T08:10:20Z</time>
      </trkpt>
      <trkpt lat="49.79339" lon="2.41538">
        <ele>104.1</ele>
        <time>2024-07-24T08:10:21Z</time>
      </trkpt>
      <trkpt lat="49.79339" lon="2.41538">
        <ele>104.1</ele>
        <time>2024-07-24T08:10:22Z</time>
      </trkpt>
      <trkpt lat="49.79339" lon="2.41538">
        <ele>104.1</ele>
        <time>2024-07-24T08:10:23Z</time>
      </trkpt>
      <trkpt lat="49.79339" lon="2.41538">
        <ele>104.1</ele>
        <time>2024-07-24T08:10:24Z</time>
      </trkpt>
      <trkpt lat="49.79339" lon="2.41538">
        <ele>104.1</ele>
        <time>2024-07-24T08:10:25Z</time>
      </trkpt>
      <trkpt lat="49.79339" lon="2.41538">
        <ele>104.1</ele>
        <time>2024-07-24T08:10:26Z</time>
      </trkpt>
      <trkpt lat="49.79339" lon="2.41538">
        <ele>104.1</ele>
        <time>2024-07-24T08:10:27Z</time>
      </trkpt>
      <trkpt lat="49.79339" lon="2.41538">
        <ele>104.1</ele>
        <time>2024-07-24T08:10:28Z</time>
      </trkpt>
      <trkpt lat="49.79339" lon="2.41538">
        <ele>104.1</ele>
        <time>2024-07-24T08:10:29Z</time>
      </trkpt>
      <trkpt lat="49.79339" lon="2.41538">
        <ele>104.1</ele>
        <time>2024-07-24T08:10:30Z</time>
      </trkpt>
      <trkpt lat="49.79339" lon="2.41538">
        <ele>104.1</ele>
        <time>2024-07-24T08:10:31Z</time>
      </trkpt>
      <trkpt lat="49.79339" lon="2.41538">
        <ele>104.1</ele>
        <time>2024-07-24T08:10:32Z</time>
      </trkpt>
      <trkpt lat="49.79339" lon="2.41538">
        <ele>104.1</ele>
        <time>2024-07-24T08:10:33Z</time>
      </trkpt>
      <trkpt lat="49.79339" lon="2.41538">
        <ele>104.1</ele>
        <time>2024-07-24T08:10:34Z</time>
      </trkpt>
      <trkpt lat="49.79339" lon="2.41538">
        <ele>104.1</ele>
        <time>2024-07-24T08:10:35Z</time>
      </trkpt>
      <trkpt lat="49.79339" lon="2.41538">
        <ele>104.1</ele>
        <time>2024-07-24T08:10:36Z</time>
      </trkpt>
      <trkpt lat="49.79339" lon="2.41538">
        <ele>104.1</ele>
        <time>2024-07-24T08:10:37Z</time>
      </trkpt>
      <trkpt lat="49.79339" lon="2.41538">
        <ele>104.1</ele>
        <time>2024-07-24T08:10:38Z</time>
      </trkpt>
      <trkpt lat="49.79339" lon="2.41538">
        <ele>104.1</ele>
        <time>2024-07-24T08:10:39Z</time>
      </trkpt>
      <trkpt lat="49.79339" lon="2.41538">
        <ele>104.1</ele>
        <time>2024-07-24T08:10:40Z</time>
      </trkpt>
      <trkpt lat="49.79339" lon="2.41538">
        <ele>104.1</ele>
        <time>2024-07-24T08:10:41Z</time>
      </trkpt>
      <trkpt lat="49.79339" lon="2.41538">
        <ele>104.1</ele>
        <time>2024-07-24T08:10:42Z</time>
      </trkpt>
      <trkpt lat="49.79339" lon="2.41538">
        <ele>104.1</ele>
        <time>2024-07-24T08:10:43Z</time>
      </trkpt>
      <trkpt lat="49.79339" lon="2.41538">
        <ele>104.1</ele>
        <time>2024-07-24T08:10:44Z</time>
      </trkpt>
      <trkpt lat="49.79339" lon="2.41538">
        <ele>104.1</ele>
        <time>2024-07-24T08:10:45Z</time>
      </trkpt>
      <trkpt lat="49.79339" lon="2.41538">
        <ele>104.1</ele>
        <time>2024-07-24T08:10:46Z</time>
      </trkpt>
      <trkpt lat="49.79339" lon="2.41538">
        <ele>104.1</ele>
        <time>2024-07-24T08:10:47Z</time>
      </trkpt>
      <trkpt lat="49.79339" lon="2.41538">
        <ele>104.1</ele>
        <time>2024-07-24T08:10:48Z</time>
      </trkpt>
      <trkpt lat="49.79339" lon="2.41538">
        <ele>104.1</ele>
        <time>2024-07-24T08:10:49Z</time>
      </trkpt>
      <trkpt lat="49.79339" lon="2.41538">
        <ele>104.1</ele>
        <time>2024-07-24T08:10:50Z</time>
      </trkpt>
      <trkpt lat="49.79339" lon="2.41538">
        <ele>104.1</ele>
        <time>2024-07-24T08:10:51Z</time>
      </trkpt>
      <trkpt lat="49.79339" lon="2.41538">
        <ele>104.1</ele>
        <time>2024-07-24T08:10:52Z</time>
      </trkpt>
      <trkpt lat="49.79339" lon="2.41538">
        <ele>104.1</ele>
        <time>2024-07-24T08:10:53Z</time>
      </trkpt>
      <trkpt lat="49.79339" lon="2.41538">
        <ele>104.1</ele>
        <time>2024-07-24T08:10:54Z</time>
      </trkpt>
      <trkpt lat="49.79339" lon="2.41538">
        <ele>104.1</ele>
        <time>2024-07-24T08:10:55Z</time>
      </trkpt>
      <trkpt lat="49.79339" lon="2.41538">
        <ele>104.1</ele>
        <time>2024-07-24T08:10:56Z</time>
      </trkpt>
      <trkpt lat="49.79339" lon="2.41538">
        <ele>104.1</ele>
        <time>2024-07-24T08:10:57Z</time>
      </trkpt>
      <trkpt lat="49.79339" lon="2.41538">
        <ele>104.1</ele>
        <time>2024-07-24T08:10:58Z</time>
      </trkpt>
      <trkpt lat="49.79339" lon="2.41538">
        <ele>104.1</ele>
        <time>2024-07-24T08:10:59Z</time>
      </trkpt>
      <trkpt lat="49.79339" lon="2.41538">
        <ele>104.1</ele>
        <time>2024-07-24T08:11:00Z</time>
      </trkpt>
      <trkpt lat="49.79339" lon="2.41538">
        <ele>104.1</ele>
        <time>2024-07-24T08:11:01Z</time>
      </trkpt>
      <trkpt lat="49.79339" lon="2.41538">
        <ele>104.1</ele>
        <time>2024-07-24T08:11:02Z</time>
      </trkpt>
      <trkpt lat="49.79339" lon="2.41538">
        <ele>104.1</ele>
        <time>2024-07-24T08:11:03Z</time>
      </trkpt>
      <trkpt lat="49.79339" lon="2.41538">
        <ele>104.1</ele>
        <time>2024-07-24T08:11:04Z</time>
      </trkpt>
      <trkpt lat="49.79339" lon="2.41538">
        <ele>104.1</ele>
        <time>2024-07-24T08:11:05Z</time>
      </trkpt>
      <trkpt lat="49.79339" lon="2.41538">
        <ele>104.1</ele>
        <time>2024-07-24T08:11:06Z</time>
      </trkpt>
      <trkpt lat="49.79339" lon="2.41538">
        <ele>104.1</ele>
        <time>2024-07-24T08:11:07Z</time>
      </trkpt>
      <trkpt lat="49.79339" lon="2.41538">
        <ele>104.1</ele>
        <time>2024-07-24T08:11:08Z</time>
      </trkpt>
      <trkpt lat="49.79339" lon="2.41538">
        <ele>104.1</ele>
        <time>2024-07-24T08:11:09Z</time>
      </trkpt>
      <trkpt lat="49.79339" lon="2.41538">
        <ele>104.1</ele>
        <time>2024-07-24T08:11:10Z</time>
      </trkpt>
      <trkpt lat="49.79339" lon="2.41538">
        <ele>104.1</ele>
        <time>2024-07-24T08:11:11Z</time>
      </trkpt>
      <trkpt lat="49.79339" lon="2.41538">
        <ele>104.1</ele>
        <time>2024-07-24T08:11:12Z</time>
      </trkpt>
      <trkpt lat="49.79339" lon="2.41538">
        <ele>104.1</ele>
        <time>2024-07-24T08:11:13Z</time>
      </trkpt>
      <trkpt lat="49.79339" lon="2.41538">
        <ele>104.1</ele>
        <time>2024-07-24T08:11:14Z</time>
      </trkpt>
      <trkpt lat="49.79339" lon="2.41538">
        <ele>104.1</ele>
        <time>2024-07-24T08:11:15Z</time>
      </trkpt>
      <trkpt lat="49.79339" lon="2.41538">
        <ele>104.1</ele>
        <time>2024-07-24T08:11:16Z</time>
      </trkpt>
      <trkpt lat="49.79339" lon="2.41538">
        <ele>104.1</ele>
        <time>2024-07-24T08:11:17Z</time>
      </trkpt>
      <trkpt lat="49.79339" lon="2.41538">
        <ele>104.1</ele>
        <time>2024-07-24T08:11:18Z</time>
      </trkpt>
      <trkpt lat="49.79339" lon="2.41538">
        <ele>104.1</ele>
        <time>2024-07-24T08:11:19Z</time>
      </trkpt>
      <trkpt lat="49.79339" lon="2.41538">
        <ele>104.1</ele>
        <time>2024-07-24T08:11:20Z</time>
      </trkpt>
      <trkpt lat="49.79339" lon="2.41538">
        <ele>104.1</ele>
        <time>2024-07-24T08:11:21Z</time>
      </trkpt>
      <trkpt lat="49.79339" lon="2.41538">
        <ele>104.1</ele>
        <time>2024-07-24T08:11:22Z</time>
      </trkpt>
      <trkpt lat="49.79339" lon="2.41538">
        <ele>104.1</ele>
        <time>2024-07-24T08:11:23Z</time>
      </trkpt>
      <trkpt lat="49.79339" lon="2.41538">
        <ele>104.1</ele>
        <time>2024-07-24T08:11:24Z</time>
      </trkpt>
      <trkpt lat="49.79339" lon="2.41538">
        <ele>104.1</ele>
        <time>2024-07-24T08:11:25Z</time>
      </trkpt>
      <trkpt lat="49.79339" lon="2.41538">
        <ele>104.1</ele>
        <time>2024-07-24T08:11:26Z</time>
      </trkpt>
      <trkpt lat="49.79339" lon="2.41538">
        <ele>104.1</ele>
        <time>2024-07-24T08:11:27Z</time>
      </trkpt>
      <trkpt lat="49.79339" lon="2.41538">
        <ele>104.1</ele>
        <time>2024-07-24T08:11:28Z</time>
      </trkpt>
      <trkpt lat="49.79339" lon="2.41538">
        <ele>104.1</ele>
        <time>2024-07-24T08:11:29Z</time>
      </trkpt>
      <trkpt lat="49.79339" lon="2.41538">
        <ele>104.1</ele>
        <time>2024-07-24T08:11:30Z</time>
      </trkpt>
      <trkpt lat="49.79339" lon="2.41538">
        <ele>104.1</ele>
        <time>2024-07-24T08:11:31Z</time>
      </trkpt>
      <trkpt lat="49.79339" lon="2.41538">
        <ele>104.1</ele>
        <time>2024-07-24T08:11:32Z</time>
      </trkpt>
      <trkpt lat="49.79339" lon="2.41538">
        <ele>104.1</ele>
        <time>2024-07-24T08:11:33Z</time>
      </trkpt>
      <trkpt lat="49.79339" lon="2.41538">
        <ele>104.1</ele>
        <time>2024-07-24T08:11:34Z</time>
      </trkpt>
      <trkpt lat="49.79339" lon="2.41538">
        <ele>104.1</ele>
        <time>2024-07-24T08:11:35Z</time>
      </trkpt>
      <trkpt lat="49.79339" lon="2.41538">
        <ele>104.1</ele>
        <time>2024-07-24T08:11:36Z</time>
      </trkpt>
      <trkpt lat="49.79339" lon="2.41538">
        <ele>104.1</ele>
        <time>2024-07-24T08:11:37Z</time>
      </trkpt>
      <trkpt lat="49.79339" lon="2.41538">
        <ele>104.1</ele>
        <time>2024-07-24T08:11:38Z</time>
      </trkpt>
      <trkpt lat="49.79339" lon="2.41538">
        <ele>104.1</ele>
        <time>2024-07-24T08:11:39Z</time>
      </trkpt>
      <trkpt lat="49.79339" lon="2.41538">
        <ele>104.1</ele>
        <time>2024-07-24T08:11:40Z</time>
      </trkpt>
      <trkpt lat="49.79339" lon="2.41538">
        <ele>104.1</ele>
        <time>2024-07-24T08:11:41Z</time>
      </trkpt>
      <trkpt lat="49.79339" lon="2.41538">
        <ele>104.1</ele>
        <time>2024-07-24T08:11:42Z</time>
      </trkpt>
      <trkpt lat="49.79339" lon="2.41538">
        <ele>104.1</ele>
        <time>2024-07-24T08:11:43Z</time>
      </trkpt>
      <trkpt lat="49.79339" lon="2.41538">
        <ele>104.1</ele>
        <time>2024-07-24T08:11:44Z</time>
      </trkpt>
      <trkpt lat="49.79339" lon="2.41538">
        <ele>104.1</ele>
        <time>2024-07-24T08:11:45Z</time>
      </trkpt>
      <trkpt lat="49.79339" lon="2.41538">
        <ele>104.1</ele>
        <time>2024-07-24T08:11:46Z</time>
      </trkpt>
      <trkpt lat="49.79339" lon="2.41539">
        <ele>104.1</ele>
        <time>2024-07-24T08:11:47Z</time>
      </trkpt>
      <trkpt lat="49.79339" lon="2.41539">
        <ele>104.1</ele>
        <time>2024-07-24T08:11:48Z</time>
      </trkpt>
      <trkpt lat="49.79339" lon="2.41539">
        <ele>104.1</ele>
        <time>2024-07-24T08:11:49Z</time>
      </trkpt>
      <trkpt lat="49.79339" lon="2.41539">
        <ele>104.1</ele>
        <time>2024-07-24T08:11:50Z</time>
      </trkpt>
      <trkpt lat="49.79339" lon="2.41539">
        <ele>104.1</ele>
        <time>2024-07-24T08:11:51Z</time>
      </trkpt>
      <trkpt lat="49.79338" lon="2.41539">
        <ele>104.1</ele>
        <time>2024-07-24T08:11:52Z</time>
      </trkpt>
      <trkpt lat="49.79338" lon="2.41539">
        <ele>104.1</ele>
        <time>2024-07-24T08:11:53Z</time>
      </trkpt>
      <trkpt lat="49.79338" lon="2.4154">
        <ele>104.1</ele>
        <time>2024-07-24T08:11:54Z</time>
      </trkpt>
      <trkpt lat="49.79338" lon="2.4154">
        <ele>104.1</ele>
        <time>2024-07-24T08:11:55Z</time>
      </trkpt>
      <trkpt lat="49.79338" lon="2.4154">
        <ele>104.1</ele>
        <time>2024-07-24T08:11:56Z</time>
      </trkpt>
      <trkpt lat="49.79338" lon="2.4154">
        <ele>104.1</ele>
        <time>2024-07-24T08:11:57Z</time>
      </trkpt>
      <trkpt lat="49.79338" lon="2.4154">
        <ele>104.1</ele>
        <time>2024-07-24T08:11:58Z</time>
      </trkpt>
      <trkpt lat="49.79338" lon="2.4154">
        <ele>104.1</ele>
        <time>2024-07-24T08:11:59Z</time>
      </trkpt>
      <trkpt lat="49.79338" lon="2.4154">
        <ele>104.1</ele>
        <time>2024-07-24T08:12:00Z</time>
      </trkpt>
      <trkpt lat="49.79338" lon="2.4154">
        <ele>104.1</ele>
        <time>2024-07-24T08:12:01Z</time>
      </trkpt>
      <trkpt lat="49.79338" lon="2.4154">
        <ele>104.1</ele>
        <time>2024-07-24T08:12:02Z</time>
      </trkpt>
      <trkpt lat="49.79338" lon="2.4154">
        <ele>104.1</ele>
        <time>2024-07-24T08:12:03Z</time>
      </trkpt>
      <trkpt lat="49.79338" lon="2.4154">
        <ele>104.1</ele>
        <time>2024-07-24T08:12:04Z</time>
      </trkpt>
      <trkpt lat="49.79338" lon="2.4154">
        <ele>104.1</ele>
        <time>2024-07-24T08:12:05Z</time>
      </trkpt>
      <trkpt lat="49.79338" lon="2.4154">
        <ele>104.1</ele>
        <time>2024-07-24T08:12:06Z</time>
      </trkpt>
      <trkpt lat="49.79338" lon="2.4154">
        <ele>104.1</ele>
        <time>2024-07-24T08:12:07Z</time>
      </trkpt>
      <trkpt lat="49.79338" lon="2.4154">
        <ele>104.1</ele>
        <time>2024-07-24T08:12:08Z</time>
      </trkpt>
      <trkpt lat="49.79338" lon="2.4154">
        <ele>104.1</ele>
        <time>2024-07-24T08:12:09Z</time>
      </trkpt>
      <trkpt lat="49.79339" lon="2.4154">
        <ele>104.1</ele>
        <time>2024-07-24T08:12:10Z</time>
      </trkpt>
      <trkpt lat="49.79339" lon="2.4154">
        <ele>104.1</ele>
        <time>2024-07-24T08:12:11Z</time>
      </trkpt>
      <trkpt lat="49.79339" lon="2.4154">
        <ele>104.1</ele>
        <time>2024-07-24T08:12:12Z</time>
      </trkpt>
      <trkpt lat="49.79339" lon="2.4154">
        <ele>104.1</ele>
        <time>2024-07-24T08:12:13Z</time>
      </trkpt>
      <trkpt lat="49.79339" lon="2.4154">
        <ele>104.1</ele>
        <time>2024-07-24T08:12:14Z</time>
      </trkpt>
      <trkpt lat="49.79339" lon="2.4154">
        <ele>104.1</ele>
        <time>2024-07-24T08:12:15Z</time>
      </trkpt>
      <trkpt lat="49.79339" lon="2.4154">
        <ele>104.1</ele>
        <time>2024-07-24T08:12:16Z</time>
      </trkpt>
      <trkpt lat="49.79339" lon="2.4154">
        <ele>104.1</ele>
        <time>2024-07-24T08:12:17Z</time>
      </trkpt>
      <trkpt lat="49.79339" lon="2.4154">
        <ele>104.1</ele>
        <time>2024-07-24T08:12:18Z</time>
      </trkpt>
      <trkpt lat="49.79339" lon="2.4154">
        <ele>104.1</ele>
        <time>2024-07-24T08:12:19Z</time>
      </trkpt>
      <trkpt lat="49.79339" lon="2.4154">
        <ele>104.1</ele>
        <time>2024-07-24T08:12:20Z</time>
      </trkpt>
      <trkpt lat="49.79339" lon="2.4154">
        <ele>104.1</ele>
        <time>2024-07-24T08:12:21Z</time>
      </trkpt>
      <trkpt lat="49.79339" lon="2.4154">
        <ele>104.1</ele>
        <time>2024-07-24T08:12:22Z</time>
      </trkpt>
      <trkpt lat="49.79339" lon="2.4154">
        <ele>104.1</ele>
        <time>2024-07-24T08:12:23Z</time>
      </trkpt>
      <trkpt lat="49.79339" lon="2.4154">
        <ele>104.1</ele>
        <time>2024-07-24T08:12:24Z</time>
      </trkpt>
      <trkpt lat="49.79339" lon="2.4154">
        <ele>104.1</ele>
        <time>2024-07-24T08:12:25Z</time>
      </trkpt>
      <trkpt lat="49.79339" lon="2.4154">
        <ele>104.1</ele>
        <time>2024-07-24T08:12:26Z</time>
      </trkpt>
      <trkpt lat="49.79339" lon="2.4154">
        <ele>104.1</ele>
        <time>2024-07-24T08:12:27Z</time>
      </trkpt>
      <trkpt lat="49.79339" lon="2.4154">
        <ele>104.1</ele>
        <time>2024-07-24T08:12:28Z</time>
      </trkpt>
      <trkpt lat="49.79339" lon="2.4154">
        <ele>104.1</ele>
        <time>2024-07-24T08:12:29Z</time>
      </trkpt>
      <trkpt lat="49.79338" lon="2.4154">
        <ele>104.1</ele>
        <time>2024-07-24T08:12:30Z</time>
      </trkpt>
      <trkpt lat="49.79338" lon="2.4154">
        <ele>104.1</ele>
        <time>2024-07-24T08:12:31Z</time>
      </trkpt>
      <trkpt lat="49.79338" lon="2.4154">
        <ele>104.1</ele>
        <time>2024-07-24T08:12:32Z</time>
      </trkpt>
      <trkpt lat="49.79338" lon="2.4154">
        <ele>104.1</ele>
        <time>2024-07-24T08:12:33Z</time>
      </trkpt>
      <trkpt lat="49.79338" lon="2.4154">
        <ele>104.1</ele>
        <time>2024-07-24T08:12:34Z</time>
      </trkpt>
      <trkpt lat="49.79338" lon="2.4154">
        <ele>104.1</ele>
        <time>2024-07-24T08:12:35Z</time>
      </trkpt>
      <trkpt lat="49.79338" lon="2.4154">
        <ele>104.1</ele>
        <time>2024-07-24T08:12:36Z</time>
      </trkpt>
      <trkpt lat="49.79338" lon="2.4154">
        <ele>104.1</ele>
        <time>2024-07-24T08:12:37Z</time>
      </trkpt>
      <trkpt lat="49.79338" lon="2.4154">
        <ele>104.1</ele>
        <time>2024-07-24T08:12:38Z</time>
      </trkpt>
      <trkpt lat="49.79338" lon="2.4154">
        <ele>104.1</ele>
        <time>2024-07-24T08:12:39Z</time>
      </trkpt>
      <trkpt lat="49.79338" lon="2.4154">
        <ele>104.1</ele>
        <time>2024-07-24T08:12:40Z</time>
      </trkpt>
      <trkpt lat="49.79338" lon="2.4154">
        <ele>104.1</ele>
        <time>2024-07-24T08:12:41Z</time>
      </trkpt>
      <trkpt lat="49.79338" lon="2.4154">
        <ele>104.1</ele>
        <time>2024-07-24T08:12:42Z</time>
      </trkpt>
      <trkpt lat="49.79338" lon="2.4154">
        <ele>104.1</ele>
        <time>2024-07-24T08:12:43Z</time>
      </trkpt>
      <trkpt lat="49.79339" lon="2.4154">
        <ele>104.1</ele>
        <time>2024-07-24T08:12:44Z</time>
      </trkpt>
      <trkpt lat="49.7934" lon="2.4154">
        <ele>104.1</ele>
        <time>2024-07-24T08:12:45Z</time>
      </trkpt>
      <trkpt lat="49.7934" lon="2.4154">
        <ele>104.1</ele>
        <time>2024-07-24T08:12:46Z</time>
      </trkpt>
      <trkpt lat="49.7934" lon="2.4154">
        <ele>104.1</ele>
        <time>2024-07-24T08:12:47Z</time>
      </trkpt>
      <trkpt lat="49.7934" lon="2.4154">
        <ele>104.1</ele>
        <time>2024-07-24T08:12:48Z</time>
      </trkpt>
      <trkpt lat="49.7934" lon="2.4154">
        <ele>104.1</ele>
        <time>2024-07-24T08:12:49Z</time>
      </trkpt>
      <trkpt lat="49.7934" lon="2.4154">
        <ele>104.1</ele>
        <time>2024-07-24T08:12:50Z</time>
      </trkpt>
      <trkpt lat="49.7934" lon="2.4154">
        <ele>104.1</ele>
        <time>2024-07-24T08:12:51Z</time>
      </trkpt>
      <trkpt lat="49.7934" lon="2.4154">
        <ele>104.1</ele>
        <time>2024-07-24T08:12:52Z</time>
      </trkpt>
      <trkpt lat="49.7934" lon="2.4154">
        <ele>104.1</ele>
        <time>2024-07-24T08:12:53Z</time>
      </trkpt>
      <trkpt lat="49.7934" lon="2.4154">
        <ele>104.1</ele>
        <time>2024-07-24T08:12:54Z</time>
      </trkpt>
      <trkpt lat="49.7934" lon="2.4154">
        <ele>104.1</ele>
        <time>2024-07-24T08:12:55Z</time>
      </trkpt>
      <trkpt lat="49.7934" lon="2.4154">
        <ele>104.1</ele>
        <time>2024-07-24T08:12:56Z</time>
      </trkpt>
      <trkpt lat="49.7934" lon="2.4154">
        <ele>104.1</ele>
        <time>2024-07-24T08:12:57Z</time>
      </trkpt>
      <trkpt lat="49.7934" lon="2.4154">
        <ele>104.1</ele>
        <time>2024-07-24T08:12:58Z</time>
      </trkpt>
      <trkpt lat="49.7934" lon="2.4154">
        <ele>104.1</ele>
        <time>2024-07-24T08:12:59Z</time>
      </trkpt>
      <trkpt lat="49.7934" lon="2.4154">
        <ele>104.1</ele>
        <time>2024-07-24T08:13:00Z</time>
      </trkpt>
      <trkpt lat="49.7934" lon="2.4154">
        <ele>104.1</ele>
        <time>2024-07-24T08:13:01Z</time>
      </trkpt>
      <trkpt lat="49.7934" lon="2.4154">
        <ele>104.1</ele>
        <time>2024-07-24T08:13:02Z</time>
      </trkpt>
      <trkpt lat="49.7934" lon="2.4154">
        <ele>104.1</ele>
        <time>2024-07-24T08:13:03Z</time>
      </trkpt>
      <trkpt lat="49.7934" lon="2.4154">
        <ele>104.1</ele>
        <time>2024-07-24T08:13:04Z</time>
      </trkpt>
      <trkpt lat="49.7934" lon="2.4154">
        <ele>104.1</ele>
        <time>2024-07-24T08:13:05Z</time>
      </trkpt>
      <trkpt lat="49.7934" lon="2.4154">
        <ele>104.1</ele>
        <time>2024-07-24T08:13:06Z</time>
      </trkpt>
      <trkpt lat="49.7934" lon="2.4154">
        <ele>104.1</ele>
        <time>2024-07-24T08:13:07Z</time>
      </trkpt>
      <trkpt lat="49.7934" lon="2.4154">
        <ele>104.1</ele>
        <time>2024-07-24T08:13:08Z</time>
      </trkpt>
      <trkpt lat="49.7934" lon="2.4154">
        <ele>104.1</ele>
        <time>2024-07-24T08:13:09Z</time>
      </trkpt>
      <trkpt lat="49.7934" lon="2.4154">
        <ele>104.1</ele>
        <time>2024-07-24T08:13:10Z</time>
      </trkpt>
      <trkpt lat="49.7934" lon="2.4154">
        <ele>104.1</ele>
        <time>2024-07-24T08:13:11Z</time>
      </trkpt>
      <trkpt lat="49.7934" lon="2.4154">
        <ele>104.1</ele>
        <time>2024-07-24T08:13:12Z</time>
      </trkpt>
      <trkpt lat="49.7934" lon="2.4154">
        <ele>104.1</ele>
        <time>2024-07-24T08:13:13Z</time>
      </trkpt>
      <trkpt lat="49.7934" lon="2.4154">
        <ele>104.1</ele>
        <time>2024-07-24T08:13:14Z</time>
      </trkpt>
      <trkpt lat="49.7934" lon="2.4154">
        <ele>104.1</ele>
        <time>2024-07-24T08:13:15Z</time>
      </trkpt>
      <trkpt lat="49.7934" lon="2.4154">
        <ele>104.1</ele>
        <time>2024-07-24T08:13:16Z</time>
      </trkpt>
      <trkpt lat="49.7934" lon="2.4154">
        <ele>104.1</ele>
        <time>2024-07-24T08:13:17Z</time>
      </trkpt>
      <trkpt lat="49.7934" lon="2.4154">
        <ele>104.1</ele>
        <time>2024-07-24T08:13:18Z</time>
      </trkpt>
      <trkpt lat="49.7934" lon="2.4154">
        <ele>104.1</ele>
        <time>2024-07-24T08:13:19Z</time>
      </trkpt>
      <trkpt lat="49.7934" lon="2.4154">
        <ele>104.1</ele>
        <time>2024-07-24T08:13:20Z</time>
      </trkpt>
      <trkpt lat="49.7934" lon="2.4154">
        <ele>104.1</ele>
        <time>2024-07-24T08:13:21Z</time>
      </trkpt>
      <trkpt lat="49.7934" lon="2.4154">
        <ele>104.1</ele>
        <time>2024-07-24T08:13:22Z</time>
      </trkpt>
      <trkpt lat="49.7934" lon="2.4154">
        <ele>104.1</ele>
        <time>2024-07-24T08:13:23Z</time>
      </trkpt>
      <trkpt lat="49.7934" lon="2.4154">
        <ele>104.1</ele>
        <time>2024-07-24T08:13:24Z</time>
      </trkpt>
      <trkpt lat="49.7934" lon="2.4154">
        <ele>104.1</ele>
        <time>2024-07-24T08:13:25Z</time>
      </trkpt>
      <trkpt lat="49.7934" lon="2.4154">
        <ele>104.1</ele>
        <time>2024-07-24T08:13:26Z</time>
      </trkpt>
      <trkpt lat="49.7934" lon="2.4154">
        <ele>104.1</ele>
        <time>2024-07-24T08:13:27Z</time>
      </trkpt>
      <trkpt lat="49.7934" lon="2.4154">
        <ele>104.1</ele>
        <time>2024-07-24T08:13:28Z</time>
      </trkpt>
      <trkpt lat="49.7934" lon="2.4154">
        <ele>104.1</ele>
        <time>2024-07-24T08:13:29Z</time>
      </trkpt>
      <trkpt lat="49.7934" lon="2.4154">
        <ele>104.1</ele>
        <time>2024-07-24T08:13:30Z</time>
      </trkpt>
      <trkpt lat="49.7934" lon="2.4154">
        <ele>104.1</ele>
        <time>2024-07-24T08:13:31Z</time>
      </trkpt>
      <trkpt lat="49.7934" lon="2.4154">
        <ele>104.1</ele>
        <time>2024-07-24T08:13:32Z</time>
      </trkpt>
      <trkpt lat="49.7934" lon="2.4154">
        <ele>104.1</ele>
        <time>2024-07-24T08:13:33Z</time>
      </trkpt>
      <trkpt lat="49.7934" lon="2.4154">
        <ele>104.1</ele>
        <time>2024-07-24T08:13:34Z</time>
      </trkpt>
      <trkpt lat="49.7934" lon="2.4154">
        <ele>104.1</ele>
        <time>2024-07-24T08:13:35Z</time>
      </trkpt>
      <trkpt lat="49.7934" lon="2.4154">
        <ele>104.1</ele>
        <time>2024-07-24T08:13:36Z</time>
      </trkpt>
      <trkpt lat="49.7934" lon="2.4154">
        <ele>104.1</ele>
        <time>2024-07-24T08:13:37Z</time>
      </trkpt>
      <trkpt lat="49.7934" lon="2.4154">
        <ele>104.1</ele>
        <time>2024-07-24T08:13:38Z</time>
      </trkpt>
      <trkpt lat="49.7934" lon="2.4154">
        <ele>104.1</ele>
        <time>2024-07-24T08:13:39Z</time>
      </trkpt>
      <trkpt lat="49.7934" lon="2.4154">
        <ele>104.1</ele>
        <time>2024-07-24T08:13:40Z</time>
      </trkpt>
      <trkpt lat="49.7934" lon="2.4154">
        <ele>104.1</ele>
        <time>2024-07-24T08:13:41Z</time>
      </trkpt>
      <trkpt lat="49.7934" lon="2.4154">
        <ele>104.1</ele>
        <time>2024-07-24T08:13:42Z</time>
      </trkpt>
      <trkpt lat="49.7934" lon="2.4154">
        <ele>104.1</ele>
        <time>2024-07-24T08:13:43Z</time>
      </trkpt>
      <trkpt lat="49.7934" lon="2.4154">
        <ele>104.1</ele>
        <time>2024-07-24T08:13:44Z</time>
      </trkpt>
      <trkpt lat="49.7934" lon="2.4154">
        <ele>104.1</ele>
        <time>2024-07-24T08:13:45Z</time>
      </trkpt>
      <trkpt lat="49.7934" lon="2.4154">
        <ele>104.1</ele>
        <time>2024-07-24T08:13:46Z</time>
      </trkpt>
      <trkpt lat="49.7934" lon="2.4154">
        <ele>104.1</ele>
        <time>2024-07-24T08:13:47Z</time>
      </trkpt>
      <trkpt lat="49.7934" lon="2.4154">
        <ele>104.1</ele>
        <time>2024-07-24T08:13:48Z</time>
      </trkpt>
      <trkpt lat="49.7934" lon="2.4154">
        <ele>104.1</ele>
        <time>2024-07-24T08:13:49Z</time>
      </trkpt>
      <trkpt lat="49.7934" lon="2.4154">
        <ele>104.1</ele>
        <time>2024-07-24T08:13:50Z</time>
      </trkpt>
      <trkpt lat="49.7934" lon="2.4154">
        <ele>104.1</ele>
        <time>2024-07-24T08:13:51Z</time>
      </trkpt>
      <trkpt lat="49.7934" lon="2.4154">
        <ele>104.1</ele>
        <time>2024-07-24T08:13:52Z</time>
      </trkpt>
      <trkpt lat="49.7934" lon="2.4154">
        <ele>104.1</ele>
        <time>2024-07-24T08:13:53Z</time>
      </trkpt>
      <trkpt lat="49.7934" lon="2.4154">
        <ele>104.1</ele>
        <time>2024-07-24T08:13:54Z</time>
      </trkpt>
      <trkpt lat="49.7934" lon="2.4154">
        <ele>104.1</ele>
        <time>2024-07-24T08:13:55Z</time>
      </trkpt>
      <trkpt lat="49.7934" lon="2.4154">
        <ele>104.1</ele>
        <time>2024-07-24T08:13:56Z</time>
      </trkpt>
      <trkpt lat="49.7934" lon="2.4154">
        <ele>104.1</ele>
        <time>2024-07-24T08:13:57Z</time>
      </trkpt>
      <trkpt lat="49.7934" lon="2.4154">
        <ele>104.1</ele>
        <time>2024-07-24T08:13:58Z</time>
      </trkpt>
      <trkpt lat="49.7934" lon="2.4154">
        <ele>104.1</ele>
        <time>2024-07-24T08:13:59Z</time>
      </trkpt>
      <trkpt lat="49.7934" lon="2.4154">
        <ele>104.1</ele>
        <time>2024-07-24T08:14:00Z</time>
      </trkpt>
      <trkpt lat="49.7934" lon="2.4154">
        <ele>104.1</ele>
        <time>2024-07-24T08:14:01Z</time>
      </trkpt>
      <trkpt lat="49.7934" lon="2.4154">
        <ele>104.1</ele>
        <time>2024-07-24T08:14:02Z</time>
      </trkpt>
      <trkpt lat="49.7934" lon="2.4154">
        <ele>104.1</ele>
        <time>2024-07-24T08:14:03Z</time>
      </trkpt>
      <trkpt lat="49.7934" lon="2.4154">
        <ele>104.1</ele>
        <time>2024-07-24T08:14:04Z</time>
      </trkpt>
      <trkpt lat="49.7934" lon="2.4154">
        <ele>104.1</ele>
        <time>2024-07-24T08:14:05Z</time>
      </trkpt>
      <trkpt lat="49.7934" lon="2.4154">
        <ele>104.1</ele>
        <time>2024-07-24T08:14:06Z</time>
      </trkpt>
      <trkpt lat="49.7934" lon="2.4154">
        <ele>104.1</ele>
        <time>2024-07-24T08:14:07Z</time>
      </trkpt>
      <trkpt lat="49.7934" lon="2.4154">
        <ele>104.1</ele>
        <time>2024-07-24T08:14:08Z</time>
      </trkpt>
      <trkpt lat="49.7934" lon="2.4154">
        <ele>104.1</ele>
        <time>2024-07-24T08:14:09Z</time>
      </trkpt>
      <trkpt lat="49.7934" lon="2.4154">
        <ele>104.1</ele>
        <time>2024-07-24T08:14:10Z</time>
      </trkpt>
      <trkpt lat="49.7934" lon="2.4154">
        <ele>104.1</ele>
        <time>2024-07-24T08:14:11Z</time>
      </trkpt>
      <trkpt lat="49.7934" lon="2.4154">
        <ele>104.1</ele>
        <time>2024-07-24T08:14:12Z</time>
      </trkpt>
      <trkpt lat="49.7934" lon="2.4154">
        <ele>104.1</ele>
        <time>2024-07-24T08:14:13Z</time>
      </trkpt>
      <trkpt lat="49.7934" lon="2.4154">
        <ele>104.1</ele>
        <time>2024-07-24T08:14:14Z</time>
      </trkpt>
      <trkpt lat="49.7934" lon="2.4154">
        <ele>104.1</ele>
        <time>2024-07-24T08:14:15Z</time>
      </trkpt>
      <trkpt lat="49.7934" lon="2.4154">
        <ele>104.1</ele>
        <time>2024-07-24T08:14:16Z</time>
      </trkpt>
      <trkpt lat="49.7934" lon="2.4154">
        <ele>104.1</ele>
        <time>2024-07-24T08:14:17Z</time>
      </trkpt>
      <trkpt lat="49.7934" lon="2.4154">
        <ele>104.1</ele>
        <time>2024-07-24T08:14:18Z</time>
      </trkpt>
      <trkpt lat="49.7934" lon="2.4154">
        <ele>104.1</ele>
        <time>2024-07-24T08:14:19Z</time>
      </trkpt>
      <trkpt lat="49.7934" lon="2.4154">
        <ele>104.1</ele>
        <time>2024-07-24T08:14:20Z</time>
      </trkpt>
      <trkpt lat="49.7934" lon="2.4154">
        <ele>104.1</ele>
        <time>2024-07-24T08:14:21Z</time>
      </trkpt>
      <trkpt lat="49.7934" lon="2.4154">
        <ele>104.1</ele>
        <time>2024-07-24T08:14:22Z</time>
      </trkpt>
      <trkpt lat="49.7934" lon="2.4154">
        <ele>104.1</ele>
        <time>2024-07-24T08:14:23Z</time>
      </trkpt>
      <trkpt lat="49.7934" lon="2.4154">
        <ele>104.1</ele>
        <time>2024-07-24T08:14:24Z</time>
      </trkpt>
      <trkpt lat="49.7934" lon="2.4154">
        <ele>104.1</ele>
        <time>2024-07-24T08:14:25Z</time>
      </trkpt>
      <trkpt lat="49.7934" lon="2.4154">
        <ele>104.1</ele>
        <time>2024-07-24T08:14:26Z</time>
      </trkpt>
      <trkpt lat="49.7934" lon="2.4154">
        <ele>104.1</ele>
        <time>2024-07-24T08:14:27Z</time>
      </trkpt>
      <trkpt lat="49.7934" lon="2.4154">
        <ele>104.1</ele>
        <time>2024-07-24T08:14:28Z</time>
      </trkpt>
      <trkpt lat="49.7934" lon="2.4154">
        <ele>104.1</ele>
        <time>2024-07-24T08:14:29Z</time>
      </trkpt>
      <trkpt lat="49.7934" lon="2.4154">
        <ele>104.1</ele>
        <time>2024-07-24T08:14:30Z</time>
      </trkpt>
      <trkpt lat="49.7934" lon="2.4154">
        <ele>104.1</ele>
        <time>2024-07-24T08:14:31Z</time>
      </trkpt>
      <trkpt lat="49.7934" lon="2.4154">
        <ele>104.1</ele>
        <time>2024-07-24T08:14:32Z</time>
      </trkpt>
      <trkpt lat="49.7934" lon="2.4154">
        <ele>104.1</ele>
        <time>2024-07-24T08:14:33Z</time>
      </trkpt>
      <trkpt lat="49.7934" lon="2.4154">
        <ele>104.1</ele>
        <time>2024-07-24T08:14:34Z</time>
      </trkpt>
      <trkpt lat="49.7934" lon="2.4154">
        <ele>104.1</ele>
        <time>2024-07-24T08:14:35Z</time>
      </trkpt>
      <trkpt lat="49.7934" lon="2.4154">
        <ele>104.1</ele>
        <time>2024-07-24T08:14:36Z</time>
      </trkpt>
      <trkpt lat="49.7934" lon="2.4154">
        <ele>104.1</ele>
        <time>2024-07-24T08:14:37Z</time>
      </trkpt>
      <trkpt lat="49.7934" lon="2.4154">
        <ele>104.1</ele>
        <time>2024-07-24T08:14:38Z</time>
      </trkpt>
      <trkpt lat="49.7934" lon="2.4154">
        <ele>104.1</ele>
        <time>2024-07-24T08:14:39Z</time>
      </trkpt>
      <trkpt lat="49.7934" lon="2.4154">
        <ele>104.1</ele>
        <time>2024-07-24T08:14:40Z</time>
      </trkpt>
      <trkpt lat="49.7934" lon="2.4154">
        <ele>104.1</ele>
        <time>2024-07-24T08:14:41Z</time>
      </trkpt>
      <trkpt lat="49.7934" lon="2.4154">
        <ele>104.1</ele>
        <time>2024-07-24T08:14:42Z</time>
      </trkpt>
      <trkpt lat="49.7934" lon="2.4154">
        <ele>104.1</ele>
        <time>2024-07-24T08:14:43Z</time>
      </trkpt>
      <trkpt lat="49.7934" lon="2.4154">
        <ele>104.1</ele>
        <time>2024-07-24T08:14:44Z</time>
      </trkpt>
      <trkpt lat="49.7934" lon="2.4154">
        <ele>104.1</ele>
        <time>2024-07-24T08:14:45Z</time>
      </trkpt>
      <trkpt lat="49.7934" lon="2.4154">
        <ele>104.1</ele>
        <time>2024-07-24T08:14:46Z</time>
      </trkpt>
      <trkpt lat="49.7934" lon="2.4154">
        <ele>104.1</ele>
        <time>2024-07-24T08:14:47Z</time>
      </trkpt>
      <trkpt lat="49.7934" lon="2.4154">
        <ele>104.1</ele>
        <time>2024-07-24T08:14:48Z</time>
      </trkpt>
      <trkpt lat="49.7934" lon="2.4154">
        <ele>104.1</ele>
        <time>2024-07-24T08:14:49Z</time>
      </trkpt>
      <trkpt lat="49.7934" lon="2.4154">
        <ele>104.1</ele>
        <time>2024-07-24T08:14:50Z</time>
      </trkpt>
      <trkpt lat="49.7934" lon="2.4154">
        <ele>104.1</ele>
        <time>2024-07-24T08:14:51Z</time>
      </trkpt>
      <trkpt lat="49.7934" lon="2.4154">
        <ele>104.1</ele>
        <time>2024-07-24T08:14:52Z</time>
      </trkpt>
      <trkpt lat="49.7934" lon="2.4154">
        <ele>104.1</ele>
        <time>2024-07-24T08:14:53Z</time>
      </trkpt>
      <trkpt lat="49.7934" lon="2.4154">
        <ele>104.1</ele>
        <time>2024-07-24T08:14:54Z</time>
      </trkpt>
      <trkpt lat="49.7934" lon="2.4154">
        <ele>104.1</ele>
        <time>2024-07-24T08:14:55Z</time>
      </trkpt>
      <trkpt lat="49.7934" lon="2.4154">
        <ele>104.1</ele>
        <time>2024-07-24T08:14:56Z</time>
      </trkpt>
      <trkpt lat="49.7934" lon="2.4154">
        <ele>104.1</ele>
        <time>2024-07-24T08:14:57Z</time>
      </trkpt>
      <trkpt lat="49.7934" lon="2.4154">
        <ele>104.1</ele>
        <time>2024-07-24T08:14:58Z</time>
      </trkpt>
      <trkpt lat="49.7934" lon="2.4154">
        <ele>104.1</ele>
        <time>2024-07-24T08:14:59Z</time>
      </trkpt>
      <trkpt lat="49.7934" lon="2.4154">
        <ele>104.1</ele>
        <time>2024-07-24T08:15:00Z</time>
      </trkpt>
      <trkpt lat="49.7934" lon="2.4154">
        <ele>104.1</ele>
        <time>2024-07-24T08:15:01Z</time>
      </trkpt>
      <trkpt lat="49.7934" lon="2.4154">
        <ele>104.1</ele>
        <time>2024-07-24T08:15:02Z</time>
      </trkpt>
      <trkpt lat="49.7934" lon="2.4154">
        <ele>104.1</ele>
        <time>2024-07-24T08:15:03Z</time>
      </trkpt>
      <trkpt lat="49.7934" lon="2.4154">
        <ele>104.1</ele>
        <time>2024-07-24T08:15:04Z</time>
      </trkpt>
      <trkpt lat="49.7934" lon="2.4154">
        <ele>104.1</ele>
        <time>2024-07-24T08:15:05Z</time>
      </trkpt>
      <trkpt lat="49.7934" lon="2.4154">
        <ele>104.1</ele>
        <time>2024-07-24T08:15:06Z</time>
      </trkpt>
      <trkpt lat="49.7934" lon="2.4154">
        <ele>104.1</ele>
        <time>2024-07-24T08:15:07Z</time>
      </trkpt>
      <trkpt lat="49.7934" lon="2.4154">
        <ele>104.1</ele>
        <time>2024-07-24T08:15:08Z</time>
      </trkpt>
      <trkpt lat="49.7934" lon="2.4154">
        <ele>104.1</ele>
        <time>2024-07-24T08:15:09Z</time>
      </trkpt>
      <trkpt lat="49.7934" lon="2.4154">
        <ele>104.1</ele>
        <time>2024-07-24T08:15:10Z</time>
      </trkpt>
      <trkpt lat="49.7934" lon="2.4154">
        <ele>104.1</ele>
        <time>2024-07-24T08:15:11Z</time>
      </trkpt>
      <trkpt lat="49.7934" lon="2.4154">
        <ele>104.1</ele>
        <time>2024-07-24T08:15:12Z</time>
      </trkpt>
      <trkpt lat="49.7934" lon="2.4154">
        <ele>104.1</ele>
        <time>2024-07-24T08:15:13Z</time>
      </trkpt>
      <trkpt lat="49.7934" lon="2.4154">
        <ele>104.1</ele>
        <time>2024-07-24T08:15:14Z</time>
      </trkpt>
      <trkpt lat="49.7934" lon="2.4154">
        <ele>104.1</ele>
        <time>2024-07-24T08:15:15Z</time>
      </trkpt>
      <trkpt lat="49.7934" lon="2.4154">
        <ele>104.1</ele>
        <time>2024-07-24T08:15:16Z</time>
      </trkpt>
      <trkpt lat="49.7934" lon="2.4154">
        <ele>104.1</ele>
        <time>2024-07-24T08:15:17Z</time>
      </trkpt>
      <trkpt lat="49.7934" lon="2.4154">
        <ele>104.1</ele>
        <time>2024-07-24T08:15:18Z</time>
      </trkpt>
      <trkpt lat="49.7934" lon="2.4154">
        <ele>104.1</ele>
        <time>2024-07-24T08:15:19Z</time>
      </trkpt>
      <trkpt lat="49.7934" lon="2.4154">
        <ele>104.1</ele>
        <time>2024-07-24T08:15:20Z</time>
      </trkpt>
      <trkpt lat="49.7934" lon="2.4154">
        <ele>104.1</ele>
        <time>2024-07-24T08:15:21Z</time>
      </trkpt>
      <trkpt lat="49.7934" lon="2.4154">
        <ele>104.1</ele>
        <time>2024-07-24T08:15:22Z</time>
      </trkpt>
      <trkpt lat="49.7934" lon="2.4154">
        <ele>104.1</ele>
        <time>2024-07-24T08:15:23Z</time>
      </trkpt>
      <trkpt lat="49.7934" lon="2.4154">
        <ele>104.1</ele>
        <time>2024-07-24T08:15:24Z</time>
      </trkpt>
      <trkpt lat="49.7934" lon="2.4154">
        <ele>104.1</ele>
        <time>2024-07-24T08:15:25Z</time>
      </trkpt>
      <trkpt lat="49.7934" lon="2.4154">
        <ele>104.1</ele>
        <time>2024-07-24T08:15:26Z</time>
      </trkpt>
      <trkpt lat="49.7934" lon="2.4154">
        <ele>104.1</ele>
        <time>2024-07-24T08:15:27Z</time>
      </trkpt>
      <trkpt lat="49.7934" lon="2.4154">
        <ele>104.1</ele>
        <time>2024-07-24T08:15:28Z</time>
      </trkpt>
      <trkpt lat="49.7934" lon="2.4154">
        <ele>104.1</ele>
        <time>2024-07-24T08:15:29Z</time>
      </trkpt>
      <trkpt lat="49.7934" lon="2.4154">
        <ele>104.1</ele>
        <time>2024-07-24T08:15:30Z</time>
      </trkpt>
      <trkpt lat="49.7934" lon="2.4154">
        <ele>104.1</ele>
        <time>2024-07-24T08:15:31Z</time>
      </trkpt>
      <trkpt lat="49.7934" lon="2.4154">
        <ele>104.1</ele>
        <time>2024-07-24T08:15:32Z</time>
      </trkpt>
      <trkpt lat="49.7934" lon="2.4154">
        <ele>104.1</ele>
        <time>2024-07-24T08:15:33Z</time>
      </trkpt>
      <trkpt lat="49.7934" lon="2.4154">
        <ele>104.1</ele>
        <time>2024-07-24T08:15:34Z</time>
      </trkpt>
      <trkpt lat="49.7934" lon="2.4154">
        <ele>104.1</ele>
        <time>2024-07-24T08:15:35Z</time>
      </trkpt>
      <trkpt lat="49.7934" lon="2.4154">
        <ele>104.1</ele>
        <time>2024-07-24T08:15:36Z</time>
      </trkpt>
      <trkpt lat="49.7934" lon="2.4154">
        <ele>104.1</ele>
        <time>2024-07-24T08:15:37Z</time>
      </trkpt>
      <trkpt lat="49.7934" lon="2.4154">
        <ele>104.1</ele>
        <time>2024-07-24T08:15:38Z</time>
      </trkpt>
      <trkpt lat="49.7934" lon="2.4154">
        <ele>104.1</ele>
        <time>2024-07-24T08:15:39Z</time>
      </trkpt>
      <trkpt lat="49.7934" lon="2.4154">
        <ele>104.1</ele>
        <time>2024-07-24T08:15:40Z</time>
      </trkpt>
      <trkpt lat="49.7934" lon="2.4154">
        <ele>104.1</ele>
        <time>2024-07-24T08:15:41Z</time>
      </trkpt>
      <trkpt lat="49.7934" lon="2.4154">
        <ele>104.1</ele>
        <time>2024-07-24T08:15:42Z</time>
      </trkpt>
      <trkpt lat="49.7934" lon="2.4154">
        <ele>104.1</ele>
        <time>2024-07-24T08:15:43Z</time>
      </trkpt>
      <trkpt lat="49.7934" lon="2.4154">
        <ele>104.1</ele>
        <time>2024-07-24T08:15:44Z</time>
      </trkpt>
      <trkpt lat="49.7934" lon="2.4154">
        <ele>104.1</ele>
        <time>2024-07-24T08:15:45Z</time>
      </trkpt>
      <trkpt lat="49.7934" lon="2.4154">
        <ele>104.1</ele>
        <time>2024-07-24T08:15:46Z</time>
      </trkpt>
      <trkpt lat="49.7934" lon="2.4154">
        <ele>104.1</ele>
        <time>2024-07-24T08:15:47Z</time>
      </trkpt>
      <trkpt lat="49.7934" lon="2.4154">
        <ele>104.1</ele>
        <time>2024-07-24T08:15:48Z</time>
      </trkpt>
      <trkpt lat="49.7934" lon="2.4154">
        <ele>104.1</ele>
        <time>2024-07-24T08:15:49Z</time>
      </trkpt>
      <trkpt lat="49.7934" lon="2.4154">
        <ele>104.1</ele>
        <time>2024-07-24T08:15:50Z</time>
      </trkpt>
      <trkpt lat="49.7934" lon="2.4154">
        <ele>104.1</ele>
        <time>2024-07-24T08:15:51Z</time>
      </trkpt>
      <trkpt lat="49.7934" lon="2.4154">
        <ele>104.1</ele>
        <time>2024-07-24T08:15:52Z</time>
      </trkpt>
      <trkpt lat="49.7934" lon="2.4154">
        <ele>104.1</ele>
        <time>2024-07-24T08:15:53Z</time>
      </trkpt>
      <trkpt lat="49.7934" lon="2.4154">
        <ele>104.1</ele>
        <time>2024-07-24T08:15:54Z</time>
      </trkpt>
      <trkpt lat="49.7934" lon="2.4154">
        <ele>104.1</ele>
        <time>2024-07-24T08:15:55Z</time>
      </trkpt>
      <trkpt lat="49.7934" lon="2.4154">
        <ele>104.1</ele>
        <time>2024-07-24T08:15:56Z</time>
      </trkpt>
      <trkpt lat="49.7934" lon="2.4154">
        <ele>104.1</ele>
        <time>2024-07-24T08:15:57Z</time>
      </trkpt>
      <trkpt lat="49.7934" lon="2.4154">
        <ele>104.1</ele>
        <time>2024-07-24T08:15:58Z</time>
      </trkpt>
      <trkpt lat="49.7934" lon="2.4154">
        <ele>104.1</ele>
        <time>2024-07-24T08:15:59Z</time>
      </trkpt>
      <trkpt lat="49.7934" lon="2.4154">
        <ele>104.1</ele>
        <time>2024-07-24T08:16:00Z</time>
      </trkpt>
      <trkpt lat="49.7934" lon="2.4154">
        <ele>104.1</ele>
        <time>2024-07-24T08:16:01Z</time>
      </trkpt>
      <trkpt lat="49.7934" lon="2.4154">
        <ele>104.1</ele>
        <time>2024-07-24T08:16:02Z</time>
      </trkpt>
      <trkpt lat="49.7934" lon="2.4154">
        <ele>104.1</ele>
        <time>2024-07-24T08:16:03Z</time>
      </trkpt>
      <trkpt lat="49.7934" lon="2.4154">
        <ele>104.1</ele>
        <time>2024-07-24T08:16:04Z</time>
      </trkpt>
      <trkpt lat="49.7934" lon="2.4154">
        <ele>104.1</ele>
        <time>2024-07-24T08:16:05Z</time>
      </trkpt>
      <trkpt lat="49.7934" lon="2.4154">
        <ele>104.1</ele>
        <time>2024-07-24T08:16:06Z</time>
      </trkpt>
      <trkpt lat="49.7934" lon="2.4154">
        <ele>104.1</ele>
        <time>2024-07-24T08:16:07Z</time>
      </trkpt>
      <trkpt lat="49.7934" lon="2.4154">
        <ele>104.1</ele>
        <time>2024-07-24T08:16:08Z</time>
      </trkpt>
      <trkpt lat="49.7934" lon="2.4154">
        <ele>104.1</ele>
        <time>2024-07-24T08:16:09Z</time>
      </trkpt>
      <trkpt lat="49.7934" lon="2.4154">
        <ele>104.1</ele>
        <time>2024-07-24T08:16:10Z</time>
      </trkpt>
      <trkpt lat="49.7934" lon="2.4154">
        <ele>104.1</ele>
        <time>2024-07-24T08:16:11Z</time>
      </trkpt>
      <trkpt lat="49.7934" lon="2.4154">
        <ele>104.1</ele>
        <time>2024-07-24T08:16:12Z</time>
      </trkpt>
      <trkpt lat="49.7934" lon="2.4154">
        <ele>104.1</ele>
        <time>2024-07-24T08:16:13Z</time>
      </trkpt>
      <trkpt lat="49.7934" lon="2.4154">
        <ele>104.1</ele>
        <time>2024-07-24T08:16:14Z</time>
      </trkpt>
      <trkpt lat="49.7934" lon="2.4154">
        <ele>104.1</ele>
        <time>2024-07-24T08:16:15Z</time>
      </trkpt>
      <trkpt lat="49.7934" lon="2.4154">
        <ele>104.1</ele>
        <time>2024-07-24T08:16:16Z</time>
      </trkpt>
      <trkpt lat="49.7934" lon="2.4154">
        <ele>104.1</ele>
        <time>2024-07-24T08:16:17Z</time>
      </trkpt>
      <trkpt lat="49.7934" lon="2.4154">
        <ele>104.1</ele>
        <time>2024-07-24T08:16:18Z</time>
      </trkpt>
      <trkpt lat="49.7934" lon="2.4154">
        <ele>104.1</ele>
        <time>2024-07-24T08:16:19Z</time>
      </trkpt>
      <trkpt lat="49.7934" lon="2.4154">
        <ele>104.1</ele>
        <time>2024-07-24T08:16:20Z</time>
      </trkpt>
      <trkpt lat="49.7934" lon="2.4154">
        <ele>104.1</ele>
        <time>2024-07-24T08:16:21Z</time>
      </trkpt>
      <trkpt lat="49.7934" lon="2.4154">
        <ele>104.1</ele>
        <time>2024-07-24T08:16:52Z</time>
      </trkpt>
      <trkpt lat="49.7934" lon="2.4154">
        <ele>104.1</ele>
        <time>2024-07-24T08:16:53Z</time>
      </trkpt>
      <trkpt lat="49.7934" lon="2.4154">
        <ele>104.1</ele>
        <time>2024-07-24T08:16:54Z</time>
      </trkpt>
      <trkpt lat="49.7934" lon="2.4154">
        <ele>104.1</ele>
        <time>2024-07-24T08:16:55Z</time>
      </trkpt>
      <trkpt lat="49.7934" lon="2.4154">
        <ele>104.1</ele>
        <time>2024-07-24T08:16:56Z</time>
      </trkpt>
      <trkpt lat="49.7934" lon="2.4154">
        <ele>104.1</ele>
        <time>2024-07-24T08:16:57Z</time>
      </trkpt>
      <trkpt lat="49.7934" lon="2.4154">
        <ele>104.1</ele>
        <time>2024-07-24T08:16:58Z</time>
      </trkpt>
      <trkpt lat="49.7934" lon="2.4154">
        <ele>104.1</ele>
        <time>2024-07-24T08:16:59Z</time>
      </trkpt>
      <trkpt lat="49.7934" lon="2.4154">
        <ele>104.1</ele>
        <time>2024-07-24T08:17:00Z</time>
      </trkpt>
      <trkpt lat="49.7934" lon="2.4154">
        <ele>104.1</ele>
        <time>2024-07-24T08:17:01Z</time>
      </trkpt>
      <trkpt lat="49.7934" lon="2.4154">
        <ele>104.1</ele>
        <time>2024-07-24T08:17:02Z</time>
      </trkpt>
      <trkpt lat="49.7934" lon="2.4154">
        <ele>104.1</ele>
        <time>2024-07-24T08:17:03Z</time>
      </trkpt>
      <trkpt lat="49.7934" lon="2.4154">
        <ele>104.1</ele>
        <time>2024-07-24T08:17:04Z</time>
      </trkpt>
      <trkpt lat="49.7934" lon="2.4154">
        <ele>104.1</ele>
        <time>2024-07-24T08:17:05Z</time>
      </trkpt>
      <trkpt lat="49.7934" lon="2.4154">
        <ele>104.1</ele>
        <time>2024-07-24T08:17:06Z</time>
      </trkpt>
      <trkpt lat="49.7934" lon="2.4154">
        <ele>104.1</ele>
        <time>2024-07-24T08:17:07Z</time>
      </trkpt>
      <trkpt lat="49.7934" lon="2.4154">
        <ele>104.1</ele>
        <time>2024-07-24T08:17:08Z</time>
      </trkpt>
      <trkpt lat="49.7934" lon="2.4154">
        <ele>104.1</ele>
        <time>2024-07-24T08:17:09Z</time>
      </trkpt>
      <trkpt lat="49.7934" lon="2.4154">
        <ele>104.1</ele>
        <time>2024-07-24T08:17:10Z</time>
      </trkpt>
      <trkpt lat="49.7934" lon="2.4154">
        <ele>104.1</ele>
        <time>2024-07-24T08:17:11Z</time>
      </trkpt>
      <trkpt lat="49.7934" lon="2.4154">
        <ele>104.1</ele>
        <time>2024-07-24T08:17:12Z</time>
      </trkpt>
      <trkpt lat="49.7934" lon="2.4154">
        <ele>104.1</ele>
        <time>2024-07-24T08:17:13Z</time>
      </trkpt>
      <trkpt lat="49.7934" lon="2.4154">
        <ele>104.1</ele>
        <time>2024-07-24T08:17:14Z</time>
      </trkpt>
      <trkpt lat="49.7934" lon="2.4154">
        <ele>104.1</ele>
        <time>2024-07-24T08:17:15Z</time>
      </trkpt>
      <trkpt lat="49.7934" lon="2.4154">
        <ele>104.1</ele>
        <time>2024-07-24T08:17:16Z</time>
      </trkpt>
      <trkpt lat="49.7934" lon="2.4154">
        <ele>104.1</ele>
        <time>2024-07-24T08:17:17Z</time>
      </trkpt>
      <trkpt lat="49.7934" lon="2.4154">
        <ele>104.1</ele>
        <time>2024-07-24T08:17:18Z</time>
      </trkpt>
      <trkpt lat="49.7934" lon="2.4154">
        <ele>104.1</ele>
        <time>2024-07-24T08:17:19Z</time>
      </trkpt>
      <trkpt lat="49.7934" lon="2.4154">
        <ele>104.1</ele>
        <time>2024-07-24T08:17:20Z</time>
      </trkpt>
      <trkpt lat="49.7934" lon="2.4154">
        <ele>104.1</ele>
        <time>2024-07-24T08:17:21Z</time>
      </trkpt>
      <trkpt lat="49.7934" lon="2.4154">
        <ele>104.1</ele>
        <time>2024-07-24T08:17:22Z</time>
      </trkpt>
      <trkpt lat="49.7934" lon="2.4154">
        <ele>104.1</ele>
        <time>2024-07-24T08:17:23Z</time>
      </trkpt>
      <trkpt lat="49.7934" lon="2.4154">
        <ele>104.1</ele>
        <time>2024-07-24T08:17:24Z</time>
      </trkpt>
      <trkpt lat="49.7934" lon="2.4154">
        <ele>104.1</ele>
        <time>2024-07-24T08:17:25Z</time>
      </trkpt>
      <trkpt lat="49.7934" lon="2.4154">
        <ele>104.1</ele>
        <time>2024-07-24T08:17:26Z</time>
      </trkpt>
      <trkpt lat="49.7934" lon="2.4154">
        <ele>104.1</ele>
        <time>2024-07-24T08:17:27Z</time>
      </trkpt>
      <trkpt lat="49.7934" lon="2.4154">
        <ele>104.1</ele>
        <time>2024-07-24T08:17:28Z</time>
      </trkpt>
      <trkpt lat="49.7934" lon="2.4154">
        <ele>104.1</ele>
        <time>2024-07-24T08:17:29Z</time>
      </trkpt>
      <trkpt lat="49.7934" lon="2.4154">
        <ele>104.1</ele>
        <time>2024-07-24T08:17:30Z</time>
      </trkpt>
      <trkpt lat="49.7934" lon="2.4154">
        <ele>104.1</ele>
        <time>2024-07-24T08:17:31Z</time>
      </trkpt>
      <trkpt lat="49.7934" lon="2.4154">
        <ele>104.1</ele>
        <time>2024-07-24T08:17:32Z</time>
      </trkpt>
      <trkpt lat="49.7934" lon="2.4154">
        <ele>104.1</ele>
        <time>2024-07-24T08:17:33Z</time>
      </trkpt>
      <trkpt lat="49.7934" lon="2.4154">
        <ele>104.1</ele>
        <time>2024-07-24T08:17:34Z</time>
      </trkpt>
      <trkpt lat="49.7934" lon="2.4154">
        <ele>104.1</ele>
        <time>2024-07-24T08:17:35Z</time>
      </trkpt>
      <trkpt lat="49.7934" lon="2.4154">
        <ele>104.1</ele>
        <time>2024-07-24T08:17:36Z</time>
      </trkpt>
      <trkpt lat="49.7934" lon="2.4154">
        <ele>104.1</ele>
        <time>2024-07-24T08:17:37Z</time>
      </trkpt>
      <trkpt lat="49.7934" lon="2.4154">
        <ele>104.1</ele>
        <time>2024-07-24T08:17:38Z</time>
      </trkpt>
      <trkpt lat="49.7934" lon="2.4154">
        <ele>104.1</ele>
        <time>2024-07-24T08:17:39Z</time>
      </trkpt>
      <trkpt lat="49.7934" lon="2.4154">
        <ele>104.1</ele>
        <time>2024-07-24T08:17:40Z</time>
      </trkpt>
      <trkpt lat="49.7934" lon="2.4154">
        <ele>104.1</ele>
        <time>2024-07-24T08:17:41Z</time>
      </trkpt>
      <trkpt lat="49.7934" lon="2.4154">
        <ele>104.1</ele>
        <time>2024-07-24T08:17:42Z</time>
      </trkpt>
      <trkpt lat="49.7934" lon="2.4154">
        <ele>104.1</ele>
        <time>2024-07-24T08:17:43Z</time>
      </trkpt>
      <trkpt lat="49.7934" lon="2.4154">
        <ele>104.1</ele>
        <time>2024-07-24T08:17:44Z</time>
      </trkpt>
      <trkpt lat="49.7934" lon="2.4154">
        <ele>104.1</ele>
        <time>2024-07-24T08:17:45Z</time>
      </trkpt>
      <trkpt lat="49.7934" lon="2.4154">
        <ele>104.1</ele>
        <time>2024-07-24T08:17:46Z</time>
      </trkpt>
      <trkpt lat="49.7934" lon="2.4154">
        <ele>104.1</ele>
        <time>2024-07-24T08:17:47Z</time>
      </trkpt>
      <trkpt lat="49.7934" lon="2.4154">
        <ele>104.1</ele>
        <time>2024-07-24T08:17:48Z</time>
      </trkpt>
      <trkpt lat="49.7934" lon="2.4154">
        <ele>104.1</ele>
        <time>2024-07-24T08:17:49Z</time>
      </trkpt>
      <trkpt lat="49.7934" lon="2.4154">
        <ele>104.1</ele>
        <time>2024-07-24T08:17:50Z</time>
      </trkpt>
      <trkpt lat="49.7934" lon="2.4154">
        <ele>104.1</ele>
        <time>2024-07-24T08:17:51Z</time>
      </trkpt>
      <trkpt lat="49.7934" lon="2.4154">
        <ele>104.1</ele>
        <time>2024-07-24T08:17:52Z</time>
      </trkpt>
      <trkpt lat="49.7934" lon="2.4154">
        <ele>104.1</ele>
        <time>2024-07-24T08:17:53Z</time>
      </trkpt>
      <trkpt lat="49.7934" lon="2.4154">
        <ele>104.1</ele>
        <time>2024-07-24T08:17:54Z</time>
      </trkpt>
      <trkpt lat="49.7934" lon="2.4154">
        <ele>104.1</ele>
        <time>2024-07-24T08:17:55Z</time>
      </trkpt>
      <trkpt lat="49.7934" lon="2.4154">
        <ele>104.1</ele>
        <time>2024-07-24T08:17:56Z</time>
      </trkpt>
      <trkpt lat="49.7934" lon="2.4154">
        <ele>104.1</ele>
        <time>2024-07-24T08:17:57Z</time>
      </trkpt>
      <trkpt lat="49.7934" lon="2.4154">
        <ele>104.1</ele>
        <time>2024-07-24T08:17:58Z</time>
      </trkpt>
      <trkpt lat="49.7934" lon="2.4154">
        <ele>104.1</ele>
        <time>2024-07-24T08:17:59Z</time>
      </trkpt>
      <trkpt lat="49.7934" lon="2.4154">
        <ele>104.1</ele>
        <time>2024-07-24T08:18:00Z</time>
      </trkpt>
      <trkpt lat="49.7934" lon="2.4154">
        <ele>104.1</ele>
        <time>2024-07-24T08:18:01Z</time>
      </trkpt>
      <trkpt lat="49.7934" lon="2.4154">
        <ele>104.1</ele>
        <time>2024-07-24T08:18:02Z</time>
      </trkpt>
      <trkpt lat="49.7934" lon="2.4154">
        <ele>104.1</ele>
        <time>2024-07-24T08:18:03Z</time>
      </trkpt>
      <trkpt lat="49.7934" lon="2.4154">
        <ele>104.1</ele>
        <time>2024-07-24T08:18:04Z</time>
      </trkpt>
      <trkpt lat="49.7934" lon="2.4154">
        <ele>104.1</ele>
        <time>2024-07-24T08:18:05Z</time>
      </trkpt>
      <trkpt lat="49.7934" lon="2.4154">
        <ele>104.1</ele>
        <time>2024-07-24T08:18:06Z</time>
      </trkpt>
      <trkpt lat="49.7934" lon="2.4154">
        <ele>104.1</ele>
        <time>2024-07-24T08:18:07Z</time>
      </trkpt>
      <trkpt lat="49.7934" lon="2.4154">
        <ele>104.1</ele>
        <time>2024-07-24T08:18:08Z</time>
      </trkpt>
      <trkpt lat="49.7934" lon="2.4154">
        <ele>104.1</ele>
        <time>2024-07-24T08:18:09Z</time>
      </trkpt>
      <trkpt lat="49.7934" lon="2.4154">
        <ele>104.1</ele>
        <time>2024-07-24T08:18:10Z</time>
      </trkpt>
      <trkpt lat="49.7934" lon="2.4154">
        <ele>104.1</ele>
        <time>2024-07-24T08:18:11Z</time>
      </trkpt>
      <trkpt lat="49.7934" lon="2.4154">
        <ele>104.1</ele>
        <time>2024-07-24T08:18:12Z</time>
      </trkpt>
      <trkpt lat="49.7934" lon="2.4154">
        <ele>104.1</ele>
        <time>2024-07-24T08:18:13Z</time>
      </trkpt>
      <trkpt lat="49.7934" lon="2.4154">
        <ele>104.1</ele>
        <time>2024-07-24T08:18:14Z</time>
      </trkpt>
      <trkpt lat="49.7934" lon="2.4154">
        <ele>104.1</ele>
        <time>2024-07-24T08:18:15Z</time>
      </trkpt>
      <trkpt lat="49.7934" lon="2.4154">
        <ele>104.1</ele>
        <time>2024-07-24T08:18:16Z</time>
      </trkpt>
      <trkpt lat="49.7934" lon="2.4154">
        <ele>104.1</ele>
        <time>2024-07-24T08:18:17Z</time>
      </trkpt>
      <trkpt lat="49.7934" lon="2.4154">
        <ele>104.1</ele>
        <time>2024-07-24T08:18:18Z</time>
      </trkpt>
      <trkpt lat="49.7934" lon="2.4154">
        <ele>104.1</ele>
        <time>2024-07-24T08:18:19Z</time>
      </trkpt>
      <trkpt lat="49.7934" lon="2.4154">
        <ele>104.1</ele>
        <time>2024-07-24T08:18:20Z</time>
      </trkpt>
      <trkpt lat="49.7934" lon="2.4154">
        <ele>104.1</ele>
        <time>2024-07-24T08:18:21Z</time>
      </trkpt>
      <trkpt lat="49.7934" lon="2.4154">
        <ele>104.1</ele>
        <time>2024-07-24T08:18:22Z</time>
      </trkpt>
      <trkpt lat="49.7934" lon="2.4154">
        <ele>104.1</ele>
        <time>2024-07-24T08:18:23Z</time>
      </trkpt>
      <trkpt lat="49.7934" lon="2.4154">
        <ele>104.1</ele>
        <time>2024-07-24T08:18:24Z</time>
      </trkpt>
      <trkpt lat="49.7934" lon="2.4154">
        <ele>104.1</ele>
        <time>2024-07-24T08:18:25Z</time>
      </trkpt>
      <trkpt lat="49.7934" lon="2.4154">
        <ele>104.1</ele>
        <time>2024-07-24T08:18:26Z</time>
      </trkpt>
      <trkpt lat="49.7934" lon="2.4154">
        <ele>104.1</ele>
        <time>2024-07-24T08:18:27Z</time>
      </trkpt>
      <trkpt lat="49.7934" lon="2.4154">
        <ele>104.1</ele>
        <time>2024-07-24T08:18:28Z</time>
      </trkpt>
      <trkpt lat="49.7934" lon="2.4154">
        <ele>104.1</ele>
        <time>2024-07-24T08:18:29Z</time>
      </trkpt>
      <trkpt lat="49.7934" lon="2.4154">
        <ele>104.1</ele>
        <time>2024-07-24T08:18:30Z</time>
      </trkpt>
      <trkpt lat="49.7934" lon="2.4154">
        <ele>104.1</ele>
        <time>2024-07-24T08:18:31Z</time>
      </trkpt>
      <trkpt lat="49.7934" lon="2.4154">
        <ele>104.1</ele>
        <time>2024-07-24T08:18:32Z</time>
      </trkpt>
      <trkpt lat="49.7934" lon="2.4154">
        <ele>104.1</ele>
        <time>2024-07-24T08:18:33Z</time>
      </trkpt>
      <trkpt lat="49.7934" lon="2.4154">
        <ele>104.1</ele>
        <time>2024-07-24T08:18:34Z</time>
      </trkpt>
      <trkpt lat="49.7934" lon="2.4154">
        <ele>104.1</ele>
        <time>2024-07-24T08:18:35Z</time>
      </trkpt>
      <trkpt lat="49.7934" lon="2.4154">
        <ele>104.1</ele>
        <time>2024-07-24T08:18:36Z</time>
      </trkpt>
      <trkpt lat="49.7934" lon="2.4154">
        <ele>104.1</ele>
        <time>2024-07-24T08:18:37Z</time>
      </trkpt>
      <trkpt lat="49.7934" lon="2.4154">
        <ele>104.1</ele>
        <time>2024-07-24T08:18:38Z</time>
      </trkpt>
      <trkpt lat="49.7934" lon="2.4154">
        <ele>104.1</ele>
        <time>2024-07-24T08:18:39Z</time>
      </trkpt>
      <trkpt lat="49.7934" lon="2.4154">
        <ele>104.1</ele>
        <time>2024-07-24T08:18:40Z</time>
      </trkpt>
      <trkpt lat="49.7934" lon="2.4154">
        <ele>104.1</ele>
        <time>2024-07-24T08:18:41Z</time>
      </trkpt>
      <trkpt lat="49.7934" lon="2.4154">
        <ele>104.1</ele>
        <time>2024-07-24T08:18:42Z</time>
      </trkpt>
      <trkpt lat="49.7934" lon="2.4154">
        <ele>104.1</ele>
        <time>2024-07-24T08:18:43Z</time>
      </trkpt>
      <trkpt lat="49.7934" lon="2.4154">
        <ele>104.1</ele>
        <time>2024-07-24T08:18:44Z</time>
      </trkpt>
      <trkpt lat="49.7934" lon="2.4154">
        <ele>104.1</ele>
        <time>2024-07-24T08:18:45Z</time>
      </trkpt>
      <trkpt lat="49.7934" lon="2.4154">
        <ele>104.1</ele>
        <time>2024-07-24T08:18:46Z</time>
      </trkpt>
      <trkpt lat="49.7934" lon="2.4154">
        <ele>104.1</ele>
        <time>2024-07-24T08:18:47Z</time>
      </trkpt>
      <trkpt lat="49.7934" lon="2.4154">
        <ele>104.1</ele>
        <time>2024-07-24T08:18:48Z</time>
      </trkpt>
      <trkpt lat="49.7934" lon="2.4154">
        <ele>104.1</ele>
        <time>2024-07-24T08:18:49Z</time>
      </trkpt>
      <trkpt lat="49.7934" lon="2.4154">
        <ele>104.1</ele>
        <time>2024-07-24T08:18:50Z</time>
      </trkpt>
      <trkpt lat="49.7934" lon="2.4154">
        <ele>104.1</ele>
        <time>2024-07-24T08:18:51Z</time>
      </trkpt>
      <trkpt lat="49.7934" lon="2.4154">
        <ele>104.1</ele>
        <time>2024-07-24T08:18:52Z</time>
      </trkpt>
      <trkpt lat="49.7934" lon="2.4154">
        <ele>104.1</ele>
        <time>2024-07-24T08:18:53Z</time>
      </trkpt>
      <trkpt lat="49.7934" lon="2.4154">
        <ele>104.1</ele>
        <time>2024-07-24T08:18:54Z</time>
      </trkpt>
      <trkpt lat="49.7934" lon="2.4154">
        <ele>104.1</ele>
        <time>2024-07-24T08:18:55Z</time>
      </trkpt>
      <trkpt lat="49.7934" lon="2.4154">
        <ele>104.1</ele>
        <time>2024-07-24T08:18:56Z</time>
      </trkpt>
      <trkpt lat="49.7934" lon="2.4154">
        <ele>104.1</ele>
        <time>2024-07-24T08:18:57Z</time>
      </trkpt>
      <trkpt lat="49.7934" lon="2.4154">
        <ele>104.1</ele>
        <time>2024-07-24T08:18:58Z</time>
      </trkpt>
      <trkpt lat="49.7934" lon="2.4154">
        <ele>104.1</ele>
        <time>2024-07-24T08:18:59Z</time>
      </trkpt>
      <trkpt lat="49.79338" lon="2.4154">
        <ele>104</ele>
        <time>2024-07-24T08:19:00Z</time>
      </trkpt>
      <trkpt lat="49.79338" lon="2.4154">
        <ele>104</ele>
        <time>2024-07-24T08:19:01Z</time>
      </trkpt>
      <trkpt lat="49.79338" lon="2.4154">
        <ele>104</ele>
        <time>2024-07-24T08:19:02Z</time>
      </trkpt>
      <trkpt lat="49.79338" lon="2.4154">
        <ele>104</ele>
        <time>2024-07-24T08:19:03Z</time>
      </trkpt>
      <trkpt lat="49.79338" lon="2.4154">
        <ele>104</ele>
        <time>2024-07-24T08:19:04Z</time>
      </trkpt>
      <trkpt lat="49.79338" lon="2.4154">
        <ele>104</ele>
        <time>2024-07-24T08:19:05Z</time>
      </trkpt>
      <trkpt lat="49.79338" lon="2.4154">
        <ele>104</ele>
        <time>2024-07-24T08:19:06Z</time>
      </trkpt>
      <trkpt lat="49.79338" lon="2.4154">
        <ele>104</ele>
        <time>2024-07-24T08:19:07Z</time>
      </trkpt>
      <trkpt lat="49.79338" lon="2.4154">
        <ele>104</ele>
        <time>2024-07-24T08:19:08Z</time>
      </trkpt>
      <trkpt lat="49.79338" lon="2.4154">
        <ele>104</ele>
        <time>2024-07-24T08:19:09Z</time>
      </trkpt>
      <trkpt lat="49.79338" lon="2.4154">
        <ele>104</ele>
        <time>2024-07-24T08:19:10Z</time>
      </trkpt>
      <trkpt lat="49.79338" lon="2.4154">
        <ele>104</ele>
        <time>2024-07-24T08:19:11Z</time>
      </trkpt>
      <trkpt lat="49.79338" lon="2.4154">
        <ele>104</ele>
        <time>2024-07-24T08:19:12Z</time>
      </trkpt>
      <trkpt lat="49.79338" lon="2.4154">
        <ele>104</ele>
        <time>2024-07-24T08:19:13Z</time>
      </trkpt>
      <trkpt lat="49.79338" lon="2.4154">
        <ele>104</ele>
        <time>2024-07-24T08:19:14Z</time>
      </trkpt>
      <trkpt lat="49.79338" lon="2.4154">
        <ele>104</ele>
        <time>2024-07-24T08:19:15Z</time>
      </trkpt>
      <trkpt lat="49.79338" lon="2.4154">
        <ele>104</ele>
        <time>2024-07-24T08:19:16Z</time>
      </trkpt>
      <trkpt lat="49.79338" lon="2.4154">
        <ele>104</ele>
        <time>2024-07-24T08:19:17Z</time>
      </trkpt>
      <trkpt lat="49.79338" lon="2.4154">
        <ele>104</ele>
        <time>2024-07-24T08:19:18Z</time>
      </trkpt>
      <trkpt lat="49.79338" lon="2.4154">
        <ele>104</ele>
        <time>2024-07-24T08:19:19Z</time>
      </trkpt>
      <trkpt lat="49.79338" lon="2.4154">
        <ele>104</ele>
        <time>2024-07-24T08:19:20Z</time>
      </trkpt>
      <trkpt lat="49.79338" lon="2.4154">
        <ele>104</ele>
        <time>2024-07-24T08:19:21Z</time>
      </trkpt>
      <trkpt lat="49.79338" lon="2.4154">
        <ele>104</ele>
        <time>2024-07-24T08:19:22Z</time>
      </trkpt>
      <trkpt lat="49.79338" lon="2.4154">
        <ele>104</ele>
        <time>2024-07-24T08:19:23Z</time>
      </trkpt>
      <trkpt lat="49.79338" lon="2.4154">
        <ele>104</ele>
        <time>2024-07-24T08:19:24Z</time>
      </trkpt>
      <trkpt lat="49.79338" lon="2.4154">
        <ele>104</ele>
        <time>2024-07-24T08:19:25Z</time>
      </trkpt>
      <trkpt lat="49.79338" lon="2.4154">
        <ele>104</ele>
        <time>2024-07-24T08:19:26Z</time>
      </trkpt>
      <trkpt lat="49.79338" lon="2.4154">
        <ele>104</ele>
        <time>2024-07-24T08:19:27Z</time>
      </trkpt>
      <trkpt lat="49.79338" lon="2.4154">
        <ele>104</ele>
        <time>2024-07-24T08:19:28Z</time>
      </trkpt>
      <trkpt lat="49.79338" lon="2.4154">
        <ele>104</ele>
        <time>2024-07-24T08:19:29Z</time>
      </trkpt>
      <trkpt lat="49.79338" lon="2.4154">
        <ele>104</ele>
        <time>2024-07-24T08:19:30Z</time>
      </trkpt>
      <trkpt lat="49.79338" lon="2.4154">
        <ele>104</ele>
        <time>2024-07-24T08:19:31Z</time>
      </trkpt>
      <trkpt lat="49.79338" lon="2.4154">
        <ele>104</ele>
        <time>2024-07-24T08:19:32Z</time>
      </trkpt>
      <trkpt lat="49.79338" lon="2.4154">
        <ele>104</ele>
        <time>2024-07-24T08:19:33Z</time>
      </trkpt>
      <trkpt lat="49.79338" lon="2.4154">
        <ele>104</ele>
        <time>2024-07-24T08:19:34Z</time>
      </trkpt>
      <trkpt lat="49.79338" lon="2.4154">
        <ele>104</ele>
        <time>2024-07-24T08:19:35Z</time>
      </trkpt>
      <trkpt lat="49.79338" lon="2.4154">
        <ele>104</ele>
        <time>2024-07-24T08:19:36Z</time>
      </trkpt>
      <trkpt lat="49.79338" lon="2.4154">
        <ele>104</ele>
        <time>2024-07-24T08:19:37Z</time>
      </trkpt>
      <trkpt lat="49.79338" lon="2.4154">
        <ele>104</ele>
        <time>2024-07-24T08:19:38Z</time>
      </trkpt>
      <trkpt lat="49.79338" lon="2.4154">
        <ele>104</ele>
        <time>2024-07-24T08:19:39Z</time>
      </trkpt>
      <trkpt lat="49.79338" lon="2.4154">
        <ele>104</ele>
        <time>2024-07-24T08:19:40Z</time>
      </trkpt>
      <trkpt lat="49.79338" lon="2.4154">
        <ele>104</ele>
        <time>2024-07-24T08:19:41Z</time>
      </trkpt>
      <trkpt lat="49.79338" lon="2.4154">
        <ele>104</ele>
        <time>2024-07-24T08:19:42Z</time>
      </trkpt>
      <trkpt lat="49.79338" lon="2.4154">
        <ele>104</ele>
        <time>2024-07-24T08:19:43Z</time>
      </trkpt>
      <trkpt lat="49.79338" lon="2.4154">
        <ele>104</ele>
        <time>2024-07-24T08:19:44Z</time>
      </trkpt>
      <trkpt lat="49.79338" lon="2.4154">
        <ele>104</ele>
        <time>2024-07-24T08:19:45Z</time>
      </trkpt>
      <trkpt lat="49.79338" lon="2.4154">
        <ele>104</ele>
        <time>2024-07-24T08:19:46Z</time>
      </trkpt>
      <trkpt lat="49.79338" lon="2.4154">
        <ele>104</ele>
        <time>2024-07-24T08:19:47Z</time>
      </trkpt>
      <trkpt lat="49.79338" lon="2.4154">
        <ele>104</ele>
        <time>2024-07-24T08:19:48Z</time>
      </trkpt>
      <trkpt lat="49.79338" lon="2.4154">
        <ele>104</ele>
        <time>2024-07-24T08:19:49Z</time>
      </trkpt>
      <trkpt lat="49.79338" lon="2.4154">
        <ele>104</ele>
        <time>2024-07-24T08:19:50Z</time>
      </trkpt>
      <trkpt lat="49.79338" lon="2.4154">
        <ele>104</ele>
        <time>2024-07-24T08:19:51Z</time>
      </trkpt>
      <trkpt lat="49.79338" lon="2.4154">
        <ele>104</ele>
        <time>2024-07-24T08:19:52Z</time>
      </trkpt>
      <trkpt lat="49.79338" lon="2.4154">
        <ele>104</ele>
        <time>2024-07-24T08:19:53Z</time>
      </trkpt>
      <trkpt lat="49.79338" lon="2.4154">
        <ele>104</ele>
        <time>2024-07-24T08:19:54Z</time>
      </trkpt>
      <trkpt lat="49.79338" lon="2.4154">
        <ele>104</ele>
        <time>2024-07-24T08:19:55Z</time>
      </trkpt>
      <trkpt lat="49.79338" lon="2.4154">
        <ele>104</ele>
        <time>2024-07-24T08:19:56Z</time>
      </trkpt>
      <trkpt lat="49.79338" lon="2.4154">
        <ele>104</ele>
        <time>2024-07-24T08:19:57Z</time>
      </trkpt>
      <trkpt lat="49.79338" lon="2.4154">
        <ele>104</ele>
        <time>2024-07-24T08:19:58Z</time>
      </trkpt>
      <trkpt lat="49.79338" lon="2.4154">
        <ele>104</ele>
        <time>2024-07-24T08:19:59Z</time>
      </trkpt>
      <trkpt lat="49.79338" lon="2.4154">
        <ele>104</ele>
        <time>2024-07-24T08:20:00Z</time>
      </trkpt>
      <trkpt lat="49.79338" lon="2.4154">
        <ele>104</ele>
        <time>2024-07-24T08:20:01Z</time>
      </trkpt>
      <trkpt lat="49.79338" lon="2.4154">
        <ele>104</ele>
        <time>2024-07-24T08:20:02Z</time>
      </trkpt>
      <trkpt lat="49.79338" lon="2.4154">
        <ele>104</ele>
        <time>2024-07-24T08:20:03Z</time>
      </trkpt>
      <trkpt lat="49.79338" lon="2.4154">
        <ele>104</ele>
        <time>2024-07-24T08:20:04Z</time>
      </trkpt>
      <trkpt lat="49.79338" lon="2.4154">
        <ele>104</ele>
        <time>2024-07-24T08:20:05Z</time>
      </trkpt>
      <trkpt lat="49.79338" lon="2.4154">
        <ele>104</ele>
        <time>2024-07-24T08:20:06Z</time>
      </trkpt>
      <trkpt lat="49.79338" lon="2.4154">
        <ele>104</ele>
        <time>2024-07-24T08:20:07Z</time>
      </trkpt>
      <trkpt lat="49.79338" lon="2.4154">
        <ele>104</ele>
        <time>2024-07-24T08:20:08Z</time>
      </trkpt>
      <trkpt lat="49.79338" lon="2.4154">
        <ele>104</ele>
        <time>2024-07-24T08:20:09Z</time>
      </trkpt>
      <trkpt lat="49.79338" lon="2.4154">
        <ele>104</ele>
        <time>2024-07-24T08:20:10Z</time>
      </trkpt>
      <trkpt lat="49.79338" lon="2.4154">
        <ele>104</ele>
        <time>2024-07-24T08:20:11Z</time>
      </trkpt>
      <trkpt lat="49.79338" lon="2.4154">
        <ele>104</ele>
        <time>2024-07-24T08:20:12Z</time>
      </trkpt>
      <trkpt lat="49.79338" lon="2.4154">
        <ele>104</ele>
        <time>2024-07-24T08:20:13Z</time>
      </trkpt>
      <trkpt lat="49.79338" lon="2.4154">
        <ele>104</ele>
        <time>2024-07-24T08:20:14Z</time>
      </trkpt>
      <trkpt lat="49.79338" lon="2.4154">
        <ele>104</ele>
        <time>2024-07-24T08:20:15Z</time>
      </trkpt>
      <trkpt lat="49.79338" lon="2.4154">
        <ele>104</ele>
        <time>2024-07-24T08:20:16Z</time>
      </trkpt>
      <trkpt lat="49.79338" lon="2.4154">
        <ele>104</ele>
        <time>2024-07-24T08:20:17Z</time>
      </trkpt>
      <trkpt lat="49.79338" lon="2.4154">
        <ele>104</ele>
        <time>2024-07-24T08:20:18Z</time>
      </trkpt>
      <trkpt lat="49.79338" lon="2.4154">
        <ele>104</ele>
        <time>2024-07-24T08:20:19Z</time>
      </trkpt>
      <trkpt lat="49.79338" lon="2.4154">
        <ele>104</ele>
        <time>2024-07-24T08:20:20Z</time>
      </trkpt>
      <trkpt lat="49.79338" lon="2.4154">
        <ele>104</ele>
        <time>2024-07-24T08:20:21Z</time>
      </trkpt>
      <trkpt lat="49.79338" lon="2.4154">
        <ele>104</ele>
        <time>2024-07-24T08:20:22Z</time>
      </trkpt>
      <trkpt lat="49.79338" lon="2.4154">
        <ele>104</ele>
        <time>2024-07-24T08:20:23Z</time>
      </trkpt>
      <trkpt lat="49.79338" lon="2.4154">
        <ele>104</ele>
        <time>2024-07-24T08:20:24Z</time>
      </trkpt>
      <trkpt lat="49.79338" lon="2.4154">
        <ele>104</ele>
        <time>2024-07-24T08:20:25Z</time>
      </trkpt>
      <trkpt lat="49.79338" lon="2.4154">
        <ele>104</ele>
        <time>2024-07-24T08:20:26Z</time>
      </trkpt>
      <trkpt lat="49.79338" lon="2.4154">
        <ele>104</ele>
        <time>2024-07-24T08:20:27Z</time>
      </trkpt>
      <trkpt lat="49.79338" lon="2.4154">
        <ele>104</ele>
        <time>2024-07-24T08:20:28Z</time>
      </trkpt>
      <trkpt lat="49.79338" lon="2.4154">
        <ele>104</ele>
        <time>2024-07-24T08:20:29Z</time>
      </trkpt>
      <trkpt lat="49.79338" lon="2.4154">
        <ele>104</ele>
        <time>2024-07-24T08:20:30Z</time>
      </trkpt>
      <trkpt lat="49.79338" lon="2.4154">
        <ele>104</ele>
        <time>2024-07-24T08:20:32Z</time>
      </trkpt>
      <trkpt lat="49.79338" lon="2.4154">
        <ele>104</ele>
        <time>2024-07-24T08:20:33Z</time>
      </trkpt>
      <trkpt lat="49.79338" lon="2.4154">
        <ele>104</ele>
        <time>2024-07-24T08:20:34Z</time>
      </trkpt>
      <trkpt lat="49.79338" lon="2.4154">
        <ele>104</ele>
        <time>2024-07-24T08:20:35Z</time>
      </trkpt>
      <trkpt lat="49.79338" lon="2.4154">
        <ele>104</ele>
        <time>2024-07-24T08:20:36Z</time>
      </trkpt>
      <trkpt lat="49.79338" lon="2.4154">
        <ele>104</ele>
        <time>2024-07-24T08:20:37Z</time>
      </trkpt>
      <trkpt lat="49.79338" lon="2.4154">
        <ele>104</ele>
        <time>2024-07-24T08:20:38Z</time>
      </trkpt>
      <trkpt lat="49.79338" lon="2.4154">
        <ele>104</ele>
        <time>2024-07-24T08:20:39Z</time>
      </trkpt>
      <trkpt lat="49.79338" lon="2.4154">
        <ele>104</ele>
        <time>2024-07-24T08:20:40Z</time>
      </trkpt>
      <trkpt lat="49.79338" lon="2.4154">
        <ele>104</ele>
        <time>2024-07-24T08:20:41Z</time>
      </trkpt>
      <trkpt lat="49.79338" lon="2.4154">
        <ele>104</ele>
        <time>2024-07-24T08:20:42Z</time>
      </trkpt>
      <trkpt lat="49.79338" lon="2.4154">
        <ele>104</ele>
        <time>2024-07-24T08:20:43Z</time>
      </trkpt>
      <trkpt lat="49.79338" lon="2.4154">
        <ele>104</ele>
        <time>2024-07-24T08:20:44Z</time>
      </trkpt>
      <trkpt lat="49.79338" lon="2.4154">
        <ele>104</ele>
        <time>2024-07-24T08:20:45Z</time>
      </trkpt>
      <trkpt lat="49.79338" lon="2.4154">
        <ele>104</ele>
        <time>2024-07-24T08:20:46Z</time>
      </trkpt>
      <trkpt lat="49.79338" lon="2.4154">
        <ele>104</ele>
        <time>2024-07-24T08:20:47Z</time>
      </trkpt>
      <trkpt lat="49.79338" lon="2.4154">
        <ele>104</ele>
        <time>2024-07-24T08:20:48Z</time>
      </trkpt>
      <trkpt lat="49.79338" lon="2.4154">
        <ele>104</ele>
        <time>2024-07-24T08:20:49Z</time>
      </trkpt>
      <trkpt lat="49.79338" lon="2.4154">
        <ele>104</ele>
        <time>2024-07-24T08:20:50Z</time>
      </trkpt>
      <trkpt lat="49.79338" lon="2.4154">
        <ele>104</ele>
        <time>2024-07-24T08:20:51Z</time>
      </trkpt>
      <trkpt lat="49.79338" lon="2.4154">
        <ele>104</ele>
        <time>2024-07-24T08:20:52Z</time>
      </trkpt>
      <trkpt lat="49.79338" lon="2.4154">
        <ele>104</ele>
        <time>2024-07-24T08:20:53Z</time>
      </trkpt>
      <trkpt lat="49.79338" lon="2.4154">
        <ele>104</ele>
        <time>2024-07-24T08:20:54Z</time>
      </trkpt>
      <trkpt lat="49.79338" lon="2.4154">
        <ele>104</ele>
        <time>2024-07-24T08:20:55Z</time>
      </trkpt>
      <trkpt lat="49.79338" lon="2.4154">
        <ele>104</ele>
        <time>2024-07-24T08:20:56Z</time>
      </trkpt>
      <trkpt lat="49.79338" lon="2.4154">
        <ele>104</ele>
        <time>2024-07-24T08:20:57Z</time>
      </trkpt>
      <trkpt lat="49.79338" lon="2.4154">
        <ele>104</ele>
        <time>2024-07-24T08:20:58Z</time>
      </trkpt>
      <trkpt lat="49.79338" lon="2.4154">
        <ele>104</ele>
        <time>2024-07-24T08:20:59Z</time>
      </trkpt>
      <trkpt lat="49.79338" lon="2.4154">
        <ele>104</ele>
        <time>2024-07-24T08:21:00Z</time>
      </trkpt>
      <trkpt lat="49.79338" lon="2.4154">
        <ele>104</ele>
        <time>2024-07-24T08:21:01Z</time>
      </trkpt>
      <trkpt lat="49.79338" lon="2.4154">
        <ele>104</ele>
        <time>2024-07-24T08:21:02Z</time>
      </trkpt>
      <trkpt lat="49.79338" lon="2.4154">
        <ele>104</ele>
        <time>2024-07-24T08:21:03Z</time>
      </trkpt>
      <trkpt lat="49.79338" lon="2.4154">
        <ele>104</ele>
        <time>2024-07-24T08:21:04Z</time>
      </trkpt>
      <trkpt lat="49.79338" lon="2.4154">
        <ele>104</ele>
        <time>2024-07-24T08:21:05Z</time>
      </trkpt>
      <trkpt lat="49.79338" lon="2.4154">
        <ele>104</ele>
        <time>2024-07-24T08:21:06Z</time>
      </trkpt>
      <trkpt lat="49.79338" lon="2.4154">
        <ele>104</ele>
        <time>2024-07-24T08:21:07Z</time>
      </trkpt>
      <trkpt lat="49.79338" lon="2.4154">
        <ele>104</ele>
        <time>2024-07-24T08:21:08Z</time>
      </trkpt>
      <trkpt lat="49.79338" lon="2.4154">
        <ele>104</ele>
        <time>2024-07-24T08:21:09Z</time>
      </trkpt>
      <trkpt lat="49.79338" lon="2.4154">
        <ele>104</ele>
        <time>2024-07-24T08:21:10Z</time>
      </trkpt>
      <trkpt lat="49.79338" lon="2.4154">
        <ele>104</ele>
        <time>2024-07-24T08:21:11Z</time>
      </trkpt>
      <trkpt lat="49.79338" lon="2.4154">
        <ele>104</ele>
        <time>2024-07-24T08:21:12Z</time>
      </trkpt>
      <trkpt lat="49.79338" lon="2.4154">
        <ele>104</ele>
        <time>2024-07-24T08:21:13Z</time>
      </trkpt>
      <trkpt lat="49.79338" lon="2.4154">
        <ele>104</ele>
        <time>2024-07-24T08:21:14Z</time>
      </trkpt>
      <trkpt lat="49.79338" lon="2.4154">
        <ele>104</ele>
        <time>2024-07-24T08:21:15Z</time>
      </trkpt>
      <trkpt lat="49.79338" lon="2.4154">
        <ele>104</ele>
        <time>2024-07-24T08:21:16Z</time>
      </trkpt>
      <trkpt lat="49.79338" lon="2.4154">
        <ele>104</ele>
        <time>2024-07-24T08:21:17Z</time>
      </trkpt>
      <trkpt lat="49.79338" lon="2.4154">
        <ele>104</ele>
        <time>2024-07-24T08:21:18Z</time>
      </trkpt>
      <trkpt lat="49.79338" lon="2.4154">
        <ele>104</ele>
        <time>2024-07-24T08:21:19Z</time>
      </trkpt>
      <trkpt lat="49.79338" lon="2.4154">
        <ele>104</ele>
        <time>2024-07-24T08:21:20Z</time>
      </trkpt>
      <trkpt lat="49.79338" lon="2.4154">
        <ele>104</ele>
        <time>2024-07-24T08:21:21Z</time>
      </trkpt>
      <trkpt lat="49.79338" lon="2.4154">
        <ele>104</ele>
        <time>2024-07-24T08:21:22Z</time>
      </trkpt>
      <trkpt lat="49.79338" lon="2.4154">
        <ele>104</ele>
        <time>2024-07-24T08:21:23Z</time>
      </trkpt>
      <trkpt lat="49.79338" lon="2.4154">
        <ele>104</ele>
        <time>2024-07-24T08:21:24Z</time>
      </trkpt>
      <trkpt lat="49.79338" lon="2.4154">
        <ele>104</ele>
        <time>2024-07-24T08:21:25Z</time>
      </trkpt>
      <trkpt lat="49.79338" lon="2.4154">
        <ele>104</ele>
        <time>2024-07-24T08:21:26Z</time>
      </trkpt>
      <trkpt lat="49.79338" lon="2.4154">
        <ele>104</ele>
        <time>2024-07-24T08:21:27Z</time>
      </trkpt>
      <trkpt lat="49.79338" lon="2.4154">
        <ele>104</ele>
        <time>2024-07-24T08:21:28Z</time>
      </trkpt>
      <trkpt lat="49.79338" lon="2.4154">
        <ele>104</ele>
        <time>2024-07-24T08:21:29Z</time>
      </trkpt>
      <trkpt lat="49.79338" lon="2.4154">
        <ele>104</ele>
        <time>2024-07-24T08:21:30Z</time>
      </trkpt>
      <trkpt lat="49.79338" lon="2.4154">
        <ele>104</ele>
        <time>2024-07-24T08:21:31Z</time>
      </trkpt>
      <trkpt lat="49.79338" lon="2.4154">
        <ele>104</ele>
        <time>2024-07-24T08:21:32Z</time>
      </trkpt>
      <trkpt lat="49.79338" lon="2.4154">
        <ele>104</ele>
        <time>2024-07-24T08:21:33Z</time>
      </trkpt>
      <trkpt lat="49.79338" lon="2.4154">
        <ele>104</ele>
        <time>2024-07-24T08:21:34Z</time>
      </trkpt>
      <trkpt lat="49.79338" lon="2.4154">
        <ele>104</ele>
        <time>2024-07-24T08:21:35Z</time>
      </trkpt>
      <trkpt lat="49.79338" lon="2.4154">
        <ele>104</ele>
        <time>2024-07-24T08:21:36Z</time>
      </trkpt>
      <trkpt lat="49.79338" lon="2.4154">
        <ele>104</ele>
        <time>2024-07-24T08:21:37Z</time>
      </trkpt>
      <trkpt lat="49.79338" lon="2.4154">
        <ele>104</ele>
        <time>2024-07-24T08:21:38Z</time>
      </trkpt>
      <trkpt lat="49.79338" lon="2.4154">
        <ele>104</ele>
        <time>2024-07-24T08:21:39Z</time>
      </trkpt>
      <trkpt lat="49.79338" lon="2.4154">
        <ele>104</ele>
        <time>2024-07-24T08:21:40Z</time>
      </trkpt>
      <trkpt lat="49.79338" lon="2.4154">
        <ele>104</ele>
        <time>2024-07-24T08:21:41Z</time>
      </trkpt>
      <trkpt lat="49.79338" lon="2.4154">
        <ele>104</ele>
        <time>2024-07-24T08:21:42Z</time>
      </trkpt>
      <trkpt lat="49.79338" lon="2.4154">
        <ele>104</ele>
        <time>2024-07-24T08:21:43Z</time>
      </trkpt>
      <trkpt lat="49.79338" lon="2.4154">
        <ele>104</ele>
        <time>2024-07-24T08:21:44Z</time>
      </trkpt>
      <trkpt lat="49.79338" lon="2.4154">
        <ele>104</ele>
        <time>2024-07-24T08:21:45Z</time>
      </trkpt>
      <trkpt lat="49.79338" lon="2.4154">
        <ele>104</ele>
        <time>2024-07-24T08:21:46Z</time>
      </trkpt>
      <trkpt lat="49.79338" lon="2.4154">
        <ele>104</ele>
        <time>2024-07-24T08:21:47Z</time>
      </trkpt>
      <trkpt lat="49.79338" lon="2.4154">
        <ele>104</ele>
        <time>2024-07-24T08:21:48Z</time>
      </trkpt>
      <trkpt lat="49.79338" lon="2.4154">
        <ele>104</ele>
        <time>2024-07-24T08:21:49Z</time>
      </trkpt>
      <trkpt lat="49.79338" lon="2.4154">
        <ele>104</ele>
        <time>2024-07-24T08:21:50Z</time>
      </trkpt>
      <trkpt lat="49.79338" lon="2.4154">
        <ele>104</ele>
        <time>2024-07-24T08:21:51Z</time>
      </trkpt>
      <trkpt lat="49.79338" lon="2.4154">
        <ele>104</ele>
        <time>2024-07-24T08:21:52Z</time>
      </trkpt>
      <trkpt lat="49.79338" lon="2.4154">
        <ele>104</ele>
        <time>2024-07-24T08:21:53Z</time>
      </trkpt>
      <trkpt lat="49.79338" lon="2.4154">
        <ele>104</ele>
        <time>2024-07-24T08:21:54Z</time>
      </trkpt>
      <trkpt lat="49.79338" lon="2.4154">
        <ele>104</ele>
        <time>2024-07-24T08:21:55Z</time>
      </trkpt>
      <trkpt lat="49.79338" lon="2.4154">
        <ele>104</ele>
        <time>2024-07-24T08:21:56Z</time>
      </trkpt>
      <trkpt lat="49.79338" lon="2.4154">
        <ele>104</ele>
        <time>2024-07-24T08:21:57Z</time>
      </trkpt>
      <trkpt lat="49.79338" lon="2.4154">
        <ele>104</ele>
        <time>2024-07-24T08:21:58Z</time>
      </trkpt>
      <trkpt lat="49.79338" lon="2.4154">
        <ele>104</ele>
        <time>2024-07-24T08:21:59Z</time>
      </trkpt>
      <trkpt lat="49.79338" lon="2.4154">
        <ele>104</ele>
        <time>2024-07-24T08:22:00Z</time>
      </trkpt>
      <trkpt lat="49.79338" lon="2.4154">
        <ele>104</ele>
        <time>2024-07-24T08:22:01Z</time>
      </trkpt>
      <trkpt lat="49.79338" lon="2.4154">
        <ele>104</ele>
        <time>2024-07-24T08:22:02Z</time>
      </trkpt>
      <trkpt lat="49.79338" lon="2.4154">
        <ele>104</ele>
        <time>2024-07-24T08:22:03Z</time>
      </trkpt>
      <trkpt lat="49.79338" lon="2.4154">
        <ele>104</ele>
        <time>2024-07-24T08:22:04Z</time>
      </trkpt>
      <trkpt lat="49.79338" lon="2.4154">
        <ele>104</ele>
        <time>2024-07-24T08:22:05Z</time>
      </trkpt>
      <trkpt lat="49.79338" lon="2.4154">
        <ele>104</ele>
        <time>2024-07-24T08:22:06Z</time>
      </trkpt>
      <trkpt lat="49.79338" lon="2.4154">
        <ele>104</ele>
        <time>2024-07-24T08:22:07Z</time>
      </trkpt>
      <trkpt lat="49.79338" lon="2.4154">
        <ele>104</ele>
        <time>2024-07-24T08:22:08Z</time>
      </trkpt>
      <trkpt lat="49.79338" lon="2.4154">
        <ele>104</ele>
        <time>2024-07-24T08:22:09Z</time>
      </trkpt>
      <trkpt lat="49.79338" lon="2.4154">
        <ele>104</ele>
        <time>2024-07-24T08:22:10Z</time>
      </trkpt>
      <trkpt lat="49.79338" lon="2.4154">
        <ele>104</ele>
        <time>2024-07-24T08:22:11Z</time>
      </trkpt>
      <trkpt lat="49.79338" lon="2.4154">
        <ele>104</ele>
        <time>2024-07-24T08:22:12Z</time>
      </trkpt>
      <trkpt lat="49.79338" lon="2.4154">
        <ele>104</ele>
        <time>2024-07-24T08:22:13Z</time>
      </trkpt>
      <trkpt lat="49.79338" lon="2.4154">
        <ele>104</ele>
        <time>2024-07-24T08:22:14Z</time>
      </trkpt>
      <trkpt lat="49.79338" lon="2.4154">
        <ele>104</ele>
        <time>2024-07-24T08:22:15Z</time>
      </trkpt>
      <trkpt lat="49.79338" lon="2.4154">
        <ele>104</ele>
        <time>2024-07-24T08:22:16Z</time>
      </trkpt>
      <trkpt lat="49.79338" lon="2.4154">
        <ele>104</ele>
        <time>2024-07-24T08:22:17Z</time>
      </trkpt>
      <trkpt lat="49.79338" lon="2.4154">
        <ele>104</ele>
        <time>2024-07-24T08:22:18Z</time>
      </trkpt>
      <trkpt lat="49.79338" lon="2.4154">
        <ele>104</ele>
        <time>2024-07-24T08:22:19Z</time>
      </trkpt>
      <trkpt lat="49.79338" lon="2.4154">
        <ele>104</ele>
        <time>2024-07-24T08:22:20Z</time>
      </trkpt>
      <trkpt lat="49.79338" lon="2.4154">
        <ele>104</ele>
        <time>2024-07-24T08:22:21Z</time>
      </trkpt>
      <trkpt lat="49.79338" lon="2.4154">
        <ele>104</ele>
        <time>2024-07-24T08:22:22Z</time>
      </trkpt>
      <trkpt lat="49.79338" lon="2.4154">
        <ele>104</ele>
        <time>2024-07-24T08:22:23Z</time>
      </trkpt>
      <trkpt lat="49.79338" lon="2.4154">
        <ele>104</ele>
        <time>2024-07-24T08:22:24Z</time>
      </trkpt>
      <trkpt lat="49.79338" lon="2.4154">
        <ele>104</ele>
        <time>2024-07-24T08:22:25Z</time>
      </trkpt>
      <trkpt lat="49.79338" lon="2.4154">
        <ele>104</ele>
        <time>2024-07-24T08:22:26Z</time>
      </trkpt>
      <trkpt lat="49.79338" lon="2.4154">
        <ele>104</ele>
        <time>2024-07-24T08:22:27Z</time>
      </trkpt>
      <trkpt lat="49.79338" lon="2.4154">
        <ele>104</ele>
        <time>2024-07-24T08:22:28Z</time>
      </trkpt>
      <trkpt lat="49.79338" lon="2.4154">
        <ele>104</ele>
        <time>2024-07-24T08:22:29Z</time>
      </trkpt>
      <trkpt lat="49.79338" lon="2.4154">
        <ele>104</ele>
        <time>2024-07-24T08:22:30Z</time>
      </trkpt>
      <trkpt lat="49.79338" lon="2.4154">
        <ele>104</ele>
        <time>2024-07-24T08:22:31Z</time>
      </trkpt>
      <trkpt lat="49.79338" lon="2.4154">
        <ele>104</ele>
        <time>2024-07-24T08:22:32Z</time>
      </trkpt>
      <trkpt lat="49.79338" lon="2.4154">
        <ele>104</ele>
        <time>2024-07-24T08:22:33Z</time>
      </trkpt>
      <trkpt lat="49.79338" lon="2.4154">
        <ele>104</ele>
        <time>2024-07-24T08:22:34Z</time>
      </trkpt>
      <trkpt lat="49.79338" lon="2.4154">
        <ele>104</ele>
        <time>2024-07-24T08:22:35Z</time>
      </trkpt>
      <trkpt lat="49.79338" lon="2.4154">
        <ele>104</ele>
        <time>2024-07-24T08:22:36Z</time>
      </trkpt>
      <trkpt lat="49.79338" lon="2.4154">
        <ele>104</ele>
        <time>2024-07-24T08:22:37Z</time>
      </trkpt>
      <trkpt lat="49.79338" lon="2.4154">
        <ele>104</ele>
        <time>2024-07-24T08:22:38Z</time>
      </trkpt>
      <trkpt lat="49.79338" lon="2.4154">
        <ele>104</ele>
        <time>2024-07-24T08:22:39Z</time>
      </trkpt>
      <trkpt lat="49.79338" lon="2.4154">
        <ele>104</ele>
        <time>2024-07-24T08:22:40Z</time>
      </trkpt>
      <trkpt lat="49.79338" lon="2.4154">
        <ele>104</ele>
        <time>2024-07-24T08:22:41Z</time>
      </trkpt>
      <trkpt lat="49.79338" lon="2.4154">
        <ele>104</ele>
        <time>2024-07-24T08:22:42Z</time>
      </trkpt>
      <trkpt lat="49.79338" lon="2.4154">
        <ele>104</ele>
        <time>2024-07-24T08:22:43Z</time>
      </trkpt>
      <trkpt lat="49.79338" lon="2.4154">
        <ele>104</ele>
        <time>2024-07-24T08:22:44Z</time>
      </trkpt>
      <trkpt lat="49.79338" lon="2.4154">
        <ele>104</ele>
        <time>2024-07-24T08:22:45Z</time>
      </trkpt>
      <trkpt lat="49.79338" lon="2.4154">
        <ele>104</ele>
        <time>2024-07-24T08:22:46Z</time>
      </trkpt>
      <trkpt lat="49.79338" lon="2.4154">
        <ele>104</ele>
        <time>2024-07-24T08:22:47Z</time>
      </trkpt>
      <trkpt lat="49.79338" lon="2.4154">
        <ele>104</ele>
        <time>2024-07-24T08:22:48Z</time>
      </trkpt>
      <trkpt lat="49.79338" lon="2.4154">
        <ele>104</ele>
        <time>2024-07-24T08:22:49Z</time>
      </trkpt>
      <trkpt lat="49.79338" lon="2.4154">
        <ele>104</ele>
        <time>2024-07-24T08:22:50Z</time>
      </trkpt>
      <trkpt lat="49.79338" lon="2.4154">
        <ele>104</ele>
        <time>2024-07-24T08:22:51Z</time>
      </trkpt>
      <trkpt lat="49.79338" lon="2.4154">
        <ele>104</ele>
        <time>2024-07-24T08:22:52Z</time>
      </trkpt>
      <trkpt lat="49.79338" lon="2.4154">
        <ele>104</ele>
        <time>2024-07-24T08:22:53Z</time>
      </trkpt>
      <trkpt lat="49.79338" lon="2.4154">
        <ele>104</ele>
        <time>2024-07-24T08:22:54Z</time>
      </trkpt>
      <trkpt lat="49.79338" lon="2.4154">
        <ele>104</ele>
        <time>2024-07-24T08:22:55Z</time>
      </trkpt>
      <trkpt lat="49.79338" lon="2.4154">
        <ele>104</ele>
        <time>2024-07-24T08:22:56Z</time>
      </trkpt>
      <trkpt lat="49.79338" lon="2.4154">
        <ele>104</ele>
        <time>2024-07-24T08:22:57Z</time>
      </trkpt>
      <trkpt lat="49.79338" lon="2.4154">
        <ele>104</ele>
        <time>2024-07-24T08:22:58Z</time>
      </trkpt>
      <trkpt lat="49.79338" lon="2.4154">
        <ele>104</ele>
        <time>2024-07-24T08:22:59Z</time>
      </trkpt>
      <trkpt lat="49.79338" lon="2.4154">
        <ele>104</ele>
        <time>2024-07-24T08:23:00Z</time>
      </trkpt>
      <trkpt lat="49.79338" lon="2.4154">
        <ele>104</ele>
        <time>2024-07-24T08:23:01Z</time>
      </trkpt>
      <trkpt lat="49.79338" lon="2.4154">
        <ele>104</ele>
        <time>2024-07-24T08:23:02Z</time>
      </trkpt>
      <trkpt lat="49.79338" lon="2.4154">
        <ele>104</ele>
        <time>2024-07-24T08:23:03Z</time>
      </trkpt>
      <trkpt lat="49.79338" lon="2.4154">
        <ele>104</ele>
        <time>2024-07-24T08:23:04Z</time>
      </trkpt>
      <trkpt lat="49.79338" lon="2.4154">
        <ele>104</ele>
        <time>2024-07-24T08:23:05Z</time>
      </trkpt>
      <trkpt lat="49.79338" lon="2.4154">
        <ele>104</ele>
        <time>2024-07-24T08:23:06Z</time>
      </trkpt>
      <trkpt lat="49.79338" lon="2.4154">
        <ele>104</ele>
        <time>2024-07-24T08:23:07Z</time>
      </trkpt>
      <trkpt lat="49.79338" lon="2.4154">
        <ele>104</ele>
        <time>2024-07-24T08:23:08Z</time>
      </trkpt>
      <trkpt lat="49.79338" lon="2.4154">
        <ele>104</ele>
        <time>2024-07-24T08:23:09Z</time>
      </trkpt>
      <trkpt lat="49.79338" lon="2.4154">
        <ele>104</ele>
        <time>2024-07-24T08:23:10Z</time>
      </trkpt>
      <trkpt lat="49.79338" lon="2.4154">
        <ele>104</ele>
        <time>2024-07-24T08:23:11Z</time>
      </trkpt>
      <trkpt lat="49.79338" lon="2.4154">
        <ele>104</ele>
        <time>2024-07-24T08:23:12Z</time>
      </trkpt>
      <trkpt lat="49.79338" lon="2.4154">
        <ele>104</ele>
        <time>2024-07-24T08:23:13Z</time>
      </trkpt>
      <trkpt lat="49.79338" lon="2.4154">
        <ele>104</ele>
        <time>2024-07-24T08:23:14Z</time>
      </trkpt>
      <trkpt lat="49.79338" lon="2.4154">
        <ele>104</ele>
        <time>2024-07-24T08:23:15Z</time>
      </trkpt>
      <trkpt lat="49.79338" lon="2.4154">
        <ele>104</ele>
        <time>2024-07-24T08:23:16Z</time>
      </trkpt>
      <trkpt lat="49.79338" lon="2.4154">
        <ele>104</ele>
        <time>2024-07-24T08:23:17Z</time>
      </trkpt>
      <trkpt lat="49.79338" lon="2.4154">
        <ele>104</ele>
        <time>2024-07-24T08:23:18Z</time>
      </trkpt>
      <trkpt lat="49.79338" lon="2.4154">
        <ele>104</ele>
        <time>2024-07-24T08:23:19Z</time>
      </trkpt>
      <trkpt lat="49.79338" lon="2.4154">
        <ele>104</ele>
        <time>2024-07-24T08:23:20Z</time>
      </trkpt>
      <trkpt lat="49.79338" lon="2.4154">
        <ele>104</ele>
        <time>2024-07-24T08:23:21Z</time>
      </trkpt>
      <trkpt lat="49.79338" lon="2.4154">
        <ele>104</ele>
        <time>2024-07-24T08:23:22Z</time>
      </trkpt>
      <trkpt lat="49.79338" lon="2.4154">
        <ele>104</ele>
        <time>2024-07-24T08:23:23Z</time>
      </trkpt>
      <trkpt lat="49.79338" lon="2.4154">
        <ele>104</ele>
        <time>2024-07-24T08:23:24Z</time>
      </trkpt>
      <trkpt lat="49.79338" lon="2.4154">
        <ele>104</ele>
        <time>2024-07-24T08:23:25Z</time>
      </trkpt>
      <trkpt lat="49.79338" lon="2.4154">
        <ele>104</ele>
        <time>2024-07-24T08:23:26Z</time>
      </trkpt>
      <trkpt lat="49.79338" lon="2.4154">
        <ele>104</ele>
        <time>2024-07-24T08:23:27Z</time>
      </trkpt>
      <trkpt lat="49.79338" lon="2.4154">
        <ele>104</ele>
        <time>2024-07-24T08:23:28Z</time>
      </trkpt>
      <trkpt lat="49.79338" lon="2.4154">
        <ele>104</ele>
        <time>2024-07-24T08:23:29Z</time>
      </trkpt>
      <trkpt lat="49.79338" lon="2.4154">
        <ele>104</ele>
        <time>2024-07-24T08:23:30Z</time>
      </trkpt>
      <trkpt lat="49.79338" lon="2.4154">
        <ele>104</ele>
        <time>2024-07-24T08:23:31Z</time>
      </trkpt>
      <trkpt lat="49.79338" lon="2.4154">
        <ele>104</ele>
        <time>2024-07-24T08:23:32Z</time>
      </trkpt>
      <trkpt lat="49.79338" lon="2.4154">
        <ele>104</ele>
        <time>2024-07-24T08:23:33Z</time>
      </trkpt>
      <trkpt lat="49.79338" lon="2.4154">
        <ele>104</ele>
        <time>2024-07-24T08:23:34Z</time>
      </trkpt>
      <trkpt lat="49.79338" lon="2.4154">
        <ele>104</ele>
        <time>2024-07-24T08:23:35Z</time>
      </trkpt>
      <trkpt lat="49.79338" lon="2.4154">
        <ele>104</ele>
        <time>2024-07-24T08:23:36Z</time>
      </trkpt>
      <trkpt lat="49.79338" lon="2.4154">
        <ele>104</ele>
        <time>2024-07-24T08:23:37Z</time>
      </trkpt>
      <trkpt lat="49.79338" lon="2.4154">
        <ele>104</ele>
        <time>2024-07-24T08:23:38Z</time>
      </trkpt>
      <trkpt lat="49.79338" lon="2.4154">
        <ele>104</ele>
        <time>2024-07-24T08:23:39Z</time>
      </trkpt>
      <trkpt lat="49.79338" lon="2.4154">
        <ele>104</ele>
        <time>2024-07-24T08:23:40Z</time>
      </trkpt>
      <trkpt lat="49.79338" lon="2.4154">
        <ele>104</ele>
        <time>2024-07-24T08:23:41Z</time>
      </trkpt>
      <trkpt lat="49.79338" lon="2.4154">
        <ele>104</ele>
        <time>2024-07-24T08:23:42Z</time>
      </trkpt>
      <trkpt lat="49.79338" lon="2.4154">
        <ele>104</ele>
        <time>2024-07-24T08:23:43Z</time>
      </trkpt>
      <trkpt lat="49.79338" lon="2.4154">
        <ele>104</ele>
        <time>2024-07-24T08:23:44Z</time>
      </trkpt>
      <trkpt lat="49.79338" lon="2.4154">
        <ele>104</ele>
        <time>2024-07-24T08:23:45Z</time>
      </trkpt>
      <trkpt lat="49.79338" lon="2.4154">
        <ele>104</ele>
        <time>2024-07-24T08:23:46Z</time>
      </trkpt>
      <trkpt lat="49.79338" lon="2.4154">
        <ele>104</ele>
        <time>2024-07-24T08:23:47Z</time>
      </trkpt>
      <trkpt lat="49.79338" lon="2.4154">
        <ele>104</ele>
        <time>2024-07-24T08:23:48Z</time>
      </trkpt>
      <trkpt lat="49.79338" lon="2.4154">
        <ele>104</ele>
        <time>2024-07-24T08:23:49Z</time>
      </trkpt>
      <trkpt lat="49.79338" lon="2.4154">
        <ele>104</ele>
        <time>2024-07-24T08:23:50Z</time>
      </trkpt>
      <trkpt lat="49.79338" lon="2.4154">
        <ele>104</ele>
        <time>2024-07-24T08:23:51Z</time>
      </trkpt>
      <trkpt lat="49.79338" lon="2.4154">
        <ele>104</ele>
        <time>2024-07-24T08:23:52Z</time>
      </trkpt>
      <trkpt lat="49.79338" lon="2.4154">
        <ele>104</ele>
        <time>2024-07-24T08:23:53Z</time>
      </trkpt>
      <trkpt lat="49.79338" lon="2.4154">
        <ele>104</ele>
        <time>2024-07-24T08:23:54Z</time>
      </trkpt>
      <trkpt lat="49.79338" lon="2.4154">
        <ele>104</ele>
        <time>2024-07-24T08:23:55Z</time>
      </trkpt>
      <trkpt lat="49.79338" lon="2.4154">
        <ele>104</ele>
        <time>2024-07-24T08:23:56Z</time>
      </trkpt>
      <trkpt lat="49.79338" lon="2.4154">
        <ele>104</ele>
        <time>2024-07-24T08:23:57Z</time>
      </trkpt>
      <trkpt lat="49.79338" lon="2.4154">
        <ele>104</ele>
        <time>2024-07-24T08:23:58Z</time>
      </trkpt>
      <trkpt lat="49.79338" lon="2.4154">
        <ele>104</ele>
        <time>2024-07-24T08:23:59Z</time>
      </trkpt>
      <trkpt lat="49.79338" lon="2.4154">
        <ele>104</ele>
        <time>2024-07-24T08:24:00Z</time>
      </trkpt>
      <trkpt lat="49.79338" lon="2.4154">
        <ele>104</ele>
        <time>2024-07-24T08:24:01Z</time>
      </trkpt>
      <trkpt lat="49.79338" lon="2.4154">
        <ele>104</ele>
        <time>2024-07-24T08:24:02Z</time>
      </trkpt>
      <trkpt lat="49.79338" lon="2.4154">
        <ele>104</ele>
        <time>2024-07-24T08:24:03Z</time>
      </trkpt>
      <trkpt lat="49.79338" lon="2.4154">
        <ele>104</ele>
        <time>2024-07-24T08:24:04Z</time>
      </trkpt>
      <trkpt lat="49.79338" lon="2.4154">
        <ele>104</ele>
        <time>2024-07-24T08:24:05Z</time>
      </trkpt>
      <trkpt lat="49.79338" lon="2.4154">
        <ele>104</ele>
        <time>2024-07-24T08:24:06Z</time>
      </trkpt>
      <trkpt lat="49.79338" lon="2.4154">
        <ele>104</ele>
        <time>2024-07-24T08:24:07Z</time>
      </trkpt>
      <trkpt lat="49.79338" lon="2.4154">
        <ele>104</ele>
        <time>2024-07-24T08:24:08Z</time>
      </trkpt>
      <trkpt lat="49.79338" lon="2.4154">
        <ele>104</ele>
        <time>2024-07-24T08:24:09Z</time>
      </trkpt>
      <trkpt lat="49.79338" lon="2.4154">
        <ele>104</ele>
        <time>2024-07-24T08:24:10Z</time>
      </trkpt>
      <trkpt lat="49.79338" lon="2.4154">
        <ele>104</ele>
        <time>2024-07-24T08:24:11Z</time>
      </trkpt>
      <trkpt lat="49.79338" lon="2.4154">
        <ele>104</ele>
        <time>2024-07-24T08:24:12Z</time>
      </trkpt>
      <trkpt lat="49.79338" lon="2.4154">
        <ele>104</ele>
        <time>2024-07-24T08:24:13Z</time>
      </trkpt>
      <trkpt lat="49.79338" lon="2.4154">
        <ele>104</ele>
        <time>2024-07-24T08:24:14Z</time>
      </trkpt>
      <trkpt lat="49.79338" lon="2.4154">
        <ele>104</ele>
        <time>2024-07-24T08:24:15Z</time>
      </trkpt>
      <trkpt lat="49.79338" lon="2.4154">
        <ele>104</ele>
        <time>2024-07-24T08:24:16Z</time>
      </trkpt>
      <trkpt lat="49.79338" lon="2.4154">
        <ele>104</ele>
        <time>2024-07-24T08:24:17Z</time>
      </trkpt>
      <trkpt lat="49.79338" lon="2.4154">
        <ele>104</ele>
        <time>2024-07-24T08:24:18Z</time>
      </trkpt>
      <trkpt lat="49.79338" lon="2.4154">
        <ele>104</ele>
        <time>2024-07-24T08:24:19Z</time>
      </trkpt>
      <trkpt lat="49.79338" lon="2.4154">
        <ele>104</ele>
        <time>2024-07-24T08:24:20Z</time>
      </trkpt>
      <trkpt lat="49.79338" lon="2.4154">
        <ele>104</ele>
        <time>2024-07-24T08:24:21Z</time>
      </trkpt>
      <trkpt lat="49.79338" lon="2.4154">
        <ele>104</ele>
        <time>2024-07-24T08:24:22Z</time>
      </trkpt>
      <trkpt lat="49.79338" lon="2.4154">
        <ele>104</ele>
        <time>2024-07-24T08:24:23Z</time>
      </trkpt>
      <trkpt lat="49.79338" lon="2.4154">
        <ele>104</ele>
        <time>2024-07-24T08:24:24Z</time>
      </trkpt>
      <trkpt lat="49.79338" lon="2.4154">
        <ele>104</ele>
        <time>2024-07-24T08:24:25Z</time>
      </trkpt>
      <trkpt lat="49.79338" lon="2.4154">
        <ele>104</ele>
        <time>2024-07-24T08:24:26Z</time>
      </trkpt>
      <trkpt lat="49.79338" lon="2.4154">
        <ele>104</ele>
        <time>2024-07-24T08:24:27Z</time>
      </trkpt>
      <trkpt lat="49.79338" lon="2.4154">
        <ele>104</ele>
        <time>2024-07-24T08:24:28Z</time>
      </trkpt>
      <trkpt lat="49.79338" lon="2.4154">
        <ele>104</ele>
        <time>2024-07-24T08:24:29Z</time>
      </trkpt>
      <trkpt lat="49.79338" lon="2.4154">
        <ele>104</ele>
        <time>2024-07-24T08:24:30Z</time>
      </trkpt>
      <trkpt lat="49.79338" lon="2.4154">
        <ele>104</ele>
        <time>2024-07-24T08:24:31Z</time>
      </trkpt>
      <trkpt lat="49.79338" lon="2.4154">
        <ele>104</ele>
        <time>2024-07-24T08:24:32Z</time>
      </trkpt>
      <trkpt lat="49.79338" lon="2.4154">
        <ele>104</ele>
        <time>2024-07-24T08:24:33Z</time>
      </trkpt>
      <trkpt lat="49.79338" lon="2.4154">
        <ele>104</ele>
        <time>2024-07-24T08:24:34Z</time>
      </trkpt>
      <trkpt lat="49.79338" lon="2.4154">
        <ele>104</ele>
        <time>2024-07-24T08:24:35Z</time>
      </trkpt>
      <trkpt lat="49.79338" lon="2.4154">
        <ele>104</ele>
        <time>2024-07-24T08:24:36Z</time>
      </trkpt>
      <trkpt lat="49.79338" lon="2.4154">
        <ele>104</ele>
        <time>2024-07-24T08:24:37Z</time>
      </trkpt>
      <trkpt lat="49.79338" lon="2.4154">
        <ele>104</ele>
        <time>2024-07-24T08:24:38Z</time>
      </trkpt>
      <trkpt lat="49.79338" lon="2.4154">
        <ele>104</ele>
        <time>2024-07-24T08:24:39Z</time>
      </trkpt>
      <trkpt lat="49.79338" lon="2.4154">
        <ele>104</ele>
        <time>2024-07-24T08:24:40Z</time>
      </trkpt>
      <trkpt lat="49.79338" lon="2.4154">
        <ele>104</ele>
        <time>2024-07-24T08:24:41Z</time>
      </trkpt>
      <trkpt lat="49.79338" lon="2.4154">
        <ele>104</ele>
        <time>2024-07-24T08:24:42Z</time>
      </trkpt>
      <trkpt lat="49.79338" lon="2.4154">
        <ele>104</ele>
        <time>2024-07-24T08:24:43Z</time>
      </trkpt>
      <trkpt lat="49.79338" lon="2.4154">
        <ele>104</ele>
        <time>2024-07-24T08:24:44Z</time>
      </trkpt>
      <trkpt lat="49.79338" lon="2.4154">
        <ele>104</ele>
        <time>2024-07-24T08:24:45Z</time>
      </trkpt>
      <trkpt lat="49.79338" lon="2.4154">
        <ele>104</ele>
        <time>2024-07-24T08:24:46Z</time>
      </trkpt>
      <trkpt lat="49.79338" lon="2.4154">
        <ele>104</ele>
        <time>2024-07-24T08:24:47Z</time>
      </trkpt>
      <trkpt lat="49.79338" lon="2.4154">
        <ele>104</ele>
        <time>2024-07-24T08:24:48Z</time>
      </trkpt>
      <trkpt lat="49.79338" lon="2.4154">
        <ele>104</ele>
        <time>2024-07-24T08:24:49Z</time>
      </trkpt>
      <trkpt lat="49.79338" lon="2.4154">
        <ele>104</ele>
        <time>2024-07-24T08:24:50Z</time>
      </trkpt>
      <trkpt lat="49.79338" lon="2.4154">
        <ele>104</ele>
        <time>2024-07-24T08:24:51Z</time>
      </trkpt>
      <trkpt lat="49.79338" lon="2.4154">
        <ele>104</ele>
        <time>2024-07-24T08:24:52Z</time>
      </trkpt>
      <trkpt lat="49.79338" lon="2.4154">
        <ele>104</ele>
        <time>2024-07-24T08:24:53Z</time>
      </trkpt>
      <trkpt lat="49.79338" lon="2.4154">
        <ele>104</ele>
        <time>2024-07-24T08:24:54Z</time>
      </trkpt>
      <trkpt lat="49.79338" lon="2.4154">
        <ele>104</ele>
        <time>2024-07-24T08:24:55Z</time>
      </trkpt>
      <trkpt lat="49.79338" lon="2.4154">
        <ele>104</ele>
        <time>2024-07-24T08:24:56Z</time>
      </trkpt>
      <trkpt lat="49.79338" lon="2.4154">
        <ele>104</ele>
        <time>2024-07-24T08:24:57Z</time>
      </trkpt>
      <trkpt lat="49.79338" lon="2.4154">
        <ele>104</ele>
        <time>2024-07-24T08:24:58Z</time>
      </trkpt>
      <trkpt lat="49.79338" lon="2.4154">
        <ele>104</ele>
        <time>2024-07-24T08:24:59Z</time>
      </trkpt>
      <trkpt lat="49.79338" lon="2.4154">
        <ele>104</ele>
        <time>2024-07-24T08:25:00Z</time>
      </trkpt>
      <trkpt lat="49.79338" lon="2.4154">
        <ele>104</ele>
        <time>2024-07-24T08:25:01Z</time>
      </trkpt>
      <trkpt lat="49.79338" lon="2.4154">
        <ele>104</ele>
        <time>2024-07-24T08:25:02Z</time>
      </trkpt>
      <trkpt lat="49.79338" lon="2.4154">
        <ele>104</ele>
        <time>2024-07-24T08:25:03Z</time>
      </trkpt>
      <trkpt lat="49.79338" lon="2.4154">
        <ele>104</ele>
        <time>2024-07-24T08:25:04Z</time>
      </trkpt>
      <trkpt lat="49.79338" lon="2.4154">
        <ele>104</ele>
        <time>2024-07-24T08:25:05Z</time>
      </trkpt>
      <trkpt lat="49.79338" lon="2.4154">
        <ele>104</ele>
        <time>2024-07-24T08:25:06Z</time>
      </trkpt>
      <trkpt lat="49.79338" lon="2.4154">
        <ele>104</ele>
        <time>2024-07-24T08:25:07Z</time>
      </trkpt>
      <trkpt lat="49.79338" lon="2.4154">
        <ele>104</ele>
        <time>2024-07-24T08:25:08Z</time>
      </trkpt>
      <trkpt lat="49.79338" lon="2.4154">
        <ele>104</ele>
        <time>2024-07-24T08:25:09Z</time>
      </trkpt>
      <trkpt lat="49.79338" lon="2.4154">
        <ele>104</ele>
        <time>2024-07-24T08:25:10Z</time>
      </trkpt>
      <trkpt lat="49.79338" lon="2.4154">
        <ele>104</ele>
        <time>2024-07-24T08:25:11Z</time>
      </trkpt>
      <trkpt lat="49.79338" lon="2.4154">
        <ele>104</ele>
        <time>2024-07-24T08:25:12Z</time>
      </trkpt>
      <trkpt lat="49.79338" lon="2.4154">
        <ele>104</ele>
        <time>2024-07-24T08:25:13Z</time>
      </trkpt>
      <trkpt lat="49.79338" lon="2.4154">
        <ele>104</ele>
        <time>2024-07-24T08:25:14Z</time>
      </trkpt>
      <trkpt lat="49.79338" lon="2.4154">
        <ele>104</ele>
        <time>2024-07-24T08:25:15Z</time>
      </trkpt>
      <trkpt lat="49.79338" lon="2.4154">
        <ele>104</ele>
        <time>2024-07-24T08:25:16Z</time>
      </trkpt>
      <trkpt lat="49.79338" lon="2.4154">
        <ele>104</ele>
        <time>2024-07-24T08:25:17Z</time>
      </trkpt>
      <trkpt lat="49.79338" lon="2.4154">
        <ele>104</ele>
        <time>2024-07-24T08:25:18Z</time>
      </trkpt>
      <trkpt lat="49.79338" lon="2.4154">
        <ele>104</ele>
        <time>2024-07-24T08:25:19Z</time>
      </trkpt>
      <trkpt lat="49.79338" lon="2.4154">
        <ele>104</ele>
        <time>2024-07-24T08:25:20Z</time>
      </trkpt>
      <trkpt lat="49.79338" lon="2.4154">
        <ele>104</ele>
        <time>2024-07-24T08:25:21Z</time>
      </trkpt>
      <trkpt lat="49.79338" lon="2.4154">
        <ele>104</ele>
        <time>2024-07-24T08:25:22Z</time>
      </trkpt>
      <trkpt lat="49.79338" lon="2.4154">
        <ele>104</ele>
        <time>2024-07-24T08:25:23Z</time>
      </trkpt>
      <trkpt lat="49.79338" lon="2.4154">
        <ele>104</ele>
        <time>2024-07-24T08:25:24Z</time>
      </trkpt>
      <trkpt lat="49.79338" lon="2.4154">
        <ele>104</ele>
        <time>2024-07-24T08:25:25Z</time>
      </trkpt>
      <trkpt lat="49.79338" lon="2.4154">
        <ele>104</ele>
        <time>2024-07-24T08:25:26Z</time>
      </trkpt>
      <trkpt lat="49.79338" lon="2.4154">
        <ele>104</ele>
        <time>2024-07-24T08:25:27Z</time>
      </trkpt>
      <trkpt lat="49.79338" lon="2.4154">
        <ele>104</ele>
        <time>2024-07-24T08:25:28Z</time>
      </trkpt>
      <trkpt lat="49.79338" lon="2.4154">
        <ele>104</ele>
        <time>2024-07-24T08:25:29Z</time>
      </trkpt>
      <trkpt lat="49.79338" lon="2.4154">
        <ele>104</ele>
        <time>2024-07-24T08:25:30Z</time>
      </trkpt>
      <trkpt lat="49.79338" lon="2.4154">
        <ele>104</ele>
        <time>2024-07-24T08:25:31Z</time>
      </trkpt>
      <trkpt lat="49.79338" lon="2.4154">
        <ele>104</ele>
        <time>2024-07-24T08:25:32Z</time>
      </trkpt>
      <trkpt lat="49.79338" lon="2.4154">
        <ele>104</ele>
        <time>2024-07-24T08:25:33Z</time>
      </trkpt>
      <trkpt lat="49.79338" lon="2.4154">
        <ele>104</ele>
        <time>2024-07-24T08:25:34Z</time>
      </trkpt>
      <trkpt lat="49.79338" lon="2.4154">
        <ele>104</ele>
        <time>2024-07-24T08:25:35Z</time>
      </trkpt>
      <trkpt lat="49.79338" lon="2.4154">
        <ele>104</ele>
        <time>2024-07-24T08:25:36Z</time>
      </trkpt>
      <trkpt lat="49.79338" lon="2.4154">
        <ele>104</ele>
        <time>2024-07-24T08:25:37Z</time>
      </trkpt>
      <trkpt lat="49.79338" lon="2.4154">
        <ele>104</ele>
        <time>2024-07-24T08:25:38Z</time>
      </trkpt>
      <trkpt lat="49.79338" lon="2.4154">
        <ele>104</ele>
        <time>2024-07-24T08:25:39Z</time>
      </trkpt>
      <trkpt lat="49.79338" lon="2.4154">
        <ele>104</ele>
        <time>2024-07-24T08:25:40Z</time>
      </trkpt>
      <trkpt lat="49.79338" lon="2.4154">
        <ele>104</ele>
        <time>2024-07-24T08:25:41Z</time>
      </trkpt>
      <trkpt lat="49.79338" lon="2.4154">
        <ele>104</ele>
        <time>2024-07-24T08:25:42Z</time>
      </trkpt>
      <trkpt lat="49.79338" lon="2.4154">
        <ele>104</ele>
        <time>2024-07-24T08:25:43Z</time>
      </trkpt>
      <trkpt lat="49.79338" lon="2.4154">
        <ele>104</ele>
        <time>2024-07-24T08:25:44Z</time>
      </trkpt>
      <trkpt lat="49.79338" lon="2.4154">
        <ele>104</ele>
        <time>2024-07-24T08:25:45Z</time>
      </trkpt>
      <trkpt lat="49.79338" lon="2.4154">
        <ele>104</ele>
        <time>2024-07-24T08:25:46Z</time>
      </trkpt>
      <trkpt lat="49.79338" lon="2.4154">
        <ele>104</ele>
        <time>2024-07-24T08:25:47Z</time>
      </trkpt>
      <trkpt lat="49.79338" lon="2.4154">
        <ele>104</ele>
        <time>2024-07-24T08:25:48Z</time>
      </trkpt>
      <trkpt lat="49.79338" lon="2.4154">
        <ele>104</ele>
        <time>2024-07-24T08:25:49Z</time>
      </trkpt>
      <trkpt lat="49.79338" lon="2.4154">
        <ele>104</ele>
        <time>2024-07-24T08:25:50Z</time>
      </trkpt>
      <trkpt lat="49.79338" lon="2.4154">
        <ele>104</ele>
        <time>2024-07-24T08:25:51Z</time>
      </trkpt>
      <trkpt lat="49.79338" lon="2.4154">
        <ele>104</ele>
        <time>2024-07-24T08:25:52Z</time>
      </trkpt>
      <trkpt lat="49.79338" lon="2.4154">
        <ele>104</ele>
        <time>2024-07-24T08:25:53Z</time>
      </trkpt>
      <trkpt lat="49.79338" lon="2.4154">
        <ele>104</ele>
        <time>2024-07-24T08:25:54Z</time>
      </trkpt>
      <trkpt lat="49.79338" lon="2.4154">
        <ele>104</ele>
        <time>2024-07-24T08:25:55Z</time>
      </trkpt>
      <trkpt lat="49.79338" lon="2.4154">
        <ele>104</ele>
        <time>2024-07-24T08:25:56Z</time>
      </trkpt>
      <trkpt lat="49.79338" lon="2.4154">
        <ele>104</ele>
        <time>2024-07-24T08:25:57Z</time>
      </trkpt>
      <trkpt lat="49.79338" lon="2.4154">
        <ele>104</ele>
        <time>2024-07-24T08:25:58Z</time>
      </trkpt>
      <trkpt lat="49.79338" lon="2.4154">
        <ele>104</ele>
        <time>2024-07-24T08:25:59Z</time>
      </trkpt>
      <trkpt lat="49.79338" lon="2.4154">
        <ele>104</ele>
        <time>2024-07-24T08:26:00Z</time>
      </trkpt>
      <trkpt lat="49.79338" lon="2.4154">
        <ele>104</ele>
        <time>2024-07-24T08:26:01Z</time>
      </trkpt>
      <trkpt lat="49.79338" lon="2.4154">
        <ele>104</ele>
        <time>2024-07-24T08:26:02Z</time>
      </trkpt>
      <trkpt lat="49.79338" lon="2.4154">
        <ele>104</ele>
        <time>2024-07-24T08:26:03Z</time>
      </trkpt>
      <trkpt lat="49.79338" lon="2.4154">
        <ele>104</ele>
        <time>2024-07-24T08:26:04Z</time>
      </trkpt>
      <trkpt lat="49.79338" lon="2.4154">
        <ele>104</ele>
        <time>2024-07-24T08:26:05Z</time>
      </trkpt>
      <trkpt lat="49.79338" lon="2.4154">
        <ele>104</ele>
        <time>2024-07-24T08:26:06Z</time>
      </trkpt>
      <trkpt lat="49.79338" lon="2.4154">
        <ele>104</ele>
        <time>2024-07-24T08:26:07Z</time>
      </trkpt>
      <trkpt lat="49.79338" lon="2.4154">
        <ele>104</ele>
        <time>2024-07-24T08:26:08Z</time>
      </trkpt>
      <trkpt lat="49.79338" lon="2.4154">
        <ele>104</ele>
        <time>2024-07-24T08:26:09Z</time>
      </trkpt>
      <trkpt lat="49.79338" lon="2.4154">
        <ele>104</ele>
        <time>2024-07-24T08:26:10Z</time>
      </trkpt>
      <trkpt lat="49.79338" lon="2.4154">
        <ele>104</ele>
        <time>2024-07-24T08:26:11Z</time>
      </trkpt>
      <trkpt lat="49.79338" lon="2.4154">
        <ele>104</ele>
        <time>2024-07-24T08:26:12Z</time>
      </trkpt>
      <trkpt lat="49.79338" lon="2.4154">
        <ele>104</ele>
        <time>2024-07-24T08:26:13Z</time>
      </trkpt>
      <trkpt lat="49.79338" lon="2.4154">
        <ele>104</ele>
        <time>2024-07-24T08:26:14Z</time>
      </trkpt>
      <trkpt lat="49.79338" lon="2.4154">
        <ele>104</ele>
        <time>2024-07-24T08:26:15Z</time>
      </trkpt>
      <trkpt lat="49.79338" lon="2.4154">
        <ele>104</ele>
        <time>2024-07-24T08:26:16Z</time>
      </trkpt>
      <trkpt lat="49.79338" lon="2.4154">
        <ele>104</ele>
        <time>2024-07-24T08:26:17Z</time>
      </trkpt>
      <trkpt lat="49.79338" lon="2.4154">
        <ele>104</ele>
        <time>2024-07-24T08:26:18Z</time>
      </trkpt>
      <trkpt lat="49.79338" lon="2.4154">
        <ele>104</ele>
        <time>2024-07-24T08:26:19Z</time>
      </trkpt>
      <trkpt lat="49.79338" lon="2.4154">
        <ele>104</ele>
        <time>2024-07-24T08:26:20Z</time>
      </trkpt>
      <trkpt lat="49.79338" lon="2.4154">
        <ele>104</ele>
        <time>2024-07-24T08:26:21Z</time>
      </trkpt>
      <trkpt lat="49.79338" lon="2.4154">
        <ele>104</ele>
        <time>2024-07-24T08:26:22Z</time>
      </trkpt>
      <trkpt lat="49.79338" lon="2.4154">
        <ele>104</ele>
        <time>2024-07-24T08:26:23Z</time>
      </trkpt>
      <trkpt lat="49.79338" lon="2.4154">
        <ele>104</ele>
        <time>2024-07-24T08:26:24Z</time>
      </trkpt>
      <trkpt lat="49.79338" lon="2.4154">
        <ele>104</ele>
        <time>2024-07-24T08:26:25Z</time>
      </trkpt>
      <trkpt lat="49.79338" lon="2.4154">
        <ele>104</ele>
        <time>2024-07-24T08:26:26Z</time>
      </trkpt>
      <trkpt lat="49.79338" lon="2.4154">
        <ele>104</ele>
        <time>2024-07-24T08:26:27Z</time>
      </trkpt>
      <trkpt lat="49.79338" lon="2.4154">
        <ele>104</ele>
        <time>2024-07-24T08:26:28Z</time>
      </trkpt>
      <trkpt lat="49.79338" lon="2.4154">
        <ele>104</ele>
        <time>2024-07-24T08:26:29Z</time>
      </trkpt>
      <trkpt lat="49.79338" lon="2.4154">
        <ele>104</ele>
        <time>2024-07-24T08:26:30Z</time>
      </trkpt>
      <trkpt lat="49.79338" lon="2.4154">
        <ele>104</ele>
        <time>2024-07-24T08:26:31Z</time>
      </trkpt>
      <trkpt lat="49.79338" lon="2.4154">
        <ele>104</ele>
        <time>2024-07-24T08:26:32Z</time>
      </trkpt>
      <trkpt lat="49.79338" lon="2.4154">
        <ele>104</ele>
        <time>2024-07-24T08:26:33Z</time>
      </trkpt>
      <trkpt lat="49.79338" lon="2.4154">
        <ele>104</ele>
        <time>2024-07-24T08:26:34Z</time>
      </trkpt>
      <trkpt lat="49.79338" lon="2.4154">
        <ele>104</ele>
        <time>2024-07-24T08:26:35Z</time>
      </trkpt>
      <trkpt lat="49.79338" lon="2.4154">
        <ele>104</ele>
        <time>2024-07-24T08:26:36Z</time>
      </trkpt>
      <trkpt lat="49.79338" lon="2.4154">
        <ele>104</ele>
        <time>2024-07-24T08:26:37Z</time>
      </trkpt>
      <trkpt lat="49.79338" lon="2.4154">
        <ele>104</ele>
        <time>2024-07-24T08:26:38Z</time>
      </trkpt>
      <trkpt lat="49.79338" lon="2.4154">
        <ele>104</ele>
        <time>2024-07-24T08:26:39Z</time>
      </trkpt>
      <trkpt lat="49.79338" lon="2.4154">
        <ele>104</ele>
        <time>2024-07-24T08:26:40Z</time>
      </trkpt>
      <trkpt lat="49.79338" lon="2.4154">
        <ele>104</ele>
        <time>2024-07-24T08:26:41Z</time>
      </trkpt>
      <trkpt lat="49.79338" lon="2.4154">
        <ele>104</ele>
        <time>2024-07-24T08:26:42Z</time>
      </trkpt>
      <trkpt lat="49.79338" lon="2.4154">
        <ele>104</ele>
        <time>2024-07-24T08:26:43Z</time>
      </trkpt>
      <trkpt lat="49.79338" lon="2.4154">
        <ele>104</ele>
        <time>2024-07-24T08:26:44Z</time>
      </trkpt>
      <trkpt lat="49.79338" lon="2.4154">
        <ele>104</ele>
        <time>2024-07-24T08:26:45Z</time>
      </trkpt>
      <trkpt lat="49.79338" lon="2.4154">
        <ele>104</ele>
        <time>2024-07-24T08:26:46Z</time>
      </trkpt>
      <trkpt lat="49.79338" lon="2.4154">
        <ele>104</ele>
        <time>2024-07-24T08:26:47Z</time>
      </trkpt>
      <trkpt lat="49.79338" lon="2.4154">
        <ele>104</ele>
        <time>2024-07-24T08:26:48Z</time>
      </trkpt>
      <trkpt lat="49.79338" lon="2.4154">
        <ele>104</ele>
        <time>2024-07-24T08:26:49Z</time>
      </trkpt>
      <trkpt lat="49.79338" lon="2.4154">
        <ele>104</ele>
        <time>2024-07-24T08:26:50Z</time>
      </trkpt>
      <trkpt lat="49.79338" lon="2.4154">
        <ele>104</ele>
        <time>2024-07-24T08:26:51Z</time>
      </trkpt>
      <trkpt lat="49.79338" lon="2.4154">
        <ele>104</ele>
        <time>2024-07-24T08:26:52Z</time>
      </trkpt>
      <trkpt lat="49.79338" lon="2.4154">
        <ele>104</ele>
        <time>2024-07-24T08:26:53Z</time>
      </trkpt>
      <trkpt lat="49.79338" lon="2.4154">
        <ele>104</ele>
        <time>2024-07-24T08:26:54Z</time>
      </trkpt>
      <trkpt lat="49.79338" lon="2.4154">
        <ele>104</ele>
        <time>2024-07-24T08:26:55Z</time>
      </trkpt>
      <trkpt lat="49.79338" lon="2.4154">
        <ele>104</ele>
        <time>2024-07-24T08:26:56Z</time>
      </trkpt>
      <trkpt lat="49.79338" lon="2.4154">
        <ele>104</ele>
        <time>2024-07-24T08:26:57Z</time>
      </trkpt>
      <trkpt lat="49.79338" lon="2.4154">
        <ele>104</ele>
        <time>2024-07-24T08:26:58Z</time>
      </trkpt>
      <trkpt lat="49.79338" lon="2.4154">
        <ele>104</ele>
        <time>2024-07-24T08:26:59Z</time>
      </trkpt>
      <trkpt lat="49.79338" lon="2.4154">
        <ele>104</ele>
        <time>2024-07-24T08:27:00Z</time>
      </trkpt>
      <trkpt lat="49.79338" lon="2.4154">
        <ele>104</ele>
        <time>2024-07-24T08:27:01Z</time>
      </trkpt>
      <trkpt lat="49.79338" lon="2.4154">
        <ele>104</ele>
        <time>2024-07-24T08:27:02Z</time>
      </trkpt>
      <trkpt lat="49.79338" lon="2.4154">
        <ele>104</ele>
        <time>2024-07-24T08:27:03Z</time>
      </trkpt>
      <trkpt lat="49.79338" lon="2.4154">
        <ele>104</ele>
        <time>2024-07-24T08:27:04Z</time>
      </trkpt>
      <trkpt lat="49.79338" lon="2.4154">
        <ele>104</ele>
        <time>2024-07-24T08:27:05Z</time>
      </trkpt>
      <trkpt lat="49.79338" lon="2.4154">
        <ele>104</ele>
        <time>2024-07-24T08:27:06Z</time>
      </trkpt>
      <trkpt lat="49.79338" lon="2.4154">
        <ele>104</ele>
        <time>2024-07-24T08:27:07Z</time>
      </trkpt>
      <trkpt lat="49.79338" lon="2.4154">
        <ele>104</ele>
        <time>2024-07-24T08:27:08Z</time>
      </trkpt>
      <trkpt lat="49.79338" lon="2.4154">
        <ele>104</ele>
        <time>2024-07-24T08:27:09Z</time>
      </trkpt>
      <trkpt lat="49.79338" lon="2.4154">
        <ele>104</ele>
        <time>2024-07-24T08:27:10Z</time>
      </trkpt>
      <trkpt lat="49.79338" lon="2.4154">
        <ele>104</ele>
        <time>2024-07-24T08:27:11Z</time>
      </trkpt>
      <trkpt lat="49.79338" lon="2.4154">
        <ele>104</ele>
        <time>2024-07-24T08:27:12Z</time>
      </trkpt>
      <trkpt lat="49.79338" lon="2.4154">
        <ele>104</ele>
        <time>2024-07-24T08:27:13Z</time>
      </trkpt>
      <trkpt lat="49.79338" lon="2.4154">
        <ele>104</ele>
        <time>2024-07-24T08:27:14Z</time>
      </trkpt>
      <trkpt lat="49.79338" lon="2.4154">
        <ele>104</ele>
        <time>2024-07-24T08:27:15Z</time>
      </trkpt>
      <trkpt lat="49.79338" lon="2.4154">
        <ele>104</ele>
        <time>2024-07-24T08:27:16Z</time>
      </trkpt>
      <trkpt lat="49.79338" lon="2.4154">
        <ele>104</ele>
        <time>2024-07-24T08:27:17Z</time>
      </trkpt>
      <trkpt lat="49.79338" lon="2.4154">
        <ele>104</ele>
        <time>2024-07-24T08:27:18Z</time>
      </trkpt>
      <trkpt lat="49.79338" lon="2.4154">
        <ele>104</ele>
        <time>2024-07-24T08:27:19Z</time>
      </trkpt>
      <trkpt lat="49.79338" lon="2.4154">
        <ele>104</ele>
        <time>2024-07-24T08:27:20Z</time>
      </trkpt>
      <trkpt lat="49.79338" lon="2.4154">
        <ele>104</ele>
        <time>2024-07-24T08:27:21Z</time>
      </trkpt>
      <trkpt lat="49.79338" lon="2.4154">
        <ele>104</ele>
        <time>2024-07-24T08:27:22Z</time>
      </trkpt>
      <trkpt lat="49.79338" lon="2.4154">
        <ele>104</ele>
        <time>2024-07-24T08:27:23Z</time>
      </trkpt>
      <trkpt lat="49.79338" lon="2.4154">
        <ele>104</ele>
        <time>2024-07-24T08:27:24Z</time>
      </trkpt>
      <trkpt lat="49.79338" lon="2.4154">
        <ele>104</ele>
        <time>2024-07-24T08:27:25Z</time>
      </trkpt>
      <trkpt lat="49.79338" lon="2.4154">
        <ele>104</ele>
        <time>2024-07-24T08:27:26Z</time>
      </trkpt>
      <trkpt lat="49.79338" lon="2.4154">
        <ele>104</ele>
        <time>2024-07-24T08:27:27Z</time>
      </trkpt>
      <trkpt lat="49.79338" lon="2.4154">
        <ele>104</ele>
        <time>2024-07-24T08:27:28Z</time>
      </trkpt>
      <trkpt lat="49.79338" lon="2.4154">
        <ele>104</ele>
        <time>2024-07-24T08:27:29Z</time>
      </trkpt>
      <trkpt lat="49.79338" lon="2.4154">
        <ele>104</ele>
        <time>2024-07-24T08:27:30Z</time>
      </trkpt>
      <trkpt lat="49.79338" lon="2.4154">
        <ele>104</ele>
        <time>2024-07-24T08:27:31Z</time>
      </trkpt>
      <trkpt lat="49.79338" lon="2.4154">
        <ele>104</ele>
        <time>2024-07-24T08:27:32Z</time>
      </trkpt>
      <trkpt lat="49.79338" lon="2.4154">
        <ele>104</ele>
        <time>2024-07-24T08:27:33Z</time>
      </trkpt>
      <trkpt lat="49.79338" lon="2.4154">
        <ele>104</ele>
        <time>2024-07-24T08:27:34Z</time>
      </trkpt>
      <trkpt lat="49.79338" lon="2.4154">
        <ele>104</ele>
        <time>2024-07-24T08:27:35Z</time>
      </trkpt>
      <trkpt lat="49.79338" lon="2.4154">
        <ele>104</ele>
        <time>2024-07-24T08:27:36Z</time>
      </trkpt>
      <trkpt lat="49.79338" lon="2.4154">
        <ele>104</ele>
        <time>2024-07-24T08:27:37Z</time>
      </trkpt>
      <trkpt lat="49.79338" lon="2.4154">
        <ele>104</ele>
        <time>2024-07-24T08:27:38Z</time>
      </trkpt>
      <trkpt lat="49.79338" lon="2.4154">
        <ele>104</ele>
        <time>2024-07-24T08:27:39Z</time>
      </trkpt>
      <trkpt lat="49.79338" lon="2.4154">
        <ele>104</ele>
        <time>2024-07-24T08:27:40Z</time>
      </trkpt>
      <trkpt lat="49.79338" lon="2.4154">
        <ele>104</ele>
        <time>2024-07-24T08:27:41Z</time>
      </trkpt>
      <trkpt lat="49.79338" lon="2.4154">
        <ele>104</ele>
        <time>2024-07-24T08:27:42Z</time>
      </trkpt>
      <trkpt lat="49.79338" lon="2.4154">
        <ele>104</ele>
        <time>2024-07-24T08:27:43Z</time>
      </trkpt>
      <trkpt lat="49.79338" lon="2.4154">
        <ele>104</ele>
        <time>2024-07-24T08:27:44Z</time>
      </trkpt>
      <trkpt lat="49.79338" lon="2.4154">
        <ele>104</ele>
        <time>2024-07-24T08:27:45Z</time>
      </trkpt>
      <trkpt lat="49.79338" lon="2.4154">
        <ele>104</ele>
        <time>2024-07-24T08:27:46Z</time>
      </trkpt>
      <trkpt lat="49.79338" lon="2.4154">
        <ele>104</ele>
        <time>2024-07-24T08:27:47Z</time>
      </trkpt>
      <trkpt lat="49.79338" lon="2.4154">
        <ele>104</ele>
        <time>2024-07-24T08:27:48Z</time>
      </trkpt>
      <trkpt lat="49.79338" lon="2.4154">
        <ele>104</ele>
        <time>2024-07-24T08:27:49Z</time>
      </trkpt>
      <trkpt lat="49.79338" lon="2.4154">
        <ele>104</ele>
        <time>2024-07-24T08:27:50Z</time>
      </trkpt>
      <trkpt lat="49.79338" lon="2.4154">
        <ele>104</ele>
        <time>2024-07-24T08:27:51Z</time>
      </trkpt>
      <trkpt lat="49.79338" lon="2.4154">
        <ele>104</ele>
        <time>2024-07-24T08:27:52Z</time>
      </trkpt>
      <trkpt lat="49.79338" lon="2.4154">
        <ele>104</ele>
        <time>2024-07-24T08:27:53Z</time>
      </trkpt>
      <trkpt lat="49.79338" lon="2.4154">
        <ele>104</ele>
        <time>2024-07-24T08:27:54Z</time>
      </trkpt>
      <trkpt lat="49.79338" lon="2.4154">
        <ele>104</ele>
        <time>2024-07-24T08:27:55Z</time>
      </trkpt>
      <trkpt lat="49.79338" lon="2.4154">
        <ele>104</ele>
        <time>2024-07-24T08:27:56Z</time>
      </trkpt>
      <trkpt lat="49.79338" lon="2.4154">
        <ele>104</ele>
        <time>2024-07-24T08:27:57Z</time>
      </trkpt>
      <trkpt lat="49.79338" lon="2.4154">
        <ele>104</ele>
        <time>2024-07-24T08:27:58Z</time>
      </trkpt>
      <trkpt lat="49.79338" lon="2.4154">
        <ele>104</ele>
        <time>2024-07-24T08:27:59Z</time>
      </trkpt>
      <trkpt lat="49.79338" lon="2.4154">
        <ele>104</ele>
        <time>2024-07-24T08:28:00Z</time>
      </trkpt>
      <trkpt lat="49.79338" lon="2.4154">
        <ele>104</ele>
        <time>2024-07-24T08:28:01Z</time>
      </trkpt>
      <trkpt lat="49.79338" lon="2.4154">
        <ele>104</ele>
        <time>2024-07-24T08:28:02Z</time>
      </trkpt>
      <trkpt lat="49.79338" lon="2.4154">
        <ele>104</ele>
        <time>2024-07-24T08:28:03Z</time>
      </trkpt>
      <trkpt lat="49.79338" lon="2.4154">
        <ele>104</ele>
        <time>2024-07-24T08:28:04Z</time>
      </trkpt>
      <trkpt lat="49.79338" lon="2.4154">
        <ele>104</ele>
        <time>2024-07-24T08:28:05Z</time>
      </trkpt>
      <trkpt lat="49.79338" lon="2.4154">
        <ele>104</ele>
        <time>2024-07-24T08:28:06Z</time>
      </trkpt>
      <trkpt lat="49.79338" lon="2.4154">
        <ele>104</ele>
        <time>2024-07-24T08:28:07Z</time>
      </trkpt>
      <trkpt lat="49.79338" lon="2.4154">
        <ele>104</ele>
        <time>2024-07-24T08:28:08Z</time>
      </trkpt>
      <trkpt lat="49.79338" lon="2.4154">
        <ele>104</ele>
        <time>2024-07-24T08:28:09Z</time>
      </trkpt>
      <trkpt lat="49.79338" lon="2.4154">
        <ele>104</ele>
        <time>2024-07-24T08:28:10Z</time>
      </trkpt>
      <trkpt lat="49.79338" lon="2.4154">
        <ele>104</ele>
        <time>2024-07-24T08:28:11Z</time>
      </trkpt>
      <trkpt lat="49.79338" lon="2.4154">
        <ele>104</ele>
        <time>2024-07-24T08:28:12Z</time>
      </trkpt>
      <trkpt lat="49.79338" lon="2.4154">
        <ele>104</ele>
        <time>2024-07-24T08:28:13Z</time>
      </trkpt>
      <trkpt lat="49.79338" lon="2.4154">
        <ele>104</ele>
        <time>2024-07-24T08:28:14Z</time>
      </trkpt>
      <trkpt lat="49.79338" lon="2.4154">
        <ele>104</ele>
        <time>2024-07-24T08:28:15Z</time>
      </trkpt>
      <trkpt lat="49.79338" lon="2.4154">
        <ele>104</ele>
        <time>2024-07-24T08:28:16Z</time>
      </trkpt>
      <trkpt lat="49.79338" lon="2.4154">
        <ele>104</ele>
        <time>2024-07-24T08:28:17Z</time>
      </trkpt>
      <trkpt lat="49.79338" lon="2.4154">
        <ele>104</ele>
        <time>2024-07-24T08:28:18Z</time>
      </trkpt>
      <trkpt lat="49.79338" lon="2.4154">
        <ele>104</ele>
        <time>2024-07-24T08:28:19Z</time>
      </trkpt>
      <trkpt lat="49.79338" lon="2.4154">
        <ele>104</ele>
        <time>2024-07-24T08:28:20Z</time>
      </trkpt>
      <trkpt lat="49.79338" lon="2.4154">
        <ele>104</ele>
        <time>2024-07-24T08:28:21Z</time>
      </trkpt>
      <trkpt lat="49.79338" lon="2.4154">
        <ele>104</ele>
        <time>2024-07-24T08:28:22Z</time>
      </trkpt>
      <trkpt lat="49.79338" lon="2.4154">
        <ele>104</ele>
        <time>2024-07-24T08:28:23Z</time>
      </trkpt>
      <trkpt lat="49.79338" lon="2.4154">
        <ele>104</ele>
        <time>2024-07-24T08:28:24Z</time>
      </trkpt>
      <trkpt lat="49.79338" lon="2.4154">
        <ele>104</ele>
        <time>2024-07-24T08:28:25Z</time>
      </trkpt>
      <trkpt lat="49.79338" lon="2.4154">
        <ele>104</ele>
        <time>2024-07-24T08:28:26Z</time>
      </trkpt>
      <trkpt lat="49.79338" lon="2.4154">
        <ele>104</ele>
        <time>2024-07-24T08:28:27Z</time>
      </trkpt>
      <trkpt lat="49.79338" lon="2.4154">
        <ele>104</ele>
        <time>2024-07-24T08:28:28Z</time>
      </trkpt>
      <trkpt lat="49.79338" lon="2.4154">
        <ele>104</ele>
        <time>2024-07-24T08:28:29Z</time>
      </trkpt>
      <trkpt lat="49.79338" lon="2.4154">
        <ele>104</ele>
        <time>2024-07-24T08:28:30Z</time>
      </trkpt>
      <trkpt lat="49.79338" lon="2.4154">
        <ele>104</ele>
        <time>2024-07-24T08:28:31Z</time>
      </trkpt>
      <trkpt lat="49.79338" lon="2.4154">
        <ele>104</ele>
        <time>2024-07-24T08:28:32Z</time>
      </trkpt>
      <trkpt lat="49.79338" lon="2.4154">
        <ele>104</ele>
        <time>2024-07-24T08:28:33Z</time>
      </trkpt>
      <trkpt lat="49.79338" lon="2.4154">
        <ele>104</ele>
        <time>2024-07-24T08:28:34Z</time>
      </trkpt>
      <trkpt lat="49.79338" lon="2.4154">
        <ele>104</ele>
        <time>2024-07-24T08:28:35Z</time>
      </trkpt>
      <trkpt lat="49.79338" lon="2.4154">
        <ele>104</ele>
        <time>2024-07-24T08:28:36Z</time>
      </trkpt>
      <trkpt lat="49.79338" lon="2.4154">
        <ele>104</ele>
        <time>2024-07-24T08:28:37Z</time>
      </trkpt>
      <trkpt lat="49.79338" lon="2.4154">
        <ele>104</ele>
        <time>2024-07-24T08:28:38Z</time>
      </trkpt>
      <trkpt lat="49.79338" lon="2.4154">
        <ele>104</ele>
        <time>2024-07-24T08:28:39Z</time>
      </trkpt>
      <trkpt lat="49.79338" lon="2.4154">
        <ele>104</ele>
        <time>2024-07-24T08:28:40Z</time>
      </trkpt>
      <trkpt lat="49.79338" lon="2.4154">
        <ele>104</ele>
        <time>2024-07-24T08:28:41Z</time>
      </trkpt>
      <trkpt lat="49.79338" lon="2.4154">
        <ele>104</ele>
        <time>2024-07-24T08:28:42Z</time>
      </trkpt>
      <trkpt lat="49.79338" lon="2.4154">
        <ele>104</ele>
        <time>2024-07-24T08:28:43Z</time>
      </trkpt>
      <trkpt lat="49.79338" lon="2.4154">
        <ele>104</ele>
        <time>2024-07-24T08:28:44Z</time>
      </trkpt>
      <trkpt lat="49.79338" lon="2.4154">
        <ele>104</ele>
        <time>2024-07-24T08:28:45Z</time>
      </trkpt>
      <trkpt lat="49.79338" lon="2.4154">
        <ele>104</ele>
        <time>2024-07-24T08:28:46Z</time>
      </trkpt>
      <trkpt lat="49.79338" lon="2.4154">
        <ele>104</ele>
        <time>2024-07-24T08:28:47Z</time>
      </trkpt>
      <trkpt lat="49.79338" lon="2.4154">
        <ele>104</ele>
        <time>2024-07-24T08:28:48Z</time>
      </trkpt>
      <trkpt lat="49.79338" lon="2.4154">
        <ele>104</ele>
        <time>2024-07-24T08:28:49Z</time>
      </trkpt>
      <trkpt lat="49.79338" lon="2.4154">
        <ele>104</ele>
        <time>2024-07-24T08:32:51Z</time>
      </trkpt>
      <trkpt lat="49.79338" lon="2.4154">
        <ele>104</ele>
        <time>2024-07-24T08:32:52Z</time>
      </trkpt>
      <trkpt lat="49.79338" lon="2.4154">
        <ele>104</ele>
        <time>2024-07-24T08:32:53Z</time>
      </trkpt>
      <trkpt lat="49.79338" lon="2.4154">
        <ele>104</ele>
        <time>2024-07-24T08:32:54Z</time>
      </trkpt>
      <trkpt lat="49.79338" lon="2.4154">
        <ele>104</ele>
        <time>2024-07-24T08:32:55Z</time>
      </trkpt>
      <trkpt lat="49.79338" lon="2.4154">
        <ele>104</ele>
        <time>2024-07-24T08:32:56Z</time>
      </trkpt>
      <trkpt lat="49.79338" lon="2.4154">
        <ele>104</ele>
        <time>2024-07-24T08:32:57Z</time>
      </trkpt>
      <trkpt lat="49.79338" lon="2.4154">
        <ele>104</ele>
        <time>2024-07-24T08:32:58Z</time>
      </trkpt>
      <trkpt lat="49.79338" lon="2.4154">
        <ele>104</ele>
        <time>2024-07-24T08:32:59Z</time>
      </trkpt>
      <trkpt lat="49.79338" lon="2.4154">
        <ele>104</ele>
        <time>2024-07-24T08:33:00Z</time>
      </trkpt>
      <trkpt lat="49.79338" lon="2.4154">
        <ele>104</ele>
        <time>2024-07-24T08:33:01Z</time>
      </trkpt>
      <trkpt lat="49.79338" lon="2.4154">
        <ele>104</ele>
        <time>2024-07-24T08:33:02Z</time>
      </trkpt>
      <trkpt lat="49.79338" lon="2.4154">
        <ele>104</ele>
        <time>2024-07-24T08:33:03Z</time>
      </trkpt>
      <trkpt lat="49.79338" lon="2.4154">
        <ele>104</ele>
        <time>2024-07-24T08:33:04Z</time>
      </trkpt>
      <trkpt lat="49.79338" lon="2.4154">
        <ele>104</ele>
        <time>2024-07-24T08:33:05Z</time>
      </trkpt>
      <trkpt lat="49.79338" lon="2.4154">
        <ele>104</ele>
        <time>2024-07-24T08:33:06Z</time>
      </trkpt>
      <trkpt lat="49.79338" lon="2.4154">
        <ele>104</ele>
        <time>2024-07-24T08:33:07Z</time>
      </trkpt>
      <trkpt lat="49.79338" lon="2.4154">
        <ele>104</ele>
        <time>2024-07-24T08:33:08Z</time>
      </trkpt>
      <trkpt lat="49.79338" lon="2.4154">
        <ele>104</ele>
        <time>2024-07-24T08:33:09Z</time>
      </trkpt>
      <trkpt lat="49.79338" lon="2.4154">
        <ele>104</ele>
        <time>2024-07-24T08:33:10Z</time>
      </trkpt>
      <trkpt lat="49.79338" lon="2.4154">
        <ele>104</ele>
        <time>2024-07-24T08:33:11Z</time>
      </trkpt>
      <trkpt lat="49.79338" lon="2.4154">
        <ele>104</ele>
        <time>2024-07-24T08:33:12Z</time>
      </trkpt>
      <trkpt lat="49.79338" lon="2.4154">
        <ele>104</ele>
        <time>2024-07-24T08:33:13Z</time>
      </trkpt>
      <trkpt lat="49.79338" lon="2.4154">
        <ele>104</ele>
        <time>2024-07-24T08:33:14Z</time>
      </trkpt>
      <trkpt lat="49.79338" lon="2.4154">
        <ele>104</ele>
        <time>2024-07-24T08:33:15Z</time>
      </trkpt>
      <trkpt lat="49.79338" lon="2.4154">
        <ele>104</ele>
        <time>2024-07-24T08:33:16Z</time>
      </trkpt>
      <trkpt lat="49.79338" lon="2.4154">
        <ele>104</ele>
        <time>2024-07-24T08:33:17Z</time>
      </trkpt>
      <trkpt lat="49.79338" lon="2.4154">
        <ele>104</ele>
        <time>2024-07-24T08:33:18Z</time>
      </trkpt>
      <trkpt lat="49.79338" lon="2.4154">
        <ele>104</ele>
        <time>2024-07-24T08:33:19Z</time>
      </trkpt>
      <trkpt lat="49.79338" lon="2.4154">
        <ele>104</ele>
        <time>2024-07-24T08:33:20Z</time>
      </trkpt>
      <trkpt lat="49.79338" lon="2.4154">
        <ele>104</ele>
        <time>2024-07-24T08:33:21Z</time>
      </trkpt>
      <trkpt lat="49.79338" lon="2.4154">
        <ele>104</ele>
        <time>2024-07-24T08:33:22Z</time>
      </trkpt>
      <trkpt lat="49.79338" lon="2.4154">
        <ele>104</ele>
        <time>2024-07-24T08:33:23Z</time>
      </trkpt>
      <trkpt lat="49.79338" lon="2.4154">
        <ele>104</ele>
        <time>2024-07-24T08:33:24Z</time>
      </trkpt>
      <trkpt lat="49.79338" lon="2.4154">
        <ele>104</ele>
        <time>2024-07-24T08:33:25Z</time>
      </trkpt>
      <trkpt lat="49.79338" lon="2.4154">
        <ele>104</ele>
        <time>2024-07-24T08:33:26Z</time>
      </trkpt>
      <trkpt lat="49.79338" lon="2.4154">
        <ele>104</ele>
        <time>2024-07-24T08:33:27Z</time>
      </trkpt>
      <trkpt lat="49.79338" lon="2.4154">
        <ele>104</ele>
        <time>2024-07-24T08:33:28Z</time>
      </trkpt>
      <trkpt lat="49.79338" lon="2.4154">
        <ele>104</ele>
        <time>2024-07-24T08:33:29Z</time>
      </trkpt>
      <trkpt lat="49.79338" lon="2.4154">
        <ele>104</ele>
        <time>2024-07-24T08:33:30Z</time>
      </trkpt>
      <trkpt lat="49.79338" lon="2.4154">
        <ele>104</ele>
        <time>2024-07-24T08:33:31Z</time>
      </trkpt>
      <trkpt lat="49.79338" lon="2.4154">
        <ele>104</ele>
        <time>2024-07-24T08:33:32Z</time>
      </trkpt>
      <trkpt lat="49.79338" lon="2.4154">
        <ele>104</ele>
        <time>2024-07-24T08:33:33Z</time>
      </trkpt>
      <trkpt lat="49.79338" lon="2.4154">
        <ele>104</ele>
        <time>2024-07-24T08:33:34Z</time>
      </trkpt>
      <trkpt lat="49.79338" lon="2.4154">
        <ele>104</ele>
        <time>2024-07-24T08:33:35Z</time>
      </trkpt>
      <trkpt lat="49.79338" lon="2.4154">
        <ele>104</ele>
        <time>2024-07-24T08:33:36Z</time>
      </trkpt>
      <trkpt lat="49.79338" lon="2.4154">
        <ele>104</ele>
        <time>2024-07-24T08:33:37Z</time>
      </trkpt>
      <trkpt lat="49.79338" lon="2.4154">
        <ele>104</ele>
        <time>2024-07-24T08:33:38Z</time>
      </trkpt>
      <trkpt lat="49.79338" lon="2.4154">
        <ele>104</ele>
        <time>2024-07-24T08:33:39Z</time>
      </trkpt>
      <trkpt lat="49.79338" lon="2.4154">
        <ele>104</ele>
        <time>2024-07-24T08:33:40Z</time>
      </trkpt>
      <trkpt lat="49.79338" lon="2.4154">
        <ele>104</ele>
        <time>2024-07-24T08:33:41Z</time>
      </trkpt>
      <trkpt lat="49.79338" lon="2.4154">
        <ele>104</ele>
        <time>2024-07-24T08:33:42Z</time>
      </trkpt>
      <trkpt lat="49.79338" lon="2.4154">
        <ele>104</ele>
        <time>2024-07-24T08:33:43Z</time>
      </trkpt>
      <trkpt lat="49.79338" lon="2.4154">
        <ele>104</ele>
        <time>2024-07-24T08:33:44Z</time>
      </trkpt>
      <trkpt lat="49.79338" lon="2.4154">
        <ele>104</ele>
        <time>2024-07-24T08:33:45Z</time>
      </trkpt>
      <trkpt lat="49.79338" lon="2.4154">
        <ele>104</ele>
        <time>2024-07-24T08:33:46Z</time>
      </trkpt>
      <trkpt lat="49.79338" lon="2.4154">
        <ele>104</ele>
        <time>2024-07-24T08:33:47Z</time>
      </trkpt>
      <trkpt lat="49.79338" lon="2.4154">
        <ele>104</ele>
        <time>2024-07-24T08:33:48Z</time>
      </trkpt>
      <trkpt lat="49.79338" lon="2.4154">
        <ele>104</ele>
        <time>2024-07-24T08:33:49Z</time>
      </trkpt>
      <trkpt lat="49.79338" lon="2.4154">
        <ele>104</ele>
        <time>2024-07-24T08:33:50Z</time>
      </trkpt>
      <trkpt lat="49.79338" lon="2.4154">
        <ele>104</ele>
        <time>2024-07-24T08:33:51Z</time>
      </trkpt>
      <trkpt lat="49.79338" lon="2.4154">
        <ele>104</ele>
        <time>2024-07-24T08:33:52Z</time>
      </trkpt>
      <trkpt lat="49.79338" lon="2.4154">
        <ele>104</ele>
        <time>2024-07-24T08:33:53Z</time>
      </trkpt>
      <trkpt lat="49.79339" lon="2.41541">
        <ele>104</ele>
        <time>2024-07-24T08:33:54Z</time>
      </trkpt>
      <trkpt lat="49.7934" lon="2.41542">
        <ele>104</ele>
        <time>2024-07-24T08:33:55Z</time>
      </trkpt>
      <trkpt lat="49.7934" lon="2.41542">
        <ele>104</ele>
        <time>2024-07-24T08:33:56Z</time>
      </trkpt>
      <trkpt lat="49.7934" lon="2.41542">
        <ele>104</ele>
        <time>2024-07-24T08:33:57Z</time>
      </trkpt>
      <trkpt lat="49.7934" lon="2.41542">
        <ele>104</ele>
        <time>2024-07-24T08:33:58Z</time>
      </trkpt>
      <trkpt lat="49.7934" lon="2.41542">
        <ele>104</ele>
        <time>2024-07-24T08:33:59Z</time>
      </trkpt>
      <trkpt lat="49.7934" lon="2.41542">
        <ele>104</ele>
        <time>2024-07-24T08:34:00Z</time>
      </trkpt>
      <trkpt lat="49.7934" lon="2.41542">
        <ele>104</ele>
        <time>2024-07-24T08:34:01Z</time>
      </trkpt>
      <trkpt lat="49.7934" lon="2.41542">
        <ele>104</ele>
        <time>2024-07-24T08:34:02Z</time>
      </trkpt>
      <trkpt lat="49.7934" lon="2.41542">
        <ele>104</ele>
        <time>2024-07-24T08:34:03Z</time>
      </trkpt>
      <trkpt lat="49.7934" lon="2.41542">
        <ele>104</ele>
        <time>2024-07-24T08:34:04Z</time>
      </trkpt>
      <trkpt lat="49.7934" lon="2.41542">
        <ele>104</ele>
        <time>2024-07-24T08:34:05Z</time>
      </trkpt>
      <trkpt lat="49.7934" lon="2.41542">
        <ele>104</ele>
        <time>2024-07-24T08:34:06Z</time>
      </trkpt>
      <trkpt lat="49.7934" lon="2.41542">
        <ele>104</ele>
        <time>2024-07-24T08:34:07Z</time>
      </trkpt>
      <trkpt lat="49.7934" lon="2.41542">
        <ele>104</ele>
        <time>2024-07-24T08:34:08Z</time>
      </trkpt>
      <trkpt lat="49.7934" lon="2.41542">
        <ele>104</ele>
        <time>2024-07-24T08:34:09Z</time>
      </trkpt>
      <trkpt lat="49.7934" lon="2.41542">
        <ele>104.1</ele>
        <time>2024-07-24T08:34:10Z</time>
      </trkpt>
      <trkpt lat="49.7934" lon="2.41542">
        <ele>104.1</ele>
        <time>2024-07-24T08:34:11Z</time>
      </trkpt>
      <trkpt lat="49.7934" lon="2.41542">
        <ele>104.1</ele>
        <time>2024-07-24T08:34:12Z</time>
      </trkpt>
      <trkpt lat="49.7934" lon="2.41542">
        <ele>104.1</ele>
        <time>2024-07-24T08:34:13Z</time>
      </trkpt>
      <trkpt lat="49.7934" lon="2.41542">
        <ele>104.1</ele>
        <time>2024-07-24T08:34:14Z</time>
      </trkpt>
      <trkpt lat="49.7934" lon="2.41542">
        <ele>104.1</ele>
        <time>2024-07-24T08:34:15Z</time>
      </trkpt>
      <trkpt lat="49.7934" lon="2.41542">
        <ele>104.1</ele>
        <time>2024-07-24T08:34:16Z</time>
      </trkpt>
      <trkpt lat="49.7934" lon="2.41542">
        <ele>104.1</ele>
        <time>2024-07-24T08:34:17Z</time>
      </trkpt>
      <trkpt lat="49.7934" lon="2.41542">
        <ele>104.1</ele>
        <time>2024-07-24T08:34:18Z</time>
      </trkpt>
      <trkpt lat="49.7934" lon="2.41542">
        <ele>104.1</ele>
        <time>2024-07-24T08:34:19Z</time>
      </trkpt>
      <trkpt lat="49.7934" lon="2.41542">
        <ele>104.1</ele>
        <time>2024-07-24T08:34:20Z</time>
      </trkpt>
      <trkpt lat="49.7934" lon="2.41542">
        <ele>104.1</ele>
        <time>2024-07-24T08:34:21Z</time>
      </trkpt>
      <trkpt lat="49.7934" lon="2.41542">
        <ele>104.1</ele>
        <time>2024-07-24T08:34:22Z</time>
      </trkpt>
      <trkpt lat="49.7934" lon="2.41542">
        <ele>104.1</ele>
        <time>2024-07-24T08:34:23Z</time>
      </trkpt>
      <trkpt lat="49.7934" lon="2.41542">
        <ele>104.1</ele>
        <time>2024-07-24T08:34:24Z</time>
      </trkpt>
      <trkpt lat="49.7934" lon="2.41542">
        <ele>104.1</ele>
        <time>2024-07-24T08:34:25Z</time>
      </trkpt>
      <trkpt lat="49.7934" lon="2.41542">
        <ele>104.1</ele>
        <time>2024-07-24T08:34:26Z</time>
      </trkpt>
      <trkpt lat="49.7934" lon="2.41542">
        <ele>104.1</ele>
        <time>2024-07-24T08:34:27Z</time>
      </trkpt>
      <trkpt lat="49.7934" lon="2.41542">
        <ele>104.1</ele>
        <time>2024-07-24T08:34:28Z</time>
      </trkpt>
      <trkpt lat="49.7934" lon="2.41542">
        <ele>104.1</ele>
        <time>2024-07-24T08:34:29Z</time>
      </trkpt>
      <trkpt lat="49.7934" lon="2.41542">
        <ele>104.1</ele>
        <time>2024-07-24T08:34:30Z</time>
      </trkpt>
      <trkpt lat="49.7934" lon="2.41542">
        <ele>104.2</ele>
        <time>2024-07-24T08:34:31Z</time>
      </trkpt>
      <trkpt lat="49.7934" lon="2.41542">
        <ele>104.2</ele>
        <time>2024-07-24T08:34:32Z</time>
      </trkpt>
      <trkpt lat="49.7934" lon="2.41542">
        <ele>104.2</ele>
        <time>2024-07-24T08:34:33Z</time>
      </trkpt>
      <trkpt lat="49.7934" lon="2.41542">
        <ele>104.2</ele>
        <time>2024-07-24T08:34:34Z</time>
      </trkpt>
      <trkpt lat="49.7934" lon="2.41542">
        <ele>104.2</ele>
        <time>2024-07-24T08:34:35Z</time>
      </trkpt>
      <trkpt lat="49.7934" lon="2.41542">
        <ele>104.2</ele>
        <time>2024-07-24T08:34:36Z</time>
      </trkpt>
      <trkpt lat="49.7934" lon="2.41542">
        <ele>104.2</ele>
        <time>2024-07-24T08:34:37Z</time>
      </trkpt>
      <trkpt lat="49.7934" lon="2.41542">
        <ele>104.2</ele>
        <time>2024-07-24T08:34:38Z</time>
      </trkpt>
      <trkpt lat="49.7934" lon="2.41542">
        <ele>104.2</ele>
        <time>2024-07-24T08:34:39Z</time>
      </trkpt>
      <trkpt lat="49.7934" lon="2.41542">
        <ele>104.2</ele>
        <time>2024-07-24T08:34:40Z</time>
      </trkpt>
      <trkpt lat="49.7934" lon="2.41542">
        <ele>104.2</ele>
        <time>2024-07-24T08:34:41Z</time>
      </trkpt>
      <trkpt lat="49.7934" lon="2.41542">
        <ele>104.2</ele>
        <time>2024-07-24T08:34:42Z</time>
      </trkpt>
      <trkpt lat="49.7934" lon="2.41542">
        <ele>104.2</ele>
        <time>2024-07-24T08:34:43Z</time>
      </trkpt>
      <trkpt lat="49.7934" lon="2.41542">
        <ele>104.2</ele>
        <time>2024-07-24T08:34:44Z</time>
      </trkpt>
      <trkpt lat="49.7934" lon="2.41542">
        <ele>104.2</ele>
        <time>2024-07-24T08:34:45Z</time>
      </trkpt>
      <trkpt lat="49.7934" lon="2.41542">
        <ele>104.2</ele>
        <time>2024-07-24T08:34:46Z</time>
      </trkpt>
      <trkpt lat="49.7934" lon="2.41542">
        <ele>104.2</ele>
        <time>2024-07-24T08:34:47Z</time>
      </trkpt>
      <trkpt lat="49.7934" lon="2.41542">
        <ele>104.2</ele>
        <time>2024-07-24T08:34:48Z</time>
      </trkpt>
      <trkpt lat="49.7934" lon="2.41542">
        <ele>104.2</ele>
        <time>2024-07-24T08:34:49Z</time>
      </trkpt>
      <trkpt lat="49.7934" lon="2.41542">
        <ele>104.2</ele>
        <time>2024-07-24T08:34:50Z</time>
      </trkpt>
      <trkpt lat="49.7934" lon="2.41542">
        <ele>104.2</ele>
        <time>2024-07-24T08:34:51Z</time>
      </trkpt>
      <trkpt lat="49.7934" lon="2.41542">
        <ele>104.3</ele>
        <time>2024-07-24T08:34:52Z</time>
      </trkpt>
      <trkpt lat="49.7934" lon="2.41542">
        <ele>104.3</ele>
        <time>2024-07-24T08:34:53Z</time>
      </trkpt>
      <trkpt lat="49.7934" lon="2.41542">
        <ele>104.3</ele>
        <time>2024-07-24T08:34:54Z</time>
      </trkpt>
      <trkpt lat="49.7934" lon="2.41542">
        <ele>104.3</ele>
        <time>2024-07-24T08:34:55Z</time>
      </trkpt>
      <trkpt lat="49.7934" lon="2.41542">
        <ele>104.3</ele>
        <time>2024-07-24T08:34:56Z</time>
      </trkpt>
      <trkpt lat="49.7934" lon="2.41542">
        <ele>104.3</ele>
        <time>2024-07-24T08:34:57Z</time>
      </trkpt>
      <trkpt lat="49.7934" lon="2.41542">
        <ele>104.3</ele>
        <time>2024-07-24T08:34:58Z</time>
      </trkpt>
      <trkpt lat="49.7934" lon="2.41542">
        <ele>104.3</ele>
        <time>2024-07-24T08:34:59Z</time>
      </trkpt>
      <trkpt lat="49.7934" lon="2.41542">
        <ele>104.3</ele>
        <time>2024-07-24T08:35:00Z</time>
      </trkpt>
      <trkpt lat="49.7934" lon="2.41542">
        <ele>104.3</ele>
        <time>2024-07-24T08:35:01Z</time>
      </trkpt>
      <trkpt lat="49.7934" lon="2.41542">
        <ele>104.3</ele>
        <time>2024-07-24T08:35:02Z</time>
      </trkpt>
      <trkpt lat="49.7934" lon="2.41542">
        <ele>104.3</ele>
        <time>2024-07-24T08:35:03Z</time>
      </trkpt>
      <trkpt lat="49.7934" lon="2.41542">
        <ele>104.3</ele>
        <time>2024-07-24T08:35:04Z</time>
      </trkpt>
      <trkpt lat="49.7934" lon="2.41542">
        <ele>104.3</ele>
        <time>2024-07-24T08:35:05Z</time>
      </trkpt>
      <trkpt lat="49.7934" lon="2.41542">
        <ele>104.3</ele>
        <time>2024-07-24T08:35:06Z</time>
      </trkpt>
      <trkpt lat="49.7934" lon="2.41542">
        <ele>104.3</ele>
        <time>2024-07-24T08:35:07Z</time>
      </trkpt>
      <trkpt lat="49.7934" lon="2.41542">
        <ele>104.3</ele>
        <time>2024-07-24T08:35:08Z</time>
      </trkpt>
      <trkpt lat="49.7934" lon="2.41542">
        <ele>104.3</ele>
        <time>2024-07-24T08:35:09Z</time>
      </trkpt>
      <trkpt lat="49.7934" lon="2.41542">
        <ele>104.3</ele>
        <time>2024-07-24T08:35:10Z</time>
      </trkpt>
      <trkpt lat="49.7934" lon="2.41542">
        <ele>104.3</ele>
        <time>2024-07-24T08:35:11Z</time>
      </trkpt>
      <trkpt lat="49.7934" lon="2.41542">
        <ele>104.3</ele>
        <time>2024-07-24T08:35:12Z</time>
      </trkpt>
      <trkpt lat="49.7934" lon="2.41542">
        <ele>104.4</ele>
        <time>2024-07-24T08:35:13Z</time>
      </trkpt>
      <trkpt lat="49.7934" lon="2.41542">
        <ele>104.4</ele>
        <time>2024-07-24T08:35:14Z</time>
      </trkpt>
      <trkpt lat="49.7934" lon="2.41542">
        <ele>104.4</ele>
        <time>2024-07-24T08:35:15Z</time>
      </trkpt>
      <trkpt lat="49.7934" lon="2.41542">
        <ele>104.4</ele>
        <time>2024-07-24T08:35:16Z</time>
      </trkpt>
      <trkpt lat="49.7934" lon="2.41542">
        <ele>104.4</ele>
        <time>2024-07-24T08:35:17Z</time>
      </trkpt>
      <trkpt lat="49.7934" lon="2.41542">
        <ele>104.4</ele>
        <time>2024-07-24T08:35:18Z</time>
      </trkpt>
      <trkpt lat="49.7934" lon="2.41542">
        <ele>104.4</ele>
        <time>2024-07-24T08:35:19Z</time>
      </trkpt>
      <trkpt lat="49.7934" lon="2.41542">
        <ele>104.4</ele>
        <time>2024-07-24T08:35:20Z</time>
      </trkpt>
      <trkpt lat="49.7934" lon="2.41542">
        <ele>104.4</ele>
        <time>2024-07-24T08:35:21Z</time>
      </trkpt>
      <trkpt lat="49.7934" lon="2.41542">
        <ele>104.4</ele>
        <time>2024-07-24T08:35:22Z</time>
      </trkpt>
      <trkpt lat="49.7934" lon="2.41542">
        <ele>104.4</ele>
        <time>2024-07-24T08:35:23Z</time>
      </trkpt>
      <trkpt lat="49.7934" lon="2.41542">
        <ele>104.4</ele>
        <time>2024-07-24T08:35:24Z</time>
      </trkpt>
      <trkpt lat="49.7934" lon="2.41542">
        <ele>104.4</ele>
        <time>2024-07-24T08:35:25Z</time>
      </trkpt>
      <trkpt lat="49.7934" lon="2.41542">
        <ele>104.4</ele>
        <time>2024-07-24T08:35:26Z</time>
      </trkpt>
      <trkpt lat="49.7934" lon="2.41542">
        <ele>104.4</ele>
        <time>2024-07-24T08:35:27Z</time>
      </trkpt>
      <trkpt lat="49.7934" lon="2.41542">
        <ele>104.4</ele>
        <time>2024-07-24T08:35:28Z</time>
      </trkpt>
      <trkpt lat="49.7934" lon="2.41542">
        <ele>104.4</ele>
        <time>2024-07-24T08:35:29Z</time>
      </trkpt>
      <trkpt lat="49.7934" lon="2.41542">
        <ele>104.4</ele>
        <time>2024-07-24T08:35:31Z</time>
      </trkpt>
      <trkpt lat="49.7934" lon="2.41542">
        <ele>104.4</ele>
        <time>2024-07-24T08:35:33Z</time>
      </trkpt>
      <trkpt lat="49.7934" lon="2.41542">
        <ele>104.4</ele>
        <time>2024-07-24T08:35:35Z</time>
      </trkpt>
      <trkpt lat="49.7934" lon="2.41542">
        <ele>104.4</ele>
        <time>2024-07-24T08:35:37Z</time>
      </trkpt>
      <trkpt lat="49.7934" lon="2.41542">
        <ele>104.5</ele>
        <time>2024-07-24T08:35:39Z</time>
      </trkpt>
      <trkpt lat="49.7934" lon="2.41542">
        <ele>104.5</ele>
        <time>2024-07-24T08:35:41Z</time>
      </trkpt>
      <trkpt lat="49.7934" lon="2.41542">
        <ele>104.5</ele>
        <time>2024-07-24T08:35:43Z</time>
      </trkpt>
      <trkpt lat="49.7934" lon="2.41542">
        <ele>104.5</ele>
        <time>2024-07-24T08:35:45Z</time>
      </trkpt>
      <trkpt lat="49.7934" lon="2.41542">
        <ele>104.5</ele>
        <time>2024-07-24T08:35:47Z</time>
      </trkpt>
      <trkpt lat="49.7934" lon="2.41542">
        <ele>104.5</ele>
        <time>2024-07-24T08:35:49Z</time>
      </trkpt>
      <trkpt lat="49.7934" lon="2.41542">
        <ele>104.5</ele>
        <time>2024-07-24T08:35:51Z</time>
      </trkpt>
      <trkpt lat="49.7934" lon="2.41542">
        <ele>104.5</ele>
        <time>2024-07-24T08:35:53Z</time>
      </trkpt>
      <trkpt lat="49.7934" lon="2.41542">
        <ele>104.5</ele>
        <time>2024-07-24T08:35:55Z</time>
      </trkpt>
      <trkpt lat="49.7934" lon="2.41542">
        <ele>104.5</ele>
        <time>2024-07-24T08:35:57Z</time>
      </trkpt>
      <trkpt lat="49.7934" lon="2.41542">
        <ele>104.5</ele>
        <time>2024-07-24T08:35:59Z</time>
      </trkpt>
      <trkpt lat="49.7934" lon="2.41542">
        <ele>104.5</ele>
        <time>2024-07-24T08:36:01Z</time>
      </trkpt>
      <trkpt lat="49.7934" lon="2.41542">
        <ele>104.5</ele>
        <time>2024-07-24T08:36:03Z</time>
      </trkpt>
      <trkpt lat="49.7934" lon="2.41542">
        <ele>104.5</ele>
        <time>2024-07-24T08:36:05Z</time>
      </trkpt>
      <trkpt lat="49.7934" lon="2.41542">
        <ele>104.5</ele>
        <time>2024-07-24T08:36:07Z</time>
      </trkpt>
      <trkpt lat="49.7934" lon="2.41542">
        <ele>104.5</ele>
        <time>2024-07-24T08:36:09Z</time>
      </trkpt>
      <trkpt lat="49.7934" lon="2.41542">
        <ele>104.5</ele>
        <time>2024-07-24T08:36:11Z</time>
      </trkpt>
      <trkpt lat="49.7934" lon="2.41542">
        <ele>104.5</ele>
        <time>2024-07-24T08:36:13Z</time>
      </trkpt>
      <trkpt lat="49.7934" lon="2.41542">
        <ele>104.5</ele>
        <time>2024-07-24T08:36:15Z</time>
      </trkpt>
      <trkpt lat="49.7934" lon="2.41542">
        <ele>104.5</ele>
        <time>2024-07-24T08:36:17Z</time>
      </trkpt>
      <trkpt lat="49.7934" lon="2.41542">
        <ele>104.6</ele>
        <time>2024-07-24T08:36:19Z</time>
      </trkpt>
      <trkpt lat="49.7934" lon="2.41542">
        <ele>104.6</ele>
        <time>2024-07-24T08:36:21Z</time>
      </trkpt>
      <trkpt lat="49.7934" lon="2.41542">
        <ele>104.6</ele>
        <time>2024-07-24T08:36:23Z</time>
      </trkpt>
      <trkpt lat="49.7934" lon="2.41542">
        <ele>104.6</ele>
        <time>2024-07-24T08:36:25Z</time>
      </trkpt>
      <trkpt lat="49.7934" lon="2.41542">
        <ele>104.6</ele>
        <time>2024-07-24T08:36:27Z</time>
      </trkpt>
      <trkpt lat="49.7934" lon="2.41542">
        <ele>104.6</ele>
        <time>2024-07-24T08:36:29Z</time>
      </trkpt>
      <trkpt lat="49.7934" lon="2.41542">
        <ele>104.6</ele>
        <time>2024-07-24T08:36:31Z</time>
      </trkpt>
      <trkpt lat="49.7934" lon="2.41542">
        <ele>104.6</ele>
        <time>2024-07-24T08:36:33Z</time>
      </trkpt>
      <trkpt lat="49.7934" lon="2.41542">
        <ele>104.6</ele>
        <time>2024-07-24T08:36:35Z</time>
      </trkpt>
      <trkpt lat="49.7934" lon="2.41542">
        <ele>104.6</ele>
        <time>2024-07-24T08:36:37Z</time>
      </trkpt>
      <trkpt lat="49.7934" lon="2.41542">
        <ele>104.6</ele>
        <time>2024-07-24T08:36:39Z</time>
      </trkpt>
      <trkpt lat="49.7934" lon="2.41542">
        <ele>104.6</ele>
        <time>2024-07-24T08:36:41Z</time>
      </trkpt>
      <trkpt lat="49.7934" lon="2.41542">
        <ele>104.6</ele>
        <time>2024-07-24T08:36:43Z</time>
      </trkpt>
      <trkpt lat="49.7934" lon="2.41542">
        <ele>104.6</ele>
        <time>2024-07-24T08:36:45Z</time>
      </trkpt>
      <trkpt lat="49.7934" lon="2.41542">
        <ele>104.6</ele>
        <time>2024-07-24T08:36:47Z</time>
      </trkpt>
      <trkpt lat="49.7934" lon="2.41542">
        <ele>104.6</ele>
        <time>2024-07-24T08:36:49Z</time>
      </trkpt>
      <trkpt lat="49.7934" lon="2.41542">
        <ele>104.6</ele>
        <time>2024-07-24T08:36:52Z</time>
      </trkpt>
      <trkpt lat="49.7934" lon="2.41542">
        <ele>104.6</ele>
        <time>2024-07-24T08:36:54Z</time>
      </trkpt>
      <trkpt lat="49.7934" lon="2.41542">
        <ele>104.6</ele>
        <time>2024-07-24T08:36:56Z</time>
      </trkpt>
      <trkpt lat="49.7934" lon="2.41542">
        <ele>104.6</ele>
        <time>2024-07-24T08:36:58Z</time>
      </trkpt>
      <trkpt lat="49.7934" lon="2.41542">
        <ele>104.6</ele>
        <time>2024-07-24T08:37:00Z</time>
      </trkpt>
      <trkpt lat="49.7934" lon="2.41542">
        <ele>104.7</ele>
        <time>2024-07-24T08:37:02Z</time>
      </trkpt>
      <trkpt lat="49.7934" lon="2.41542">
        <ele>104.7</ele>
        <time>2024-07-24T08:37:04Z</time>
      </trkpt>
      <trkpt lat="49.7934" lon="2.41542">
        <ele>104.7</ele>
        <time>2024-07-24T08:37:06Z</time>
      </trkpt>
      <trkpt lat="49.7934" lon="2.41542">
        <ele>104.7</ele>
        <time>2024-07-24T08:37:08Z</time>
      </trkpt>
      <trkpt lat="49.7934" lon="2.41542">
        <ele>104.7</ele>
        <time>2024-07-24T08:37:10Z</time>
      </trkpt>
      <trkpt lat="49.7934" lon="2.41542">
        <ele>104.7</ele>
        <time>2024-07-24T08:37:12Z</time>
      </trkpt>
      <trkpt lat="49.7934" lon="2.41542">
        <ele>104.7</ele>
        <time>2024-07-24T08:37:14Z</time>
      </trkpt>
      <trkpt lat="49.7934" lon="2.41542">
        <ele>104.7</ele>
        <time>2024-07-24T08:37:16Z</time>
      </trkpt>
      <trkpt lat="49.7934" lon="2.41542">
        <ele>104.7</ele>
        <time>2024-07-24T08:37:18Z</time>
      </trkpt>
      <trkpt lat="49.7934" lon="2.41542">
        <ele>104.7</ele>
        <time>2024-07-24T08:37:20Z</time>
      </trkpt>
      <trkpt lat="49.7934" lon="2.41542">
        <ele>104.7</ele>
        <time>2024-07-24T08:37:22Z</time>
      </trkpt>
      <trkpt lat="49.7934" lon="2.41542">
        <ele>104.7</ele>
        <time>2024-07-24T08:37:24Z</time>
      </trkpt>
      <trkpt lat="49.7934" lon="2.41542">
        <ele>104.7</ele>
        <time>2024-07-24T08:37:26Z</time>
      </trkpt>
      <trkpt lat="49.7934" lon="2.41542">
        <ele>104.7</ele>
        <time>2024-07-24T08:37:28Z</time>
      </trkpt>
      <trkpt lat="49.7934" lon="2.41542">
        <ele>104.7</ele>
        <time>2024-07-24T08:37:30Z</time>
      </trkpt>
      <trkpt lat="49.7934" lon="2.41542">
        <ele>104.7</ele>
        <time>2024-07-24T08:37:32Z</time>
      </trkpt>
      <trkpt lat="49.7934" lon="2.41542">
        <ele>104.7</ele>
        <time>2024-07-24T08:37:34Z</time>
      </trkpt>
      <trkpt lat="49.7934" lon="2.41542">
        <ele>104.7</ele>
        <time>2024-07-24T08:38:28Z</time>
      </trkpt>
      <trkpt lat="49.7934" lon="2.41542">
        <ele>104.7</ele>
        <time>2024-07-24T08:38:30Z</time>
      </trkpt>
      <trkpt lat="49.7934" lon="2.41542">
        <ele>104.7</ele>
        <time>2024-07-24T08:38:32Z</time>
      </trkpt>
      <trkpt lat="49.7934" lon="2.41542">
        <ele>104.7</ele>
        <time>2024-07-24T08:38:34Z</time>
      </trkpt>
      <trkpt lat="49.7934" lon="2.41542">
        <ele>104.8</ele>
        <time>2024-07-24T08:38:36Z</time>
      </trkpt>
      <trkpt lat="49.7934" lon="2.41542">
        <ele>104.8</ele>
        <time>2024-07-24T08:38:38Z</time>
      </trkpt>
      <trkpt lat="49.7934" lon="2.41542">
        <ele>104.8</ele>
        <time>2024-07-24T08:38:40Z</time>
      </trkpt>
      <trkpt lat="49.7934" lon="2.41542">
        <ele>104.8</ele>
        <time>2024-07-24T08:38:42Z</time>
      </trkpt>
      <trkpt lat="49.7934" lon="2.41542">
        <ele>104.8</ele>
        <time>2024-07-24T08:38:44Z</time>
      </trkpt>
      <trkpt lat="49.7934" lon="2.41542">
        <ele>104.8</ele>
        <time>2024-07-24T08:38:46Z</time>
      </trkpt>
      <trkpt lat="49.7934" lon="2.41542">
        <ele>104.8</ele>
        <time>2024-07-24T08:38:48Z</time>
      </trkpt>
      <trkpt lat="49.7934" lon="2.41542">
        <ele>104.8</ele>
        <time>2024-07-24T08:38:50Z</time>
      </trkpt>
      <trkpt lat="49.7934" lon="2.41542">
        <ele>104.8</ele>
        <time>2024-07-24T08:38:52Z</time>
      </trkpt>
      <trkpt lat="49.7934" lon="2.41542">
        <ele>104.8</ele>
        <time>2024-07-24T08:38:54Z</time>
      </trkpt>
      <trkpt lat="49.7934" lon="2.41542">
        <ele>104.8</ele>
        <time>2024-07-24T08:38:56Z</time>
      </trkpt>
      <trkpt lat="49.7934" lon="2.41542">
        <ele>104.8</ele>
        <time>2024-07-24T08:38:58Z</time>
      </trkpt>
      <trkpt lat="49.7934" lon="2.41542">
        <ele>104.8</ele>
        <time>2024-07-24T08:39:00Z</time>
      </trkpt>
      <trkpt lat="49.7934" lon="2.41542">
        <ele>104.8</ele>
        <time>2024-07-24T08:39:02Z</time>
      </trkpt>
      <trkpt lat="49.7934" lon="2.41542">
        <ele>104.8</ele>
        <time>2024-07-24T08:39:04Z</time>
      </trkpt>
      <trkpt lat="49.7934" lon="2.41542">
        <ele>104.8</ele>
        <time>2024-07-24T08:39:06Z</time>
      </trkpt>
      <trkpt lat="49.7934" lon="2.41542">
        <ele>104.8</ele>
        <time>2024-07-24T08:39:08Z</time>
      </trkpt>
      <trkpt lat="49.7934" lon="2.41542">
        <ele>104.8</ele>
        <time>2024-07-24T08:39:10Z</time>
      </trkpt>
      <trkpt lat="49.7934" lon="2.41542">
        <ele>104.8</ele>
        <time>2024-07-24T08:39:12Z</time>
      </trkpt>
      <trkpt lat="49.7934" lon="2.41542">
        <ele>104.8</ele>
        <time>2024-07-24T08:39:14Z</time>
      </trkpt>
      <trkpt lat="49.7934" lon="2.41542">
        <ele>104.8</ele>
        <time>2024-07-24T08:39:16Z</time>
      </trkpt>
      <trkpt lat="49.7934" lon="2.41542">
        <ele>104.9</ele>
        <time>2024-07-24T08:39:18Z</time>
      </trkpt>
      <trkpt lat="49.7934" lon="2.41542">
        <ele>104.9</ele>
        <time>2024-07-24T08:39:20Z</time>
      </trkpt>
      <trkpt lat="49.7934" lon="2.41542">
        <ele>104.9</ele>
        <time>2024-07-24T08:39:22Z</time>
      </trkpt>
      <trkpt lat="49.7934" lon="2.41542">
        <ele>104.9</ele>
        <time>2024-07-24T08:39:24Z</time>
      </trkpt>
      <trkpt lat="49.7934" lon="2.41542">
        <ele>104.9</ele>
        <time>2024-07-24T08:39:26Z</time>
      </trkpt>
      <trkpt lat="49.7934" lon="2.41542">
        <ele>104.9</ele>
        <time>2024-07-24T08:39:28Z</time>
      </trkpt>
      <trkpt lat="49.7934" lon="2.41542">
        <ele>104.9</ele>
        <time>2024-07-24T08:39:30Z</time>
      </trkpt>
      <trkpt lat="49.7934" lon="2.41542">
        <ele>104.9</ele>
        <time>2024-07-24T08:39:32Z</time>
      </trkpt>
      <trkpt lat="49.7934" lon="2.41542">
        <ele>104.9</ele>
        <time>2024-07-24T08:39:34Z</time>
      </trkpt>
      <trkpt lat="49.7934" lon="2.41542">
        <ele>104.9</ele>
        <time>2024-07-24T08:39:36Z</time>
      </trkpt>
      <trkpt lat="49.7934" lon="2.41542">
        <ele>104.9</ele>
        <time>2024-07-24T08:39:38Z</time>
      </trkpt>
      <trkpt lat="49.7934" lon="2.41542">
        <ele>104.9</ele>
        <time>2024-07-24T08:39:40Z</time>
      </trkpt>
      <trkpt lat="49.7934" lon="2.41542">
        <ele>104.9</ele>
        <time>2024-07-24T08:39:42Z</time>
      </trkpt>
      <trkpt lat="49.7934" lon="2.41542">
        <ele>104.9</ele>
        <time>2024-07-24T08:39:44Z</time>
      </trkpt>
      <trkpt lat="49.7934" lon="2.41542">
        <ele>104.9</ele>
        <time>2024-07-24T08:39:46Z</time>
      </trkpt>
      <trkpt lat="49.7934" lon="2.41542">
        <ele>104.9</ele>
        <time>2024-07-24T08:39:48Z</time>
      </trkpt>
      <trkpt lat="49.7934" lon="2.41542">
        <ele>104.9</ele>
        <time>2024-07-24T08:39:50Z</time>
      </trkpt>
      <trkpt lat="49.7934" lon="2.41542">
        <ele>104.9</ele>
        <time>2024-07-24T08:39:52Z</time>
      </trkpt>
      <trkpt lat="49.7934" lon="2.41542">
        <ele>104.9</ele>
        <time>2024-07-24T08:39:54Z</time>
      </trkpt>
      <trkpt lat="49.7934" lon="2.41542">
        <ele>104.9</ele>
        <time>2024-07-24T08:39:56Z</time>
      </trkpt>
      <trkpt lat="49.7934" lon="2.41542">
        <ele>104.9</ele>
        <time>2024-07-24T08:39:58Z</time>
      </trkpt>
      <trkpt lat="49.7934" lon="2.41542">
        <ele>105</ele>
        <time>2024-07-24T08:40:00Z</time>
      </trkpt>
      <trkpt lat="49.7934" lon="2.41542">
        <ele>105</ele>
        <time>2024-07-24T08:40:02Z</time>
      </trkpt>
      <trkpt lat="49.7934" lon="2.41542">
        <ele>105</ele>
        <time>2024-07-24T08:40:04Z</time>
      </trkpt>
      <trkpt lat="49.7934" lon="2.41542">
        <ele>105</ele>
        <time>2024-07-24T08:40:06Z</time>
      </trkpt>
      <trkpt lat="49.7934" lon="2.41542">
        <ele>105</ele>
        <time>2024-07-24T08:40:08Z</time>
      </trkpt>
      <trkpt lat="49.7934" lon="2.41542">
        <ele>105</ele>
        <time>2024-07-24T08:40:10Z</time>
      </trkpt>
      <trkpt lat="49.7934" lon="2.41542">
        <ele>105</ele>
        <time>2024-07-24T08:40:12Z</time>
      </trkpt>
      <trkpt lat="49.7934" lon="2.41542">
        <ele>105</ele>
        <time>2024-07-24T08:40:14Z</time>
      </trkpt>
      <trkpt lat="49.7934" lon="2.41542">
        <ele>105</ele>
        <time>2024-07-24T08:40:16Z</time>
      </trkpt>
      <trkpt lat="49.7934" lon="2.41542">
        <ele>105</ele>
        <time>2024-07-24T08:40:18Z</time>
      </trkpt>
      <trkpt lat="49.7934" lon="2.41542">
        <ele>105</ele>
        <time>2024-07-24T08:40:20Z</time>
      </trkpt>
      <trkpt lat="49.7934" lon="2.41542">
        <ele>105</ele>
        <time>2024-07-24T08:40:22Z</time>
      </trkpt>
      <trkpt lat="49.7934" lon="2.41542">
        <ele>105</ele>
        <time>2024-07-24T08:40:24Z</time>
      </trkpt>
      <trkpt lat="49.7934" lon="2.41542">
        <ele>105</ele>
        <time>2024-07-24T08:40:26Z</time>
      </trkpt>
      <trkpt lat="49.7934" lon="2.41542">
        <ele>105</ele>
        <time>2024-07-24T08:40:28Z</time>
      </trkpt>
      <trkpt lat="49.7934" lon="2.41542">
        <ele>105</ele>
        <time>2024-07-24T08:40:30Z</time>
      </trkpt>
      <trkpt lat="49.7934" lon="2.41542">
        <ele>105</ele>
        <time>2024-07-24T08:40:32Z</time>
      </trkpt>
      <trkpt lat="49.7934" lon="2.41542">
        <ele>105</ele>
        <time>2024-07-24T08:40:34Z</time>
      </trkpt>
      <trkpt lat="49.7934" lon="2.41542">
        <ele>105</ele>
        <time>2024-07-24T08:40:36Z</time>
      </trkpt>
      <trkpt lat="49.7934" lon="2.41542">
        <ele>105</ele>
        <time>2024-07-24T08:40:38Z</time>
      </trkpt>
      <trkpt lat="49.7934" lon="2.41542">
        <ele>105.1</ele>
        <time>2024-07-24T08:40:40Z</time>
      </trkpt>
      <trkpt lat="49.7934" lon="2.41542">
        <ele>105.1</ele>
        <time>2024-07-24T08:40:42Z</time>
      </trkpt>
      <trkpt lat="49.7934" lon="2.41542">
        <ele>105.1</ele>
        <time>2024-07-24T08:40:44Z</time>
      </trkpt>
      <trkpt lat="49.7934" lon="2.41542">
        <ele>105.1</ele>
        <time>2024-07-24T08:40:46Z</time>
      </trkpt>
      <trkpt lat="49.7934" lon="2.41542">
        <ele>105.1</ele>
        <time>2024-07-24T08:40:48Z</time>
      </trkpt>
      <trkpt lat="49.7934" lon="2.41542">
        <ele>105.1</ele>
        <time>2024-07-24T08:40:50Z</time>
      </trkpt>
      <trkpt lat="49.7934" lon="2.41542">
        <ele>105.1</ele>
        <time>2024-07-24T08:40:52Z</time>
      </trkpt>
      <trkpt lat="49.7934" lon="2.41542">
        <ele>105.1</ele>
        <time>2024-07-24T08:40:54Z</time>
      </trkpt>
      <trkpt lat="49.7934" lon="2.41542">
        <ele>105.1</ele>
        <time>2024-07-24T08:40:56Z</time>
      </trkpt>
      <trkpt lat="49.7934" lon="2.41542">
        <ele>105.1</ele>
        <time>2024-07-24T08:40:58Z</time>
      </trkpt>
      <trkpt lat="49.7934" lon="2.41542">
        <ele>105.1</ele>
        <time>2024-07-24T08:41:00Z</time>
      </trkpt>
      <trkpt lat="49.7934" lon="2.41542">
        <ele>105.1</ele>
        <time>2024-07-24T08:41:02Z</time>
      </trkpt>
      <trkpt lat="49.7934" lon="2.41542">
        <ele>105.1</ele>
        <time>2024-07-24T08:41:04Z</time>
      </trkpt>
      <trkpt lat="49.7934" lon="2.41542">
        <ele>105.1</ele>
        <time>2024-07-24T08:41:06Z</time>
      </trkpt>
      <trkpt lat="49.7934" lon="2.41542">
        <ele>105.1</ele>
        <time>2024-07-24T08:41:08Z</time>
      </trkpt>
      <trkpt lat="49.7934" lon="2.41542">
        <ele>105.1</ele>
        <time>2024-07-24T08:41:10Z</time>
      </trkpt>
      <trkpt lat="49.7934" lon="2.41542">
        <ele>105.1</ele>
        <time>2024-07-24T08:41:12Z</time>
      </trkpt>
      <trkpt lat="49.7934" lon="2.41542">
        <ele>105.1</ele>
        <time>2024-07-24T08:41:14Z</time>
      </trkpt>
      <trkpt lat="49.7934" lon="2.41542">
        <ele>105.1</ele>
        <time>2024-07-24T08:41:16Z</time>
      </trkpt>
      <trkpt lat="49.7934" lon="2.41542">
        <ele>105.1</ele>
        <time>2024-07-24T08:41:18Z</time>
      </trkpt>
      <trkpt lat="49.7934" lon="2.41542">
        <ele>105.1</ele>
        <time>2024-07-24T08:41:20Z</time>
      </trkpt>
      <trkpt lat="49.7934" lon="2.41542">
        <ele>105.2</ele>
        <time>2024-07-24T08:41:22Z</time>
      </trkpt>
      <trkpt lat="49.7934" lon="2.41542">
        <ele>105.2</ele>
        <time>2024-07-24T08:41:24Z</time>
      </trkpt>
      <trkpt lat="49.7934" lon="2.41542">
        <ele>105.2</ele>
        <time>2024-07-24T08:41:26Z</time>
      </trkpt>
      <trkpt lat="49.7934" lon="2.41542">
        <ele>105.2</ele>
        <time>2024-07-24T08:41:28Z</time>
      </trkpt>
      <trkpt lat="49.7934" lon="2.41542">
        <ele>105.2</ele>
        <time>2024-07-24T08:41:30Z</time>
      </trkpt>
      <trkpt lat="49.7934" lon="2.41542">
        <ele>105.2</ele>
        <time>2024-07-24T08:41:32Z</time>
      </trkpt>
      <trkpt lat="49.7934" lon="2.41542">
        <ele>105.2</ele>
        <time>2024-07-24T08:41:34Z</time>
      </trkpt>
      <trkpt lat="49.7934" lon="2.41542">
        <ele>105.2</ele>
        <time>2024-07-24T08:41:36Z</time>
      </trkpt>
      <trkpt lat="49.7934" lon="2.41542">
        <ele>105.2</ele>
        <time>2024-07-24T08:41:38Z</time>
      </trkpt>
      <trkpt lat="49.7934" lon="2.41542">
        <ele>105.2</ele>
        <time>2024-07-24T08:41:40Z</time>
      </trkpt>
      <trkpt lat="49.7934" lon="2.41542">
        <ele>105.2</ele>
        <time>2024-07-24T08:51:39Z</time>
      </trkpt>
      <trkpt lat="49.7934" lon="2.41542">
        <ele>105.2</ele>
        <time>2024-07-24T08:51:41Z</time>
      </trkpt>
      <trkpt lat="49.7934" lon="2.41542">
        <ele>105.2</ele>
        <time>2024-07-24T08:51:43Z</time>
      </trkpt>
      <trkpt lat="49.7934" lon="2.41542">
        <ele>105.2</ele>
        <time>2024-07-24T08:51:45Z</time>
      </trkpt>
      <trkpt lat="49.7934" lon="2.41542">
        <ele>105.2</ele>
        <time>2024-07-24T08:51:47Z</time>
      </trkpt>
      <trkpt lat="49.7934" lon="2.41542">
        <ele>105.2</ele>
        <time>2024-07-24T08:51:49Z</time>
      </trkpt>
      <trkpt lat="49.7934" lon="2.41542">
        <ele>105.2</ele>
        <time>2024-07-24T08:51:51Z</time>
      </trkpt>
      <trkpt lat="49.7934" lon="2.41542">
        <ele>105.2</ele>
        <time>2024-07-24T08:51:53Z</time>
      </trkpt>
      <trkpt lat="49.7934" lon="2.41542">
        <ele>105.2</ele>
        <time>2024-07-24T08:51:55Z</time>
      </trkpt>
      <trkpt lat="49.7934" lon="2.41542">
        <ele>105.2</ele>
        <time>2024-07-24T08:51:57Z</time>
      </trkpt>
      <trkpt lat="49.7934" lon="2.41542">
        <ele>105.2</ele>
        <time>2024-07-24T08:51:59Z</time>
      </trkpt>
      <trkpt lat="49.7934" lon="2.41542">
        <ele>105.3</ele>
        <time>2024-07-24T08:52:01Z</time>
      </trkpt>
      <trkpt lat="49.7934" lon="2.41542">
        <ele>105.3</ele>
        <time>2024-07-24T08:52:03Z</time>
      </trkpt>
      <trkpt lat="49.7934" lon="2.41542">
        <ele>105.3</ele>
        <time>2024-07-24T08:52:05Z</time>
      </trkpt>
      <trkpt lat="49.7934" lon="2.41542">
        <ele>105.3</ele>
        <time>2024-07-24T08:52:07Z</time>
      </trkpt>
      <trkpt lat="49.7934" lon="2.41542">
        <ele>105.3</ele>
        <time>2024-07-24T08:52:09Z</time>
      </trkpt>
      <trkpt lat="49.7934" lon="2.41542">
        <ele>105.3</ele>
        <time>2024-07-24T08:52:11Z</time>
      </trkpt>
      <trkpt lat="49.7934" lon="2.41542">
        <ele>105.3</ele>
        <time>2024-07-24T08:52:13Z</time>
      </trkpt>
      <trkpt lat="49.7934" lon="2.41542">
        <ele>105.3</ele>
        <time>2024-07-24T08:52:15Z</time>
      </trkpt>
      <trkpt lat="49.7934" lon="2.41542">
        <ele>105.3</ele>
        <time>2024-07-24T08:52:17Z</time>
      </trkpt>
      <trkpt lat="49.7934" lon="2.41542">
        <ele>105.3</ele>
        <time>2024-07-24T08:52:19Z</time>
      </trkpt>
      <trkpt lat="49.7934" lon="2.41542">
        <ele>105.3</ele>
        <time>2024-07-24T08:52:21Z</time>
      </trkpt>
      <trkpt lat="49.7934" lon="2.41542">
        <ele>105.3</ele>
        <time>2024-07-24T08:52:23Z</time>
      </trkpt>
      <trkpt lat="49.7934" lon="2.41542">
        <ele>105.3</ele>
        <time>2024-07-24T08:52:25Z</time>
      </trkpt>
      <trkpt lat="49.7934" lon="2.41542">
        <ele>105.3</ele>
        <time>2024-07-24T08:52:27Z</time>
      </trkpt>
      <trkpt lat="49.7934" lon="2.41542">
        <ele>105.3</ele>
        <time>2024-07-24T08:52:29Z</time>
      </trkpt>
      <trkpt lat="49.7934" lon="2.41542">
        <ele>105.3</ele>
        <time>2024-07-24T08:52:31Z</time>
      </trkpt>
      <trkpt lat="49.7934" lon="2.41542">
        <ele>105.3</ele>
        <time>2024-07-24T08:52:33Z</time>
      </trkpt>
      <trkpt lat="49.7934" lon="2.41542">
        <ele>105.3</ele>
        <time>2024-07-24T08:52:35Z</time>
      </trkpt>
      <trkpt lat="49.7934" lon="2.41542">
        <ele>105.3</ele>
        <time>2024-07-24T08:52:37Z</time>
      </trkpt>
      <trkpt lat="49.7934" lon="2.41542">
        <ele>105.3</ele>
        <time>2024-07-24T08:52:40Z</time>
      </trkpt>
      <trkpt lat="49.7934" lon="2.41542">
        <ele>105.3</ele>
        <time>2024-07-24T08:52:42Z</time>
      </trkpt>
      <trkpt lat="49.7934" lon="2.41542">
        <ele>105.4</ele>
        <time>2024-07-24T08:52:44Z</time>
      </trkpt>
      <trkpt lat="49.7934" lon="2.41542">
        <ele>105.4</ele>
        <time>2024-07-24T08:52:46Z</time>
      </trkpt>
      <trkpt lat="49.7934" lon="2.41542">
        <ele>105.4</ele>
        <time>2024-07-24T08:52:48Z</time>
      </trkpt>
      <trkpt lat="49.7934" lon="2.41542">
        <ele>105.4</ele>
        <time>2024-07-24T08:52:50Z</time>
      </trkpt>
      <trkpt lat="49.7934" lon="2.41542">
        <ele>105.4</ele>
        <time>2024-07-24T08:52:52Z</time>
      </trkpt>
      <trkpt lat="49.7934" lon="2.41542">
        <ele>105.4</ele>
        <time>2024-07-24T08:52:54Z</time>
      </trkpt>
      <trkpt lat="49.7934" lon="2.41542">
        <ele>105.4</ele>
        <time>2024-07-24T08:52:56Z</time>
      </trkpt>
      <trkpt lat="49.7934" lon="2.41542">
        <ele>105.4</ele>
        <time>2024-07-24T08:52:58Z</time>
      </trkpt>
      <trkpt lat="49.7934" lon="2.41542">
        <ele>105.4</ele>
        <time>2024-07-24T08:53:00Z</time>
      </trkpt>
      <trkpt lat="49.7934" lon="2.41542">
        <ele>105.4</ele>
        <time>2024-07-24T08:53:02Z</time>
      </trkpt>
      <trkpt lat="49.7934" lon="2.41542">
        <ele>105.4</ele>
        <time>2024-07-24T08:53:04Z</time>
      </trkpt>
      <trkpt lat="49.7934" lon="2.41542">
        <ele>105.4</ele>
        <time>2024-07-24T08:53:06Z</time>
      </trkpt>
      <trkpt lat="49.7934" lon="2.41542">
        <ele>105.4</ele>
        <time>2024-07-24T08:53:08Z</time>
      </trkpt>
      <trkpt lat="49.7934" lon="2.41542">
        <ele>105.4</ele>
        <time>2024-07-24T08:53:10Z</time>
      </trkpt>
      <trkpt lat="49.7934" lon="2.41542">
        <ele>105.4</ele>
        <time>2024-07-24T08:53:12Z</time>
      </trkpt>
      <trkpt lat="49.7934" lon="2.41542">
        <ele>105.4</ele>
        <time>2024-07-24T08:53:14Z</time>
      </trkpt>
      <trkpt lat="49.7934" lon="2.41542">
        <ele>105.4</ele>
        <time>2024-07-24T08:53:16Z</time>
      </trkpt>
      <trkpt lat="49.7934" lon="2.41542">
        <ele>105.4</ele>
        <time>2024-07-24T08:53:18Z</time>
      </trkpt>
      <trkpt lat="49.7934" lon="2.41542">
        <ele>105.4</ele>
        <time>2024-07-24T08:53:20Z</time>
      </trkpt>
      <trkpt lat="49.7934" lon="2.41542">
        <ele>105.4</ele>
        <time>2024-07-24T08:53:22Z</time>
      </trkpt>
      <trkpt lat="49.7934" lon="2.41542">
        <ele>105.4</ele>
        <time>2024-07-24T08:53:24Z</time>
      </trkpt>
      <trkpt lat="49.7934" lon="2.41542">
        <ele>105.5</ele>
        <time>2024-07-24T08:53:26Z</time>
      </trkpt>
      <trkpt lat="49.7934" lon="2.41542">
        <ele>105.5</ele>
        <time>2024-07-24T08:53:28Z</time>
      </trkpt>
      <trkpt lat="49.7934" lon="2.41542">
        <ele>105.5</ele>
        <time>2024-07-24T08:53:30Z</time>
      </trkpt>
      <trkpt lat="49.7934" lon="2.41542">
        <ele>105.5</ele>
        <time>2024-07-24T08:53:32Z</time>
      </trkpt>
      <trkpt lat="49.7934" lon="2.41542">
        <ele>105.5</ele>
        <time>2024-07-24T08:53:34Z</time>
      </trkpt>
      <trkpt lat="49.7934" lon="2.41542">
        <ele>105.5</ele>
        <time>2024-07-24T08:53:36Z</time>
      </trkpt>
      <trkpt lat="49.7934" lon="2.41542">
        <ele>105.5</ele>
        <time>2024-07-24T08:53:38Z</time>
      </trkpt>
      <trkpt lat="49.7934" lon="2.41542">
        <ele>105.5</ele>
        <time>2024-07-24T08:53:40Z</time>
      </trkpt>
      <trkpt lat="49.7934" lon="2.41542">
        <ele>105.5</ele>
        <time>2024-07-24T08:53:42Z</time>
      </trkpt>
      <trkpt lat="49.7934" lon="2.41542">
        <ele>105.5</ele>
        <time>2024-07-24T08:54:17Z</time>
      </trkpt>
      <trkpt lat="49.7934" lon="2.41542">
        <ele>105.5</ele>
        <time>2024-07-24T08:54:19Z</time>
      </trkpt>
      <trkpt lat="49.7934" lon="2.41542">
        <ele>105.5</ele>
        <time>2024-07-24T08:54:21Z</time>
      </trkpt>
      <trkpt lat="49.7934" lon="2.41542">
        <ele>105.5</ele>
        <time>2024-07-24T08:54:23Z</time>
      </trkpt>
      <trkpt lat="49.7934" lon="2.41542">
        <ele>105.5</ele>
        <time>2024-07-24T08:54:25Z</time>
      </trkpt>
      <trkpt lat="49.7934" lon="2.41542">
        <ele>105.5</ele>
        <time>2024-07-24T08:54:27Z</time>
      </trkpt>
      <trkpt lat="49.7934" lon="2.41542">
        <ele>105.5</ele>
        <time>2024-07-24T08:54:29Z</time>
      </trkpt>
      <trkpt lat="49.7934" lon="2.41542">
        <ele>105.5</ele>
        <time>2024-07-24T08:54:31Z</time>
      </trkpt>
      <trkpt lat="49.7934" lon="2.41542">
        <ele>105.5</ele>
        <time>2024-07-24T08:54:33Z</time>
      </trkpt>
      <trkpt lat="49.7934" lon="2.41542">
        <ele>105.5</ele>
        <time>2024-07-24T08:54:35Z</time>
      </trkpt>
      <trkpt lat="49.7934" lon="2.41542">
        <ele>105.5</ele>
        <time>2024-07-24T08:54:37Z</time>
      </trkpt>
      <trkpt lat="49.7934" lon="2.41542">
        <ele>105.6</ele>
        <time>2024-07-24T08:54:39Z</time>
      </trkpt>
      <trkpt lat="49.7934" lon="2.41542">
        <ele>105.6</ele>
        <time>2024-07-24T08:54:41Z</time>
      </trkpt>
      <trkpt lat="49.7934" lon="2.41542">
        <ele>105.6</ele>
        <time>2024-07-24T08:54:43Z</time>
      </trkpt>
      <trkpt lat="49.7934" lon="2.41542">
        <ele>105.6</ele>
        <time>2024-07-24T08:54:45Z</time>
      </trkpt>
      <trkpt lat="49.7934" lon="2.41542">
        <ele>105.6</ele>
        <time>2024-07-24T08:54:47Z</time>
      </trkpt>
      <trkpt lat="49.7934" lon="2.41542">
        <ele>105.6</ele>
        <time>2024-07-24T08:54:49Z</time>
      </trkpt>
      <trkpt lat="49.7934" lon="2.41542">
        <ele>105.6</ele>
        <time>2024-07-24T08:54:51Z</time>
      </trkpt>
      <trkpt lat="49.7934" lon="2.41542">
        <ele>105.6</ele>
        <time>2024-07-24T08:54:53Z</time>
      </trkpt>
      <trkpt lat="49.7934" lon="2.41542">
        <ele>105.6</ele>
        <time>2024-07-24T08:54:55Z</time>
      </trkpt>
      <trkpt lat="49.7934" lon="2.41542">
        <ele>105.6</ele>
        <time>2024-07-24T08:54:57Z</time>
      </trkpt>
      <trkpt lat="49.7934" lon="2.41542">
        <ele>105.6</ele>
        <time>2024-07-24T08:54:59Z</time>
      </trkpt>
      <trkpt lat="49.7934" lon="2.41542">
        <ele>105.6</ele>
        <time>2024-07-24T08:55:01Z</time>
      </trkpt>
      <trkpt lat="49.7934" lon="2.41542">
        <ele>105.6</ele>
        <time>2024-07-24T08:55:03Z</time>
      </trkpt>
      <trkpt lat="49.7934" lon="2.41542">
        <ele>105.6</ele>
        <time>2024-07-24T08:55:05Z</time>
      </trkpt>
      <trkpt lat="49.7934" lon="2.41542">
        <ele>105.6</ele>
        <time>2024-07-24T08:55:07Z</time>
      </trkpt>
      <trkpt lat="49.7934" lon="2.41542">
        <ele>105.6</ele>
        <time>2024-07-24T08:55:09Z</time>
      </trkpt>
      <trkpt lat="49.7934" lon="2.41542">
        <ele>105.6</ele>
        <time>2024-07-24T08:55:11Z</time>
      </trkpt>
      <trkpt lat="49.7934" lon="2.41542">
        <ele>105.6</ele>
        <time>2024-07-24T08:55:13Z</time>
      </trkpt>
      <trkpt lat="49.7934" lon="2.41542">
        <ele>105.6</ele>
        <time>2024-07-24T08:55:15Z</time>
      </trkpt>
      <trkpt lat="49.7934" lon="2.41542">
        <ele>105.6</ele>
        <time>2024-07-24T08:55:17Z</time>
      </trkpt>
      <trkpt lat="49.7934" lon="2.41542">
        <ele>105.6</ele>
        <time>2024-07-24T08:55:19Z</time>
      </trkpt>
      <trkpt lat="49.7934" lon="2.41542">
        <ele>105.7</ele>
        <time>2024-07-24T08:55:21Z</time>
      </trkpt>
      <trkpt lat="49.7934" lon="2.41542">
        <ele>105.7</ele>
        <time>2024-07-24T08:55:23Z</time>
      </trkpt>
      <trkpt lat="49.7934" lon="2.41542">
        <ele>105.7</ele>
        <time>2024-07-24T08:55:25Z</time>
      </trkpt>
      <trkpt lat="49.7934" lon="2.41542">
        <ele>105.7</ele>
        <time>2024-07-24T08:55:27Z</time>
      </trkpt>
      <trkpt lat="49.7934" lon="2.41542">
        <ele>105.7</ele>
        <time>2024-07-24T08:55:29Z</time>
      </trkpt>
      <trkpt lat="49.7934" lon="2.41542">
        <ele>105.7</ele>
        <time>2024-07-24T08:55:31Z</time>
      </trkpt>
      <trkpt lat="49.7934" lon="2.41542">
        <ele>105.7</ele>
        <time>2024-07-24T08:55:33Z</time>
      </trkpt>
      <trkpt lat="49.7934" lon="2.41542">
        <ele>105.7</ele>
        <time>2024-07-24T08:55:35Z</time>
      </trkpt>
      <trkpt lat="49.7934" lon="2.41542">
        <ele>105.7</ele>
        <time>2024-07-24T08:55:37Z</time>
      </trkpt>
      <trkpt lat="49.7934" lon="2.41542">
        <ele>105.7</ele>
        <time>2024-07-24T08:55:39Z</time>
      </trkpt>
      <trkpt lat="49.7934" lon="2.41542">
        <ele>105.7</ele>
        <time>2024-07-24T08:55:41Z</time>
      </trkpt>
      <trkpt lat="49.7934" lon="2.41542">
        <ele>105.7</ele>
        <time>2024-07-24T08:55:43Z</time>
      </trkpt>
      <trkpt lat="49.7934" lon="2.41542">
        <ele>105.7</ele>
        <time>2024-07-24T08:55:45Z</time>
      </trkpt>
      <trkpt lat="49.7934" lon="2.41542">
        <ele>105.7</ele>
        <time>2024-07-24T08:55:47Z</time>
      </trkpt>
      <trkpt lat="49.7934" lon="2.41542">
        <ele>105.7</ele>
        <time>2024-07-24T08:55:49Z</time>
      </trkpt>
      <trkpt lat="49.7934" lon="2.41542">
        <ele>105.7</ele>
        <time>2024-07-24T08:55:51Z</time>
      </trkpt>
      <trkpt lat="49.7934" lon="2.41542">
        <ele>105.7</ele>
        <time>2024-07-24T08:55:53Z</time>
      </trkpt>
      <trkpt lat="49.7934" lon="2.41542">
        <ele>105.7</ele>
        <time>2024-07-24T08:55:55Z</time>
      </trkpt>
      <trkpt lat="49.7934" lon="2.41542">
        <ele>105.7</ele>
        <time>2024-07-24T08:55:57Z</time>
      </trkpt>
      <trkpt lat="49.7934" lon="2.41542">
        <ele>105.7</ele>
        <time>2024-07-24T08:55:59Z</time>
      </trkpt>
      <trkpt lat="49.7934" lon="2.41542">
        <ele>105.7</ele>
        <time>2024-07-24T08:56:01Z</time>
      </trkpt>
      <trkpt lat="49.7934" lon="2.41542">
        <ele>105.8</ele>
        <time>2024-07-24T08:56:03Z</time>
      </trkpt>
      <trkpt lat="49.7934" lon="2.41542">
        <ele>105.8</ele>
        <time>2024-07-24T08:56:05Z</time>
      </trkpt>
      <trkpt lat="49.7934" lon="2.41542">
        <ele>105.8</ele>
        <time>2024-07-24T08:56:07Z</time>
      </trkpt>
      <trkpt lat="49.7934" lon="2.41542">
        <ele>105.8</ele>
        <time>2024-07-24T08:56:09Z</time>
      </trkpt>
      <trkpt lat="49.7934" lon="2.41542">
        <ele>105.8</ele>
        <time>2024-07-24T08:56:11Z</time>
      </trkpt>
      <trkpt lat="49.7934" lon="2.41542">
        <ele>105.8</ele>
        <time>2024-07-24T08:56:13Z</time>
      </trkpt>
      <trkpt lat="49.7934" lon="2.41542">
        <ele>105.8</ele>
        <time>2024-07-24T08:56:15Z</time>
      </trkpt>
      <trkpt lat="49.7934" lon="2.41542">
        <ele>105.8</ele>
        <time>2024-07-24T08:56:17Z</time>
      </trkpt>
      <trkpt lat="49.7934" lon="2.41542">
        <ele>105.8</ele>
        <time>2024-07-24T08:56:19Z</time>
      </trkpt>
      <trkpt lat="49.7934" lon="2.41542">
        <ele>105.8</ele>
        <time>2024-07-24T08:56:21Z</time>
      </trkpt>
      <trkpt lat="49.7934" lon="2.41542">
        <ele>105.8</ele>
        <time>2024-07-24T08:56:23Z</time>
      </trkpt>
      <trkpt lat="49.7934" lon="2.41542">
        <ele>105.8</ele>
        <time>2024-07-24T08:56:25Z</time>
      </trkpt>
      <trkpt lat="49.7934" lon="2.41542">
        <ele>105.8</ele>
        <time>2024-07-24T08:56:27Z</time>
      </trkpt>
      <trkpt lat="49.7934" lon="2.41542">
        <ele>105.8</ele>
        <time>2024-07-24T08:56:29Z</time>
      </trkpt>
      <trkpt lat="49.7934" lon="2.41542">
        <ele>105.8</ele>
        <time>2024-07-24T08:56:31Z</time>
      </trkpt>
      <trkpt lat="49.7934" lon="2.41542">
        <ele>105.8</ele>
        <time>2024-07-24T08:56:33Z</time>
      </trkpt>
      <trkpt lat="49.7934" lon="2.41542">
        <ele>105.8</ele>
        <time>2024-07-24T08:56:35Z</time>
      </trkpt>
      <trkpt lat="49.7934" lon="2.41542">
        <ele>105.8</ele>
        <time>2024-07-24T08:56:37Z</time>
      </trkpt>
      <trkpt lat="49.7934" lon="2.41542">
        <ele>105.8</ele>
        <time>2024-07-24T08:56:39Z</time>
      </trkpt>
      <trkpt lat="49.7934" lon="2.41542">
        <ele>105.8</ele>
        <time>2024-07-24T08:56:41Z</time>
      </trkpt>
      <trkpt lat="49.7934" lon="2.41542">
        <ele>105.8</ele>
        <time>2024-07-24T08:56:43Z</time>
      </trkpt>
      <trkpt lat="49.7934" lon="2.41542">
        <ele>105.9</ele>
        <time>2024-07-24T08:56:45Z</time>
      </trkpt>
      <trkpt lat="49.7934" lon="2.41542">
        <ele>105.9</ele>
        <time>2024-07-24T08:56:47Z</time>
      </trkpt>
      <trkpt lat="49.7934" lon="2.41542">
        <ele>105.9</ele>
        <time>2024-07-24T08:56:49Z</time>
      </trkpt>
      <trkpt lat="49.7934" lon="2.41542">
        <ele>105.9</ele>
        <time>2024-07-24T08:56:51Z</time>
      </trkpt>
      <trkpt lat="49.7934" lon="2.41542">
        <ele>105.9</ele>
        <time>2024-07-24T08:56:53Z</time>
      </trkpt>
      <trkpt lat="49.7934" lon="2.41542">
        <ele>105.9</ele>
        <time>2024-07-24T08:56:55Z</time>
      </trkpt>
      <trkpt lat="49.7934" lon="2.41542">
        <ele>105.9</ele>
        <time>2024-07-24T08:56:57Z</time>
      </trkpt>
      <trkpt lat="49.7934" lon="2.41542">
        <ele>105.9</ele>
        <time>2024-07-24T08:56:59Z</time>
      </trkpt>
      <trkpt lat="49.7934" lon="2.41542">
        <ele>105.9</ele>
        <time>2024-07-24T08:57:01Z</time>
      </trkpt>
      <trkpt lat="49.7934" lon="2.41542">
        <ele>105.9</ele>
        <time>2024-07-24T08:57:03Z</time>
      </trkpt>
      <trkpt lat="49.7934" lon="2.41542">
        <ele>105.9</ele>
        <time>2024-07-24T08:57:05Z</time>
      </trkpt>
      <trkpt lat="49.7934" lon="2.41542">
        <ele>105.9</ele>
        <time>2024-07-24T08:57:07Z</time>
      </trkpt>
      <trkpt lat="49.7934" lon="2.41542">
        <ele>105.9</ele>
        <time>2024-07-24T08:57:09Z</time>
      </trkpt>
      <trkpt lat="49.7934" lon="2.41542">
        <ele>105.9</ele>
        <time>2024-07-24T08:57:11Z</time>
      </trkpt>
      <trkpt lat="49.7934" lon="2.41542">
        <ele>105.9</ele>
        <time>2024-07-24T08:57:13Z</time>
      </trkpt>
      <trkpt lat="49.7934" lon="2.41542">
        <ele>105.9</ele>
        <time>2024-07-24T08:57:15Z</time>
      </trkpt>
      <trkpt lat="49.7934" lon="2.41542">
        <ele>105.9</ele>
        <time>2024-07-24T08:57:17Z</time>
      </trkpt>
      <trkpt lat="49.7934" lon="2.41542">
        <ele>105.9</ele>
        <time>2024-07-24T08:57:19Z</time>
      </trkpt>
      <trkpt lat="49.7934" lon="2.41542">
        <ele>105.9</ele>
        <time>2024-07-24T08:57:21Z</time>
      </trkpt>
      <trkpt lat="49.7934" lon="2.41542">
        <ele>105.9</ele>
        <time>2024-07-24T08:57:23Z</time>
      </trkpt>
      <trkpt lat="49.7934" lon="2.41542">
        <ele>105.9</ele>
        <time>2024-07-24T08:57:25Z</time>
      </trkpt>
      <trkpt lat="49.7934" lon="2.41542">
        <ele>106</ele>
        <time>2024-07-24T08:57:27Z</time>
      </trkpt>
      <trkpt lat="49.7934" lon="2.41542">
        <ele>106</ele>
        <time>2024-07-24T08:57:29Z</time>
      </trkpt>
      <trkpt lat="49.7934" lon="2.41542">
        <ele>106</ele>
        <time>2024-07-24T08:57:31Z</time>
      </trkpt>
      <trkpt lat="49.7934" lon="2.41542">
        <ele>106</ele>
        <time>2024-07-24T08:57:33Z</time>
      </trkpt>
      <trkpt lat="49.7934" lon="2.41542">
        <ele>106</ele>
        <time>2024-07-24T08:57:35Z</time>
      </trkpt>
      <trkpt lat="49.7934" lon="2.41542">
        <ele>106</ele>
        <time>2024-07-24T08:57:37Z</time>
      </trkpt>
      <trkpt lat="49.7934" lon="2.41542">
        <ele>106</ele>
        <time>2024-07-24T08:57:39Z</time>
      </trkpt>
      <trkpt lat="49.7934" lon="2.41542">
        <ele>106</ele>
        <time>2024-07-24T08:57:41Z</time>
      </trkpt>
      <trkpt lat="49.7934" lon="2.41542">
        <ele>106</ele>
        <time>2024-07-24T08:57:43Z</time>
      </trkpt>
      <trkpt lat="49.7934" lon="2.41542">
        <ele>106</ele>
        <time>2024-07-24T08:57:45Z</time>
      </trkpt>
      <trkpt lat="49.7934" lon="2.41542">
        <ele>106</ele>
        <time>2024-07-24T08:57:47Z</time>
      </trkpt>
      <trkpt lat="49.7934" lon="2.41542">
        <ele>106</ele>
        <time>2024-07-24T08:57:49Z</time>
      </trkpt>
      <trkpt lat="49.7934" lon="2.41542">
        <ele>106</ele>
        <time>2024-07-24T08:57:51Z</time>
      </trkpt>
      <trkpt lat="49.7934" lon="2.41542">
        <ele>106</ele>
        <time>2024-07-24T08:57:53Z</time>
      </trkpt>
      <trkpt lat="49.7934" lon="2.41542">
        <ele>106</ele>
        <time>2024-07-24T08:57:55Z</time>
      </trkpt>
      <trkpt lat="49.7934" lon="2.41542">
        <ele>106</ele>
        <time>2024-07-24T08:57:57Z</time>
      </trkpt>
      <trkpt lat="49.7934" lon="2.41542">
        <ele>106</ele>
        <time>2024-07-24T08:57:59Z</time>
      </trkpt>
      <trkpt lat="49.7934" lon="2.41542">
        <ele>106</ele>
        <time>2024-07-24T08:58:01Z</time>
      </trkpt>
      <trkpt lat="49.7934" lon="2.41542">
        <ele>106</ele>
        <time>2024-07-24T08:58:03Z</time>
      </trkpt>
      <trkpt lat="49.7934" lon="2.41542">
        <ele>106</ele>
        <time>2024-07-24T08:58:05Z</time>
      </trkpt>
      <trkpt lat="49.7934" lon="2.41542">
        <ele>106.1</ele>
        <time>2024-07-24T08:58:07Z</time>
      </trkpt>
      <trkpt lat="49.7934" lon="2.41542">
        <ele>106.1</ele>
        <time>2024-07-24T08:58:09Z</time>
      </trkpt>
      <trkpt lat="49.7934" lon="2.41542">
        <ele>106.1</ele>
        <time>2024-07-24T08:58:11Z</time>
      </trkpt>
      <trkpt lat="49.7934" lon="2.41542">
        <ele>106.1</ele>
        <time>2024-07-24T08:58:13Z</time>
      </trkpt>
      <trkpt lat="49.7934" lon="2.41542">
        <ele>106.1</ele>
        <time>2024-07-24T08:58:15Z</time>
      </trkpt>
      <trkpt lat="49.7934" lon="2.41542">
        <ele>106.1</ele>
        <time>2024-07-24T08:58:17Z</time>
      </trkpt>
      <trkpt lat="49.7934" lon="2.41542">
        <ele>106.1</ele>
        <time>2024-07-24T08:58:19Z</time>
      </trkpt>
      <trkpt lat="49.7934" lon="2.41542">
        <ele>106.1</ele>
        <time>2024-07-24T08:58:21Z</time>
      </trkpt>
      <trkpt lat="49.7934" lon="2.41542">
        <ele>106.1</ele>
        <time>2024-07-24T08:58:23Z</time>
      </trkpt>
      <trkpt lat="49.7934" lon="2.41542">
        <ele>106.1</ele>
        <time>2024-07-24T08:58:25Z</time>
      </trkpt>
      <trkpt lat="49.7934" lon="2.41542">
        <ele>106.1</ele>
        <time>2024-07-24T08:58:27Z</time>
      </trkpt>
      <trkpt lat="49.7934" lon="2.41542">
        <ele>106.1</ele>
        <time>2024-07-24T08:58:29Z</time>
      </trkpt>
      <trkpt lat="49.7934" lon="2.41542">
        <ele>106.1</ele>
        <time>2024-07-24T08:58:31Z</time>
      </trkpt>
      <trkpt lat="49.7934" lon="2.41542">
        <ele>106.1</ele>
        <time>2024-07-24T08:58:33Z</time>
      </trkpt>
      <trkpt lat="49.7934" lon="2.41542">
        <ele>106.1</ele>
        <time>2024-07-24T08:58:35Z</time>
      </trkpt>
      <trkpt lat="49.7934" lon="2.41542">
        <ele>106.1</ele>
        <time>2024-07-24T08:58:37Z</time>
      </trkpt>
      <trkpt lat="49.7934" lon="2.41542">
        <ele>106.1</ele>
        <time>2024-07-24T08:58:39Z</time>
      </trkpt>
      <trkpt lat="49.7934" lon="2.41542">
        <ele>106.1</ele>
        <time>2024-07-24T08:58:41Z</time>
      </trkpt>
      <trkpt lat="49.7934" lon="2.41542">
        <ele>106.1</ele>
        <time>2024-07-24T08:58:43Z</time>
      </trkpt>
      <trkpt lat="49.7934" lon="2.41542">
        <ele>106.1</ele>
        <time>2024-07-24T08:58:45Z</time>
      </trkpt>
      <trkpt lat="49.7934" lon="2.41542">
        <ele>106.1</ele>
        <time>2024-07-24T08:58:47Z</time>
      </trkpt>
      <trkpt lat="49.7934" lon="2.41542">
        <ele>106.2</ele>
        <time>2024-07-24T08:58:49Z</time>
      </trkpt>
      <trkpt lat="49.7934" lon="2.41542">
        <ele>106.2</ele>
        <time>2024-07-24T08:58:51Z</time>
      </trkpt>
      <trkpt lat="49.7934" lon="2.41542">
        <ele>106.2</ele>
        <time>2024-07-24T08:58:53Z</time>
      </trkpt>
      <trkpt lat="49.7934" lon="2.41542">
        <ele>106.2</ele>
        <time>2024-07-24T08:58:55Z</time>
      </trkpt>
      <trkpt lat="49.7934" lon="2.41542">
        <ele>106.2</ele>
        <time>2024-07-24T08:58:57Z</time>
      </trkpt>
      <trkpt lat="49.7934" lon="2.41542">
        <ele>106.2</ele>
        <time>2024-07-24T08:58:59Z</time>
      </trkpt>
      <trkpt lat="49.7934" lon="2.41542">
        <ele>106.2</ele>
        <time>2024-07-24T08:59:01Z</time>
      </trkpt>
      <trkpt lat="49.7934" lon="2.41542">
        <ele>106.2</ele>
        <time>2024-07-24T08:59:03Z</time>
      </trkpt>
      <trkpt lat="49.7934" lon="2.41542">
        <ele>106.2</ele>
        <time>2024-07-24T08:59:05Z</time>
      </trkpt>
      <trkpt lat="49.7934" lon="2.41542">
        <ele>106.2</ele>
        <time>2024-07-24T08:59:07Z</time>
      </trkpt>
      <trkpt lat="49.7934" lon="2.41542">
        <ele>106.2</ele>
        <time>2024-07-24T08:59:09Z</time>
      </trkpt>
      <trkpt lat="49.7934" lon="2.41542">
        <ele>106.2</ele>
        <time>2024-07-24T08:59:11Z</time>
      </trkpt>
      <trkpt lat="49.7934" lon="2.41542">
        <ele>106.2</ele>
        <time>2024-07-24T08:59:13Z</time>
      </trkpt>
      <trkpt lat="49.7934" lon="2.41542">
        <ele>106.2</ele>
        <time>2024-07-24T08:59:15Z</time>
      </trkpt>
      <trkpt lat="49.7934" lon="2.41542">
        <ele>106.2</ele>
        <time>2024-07-24T08:59:17Z</time>
      </trkpt>
      <trkpt lat="49.7934" lon="2.41542">
        <ele>106.2</ele>
        <time>2024-07-24T08:59:19Z</time>
      </trkpt>
      <trkpt lat="49.7934" lon="2.41542">
        <ele>106.2</ele>
        <time>2024-07-24T08:59:21Z</time>
      </trkpt>
      <trkpt lat="49.7934" lon="2.41542">
        <ele>106.2</ele>
        <time>2024-07-24T08:59:23Z</time>
      </trkpt>
      <trkpt lat="49.7934" lon="2.41542">
        <ele>106.2</ele>
        <time>2024-07-24T08:59:25Z</time>
      </trkpt>
      <trkpt lat="49.7934" lon="2.41542">
        <ele>106.2</ele>
        <time>2024-07-24T08:59:27Z</time>
      </trkpt>
      <trkpt lat="49.7934" lon="2.41542">
        <ele>106.2</ele>
        <time>2024-07-24T08:59:29Z</time>
      </trkpt>
      <trkpt lat="49.7934" lon="2.41542">
        <ele>106.3</ele>
        <time>2024-07-24T08:59:31Z</time>
      </trkpt>
      <trkpt lat="49.7934" lon="2.41542">
        <ele>106.3</ele>
        <time>2024-07-24T08:59:33Z</time>
      </trkpt>
      <trkpt lat="49.7934" lon="2.41542">
        <ele>106.3</ele>
        <time>2024-07-24T08:59:35Z</time>
      </trkpt>
      <trkpt lat="49.7934" lon="2.41542">
        <ele>106.3</ele>
        <time>2024-07-24T08:59:37Z</time>
      </trkpt>
      <trkpt lat="49.7934" lon="2.41542">
        <ele>106.3</ele>
        <time>2024-07-24T08:59:39Z</time>
      </trkpt>
      <trkpt lat="49.7934" lon="2.41542">
        <ele>106.3</ele>
        <time>2024-07-24T08:59:41Z</time>
      </trkpt>
      <trkpt lat="49.7934" lon="2.41542">
        <ele>106.3</ele>
        <time>2024-07-24T08:59:43Z</time>
      </trkpt>
      <trkpt lat="49.7934" lon="2.41542">
        <ele>106.3</ele>
        <time>2024-07-24T08:59:45Z</time>
      </trkpt>
      <trkpt lat="49.7934" lon="2.41542">
        <ele>106.3</ele>
        <time>2024-07-24T08:59:47Z</time>
      </trkpt>
      <trkpt lat="49.7934" lon="2.41542">
        <ele>106.3</ele>
        <time>2024-07-24T08:59:49Z</time>
      </trkpt>
      <trkpt lat="49.7934" lon="2.41542">
        <ele>106.3</ele>
        <time>2024-07-24T08:59:51Z</time>
      </trkpt>
      <trkpt lat="49.7934" lon="2.41542">
        <ele>106.3</ele>
        <time>2024-07-24T08:59:53Z</time>
      </trkpt>
      <trkpt lat="49.7934" lon="2.41542">
        <ele>106.3</ele>
        <time>2024-07-24T08:59:55Z</time>
      </trkpt>
      <trkpt lat="49.7934" lon="2.41542">
        <ele>106.3</ele>
        <time>2024-07-24T08:59:57Z</time>
      </trkpt>
      <trkpt lat="49.7934" lon="2.41542">
        <ele>106.3</ele>
        <time>2024-07-24T08:59:59Z</time>
      </trkpt>
      <trkpt lat="49.7934" lon="2.41542">
        <ele>106.3</ele>
        <time>2024-07-24T09:00:01Z</time>
      </trkpt>
      <trkpt lat="49.7934" lon="2.41542">
        <ele>106.3</ele>
        <time>2024-07-24T09:00:03Z</time>
      </trkpt>
      <trkpt lat="49.7934" lon="2.41542">
        <ele>106.3</ele>
        <time>2024-07-24T09:00:05Z</time>
      </trkpt>
      <trkpt lat="49.7934" lon="2.41542">
        <ele>106.3</ele>
        <time>2024-07-24T09:00:07Z</time>
      </trkpt>
      <trkpt lat="49.7934" lon="2.41542">
        <ele>106.3</ele>
        <time>2024-07-24T09:00:09Z</time>
      </trkpt>
      <trkpt lat="49.7934" lon="2.41542">
        <ele>106.3</ele>
        <time>2024-07-24T09:00:11Z</time>
      </trkpt>
      <trkpt lat="49.7934" lon="2.41542">
        <ele>106.4</ele>
        <time>2024-07-24T09:00:13Z</time>
      </trkpt>
      <trkpt lat="49.7934" lon="2.41542">
        <ele>106.4</ele>
        <time>2024-07-24T09:00:15Z</time>
      </trkpt>
      <trkpt lat="49.7934" lon="2.41542">
        <ele>106.4</ele>
        <time>2024-07-24T09:00:17Z</time>
      </trkpt>
      <trkpt lat="49.7934" lon="2.41542">
        <ele>106.4</ele>
        <time>2024-07-24T09:00:19Z</time>
      </trkpt>
      <trkpt lat="49.7934" lon="2.41542">
        <ele>106.4</ele>
        <time>2024-07-24T09:00:21Z</time>
      </trkpt>
      <trkpt lat="49.7934" lon="2.41542">
        <ele>106.4</ele>
        <time>2024-07-24T09:00:23Z</time>
      </trkpt>
      <trkpt lat="49.7934" lon="2.41542">
        <ele>106.4</ele>
        <time>2024-07-24T09:00:25Z</time>
      </trkpt>
      <trkpt lat="49.7934" lon="2.41542">
        <ele>106.4</ele>
        <time>2024-07-24T09:00:27Z</time>
      </trkpt>
      <trkpt lat="49.7934" lon="2.41542">
        <ele>106.4</ele>
        <time>2024-07-24T09:00:29Z</time>
      </trkpt>
      <trkpt lat="49.7934" lon="2.41542">
        <ele>106.4</ele>
        <time>2024-07-24T09:00:31Z</time>
      </trkpt>
      <trkpt lat="49.7934" lon="2.41542">
        <ele>106.4</ele>
        <time>2024-07-24T09:00:33Z</time>
      </trkpt>
      <trkpt lat="49.7934" lon="2.41542">
        <ele>106.4</ele>
        <time>2024-07-24T09:00:35Z</time>
      </trkpt>
      <trkpt lat="49.7934" lon="2.41542">
        <ele>106.4</ele>
        <time>2024-07-24T09:00:37Z</time>
      </trkpt>
      <trkpt lat="49.7934" lon="2.41542">
        <ele>106.4</ele>
        <time>2024-07-24T09:00:39Z</time>
      </trkpt>
      <trkpt lat="49.7934" lon="2.41542">
        <ele>106.4</ele>
        <time>2024-07-24T09:00:41Z</time>
      </trkpt>
      <trkpt lat="49.7934" lon="2.41542">
        <ele>106.4</ele>
        <time>2024-07-24T09:00:43Z</time>
      </trkpt>
      <trkpt lat="49.7934" lon="2.41542">
        <ele>106.4</ele>
        <time>2024-07-24T09:00:45Z</time>
      </trkpt>
      <trkpt lat="49.7934" lon="2.41542">
        <ele>106.4</ele>
        <time>2024-07-24T09:00:47Z</time>
      </trkpt>
      <trkpt lat="49.7934" lon="2.41542">
        <ele>106.4</ele>
        <time>2024-07-24T09:00:49Z</time>
      </trkpt>
      <trkpt lat="49.7934" lon="2.41542">
        <ele>106.4</ele>
        <time>2024-07-24T09:00:51Z</time>
      </trkpt>
      <trkpt lat="49.7934" lon="2.41542">
        <ele>106.4</ele>
        <time>2024-07-24T09:00:53Z</time>
      </trkpt>
      <trkpt lat="49.7934" lon="2.41542">
        <ele>106.5</ele>
        <time>2024-07-24T09:00:55Z</time>
      </trkpt>
      <trkpt lat="49.7934" lon="2.41542">
        <ele>106.5</ele>
        <time>2024-07-24T09:00:57Z</time>
      </trkpt>
      <trkpt lat="49.7934" lon="2.41542">
        <ele>106.5</ele>
        <time>2024-07-24T09:00:59Z</time>
      </trkpt>
      <trkpt lat="49.7934" lon="2.41542">
        <ele>106.5</ele>
        <time>2024-07-24T09:01:01Z</time>
      </trkpt>
      <trkpt lat="49.7934" lon="2.41542">
        <ele>106.5</ele>
        <time>2024-07-24T09:01:03Z</time>
      </trkpt>
      <trkpt lat="49.7934" lon="2.41542">
        <ele>106.5</ele>
        <time>2024-07-24T09:01:05Z</time>
      </trkpt>
      <trkpt lat="49.7934" lon="2.41542">
        <ele>106.5</ele>
        <time>2024-07-24T09:01:07Z</time>
      </trkpt>
      <trkpt lat="49.7934" lon="2.41542">
        <ele>106.5</ele>
        <time>2024-07-24T09:01:09Z</time>
      </trkpt>
      <trkpt lat="49.7934" lon="2.41542">
        <ele>106.5</ele>
        <time>2024-07-24T09:01:11Z</time>
      </trkpt>
      <trkpt lat="49.7934" lon="2.41542">
        <ele>106.5</ele>
        <time>2024-07-24T09:01:13Z</time>
      </trkpt>
      <trkpt lat="49.7934" lon="2.41542">
        <ele>106.5</ele>
        <time>2024-07-24T09:01:15Z</time>
      </trkpt>
      <trkpt lat="49.7934" lon="2.41542">
        <ele>106.5</ele>
        <time>2024-07-24T09:01:17Z</time>
      </trkpt>
      <trkpt lat="49.7934" lon="2.41542">
        <ele>106.5</ele>
        <time>2024-07-24T09:01:19Z</time>
      </trkpt>
      <trkpt lat="49.7934" lon="2.41542">
        <ele>106.5</ele>
        <time>2024-07-24T09:01:21Z</time>
      </trkpt>
      <trkpt lat="49.7934" lon="2.41542">
        <ele>106.5</ele>
        <time>2024-07-24T09:01:23Z</time>
      </trkpt>
      <trkpt lat="49.7934" lon="2.41542">
        <ele>106.5</ele>
        <time>2024-07-24T09:01:25Z</time>
      </trkpt>
      <trkpt lat="49.7934" lon="2.41542">
        <ele>106.5</ele>
        <time>2024-07-24T09:01:27Z</time>
      </trkpt>
      <trkpt lat="49.7934" lon="2.41542">
        <ele>106.5</ele>
        <time>2024-07-24T09:01:29Z</time>
      </trkpt>
      <trkpt lat="49.7934" lon="2.41542">
        <ele>106.5</ele>
        <time>2024-07-24T09:01:31Z</time>
      </trkpt>
      <trkpt lat="49.7934" lon="2.41542">
        <ele>106.5</ele>
        <time>2024-07-24T09:01:33Z</time>
      </trkpt>
      <trkpt lat="49.7934" lon="2.41542">
        <ele>106.5</ele>
        <time>2024-07-24T09:01:35Z</time>
      </trkpt>
      <trkpt lat="49.7934" lon="2.41542">
        <ele>106.6</ele>
        <time>2024-07-24T09:01:37Z</time>
      </trkpt>
      <trkpt lat="49.7934" lon="2.41542">
        <ele>106.6</ele>
        <time>2024-07-24T09:01:39Z</time>
      </trkpt>
      <trkpt lat="49.7934" lon="2.41542">
        <ele>106.6</ele>
        <time>2024-07-24T09:01:41Z</time>
      </trkpt>
      <trkpt lat="49.7934" lon="2.41542">
        <ele>106.6</ele>
        <time>2024-07-24T09:01:44Z</time>
      </trkpt>
      <trkpt lat="49.7934" lon="2.41542">
        <ele>106.6</ele>
        <time>2024-07-24T09:01:46Z</time>
      </trkpt>
      <trkpt lat="49.7934" lon="2.41542">
        <ele>106.6</ele>
        <time>2024-07-24T09:01:48Z</time>
      </trkpt>
      <trkpt lat="49.7934" lon="2.41542">
        <ele>106.6</ele>
        <time>2024-07-24T09:01:50Z</time>
      </trkpt>
      <trkpt lat="49.7934" lon="2.41542">
        <ele>106.6</ele>
        <time>2024-07-24T09:01:52Z</time>
      </trkpt>
      <trkpt lat="49.7934" lon="2.41542">
        <ele>106.6</ele>
        <time>2024-07-24T09:01:54Z</time>
      </trkpt>
      <trkpt lat="49.7934" lon="2.41542">
        <ele>106.6</ele>
        <time>2024-07-24T09:01:56Z</time>
      </trkpt>
      <trkpt lat="49.7934" lon="2.41542">
        <ele>106.6</ele>
        <time>2024-07-24T09:01:58Z</time>
      </trkpt>
      <trkpt lat="49.7934" lon="2.41542">
        <ele>106.6</ele>
        <time>2024-07-24T09:02:00Z</time>
      </trkpt>
      <trkpt lat="49.7934" lon="2.41542">
        <ele>106.6</ele>
        <time>2024-07-24T09:02:02Z</time>
      </trkpt>
      <trkpt lat="49.7934" lon="2.41542">
        <ele>106.6</ele>
        <time>2024-07-24T09:02:04Z</time>
      </trkpt>
      <trkpt lat="49.7934" lon="2.41542">
        <ele>106.6</ele>
        <time>2024-07-24T09:02:06Z</time>
      </trkpt>
      <trkpt lat="49.7934" lon="2.41542">
        <ele>106.6</ele>
        <time>2024-07-24T09:02:08Z</time>
      </trkpt>
      <trkpt lat="49.7934" lon="2.41542">
        <ele>106.6</ele>
        <time>2024-07-24T09:02:10Z</time>
      </trkpt>
      <trkpt lat="49.7934" lon="2.41542">
        <ele>106.6</ele>
        <time>2024-07-24T09:02:12Z</time>
      </trkpt>
      <trkpt lat="49.7934" lon="2.41542">
        <ele>106.6</ele>
        <time>2024-07-24T09:02:14Z</time>
      </trkpt>
      <trkpt lat="49.7934" lon="2.41542">
        <ele>106.6</ele>
        <time>2024-07-24T09:02:16Z</time>
      </trkpt>
      <trkpt lat="49.7934" lon="2.41542">
        <ele>106.7</ele>
        <time>2024-07-24T09:02:18Z</time>
      </trkpt>
      <trkpt lat="49.7934" lon="2.41542">
        <ele>106.7</ele>
        <time>2024-07-24T09:02:20Z</time>
      </trkpt>
      <trkpt lat="49.7934" lon="2.41542">
        <ele>106.7</ele>
        <time>2024-07-24T09:02:22Z</time>
      </trkpt>
      <trkpt lat="49.7934" lon="2.41542">
        <ele>106.7</ele>
        <time>2024-07-24T09:02:24Z</time>
      </trkpt>
      <trkpt lat="49.7934" lon="2.41542">
        <ele>106.7</ele>
        <time>2024-07-24T09:02:26Z</time>
      </trkpt>
      <trkpt lat="49.7934" lon="2.41542">
        <ele>106.7</ele>
        <time>2024-07-24T09:02:28Z</time>
      </trkpt>
      <trkpt lat="49.7934" lon="2.41542">
        <ele>106.7</ele>
        <time>2024-07-24T09:02:30Z</time>
      </trkpt>
      <trkpt lat="49.7934" lon="2.41542">
        <ele>106.7</ele>
        <time>2024-07-24T09:02:32Z</time>
      </trkpt>
      <trkpt lat="49.7934" lon="2.41542">
        <ele>106.7</ele>
        <time>2024-07-24T09:02:34Z</time>
      </trkpt>
      <trkpt lat="49.7934" lon="2.41542">
        <ele>106.7</ele>
        <time>2024-07-24T09:02:36Z</time>
      </trkpt>
      <trkpt lat="49.7934" lon="2.41542">
        <ele>106.7</ele>
        <time>2024-07-24T09:02:38Z</time>
      </trkpt>
      <trkpt lat="49.7934" lon="2.41542">
        <ele>106.7</ele>
        <time>2024-07-24T09:02:40Z</time>
      </trkpt>
      <trkpt lat="49.7934" lon="2.41542">
        <ele>106.7</ele>
        <time>2024-07-24T09:02:42Z</time>
      </trkpt>
      <trkpt lat="49.7934" lon="2.41542">
        <ele>106.7</ele>
        <time>2024-07-24T09:02:44Z</time>
      </trkpt>
      <trkpt lat="49.7934" lon="2.41542">
        <ele>106.7</ele>
        <time>2024-07-24T09:02:46Z</time>
      </trkpt>
      <trkpt lat="49.7934" lon="2.41542">
        <ele>106.7</ele>
        <time>2024-07-24T09:02:48Z</time>
      </trkpt>
      <trkpt lat="49.7934" lon="2.41542">
        <ele>106.7</ele>
        <time>2024-07-24T09:02:50Z</time>
      </trkpt>
      <trkpt lat="49.7934" lon="2.41542">
        <ele>106.7</ele>
        <time>2024-07-24T09:02:52Z</time>
      </trkpt>
      <trkpt lat="49.7934" lon="2.41542">
        <ele>106.7</ele>
        <time>2024-07-24T09:02:54Z</time>
      </trkpt>
      <trkpt lat="49.7934" lon="2.41542">
        <ele>106.7</ele>
        <time>2024-07-24T09:02:56Z</time>
      </trkpt>
      <trkpt lat="49.7934" lon="2.41542">
        <ele>106.7</ele>
        <time>2024-07-24T09:02:58Z</time>
      </trkpt>
      <trkpt lat="49.7934" lon="2.41542">
        <ele>106.8</ele>
        <time>2024-07-24T09:03:00Z</time>
      </trkpt>
      <trkpt lat="49.7934" lon="2.41542">
        <ele>106.8</ele>
        <time>2024-07-24T09:03:02Z</time>
      </trkpt>
      <trkpt lat="49.7934" lon="2.41542">
        <ele>106.8</ele>
        <time>2024-07-24T09:03:04Z</time>
      </trkpt>
      <trkpt lat="49.7934" lon="2.41542">
        <ele>106.8</ele>
        <time>2024-07-24T09:03:06Z</time>
      </trkpt>
      <trkpt lat="49.7934" lon="2.41542">
        <ele>106.8</ele>
        <time>2024-07-24T09:03:08Z</time>
      </trkpt>
      <trkpt lat="49.7934" lon="2.41542">
        <ele>106.8</ele>
        <time>2024-07-24T09:03:10Z</time>
      </trkpt>
      <trkpt lat="49.7934" lon="2.41542">
        <ele>106.8</ele>
        <time>2024-07-24T09:03:12Z</time>
      </trkpt>
      <trkpt lat="49.7934" lon="2.41542">
        <ele>106.8</ele>
        <time>2024-07-24T09:03:14Z</time>
      </trkpt>
      <trkpt lat="49.7934" lon="2.41542">
        <ele>106.8</ele>
        <time>2024-07-24T09:03:16Z</time>
      </trkpt>
      <trkpt lat="49.7934" lon="2.41542">
        <ele>106.8</ele>
        <time>2024-07-24T09:03:18Z</time>
      </trkpt>
      <trkpt lat="49.7934" lon="2.41542">
        <ele>106.8</ele>
        <time>2024-07-24T09:03:20Z</time>
      </trkpt>
      <trkpt lat="49.7934" lon="2.41542">
        <ele>106.8</ele>
        <time>2024-07-24T09:03:22Z</time>
      </trkpt>
      <trkpt lat="49.7934" lon="2.41542">
        <ele>106.8</ele>
        <time>2024-07-24T09:03:24Z</time>
      </trkpt>
      <trkpt lat="49.7934" lon="2.41542">
        <ele>106.8</ele>
        <time>2024-07-24T09:03:26Z</time>
      </trkpt>
      <trkpt lat="49.7934" lon="2.41542">
        <ele>106.8</ele>
        <time>2024-07-24T09:03:28Z</time>
      </trkpt>
      <trkpt lat="49.7934" lon="2.41542">
        <ele>106.8</ele>
        <time>2024-07-24T09:03:30Z</time>
      </trkpt>
      <trkpt lat="49.7934" lon="2.41542">
        <ele>106.8</ele>
        <time>2024-07-24T09:03:32Z</time>
      </trkpt>
      <trkpt lat="49.7934" lon="2.41542">
        <ele>106.8</ele>
        <time>2024-07-24T09:03:34Z</time>
      </trkpt>
      <trkpt lat="49.7934" lon="2.41542">
        <ele>106.8</ele>
        <time>2024-07-24T09:03:36Z</time>
      </trkpt>
      <trkpt lat="49.7934" lon="2.41542">
        <ele>106.8</ele>
        <time>2024-07-24T09:03:38Z</time>
      </trkpt>
      <trkpt lat="49.7934" lon="2.41542">
        <ele>106.8</ele>
        <time>2024-07-24T09:03:40Z</time>
      </trkpt>
      <trkpt lat="49.7934" lon="2.41542">
        <ele>106.9</ele>
        <time>2024-07-24T09:03:42Z</time>
      </trkpt>
      <trkpt lat="49.7934" lon="2.41542">
        <ele>106.9</ele>
        <time>2024-07-24T09:03:44Z</time>
      </trkpt>
      <trkpt lat="49.7934" lon="2.41542">
        <ele>106.9</ele>
        <time>2024-07-24T09:03:46Z</time>
      </trkpt>
      <trkpt lat="49.7934" lon="2.41542">
        <ele>106.9</ele>
        <time>2024-07-24T09:03:48Z</time>
      </trkpt>
      <trkpt lat="49.7934" lon="2.41542">
        <ele>106.9</ele>
        <time>2024-07-24T09:03:50Z</time>
      </trkpt>
      <trkpt lat="49.7934" lon="2.41542">
        <ele>106.9</ele>
        <time>2024-07-24T09:03:52Z</time>
      </trkpt>
      <trkpt lat="49.7934" lon="2.41542">
        <ele>106.9</ele>
        <time>2024-07-24T09:03:54Z</time>
      </trkpt>
      <trkpt lat="49.7934" lon="2.41542">
        <ele>106.9</ele>
        <time>2024-07-24T09:03:56Z</time>
      </trkpt>
      <trkpt lat="49.7934" lon="2.41542">
        <ele>106.9</ele>
        <time>2024-07-24T09:03:58Z</time>
      </trkpt>
      <trkpt lat="49.7934" lon="2.41542">
        <ele>106.9</ele>
        <time>2024-07-24T09:04:00Z</time>
      </trkpt>
      <trkpt lat="49.7934" lon="2.41542">
        <ele>106.9</ele>
        <time>2024-07-24T09:04:02Z</time>
      </trkpt>
      <trkpt lat="49.7934" lon="2.41542">
        <ele>106.9</ele>
        <time>2024-07-24T09:04:04Z</time>
      </trkpt>
      <trkpt lat="49.7934" lon="2.41542">
        <ele>106.9</ele>
        <time>2024-07-24T09:04:06Z</time>
      </trkpt>
      <trkpt lat="49.7934" lon="2.41542">
        <ele>106.9</ele>
        <time>2024-07-24T09:04:08Z</time>
      </trkpt>
      <trkpt lat="49.7934" lon="2.41542">
        <ele>106.9</ele>
        <time>2024-07-24T09:04:10Z</time>
      </trkpt>
      <trkpt lat="49.7934" lon="2.41542">
        <ele>106.9</ele>
        <time>2024-07-24T09:04:12Z</time>
      </trkpt>
      <trkpt lat="49.7934" lon="2.41542">
        <ele>106.9</ele>
        <time>2024-07-24T09:04:14Z</time>
      </trkpt>
      <trkpt lat="49.7934" lon="2.41542">
        <ele>106.9</ele>
        <time>2024-07-24T09:04:16Z</time>
      </trkpt>
      <trkpt lat="49.7934" lon="2.41542">
        <ele>106.9</ele>
        <time>2024-07-24T09:04:18Z</time>
      </trkpt>
      <trkpt lat="49.7934" lon="2.41542">
        <ele>106.9</ele>
        <time>2024-07-24T09:04:20Z</time>
      </trkpt>
      <trkpt lat="49.7934" lon="2.41542">
        <ele>106.9</ele>
        <time>2024-07-24T09:04:22Z</time>
      </trkpt>
      <trkpt lat="49.7934" lon="2.41542">
        <ele>107</ele>
        <time>2024-07-24T09:04:24Z</time>
      </trkpt>
      <trkpt lat="49.7934" lon="2.41542">
        <ele>107</ele>
        <time>2024-07-24T09:04:26Z</time>
      </trkpt>
      <trkpt lat="49.7934" lon="2.41542">
        <ele>107</ele>
        <time>2024-07-24T09:04:28Z</time>
      </trkpt>
      <trkpt lat="49.7934" lon="2.41542">
        <ele>107</ele>
        <time>2024-07-24T09:04:30Z</time>
      </trkpt>
      <trkpt lat="49.7934" lon="2.41542">
        <ele>107</ele>
        <time>2024-07-24T09:04:32Z</time>
      </trkpt>
      <trkpt lat="49.7934" lon="2.41542">
        <ele>107</ele>
        <time>2024-07-24T09:04:34Z</time>
      </trkpt>
      <trkpt lat="49.7934" lon="2.41542">
        <ele>107</ele>
        <time>2024-07-24T09:04:36Z</time>
      </trkpt>
      <trkpt lat="49.7934" lon="2.41542">
        <ele>107</ele>
        <time>2024-07-24T09:04:38Z</time>
      </trkpt>
      <trkpt lat="49.7934" lon="2.41542">
        <ele>107</ele>
        <time>2024-07-24T09:04:40Z</time>
      </trkpt>
      <trkpt lat="49.7934" lon="2.41542">
        <ele>107</ele>
        <time>2024-07-24T09:04:42Z</time>
      </trkpt>
      <trkpt lat="49.7934" lon="2.41542">
        <ele>107</ele>
        <time>2024-07-24T09:04:44Z</time>
      </trkpt>
      <trkpt lat="49.7934" lon="2.41542">
        <ele>107</ele>
        <time>2024-07-24T09:04:46Z</time>
      </trkpt>
      <trkpt lat="49.7934" lon="2.41542">
        <ele>107</ele>
        <time>2024-07-24T09:04:48Z</time>
      </trkpt>
      <trkpt lat="49.7934" lon="2.41542">
        <ele>107</ele>
        <time>2024-07-24T09:04:50Z</time>
      </trkpt>
      <trkpt lat="49.7934" lon="2.41542">
        <ele>107</ele>
        <time>2024-07-24T09:04:52Z</time>
      </trkpt>
      <trkpt lat="49.7934" lon="2.41542">
        <ele>107</ele>
        <time>2024-07-24T09:04:54Z</time>
      </trkpt>
      <trkpt lat="49.7934" lon="2.41542">
        <ele>107</ele>
        <time>2024-07-24T09:04:56Z</time>
      </trkpt>
      <trkpt lat="49.7934" lon="2.41542">
        <ele>107</ele>
        <time>2024-07-24T09:04:58Z</time>
      </trkpt>
      <trkpt lat="49.7934" lon="2.41542">
        <ele>107</ele>
        <time>2024-07-24T09:05:00Z</time>
      </trkpt>
      <trkpt lat="49.7934" lon="2.41542">
        <ele>107</ele>
        <time>2024-07-24T09:05:02Z</time>
      </trkpt>
      <trkpt lat="49.7934" lon="2.41542">
        <ele>107</ele>
        <time>2024-07-24T09:05:04Z</time>
      </trkpt>
      <trkpt lat="49.7934" lon="2.41542">
        <ele>107.1</ele>
        <time>2024-07-24T09:05:06Z</time>
      </trkpt>
      <trkpt lat="49.7934" lon="2.41542">
        <ele>107.1</ele>
        <time>2024-07-24T09:05:08Z</time>
      </trkpt>
      <trkpt lat="49.7934" lon="2.41542">
        <ele>107.1</ele>
        <time>2024-07-24T09:05:10Z</time>
      </trkpt>
      <trkpt lat="49.7934" lon="2.41542">
        <ele>107.1</ele>
        <time>2024-07-24T09:05:12Z</time>
      </trkpt>
      <trkpt lat="49.7934" lon="2.41542">
        <ele>107.1</ele>
        <time>2024-07-24T09:05:14Z</time>
      </trkpt>
      <trkpt lat="49.7934" lon="2.41542">
        <ele>107.1</ele>
        <time>2024-07-24T09:05:16Z</time>
      </trkpt>
      <trkpt lat="49.7934" lon="2.41542">
        <ele>107.1</ele>
        <time>2024-07-24T09:05:18Z</time>
      </trkpt>
      <trkpt lat="49.7934" lon="2.41542">
        <ele>107.1</ele>
        <time>2024-07-24T09:05:20Z</time>
      </trkpt>
      <trkpt lat="49.7934" lon="2.41542">
        <ele>107.1</ele>
        <time>2024-07-24T09:05:22Z</time>
      </trkpt>
      <trkpt lat="49.7934" lon="2.41542">
        <ele>107.1</ele>
        <time>2024-07-24T09:05:24Z</time>
      </trkpt>
      <trkpt lat="49.7934" lon="2.41542">
        <ele>107.1</ele>
        <time>2024-07-24T09:05:26Z</time>
      </trkpt>
      <trkpt lat="49.7934" lon="2.41542">
        <ele>107.1</ele>
        <time>2024-07-24T09:05:28Z</time>
      </trkpt>
      <trkpt lat="49.7934" lon="2.41542">
        <ele>107.1</ele>
        <time>2024-07-24T09:05:30Z</time>
      </trkpt>
      <trkpt lat="49.7934" lon="2.41542">
        <ele>107.1</ele>
        <time>2024-07-24T09:05:32Z</time>
      </trkpt>
      <trkpt lat="49.7934" lon="2.41542">
        <ele>107.1</ele>
        <time>2024-07-24T09:05:34Z</time>
      </trkpt>
      <trkpt lat="49.7934" lon="2.41542">
        <ele>107.1</ele>
        <time>2024-07-24T09:05:36Z</time>
      </trkpt>
      <trkpt lat="49.7934" lon="2.41542">
        <ele>107.1</ele>
        <time>2024-07-24T09:05:38Z</time>
      </trkpt>
      <trkpt lat="49.7934" lon="2.41542">
        <ele>107.1</ele>
        <time>2024-07-24T09:05:40Z</time>
      </trkpt>
      <trkpt lat="49.7934" lon="2.41542">
        <ele>107.1</ele>
        <time>2024-07-24T09:05:42Z</time>
      </trkpt>
      <trkpt lat="49.7934" lon="2.41542">
        <ele>107.1</ele>
        <time>2024-07-24T09:05:44Z</time>
      </trkpt>
      <trkpt lat="49.7934" lon="2.41542">
        <ele>107.2</ele>
        <time>2024-07-24T09:05:46Z</time>
      </trkpt>
      <trkpt lat="49.7934" lon="2.41542">
        <ele>107.2</ele>
        <time>2024-07-24T09:05:48Z</time>
      </trkpt>
      <trkpt lat="49.7934" lon="2.41542">
        <ele>107.2</ele>
        <time>2024-07-24T09:05:50Z</time>
      </trkpt>
      <trkpt lat="49.7934" lon="2.41542">
        <ele>107.2</ele>
        <time>2024-07-24T09:05:52Z</time>
      </trkpt>
      <trkpt lat="49.7934" lon="2.41542">
        <ele>107.2</ele>
        <time>2024-07-24T09:05:54Z</time>
      </trkpt>
      <trkpt lat="49.7934" lon="2.41542">
        <ele>107.2</ele>
        <time>2024-07-24T09:05:56Z</time>
      </trkpt>
      <trkpt lat="49.7934" lon="2.41542">
        <ele>107.2</ele>
        <time>2024-07-24T09:05:58Z</time>
      </trkpt>
      <trkpt lat="49.7934" lon="2.41542">
        <ele>107.2</ele>
        <time>2024-07-24T09:06:00Z</time>
      </trkpt>
      <trkpt lat="49.7934" lon="2.41542">
        <ele>107.2</ele>
        <time>2024-07-24T09:06:02Z</time>
      </trkpt>
      <trkpt lat="49.7934" lon="2.41542">
        <ele>107.2</ele>
        <time>2024-07-24T09:06:04Z</time>
      </trkpt>
      <trkpt lat="49.7934" lon="2.41542">
        <ele>107.2</ele>
        <time>2024-07-24T09:06:06Z</time>
      </trkpt>
      <trkpt lat="49.7934" lon="2.41542">
        <ele>107.2</ele>
        <time>2024-07-24T09:06:08Z</time>
      </trkpt>
      <trkpt lat="49.7934" lon="2.41542">
        <ele>107.2</ele>
        <time>2024-07-24T09:06:10Z</time>
      </trkpt>
      <trkpt lat="49.7934" lon="2.41542">
        <ele>107.2</ele>
        <time>2024-07-24T09:06:12Z</time>
      </trkpt>
      <trkpt lat="49.7934" lon="2.41542">
        <ele>107.2</ele>
        <time>2024-07-24T09:06:14Z</time>
      </trkpt>
      <trkpt lat="49.7934" lon="2.41542">
        <ele>107.2</ele>
        <time>2024-07-24T09:06:16Z</time>
      </trkpt>
      <trkpt lat="49.7934" lon="2.41542">
        <ele>107.2</ele>
        <time>2024-07-24T09:06:18Z</time>
      </trkpt>
      <trkpt lat="49.7934" lon="2.41542">
        <ele>107.2</ele>
        <time>2024-07-24T09:06:20Z</time>
      </trkpt>
      <trkpt lat="49.7934" lon="2.41542">
        <ele>107.2</ele>
        <time>2024-07-24T09:06:22Z</time>
      </trkpt>
      <trkpt lat="49.7934" lon="2.41542">
        <ele>107.2</ele>
        <time>2024-07-24T09:06:24Z</time>
      </trkpt>
      <trkpt lat="49.7934" lon="2.41542">
        <ele>107.2</ele>
        <time>2024-07-24T09:06:26Z</time>
      </trkpt>
      <trkpt lat="49.7934" lon="2.41542">
        <ele>107.3</ele>
        <time>2024-07-24T09:06:28Z</time>
      </trkpt>
      <trkpt lat="49.7934" lon="2.41542">
        <ele>107.3</ele>
        <time>2024-07-24T09:06:30Z</time>
      </trkpt>
      <trkpt lat="49.7934" lon="2.41542">
        <ele>107.3</ele>
        <time>2024-07-24T09:06:32Z</time>
      </trkpt>
      <trkpt lat="49.7934" lon="2.41542">
        <ele>107.3</ele>
        <time>2024-07-24T09:06:34Z</time>
      </trkpt>
      <trkpt lat="49.7934" lon="2.41542">
        <ele>107.3</ele>
        <time>2024-07-24T09:06:36Z</time>
      </trkpt>
      <trkpt lat="49.7934" lon="2.41542">
        <ele>107.3</ele>
        <time>2024-07-24T09:06:38Z</time>
      </trkpt>
      <trkpt lat="49.7934" lon="2.41542">
        <ele>107.3</ele>
        <time>2024-07-24T09:06:40Z</time>
      </trkpt>
      <trkpt lat="49.7934" lon="2.41542">
        <ele>107.3</ele>
        <time>2024-07-24T09:06:42Z</time>
      </trkpt>
      <trkpt lat="49.7934" lon="2.41542">
        <ele>107.3</ele>
        <time>2024-07-24T09:06:44Z</time>
      </trkpt>
      <trkpt lat="49.7934" lon="2.41542">
        <ele>107.3</ele>
        <time>2024-07-24T09:06:46Z</time>
      </trkpt>
      <trkpt lat="49.7934" lon="2.41542">
        <ele>107.3</ele>
        <time>2024-07-24T09:06:48Z</time>
      </trkpt>
      <trkpt lat="49.7934" lon="2.41542">
        <ele>107.3</ele>
        <time>2024-07-24T09:06:50Z</time>
      </trkpt>
      <trkpt lat="49.7934" lon="2.41542">
        <ele>107.3</ele>
        <time>2024-07-24T09:06:52Z</time>
      </trkpt>
      <trkpt lat="49.7934" lon="2.41542">
        <ele>107.3</ele>
        <time>2024-07-24T09:06:54Z</time>
      </trkpt>
      <trkpt lat="49.7934" lon="2.41542">
        <ele>107.3</ele>
        <time>2024-07-24T09:06:56Z</time>
      </trkpt>
      <trkpt lat="49.7934" lon="2.41542">
        <ele>107.3</ele>
        <time>2024-07-24T09:06:58Z</time>
      </trkpt>
      <trkpt lat="49.7934" lon="2.41542">
        <ele>107.3</ele>
        <time>2024-07-24T09:07:00Z</time>
      </trkpt>
      <trkpt lat="49.7934" lon="2.41542">
        <ele>107.3</ele>
        <time>2024-07-24T09:07:02Z</time>
      </trkpt>
      <trkpt lat="49.7934" lon="2.41542">
        <ele>107.3</ele>
        <time>2024-07-24T09:07:04Z</time>
      </trkpt>
      <trkpt lat="49.7934" lon="2.41542">
        <ele>107.3</ele>
        <time>2024-07-24T09:07:06Z</time>
      </trkpt>
      <trkpt lat="49.7934" lon="2.41542">
        <ele>107.3</ele>
        <time>2024-07-24T09:07:08Z</time>
      </trkpt>
      <trkpt lat="49.7934" lon="2.41542">
        <ele>107.4</ele>
        <time>2024-07-24T09:07:10Z</time>
      </trkpt>
      <trkpt lat="49.7934" lon="2.41542">
        <ele>107.4</ele>
        <time>2024-07-24T09:07:12Z</time>
      </trkpt>
      <trkpt lat="49.7934" lon="2.41542">
        <ele>107.4</ele>
        <time>2024-07-24T09:07:14Z</time>
      </trkpt>
      <trkpt lat="49.7934" lon="2.41542">
        <ele>107.4</ele>
        <time>2024-07-24T09:07:16Z</time>
      </trkpt>
      <trkpt lat="49.7934" lon="2.41542">
        <ele>107.4</ele>
        <time>2024-07-24T09:07:18Z</time>
      </trkpt>
      <trkpt lat="49.7934" lon="2.41542">
        <ele>107.4</ele>
        <time>2024-07-24T09:07:20Z</time>
      </trkpt>
      <trkpt lat="49.7934" lon="2.41542">
        <ele>107.4</ele>
        <time>2024-07-24T09:07:22Z</time>
      </trkpt>
      <trkpt lat="49.7934" lon="2.41542">
        <ele>107.4</ele>
        <time>2024-07-24T09:07:24Z</time>
      </trkpt>
      <trkpt lat="49.7934" lon="2.41542">
        <ele>107.4</ele>
        <time>2024-07-24T09:07:26Z</time>
      </trkpt>
      <trkpt lat="49.7934" lon="2.41542">
        <ele>107.4</ele>
        <time>2024-07-24T09:07:28Z</time>
      </trkpt>
      <trkpt lat="49.7934" lon="2.41542">
        <ele>107.4</ele>
        <time>2024-07-24T09:07:30Z</time>
      </trkpt>
      <trkpt lat="49.7934" lon="2.41542">
        <ele>107.4</ele>
        <time>2024-07-24T09:07:32Z</time>
      </trkpt>
      <trkpt lat="49.7934" lon="2.41542">
        <ele>107.4</ele>
        <time>2024-07-24T09:07:34Z</time>
      </trkpt>
      <trkpt lat="49.7934" lon="2.41542">
        <ele>107.4</ele>
        <time>2024-07-24T09:07:36Z</time>
      </trkpt>
      <trkpt lat="49.7934" lon="2.41542">
        <ele>107.4</ele>
        <time>2024-07-24T09:07:38Z</time>
      </trkpt>
      <trkpt lat="49.7934" lon="2.41542">
        <ele>107.4</ele>
        <time>2024-07-24T09:07:40Z</time>
      </trkpt>
      <trkpt lat="49.7934" lon="2.41542">
        <ele>107.4</ele>
        <time>2024-07-24T09:07:42Z</time>
      </trkpt>
      <trkpt lat="49.7934" lon="2.41542">
        <ele>107.4</ele>
        <time>2024-07-24T09:07:44Z</time>
      </trkpt>
      <trkpt lat="49.7934" lon="2.41542">
        <ele>107.4</ele>
        <time>2024-07-24T09:07:46Z</time>
      </trkpt>
      <trkpt lat="49.7934" lon="2.41542">
        <ele>107.4</ele>
        <time>2024-07-24T09:07:48Z</time>
      </trkpt>
      <trkpt lat="49.7934" lon="2.41542">
        <ele>107.4</ele>
        <time>2024-07-24T09:07:50Z</time>
      </trkpt>
      <trkpt lat="49.7934" lon="2.41542">
        <ele>107.5</ele>
        <time>2024-07-24T09:07:52Z</time>
      </trkpt>
      <trkpt lat="49.7934" lon="2.41542">
        <ele>107.5</ele>
        <time>2024-07-24T09:07:54Z</time>
      </trkpt>
      <trkpt lat="49.7934" lon="2.41542">
        <ele>107.5</ele>
        <time>2024-07-24T09:07:56Z</time>
      </trkpt>
      <trkpt lat="49.7934" lon="2.41542">
        <ele>107.5</ele>
        <time>2024-07-24T09:07:58Z</time>
      </trkpt>
      <trkpt lat="49.7934" lon="2.41542">
        <ele>107.5</ele>
        <time>2024-07-24T09:08:00Z</time>
      </trkpt>
      <trkpt lat="49.7934" lon="2.41542">
        <ele>107.5</ele>
        <time>2024-07-24T09:08:02Z</time>
      </trkpt>
      <trkpt lat="49.7934" lon="2.41542">
        <ele>107.5</ele>
        <time>2024-07-24T09:08:04Z</time>
      </trkpt>
      <trkpt lat="49.7934" lon="2.41542">
        <ele>107.5</ele>
        <time>2024-07-24T09:08:06Z</time>
      </trkpt>
      <trkpt lat="49.7934" lon="2.41542">
        <ele>107.5</ele>
        <time>2024-07-24T09:08:08Z</time>
      </trkpt>
      <trkpt lat="49.7934" lon="2.41542">
        <ele>107.5</ele>
        <time>2024-07-24T09:08:10Z</time>
      </trkpt>
      <trkpt lat="49.7934" lon="2.41542">
        <ele>107.5</ele>
        <time>2024-07-24T09:08:12Z</time>
      </trkpt>
      <trkpt lat="49.7934" lon="2.41542">
        <ele>107.5</ele>
        <time>2024-07-24T09:08:14Z</time>
      </trkpt>
      <trkpt lat="49.7934" lon="2.41542">
        <ele>107.5</ele>
        <time>2024-07-24T09:08:16Z</time>
      </trkpt>
      <trkpt lat="49.7934" lon="2.41542">
        <ele>107.5</ele>
        <time>2024-07-24T09:08:18Z</time>
      </trkpt>
      <trkpt lat="49.7934" lon="2.41542">
        <ele>107.5</ele>
        <time>2024-07-24T09:08:20Z</time>
      </trkpt>
      <trkpt lat="49.7934" lon="2.41542">
        <ele>107.5</ele>
        <time>2024-07-24T09:08:22Z</time>
      </trkpt>
      <trkpt lat="49.7934" lon="2.41542">
        <ele>107.5</ele>
        <time>2024-07-24T09:08:24Z</time>
      </trkpt>
      <trkpt lat="49.7934" lon="2.41542">
        <ele>107.5</ele>
        <time>2024-07-24T09:08:26Z</time>
      </trkpt>
      <trkpt lat="49.7934" lon="2.41542">
        <ele>107.5</ele>
        <time>2024-07-24T09:08:28Z</time>
      </trkpt>
      <trkpt lat="49.7934" lon="2.41542">
        <ele>107.5</ele>
        <time>2024-07-24T09:08:30Z</time>
      </trkpt>
      <trkpt lat="49.7934" lon="2.41542">
        <ele>107.5</ele>
        <time>2024-07-24T09:08:32Z</time>
      </trkpt>
      <trkpt lat="49.7934" lon="2.41542">
        <ele>107.6</ele>
        <time>2024-07-24T09:08:34Z</time>
      </trkpt>
      <trkpt lat="49.7934" lon="2.41542">
        <ele>107.6</ele>
        <time>2024-07-24T09:08:36Z</time>
      </trkpt>
      <trkpt lat="49.7934" lon="2.41542">
        <ele>107.6</ele>
        <time>2024-07-24T09:08:38Z</time>
      </trkpt>
      <trkpt lat="49.7934" lon="2.41542">
        <ele>107.6</ele>
        <time>2024-07-24T09:08:40Z</time>
      </trkpt>
      <trkpt lat="49.7934" lon="2.41542">
        <ele>107.6</ele>
        <time>2024-07-24T09:08:42Z</time>
      </trkpt>
      <trkpt lat="49.7934" lon="2.41542">
        <ele>107.6</ele>
        <time>2024-07-24T09:08:44Z</time>
      </trkpt>
      <trkpt lat="49.7934" lon="2.41542">
        <ele>107.6</ele>
        <time>2024-07-24T09:08:46Z</time>
      </trkpt>
      <trkpt lat="49.7934" lon="2.41542">
        <ele>107.6</ele>
        <time>2024-07-24T09:08:48Z</time>
      </trkpt>
      <trkpt lat="49.7934" lon="2.41542">
        <ele>107.6</ele>
        <time>2024-07-24T09:08:50Z</time>
      </trkpt>
      <trkpt lat="49.7934" lon="2.41542">
        <ele>107.6</ele>
        <time>2024-07-24T09:08:52Z</time>
      </trkpt>
      <trkpt lat="49.7934" lon="2.41542">
        <ele>107.6</ele>
        <time>2024-07-24T09:08:54Z</time>
      </trkpt>
      <trkpt lat="49.7934" lon="2.41542">
        <ele>107.6</ele>
        <time>2024-07-24T09:08:56Z</time>
      </trkpt>
      <trkpt lat="49.7934" lon="2.41542">
        <ele>107.6</ele>
        <time>2024-07-24T09:08:58Z</time>
      </trkpt>
      <trkpt lat="49.7934" lon="2.41542">
        <ele>107.6</ele>
        <time>2024-07-24T09:09:00Z</time>
      </trkpt>
      <trkpt lat="49.7934" lon="2.41542">
        <ele>107.6</ele>
        <time>2024-07-24T09:09:02Z</time>
      </trkpt>
      <trkpt lat="49.7934" lon="2.41542">
        <ele>107.6</ele>
        <time>2024-07-24T09:09:04Z</time>
      </trkpt>
      <trkpt lat="49.7934" lon="2.41542">
        <ele>107.6</ele>
        <time>2024-07-24T09:09:06Z</time>
      </trkpt>
      <trkpt lat="49.7934" lon="2.41542">
        <ele>107.6</ele>
        <time>2024-07-24T09:09:08Z</time>
      </trkpt>
      <trkpt lat="49.7934" lon="2.41542">
        <ele>107.6</ele>
        <time>2024-07-24T09:09:10Z</time>
      </trkpt>
      <trkpt lat="49.7934" lon="2.41542">
        <ele>107.6</ele>
        <time>2024-07-24T09:09:12Z</time>
      </trkpt>
      <trkpt lat="49.7934" lon="2.41542">
        <ele>107.7</ele>
        <time>2024-07-24T09:09:14Z</time>
      </trkpt>
      <trkpt lat="49.7934" lon="2.41542">
        <ele>107.7</ele>
        <time>2024-07-24T09:09:16Z</time>
      </trkpt>
      <trkpt lat="49.7934" lon="2.41542">
        <ele>107.7</ele>
        <time>2024-07-24T09:09:18Z</time>
      </trkpt>
      <trkpt lat="49.7934" lon="2.41542">
        <ele>107.7</ele>
        <time>2024-07-24T09:09:20Z</time>
      </trkpt>
      <trkpt lat="49.7934" lon="2.41542">
        <ele>107.7</ele>
        <time>2024-07-24T09:09:22Z</time>
      </trkpt>
      <trkpt lat="49.7934" lon="2.41542">
        <ele>107.7</ele>
        <time>2024-07-24T09:09:24Z</time>
      </trkpt>
      <trkpt lat="49.7934" lon="2.41542">
        <ele>107.7</ele>
        <time>2024-07-24T09:09:26Z</time>
      </trkpt>
      <trkpt lat="49.7934" lon="2.41542">
        <ele>107.7</ele>
        <time>2024-07-24T09:09:28Z</time>
      </trkpt>
      <trkpt lat="49.7934" lon="2.41542">
        <ele>107.7</ele>
        <time>2024-07-24T09:09:30Z</time>
      </trkpt>
      <trkpt lat="49.7934" lon="2.41542">
        <ele>107.7</ele>
        <time>2024-07-24T09:09:32Z</time>
      </trkpt>
      <trkpt lat="49.7934" lon="2.41542">
        <ele>107.7</ele>
        <time>2024-07-24T09:09:34Z</time>
      </trkpt>
      <trkpt lat="49.7934" lon="2.41542">
        <ele>107.7</ele>
        <time>2024-07-24T09:09:36Z</time>
      </trkpt>
      <trkpt lat="49.7934" lon="2.41542">
        <ele>107.7</ele>
        <time>2024-07-24T09:09:38Z</time>
      </trkpt>
      <trkpt lat="49.7934" lon="2.41542">
        <ele>107.7</ele>
        <time>2024-07-24T09:09:40Z</time>
      </trkpt>
      <trkpt lat="49.7934" lon="2.41542">
        <ele>107.7</ele>
        <time>2024-07-24T09:09:42Z</time>
      </trkpt>
      <trkpt lat="49.7934" lon="2.41542">
        <ele>107.7</ele>
        <time>2024-07-24T09:09:44Z</time>
      </trkpt>
      <trkpt lat="49.7934" lon="2.41542">
        <ele>107.7</ele>
        <time>2024-07-24T09:09:46Z</time>
      </trkpt>
      <trkpt lat="49.7934" lon="2.41542">
        <ele>107.7</ele>
        <time>2024-07-24T09:09:48Z</time>
      </trkpt>
      <trkpt lat="49.7934" lon="2.41542">
        <ele>107.7</ele>
        <time>2024-07-24T09:09:50Z</time>
      </trkpt>
      <trkpt lat="49.7934" lon="2.41542">
        <ele>107.7</ele>
        <time>2024-07-24T09:09:52Z</time>
      </trkpt>
      <trkpt lat="49.7934" lon="2.41542">
        <ele>107.7</ele>
        <time>2024-07-24T09:09:54Z</time>
      </trkpt>
      <trkpt lat="49.7934" lon="2.41542">
        <ele>107.8</ele>
        <time>2024-07-24T09:09:56Z</time>
      </trkpt>
      <trkpt lat="49.7934" lon="2.41542">
        <ele>107.8</ele>
        <time>2024-07-24T09:09:58Z</time>
      </trkpt>
      <trkpt lat="49.7934" lon="2.41542">
        <ele>107.8</ele>
        <time>2024-07-24T09:10:00Z</time>
      </trkpt>
      <trkpt lat="49.7934" lon="2.41542">
        <ele>107.8</ele>
        <time>2024-07-24T09:10:02Z</time>
      </trkpt>
      <trkpt lat="49.7934" lon="2.41542">
        <ele>107.8</ele>
        <time>2024-07-24T09:10:04Z</time>
      </trkpt>
      <trkpt lat="49.7934" lon="2.41542">
        <ele>107.8</ele>
        <time>2024-07-24T09:10:06Z</time>
      </trkpt>
      <trkpt lat="49.7934" lon="2.41542">
        <ele>107.8</ele>
        <time>2024-07-24T09:10:08Z</time>
      </trkpt>
      <trkpt lat="49.7934" lon="2.41542">
        <ele>107.8</ele>
        <time>2024-07-24T09:10:10Z</time>
      </trkpt>
      <trkpt lat="49.7934" lon="2.41542">
        <ele>107.8</ele>
        <time>2024-07-24T09:10:12Z</time>
      </trkpt>
      <trkpt lat="49.7934" lon="2.41542">
        <ele>107.8</ele>
        <time>2024-07-24T09:10:14Z</time>
      </trkpt>
      <trkpt lat="49.7934" lon="2.41542">
        <ele>107.8</ele>
        <time>2024-07-24T09:10:16Z</time>
      </trkpt>
      <trkpt lat="49.7934" lon="2.41542">
        <ele>107.8</ele>
        <time>2024-07-24T09:10:18Z</time>
      </trkpt>
      <trkpt lat="49.7934" lon="2.41542">
        <ele>107.8</ele>
        <time>2024-07-24T09:10:20Z</time>
      </trkpt>
      <trkpt lat="49.7934" lon="2.41542">
        <ele>107.8</ele>
        <time>2024-07-24T09:10:22Z</time>
      </trkpt>
      <trkpt lat="49.7934" lon="2.41542">
        <ele>107.8</ele>
        <time>2024-07-24T09:10:24Z</time>
      </trkpt>
      <trkpt lat="49.7934" lon="2.41542">
        <ele>107.8</ele>
        <time>2024-07-24T09:10:26Z</time>
      </trkpt>
      <trkpt lat="49.7934" lon="2.41542">
        <ele>107.8</ele>
        <time>2024-07-24T09:10:28Z</time>
      </trkpt>
      <trkpt lat="49.7934" lon="2.41542">
        <ele>107.8</ele>
        <time>2024-07-24T09:10:30Z</time>
      </trkpt>
      <trkpt lat="49.7934" lon="2.41542">
        <ele>107.8</ele>
        <time>2024-07-24T09:10:32Z</time>
      </trkpt>
      <trkpt lat="49.7934" lon="2.41542">
        <ele>107.8</ele>
        <time>2024-07-24T09:10:34Z</time>
      </trkpt>
      <trkpt lat="49.7934" lon="2.41542">
        <ele>107.8</ele>
        <time>2024-07-24T09:10:36Z</time>
      </trkpt>
      <trkpt lat="49.7934" lon="2.41542">
        <ele>107.9</ele>
        <time>2024-07-24T09:10:38Z</time>
      </trkpt>
      <trkpt lat="49.7934" lon="2.41542">
        <ele>107.9</ele>
        <time>2024-07-24T09:10:40Z</time>
      </trkpt>
      <trkpt lat="49.7934" lon="2.41542">
        <ele>107.9</ele>
        <time>2024-07-24T09:10:42Z</time>
      </trkpt>
      <trkpt lat="49.7934" lon="2.41542">
        <ele>107.9</ele>
        <time>2024-07-24T09:10:44Z</time>
      </trkpt>
      <trkpt lat="49.7934" lon="2.41542">
        <ele>107.9</ele>
        <time>2024-07-24T09:10:46Z</time>
      </trkpt>
      <trkpt lat="49.7934" lon="2.41542">
        <ele>107.9</ele>
        <time>2024-07-24T09:10:48Z</time>
      </trkpt>
      <trkpt lat="49.7934" lon="2.41542">
        <ele>107.9</ele>
        <time>2024-07-24T09:10:50Z</time>
      </trkpt>
      <trkpt lat="49.7934" lon="2.41542">
        <ele>107.9</ele>
        <time>2024-07-24T09:10:52Z</time>
      </trkpt>
      <trkpt lat="49.7934" lon="2.41542">
        <ele>107.9</ele>
        <time>2024-07-24T09:10:54Z</time>
      </trkpt>
      <trkpt lat="49.7934" lon="2.41542">
        <ele>107.9</ele>
        <time>2024-07-24T09:10:56Z</time>
      </trkpt>
      <trkpt lat="49.7934" lon="2.41542">
        <ele>107.9</ele>
        <time>2024-07-24T09:10:58Z</time>
      </trkpt>
      <trkpt lat="49.7934" lon="2.41542">
        <ele>107.9</ele>
        <time>2024-07-24T09:11:00Z</time>
      </trkpt>
      <trkpt lat="49.7934" lon="2.41542">
        <ele>107.9</ele>
        <time>2024-07-24T09:11:02Z</time>
      </trkpt>
      <trkpt lat="49.7934" lon="2.41542">
        <ele>107.9</ele>
        <time>2024-07-24T09:11:04Z</time>
      </trkpt>
      <trkpt lat="49.7934" lon="2.41542">
        <ele>107.9</ele>
        <time>2024-07-24T09:11:06Z</time>
      </trkpt>
      <trkpt lat="49.7934" lon="2.41542">
        <ele>107.9</ele>
        <time>2024-07-24T09:11:08Z</time>
      </trkpt>
      <trkpt lat="49.7934" lon="2.41542">
        <ele>107.9</ele>
        <time>2024-07-24T09:11:10Z</time>
      </trkpt>
      <trkpt lat="49.7934" lon="2.41542">
        <ele>107.9</ele>
        <time>2024-07-24T09:11:12Z</time>
      </trkpt>
      <trkpt lat="49.7934" lon="2.41542">
        <ele>107.9</ele>
        <time>2024-07-24T09:11:14Z</time>
      </trkpt>
      <trkpt lat="49.7934" lon="2.41542">
        <ele>107.9</ele>
        <time>2024-07-24T09:11:16Z</time>
      </trkpt>
      <trkpt lat="49.7934" lon="2.41542">
        <ele>107.9</ele>
        <time>2024-07-24T09:11:18Z</time>
      </trkpt>
      <trkpt lat="49.7934" lon="2.41542">
        <ele>108</ele>
        <time>2024-07-24T09:11:20Z</time>
      </trkpt>
      <trkpt lat="49.7934" lon="2.41542">
        <ele>108</ele>
        <time>2024-07-24T09:11:22Z</time>
      </trkpt>
      <trkpt lat="49.7934" lon="2.41542">
        <ele>108</ele>
        <time>2024-07-24T09:11:24Z</time>
      </trkpt>
      <trkpt lat="49.7934" lon="2.41542">
        <ele>108</ele>
        <time>2024-07-24T09:11:26Z</time>
      </trkpt>
      <trkpt lat="49.7934" lon="2.41542">
        <ele>108</ele>
        <time>2024-07-24T09:11:28Z</time>
      </trkpt>
      <trkpt lat="49.7934" lon="2.41542">
        <ele>108</ele>
        <time>2024-07-24T09:11:30Z</time>
      </trkpt>
      <trkpt lat="49.7934" lon="2.41542">
        <ele>108</ele>
        <time>2024-07-24T09:11:32Z</time>
      </trkpt>
      <trkpt lat="49.7934" lon="2.41542">
        <ele>108</ele>
        <time>2024-07-24T09:11:34Z</time>
      </trkpt>
      <trkpt lat="49.7934" lon="2.41542">
        <ele>108</ele>
        <time>2024-07-24T09:11:36Z</time>
      </trkpt>
      <trkpt lat="49.7934" lon="2.41542">
        <ele>108</ele>
        <time>2024-07-24T09:11:38Z</time>
      </trkpt>
      <trkpt lat="49.7934" lon="2.41542">
        <ele>108</ele>
        <time>2024-07-24T09:11:40Z</time>
      </trkpt>
      <trkpt lat="49.7934" lon="2.41542">
        <ele>108</ele>
        <time>2024-07-24T09:11:42Z</time>
      </trkpt>
      <trkpt lat="49.7934" lon="2.41542">
        <ele>108</ele>
        <time>2024-07-24T09:11:44Z</time>
      </trkpt>
      <trkpt lat="49.7934" lon="2.41542">
        <ele>108</ele>
        <time>2024-07-24T09:11:46Z</time>
      </trkpt>
      <trkpt lat="49.7934" lon="2.41542">
        <ele>108</ele>
        <time>2024-07-24T09:11:48Z</time>
      </trkpt>
      <trkpt lat="49.7934" lon="2.41542">
        <ele>108</ele>
        <time>2024-07-24T09:11:50Z</time>
      </trkpt>
      <trkpt lat="49.7934" lon="2.41542">
        <ele>108</ele>
        <time>2024-07-24T09:11:52Z</time>
      </trkpt>
      <trkpt lat="49.7934" lon="2.41542">
        <ele>108</ele>
        <time>2024-07-24T09:11:54Z</time>
      </trkpt>
      <trkpt lat="49.7934" lon="2.41542">
        <ele>108</ele>
        <time>2024-07-24T09:11:56Z</time>
      </trkpt>
      <trkpt lat="49.7934" lon="2.41542">
        <ele>108</ele>
        <time>2024-07-24T09:11:58Z</time>
      </trkpt>
      <trkpt lat="49.7934" lon="2.41542">
        <ele>108</ele>
        <time>2024-07-24T09:12:00Z</time>
      </trkpt>
      <trkpt lat="49.7934" lon="2.41542">
        <ele>108.1</ele>
        <time>2024-07-24T09:12:02Z</time>
      </trkpt>
      <trkpt lat="49.7934" lon="2.41542">
        <ele>108.1</ele>
        <time>2024-07-24T09:12:04Z</time>
      </trkpt>
      <trkpt lat="49.7934" lon="2.41542">
        <ele>108.1</ele>
        <time>2024-07-24T09:12:06Z</time>
      </trkpt>
      <trkpt lat="49.7934" lon="2.41542">
        <ele>108.1</ele>
        <time>2024-07-24T09:12:08Z</time>
      </trkpt>
      <trkpt lat="49.7934" lon="2.41542">
        <ele>108.1</ele>
        <time>2024-07-24T09:12:10Z</time>
      </trkpt>
      <trkpt lat="49.7934" lon="2.41542">
        <ele>108.1</ele>
        <time>2024-07-24T09:12:12Z</time>
      </trkpt>
      <trkpt lat="49.7934" lon="2.41542">
        <ele>108.1</ele>
        <time>2024-07-24T09:12:14Z</time>
      </trkpt>
      <trkpt lat="49.7934" lon="2.41542">
        <ele>108.1</ele>
        <time>2024-07-24T09:12:16Z</time>
      </trkpt>
      <trkpt lat="49.7934" lon="2.41542">
        <ele>108.1</ele>
        <time>2024-07-24T09:12:18Z</time>
      </trkpt>
      <trkpt lat="49.7934" lon="2.41542">
        <ele>108.1</ele>
        <time>2024-07-24T09:12:20Z</time>
      </trkpt>
      <trkpt lat="49.7934" lon="2.41542">
        <ele>108.1</ele>
        <time>2024-07-24T09:12:22Z</time>
      </trkpt>
      <trkpt lat="49.7934" lon="2.41542">
        <ele>108.1</ele>
        <time>2024-07-24T09:12:24Z</time>
      </trkpt>
      <trkpt lat="49.7934" lon="2.41542">
        <ele>108.1</ele>
        <time>2024-07-24T09:12:26Z</time>
      </trkpt>
      <trkpt lat="49.7934" lon="2.41542">
        <ele>108.1</ele>
        <time>2024-07-24T09:12:28Z</time>
      </trkpt>
      <trkpt lat="49.7934" lon="2.41542">
        <ele>108.1</ele>
        <time>2024-07-24T09:12:30Z</time>
      </trkpt>
      <trkpt lat="49.7934" lon="2.41542">
        <ele>108.1</ele>
        <time>2024-07-24T09:12:32Z</time>
      </trkpt>
      <trkpt lat="49.7934" lon="2.41542">
        <ele>108.1</ele>
        <time>2024-07-24T09:12:34Z</time>
      </trkpt>
      <trkpt lat="49.7934" lon="2.41542">
        <ele>108.1</ele>
        <time>2024-07-24T09:12:36Z</time>
      </trkpt>
      <trkpt lat="49.7934" lon="2.41542">
        <ele>108.1</ele>
        <time>2024-07-24T09:12:38Z</time>
      </trkpt>
      <trkpt lat="49.7934" lon="2.41542">
        <ele>108.1</ele>
        <time>2024-07-24T09:12:40Z</time>
      </trkpt>
      <trkpt lat="49.7934" lon="2.41542">
        <ele>108.2</ele>
        <time>2024-07-24T09:12:42Z</time>
      </trkpt>
      <trkpt lat="49.7934" lon="2.41542">
        <ele>108.2</ele>
        <time>2024-07-24T09:12:44Z</time>
      </trkpt>
      <trkpt lat="49.7934" lon="2.41542">
        <ele>108.2</ele>
        <time>2024-07-24T09:12:46Z</time>
      </trkpt>
      <trkpt lat="49.7934" lon="2.41542">
        <ele>108.2</ele>
        <time>2024-07-24T09:12:48Z</time>
      </trkpt>
      <trkpt lat="49.7934" lon="2.41542">
        <ele>108.2</ele>
        <time>2024-07-24T09:12:50Z</time>
      </trkpt>
      <trkpt lat="49.7934" lon="2.41542">
        <ele>108.2</ele>
        <time>2024-07-24T09:12:52Z</time>
      </trkpt>
      <trkpt lat="49.7934" lon="2.41542">
        <ele>108.2</ele>
        <time>2024-07-24T09:12:54Z</time>
      </trkpt>
      <trkpt lat="49.7934" lon="2.41542">
        <ele>108.2</ele>
        <time>2024-07-24T09:12:56Z</time>
      </trkpt>
      <trkpt lat="49.7934" lon="2.41542">
        <ele>108.2</ele>
        <time>2024-07-24T09:12:58Z</time>
      </trkpt>
      <trkpt lat="49.7934" lon="2.41542">
        <ele>108.2</ele>
        <time>2024-07-24T09:13:00Z</time>
      </trkpt>
      <trkpt lat="49.7934" lon="2.41542">
        <ele>108.2</ele>
        <time>2024-07-24T09:13:02Z</time>
      </trkpt>
      <trkpt lat="49.7934" lon="2.41542">
        <ele>108.2</ele>
        <time>2024-07-24T09:13:04Z</time>
      </trkpt>
      <trkpt lat="49.7934" lon="2.41542">
        <ele>108.2</ele>
        <time>2024-07-24T09:13:06Z</time>
      </trkpt>
      <trkpt lat="49.7934" lon="2.41542">
        <ele>108.2</ele>
        <time>2024-07-24T09:13:08Z</time>
      </trkpt>
      <trkpt lat="49.7934" lon="2.41542">
        <ele>108.2</ele>
        <time>2024-07-24T09:13:10Z</time>
      </trkpt>
      <trkpt lat="49.7934" lon="2.41542">
        <ele>108.2</ele>
        <time>2024-07-24T09:13:12Z</time>
      </trkpt>
      <trkpt lat="49.7934" lon="2.41542">
        <ele>108.2</ele>
        <time>2024-07-24T09:13:14Z</time>
      </trkpt>
      <trkpt lat="49.7934" lon="2.41542">
        <ele>108.2</ele>
        <time>2024-07-24T09:13:16Z</time>
      </trkpt>
      <trkpt lat="49.7934" lon="2.41542">
        <ele>108.2</ele>
        <time>2024-07-24T09:13:18Z</time>
      </trkpt>
      <trkpt lat="49.7934" lon="2.41542">
        <ele>108.2</ele>
        <time>2024-07-24T09:13:20Z</time>
      </trkpt>
      <trkpt lat="49.7934" lon="2.41542">
        <ele>108.2</ele>
        <time>2024-07-24T09:13:22Z</time>
      </trkpt>
      <trkpt lat="49.7934" lon="2.41542">
        <ele>108.3</ele>
        <time>2024-07-24T09:13:24Z</time>
      </trkpt>
      <trkpt lat="49.7934" lon="2.41542">
        <ele>108.3</ele>
        <time>2024-07-24T09:13:26Z</time>
      </trkpt>
      <trkpt lat="49.7934" lon="2.41542">
        <ele>108.3</ele>
        <time>2024-07-24T09:13:28Z</time>
      </trkpt>
      <trkpt lat="49.7934" lon="2.41542">
        <ele>108.3</ele>
        <time>2024-07-24T09:13:30Z</time>
      </trkpt>
      <trkpt lat="49.7934" lon="2.41542">
        <ele>108.3</ele>
        <time>2024-07-24T09:13:32Z</time>
      </trkpt>
      <trkpt lat="49.7934" lon="2.41542">
        <ele>108.3</ele>
        <time>2024-07-24T09:13:34Z</time>
      </trkpt>
      <trkpt lat="49.7934" lon="2.41542">
        <ele>108.3</ele>
        <time>2024-07-24T09:13:36Z</time>
      </trkpt>
      <trkpt lat="49.7934" lon="2.41542">
        <ele>108.3</ele>
        <time>2024-07-24T09:13:38Z</time>
      </trkpt>
      <trkpt lat="49.7934" lon="2.41542">
        <ele>108.3</ele>
        <time>2024-07-24T09:13:40Z</time>
      </trkpt>
      <trkpt lat="49.7934" lon="2.41542">
        <ele>108.3</ele>
        <time>2024-07-24T09:13:42Z</time>
      </trkpt>
      <trkpt lat="49.7934" lon="2.41542">
        <ele>108.3</ele>
        <time>2024-07-24T09:13:44Z</time>
      </trkpt>
      <trkpt lat="49.7934" lon="2.41542">
        <ele>108.3</ele>
        <time>2024-07-24T09:13:46Z</time>
      </trkpt>
      <trkpt lat="49.7934" lon="2.41542">
        <ele>108.3</ele>
        <time>2024-07-24T09:13:48Z</time>
      </trkpt>
      <trkpt lat="49.7934" lon="2.41542">
        <ele>108.3</ele>
        <time>2024-07-24T09:13:50Z</time>
      </trkpt>
      <trkpt lat="49.7934" lon="2.41542">
        <ele>108.3</ele>
        <time>2024-07-24T09:13:52Z</time>
      </trkpt>
      <trkpt lat="49.7934" lon="2.41542">
        <ele>108.3</ele>
        <time>2024-07-24T09:13:54Z</time>
      </trkpt>
      <trkpt lat="49.7934" lon="2.41542">
        <ele>108.3</ele>
        <time>2024-07-24T09:13:56Z</time>
      </trkpt>
      <trkpt lat="49.7934" lon="2.41542">
        <ele>108.3</ele>
        <time>2024-07-24T09:13:58Z</time>
      </trkpt>
      <trkpt lat="49.7934" lon="2.41542">
        <ele>108.3</ele>
        <time>2024-07-24T09:14:00Z</time>
      </trkpt>
      <trkpt lat="49.7934" lon="2.41542">
        <ele>108.3</ele>
        <time>2024-07-24T09:14:02Z</time>
      </trkpt>
      <trkpt lat="49.7934" lon="2.41542">
        <ele>108.3</ele>
        <time>2024-07-24T09:14:04Z</time>
      </trkpt>
      <trkpt lat="49.7934" lon="2.41542">
        <ele>108.4</ele>
        <time>2024-07-24T09:14:06Z</time>
      </trkpt>
      <trkpt lat="49.7934" lon="2.41542">
        <ele>108.4</ele>
        <time>2024-07-24T09:14:08Z</time>
      </trkpt>
      <trkpt lat="49.7934" lon="2.41542">
        <ele>108.4</ele>
        <time>2024-07-24T09:14:10Z</time>
      </trkpt>
      <trkpt lat="49.7934" lon="2.41542">
        <ele>108.4</ele>
        <time>2024-07-24T09:14:12Z</time>
      </trkpt>
      <trkpt lat="49.7934" lon="2.41542">
        <ele>108.4</ele>
        <time>2024-07-24T09:14:14Z</time>
      </trkpt>
      <trkpt lat="49.7934" lon="2.41542">
        <ele>108.4</ele>
        <time>2024-07-24T09:14:16Z</time>
      </trkpt>
      <trkpt lat="49.7934" lon="2.41542">
        <ele>108.4</ele>
        <time>2024-07-24T09:14:18Z</time>
      </trkpt>
      <trkpt lat="49.7934" lon="2.41542">
        <ele>108.4</ele>
        <time>2024-07-24T09:14:20Z</time>
      </trkpt>
      <trkpt lat="49.7934" lon="2.41542">
        <ele>108.4</ele>
        <time>2024-07-24T09:14:22Z</time>
      </trkpt>
      <trkpt lat="49.7934" lon="2.41542">
        <ele>108.4</ele>
        <time>2024-07-24T09:14:24Z</time>
      </trkpt>
      <trkpt lat="49.7934" lon="2.41542">
        <ele>108.4</ele>
        <time>2024-07-24T09:14:26Z</time>
      </trkpt>
      <trkpt lat="49.7934" lon="2.41542">
        <ele>108.4</ele>
        <time>2024-07-24T09:14:28Z</time>
      </trkpt>
      <trkpt lat="49.7934" lon="2.41542">
        <ele>108.4</ele>
        <time>2024-07-24T09:14:30Z</time>
      </trkpt>
      <trkpt lat="49.7934" lon="2.41542">
        <ele>108.4</ele>
        <time>2024-07-24T09:14:32Z</time>
      </trkpt>
      <trkpt lat="49.7934" lon="2.41542">
        <ele>108.4</ele>
        <time>2024-07-24T09:14:34Z</time>
      </trkpt>
      <trkpt lat="49.7934" lon="2.41542">
        <ele>108.4</ele>
        <time>2024-07-24T09:14:36Z</time>
      </trkpt>
      <trkpt lat="49.7934" lon="2.41542">
        <ele>108.4</ele>
        <time>2024-07-24T09:14:38Z</time>
      </trkpt>
      <trkpt lat="49.7934" lon="2.41542">
        <ele>108.4</ele>
        <time>2024-07-24T09:14:40Z</time>
      </trkpt>
      <trkpt lat="49.7934" lon="2.41542">
        <ele>108.4</ele>
        <time>2024-07-24T09:14:42Z</time>
      </trkpt>
      <trkpt lat="49.7934" lon="2.41542">
        <ele>108.4</ele>
        <time>2024-07-24T09:14:44Z</time>
      </trkpt>
      <trkpt lat="49.7934" lon="2.41542">
        <ele>108.4</ele>
        <time>2024-07-24T09:14:46Z</time>
      </trkpt>
      <trkpt lat="49.7934" lon="2.41542">
        <ele>108.5</ele>
        <time>2024-07-24T09:14:48Z</time>
      </trkpt>
      <trkpt lat="49.7934" lon="2.41542">
        <ele>108.5</ele>
        <time>2024-07-24T09:14:50Z</time>
      </trkpt>
      <trkpt lat="49.7934" lon="2.41542">
        <ele>108.5</ele>
        <time>2024-07-24T09:14:52Z</time>
      </trkpt>
      <trkpt lat="49.7934" lon="2.41542">
        <ele>108.5</ele>
        <time>2024-07-24T09:14:54Z</time>
      </trkpt>
      <trkpt lat="49.7934" lon="2.41542">
        <ele>108.5</ele>
        <time>2024-07-24T09:14:56Z</time>
      </trkpt>
      <trkpt lat="49.7934" lon="2.41542">
        <ele>108.5</ele>
        <time>2024-07-24T09:14:58Z</time>
      </trkpt>
      <trkpt lat="49.7934" lon="2.41542">
        <ele>108.5</ele>
        <time>2024-07-24T09:15:00Z</time>
      </trkpt>
      <trkpt lat="49.7934" lon="2.41542">
        <ele>108.5</ele>
        <time>2024-07-24T09:15:02Z</time>
      </trkpt>
      <trkpt lat="49.7934" lon="2.41542">
        <ele>108.5</ele>
        <time>2024-07-24T09:15:04Z</time>
      </trkpt>
      <trkpt lat="49.7934" lon="2.41542">
        <ele>108.5</ele>
        <time>2024-07-24T09:15:06Z</time>
      </trkpt>
      <trkpt lat="49.7934" lon="2.41542">
        <ele>108.5</ele>
        <time>2024-07-24T09:15:08Z</time>
      </trkpt>
      <trkpt lat="49.7934" lon="2.41542">
        <ele>108.5</ele>
        <time>2024-07-24T09:15:10Z</time>
      </trkpt>
      <trkpt lat="49.7934" lon="2.41542">
        <ele>108.5</ele>
        <time>2024-07-24T09:15:12Z</time>
      </trkpt>
      <trkpt lat="49.7934" lon="2.41542">
        <ele>108.5</ele>
        <time>2024-07-24T09:15:14Z</time>
      </trkpt>
      <trkpt lat="49.7934" lon="2.41542">
        <ele>108.5</ele>
        <time>2024-07-24T09:15:16Z</time>
      </trkpt>
      <trkpt lat="49.7934" lon="2.41542">
        <ele>108.5</ele>
        <time>2024-07-24T09:15:18Z</time>
      </trkpt>
      <trkpt lat="49.7934" lon="2.41542">
        <ele>108.5</ele>
        <time>2024-07-24T09:15:20Z</time>
      </trkpt>
      <trkpt lat="49.7934" lon="2.41542">
        <ele>108.5</ele>
        <time>2024-07-24T09:15:22Z</time>
      </trkpt>
      <trkpt lat="49.7934" lon="2.41542">
        <ele>108.5</ele>
        <time>2024-07-24T09:15:24Z</time>
      </trkpt>
      <trkpt lat="49.7934" lon="2.41542">
        <ele>108.5</ele>
        <time>2024-07-24T09:15:26Z</time>
      </trkpt>
      <trkpt lat="49.7934" lon="2.41542">
        <ele>108.5</ele>
        <time>2024-07-24T09:15:28Z</time>
      </trkpt>
      <trkpt lat="49.7934" lon="2.41542">
        <ele>108.6</ele>
        <time>2024-07-24T09:15:30Z</time>
      </trkpt>
      <trkpt lat="49.7934" lon="2.41542">
        <ele>108.6</ele>
        <time>2024-07-24T09:15:32Z</time>
      </trkpt>
      <trkpt lat="49.7934" lon="2.41542">
        <ele>108.6</ele>
        <time>2024-07-24T09:15:34Z</time>
      </trkpt>
      <trkpt lat="49.7934" lon="2.41542">
        <ele>108.6</ele>
        <time>2024-07-24T09:15:36Z</time>
      </trkpt>
      <trkpt lat="49.7934" lon="2.41542">
        <ele>108.6</ele>
        <time>2024-07-24T09:15:38Z</time>
      </trkpt>
      <trkpt lat="49.7934" lon="2.41542">
        <ele>108.6</ele>
        <time>2024-07-24T09:15:40Z</time>
      </trkpt>
      <trkpt lat="49.7934" lon="2.41542">
        <ele>108.6</ele>
        <time>2024-07-24T09:15:42Z</time>
      </trkpt>
      <trkpt lat="49.7934" lon="2.41542">
        <ele>108.6</ele>
        <time>2024-07-24T09:15:44Z</time>
      </trkpt>
      <trkpt lat="49.7934" lon="2.41542">
        <ele>108.6</ele>
        <time>2024-07-24T09:15:46Z</time>
      </trkpt>
      <trkpt lat="49.7934" lon="2.41542">
        <ele>108.6</ele>
        <time>2024-07-24T09:15:48Z</time>
      </trkpt>
      <trkpt lat="49.7934" lon="2.41542">
        <ele>108.6</ele>
        <time>2024-07-24T09:15:50Z</time>
      </trkpt>
      <trkpt lat="49.7934" lon="2.41542">
        <ele>108.6</ele>
        <time>2024-07-24T09:15:52Z</time>
      </trkpt>
      <trkpt lat="49.7934" lon="2.41542">
        <ele>108.6</ele>
        <time>2024-07-24T09:15:54Z</time>
      </trkpt>
      <trkpt lat="49.7934" lon="2.41542">
        <ele>108.6</ele>
        <time>2024-07-24T09:15:56Z</time>
      </trkpt>
      <trkpt lat="49.7934" lon="2.41542">
        <ele>108.6</ele>
        <time>2024-07-24T09:15:58Z</time>
      </trkpt>
      <trkpt lat="49.7934" lon="2.41542">
        <ele>108.6</ele>
        <time>2024-07-24T09:16:00Z</time>
      </trkpt>
      <trkpt lat="49.7934" lon="2.41542">
        <ele>108.6</ele>
        <time>2024-07-24T09:16:02Z</time>
      </trkpt>
      <trkpt lat="49.7934" lon="2.41542">
        <ele>108.6</ele>
        <time>2024-07-24T09:16:04Z</time>
      </trkpt>
      <trkpt lat="49.7934" lon="2.41542">
        <ele>108.6</ele>
        <time>2024-07-24T09:16:06Z</time>
      </trkpt>
      <trkpt lat="49.7934" lon="2.41542">
        <ele>108.6</ele>
        <time>2024-07-24T09:16:08Z</time>
      </trkpt>
      <trkpt lat="49.7934" lon="2.41542">
        <ele>108.6</ele>
        <time>2024-07-24T09:16:10Z</time>
      </trkpt>
      <trkpt lat="49.7934" lon="2.41542">
        <ele>108.7</ele>
        <time>2024-07-24T09:16:12Z</time>
      </trkpt>
      <trkpt lat="49.7934" lon="2.41542">
        <ele>108.7</ele>
        <time>2024-07-24T09:16:14Z</time>
      </trkpt>
      <trkpt lat="49.7934" lon="2.41542">
        <ele>108.7</ele>
        <time>2024-07-24T09:16:16Z</time>
      </trkpt>
      <trkpt lat="49.7934" lon="2.41542">
        <ele>108.7</ele>
        <time>2024-07-24T09:16:18Z</time>
      </trkpt>
      <trkpt lat="49.7934" lon="2.41542">
        <ele>108.7</ele>
        <time>2024-07-24T09:16:20Z</time>
      </trkpt>
      <trkpt lat="49.7934" lon="2.41542">
        <ele>108.7</ele>
        <time>2024-07-24T09:16:22Z</time>
      </trkpt>
      <trkpt lat="49.7934" lon="2.41542">
        <ele>108.7</ele>
        <time>2024-07-24T09:16:24Z</time>
      </trkpt>
      <trkpt lat="49.7934" lon="2.41542">
        <ele>108.7</ele>
        <time>2024-07-24T09:16:26Z</time>
      </trkpt>
      <trkpt lat="49.7934" lon="2.41542">
        <ele>108.7</ele>
        <time>2024-07-24T09:16:28Z</time>
      </trkpt>
      <trkpt lat="49.7934" lon="2.41542">
        <ele>108.7</ele>
        <time>2024-07-24T09:16:30Z</time>
      </trkpt>
      <trkpt lat="49.7934" lon="2.41542">
        <ele>108.7</ele>
        <time>2024-07-24T09:16:32Z</time>
      </trkpt>
      <trkpt lat="49.7934" lon="2.41542">
        <ele>108.7</ele>
        <time>2024-07-24T09:16:34Z</time>
      </trkpt>
      <trkpt lat="49.7934" lon="2.41542">
        <ele>108.7</ele>
        <time>2024-07-24T09:16:36Z</time>
      </trkpt>
      <trkpt lat="49.7934" lon="2.41542">
        <ele>108.7</ele>
        <time>2024-07-24T09:16:38Z</time>
      </trkpt>
      <trkpt lat="49.7934" lon="2.41542">
        <ele>108.7</ele>
        <time>2024-07-24T09:16:40Z</time>
      </trkpt>
      <trkpt lat="49.7934" lon="2.41542">
        <ele>108.7</ele>
        <time>2024-07-24T09:16:42Z</time>
      </trkpt>
      <trkpt lat="49.7934" lon="2.41542">
        <ele>108.7</ele>
        <time>2024-07-24T09:16:44Z</time>
      </trkpt>
      <trkpt lat="49.7934" lon="2.41542">
        <ele>108.7</ele>
        <time>2024-07-24T09:16:46Z</time>
      </trkpt>
      <trkpt lat="49.7934" lon="2.41542">
        <ele>108.7</ele>
        <time>2024-07-24T09:16:48Z</time>
      </trkpt>
      <trkpt lat="49.7934" lon="2.41542">
        <ele>108.7</ele>
        <time>2024-07-24T09:16:50Z</time>
      </trkpt>
      <trkpt lat="49.7934" lon="2.41542">
        <ele>108.8</ele>
        <time>2024-07-24T09:16:52Z</time>
      </trkpt>
      <trkpt lat="49.7934" lon="2.41542">
        <ele>108.8</ele>
        <time>2024-07-24T09:16:54Z</time>
      </trkpt>
      <trkpt lat="49.7934" lon="2.41542">
        <ele>108.8</ele>
        <time>2024-07-24T09:16:56Z</time>
      </trkpt>
      <trkpt lat="49.7934" lon="2.41542">
        <ele>108.8</ele>
        <time>2024-07-24T09:16:58Z</time>
      </trkpt>
      <trkpt lat="49.7934" lon="2.41542">
        <ele>108.8</ele>
        <time>2024-07-24T09:17:00Z</time>
      </trkpt>
      <trkpt lat="49.7934" lon="2.41542">
        <ele>108.8</ele>
        <time>2024-07-24T09:17:02Z</time>
      </trkpt>
      <trkpt lat="49.7934" lon="2.41542">
        <ele>108.8</ele>
        <time>2024-07-24T09:17:04Z</time>
      </trkpt>
      <trkpt lat="49.7934" lon="2.41542">
        <ele>108.8</ele>
        <time>2024-07-24T09:17:06Z</time>
      </trkpt>
      <trkpt lat="49.7934" lon="2.41542">
        <ele>108.8</ele>
        <time>2024-07-24T09:17:08Z</time>
      </trkpt>
      <trkpt lat="49.7934" lon="2.41542">
        <ele>108.8</ele>
        <time>2024-07-24T09:17:10Z</time>
      </trkpt>
      <trkpt lat="49.7934" lon="2.41542">
        <ele>108.8</ele>
        <time>2024-07-24T09:17:12Z</time>
      </trkpt>
      <trkpt lat="49.7934" lon="2.41542">
        <ele>108.8</ele>
        <time>2024-07-24T09:17:14Z</time>
      </trkpt>
      <trkpt lat="49.7934" lon="2.41542">
        <ele>108.8</ele>
        <time>2024-07-24T09:17:16Z</time>
      </trkpt>
      <trkpt lat="49.7934" lon="2.41542">
        <ele>108.8</ele>
        <time>2024-07-24T09:17:18Z</time>
      </trkpt>
      <trkpt lat="49.7934" lon="2.41542">
        <ele>108.8</ele>
        <time>2024-07-24T09:17:20Z</time>
      </trkpt>
      <trkpt lat="49.7934" lon="2.41542">
        <ele>108.8</ele>
        <time>2024-07-24T09:17:22Z</time>
      </trkpt>
      <trkpt lat="49.7934" lon="2.41542">
        <ele>108.8</ele>
        <time>2024-07-24T09:17:24Z</time>
      </trkpt>
      <trkpt lat="49.7934" lon="2.41542">
        <ele>108.8</ele>
        <time>2024-07-24T09:17:26Z</time>
      </trkpt>
      <trkpt lat="49.7934" lon="2.41542">
        <ele>108.8</ele>
        <time>2024-07-24T09:17:28Z</time>
      </trkpt>
      <trkpt lat="49.7934" lon="2.41542">
        <ele>108.8</ele>
        <time>2024-07-24T09:17:30Z</time>
      </trkpt>
      <trkpt lat="49.7934" lon="2.41542">
        <ele>108.8</ele>
        <time>2024-07-24T09:17:32Z</time>
      </trkpt>
      <trkpt lat="49.7934" lon="2.41542">
        <ele>108.9</ele>
        <time>2024-07-24T09:17:34Z</time>
      </trkpt>
      <trkpt lat="49.7934" lon="2.41542">
        <ele>108.9</ele>
        <time>2024-07-24T09:17:36Z</time>
      </trkpt>
      <trkpt lat="49.7934" lon="2.41542">
        <ele>108.9</ele>
        <time>2024-07-24T09:17:38Z</time>
      </trkpt>
      <trkpt lat="49.7934" lon="2.41542">
        <ele>108.9</ele>
        <time>2024-07-24T09:17:40Z</time>
      </trkpt>
      <trkpt lat="49.7934" lon="2.41542">
        <ele>108.9</ele>
        <time>2024-07-24T09:17:42Z</time>
      </trkpt>
      <trkpt lat="49.7934" lon="2.41542">
        <ele>108.9</ele>
        <time>2024-07-24T09:17:44Z</time>
      </trkpt>
      <trkpt lat="49.7934" lon="2.41542">
        <ele>108.9</ele>
        <time>2024-07-24T09:17:46Z</time>
      </trkpt>
      <trkpt lat="49.7934" lon="2.41542">
        <ele>108.9</ele>
        <time>2024-07-24T09:17:48Z</time>
      </trkpt>
      <trkpt lat="49.7934" lon="2.41542">
        <ele>108.9</ele>
        <time>2024-07-24T09:17:50Z</time>
      </trkpt>
      <trkpt lat="49.7934" lon="2.41542">
        <ele>108.9</ele>
        <time>2024-07-24T09:17:52Z</time>
      </trkpt>
      <trkpt lat="49.7934" lon="2.41542">
        <ele>108.9</ele>
        <time>2024-07-24T09:17:54Z</time>
      </trkpt>
      <trkpt lat="49.7934" lon="2.41542">
        <ele>108.9</ele>
        <time>2024-07-24T09:17:56Z</time>
      </trkpt>
      <trkpt lat="49.7934" lon="2.41542">
        <ele>108.9</ele>
        <time>2024-07-24T09:17:58Z</time>
      </trkpt>
      <trkpt lat="49.7934" lon="2.41542">
        <ele>108.9</ele>
        <time>2024-07-24T09:18:00Z</time>
      </trkpt>
      <trkpt lat="49.7934" lon="2.41542">
        <ele>108.9</ele>
        <time>2024-07-24T09:18:02Z</time>
      </trkpt>
      <trkpt lat="49.7934" lon="2.41542">
        <ele>108.9</ele>
        <time>2024-07-24T09:18:04Z</time>
      </trkpt>
      <trkpt lat="49.7934" lon="2.41542">
        <ele>108.9</ele>
        <time>2024-07-24T09:18:06Z</time>
      </trkpt>
      <trkpt lat="49.7934" lon="2.41542">
        <ele>108.9</ele>
        <time>2024-07-24T09:18:08Z</time>
      </trkpt>
      <trkpt lat="49.7934" lon="2.41542">
        <ele>108.9</ele>
        <time>2024-07-24T09:18:10Z</time>
      </trkpt>
      <trkpt lat="49.7934" lon="2.41542">
        <ele>108.9</ele>
        <time>2024-07-24T09:18:12Z</time>
      </trkpt>
      <trkpt lat="49.7934" lon="2.41542">
        <ele>108.9</ele>
        <time>2024-07-24T09:18:14Z</time>
      </trkpt>
      <trkpt lat="49.7934" lon="2.41542">
        <ele>109</ele>
        <time>2024-07-24T09:18:16Z</time>
      </trkpt>
      <trkpt lat="49.7934" lon="2.41542">
        <ele>109</ele>
        <time>2024-07-24T09:18:18Z</time>
      </trkpt>
      <trkpt lat="49.7934" lon="2.41542">
        <ele>109</ele>
        <time>2024-07-24T09:18:20Z</time>
      </trkpt>
      <trkpt lat="49.7934" lon="2.41542">
        <ele>109</ele>
        <time>2024-07-24T09:18:22Z</time>
      </trkpt>
      <trkpt lat="49.7934" lon="2.41542">
        <ele>109</ele>
        <time>2024-07-24T09:18:24Z</time>
      </trkpt>
      <trkpt lat="49.7934" lon="2.41542">
        <ele>109</ele>
        <time>2024-07-24T09:18:26Z</time>
      </trkpt>
      <trkpt lat="49.7934" lon="2.41542">
        <ele>109</ele>
        <time>2024-07-24T09:18:28Z</time>
      </trkpt>
      <trkpt lat="49.7934" lon="2.41542">
        <ele>109</ele>
        <time>2024-07-24T09:18:30Z</time>
      </trkpt>
      <trkpt lat="49.7934" lon="2.41542">
        <ele>109</ele>
        <time>2024-07-24T09:18:32Z</time>
      </trkpt>
      <trkpt lat="49.7934" lon="2.41542">
        <ele>109</ele>
        <time>2024-07-24T09:18:34Z</time>
      </trkpt>
      <trkpt lat="49.7934" lon="2.41542">
        <ele>109</ele>
        <time>2024-07-24T09:18:36Z</time>
      </trkpt>
      <trkpt lat="49.7934" lon="2.41542">
        <ele>109</ele>
        <time>2024-07-24T09:18:38Z</time>
      </trkpt>
      <trkpt lat="49.7934" lon="2.41542">
        <ele>109</ele>
        <time>2024-07-24T09:18:40Z</time>
      </trkpt>
      <trkpt lat="49.7934" lon="2.41542">
        <ele>109</ele>
        <time>2024-07-24T09:18:42Z</time>
      </trkpt>
      <trkpt lat="49.7934" lon="2.41542">
        <ele>109</ele>
        <time>2024-07-24T09:18:44Z</time>
      </trkpt>
      <trkpt lat="49.7934" lon="2.41542">
        <ele>109</ele>
        <time>2024-07-24T09:18:46Z</time>
      </trkpt>
      <trkpt lat="49.7934" lon="2.41542">
        <ele>109</ele>
        <time>2024-07-24T09:18:48Z</time>
      </trkpt>
      <trkpt lat="49.7934" lon="2.41542">
        <ele>109</ele>
        <time>2024-07-24T09:18:50Z</time>
      </trkpt>
      <trkpt lat="49.7934" lon="2.41542">
        <ele>109</ele>
        <time>2024-07-24T09:18:52Z</time>
      </trkpt>
      <trkpt lat="49.7934" lon="2.41542">
        <ele>109</ele>
        <time>2024-07-24T09:18:54Z</time>
      </trkpt>
      <trkpt lat="49.7934" lon="2.41542">
        <ele>109</ele>
        <time>2024-07-24T09:18:56Z</time>
      </trkpt>
      <trkpt lat="49.7934" lon="2.41542">
        <ele>109.1</ele>
        <time>2024-07-24T09:18:58Z</time>
      </trkpt>
      <trkpt lat="49.7934" lon="2.41542">
        <ele>109.1</ele>
        <time>2024-07-24T09:19:00Z</time>
      </trkpt>
      <trkpt lat="49.7934" lon="2.41542">
        <ele>109.1</ele>
        <time>2024-07-24T09:19:02Z</time>
      </trkpt>
      <trkpt lat="49.7934" lon="2.41542">
        <ele>109.1</ele>
        <time>2024-07-24T09:19:04Z</time>
      </trkpt>
      <trkpt lat="49.7934" lon="2.41542">
        <ele>109.1</ele>
        <time>2024-07-24T09:19:06Z</time>
      </trkpt>
      <trkpt lat="49.7934" lon="2.41542">
        <ele>109.1</ele>
        <time>2024-07-24T09:19:08Z</time>
      </trkpt>
      <trkpt lat="49.7934" lon="2.41542">
        <ele>109.1</ele>
        <time>2024-07-24T09:19:10Z</time>
      </trkpt>
      <trkpt lat="49.7934" lon="2.41542">
        <ele>109.1</ele>
        <time>2024-07-24T09:19:12Z</time>
      </trkpt>
      <trkpt lat="49.7934" lon="2.41542">
        <ele>109.1</ele>
        <time>2024-07-24T09:19:14Z</time>
      </trkpt>
      <trkpt lat="49.7934" lon="2.41542">
        <ele>109.1</ele>
        <time>2024-07-24T09:19:16Z</time>
      </trkpt>
      <trkpt lat="49.7934" lon="2.41542">
        <ele>109.1</ele>
        <time>2024-07-24T09:19:18Z</time>
      </trkpt>
      <trkpt lat="49.7934" lon="2.41542">
        <ele>109.1</ele>
        <time>2024-07-24T09:19:20Z</time>
      </trkpt>
      <trkpt lat="49.7934" lon="2.41542">
        <ele>109.1</ele>
        <time>2024-07-24T09:19:22Z</time>
      </trkpt>
      <trkpt lat="49.7934" lon="2.41542">
        <ele>109.1</ele>
        <time>2024-07-24T09:19:24Z</time>
      </trkpt>
      <trkpt lat="49.7934" lon="2.41542">
        <ele>109.1</ele>
        <time>2024-07-24T09:19:26Z</time>
      </trkpt>
      <trkpt lat="49.7934" lon="2.41542">
        <ele>109.1</ele>
        <time>2024-07-24T09:19:28Z</time>
      </trkpt>
      <trkpt lat="49.7934" lon="2.41542">
        <ele>109.1</ele>
        <time>2024-07-24T09:19:30Z</time>
      </trkpt>
      <trkpt lat="49.7934" lon="2.41542">
        <ele>109.1</ele>
        <time>2024-07-24T09:19:32Z</time>
      </trkpt>
      <trkpt lat="49.7934" lon="2.41542">
        <ele>109.1</ele>
        <time>2024-07-24T09:19:34Z</time>
      </trkpt>
      <trkpt lat="49.7934" lon="2.41542">
        <ele>109.1</ele>
        <time>2024-07-24T09:19:36Z</time>
      </trkpt>
      <trkpt lat="49.7934" lon="2.41542">
        <ele>109.1</ele>
        <time>2024-07-24T09:19:38Z</time>
      </trkpt>
      <trkpt lat="49.7934" lon="2.41542">
        <ele>109.2</ele>
        <time>2024-07-24T09:19:40Z</time>
      </trkpt>
      <trkpt lat="49.7934" lon="2.41542">
        <ele>109.2</ele>
        <time>2024-07-24T09:19:42Z</time>
      </trkpt>
      <trkpt lat="49.7934" lon="2.41542">
        <ele>109.2</ele>
        <time>2024-07-24T09:19:44Z</time>
      </trkpt>
      <trkpt lat="49.7934" lon="2.41542">
        <ele>109.2</ele>
        <time>2024-07-24T09:19:47Z</time>
      </trkpt>
      <trkpt lat="49.7934" lon="2.41542">
        <ele>109.2</ele>
        <time>2024-07-24T09:19:49Z</time>
      </trkpt>
      <trkpt lat="49.7934" lon="2.41542">
        <ele>109.2</ele>
        <time>2024-07-24T09:19:51Z</time>
      </trkpt>
      <trkpt lat="49.7934" lon="2.41542">
        <ele>109.2</ele>
        <time>2024-07-24T09:19:53Z</time>
      </trkpt>
      <trkpt lat="49.7934" lon="2.41542">
        <ele>109.2</ele>
        <time>2024-07-24T09:19:55Z</time>
      </trkpt>
      <trkpt lat="49.7934" lon="2.41542">
        <ele>109.2</ele>
        <time>2024-07-24T09:19:57Z</time>
      </trkpt>
      <trkpt lat="49.7934" lon="2.41542">
        <ele>109.2</ele>
        <time>2024-07-24T09:19:59Z</time>
      </trkpt>
      <trkpt lat="49.7934" lon="2.41542">
        <ele>109.2</ele>
        <time>2024-07-24T09:20:01Z</time>
      </trkpt>
      <trkpt lat="49.7934" lon="2.41542">
        <ele>109.2</ele>
        <time>2024-07-24T09:20:03Z</time>
      </trkpt>
      <trkpt lat="49.7934" lon="2.41542">
        <ele>109.2</ele>
        <time>2024-07-24T09:20:05Z</time>
      </trkpt>
      <trkpt lat="49.7934" lon="2.41542">
        <ele>109.2</ele>
        <time>2024-07-24T09:20:07Z</time>
      </trkpt>
      <trkpt lat="49.7934" lon="2.41542">
        <ele>109.2</ele>
        <time>2024-07-24T09:20:09Z</time>
      </trkpt>
      <trkpt lat="49.7934" lon="2.41542">
        <ele>109.2</ele>
        <time>2024-07-24T09:20:11Z</time>
      </trkpt>
      <trkpt lat="49.7934" lon="2.41542">
        <ele>109.2</ele>
        <time>2024-07-24T09:20:13Z</time>
      </trkpt>
      <trkpt lat="49.7934" lon="2.41542">
        <ele>109.2</ele>
        <time>2024-07-24T09:20:15Z</time>
      </trkpt>
      <trkpt lat="49.7934" lon="2.41542">
        <ele>109.2</ele>
        <time>2024-07-24T09:20:17Z</time>
      </trkpt>
      <trkpt lat="49.7934" lon="2.41542">
        <ele>109.2</ele>
        <time>2024-07-24T09:20:19Z</time>
      </trkpt>
      <trkpt lat="49.7934" lon="2.41542">
        <ele>109.3</ele>
        <time>2024-07-24T09:20:21Z</time>
      </trkpt>
      <trkpt lat="49.7934" lon="2.41542">
        <ele>109.3</ele>
        <time>2024-07-24T09:20:23Z</time>
      </trkpt>
      <trkpt lat="49.7934" lon="2.41542">
        <ele>109.3</ele>
        <time>2024-07-24T09:20:25Z</time>
      </trkpt>
      <trkpt lat="49.7934" lon="2.41542">
        <ele>109.3</ele>
        <time>2024-07-24T09:20:27Z</time>
      </trkpt>
      <trkpt lat="49.7934" lon="2.41542">
        <ele>109.3</ele>
        <time>2024-07-24T09:20:29Z</time>
      </trkpt>
      <trkpt lat="49.7934" lon="2.41542">
        <ele>109.3</ele>
        <time>2024-07-24T09:20:31Z</time>
      </trkpt>
      <trkpt lat="49.7934" lon="2.41542">
        <ele>109.3</ele>
        <time>2024-07-24T09:20:33Z</time>
      </trkpt>
      <trkpt lat="49.7934" lon="2.41542">
        <ele>109.3</ele>
        <time>2024-07-24T09:20:35Z</time>
      </trkpt>
      <trkpt lat="49.7934" lon="2.41542">
        <ele>109.3</ele>
        <time>2024-07-24T09:20:37Z</time>
      </trkpt>
      <trkpt lat="49.7934" lon="2.41542">
        <ele>109.3</ele>
        <time>2024-07-24T09:20:39Z</time>
      </trkpt>
      <trkpt lat="49.7934" lon="2.41542">
        <ele>109.3</ele>
        <time>2024-07-24T09:20:41Z</time>
      </trkpt>
      <trkpt lat="49.7934" lon="2.41542">
        <ele>109.3</ele>
        <time>2024-07-24T09:20:43Z</time>
      </trkpt>
      <trkpt lat="49.7934" lon="2.41542">
        <ele>109.3</ele>
        <time>2024-07-24T09:20:45Z</time>
      </trkpt>
      <trkpt lat="49.7934" lon="2.41542">
        <ele>109.3</ele>
        <time>2024-07-24T09:20:47Z</time>
      </trkpt>
      <trkpt lat="49.7934" lon="2.41542">
        <ele>109.3</ele>
        <time>2024-07-24T09:20:49Z</time>
      </trkpt>
      <trkpt lat="49.7934" lon="2.41542">
        <ele>109.3</ele>
        <time>2024-07-24T09:20:51Z</time>
      </trkpt>
      <trkpt lat="49.7934" lon="2.41542">
        <ele>109.3</ele>
        <time>2024-07-24T09:20:53Z</time>
      </trkpt>
      <trkpt lat="49.7934" lon="2.41542">
        <ele>109.3</ele>
        <time>2024-07-24T09:20:55Z</time>
      </trkpt>
      <trkpt lat="49.7934" lon="2.41542">
        <ele>109.3</ele>
        <time>2024-07-24T09:20:57Z</time>
      </trkpt>
      <trkpt lat="49.7934" lon="2.41542">
        <ele>109.3</ele>
        <time>2024-07-24T09:20:59Z</time>
      </trkpt>
      <trkpt lat="49.7934" lon="2.41542">
        <ele>109.3</ele>
        <time>2024-07-24T09:21:01Z</time>
      </trkpt>
      <trkpt lat="49.7934" lon="2.41542">
        <ele>109.4</ele>
        <time>2024-07-24T09:21:03Z</time>
      </trkpt>
      <trkpt lat="49.7934" lon="2.41542">
        <ele>109.4</ele>
        <time>2024-07-24T09:21:05Z</time>
      </trkpt>
      <trkpt lat="49.7934" lon="2.41542">
        <ele>109.4</ele>
        <time>2024-07-24T09:21:07Z</time>
      </trkpt>
      <trkpt lat="49.7934" lon="2.41542">
        <ele>109.4</ele>
        <time>2024-07-24T09:21:09Z</time>
      </trkpt>
      <trkpt lat="49.7934" lon="2.41542">
        <ele>109.4</ele>
        <time>2024-07-24T09:21:11Z</time>
      </trkpt>
      <trkpt lat="49.7934" lon="2.41542">
        <ele>109.4</ele>
        <time>2024-07-24T09:21:13Z</time>
      </trkpt>
      <trkpt lat="49.7934" lon="2.41542">
        <ele>109.4</ele>
        <time>2024-07-24T09:21:15Z</time>
      </trkpt>
      <trkpt lat="49.7934" lon="2.41542">
        <ele>109.4</ele>
        <time>2024-07-24T09:21:17Z</time>
      </trkpt>
      <trkpt lat="49.7934" lon="2.41542">
        <ele>109.4</ele>
        <time>2024-07-24T09:21:19Z</time>
      </trkpt>
      <trkpt lat="49.7934" lon="2.41542">
        <ele>109.4</ele>
        <time>2024-07-24T09:21:21Z</time>
      </trkpt>
      <trkpt lat="49.7934" lon="2.41542">
        <ele>109.4</ele>
        <time>2024-07-24T09:21:23Z</time>
      </trkpt>
      <trkpt lat="49.7934" lon="2.41542">
        <ele>109.4</ele>
        <time>2024-07-24T09:21:25Z</time>
      </trkpt>
      <trkpt lat="49.7934" lon="2.41542">
        <ele>109.4</ele>
        <time>2024-07-24T09:21:27Z</time>
      </trkpt>
      <trkpt lat="49.7934" lon="2.41542">
        <ele>109.4</ele>
        <time>2024-07-24T09:21:29Z</time>
      </trkpt>
      <trkpt lat="49.7934" lon="2.41542">
        <ele>109.4</ele>
        <time>2024-07-24T09:21:31Z</time>
      </trkpt>
      <trkpt lat="49.7934" lon="2.41542">
        <ele>109.4</ele>
        <time>2024-07-24T09:21:33Z</time>
      </trkpt>
      <trkpt lat="49.7934" lon="2.41542">
        <ele>109.4</ele>
        <time>2024-07-24T09:21:35Z</time>
      </trkpt>
      <trkpt lat="49.7934" lon="2.41542">
        <ele>109.4</ele>
        <time>2024-07-24T09:21:37Z</time>
      </trkpt>
      <trkpt lat="49.7934" lon="2.41542">
        <ele>109.4</ele>
        <time>2024-07-24T09:21:39Z</time>
      </trkpt>
      <trkpt lat="49.7934" lon="2.41542">
        <ele>109.4</ele>
        <time>2024-07-24T09:21:41Z</time>
      </trkpt>
      <trkpt lat="49.7934" lon="2.41542">
        <ele>109.4</ele>
        <time>2024-07-24T09:21:43Z</time>
      </trkpt>
      <trkpt lat="49.7934" lon="2.41542">
        <ele>109.5</ele>
        <time>2024-07-24T09:21:45Z</time>
      </trkpt>
      <trkpt lat="49.7934" lon="2.41542">
        <ele>109.5</ele>
        <time>2024-07-24T09:21:47Z</time>
      </trkpt>
      <trkpt lat="49.7934" lon="2.41542">
        <ele>109.5</ele>
        <time>2024-07-24T09:21:49Z</time>
      </trkpt>
      <trkpt lat="49.7934" lon="2.41542">
        <ele>109.5</ele>
        <time>2024-07-24T09:21:51Z</time>
      </trkpt>
      <trkpt lat="49.7934" lon="2.41542">
        <ele>109.5</ele>
        <time>2024-07-24T09:21:53Z</time>
      </trkpt>
      <trkpt lat="49.7934" lon="2.41542">
        <ele>109.5</ele>
        <time>2024-07-24T09:21:55Z</time>
      </trkpt>
      <trkpt lat="49.7934" lon="2.41542">
        <ele>109.5</ele>
        <time>2024-07-24T09:21:57Z</time>
      </trkpt>
      <trkpt lat="49.7934" lon="2.41542">
        <ele>109.5</ele>
        <time>2024-07-24T09:21:59Z</time>
      </trkpt>
      <trkpt lat="49.7934" lon="2.41542">
        <ele>109.5</ele>
        <time>2024-07-24T09:22:01Z</time>
      </trkpt>
      <trkpt lat="49.7934" lon="2.41542">
        <ele>109.5</ele>
        <time>2024-07-24T09:22:03Z</time>
      </trkpt>
      <trkpt lat="49.7934" lon="2.41542">
        <ele>109.5</ele>
        <time>2024-07-24T09:22:05Z</time>
      </trkpt>
      <trkpt lat="49.7934" lon="2.41542">
        <ele>109.5</ele>
        <time>2024-07-24T09:22:07Z</time>
      </trkpt>
      <trkpt lat="49.7934" lon="2.41542">
        <ele>109.5</ele>
        <time>2024-07-24T09:22:09Z</time>
      </trkpt>
      <trkpt lat="49.7934" lon="2.41542">
        <ele>109.5</ele>
        <time>2024-07-24T09:22:11Z</time>
      </trkpt>
      <trkpt lat="49.7934" lon="2.41542">
        <ele>109.5</ele>
        <time>2024-07-24T09:22:13Z</time>
      </trkpt>
      <trkpt lat="49.7934" lon="2.41542">
        <ele>109.5</ele>
        <time>2024-07-24T09:22:15Z</time>
      </trkpt>
      <trkpt lat="49.7934" lon="2.41542">
        <ele>109.5</ele>
        <time>2024-07-24T09:22:17Z</time>
      </trkpt>
      <trkpt lat="49.7934" lon="2.41542">
        <ele>109.5</ele>
        <time>2024-07-24T09:22:19Z</time>
      </trkpt>
      <trkpt lat="49.7934" lon="2.41542">
        <ele>109.5</ele>
        <time>2024-07-24T09:22:21Z</time>
      </trkpt>
      <trkpt lat="49.7934" lon="2.41542">
        <ele>109.5</ele>
        <time>2024-07-24T09:22:23Z</time>
      </trkpt>
      <trkpt lat="49.7934" lon="2.41542">
        <ele>109.5</ele>
        <time>2024-07-24T09:22:25Z</time>
      </trkpt>
      <trkpt lat="49.7934" lon="2.41542">
        <ele>109.6</ele>
        <time>2024-07-24T09:22:27Z</time>
      </trkpt>
      <trkpt lat="49.7934" lon="2.41542">
        <ele>109.6</ele>
        <time>2024-07-24T09:22:29Z</time>
      </trkpt>
      <trkpt lat="49.7934" lon="2.41542">
        <ele>109.6</ele>
        <time>2024-07-24T09:22:31Z</time>
      </trkpt>
      <trkpt lat="49.7934" lon="2.41542">
        <ele>109.6</ele>
        <time>2024-07-24T09:22:33Z</time>
      </trkpt>
      <trkpt lat="49.80862" lon="2.3871">
        <ele>38.6</ele>
        <time>2024-07-24T09:22:35Z</time>
      </trkpt>
      <trkpt lat="49.80626" lon="2.38902">
        <ele>38.6</ele>
        <time>2024-07-24T09:22:37Z</time>
      </trkpt>
      <trkpt lat="49.8039" lon="2.39094">
        <ele>40.8</ele>
        <time>2024-07-24T09:22:39Z</time>
      </trkpt>
      <trkpt lat="49.80154" lon="2.39285">
        <ele>46.8</ele>
        <time>2024-07-24T09:22:41Z</time>
      </trkpt>
      <trkpt lat="49.79918" lon="2.39477">
        <ele>57</ele>
        <time>2024-07-24T09:22:42Z</time>
      </trkpt>
      <trkpt lat="49.79912" lon="2.39473">
        <ele>56.8</ele>
        <time>2024-07-24T09:22:43Z</time>
      </trkpt>
      <trkpt lat="49.79911" lon="2.39472">
        <ele>56.9</ele>
        <time>2024-07-24T09:22:44Z</time>
      </trkpt>
      <trkpt lat="49.79911" lon="2.39472">
        <ele>56.9</ele>
        <time>2024-07-24T09:22:45Z</time>
      </trkpt>
      <trkpt lat="49.79911" lon="2.39472">
        <ele>56.7</ele>
        <time>2024-07-24T09:22:46Z</time>
      </trkpt>
      <trkpt lat="49.79911" lon="2.39471">
        <ele>56.7</ele>
        <time>2024-07-24T09:22:47Z</time>
      </trkpt>
      <trkpt lat="49.7991" lon="2.39471">
        <ele>56.7</ele>
        <time>2024-07-24T09:22:48Z</time>
      </trkpt>
      <trkpt lat="49.7991" lon="2.39471">
        <ele>56.7</ele>
        <time>2024-07-24T09:22:49Z</time>
      </trkpt>
      <trkpt lat="49.7991" lon="2.39471">
        <ele>56.7</ele>
        <time>2024-07-24T09:22:50Z</time>
      </trkpt>
      <trkpt lat="49.7991" lon="2.39471">
        <ele>56.7</ele>
        <time>2024-07-24T09:22:51Z</time>
      </trkpt>
      <trkpt lat="49.7991" lon="2.39471">
        <ele>56.7</ele>
        <time>2024-07-24T09:22:52Z</time>
      </trkpt>
      <trkpt lat="49.7991" lon="2.39471">
        <ele>56.7</ele>
        <time>2024-07-24T09:22:53Z</time>
      </trkpt>
      <trkpt lat="49.7991" lon="2.39471">
        <ele>56.7</ele>
        <time>2024-07-24T09:22:54Z</time>
      </trkpt>
      <trkpt lat="49.7991" lon="2.39471">
        <ele>56.7</ele>
        <time>2024-07-24T09:22:55Z</time>
      </trkpt>
      <trkpt lat="49.7991" lon="2.39471">
        <ele>56.7</ele>
        <time>2024-07-24T09:22:56Z</time>
      </trkpt>
      <trkpt lat="49.7991" lon="2.39471">
        <ele>56.7</ele>
        <time>2024-07-24T09:22:57Z</time>
      </trkpt>
      <trkpt lat="49.7991" lon="2.39471">
        <ele>56.7</ele>
        <time>2024-07-24T09:22:58Z</time>
      </trkpt>
      <trkpt lat="49.7991" lon="2.39471">
        <ele>56.7</ele>
        <time>2024-07-24T09:22:59Z</time>
      </trkpt>
      <trkpt lat="49.7991" lon="2.39471">
        <ele>56.7</ele>
        <time>2024-07-24T09:23:00Z</time>
      </trkpt>
      <trkpt lat="49.7991" lon="2.39471">
        <ele>56.7</ele>
        <time>2024-07-24T09:23:01Z</time>
      </trkpt>
      <trkpt lat="49.7991" lon="2.39471">
        <ele>56.7</ele>
        <time>2024-07-24T09:23:02Z</time>
      </trkpt>
      <trkpt lat="49.7991" lon="2.39471">
        <ele>56.7</ele>
        <time>2024-07-24T09:23:03Z</time>
      </trkpt>
      <trkpt lat="49.7991" lon="2.39471">
        <ele>56.7</ele>
        <time>2024-07-24T09:23:04Z</time>
      </trkpt>
      <trkpt lat="49.7991" lon="2.39471">
        <ele>56.7</ele>
        <time>2024-07-24T09:23:05Z</time>
      </trkpt>
      <trkpt lat="49.7991" lon="2.39471">
        <ele>56.7</ele>
        <time>2024-07-24T09:23:06Z</time>
      </trkpt>
      <trkpt lat="49.7991" lon="2.39471">
        <ele>56.7</ele>
        <time>2024-07-24T09:23:07Z</time>
      </trkpt>
      <trkpt lat="49.7991" lon="2.39471">
        <ele>56.7</ele>
        <time>2024-07-24T09:23:08Z</time>
      </trkpt>
      <trkpt lat="49.7991" lon="2.39471">
        <ele>56.7</ele>
        <time>2024-07-24T09:23:09Z</time>
      </trkpt>
      <trkpt lat="49.7991" lon="2.39471">
        <ele>56.7</ele>
        <time>2024-07-24T09:23:10Z</time>
      </trkpt>
      <trkpt lat="49.7991" lon="2.39471">
        <ele>56.7</ele>
        <time>2024-07-24T09:23:11Z</time>
      </trkpt>
      <trkpt lat="49.7991" lon="2.39471">
        <ele>56.7</ele>
        <time>2024-07-24T09:23:12Z</time>
      </trkpt>
      <trkpt lat="49.7991" lon="2.39471">
        <ele>56.7</ele>
        <time>2024-07-24T09:23:13Z</time>
      </trkpt>
      <trkpt lat="49.7991" lon="2.39471">
        <ele>56.7</ele>
        <time>2024-07-24T09:23:14Z</time>
      </trkpt>
      <trkpt lat="49.7991" lon="2.39471">
        <ele>56.7</ele>
        <time>2024-07-24T09:23:15Z</time>
      </trkpt>
      <trkpt lat="49.7991" lon="2.39471">
        <ele>56.7</ele>
        <time>2024-07-24T09:23:16Z</time>
      </trkpt>
      <trkpt lat="49.7991" lon="2.39471">
        <ele>56.7</ele>
        <time>2024-07-24T09:23:17Z</time>
      </trkpt>
      <trkpt lat="49.7991" lon="2.39471">
        <ele>56.7</ele>
        <time>2024-07-24T09:23:18Z</time>
      </trkpt>
      <trkpt lat="49.7991" lon="2.39471">
        <ele>56.7</ele>
        <time>2024-07-24T09:23:19Z</time>
      </trkpt>
      <trkpt lat="49.7991" lon="2.39471">
        <ele>56.7</ele>
        <time>2024-07-24T09:23:20Z</time>
      </trkpt>
      <trkpt lat="49.7991" lon="2.39471">
        <ele>56.7</ele>
        <time>2024-07-24T09:23:21Z</time>
      </trkpt>
      <trkpt lat="49.7991" lon="2.39471">
        <ele>56.7</ele>
        <time>2024-07-24T09:23:22Z</time>
      </trkpt>
      <trkpt lat="49.7991" lon="2.39471">
        <ele>56.7</ele>
        <time>2024-07-24T09:23:23Z</time>
      </trkpt>
      <trkpt lat="49.7991" lon="2.39471">
        <ele>56.7</ele>
        <time>2024-07-24T09:23:24Z</time>
      </trkpt>
      <trkpt lat="49.7991" lon="2.39471">
        <ele>56.7</ele>
        <time>2024-07-24T09:23:25Z</time>
      </trkpt>
      <trkpt lat="49.7991" lon="2.39471">
        <ele>56.7</ele>
        <time>2024-07-24T09:23:26Z</time>
      </trkpt>
      <trkpt lat="49.7991" lon="2.39471">
        <ele>56.7</ele>
        <time>2024-07-24T09:23:27Z</time>
      </trkpt>
      <trkpt lat="49.7991" lon="2.39471">
        <ele>56.7</ele>
        <time>2024-07-24T09:23:28Z</time>
      </trkpt>
      <trkpt lat="49.7991" lon="2.39471">
        <ele>56.7</ele>
        <time>2024-07-24T09:23:29Z</time>
      </trkpt>
      <trkpt lat="49.7991" lon="2.39471">
        <ele>56.7</ele>
        <time>2024-07-24T09:23:30Z</time>
      </trkpt>
      <trkpt lat="49.7991" lon="2.39471">
        <ele>56.7</ele>
        <time>2024-07-24T09:23:31Z</time>
      </trkpt>
      <trkpt lat="49.7991" lon="2.39471">
        <ele>56.7</ele>
        <time>2024-07-24T09:23:32Z</time>
      </trkpt>
      <trkpt lat="49.7991" lon="2.39471">
        <ele>56.7</ele>
        <time>2024-07-24T09:23:33Z</time>
      </trkpt>
      <trkpt lat="49.7991" lon="2.39471">
        <ele>56.7</ele>
        <time>2024-07-24T09:23:34Z</time>
      </trkpt>
      <trkpt lat="49.7991" lon="2.39471">
        <ele>56.7</ele>
        <time>2024-07-24T09:23:35Z</time>
      </trkpt>
      <trkpt lat="49.7991" lon="2.39471">
        <ele>56.7</ele>
        <time>2024-07-24T09:23:36Z</time>
      </trkpt>
      <trkpt lat="49.7991" lon="2.39471">
        <ele>56.7</ele>
        <time>2024-07-24T09:23:37Z</time>
      </trkpt>
      <trkpt lat="49.7991" lon="2.39471">
        <ele>56.7</ele>
        <time>2024-07-24T09:23:38Z</time>
      </trkpt>
      <trkpt lat="49.7991" lon="2.39471">
        <ele>56.7</ele>
        <time>2024-07-24T09:23:39Z</time>
      </trkpt>
      <trkpt lat="49.7991" lon="2.39471">
        <ele>56.7</ele>
        <time>2024-07-24T09:23:40Z</time>
      </trkpt>
      <trkpt lat="49.7991" lon="2.39471">
        <ele>56.7</ele>
        <time>2024-07-24T09:23:41Z</time>
      </trkpt>
      <trkpt lat="49.7991" lon="2.39471">
        <ele>56.7</ele>
        <time>2024-07-24T09:23:42Z</time>
      </trkpt>
      <trkpt lat="49.7991" lon="2.39471">
        <ele>56.7</ele>
        <time>2024-07-24T09:23:43Z</time>
      </trkpt>
      <trkpt lat="49.7991" lon="2.39471">
        <ele>56.7</ele>
        <time>2024-07-24T09:23:44Z</time>
      </trkpt>
      <trkpt lat="49.7991" lon="2.39471">
        <ele>56.7</ele>
        <time>2024-07-24T09:23:45Z</time>
      </trkpt>
      <trkpt lat="49.7991" lon="2.39471">
        <ele>56.7</ele>
        <time>2024-07-24T09:23:46Z</time>
      </trkpt>
      <trkpt lat="49.7991" lon="2.39471">
        <ele>56.7</ele>
        <time>2024-07-24T09:23:47Z</time>
      </trkpt>
      <trkpt lat="49.7991" lon="2.39471">
        <ele>56.7</ele>
        <time>2024-07-24T09:23:48Z</time>
      </trkpt>
      <trkpt lat="49.7991" lon="2.39471">
        <ele>56.7</ele>
        <time>2024-07-24T09:23:49Z</time>
      </trkpt>
      <trkpt lat="49.7991" lon="2.39471">
        <ele>56.7</ele>
        <time>2024-07-24T09:23:50Z</time>
      </trkpt>
      <trkpt lat="49.7991" lon="2.39471">
        <ele>56.7</ele>
        <time>2024-07-24T09:23:51Z</time>
      </trkpt>
      <trkpt lat="49.7991" lon="2.39471">
        <ele>56.7</ele>
        <time>2024-07-24T09:23:52Z</time>
      </trkpt>
      <trkpt lat="49.7991" lon="2.39471">
        <ele>56.7</ele>
        <time>2024-07-24T09:23:53Z</time>
      </trkpt>
      <trkpt lat="49.7991" lon="2.39471">
        <ele>56.7</ele>
        <time>2024-07-24T09:23:54Z</time>
      </trkpt>
      <trkpt lat="49.7991" lon="2.39471">
        <ele>56.7</ele>
        <time>2024-07-24T09:23:55Z</time>
      </trkpt>
      <trkpt lat="49.7991" lon="2.39471">
        <ele>56.7</ele>
        <time>2024-07-24T09:23:56Z</time>
      </trkpt>
      <trkpt lat="49.7991" lon="2.39471">
        <ele>56.7</ele>
        <time>2024-07-24T09:23:57Z</time>
      </trkpt>
      <trkpt lat="49.7991" lon="2.39471">
        <ele>56.7</ele>
        <time>2024-07-24T09:23:58Z</time>
      </trkpt>
      <trkpt lat="49.7991" lon="2.39471">
        <ele>56.7</ele>
        <time>2024-07-24T09:23:59Z</time>
      </trkpt>
      <trkpt lat="49.7991" lon="2.39471">
        <ele>56.7</ele>
        <time>2024-07-24T09:24:00Z</time>
      </trkpt>
      <trkpt lat="49.7991" lon="2.39471">
        <ele>56.7</ele>
        <time>2024-07-24T09:24:01Z</time>
      </trkpt>
      <trkpt lat="49.7991" lon="2.39471">
        <ele>56.7</ele>
        <time>2024-07-24T09:24:02Z</time>
      </trkpt>
      <trkpt lat="49.7991" lon="2.39471">
        <ele>56.7</ele>
        <time>2024-07-24T09:24:03Z</time>
      </trkpt>
      <trkpt lat="49.7991" lon="2.39471">
        <ele>56.7</ele>
        <time>2024-07-24T09:24:04Z</time>
      </trkpt>
      <trkpt lat="49.7991" lon="2.39471">
        <ele>56.7</ele>
        <time>2024-07-24T09:24:05Z</time>
      </trkpt>
      <trkpt lat="49.7991" lon="2.39471">
        <ele>56.7</ele>
        <time>2024-07-24T09:24:06Z</time>
      </trkpt>
      <trkpt lat="49.7991" lon="2.39471">
        <ele>56.7</ele>
        <time>2024-07-24T09:24:07Z</time>
      </trkpt>
      <trkpt lat="49.7991" lon="2.39471">
        <ele>56.7</ele>
        <time>2024-07-24T09:24:08Z</time>
      </trkpt>
      <trkpt lat="49.7991" lon="2.39471">
        <ele>56.7</ele>
        <time>2024-07-24T09:24:09Z</time>
      </trkpt>
      <trkpt lat="49.7991" lon="2.39471">
        <ele>56.7</ele>
        <time>2024-07-24T09:24:10Z</time>
      </trkpt>
      <trkpt lat="49.7991" lon="2.39471">
        <ele>56.7</ele>
        <time>2024-07-24T09:24:11Z</time>
      </trkpt>
      <trkpt lat="49.7991" lon="2.39471">
        <ele>56.7</ele>
        <time>2024-07-24T09:24:12Z</time>
      </trkpt>
      <trkpt lat="49.7991" lon="2.39471">
        <ele>56.7</ele>
        <time>2024-07-24T09:24:13Z</time>
      </trkpt>
      <trkpt lat="49.7991" lon="2.39471">
        <ele>56.7</ele>
        <time>2024-07-24T09:24:14Z</time>
      </trkpt>
      <trkpt lat="49.7991" lon="2.39471">
        <ele>56.7</ele>
        <time>2024-07-24T09:24:15Z</time>
      </trkpt>
      <trkpt lat="49.7991" lon="2.39471">
        <ele>56.7</ele>
        <time>2024-07-24T09:24:16Z</time>
      </trkpt>
      <trkpt lat="49.7991" lon="2.39471">
        <ele>56.7</ele>
        <time>2024-07-24T09:24:17Z</time>
      </trkpt>
      <trkpt lat="49.7991" lon="2.39471">
        <ele>56.7</ele>
        <time>2024-07-24T09:24:18Z</time>
      </trkpt>
      <trkpt lat="49.7991" lon="2.39471">
        <ele>56.7</ele>
        <time>2024-07-24T09:24:19Z</time>
      </trkpt>
      <trkpt lat="49.7991" lon="2.39471">
        <ele>56.7</ele>
        <time>2024-07-24T09:24:20Z</time>
      </trkpt>
      <trkpt lat="49.79912" lon="2.39468">
        <ele>56.6</ele>
        <time>2024-07-24T09:24:21Z</time>
      </trkpt>
      <trkpt lat="49.79912" lon="2.39466">
        <ele>56.5</ele>
        <time>2024-07-24T09:24:22Z</time>
      </trkpt>
      <trkpt lat="49.79912" lon="2.39465">
        <ele>56.5</ele>
        <time>2024-07-24T09:24:23Z</time>
      </trkpt>
      <trkpt lat="49.79912" lon="2.39464">
        <ele>56.5</ele>
        <time>2024-07-24T09:24:24Z</time>
      </trkpt>
      <trkpt lat="49.79912" lon="2.39464">
        <ele>56.5</ele>
        <time>2024-07-24T09:24:25Z</time>
      </trkpt>
      <trkpt lat="49.79912" lon="2.39464">
        <ele>56.5</ele>
        <time>2024-07-24T09:24:26Z</time>
      </trkpt>
      <trkpt lat="49.79911" lon="2.39463">
        <ele>56.5</ele>
        <time>2024-07-24T09:24:27Z</time>
      </trkpt>
      <trkpt lat="49.79911" lon="2.39463">
        <ele>56.5</ele>
        <time>2024-07-24T09:24:28Z</time>
      </trkpt>
      <trkpt lat="49.79911" lon="2.39463">
        <ele>56.4</ele>
        <time>2024-07-24T09:24:29Z</time>
      </trkpt>
      <trkpt lat="49.79911" lon="2.39463">
        <ele>56.4</ele>
        <time>2024-07-24T09:24:30Z</time>
      </trkpt>
      <trkpt lat="49.79911" lon="2.39463">
        <ele>56.4</ele>
        <time>2024-07-24T09:24:31Z</time>
      </trkpt>
      <trkpt lat="49.79911" lon="2.39462">
        <ele>56.4</ele>
        <time>2024-07-24T09:24:32Z</time>
      </trkpt>
      <trkpt lat="49.79912" lon="2.3946">
        <ele>56.4</ele>
        <time>2024-07-24T09:24:33Z</time>
      </trkpt>
      <trkpt lat="49.79912" lon="2.39459">
        <ele>56.3</ele>
        <time>2024-07-24T09:24:34Z</time>
      </trkpt>
      <trkpt lat="49.79912" lon="2.39458">
        <ele>56.3</ele>
        <time>2024-07-24T09:24:35Z</time>
      </trkpt>
      <trkpt lat="49.79912" lon="2.39457">
        <ele>56.2</ele>
        <time>2024-07-24T09:24:36Z</time>
      </trkpt>
      <trkpt lat="49.79912" lon="2.39455">
        <ele>56.2</ele>
        <time>2024-07-24T09:24:37Z</time>
      </trkpt>
      <trkpt lat="49.79913" lon="2.39454">
        <ele>56.1</ele>
        <time>2024-07-24T09:24:38Z</time>
      </trkpt>
      <trkpt lat="49.79913" lon="2.39452">
        <ele>56</ele>
        <time>2024-07-24T09:24:39Z</time>
      </trkpt>
      <trkpt lat="49.79914" lon="2.39451">
        <ele>55.9</ele>
        <time>2024-07-24T09:24:40Z</time>
      </trkpt>
      <trkpt lat="49.79914" lon="2.3945">
        <ele>55.8</ele>
        <time>2024-07-24T09:24:41Z</time>
      </trkpt>
      <trkpt lat="49.79914" lon="2.39449">
        <ele>55.7</ele>
        <time>2024-07-24T09:24:42Z</time>
      </trkpt>
      <trkpt lat="49.79914" lon="2.39447">
        <ele>55.6</ele>
        <time>2024-07-24T09:24:43Z</time>
      </trkpt>
      <trkpt lat="49.79915" lon="2.39446">
        <ele>55.5</ele>
        <time>2024-07-24T09:24:44Z</time>
      </trkpt>
      <trkpt lat="49.79915" lon="2.39445">
        <ele>55.4</ele>
        <time>2024-07-24T09:24:45Z</time>
      </trkpt>
      <trkpt lat="49.79915" lon="2.39444">
        <ele>55.3</ele>
        <time>2024-07-24T09:24:46Z</time>
      </trkpt>
      <trkpt lat="49.79915" lon="2.39443">
        <ele>55.3</ele>
        <time>2024-07-24T09:24:47Z</time>
      </trkpt>
      <trkpt lat="49.79915" lon="2.39442">
        <ele>55.2</ele>
        <time>2024-07-24T09:24:48Z</time>
      </trkpt>
      <trkpt lat="49.79915" lon="2.3944">
        <ele>55.1</ele>
        <time>2024-07-24T09:24:49Z</time>
      </trkpt>
      <trkpt lat="49.79915" lon="2.39439">
        <ele>55</ele>
        <time>2024-07-24T09:24:50Z</time>
      </trkpt>
      <trkpt lat="49.79915" lon="2.39438">
        <ele>54.9</ele>
        <time>2024-07-24T09:24:51Z</time>
      </trkpt>
      <trkpt lat="49.79916" lon="2.39436">
        <ele>54.8</ele>
        <time>2024-07-24T09:24:52Z</time>
      </trkpt>
      <trkpt lat="49.79916" lon="2.39433">
        <ele>54.5</ele>
        <time>2024-07-24T09:24:53Z</time>
      </trkpt>
      <trkpt lat="49.79916" lon="2.39431">
        <ele>54.4</ele>
        <time>2024-07-24T09:24:54Z</time>
      </trkpt>
      <trkpt lat="49.79916" lon="2.3943">
        <ele>54.3</ele>
        <time>2024-07-24T09:24:55Z</time>
      </trkpt>
      <trkpt lat="49.79916" lon="2.39425">
        <ele>54</ele>
        <time>2024-07-24T09:24:56Z</time>
      </trkpt>
      <trkpt lat="49.79916" lon="2.39424">
        <ele>53.9</ele>
        <time>2024-07-24T09:24:57Z</time>
      </trkpt>
      <trkpt lat="49.79917" lon="2.3942">
        <ele>53.7</ele>
        <time>2024-07-24T09:24:58Z</time>
      </trkpt>
      <trkpt lat="49.79917" lon="2.39419">
        <ele>53.6</ele>
        <time>2024-07-24T09:24:59Z</time>
      </trkpt>
      <trkpt lat="49.79917" lon="2.39418">
        <ele>53.6</ele>
        <time>2024-07-24T09:25:00Z</time>
      </trkpt>
      <trkpt lat="49.79917" lon="2.39416">
        <ele>53.4</ele>
        <time>2024-07-24T09:25:01Z</time>
      </trkpt>
      <trkpt lat="49.79917" lon="2.39414">
        <ele>53.3</ele>
        <time>2024-07-24T09:25:02Z</time>
      </trkpt>
      <trkpt lat="49.79918" lon="2.39413">
        <ele>53.2</ele>
        <time>2024-07-24T09:25:03Z</time>
      </trkpt>
      <trkpt lat="49.79918" lon="2.39411">
        <ele>53.1</ele>
        <time>2024-07-24T09:25:04Z</time>
      </trkpt>
      <trkpt lat="49.79918" lon="2.39409">
        <ele>53</ele>
        <time>2024-07-24T09:25:05Z</time>
      </trkpt>
      <trkpt lat="49.79919" lon="2.39408">
        <ele>52.9</ele>
        <time>2024-07-24T09:25:06Z</time>
      </trkpt>
      <trkpt lat="49.79919" lon="2.39406">
        <ele>52.9</ele>
        <time>2024-07-24T09:25:07Z</time>
      </trkpt>
      <trkpt lat="49.79919" lon="2.39405">
        <ele>52.8</ele>
        <time>2024-07-24T09:25:08Z</time>
      </trkpt>
      <trkpt lat="49.79919" lon="2.39404">
        <ele>52.7</ele>
        <time>2024-07-24T09:25:09Z</time>
      </trkpt>
      <trkpt lat="49.7992" lon="2.39402">
        <ele>52.6</ele>
        <time>2024-07-24T09:25:10Z</time>
      </trkpt>
      <trkpt lat="49.7992" lon="2.39401">
        <ele>52.6</ele>
        <time>2024-07-24T09:25:11Z</time>
      </trkpt>
      <trkpt lat="49.7992" lon="2.39399">
        <ele>52.5</ele>
        <time>2024-07-24T09:25:12Z</time>
      </trkpt>
      <trkpt lat="49.79921" lon="2.39397">
        <ele>52.4</ele>
        <time>2024-07-24T09:25:13Z</time>
      </trkpt>
      <trkpt lat="49.79921" lon="2.39396">
        <ele>52.3</ele>
        <time>2024-07-24T09:25:14Z</time>
      </trkpt>
      <trkpt lat="49.79921" lon="2.39394">
        <ele>52.2</ele>
        <time>2024-07-24T09:25:15Z</time>
      </trkpt>
      <trkpt lat="49.79922" lon="2.39393">
        <ele>52.1</ele>
        <time>2024-07-24T09:25:16Z</time>
      </trkpt>
      <trkpt lat="49.79922" lon="2.39391">
        <ele>52</ele>
        <time>2024-07-24T09:25:17Z</time>
      </trkpt>
      <trkpt lat="49.79922" lon="2.39389">
        <ele>51.9</ele>
        <time>2024-07-24T09:25:18Z</time>
      </trkpt>
      <trkpt lat="49.79923" lon="2.39387">
        <ele>51.8</ele>
        <time>2024-07-24T09:25:19Z</time>
      </trkpt>
      <trkpt lat="49.79923" lon="2.39386">
        <ele>51.8</ele>
        <time>2024-07-24T09:25:20Z</time>
      </trkpt>
      <trkpt lat="49.79923" lon="2.39384">
        <ele>51.7</ele>
        <time>2024-07-24T09:25:21Z</time>
      </trkpt>
      <trkpt lat="49.79924" lon="2.39382">
        <ele>51.6</ele>
        <time>2024-07-24T09:25:22Z</time>
      </trkpt>
      <trkpt lat="49.79924" lon="2.39381">
        <ele>51.5</ele>
        <time>2024-07-24T09:25:23Z</time>
      </trkpt>
      <trkpt lat="49.79924" lon="2.3938">
        <ele>51.5</ele>
        <time>2024-07-24T09:25:24Z</time>
      </trkpt>
      <trkpt lat="49.79924" lon="2.39379">
        <ele>51.4</ele>
        <time>2024-07-24T09:25:25Z</time>
      </trkpt>
      <trkpt lat="49.79924" lon="2.39377">
        <ele>51.3</ele>
        <time>2024-07-24T09:25:26Z</time>
      </trkpt>
      <trkpt lat="49.79924" lon="2.39376">
        <ele>51.3</ele>
        <time>2024-07-24T09:25:27Z</time>
      </trkpt>
      <trkpt lat="49.79925" lon="2.39375">
        <ele>51.2</ele>
        <time>2024-07-24T09:25:28Z</time>
      </trkpt>
      <trkpt lat="49.79925" lon="2.39373">
        <ele>51.1</ele>
        <time>2024-07-24T09:25:29Z</time>
      </trkpt>
      <trkpt lat="49.79925" lon="2.39372">
        <ele>51.1</ele>
        <time>2024-07-24T09:25:30Z</time>
      </trkpt>
      <trkpt lat="49.79925" lon="2.39371">
        <ele>51</ele>
        <time>2024-07-24T09:25:31Z</time>
      </trkpt>
      <trkpt lat="49.79925" lon="2.3937">
        <ele>50.9</ele>
        <time>2024-07-24T09:25:32Z</time>
      </trkpt>
      <trkpt lat="49.79925" lon="2.39368">
        <ele>50.9</ele>
        <time>2024-07-24T09:25:33Z</time>
      </trkpt>
      <trkpt lat="49.79925" lon="2.39367">
        <ele>50.8</ele>
        <time>2024-07-24T09:25:34Z</time>
      </trkpt>
      <trkpt lat="49.79925" lon="2.39365">
        <ele>50.7</ele>
        <time>2024-07-24T09:25:35Z</time>
      </trkpt>
      <trkpt lat="49.79926" lon="2.39364">
        <ele>50.7</ele>
        <time>2024-07-24T09:25:36Z</time>
      </trkpt>
      <trkpt lat="49.79926" lon="2.39363">
        <ele>50.6</ele>
        <time>2024-07-24T09:25:37Z</time>
      </trkpt>
      <trkpt lat="49.79926" lon="2.39361">
        <ele>50.5</ele>
        <time>2024-07-24T09:25:38Z</time>
      </trkpt>
      <trkpt lat="49.79926" lon="2.3936">
        <ele>50.5</ele>
        <time>2024-07-24T09:25:39Z</time>
      </trkpt>
      <trkpt lat="49.79927" lon="2.39359">
        <ele>50.4</ele>
        <time>2024-07-24T09:25:40Z</time>
      </trkpt>
      <trkpt lat="49.79927" lon="2.39357">
        <ele>50.3</ele>
        <time>2024-07-24T09:25:41Z</time>
      </trkpt>
      <trkpt lat="49.79927" lon="2.39355">
        <ele>50.3</ele>
        <time>2024-07-24T09:25:42Z</time>
      </trkpt>
      <trkpt lat="49.79927" lon="2.39354">
        <ele>50.2</ele>
        <time>2024-07-24T09:25:43Z</time>
      </trkpt>
      <trkpt lat="49.79927" lon="2.39352">
        <ele>50.1</ele>
        <time>2024-07-24T09:25:44Z</time>
      </trkpt>
      <trkpt lat="49.79927" lon="2.3935">
        <ele>50</ele>
        <time>2024-07-24T09:25:45Z</time>
      </trkpt>
      <trkpt lat="49.79927" lon="2.39349">
        <ele>50</ele>
        <time>2024-07-24T09:25:46Z</time>
      </trkpt>
      <trkpt lat="49.79927" lon="2.39348">
        <ele>49.9</ele>
        <time>2024-07-24T09:25:47Z</time>
      </trkpt>
      <trkpt lat="49.79927" lon="2.39346">
        <ele>49.9</ele>
        <time>2024-07-24T09:25:48Z</time>
      </trkpt>
      <trkpt lat="49.79927" lon="2.39345">
        <ele>49.8</ele>
        <time>2024-07-24T09:25:49Z</time>
      </trkpt>
      <trkpt lat="49.79927" lon="2.39343">
        <ele>49.7</ele>
        <time>2024-07-24T09:25:50Z</time>
      </trkpt>
      <trkpt lat="49.79927" lon="2.39342">
        <ele>49.7</ele>
        <time>2024-07-24T09:25:51Z</time>
      </trkpt>
      <trkpt lat="49.79927" lon="2.3934">
        <ele>49.6</ele>
        <time>2024-07-24T09:25:52Z</time>
      </trkpt>
      <trkpt lat="49.79928" lon="2.39338">
        <ele>49.5</ele>
        <time>2024-07-24T09:25:53Z</time>
      </trkpt>
      <trkpt lat="49.79927" lon="2.39337">
        <ele>49.4</ele>
        <time>2024-07-24T09:25:54Z</time>
      </trkpt>
      <trkpt lat="49.79927" lon="2.39335">
        <ele>49.4</ele>
        <time>2024-07-24T09:25:55Z</time>
      </trkpt>
      <trkpt lat="49.79927" lon="2.39334">
        <ele>49.3</ele>
        <time>2024-07-24T09:25:56Z</time>
      </trkpt>
      <trkpt lat="49.79927" lon="2.39332">
        <ele>49.3</ele>
        <time>2024-07-24T09:25:57Z</time>
      </trkpt>
      <trkpt lat="49.79927" lon="2.39331">
        <ele>49.2</ele>
        <time>2024-07-24T09:25:58Z</time>
      </trkpt>
      <trkpt lat="49.79927" lon="2.39329">
        <ele>49.1</ele>
        <time>2024-07-24T09:25:59Z</time>
      </trkpt>
      <trkpt lat="49.79927" lon="2.39327">
        <ele>49.1</ele>
        <time>2024-07-24T09:26:00Z</time>
      </trkpt>
      <trkpt lat="49.79926" lon="2.39325">
        <ele>49</ele>
        <time>2024-07-24T09:26:01Z</time>
      </trkpt>
      <trkpt lat="49.79926" lon="2.39324">
        <ele>49</ele>
        <time>2024-07-24T09:26:02Z</time>
      </trkpt>
      <trkpt lat="49.79926" lon="2.39322">
        <ele>48.9</ele>
        <time>2024-07-24T09:26:03Z</time>
      </trkpt>
      <trkpt lat="49.79926" lon="2.39321">
        <ele>48.9</ele>
        <time>2024-07-24T09:26:04Z</time>
      </trkpt>
      <trkpt lat="49.79927" lon="2.39319">
        <ele>48.8</ele>
        <time>2024-07-24T09:26:05Z</time>
      </trkpt>
      <trkpt lat="49.79927" lon="2.39317">
        <ele>48.8</ele>
        <time>2024-07-24T09:26:06Z</time>
      </trkpt>
      <trkpt lat="49.79927" lon="2.39316">
        <ele>48.7</ele>
        <time>2024-07-24T09:26:07Z</time>
      </trkpt>
      <trkpt lat="49.79927" lon="2.39314">
        <ele>48.6</ele>
        <time>2024-07-24T09:26:08Z</time>
      </trkpt>
      <trkpt lat="49.79927" lon="2.39313">
        <ele>48.6</ele>
        <time>2024-07-24T09:26:09Z</time>
      </trkpt>
      <trkpt lat="49.79927" lon="2.39311">
        <ele>48.6</ele>
        <time>2024-07-24T09:26:10Z</time>
      </trkpt>
      <trkpt lat="49.79927" lon="2.3931">
        <ele>48.5</ele>
        <time>2024-07-24T09:26:11Z</time>
      </trkpt>
      <trkpt lat="49.79927" lon="2.39309">
        <ele>48.5</ele>
        <time>2024-07-24T09:26:12Z</time>
      </trkpt>
      <trkpt lat="49.79928" lon="2.39307">
        <ele>48.4</ele>
        <time>2024-07-24T09:26:13Z</time>
      </trkpt>
      <trkpt lat="49.79928" lon="2.39306">
        <ele>48.4</ele>
        <time>2024-07-24T09:26:14Z</time>
      </trkpt>
      <trkpt lat="49.79928" lon="2.39305">
        <ele>48.4</ele>
        <time>2024-07-24T09:26:15Z</time>
      </trkpt>
      <trkpt lat="49.79928" lon="2.39303">
        <ele>48.3</ele>
        <time>2024-07-24T09:26:16Z</time>
      </trkpt>
      <trkpt lat="49.79929" lon="2.39302">
        <ele>48.3</ele>
        <time>2024-07-24T09:26:17Z</time>
      </trkpt>
      <trkpt lat="49.79929" lon="2.39301">
        <ele>48.3</ele>
        <time>2024-07-24T09:26:18Z</time>
      </trkpt>
      <trkpt lat="49.79929" lon="2.393">
        <ele>48.2</ele>
        <time>2024-07-24T09:26:19Z</time>
      </trkpt>
      <trkpt lat="49.79929" lon="2.39298">
        <ele>48.2</ele>
        <time>2024-07-24T09:26:20Z</time>
      </trkpt>
      <trkpt lat="49.79929" lon="2.39297">
        <ele>48.1</ele>
        <time>2024-07-24T09:26:21Z</time>
      </trkpt>
      <trkpt lat="49.7993" lon="2.39295">
        <ele>48.1</ele>
        <time>2024-07-24T09:26:22Z</time>
      </trkpt>
      <trkpt lat="49.7993" lon="2.39293">
        <ele>48.1</ele>
        <time>2024-07-24T09:26:23Z</time>
      </trkpt>
      <trkpt lat="49.7993" lon="2.39292">
        <ele>48.1</ele>
        <time>2024-07-24T09:26:24Z</time>
      </trkpt>
      <trkpt lat="49.7993" lon="2.39291">
        <ele>48</ele>
        <time>2024-07-24T09:26:25Z</time>
      </trkpt>
      <trkpt lat="49.7993" lon="2.39289">
        <ele>48</ele>
        <time>2024-07-24T09:26:26Z</time>
      </trkpt>
      <trkpt lat="49.7993" lon="2.39287">
        <ele>48</ele>
        <time>2024-07-24T09:26:27Z</time>
      </trkpt>
      <trkpt lat="49.7993" lon="2.39286">
        <ele>47.9</ele>
        <time>2024-07-24T09:26:28Z</time>
      </trkpt>
      <trkpt lat="49.7993" lon="2.39284">
        <ele>47.9</ele>
        <time>2024-07-24T09:26:29Z</time>
      </trkpt>
      <trkpt lat="49.79931" lon="2.39283">
        <ele>47.9</ele>
        <time>2024-07-24T09:26:30Z</time>
      </trkpt>
      <trkpt lat="49.79931" lon="2.39281">
        <ele>47.8</ele>
        <time>2024-07-24T09:26:31Z</time>
      </trkpt>
      <trkpt lat="49.79931" lon="2.3928">
        <ele>47.8</ele>
        <time>2024-07-24T09:26:32Z</time>
      </trkpt>
      <trkpt lat="49.79931" lon="2.39278">
        <ele>47.8</ele>
        <time>2024-07-24T09:26:33Z</time>
      </trkpt>
      <trkpt lat="49.79932" lon="2.39276">
        <ele>47.8</ele>
        <time>2024-07-24T09:26:34Z</time>
      </trkpt>
      <trkpt lat="49.79932" lon="2.39274">
        <ele>47.7</ele>
        <time>2024-07-24T09:26:35Z</time>
      </trkpt>
      <trkpt lat="49.79932" lon="2.39273">
        <ele>47.7</ele>
        <time>2024-07-24T09:26:36Z</time>
      </trkpt>
      <trkpt lat="49.79932" lon="2.39271">
        <ele>47.7</ele>
        <time>2024-07-24T09:26:37Z</time>
      </trkpt>
      <trkpt lat="49.79932" lon="2.3927">
        <ele>47.6</ele>
        <time>2024-07-24T09:26:38Z</time>
      </trkpt>
      <trkpt lat="49.79932" lon="2.39268">
        <ele>47.6</ele>
        <time>2024-07-24T09:26:39Z</time>
      </trkpt>
      <trkpt lat="49.79932" lon="2.39266">
        <ele>47.6</ele>
        <time>2024-07-24T09:26:40Z</time>
      </trkpt>
      <trkpt lat="49.79932" lon="2.39264">
        <ele>47.5</ele>
        <time>2024-07-24T09:26:41Z</time>
      </trkpt>
      <trkpt lat="49.79932" lon="2.39263">
        <ele>47.5</ele>
        <time>2024-07-24T09:26:42Z</time>
      </trkpt>
      <trkpt lat="49.79932" lon="2.39262">
        <ele>47.5</ele>
        <time>2024-07-24T09:26:43Z</time>
      </trkpt>
      <trkpt lat="49.79932" lon="2.3926">
        <ele>47.4</ele>
        <time>2024-07-24T09:26:44Z</time>
      </trkpt>
      <trkpt lat="49.79932" lon="2.39259">
        <ele>47.4</ele>
        <time>2024-07-24T09:26:45Z</time>
      </trkpt>
      <trkpt lat="49.79933" lon="2.39257">
        <ele>47.4</ele>
        <time>2024-07-24T09:26:46Z</time>
      </trkpt>
      <trkpt lat="49.79933" lon="2.39256">
        <ele>47.3</ele>
        <time>2024-07-24T09:26:47Z</time>
      </trkpt>
      <trkpt lat="49.79933" lon="2.39255">
        <ele>47.3</ele>
        <time>2024-07-24T09:26:48Z</time>
      </trkpt>
      <trkpt lat="49.79934" lon="2.39254">
        <ele>47.3</ele>
        <time>2024-07-24T09:26:49Z</time>
      </trkpt>
      <trkpt lat="49.79934" lon="2.39254">
        <ele>47.3</ele>
        <time>2024-07-24T09:26:50Z</time>
      </trkpt>
      <trkpt lat="49.79935" lon="2.39252">
        <ele>47.2</ele>
        <time>2024-07-24T09:26:51Z</time>
      </trkpt>
      <trkpt lat="49.79935" lon="2.39251">
        <ele>47.2</ele>
        <time>2024-07-24T09:26:52Z</time>
      </trkpt>
      <trkpt lat="49.79935" lon="2.39251">
        <ele>47.2</ele>
        <time>2024-07-24T09:26:53Z</time>
      </trkpt>
      <trkpt lat="49.79935" lon="2.39249">
        <ele>47.2</ele>
        <time>2024-07-24T09:26:54Z</time>
      </trkpt>
      <trkpt lat="49.79935" lon="2.39248">
        <ele>47.1</ele>
        <time>2024-07-24T09:26:55Z</time>
      </trkpt>
      <trkpt lat="49.79936" lon="2.39248">
        <ele>47.1</ele>
        <time>2024-07-24T09:26:56Z</time>
      </trkpt>
      <trkpt lat="49.79936" lon="2.39247">
        <ele>47.1</ele>
        <time>2024-07-24T09:26:57Z</time>
      </trkpt>
      <trkpt lat="49.79936" lon="2.39246">
        <ele>47.1</ele>
        <time>2024-07-24T09:26:58Z</time>
      </trkpt>
      <trkpt lat="49.79936" lon="2.39245">
        <ele>47</ele>
        <time>2024-07-24T09:26:59Z</time>
      </trkpt>
      <trkpt lat="49.79937" lon="2.39244">
        <ele>47</ele>
        <time>2024-07-24T09:27:00Z</time>
      </trkpt>
      <trkpt lat="49.79937" lon="2.39244">
        <ele>47</ele>
        <time>2024-07-24T09:27:01Z</time>
      </trkpt>
      <trkpt lat="49.79938" lon="2.39243">
        <ele>47</ele>
        <time>2024-07-24T09:27:02Z</time>
      </trkpt>
      <trkpt lat="49.79938" lon="2.39242">
        <ele>47</ele>
        <time>2024-07-24T09:27:03Z</time>
      </trkpt>
      <trkpt lat="49.79938" lon="2.39242">
        <ele>46.9</ele>
        <time>2024-07-24T09:27:04Z</time>
      </trkpt>
      <trkpt lat="49.79938" lon="2.39241">
        <ele>46.9</ele>
        <time>2024-07-24T09:27:05Z</time>
      </trkpt>
      <trkpt lat="49.79938" lon="2.39241">
        <ele>46.9</ele>
        <time>2024-07-24T09:27:06Z</time>
      </trkpt>
      <trkpt lat="49.79938" lon="2.3924">
        <ele>46.9</ele>
        <time>2024-07-24T09:27:07Z</time>
      </trkpt>
      <trkpt lat="49.79937" lon="2.39241">
        <ele>46.9</ele>
        <time>2024-07-24T09:27:08Z</time>
      </trkpt>
      <trkpt lat="49.79937" lon="2.39241">
        <ele>46.9</ele>
        <time>2024-07-24T09:27:09Z</time>
      </trkpt>
      <trkpt lat="49.79937" lon="2.3924">
        <ele>46.8</ele>
        <time>2024-07-24T09:27:10Z</time>
      </trkpt>
      <trkpt lat="49.79937" lon="2.3924">
        <ele>46.8</ele>
        <time>2024-07-24T09:27:11Z</time>
      </trkpt>
      <trkpt lat="49.79937" lon="2.39239">
        <ele>46.8</ele>
        <time>2024-07-24T09:27:12Z</time>
      </trkpt>
      <trkpt lat="49.79937" lon="2.39238">
        <ele>46.8</ele>
        <time>2024-07-24T09:27:13Z</time>
      </trkpt>
      <trkpt lat="49.79937" lon="2.39238">
        <ele>46.7</ele>
        <time>2024-07-24T09:27:14Z</time>
      </trkpt>
      <trkpt lat="49.79937" lon="2.39237">
        <ele>46.7</ele>
        <time>2024-07-24T09:27:15Z</time>
      </trkpt>
      <trkpt lat="49.79937" lon="2.39237">
        <ele>46.7</ele>
        <time>2024-07-24T09:27:16Z</time>
      </trkpt>
      <trkpt lat="49.79937" lon="2.39237">
        <ele>46.7</ele>
        <time>2024-07-24T09:27:17Z</time>
      </trkpt>
      <trkpt lat="49.79937" lon="2.39237">
        <ele>46.7</ele>
        <time>2024-07-24T09:27:18Z</time>
      </trkpt>
      <trkpt lat="49.79937" lon="2.39237">
        <ele>46.7</ele>
        <time>2024-07-24T09:27:19Z</time>
      </trkpt>
      <trkpt lat="49.79937" lon="2.39237">
        <ele>46.7</ele>
        <time>2024-07-24T09:27:20Z</time>
      </trkpt>
      <trkpt lat="49.79937" lon="2.39237">
        <ele>46.7</ele>
        <time>2024-07-24T09:27:21Z</time>
      </trkpt>
      <trkpt lat="49.79937" lon="2.39237">
        <ele>46.7</ele>
        <time>2024-07-24T09:27:22Z</time>
      </trkpt>
      <trkpt lat="49.79937" lon="2.39239">
        <ele>46.6</ele>
        <time>2024-07-24T09:27:23Z</time>
      </trkpt>
      <trkpt lat="49.79938" lon="2.39239">
        <ele>46.6</ele>
        <time>2024-07-24T09:27:24Z</time>
      </trkpt>
      <trkpt lat="49.79939" lon="2.39239">
        <ele>46.6</ele>
        <time>2024-07-24T09:27:25Z</time>
      </trkpt>
      <trkpt lat="49.79939" lon="2.39239">
        <ele>46.5</ele>
        <time>2024-07-24T09:27:26Z</time>
      </trkpt>
      <trkpt lat="49.7994" lon="2.3924">
        <ele>46.5</ele>
        <time>2024-07-24T09:27:27Z</time>
      </trkpt>
      <trkpt lat="49.7994" lon="2.39242">
        <ele>46.4</ele>
        <time>2024-07-24T09:27:28Z</time>
      </trkpt>
      <trkpt lat="49.7994" lon="2.39243">
        <ele>46.4</ele>
        <time>2024-07-24T09:27:29Z</time>
      </trkpt>
      <trkpt lat="49.7994" lon="2.39243">
        <ele>46.4</ele>
        <time>2024-07-24T09:27:30Z</time>
      </trkpt>
      <trkpt lat="49.7994" lon="2.39243">
        <ele>46.4</ele>
        <time>2024-07-24T09:27:31Z</time>
      </trkpt>
      <trkpt lat="49.7994" lon="2.39243">
        <ele>46.4</ele>
        <time>2024-07-24T09:27:32Z</time>
      </trkpt>
      <trkpt lat="49.7994" lon="2.39243">
        <ele>46.4</ele>
        <time>2024-07-24T09:27:33Z</time>
      </trkpt>
      <trkpt lat="49.7994" lon="2.39243">
        <ele>46.4</ele>
        <time>2024-07-24T09:27:34Z</time>
      </trkpt>
      <trkpt lat="49.7994" lon="2.39243">
        <ele>46.4</ele>
        <time>2024-07-24T09:27:35Z</time>
      </trkpt>
      <trkpt lat="49.7994" lon="2.39243">
        <ele>46.4</ele>
        <time>2024-07-24T09:27:36Z</time>
      </trkpt>
      <trkpt lat="49.7994" lon="2.39243">
        <ele>46.4</ele>
        <time>2024-07-24T09:27:37Z</time>
      </trkpt>
      <trkpt lat="49.7994" lon="2.39243">
        <ele>46.4</ele>
        <time>2024-07-24T09:27:38Z</time>
      </trkpt>
      <trkpt lat="49.7994" lon="2.39243">
        <ele>46.4</ele>
        <time>2024-07-24T09:27:39Z</time>
      </trkpt>
      <trkpt lat="49.7994" lon="2.39243">
        <ele>46.4</ele>
        <time>2024-07-24T09:27:40Z</time>
      </trkpt>
      <trkpt lat="49.7994" lon="2.39243">
        <ele>46.4</ele>
        <time>2024-07-24T09:27:41Z</time>
      </trkpt>
      <trkpt lat="49.7994" lon="2.39243">
        <ele>46.4</ele>
        <time>2024-07-24T09:27:42Z</time>
      </trkpt>
      <trkpt lat="49.7994" lon="2.39243">
        <ele>46.4</ele>
        <time>2024-07-24T09:27:43Z</time>
      </trkpt>
      <trkpt lat="49.7994" lon="2.39243">
        <ele>46.4</ele>
        <time>2024-07-24T09:27:44Z</time>
      </trkpt>
      <trkpt lat="49.7994" lon="2.39243">
        <ele>46.4</ele>
        <time>2024-07-24T09:27:45Z</time>
      </trkpt>
      <trkpt lat="49.7994" lon="2.39243">
        <ele>46.4</ele>
        <time>2024-07-24T09:27:46Z</time>
      </trkpt>
      <trkpt lat="49.7994" lon="2.39243">
        <ele>46.4</ele>
        <time>2024-07-24T09:27:47Z</time>
      </trkpt>
      <trkpt lat="49.7994" lon="2.39243">
        <ele>46.4</ele>
        <time>2024-07-24T09:27:48Z</time>
      </trkpt>
      <trkpt lat="49.7994" lon="2.39243">
        <ele>46.4</ele>
        <time>2024-07-24T09:27:49Z</time>
      </trkpt>
      <trkpt lat="49.7994" lon="2.39243">
        <ele>46.4</ele>
        <time>2024-07-24T09:27:50Z</time>
      </trkpt>
      <trkpt lat="49.7994" lon="2.39243">
        <ele>46.4</ele>
        <time>2024-07-24T09:27:51Z</time>
      </trkpt>
      <trkpt lat="49.7994" lon="2.39243">
        <ele>46.4</ele>
        <time>2024-07-24T09:27:52Z</time>
      </trkpt>
      <trkpt lat="49.7994" lon="2.39243">
        <ele>46.4</ele>
        <time>2024-07-24T09:27:53Z</time>
      </trkpt>
      <trkpt lat="49.7994" lon="2.39243">
        <ele>46.4</ele>
        <time>2024-07-24T09:27:54Z</time>
      </trkpt>
      <trkpt lat="49.7994" lon="2.39243">
        <ele>46.4</ele>
        <time>2024-07-24T09:27:55Z</time>
      </trkpt>
      <trkpt lat="49.7994" lon="2.39243">
        <ele>46.4</ele>
        <time>2024-07-24T09:27:56Z</time>
      </trkpt>
      <trkpt lat="49.7994" lon="2.39243">
        <ele>46.4</ele>
        <time>2024-07-24T09:27:57Z</time>
      </trkpt>
      <trkpt lat="49.79939" lon="2.39243">
        <ele>46.3</ele>
        <time>2024-07-24T09:27:58Z</time>
      </trkpt>
      <trkpt lat="49.79939" lon="2.39242">
        <ele>46.3</ele>
        <time>2024-07-24T09:27:59Z</time>
      </trkpt>
      <trkpt lat="49.79939" lon="2.39242">
        <ele>46.2</ele>
        <time>2024-07-24T09:28:00Z</time>
      </trkpt>
      <trkpt lat="49.79938" lon="2.39242">
        <ele>46.2</ele>
        <time>2024-07-24T09:28:01Z</time>
      </trkpt>
      <trkpt lat="49.79938" lon="2.39242">
        <ele>46.2</ele>
        <time>2024-07-24T09:28:02Z</time>
      </trkpt>
      <trkpt lat="49.79938" lon="2.39242">
        <ele>46.2</ele>
        <time>2024-07-24T09:28:03Z</time>
      </trkpt>
      <trkpt lat="49.79938" lon="2.39242">
        <ele>46.2</ele>
        <time>2024-07-24T09:28:04Z</time>
      </trkpt>
      <trkpt lat="49.79938" lon="2.39242">
        <ele>46.2</ele>
        <time>2024-07-24T09:28:05Z</time>
      </trkpt>
      <trkpt lat="49.79938" lon="2.39242">
        <ele>46.2</ele>
        <time>2024-07-24T09:28:06Z</time>
      </trkpt>
      <trkpt lat="49.79938" lon="2.39242">
        <ele>46.2</ele>
        <time>2024-07-24T09:28:07Z</time>
      </trkpt>
      <trkpt lat="49.79938" lon="2.39242">
        <ele>46.2</ele>
        <time>2024-07-24T09:28:08Z</time>
      </trkpt>
      <trkpt lat="49.79938" lon="2.39242">
        <ele>46.2</ele>
        <time>2024-07-24T09:28:09Z</time>
      </trkpt>
      <trkpt lat="49.79938" lon="2.39242">
        <ele>46.2</ele>
        <time>2024-07-24T09:28:10Z</time>
      </trkpt>
      <trkpt lat="49.79938" lon="2.39242">
        <ele>46.2</ele>
        <time>2024-07-24T09:28:11Z</time>
      </trkpt>
      <trkpt lat="49.79938" lon="2.39242">
        <ele>46.2</ele>
        <time>2024-07-24T09:28:12Z</time>
      </trkpt>
      <trkpt lat="49.79938" lon="2.39242">
        <ele>46.2</ele>
        <time>2024-07-24T09:28:13Z</time>
      </trkpt>
      <trkpt lat="49.79938" lon="2.39242">
        <ele>46.2</ele>
        <time>2024-07-24T09:28:14Z</time>
      </trkpt>
      <trkpt lat="49.79938" lon="2.39242">
        <ele>46.2</ele>
        <time>2024-07-24T09:28:15Z</time>
      </trkpt>
      <trkpt lat="49.79938" lon="2.39242">
        <ele>46.2</ele>
        <time>2024-07-24T09:28:16Z</time>
      </trkpt>
      <trkpt lat="49.79938" lon="2.39242">
        <ele>46.2</ele>
        <time>2024-07-24T09:28:17Z</time>
      </trkpt>
      <trkpt lat="49.79938" lon="2.39242">
        <ele>46.2</ele>
        <time>2024-07-24T09:28:18Z</time>
      </trkpt>
      <trkpt lat="49.79938" lon="2.39242">
        <ele>46.2</ele>
        <time>2024-07-24T09:28:19Z</time>
      </trkpt>
      <trkpt lat="49.79938" lon="2.39242">
        <ele>46.2</ele>
        <time>2024-07-24T09:28:20Z</time>
      </trkpt>
      <trkpt lat="49.79938" lon="2.39242">
        <ele>46.2</ele>
        <time>2024-07-24T09:28:21Z</time>
      </trkpt>
      <trkpt lat="49.79938" lon="2.39242">
        <ele>46.2</ele>
        <time>2024-07-24T09:28:22Z</time>
      </trkpt>
      <trkpt lat="49.79938" lon="2.39242">
        <ele>46.2</ele>
        <time>2024-07-24T09:28:23Z</time>
      </trkpt>
      <trkpt lat="49.79938" lon="2.39242">
        <ele>46.2</ele>
        <time>2024-07-24T09:28:24Z</time>
      </trkpt>
      <trkpt lat="49.79938" lon="2.39242">
        <ele>46.2</ele>
        <time>2024-07-24T09:28:25Z</time>
      </trkpt>
      <trkpt lat="49.79938" lon="2.39242">
        <ele>46.2</ele>
        <time>2024-07-24T09:28:26Z</time>
      </trkpt>
      <trkpt lat="49.79938" lon="2.39242">
        <ele>46.2</ele>
        <time>2024-07-24T09:28:27Z</time>
      </trkpt>
      <trkpt lat="49.79938" lon="2.39242">
        <ele>46.2</ele>
        <time>2024-07-24T09:28:28Z</time>
      </trkpt>
      <trkpt lat="49.79938" lon="2.39242">
        <ele>46.2</ele>
        <time>2024-07-24T09:28:29Z</time>
      </trkpt>
      <trkpt lat="49.79938" lon="2.39242">
        <ele>46.2</ele>
        <time>2024-07-24T09:28:30Z</time>
      </trkpt>
      <trkpt lat="49.79938" lon="2.39242">
        <ele>46.2</ele>
        <time>2024-07-24T09:28:31Z</time>
      </trkpt>
      <trkpt lat="49.79938" lon="2.39242">
        <ele>46.2</ele>
        <time>2024-07-24T09:28:32Z</time>
      </trkpt>
      <trkpt lat="49.79938" lon="2.39242">
        <ele>46.2</ele>
        <time>2024-07-24T09:28:33Z</time>
      </trkpt>
      <trkpt lat="49.79938" lon="2.39242">
        <ele>46.2</ele>
        <time>2024-07-24T09:28:34Z</time>
      </trkpt>
      <trkpt lat="49.79938" lon="2.39242">
        <ele>46.2</ele>
        <time>2024-07-24T09:28:35Z</time>
      </trkpt>
      <trkpt lat="49.79938" lon="2.39242">
        <ele>46.2</ele>
        <time>2024-07-24T09:28:36Z</time>
      </trkpt>
      <trkpt lat="49.79938" lon="2.39242">
        <ele>46.2</ele>
        <time>2024-07-24T09:28:37Z</time>
      </trkpt>
      <trkpt lat="49.79938" lon="2.39242">
        <ele>46.2</ele>
        <time>2024-07-24T09:28:38Z</time>
      </trkpt>
      <trkpt lat="49.79938" lon="2.39242">
        <ele>46.2</ele>
        <time>2024-07-24T09:28:39Z</time>
      </trkpt>
      <trkpt lat="49.79938" lon="2.39242">
        <ele>46.2</ele>
        <time>2024-07-24T09:28:40Z</time>
      </trkpt>
      <trkpt lat="49.79938" lon="2.39242">
        <ele>46.2</ele>
        <time>2024-07-24T09:28:41Z</time>
      </trkpt>
      <trkpt lat="49.79938" lon="2.39242">
        <ele>46.2</ele>
        <time>2024-07-24T09:28:42Z</time>
      </trkpt>
      <trkpt lat="49.79938" lon="2.39242">
        <ele>46.2</ele>
        <time>2024-07-24T09:28:43Z</time>
      </trkpt>
      <trkpt lat="49.79938" lon="2.39242">
        <ele>46.2</ele>
        <time>2024-07-24T09:28:44Z</time>
      </trkpt>
      <trkpt lat="49.79938" lon="2.39242">
        <ele>46.2</ele>
        <time>2024-07-24T09:28:45Z</time>
      </trkpt>
      <trkpt lat="49.79938" lon="2.39242">
        <ele>46.2</ele>
        <time>2024-07-24T09:28:46Z</time>
      </trkpt>
      <trkpt lat="49.79938" lon="2.39242">
        <ele>46.2</ele>
        <time>2024-07-24T09:28:47Z</time>
      </trkpt>
      <trkpt lat="49.79938" lon="2.39242">
        <ele>46.2</ele>
        <time>2024-07-24T09:28:48Z</time>
      </trkpt>
      <trkpt lat="49.79938" lon="2.39242">
        <ele>46.2</ele>
        <time>2024-07-24T09:28:49Z</time>
      </trkpt>
      <trkpt lat="49.79938" lon="2.39242">
        <ele>46.2</ele>
        <time>2024-07-24T09:28:50Z</time>
      </trkpt>
      <trkpt lat="49.79938" lon="2.39242">
        <ele>46.2</ele>
        <time>2024-07-24T09:28:51Z</time>
      </trkpt>
      <trkpt lat="49.79938" lon="2.39242">
        <ele>46.2</ele>
        <time>2024-07-24T09:28:52Z</time>
      </trkpt>
      <trkpt lat="49.79938" lon="2.39242">
        <ele>46.2</ele>
        <time>2024-07-24T09:28:53Z</time>
      </trkpt>
      <trkpt lat="49.79938" lon="2.39242">
        <ele>46.2</ele>
        <time>2024-07-24T09:28:54Z</time>
      </trkpt>
      <trkpt lat="49.79938" lon="2.39242">
        <ele>46.2</ele>
        <time>2024-07-24T09:28:55Z</time>
      </trkpt>
      <trkpt lat="49.79938" lon="2.39242">
        <ele>46.2</ele>
        <time>2024-07-24T09:28:56Z</time>
      </trkpt>
      <trkpt lat="49.79938" lon="2.39242">
        <ele>46.2</ele>
        <time>2024-07-24T09:28:57Z</time>
      </trkpt>
      <trkpt lat="49.79938" lon="2.39242">
        <ele>46.2</ele>
        <time>2024-07-24T09:28:58Z</time>
      </trkpt>
      <trkpt lat="49.79938" lon="2.39242">
        <ele>46.2</ele>
        <time>2024-07-24T09:28:59Z</time>
      </trkpt>
      <trkpt lat="49.79938" lon="2.39242">
        <ele>46.2</ele>
        <time>2024-07-24T09:29:00Z</time>
      </trkpt>
      <trkpt lat="49.79938" lon="2.39242">
        <ele>46.2</ele>
        <time>2024-07-24T09:29:01Z</time>
      </trkpt>
      <trkpt lat="49.79938" lon="2.39242">
        <ele>46.2</ele>
        <time>2024-07-24T09:29:02Z</time>
      </trkpt>
      <trkpt lat="49.79938" lon="2.39242">
        <ele>46.2</ele>
        <time>2024-07-24T09:29:03Z</time>
      </trkpt>
      <trkpt lat="49.79938" lon="2.39242">
        <ele>46.2</ele>
        <time>2024-07-24T09:29:04Z</time>
      </trkpt>
      <trkpt lat="49.79938" lon="2.39242">
        <ele>46.2</ele>
        <time>2024-07-24T09:29:05Z</time>
      </trkpt>
      <trkpt lat="49.79938" lon="2.39242">
        <ele>46.2</ele>
        <time>2024-07-24T09:29:06Z</time>
      </trkpt>
      <trkpt lat="49.79938" lon="2.39242">
        <ele>46.2</ele>
        <time>2024-07-24T09:29:07Z</time>
      </trkpt>
      <trkpt lat="49.79938" lon="2.39242">
        <ele>46.2</ele>
        <time>2024-07-24T09:29:08Z</time>
      </trkpt>
      <trkpt lat="49.79938" lon="2.39242">
        <ele>46.2</ele>
        <time>2024-07-24T09:29:09Z</time>
      </trkpt>
      <trkpt lat="49.79938" lon="2.39242">
        <ele>46.2</ele>
        <time>2024-07-24T09:29:10Z</time>
      </trkpt>
      <trkpt lat="49.79938" lon="2.39242">
        <ele>46.2</ele>
        <time>2024-07-24T09:29:11Z</time>
      </trkpt>
      <trkpt lat="49.79938" lon="2.39242">
        <ele>46.2</ele>
        <time>2024-07-24T09:29:12Z</time>
      </trkpt>
      <trkpt lat="49.79938" lon="2.39242">
        <ele>46.2</ele>
        <time>2024-07-24T09:29:13Z</time>
      </trkpt>
      <trkpt lat="49.79938" lon="2.39242">
        <ele>46.2</ele>
        <time>2024-07-24T09:29:14Z</time>
      </trkpt>
      <trkpt lat="49.79938" lon="2.39242">
        <ele>46.2</ele>
        <time>2024-07-24T09:29:15Z</time>
      </trkpt>
      <trkpt lat="49.79938" lon="2.39242">
        <ele>46.2</ele>
        <time>2024-07-24T09:29:16Z</time>
      </trkpt>
      <trkpt lat="49.79938" lon="2.39242">
        <ele>46.2</ele>
        <time>2024-07-24T09:29:17Z</time>
      </trkpt>
      <trkpt lat="49.79938" lon="2.39242">
        <ele>46.2</ele>
        <time>2024-07-24T09:29:18Z</time>
      </trkpt>
      <trkpt lat="49.79938" lon="2.39242">
        <ele>46.2</ele>
        <time>2024-07-24T09:29:19Z</time>
      </trkpt>
      <trkpt lat="49.79938" lon="2.39242">
        <ele>46.2</ele>
        <time>2024-07-24T09:29:20Z</time>
      </trkpt>
      <trkpt lat="49.79938" lon="2.39242">
        <ele>46.2</ele>
        <time>2024-07-24T09:29:21Z</time>
      </trkpt>
      <trkpt lat="49.79938" lon="2.39242">
        <ele>46.2</ele>
        <time>2024-07-24T09:29:22Z</time>
      </trkpt>
      <trkpt lat="49.79938" lon="2.39242">
        <ele>46.2</ele>
        <time>2024-07-24T09:29:23Z</time>
      </trkpt>
      <trkpt lat="49.79938" lon="2.39242">
        <ele>46.2</ele>
        <time>2024-07-24T09:29:24Z</time>
      </trkpt>
      <trkpt lat="49.79938" lon="2.39242">
        <ele>46.2</ele>
        <time>2024-07-24T09:29:25Z</time>
      </trkpt>
      <trkpt lat="49.79938" lon="2.39242">
        <ele>46.2</ele>
        <time>2024-07-24T09:29:26Z</time>
      </trkpt>
      <trkpt lat="49.79938" lon="2.39242">
        <ele>46.2</ele>
        <time>2024-07-24T09:29:27Z</time>
      </trkpt>
      <trkpt lat="49.79938" lon="2.39242">
        <ele>46.2</ele>
        <time>2024-07-24T09:29:28Z</time>
      </trkpt>
      <trkpt lat="49.79938" lon="2.39242">
        <ele>46.2</ele>
        <time>2024-07-24T09:29:29Z</time>
      </trkpt>
      <trkpt lat="49.79938" lon="2.39242">
        <ele>46.2</ele>
        <time>2024-07-24T09:29:30Z</time>
      </trkpt>
      <trkpt lat="49.79938" lon="2.39242">
        <ele>46.2</ele>
        <time>2024-07-24T09:29:31Z</time>
      </trkpt>
      <trkpt lat="49.79938" lon="2.39242">
        <ele>46.2</ele>
        <time>2024-07-24T09:29:32Z</time>
      </trkpt>
      <trkpt lat="49.79938" lon="2.39242">
        <ele>46.2</ele>
        <time>2024-07-24T09:29:33Z</time>
      </trkpt>
      <trkpt lat="49.79938" lon="2.39242">
        <ele>46.2</ele>
        <time>2024-07-24T09:29:34Z</time>
      </trkpt>
      <trkpt lat="49.79938" lon="2.39242">
        <ele>46.2</ele>
        <time>2024-07-24T09:29:35Z</time>
      </trkpt>
      <trkpt lat="49.79938" lon="2.39242">
        <ele>46.2</ele>
        <time>2024-07-24T09:29:36Z</time>
      </trkpt>
      <trkpt lat="49.79938" lon="2.39242">
        <ele>46.2</ele>
        <time>2024-07-24T09:29:37Z</time>
      </trkpt>
      <trkpt lat="49.79938" lon="2.39242">
        <ele>46.2</ele>
        <time>2024-07-24T09:29:38Z</time>
      </trkpt>
      <trkpt lat="49.79938" lon="2.39242">
        <ele>46.2</ele>
        <time>2024-07-24T09:29:39Z</time>
      </trkpt>
      <trkpt lat="49.79938" lon="2.39242">
        <ele>46.2</ele>
        <time>2024-07-24T09:29:40Z</time>
      </trkpt>
      <trkpt lat="49.79938" lon="2.39242">
        <ele>46.2</ele>
        <time>2024-07-24T09:29:41Z</time>
      </trkpt>
      <trkpt lat="49.79938" lon="2.39242">
        <ele>46.2</ele>
        <time>2024-07-24T09:29:42Z</time>
      </trkpt>
      <trkpt lat="49.79938" lon="2.39242">
        <ele>46.2</ele>
        <time>2024-07-24T09:29:43Z</time>
      </trkpt>
      <trkpt lat="49.79938" lon="2.39242">
        <ele>46.2</ele>
        <time>2024-07-24T09:29:44Z</time>
      </trkpt>
      <trkpt lat="49.79937" lon="2.39241">
        <ele>46.2</ele>
        <time>2024-07-24T09:29:45Z</time>
      </trkpt>
      <trkpt lat="49.79937" lon="2.3924">
        <ele>46.1</ele>
        <time>2024-07-24T09:29:46Z</time>
      </trkpt>
      <trkpt lat="49.79937" lon="2.39239">
        <ele>46.1</ele>
        <time>2024-07-24T09:29:47Z</time>
      </trkpt>
      <trkpt lat="49.79937" lon="2.39237">
        <ele>46</ele>
        <time>2024-07-24T09:29:48Z</time>
      </trkpt>
      <trkpt lat="49.79937" lon="2.39236">
        <ele>46</ele>
        <time>2024-07-24T09:29:49Z</time>
      </trkpt>
      <trkpt lat="49.79937" lon="2.39234">
        <ele>45.9</ele>
        <time>2024-07-24T09:29:50Z</time>
      </trkpt>
      <trkpt lat="49.79937" lon="2.39233">
        <ele>45.9</ele>
        <time>2024-07-24T09:29:51Z</time>
      </trkpt>
      <trkpt lat="49.79937" lon="2.39232">
        <ele>45.8</ele>
        <time>2024-07-24T09:29:52Z</time>
      </trkpt>
      <trkpt lat="49.79937" lon="2.3923">
        <ele>45.8</ele>
        <time>2024-07-24T09:29:53Z</time>
      </trkpt>
      <trkpt lat="49.79937" lon="2.39228">
        <ele>45.7</ele>
        <time>2024-07-24T09:29:54Z</time>
      </trkpt>
      <trkpt lat="49.79937" lon="2.39226">
        <ele>45.6</ele>
        <time>2024-07-24T09:29:55Z</time>
      </trkpt>
      <trkpt lat="49.79937" lon="2.39225">
        <ele>45.6</ele>
        <time>2024-07-24T09:29:56Z</time>
      </trkpt>
      <trkpt lat="49.79937" lon="2.39223">
        <ele>45.5</ele>
        <time>2024-07-24T09:29:57Z</time>
      </trkpt>
      <trkpt lat="49.79938" lon="2.39221">
        <ele>45.5</ele>
        <time>2024-07-24T09:29:58Z</time>
      </trkpt>
      <trkpt lat="49.79938" lon="2.3922">
        <ele>45.4</ele>
        <time>2024-07-24T09:29:59Z</time>
      </trkpt>
      <trkpt lat="49.79939" lon="2.39216">
        <ele>45.3</ele>
        <time>2024-07-24T09:30:00Z</time>
      </trkpt>
      <trkpt lat="49.79939" lon="2.39215">
        <ele>45.2</ele>
        <time>2024-07-24T09:30:01Z</time>
      </trkpt>
      <trkpt lat="49.79939" lon="2.39214">
        <ele>45.2</ele>
        <time>2024-07-24T09:30:02Z</time>
      </trkpt>
      <trkpt lat="49.7994" lon="2.39211">
        <ele>45.1</ele>
        <time>2024-07-24T09:30:03Z</time>
      </trkpt>
      <trkpt lat="49.7994" lon="2.39209">
        <ele>45</ele>
        <time>2024-07-24T09:30:04Z</time>
      </trkpt>
      <trkpt lat="49.7994" lon="2.39208">
        <ele>45</ele>
        <time>2024-07-24T09:30:05Z</time>
      </trkpt>
      <trkpt lat="49.79941" lon="2.39207">
        <ele>44.9</ele>
        <time>2024-07-24T09:30:06Z</time>
      </trkpt>
      <trkpt lat="49.79941" lon="2.39205">
        <ele>44.9</ele>
        <time>2024-07-24T09:30:07Z</time>
      </trkpt>
      <trkpt lat="49.79942" lon="2.39203">
        <ele>44.8</ele>
        <time>2024-07-24T09:30:08Z</time>
      </trkpt>
      <trkpt lat="49.79942" lon="2.39202">
        <ele>44.8</ele>
        <time>2024-07-24T09:30:09Z</time>
      </trkpt>
      <trkpt lat="49.79942" lon="2.39201">
        <ele>44.7</ele>
        <time>2024-07-24T09:30:10Z</time>
      </trkpt>
      <trkpt lat="49.79943" lon="2.39199">
        <ele>44.7</ele>
        <time>2024-07-24T09:30:11Z</time>
      </trkpt>
      <trkpt lat="49.79943" lon="2.39198">
        <ele>44.6</ele>
        <time>2024-07-24T09:30:12Z</time>
      </trkpt>
      <trkpt lat="49.79943" lon="2.39196">
        <ele>44.5</ele>
        <time>2024-07-24T09:30:13Z</time>
      </trkpt>
      <trkpt lat="49.79943" lon="2.39195">
        <ele>44.5</ele>
        <time>2024-07-24T09:30:14Z</time>
      </trkpt>
      <trkpt lat="49.79943" lon="2.39193">
        <ele>44.5</ele>
        <time>2024-07-24T09:30:15Z</time>
      </trkpt>
      <trkpt lat="49.79943" lon="2.39192">
        <ele>44.4</ele>
        <time>2024-07-24T09:30:16Z</time>
      </trkpt>
      <trkpt lat="49.79943" lon="2.39191">
        <ele>44.4</ele>
        <time>2024-07-24T09:30:17Z</time>
      </trkpt>
      <trkpt lat="49.79943" lon="2.39189">
        <ele>44.3</ele>
        <time>2024-07-24T09:30:18Z</time>
      </trkpt>
      <trkpt lat="49.79943" lon="2.39188">
        <ele>44.3</ele>
        <time>2024-07-24T09:30:19Z</time>
      </trkpt>
      <trkpt lat="49.79944" lon="2.39186">
        <ele>44.2</ele>
        <time>2024-07-24T09:30:20Z</time>
      </trkpt>
      <trkpt lat="49.79944" lon="2.39185">
        <ele>44.2</ele>
        <time>2024-07-24T09:30:21Z</time>
      </trkpt>
      <trkpt lat="49.79945" lon="2.39183">
        <ele>44.1</ele>
        <time>2024-07-24T09:30:22Z</time>
      </trkpt>
      <trkpt lat="49.79945" lon="2.39182">
        <ele>44</ele>
        <time>2024-07-24T09:30:23Z</time>
      </trkpt>
      <trkpt lat="49.79945" lon="2.39181">
        <ele>44</ele>
        <time>2024-07-24T09:30:24Z</time>
      </trkpt>
      <trkpt lat="49.79945" lon="2.3918">
        <ele>43.9</ele>
        <time>2024-07-24T09:30:25Z</time>
      </trkpt>
      <trkpt lat="49.79946" lon="2.39178">
        <ele>43.9</ele>
        <time>2024-07-24T09:30:26Z</time>
      </trkpt>
      <trkpt lat="49.79946" lon="2.39177">
        <ele>43.8</ele>
        <time>2024-07-24T09:30:27Z</time>
      </trkpt>
      <trkpt lat="49.79946" lon="2.39175">
        <ele>43.8</ele>
        <time>2024-07-24T09:30:28Z</time>
      </trkpt>
      <trkpt lat="49.79946" lon="2.39174">
        <ele>43.7</ele>
        <time>2024-07-24T09:30:29Z</time>
      </trkpt>
      <trkpt lat="49.79947" lon="2.39172">
        <ele>43.7</ele>
        <time>2024-07-24T09:30:30Z</time>
      </trkpt>
      <trkpt lat="49.79947" lon="2.39171">
        <ele>43.6</ele>
        <time>2024-07-24T09:30:31Z</time>
      </trkpt>
      <trkpt lat="49.79947" lon="2.39169">
        <ele>43.5</ele>
        <time>2024-07-24T09:30:32Z</time>
      </trkpt>
      <trkpt lat="49.79947" lon="2.39167">
        <ele>43.5</ele>
        <time>2024-07-24T09:30:33Z</time>
      </trkpt>
      <trkpt lat="49.79947" lon="2.39166">
        <ele>43.4</ele>
        <time>2024-07-24T09:30:34Z</time>
      </trkpt>
      <trkpt lat="49.79947" lon="2.39164">
        <ele>43.4</ele>
        <time>2024-07-24T09:30:35Z</time>
      </trkpt>
      <trkpt lat="49.79947" lon="2.39162">
        <ele>43.3</ele>
        <time>2024-07-24T09:30:36Z</time>
      </trkpt>
      <trkpt lat="49.79948" lon="2.39161">
        <ele>43.2</ele>
        <time>2024-07-24T09:30:37Z</time>
      </trkpt>
      <trkpt lat="49.79948" lon="2.39159">
        <ele>43.2</ele>
        <time>2024-07-24T09:30:38Z</time>
      </trkpt>
      <trkpt lat="49.79949" lon="2.39157">
        <ele>43.1</ele>
        <time>2024-07-24T09:30:39Z</time>
      </trkpt>
      <trkpt lat="49.79949" lon="2.39156">
        <ele>43</ele>
        <time>2024-07-24T09:30:40Z</time>
      </trkpt>
      <trkpt lat="49.79949" lon="2.39154">
        <ele>43</ele>
        <time>2024-07-24T09:30:41Z</time>
      </trkpt>
      <trkpt lat="49.79949" lon="2.39152">
        <ele>42.9</ele>
        <time>2024-07-24T09:30:42Z</time>
      </trkpt>
      <trkpt lat="49.7995" lon="2.39151">
        <ele>42.8</ele>
        <time>2024-07-24T09:30:43Z</time>
      </trkpt>
      <trkpt lat="49.7995" lon="2.39149">
        <ele>42.8</ele>
        <time>2024-07-24T09:30:44Z</time>
      </trkpt>
      <trkpt lat="49.7995" lon="2.39147">
        <ele>42.7</ele>
        <time>2024-07-24T09:30:45Z</time>
      </trkpt>
      <trkpt lat="49.79951" lon="2.39146">
        <ele>42.7</ele>
        <time>2024-07-24T09:30:46Z</time>
      </trkpt>
      <trkpt lat="49.79951" lon="2.39144">
        <ele>42.6</ele>
        <time>2024-07-24T09:30:47Z</time>
      </trkpt>
      <trkpt lat="49.79951" lon="2.39143">
        <ele>42.6</ele>
        <time>2024-07-24T09:30:48Z</time>
      </trkpt>
      <trkpt lat="49.79951" lon="2.39142">
        <ele>42.5</ele>
        <time>2024-07-24T09:30:49Z</time>
      </trkpt>
      <trkpt lat="49.79951" lon="2.3914">
        <ele>42.5</ele>
        <time>2024-07-24T09:30:50Z</time>
      </trkpt>
      <trkpt lat="49.79952" lon="2.39139">
        <ele>42.4</ele>
        <time>2024-07-24T09:30:51Z</time>
      </trkpt>
      <trkpt lat="49.79952" lon="2.39137">
        <ele>42.4</ele>
        <time>2024-07-24T09:30:52Z</time>
      </trkpt>
      <trkpt lat="49.79952" lon="2.39136">
        <ele>42.3</ele>
        <time>2024-07-24T09:30:53Z</time>
      </trkpt>
      <trkpt lat="49.79952" lon="2.39134">
        <ele>42.3</ele>
        <time>2024-07-24T09:30:54Z</time>
      </trkpt>
      <trkpt lat="49.79952" lon="2.39133">
        <ele>42.2</ele>
        <time>2024-07-24T09:30:55Z</time>
      </trkpt>
      <trkpt lat="49.79952" lon="2.39132">
        <ele>42.1</ele>
        <time>2024-07-24T09:30:56Z</time>
      </trkpt>
      <trkpt lat="49.79952" lon="2.39131">
        <ele>42</ele>
        <time>2024-07-24T09:30:57Z</time>
      </trkpt>
      <trkpt lat="49.79952" lon="2.39129">
        <ele>41.9</ele>
        <time>2024-07-24T09:30:58Z</time>
      </trkpt>
      <trkpt lat="49.79952" lon="2.39128">
        <ele>41.8</ele>
        <time>2024-07-24T09:30:59Z</time>
      </trkpt>
      <trkpt lat="49.79952" lon="2.39126">
        <ele>41.6</ele>
        <time>2024-07-24T09:31:00Z</time>
      </trkpt>
      <trkpt lat="49.79953" lon="2.39125">
        <ele>41.5</ele>
        <time>2024-07-24T09:31:01Z</time>
      </trkpt>
      <trkpt lat="49.79953" lon="2.39123">
        <ele>41.4</ele>
        <time>2024-07-24T09:31:02Z</time>
      </trkpt>
      <trkpt lat="49.79954" lon="2.39122">
        <ele>41.2</ele>
        <time>2024-07-24T09:31:03Z</time>
      </trkpt>
      <trkpt lat="49.79954" lon="2.39121">
        <ele>41.1</ele>
        <time>2024-07-24T09:31:04Z</time>
      </trkpt>
      <trkpt lat="49.79954" lon="2.3912">
        <ele>41</ele>
        <time>2024-07-24T09:31:05Z</time>
      </trkpt>
      <trkpt lat="49.79955" lon="2.39119">
        <ele>40.9</ele>
        <time>2024-07-24T09:31:06Z</time>
      </trkpt>
      <trkpt lat="49.79956" lon="2.39118">
        <ele>40.8</ele>
        <time>2024-07-24T09:31:07Z</time>
      </trkpt>
      <trkpt lat="49.79957" lon="2.39118">
        <ele>40.7</ele>
        <time>2024-07-24T09:31:08Z</time>
      </trkpt>
      <trkpt lat="49.79958" lon="2.39117">
        <ele>40.6</ele>
        <time>2024-07-24T09:31:09Z</time>
      </trkpt>
      <trkpt lat="49.79959" lon="2.39117">
        <ele>40.5</ele>
        <time>2024-07-24T09:31:10Z</time>
      </trkpt>
      <trkpt lat="49.7996" lon="2.39117">
        <ele>40.4</ele>
        <time>2024-07-24T09:31:11Z</time>
      </trkpt>
      <trkpt lat="49.7996" lon="2.39117">
        <ele>40.4</ele>
        <time>2024-07-24T09:31:12Z</time>
      </trkpt>
      <trkpt lat="49.79961" lon="2.39118">
        <ele>40.4</ele>
        <time>2024-07-24T09:31:13Z</time>
      </trkpt>
      <trkpt lat="49.79962" lon="2.39118">
        <ele>40.3</ele>
        <time>2024-07-24T09:31:14Z</time>
      </trkpt>
      <trkpt lat="49.79963" lon="2.39119">
        <ele>40.3</ele>
        <time>2024-07-24T09:31:15Z</time>
      </trkpt>
      <trkpt lat="49.79963" lon="2.39119">
        <ele>40.3</ele>
        <time>2024-07-24T09:31:16Z</time>
      </trkpt>
      <trkpt lat="49.79964" lon="2.39119">
        <ele>40.3</ele>
        <time>2024-07-24T09:31:17Z</time>
      </trkpt>
      <trkpt lat="49.79965" lon="2.39119">
        <ele>40.2</ele>
        <time>2024-07-24T09:31:18Z</time>
      </trkpt>
      <trkpt lat="49.79965" lon="2.39118">
        <ele>40.2</ele>
        <time>2024-07-24T09:31:19Z</time>
      </trkpt>
      <trkpt lat="49.79966" lon="2.39118">
        <ele>40.2</ele>
        <time>2024-07-24T09:31:20Z</time>
      </trkpt>
      <trkpt lat="49.79966" lon="2.39117">
        <ele>40.2</ele>
        <time>2024-07-24T09:31:21Z</time>
      </trkpt>
      <trkpt lat="49.79966" lon="2.39116">
        <ele>40.2</ele>
        <time>2024-07-24T09:31:22Z</time>
      </trkpt>
      <trkpt lat="49.79966" lon="2.39116">
        <ele>40.2</ele>
        <time>2024-07-24T09:31:23Z</time>
      </trkpt>
      <trkpt lat="49.79967" lon="2.39115">
        <ele>40.2</ele>
        <time>2024-07-24T09:31:24Z</time>
      </trkpt>
      <trkpt lat="49.79967" lon="2.39115">
        <ele>40.1</ele>
        <time>2024-07-24T09:31:25Z</time>
      </trkpt>
      <trkpt lat="49.79968" lon="2.39114">
        <ele>40.1</ele>
        <time>2024-07-24T09:31:26Z</time>
      </trkpt>
      <trkpt lat="49.79968" lon="2.39114">
        <ele>40.1</ele>
        <time>2024-07-24T09:31:27Z</time>
      </trkpt>
      <trkpt lat="49.79969" lon="2.39113">
        <ele>40.1</ele>
        <time>2024-07-24T09:31:28Z</time>
      </trkpt>
      <trkpt lat="49.7997" lon="2.39112">
        <ele>40.1</ele>
        <time>2024-07-24T09:31:29Z</time>
      </trkpt>
      <trkpt lat="49.7997" lon="2.39111">
        <ele>40</ele>
        <time>2024-07-24T09:31:30Z</time>
      </trkpt>
      <trkpt lat="49.79971" lon="2.39111">
        <ele>40</ele>
        <time>2024-07-24T09:31:31Z</time>
      </trkpt>
      <trkpt lat="49.79972" lon="2.3911">
        <ele>40</ele>
        <time>2024-07-24T09:31:32Z</time>
      </trkpt>
      <trkpt lat="49.79973" lon="2.39109">
        <ele>39.9</ele>
        <time>2024-07-24T09:31:33Z</time>
      </trkpt>
      <trkpt lat="49.79974" lon="2.39109">
        <ele>39.9</ele>
        <time>2024-07-24T09:31:34Z</time>
      </trkpt>
      <trkpt lat="49.79975" lon="2.39108">
        <ele>39.9</ele>
        <time>2024-07-24T09:31:35Z</time>
      </trkpt>
      <trkpt lat="49.79977" lon="2.39106">
        <ele>39.8</ele>
        <time>2024-07-24T09:31:36Z</time>
      </trkpt>
      <trkpt lat="49.79978" lon="2.39105">
        <ele>39.7</ele>
        <time>2024-07-24T09:31:37Z</time>
      </trkpt>
      <trkpt lat="49.79979" lon="2.39104">
        <ele>39.7</ele>
        <time>2024-07-24T09:31:38Z</time>
      </trkpt>
      <trkpt lat="49.7998" lon="2.39102">
        <ele>39.6</ele>
        <time>2024-07-24T09:31:39Z</time>
      </trkpt>
      <trkpt lat="49.79981" lon="2.39101">
        <ele>39.6</ele>
        <time>2024-07-24T09:31:40Z</time>
      </trkpt>
      <trkpt lat="49.79981" lon="2.391">
        <ele>39.6</ele>
        <time>2024-07-24T09:31:41Z</time>
      </trkpt>
      <trkpt lat="49.79982" lon="2.39098">
        <ele>39.5</ele>
        <time>2024-07-24T09:31:42Z</time>
      </trkpt>
      <trkpt lat="49.79983" lon="2.39097">
        <ele>39.5</ele>
        <time>2024-07-24T09:31:43Z</time>
      </trkpt>
      <trkpt lat="49.79984" lon="2.39096">
        <ele>39.4</ele>
        <time>2024-07-24T09:31:44Z</time>
      </trkpt>
      <trkpt lat="49.79985" lon="2.39095">
        <ele>39.4</ele>
        <time>2024-07-24T09:31:45Z</time>
      </trkpt>
      <trkpt lat="49.79985" lon="2.39094">
        <ele>39.3</ele>
        <time>2024-07-24T09:31:46Z</time>
      </trkpt>
      <trkpt lat="49.79987" lon="2.39093">
        <ele>39.3</ele>
        <time>2024-07-24T09:31:47Z</time>
      </trkpt>
      <trkpt lat="49.79988" lon="2.39093">
        <ele>39.3</ele>
        <time>2024-07-24T09:31:48Z</time>
      </trkpt>
      <trkpt lat="49.79988" lon="2.39092">
        <ele>39.2</ele>
        <time>2024-07-24T09:31:49Z</time>
      </trkpt>
      <trkpt lat="49.79989" lon="2.39091">
        <ele>39.2</ele>
        <time>2024-07-24T09:31:50Z</time>
      </trkpt>
      <trkpt lat="49.79989" lon="2.3909">
        <ele>39.2</ele>
        <time>2024-07-24T09:31:51Z</time>
      </trkpt>
      <trkpt lat="49.7999" lon="2.3909">
        <ele>39.1</ele>
        <time>2024-07-24T09:31:52Z</time>
      </trkpt>
      <trkpt lat="49.79991" lon="2.39089">
        <ele>39.1</ele>
        <time>2024-07-24T09:31:53Z</time>
      </trkpt>
      <trkpt lat="49.79992" lon="2.39089">
        <ele>39.1</ele>
        <time>2024-07-24T09:31:54Z</time>
      </trkpt>
      <trkpt lat="49.79992" lon="2.39089">
        <ele>39</ele>
        <time>2024-07-24T09:31:55Z</time>
      </trkpt>
      <trkpt lat="49.79993" lon="2.39089">
        <ele>39</ele>
        <time>2024-07-24T09:31:56Z</time>
      </trkpt>
      <trkpt lat="49.79994" lon="2.3909">
        <ele>39</ele>
        <time>2024-07-24T09:31:57Z</time>
      </trkpt>
      <trkpt lat="49.79994" lon="2.3909">
        <ele>38.9</ele>
        <time>2024-07-24T09:31:58Z</time>
      </trkpt>
      <trkpt lat="49.79995" lon="2.3909">
        <ele>38.9</ele>
        <time>2024-07-24T09:31:59Z</time>
      </trkpt>
      <trkpt lat="49.79996" lon="2.39089">
        <ele>38.9</ele>
        <time>2024-07-24T09:32:00Z</time>
      </trkpt>
      <trkpt lat="49.79997" lon="2.39089">
        <ele>38.8</ele>
        <time>2024-07-24T09:32:01Z</time>
      </trkpt>
      <trkpt lat="49.79998" lon="2.39089">
        <ele>38.8</ele>
        <time>2024-07-24T09:32:02Z</time>
      </trkpt>
      <trkpt lat="49.79999" lon="2.39088">
        <ele>38.8</ele>
        <time>2024-07-24T09:32:03Z</time>
      </trkpt>
      <trkpt lat="49.8" lon="2.39088">
        <ele>38.7</ele>
        <time>2024-07-24T09:32:04Z</time>
      </trkpt>
      <trkpt lat="49.80001" lon="2.39087">
        <ele>38.7</ele>
        <time>2024-07-24T09:32:05Z</time>
      </trkpt>
      <trkpt lat="49.80002" lon="2.39086">
        <ele>38.6</ele>
        <time>2024-07-24T09:32:06Z</time>
      </trkpt>
      <trkpt lat="49.80003" lon="2.39085">
        <ele>38.6</ele>
        <time>2024-07-24T09:32:07Z</time>
      </trkpt>
      <trkpt lat="49.80004" lon="2.39085">
        <ele>38.6</ele>
        <time>2024-07-24T09:32:08Z</time>
      </trkpt>
      <trkpt lat="49.80004" lon="2.39084">
        <ele>38.5</ele>
        <time>2024-07-24T09:32:09Z</time>
      </trkpt>
      <trkpt lat="49.80005" lon="2.39083">
        <ele>38.5</ele>
        <time>2024-07-24T09:32:10Z</time>
      </trkpt>
      <trkpt lat="49.80006" lon="2.39082">
        <ele>38.5</ele>
        <time>2024-07-24T09:32:11Z</time>
      </trkpt>
      <trkpt lat="49.80008" lon="2.3908">
        <ele>38.4</ele>
        <time>2024-07-24T09:32:12Z</time>
      </trkpt>
      <trkpt lat="49.80009" lon="2.3908">
        <ele>38.4</ele>
        <time>2024-07-24T09:32:13Z</time>
      </trkpt>
      <trkpt lat="49.8001" lon="2.39079">
        <ele>38.3</ele>
        <time>2024-07-24T09:32:14Z</time>
      </trkpt>
      <trkpt lat="49.80011" lon="2.39078">
        <ele>38.3</ele>
        <time>2024-07-24T09:32:15Z</time>
      </trkpt>
      <trkpt lat="49.80012" lon="2.39077">
        <ele>38.3</ele>
        <time>2024-07-24T09:32:16Z</time>
      </trkpt>
      <trkpt lat="49.80012" lon="2.39076">
        <ele>38.2</ele>
        <time>2024-07-24T09:32:17Z</time>
      </trkpt>
      <trkpt lat="49.80013" lon="2.39075">
        <ele>38.2</ele>
        <time>2024-07-24T09:32:18Z</time>
      </trkpt>
      <trkpt lat="49.80014" lon="2.39074">
        <ele>38.2</ele>
        <time>2024-07-24T09:32:19Z</time>
      </trkpt>
      <trkpt lat="49.80015" lon="2.39074">
        <ele>38.1</ele>
        <time>2024-07-24T09:32:20Z</time>
      </trkpt>
      <trkpt lat="49.80017" lon="2.39072">
        <ele>38.1</ele>
        <time>2024-07-24T09:32:21Z</time>
      </trkpt>
      <trkpt lat="49.80018" lon="2.39071">
        <ele>38</ele>
        <time>2024-07-24T09:32:22Z</time>
      </trkpt>
      <trkpt lat="49.80018" lon="2.3907">
        <ele>38</ele>
        <time>2024-07-24T09:32:23Z</time>
      </trkpt>
      <trkpt lat="49.8002" lon="2.39069">
        <ele>38</ele>
        <time>2024-07-24T09:32:24Z</time>
      </trkpt>
      <trkpt lat="49.80021" lon="2.39068">
        <ele>38</ele>
        <time>2024-07-24T09:32:25Z</time>
      </trkpt>
      <trkpt lat="49.80021" lon="2.39067">
        <ele>37.9</ele>
        <time>2024-07-24T09:32:26Z</time>
      </trkpt>
      <trkpt lat="49.80022" lon="2.39067">
        <ele>37.9</ele>
        <time>2024-07-24T09:32:27Z</time>
      </trkpt>
      <trkpt lat="49.80023" lon="2.39066">
        <ele>37.9</ele>
        <time>2024-07-24T09:32:28Z</time>
      </trkpt>
      <trkpt lat="49.80024" lon="2.39065">
        <ele>37.8</ele>
        <time>2024-07-24T09:32:29Z</time>
      </trkpt>
      <trkpt lat="49.80026" lon="2.39065">
        <ele>37.8</ele>
        <time>2024-07-24T09:32:30Z</time>
      </trkpt>
      <trkpt lat="49.80027" lon="2.39064">
        <ele>37.8</ele>
        <time>2024-07-24T09:32:31Z</time>
      </trkpt>
      <trkpt lat="49.80028" lon="2.39063">
        <ele>37.7</ele>
        <time>2024-07-24T09:32:32Z</time>
      </trkpt>
      <trkpt lat="49.80029" lon="2.39062">
        <ele>37.7</ele>
        <time>2024-07-24T09:32:33Z</time>
      </trkpt>
      <trkpt lat="49.80032" lon="2.39062">
        <ele>37.6</ele>
        <time>2024-07-24T09:32:34Z</time>
      </trkpt>
      <trkpt lat="49.80032" lon="2.39062">
        <ele>37.6</ele>
        <time>2024-07-24T09:32:35Z</time>
      </trkpt>
      <trkpt lat="49.80033" lon="2.39062">
        <ele>37.6</ele>
        <time>2024-07-24T09:32:36Z</time>
      </trkpt>
      <trkpt lat="49.80034" lon="2.39062">
        <ele>37.6</ele>
        <time>2024-07-24T09:32:37Z</time>
      </trkpt>
      <trkpt lat="49.80035" lon="2.39062">
        <ele>37.5</ele>
        <time>2024-07-24T09:32:38Z</time>
      </trkpt>
      <trkpt lat="49.80036" lon="2.39061">
        <ele>37.5</ele>
        <time>2024-07-24T09:32:39Z</time>
      </trkpt>
      <trkpt lat="49.80038" lon="2.3906">
        <ele>37.5</ele>
        <time>2024-07-24T09:32:40Z</time>
      </trkpt>
      <trkpt lat="49.80039" lon="2.3906">
        <ele>37.5</ele>
        <time>2024-07-24T09:32:41Z</time>
      </trkpt>
      <trkpt lat="49.8004" lon="2.3906">
        <ele>37.5</ele>
        <time>2024-07-24T09:32:42Z</time>
      </trkpt>
      <trkpt lat="49.80041" lon="2.39061">
        <ele>37.4</ele>
        <time>2024-07-24T09:32:43Z</time>
      </trkpt>
      <trkpt lat="49.80042" lon="2.39061">
        <ele>37.4</ele>
        <time>2024-07-24T09:32:44Z</time>
      </trkpt>
      <trkpt lat="49.80043" lon="2.39062">
        <ele>37.4</ele>
        <time>2024-07-24T09:32:45Z</time>
      </trkpt>
      <trkpt lat="49.80044" lon="2.39062">
        <ele>37.4</ele>
        <time>2024-07-24T09:32:46Z</time>
      </trkpt>
      <trkpt lat="49.80045" lon="2.39062">
        <ele>37.4</ele>
        <time>2024-07-24T09:32:47Z</time>
      </trkpt>
      <trkpt lat="49.80046" lon="2.39062">
        <ele>37.3</ele>
        <time>2024-07-24T09:32:48Z</time>
      </trkpt>
      <trkpt lat="49.80047" lon="2.39062">
        <ele>37.3</ele>
        <time>2024-07-24T09:32:49Z</time>
      </trkpt>
      <trkpt lat="49.80048" lon="2.39062">
        <ele>37.3</ele>
        <time>2024-07-24T09:32:50Z</time>
      </trkpt>
      <trkpt lat="49.80049" lon="2.39062">
        <ele>37.3</ele>
        <time>2024-07-24T09:32:51Z</time>
      </trkpt>
      <trkpt lat="49.8005" lon="2.39062">
        <ele>37.3</ele>
        <time>2024-07-24T09:32:52Z</time>
      </trkpt>
      <trkpt lat="49.80051" lon="2.39062">
        <ele>37.3</ele>
        <time>2024-07-24T09:32:53Z</time>
      </trkpt>
      <trkpt lat="49.80052" lon="2.39062">
        <ele>37.3</ele>
        <time>2024-07-24T09:32:54Z</time>
      </trkpt>
      <trkpt lat="49.80053" lon="2.39062">
        <ele>37.3</ele>
        <time>2024-07-24T09:32:55Z</time>
      </trkpt>
      <trkpt lat="49.80053" lon="2.39062">
        <ele>37.3</ele>
        <time>2024-07-24T09:32:56Z</time>
      </trkpt>
      <trkpt lat="49.80055" lon="2.39061">
        <ele>37.2</ele>
        <time>2024-07-24T09:32:57Z</time>
      </trkpt>
      <trkpt lat="49.80056" lon="2.39061">
        <ele>37.2</ele>
        <time>2024-07-24T09:32:58Z</time>
      </trkpt>
      <trkpt lat="49.80057" lon="2.39061">
        <ele>37.2</ele>
        <time>2024-07-24T09:32:59Z</time>
      </trkpt>
      <trkpt lat="49.80058" lon="2.3906">
        <ele>37.2</ele>
        <time>2024-07-24T09:33:00Z</time>
      </trkpt>
      <trkpt lat="49.80059" lon="2.3906">
        <ele>37.2</ele>
        <time>2024-07-24T09:33:01Z</time>
      </trkpt>
      <trkpt lat="49.8006" lon="2.39059">
        <ele>37.2</ele>
        <time>2024-07-24T09:33:02Z</time>
      </trkpt>
      <trkpt lat="49.80061" lon="2.39059">
        <ele>37.2</ele>
        <time>2024-07-24T09:33:03Z</time>
      </trkpt>
      <trkpt lat="49.80062" lon="2.39059">
        <ele>37.2</ele>
        <time>2024-07-24T09:33:04Z</time>
      </trkpt>
      <trkpt lat="49.80063" lon="2.39058">
        <ele>37.2</ele>
        <time>2024-07-24T09:33:05Z</time>
      </trkpt>
      <trkpt lat="49.80064" lon="2.39058">
        <ele>37.2</ele>
        <time>2024-07-24T09:33:06Z</time>
      </trkpt>
      <trkpt lat="49.80065" lon="2.39057">
        <ele>37.1</ele>
        <time>2024-07-24T09:33:07Z</time>
      </trkpt>
      <trkpt lat="49.80066" lon="2.39056">
        <ele>37.1</ele>
        <time>2024-07-24T09:33:08Z</time>
      </trkpt>
      <trkpt lat="49.80066" lon="2.39056">
        <ele>37.1</ele>
        <time>2024-07-24T09:33:09Z</time>
      </trkpt>
      <trkpt lat="49.80067" lon="2.39055">
        <ele>37.1</ele>
        <time>2024-07-24T09:33:10Z</time>
      </trkpt>
      <trkpt lat="49.80068" lon="2.39055">
        <ele>37.1</ele>
        <time>2024-07-24T09:33:11Z</time>
      </trkpt>
      <trkpt lat="49.80069" lon="2.39054">
        <ele>37.1</ele>
        <time>2024-07-24T09:33:12Z</time>
      </trkpt>
      <trkpt lat="49.8007" lon="2.39053">
        <ele>37.1</ele>
        <time>2024-07-24T09:33:13Z</time>
      </trkpt>
      <trkpt lat="49.80071" lon="2.39052">
        <ele>37.1</ele>
        <time>2024-07-24T09:33:14Z</time>
      </trkpt>
      <trkpt lat="49.80071" lon="2.39051">
        <ele>37.1</ele>
        <time>2024-07-24T09:33:15Z</time>
      </trkpt>
      <trkpt lat="49.80072" lon="2.3905">
        <ele>37.1</ele>
        <time>2024-07-24T09:33:16Z</time>
      </trkpt>
      <trkpt lat="49.80073" lon="2.39049">
        <ele>37.1</ele>
        <time>2024-07-24T09:33:17Z</time>
      </trkpt>
      <trkpt lat="49.80074" lon="2.39049">
        <ele>37.1</ele>
        <time>2024-07-24T09:33:18Z</time>
      </trkpt>
      <trkpt lat="49.80075" lon="2.39048">
        <ele>37.1</ele>
        <time>2024-07-24T09:33:19Z</time>
      </trkpt>
      <trkpt lat="49.80076" lon="2.39047">
        <ele>37.1</ele>
        <time>2024-07-24T09:33:20Z</time>
      </trkpt>
      <trkpt lat="49.80077" lon="2.39046">
        <ele>37.1</ele>
        <time>2024-07-24T09:33:21Z</time>
      </trkpt>
      <trkpt lat="49.80078" lon="2.39044">
        <ele>37.1</ele>
        <time>2024-07-24T09:33:22Z</time>
      </trkpt>
      <trkpt lat="49.80078" lon="2.39043">
        <ele>37.1</ele>
        <time>2024-07-24T09:33:23Z</time>
      </trkpt>
      <trkpt lat="49.80079" lon="2.39042">
        <ele>37.1</ele>
        <time>2024-07-24T09:33:24Z</time>
      </trkpt>
      <trkpt lat="49.80079" lon="2.39041">
        <ele>37.1</ele>
        <time>2024-07-24T09:33:25Z</time>
      </trkpt>
      <trkpt lat="49.8008" lon="2.39039">
        <ele>37.1</ele>
        <time>2024-07-24T09:33:26Z</time>
      </trkpt>
      <trkpt lat="49.80081" lon="2.39039">
        <ele>37.1</ele>
        <time>2024-07-24T09:33:27Z</time>
      </trkpt>
      <trkpt lat="49.80081" lon="2.39038">
        <ele>37.1</ele>
        <time>2024-07-24T09:33:28Z</time>
      </trkpt>
      <trkpt lat="49.80082" lon="2.39037">
        <ele>37.1</ele>
        <time>2024-07-24T09:33:29Z</time>
      </trkpt>
      <trkpt lat="49.80083" lon="2.39036">
        <ele>37.1</ele>
        <time>2024-07-24T09:33:30Z</time>
      </trkpt>
      <trkpt lat="49.80083" lon="2.39035">
        <ele>37.1</ele>
        <time>2024-07-24T09:33:31Z</time>
      </trkpt>
      <trkpt lat="49.80084" lon="2.39034">
        <ele>37.1</ele>
        <time>2024-07-24T09:33:32Z</time>
      </trkpt>
      <trkpt lat="49.80085" lon="2.39033">
        <ele>37.1</ele>
        <time>2024-07-24T09:33:33Z</time>
      </trkpt>
      <trkpt lat="49.80085" lon="2.39032">
        <ele>37.1</ele>
        <time>2024-07-24T09:33:34Z</time>
      </trkpt>
      <trkpt lat="49.80086" lon="2.3903">
        <ele>37.1</ele>
        <time>2024-07-24T09:33:35Z</time>
      </trkpt>
      <trkpt lat="49.80086" lon="2.39029">
        <ele>37.1</ele>
        <time>2024-07-24T09:33:36Z</time>
      </trkpt>
      <trkpt lat="49.80086" lon="2.39028">
        <ele>37.1</ele>
        <time>2024-07-24T09:33:37Z</time>
      </trkpt>
      <trkpt lat="49.80086" lon="2.39027">
        <ele>37.1</ele>
        <time>2024-07-24T09:33:38Z</time>
      </trkpt>
      <trkpt lat="49.80087" lon="2.39026">
        <ele>37.1</ele>
        <time>2024-07-24T09:33:39Z</time>
      </trkpt>
      <trkpt lat="49.80087" lon="2.39024">
        <ele>37.1</ele>
        <time>2024-07-24T09:33:40Z</time>
      </trkpt>
      <trkpt lat="49.80087" lon="2.39023">
        <ele>37.1</ele>
        <time>2024-07-24T09:33:41Z</time>
      </trkpt>
      <trkpt lat="49.80088" lon="2.39021">
        <ele>37.1</ele>
        <time>2024-07-24T09:33:42Z</time>
      </trkpt>
      <trkpt lat="49.80088" lon="2.39019">
        <ele>37.1</ele>
        <time>2024-07-24T09:33:43Z</time>
      </trkpt>
      <trkpt lat="49.80089" lon="2.39018">
        <ele>37.1</ele>
        <time>2024-07-24T09:33:44Z</time>
      </trkpt>
      <trkpt lat="49.80089" lon="2.39016">
        <ele>37.1</ele>
        <time>2024-07-24T09:33:45Z</time>
      </trkpt>
      <trkpt lat="49.80089" lon="2.39015">
        <ele>37.1</ele>
        <time>2024-07-24T09:33:46Z</time>
      </trkpt>
      <trkpt lat="49.8009" lon="2.39013">
        <ele>37.1</ele>
        <time>2024-07-24T09:33:47Z</time>
      </trkpt>
      <trkpt lat="49.8009" lon="2.39011">
        <ele>37.1</ele>
        <time>2024-07-24T09:33:48Z</time>
      </trkpt>
      <trkpt lat="49.80091" lon="2.3901">
        <ele>37.1</ele>
        <time>2024-07-24T09:33:49Z</time>
      </trkpt>
      <trkpt lat="49.80091" lon="2.39008">
        <ele>37.1</ele>
        <time>2024-07-24T09:33:50Z</time>
      </trkpt>
      <trkpt lat="49.80091" lon="2.39006">
        <ele>37.2</ele>
        <time>2024-07-24T09:33:51Z</time>
      </trkpt>
      <trkpt lat="49.80092" lon="2.39004">
        <ele>37.2</ele>
        <time>2024-07-24T09:33:52Z</time>
      </trkpt>
      <trkpt lat="49.80092" lon="2.39003">
        <ele>37.2</ele>
        <time>2024-07-24T09:33:53Z</time>
      </trkpt>
      <trkpt lat="49.80093" lon="2.39001">
        <ele>37.2</ele>
        <time>2024-07-24T09:33:54Z</time>
      </trkpt>
      <trkpt lat="49.80093" lon="2.38999">
        <ele>37.2</ele>
        <time>2024-07-24T09:33:55Z</time>
      </trkpt>
      <trkpt lat="49.80093" lon="2.38997">
        <ele>37.2</ele>
        <time>2024-07-24T09:33:56Z</time>
      </trkpt>
      <trkpt lat="49.80093" lon="2.38996">
        <ele>37.2</ele>
        <time>2024-07-24T09:33:57Z</time>
      </trkpt>
      <trkpt lat="49.80093" lon="2.38994">
        <ele>37.2</ele>
        <time>2024-07-24T09:33:58Z</time>
      </trkpt>
      <trkpt lat="49.80094" lon="2.3899">
        <ele>37.2</ele>
        <time>2024-07-24T09:33:59Z</time>
      </trkpt>
      <trkpt lat="49.80094" lon="2.38989">
        <ele>37.2</ele>
        <time>2024-07-24T09:34:00Z</time>
      </trkpt>
      <trkpt lat="49.80094" lon="2.38988">
        <ele>37.3</ele>
        <time>2024-07-24T09:34:01Z</time>
      </trkpt>
      <trkpt lat="49.80094" lon="2.38986">
        <ele>37.3</ele>
        <time>2024-07-24T09:34:02Z</time>
      </trkpt>
      <trkpt lat="49.80094" lon="2.38985">
        <ele>37.3</ele>
        <time>2024-07-24T09:34:03Z</time>
      </trkpt>
      <trkpt lat="49.80095" lon="2.38983">
        <ele>37.3</ele>
        <time>2024-07-24T09:34:04Z</time>
      </trkpt>
      <trkpt lat="49.80095" lon="2.38982">
        <ele>37.3</ele>
        <time>2024-07-24T09:34:05Z</time>
      </trkpt>
      <trkpt lat="49.80095" lon="2.3898">
        <ele>37.3</ele>
        <time>2024-07-24T09:34:06Z</time>
      </trkpt>
      <trkpt lat="49.80095" lon="2.38979">
        <ele>37.3</ele>
        <time>2024-07-24T09:34:07Z</time>
      </trkpt>
      <trkpt lat="49.80096" lon="2.38977">
        <ele>37.3</ele>
        <time>2024-07-24T09:34:08Z</time>
      </trkpt>
      <trkpt lat="49.80096" lon="2.38975">
        <ele>37.3</ele>
        <time>2024-07-24T09:34:09Z</time>
      </trkpt>
      <trkpt lat="49.80097" lon="2.38974">
        <ele>37.4</ele>
        <time>2024-07-24T09:34:10Z</time>
      </trkpt>
      <trkpt lat="49.80097" lon="2.38972">
        <ele>37.4</ele>
        <time>2024-07-24T09:34:11Z</time>
      </trkpt>
      <trkpt lat="49.80097" lon="2.38971">
        <ele>37.4</ele>
        <time>2024-07-24T09:34:12Z</time>
      </trkpt>
      <trkpt lat="49.80097" lon="2.38969">
        <ele>37.4</ele>
        <time>2024-07-24T09:34:13Z</time>
      </trkpt>
      <trkpt lat="49.80097" lon="2.38968">
        <ele>37.4</ele>
        <time>2024-07-24T09:34:14Z</time>
      </trkpt>
      <trkpt lat="49.80097" lon="2.38966">
        <ele>37.4</ele>
        <time>2024-07-24T09:34:15Z</time>
      </trkpt>
      <trkpt lat="49.80098" lon="2.38964">
        <ele>37.4</ele>
        <time>2024-07-24T09:34:16Z</time>
      </trkpt>
      <trkpt lat="49.80098" lon="2.38963">
        <ele>37.4</ele>
        <time>2024-07-24T09:34:17Z</time>
      </trkpt>
      <trkpt lat="49.80098" lon="2.38961">
        <ele>37.4</ele>
        <time>2024-07-24T09:34:18Z</time>
      </trkpt>
      <trkpt lat="49.80097" lon="2.3896">
        <ele>37.4</ele>
        <time>2024-07-24T09:34:19Z</time>
      </trkpt>
      <trkpt lat="49.80097" lon="2.38958">
        <ele>37.4</ele>
        <time>2024-07-24T09:34:20Z</time>
      </trkpt>
      <trkpt lat="49.80096" lon="2.38957">
        <ele>37.4</ele>
        <time>2024-07-24T09:34:21Z</time>
      </trkpt>
      <trkpt lat="49.80095" lon="2.38955">
        <ele>37.4</ele>
        <time>2024-07-24T09:34:22Z</time>
      </trkpt>
      <trkpt lat="49.80095" lon="2.38954">
        <ele>37.4</ele>
        <time>2024-07-24T09:34:23Z</time>
      </trkpt>
      <trkpt lat="49.80094" lon="2.38952">
        <ele>37.4</ele>
        <time>2024-07-24T09:34:24Z</time>
      </trkpt>
      <trkpt lat="49.80093" lon="2.38951">
        <ele>37.4</ele>
        <time>2024-07-24T09:34:25Z</time>
      </trkpt>
      <trkpt lat="49.80093" lon="2.3895">
        <ele>37.4</ele>
        <time>2024-07-24T09:34:26Z</time>
      </trkpt>
      <trkpt lat="49.80092" lon="2.38949">
        <ele>37.4</ele>
        <time>2024-07-24T09:34:27Z</time>
      </trkpt>
      <trkpt lat="49.80091" lon="2.38947">
        <ele>37.4</ele>
        <time>2024-07-24T09:34:28Z</time>
      </trkpt>
      <trkpt lat="49.80091" lon="2.38946">
        <ele>37.4</ele>
        <time>2024-07-24T09:34:29Z</time>
      </trkpt>
      <trkpt lat="49.8009" lon="2.38945">
        <ele>37.4</ele>
        <time>2024-07-24T09:34:30Z</time>
      </trkpt>
      <trkpt lat="49.8009" lon="2.38943">
        <ele>37.4</ele>
        <time>2024-07-24T09:34:31Z</time>
      </trkpt>
      <trkpt lat="49.80089" lon="2.38942">
        <ele>37.4</ele>
        <time>2024-07-24T09:34:32Z</time>
      </trkpt>
      <trkpt lat="49.80088" lon="2.38941">
        <ele>37.4</ele>
        <time>2024-07-24T09:34:33Z</time>
      </trkpt>
      <trkpt lat="49.80088" lon="2.3894">
        <ele>37.4</ele>
        <time>2024-07-24T09:34:34Z</time>
      </trkpt>
      <trkpt lat="49.80087" lon="2.38938">
        <ele>37.4</ele>
        <time>2024-07-24T09:34:35Z</time>
      </trkpt>
      <trkpt lat="49.80087" lon="2.38937">
        <ele>37.4</ele>
        <time>2024-07-24T09:34:36Z</time>
      </trkpt>
      <trkpt lat="49.80086" lon="2.38936">
        <ele>37.4</ele>
        <time>2024-07-24T09:34:37Z</time>
      </trkpt>
      <trkpt lat="49.80086" lon="2.38935">
        <ele>37.4</ele>
        <time>2024-07-24T09:34:38Z</time>
      </trkpt>
      <trkpt lat="49.80085" lon="2.38934">
        <ele>37.4</ele>
        <time>2024-07-24T09:34:39Z</time>
      </trkpt>
      <trkpt lat="49.80085" lon="2.38932">
        <ele>37.4</ele>
        <time>2024-07-24T09:34:40Z</time>
      </trkpt>
      <trkpt lat="49.80085" lon="2.38931">
        <ele>37.4</ele>
        <time>2024-07-24T09:34:41Z</time>
      </trkpt>
      <trkpt lat="49.80085" lon="2.3893">
        <ele>37.4</ele>
        <time>2024-07-24T09:34:42Z</time>
      </trkpt>
      <trkpt lat="49.80084" lon="2.38929">
        <ele>37.4</ele>
        <time>2024-07-24T09:34:43Z</time>
      </trkpt>
      <trkpt lat="49.80083" lon="2.38927">
        <ele>37.5</ele>
        <time>2024-07-24T09:34:44Z</time>
      </trkpt>
      <trkpt lat="49.80083" lon="2.38926">
        <ele>37.5</ele>
        <time>2024-07-24T09:34:45Z</time>
      </trkpt>
      <trkpt lat="49.80082" lon="2.38925">
        <ele>37.5</ele>
        <time>2024-07-24T09:34:46Z</time>
      </trkpt>
      <trkpt lat="49.80082" lon="2.38924">
        <ele>37.5</ele>
        <time>2024-07-24T09:34:47Z</time>
      </trkpt>
      <trkpt lat="49.80081" lon="2.38922">
        <ele>37.5</ele>
        <time>2024-07-24T09:34:48Z</time>
      </trkpt>
      <trkpt lat="49.8008" lon="2.38921">
        <ele>37.5</ele>
        <time>2024-07-24T09:34:49Z</time>
      </trkpt>
      <trkpt lat="49.8008" lon="2.3892">
        <ele>37.5</ele>
        <time>2024-07-24T09:34:50Z</time>
      </trkpt>
      <trkpt lat="49.80079" lon="2.38919">
        <ele>37.5</ele>
        <time>2024-07-24T09:34:51Z</time>
      </trkpt>
      <trkpt lat="49.80078" lon="2.38918">
        <ele>37.5</ele>
        <time>2024-07-24T09:34:52Z</time>
      </trkpt>
      <trkpt lat="49.80077" lon="2.38917">
        <ele>37.5</ele>
        <time>2024-07-24T09:34:53Z</time>
      </trkpt>
      <trkpt lat="49.80076" lon="2.38916">
        <ele>37.5</ele>
        <time>2024-07-24T09:34:54Z</time>
      </trkpt>
      <trkpt lat="49.80075" lon="2.38915">
        <ele>37.5</ele>
        <time>2024-07-24T09:34:55Z</time>
      </trkpt>
      <trkpt lat="49.80075" lon="2.38914">
        <ele>37.5</ele>
        <time>2024-07-24T09:34:56Z</time>
      </trkpt>
      <trkpt lat="49.80074" lon="2.38913">
        <ele>37.5</ele>
        <time>2024-07-24T09:34:57Z</time>
      </trkpt>
      <trkpt lat="49.80073" lon="2.38913">
        <ele>37.5</ele>
        <time>2024-07-24T09:34:58Z</time>
      </trkpt>
      <trkpt lat="49.80073" lon="2.38911">
        <ele>37.5</ele>
        <time>2024-07-24T09:34:59Z</time>
      </trkpt>
      <trkpt lat="49.80072" lon="2.3891">
        <ele>37.5</ele>
        <time>2024-07-24T09:35:00Z</time>
      </trkpt>
      <trkpt lat="49.80071" lon="2.38909">
        <ele>37.5</ele>
        <time>2024-07-24T09:35:01Z</time>
      </trkpt>
      <trkpt lat="49.8007" lon="2.38907">
        <ele>37.5</ele>
        <time>2024-07-24T09:35:02Z</time>
      </trkpt>
      <trkpt lat="49.80069" lon="2.38906">
        <ele>37.5</ele>
        <time>2024-07-24T09:35:03Z</time>
      </trkpt>
      <trkpt lat="49.80068" lon="2.38905">
        <ele>37.5</ele>
        <time>2024-07-24T09:35:04Z</time>
      </trkpt>
      <trkpt lat="49.80068" lon="2.38904">
        <ele>37.4</ele>
        <time>2024-07-24T09:35:05Z</time>
      </trkpt>
      <trkpt lat="49.80067" lon="2.38903">
        <ele>37.4</ele>
        <time>2024-07-24T09:35:06Z</time>
      </trkpt>
      <trkpt lat="49.80066" lon="2.38902">
        <ele>37.4</ele>
        <time>2024-07-24T09:35:07Z</time>
      </trkpt>
      <trkpt lat="49.80065" lon="2.389">
        <ele>37.4</ele>
        <time>2024-07-24T09:35:08Z</time>
      </trkpt>
      <trkpt lat="49.80064" lon="2.38899">
        <ele>37.4</ele>
        <time>2024-07-24T09:35:09Z</time>
      </trkpt>
      <trkpt lat="49.80064" lon="2.38898">
        <ele>37.4</ele>
        <time>2024-07-24T09:35:10Z</time>
      </trkpt>
      <trkpt lat="49.80063" lon="2.38897">
        <ele>37.4</ele>
        <time>2024-07-24T09:35:11Z</time>
      </trkpt>
      <trkpt lat="49.80062" lon="2.38896">
        <ele>37.4</ele>
        <time>2024-07-24T09:35:12Z</time>
      </trkpt>
      <trkpt lat="49.80061" lon="2.38895">
        <ele>37.4</ele>
        <time>2024-07-24T09:35:13Z</time>
      </trkpt>
      <trkpt lat="49.8006" lon="2.38894">
        <ele>37.4</ele>
        <time>2024-07-24T09:35:14Z</time>
      </trkpt>
      <trkpt lat="49.8006" lon="2.38893">
        <ele>37.4</ele>
        <time>2024-07-24T09:35:15Z</time>
      </trkpt>
      <trkpt lat="49.80059" lon="2.38892">
        <ele>37.4</ele>
        <time>2024-07-24T09:35:16Z</time>
      </trkpt>
      <trkpt lat="49.80058" lon="2.3889">
        <ele>37.4</ele>
        <time>2024-07-24T09:35:17Z</time>
      </trkpt>
      <trkpt lat="49.80058" lon="2.38889">
        <ele>37.4</ele>
        <time>2024-07-24T09:35:18Z</time>
      </trkpt>
      <trkpt lat="49.80057" lon="2.38887">
        <ele>37.3</ele>
        <time>2024-07-24T09:35:19Z</time>
      </trkpt>
      <trkpt lat="49.80056" lon="2.38887">
        <ele>37.3</ele>
        <time>2024-07-24T09:35:20Z</time>
      </trkpt>
      <trkpt lat="49.80056" lon="2.38886">
        <ele>37.3</ele>
        <time>2024-07-24T09:35:21Z</time>
      </trkpt>
      <trkpt lat="49.80055" lon="2.38885">
        <ele>37.3</ele>
        <time>2024-07-24T09:35:22Z</time>
      </trkpt>
      <trkpt lat="49.80054" lon="2.38884">
        <ele>37.3</ele>
        <time>2024-07-24T09:35:23Z</time>
      </trkpt>
      <trkpt lat="49.80053" lon="2.38884">
        <ele>37.3</ele>
        <time>2024-07-24T09:35:24Z</time>
      </trkpt>
      <trkpt lat="49.80052" lon="2.38883">
        <ele>37.3</ele>
        <time>2024-07-24T09:35:25Z</time>
      </trkpt>
      <trkpt lat="49.80051" lon="2.38882">
        <ele>37.3</ele>
        <time>2024-07-24T09:35:26Z</time>
      </trkpt>
      <trkpt lat="49.8005" lon="2.38881">
        <ele>37.3</ele>
        <time>2024-07-24T09:35:27Z</time>
      </trkpt>
      <trkpt lat="49.8005" lon="2.3888">
        <ele>37.3</ele>
        <time>2024-07-24T09:35:28Z</time>
      </trkpt>
      <trkpt lat="49.80048" lon="2.38879">
        <ele>37.3</ele>
        <time>2024-07-24T09:35:29Z</time>
      </trkpt>
      <trkpt lat="49.80048" lon="2.38878">
        <ele>37.3</ele>
        <time>2024-07-24T09:35:30Z</time>
      </trkpt>
      <trkpt lat="49.80047" lon="2.38876">
        <ele>37.3</ele>
        <time>2024-07-24T09:35:31Z</time>
      </trkpt>
      <trkpt lat="49.80046" lon="2.38875">
        <ele>37.3</ele>
        <time>2024-07-24T09:35:32Z</time>
      </trkpt>
      <trkpt lat="49.80045" lon="2.38874">
        <ele>37.3</ele>
        <time>2024-07-24T09:35:33Z</time>
      </trkpt>
      <trkpt lat="49.80044" lon="2.38873">
        <ele>37.3</ele>
        <time>2024-07-24T09:35:34Z</time>
      </trkpt>
      <trkpt lat="49.80044" lon="2.38871">
        <ele>37.3</ele>
        <time>2024-07-24T09:35:35Z</time>
      </trkpt>
      <trkpt lat="49.80043" lon="2.3887">
        <ele>37.3</ele>
        <time>2024-07-24T09:35:36Z</time>
      </trkpt>
      <trkpt lat="49.80042" lon="2.38869">
        <ele>37.2</ele>
        <time>2024-07-24T09:35:37Z</time>
      </trkpt>
      <trkpt lat="49.80041" lon="2.38868">
        <ele>37.2</ele>
        <time>2024-07-24T09:35:38Z</time>
      </trkpt>
      <trkpt lat="49.8004" lon="2.38866">
        <ele>37.2</ele>
        <time>2024-07-24T09:35:39Z</time>
      </trkpt>
      <trkpt lat="49.80039" lon="2.38865">
        <ele>37.2</ele>
        <time>2024-07-24T09:35:40Z</time>
      </trkpt>
      <trkpt lat="49.80038" lon="2.38864">
        <ele>37.2</ele>
        <time>2024-07-24T09:35:41Z</time>
      </trkpt>
      <trkpt lat="49.80038" lon="2.38863">
        <ele>37.2</ele>
        <time>2024-07-24T09:35:42Z</time>
      </trkpt>
      <trkpt lat="49.80037" lon="2.38862">
        <ele>37.2</ele>
        <time>2024-07-24T09:35:43Z</time>
      </trkpt>
      <trkpt lat="49.80036" lon="2.38861">
        <ele>37.2</ele>
        <time>2024-07-24T09:35:44Z</time>
      </trkpt>
      <trkpt lat="49.80035" lon="2.3886">
        <ele>37.2</ele>
        <time>2024-07-24T09:35:45Z</time>
      </trkpt>
      <trkpt lat="49.80034" lon="2.38859">
        <ele>37.2</ele>
        <time>2024-07-24T09:35:46Z</time>
      </trkpt>
      <trkpt lat="49.80034" lon="2.38858">
        <ele>37.2</ele>
        <time>2024-07-24T09:35:47Z</time>
      </trkpt>
      <trkpt lat="49.80033" lon="2.38857">
        <ele>37.2</ele>
        <time>2024-07-24T09:35:48Z</time>
      </trkpt>
      <trkpt lat="49.80032" lon="2.38856">
        <ele>37.2</ele>
        <time>2024-07-24T09:35:49Z</time>
      </trkpt>
      <trkpt lat="49.80032" lon="2.38855">
        <ele>37.2</ele>
        <time>2024-07-24T09:35:50Z</time>
      </trkpt>
      <trkpt lat="49.80031" lon="2.38854">
        <ele>37.2</ele>
        <time>2024-07-24T09:35:51Z</time>
      </trkpt>
      <trkpt lat="49.8003" lon="2.38852">
        <ele>37.2</ele>
        <time>2024-07-24T09:35:52Z</time>
      </trkpt>
      <trkpt lat="49.80029" lon="2.38851">
        <ele>37.2</ele>
        <time>2024-07-24T09:35:53Z</time>
      </trkpt>
      <trkpt lat="49.80029" lon="2.38851">
        <ele>37.2</ele>
        <time>2024-07-24T09:35:54Z</time>
      </trkpt>
      <trkpt lat="49.80028" lon="2.3885">
        <ele>37.2</ele>
        <time>2024-07-24T09:35:55Z</time>
      </trkpt>
      <trkpt lat="49.80028" lon="2.38849">
        <ele>37.2</ele>
        <time>2024-07-24T09:35:56Z</time>
      </trkpt>
      <trkpt lat="49.80027" lon="2.38848">
        <ele>37.2</ele>
        <time>2024-07-24T09:35:57Z</time>
      </trkpt>
      <trkpt lat="49.80026" lon="2.38847">
        <ele>37.2</ele>
        <time>2024-07-24T09:35:58Z</time>
      </trkpt>
      <trkpt lat="49.80026" lon="2.38846">
        <ele>37.2</ele>
        <time>2024-07-24T09:35:59Z</time>
      </trkpt>
      <trkpt lat="49.80025" lon="2.38845">
        <ele>37.2</ele>
        <time>2024-07-24T09:36:00Z</time>
      </trkpt>
      <trkpt lat="49.80025" lon="2.38844">
        <ele>37.2</ele>
        <time>2024-07-24T09:36:01Z</time>
      </trkpt>
      <trkpt lat="49.80024" lon="2.38843">
        <ele>37.2</ele>
        <time>2024-07-24T09:36:02Z</time>
      </trkpt>
      <trkpt lat="49.80023" lon="2.38841">
        <ele>37.2</ele>
        <time>2024-07-24T09:36:03Z</time>
      </trkpt>
      <trkpt lat="49.80023" lon="2.3884">
        <ele>37.2</ele>
        <time>2024-07-24T09:36:04Z</time>
      </trkpt>
      <trkpt lat="49.80023" lon="2.38839">
        <ele>37.2</ele>
        <time>2024-07-24T09:36:05Z</time>
      </trkpt>
      <trkpt lat="49.80022" lon="2.38838">
        <ele>37.2</ele>
        <time>2024-07-24T09:36:06Z</time>
      </trkpt>
      <trkpt lat="49.80022" lon="2.38837">
        <ele>37.2</ele>
        <time>2024-07-24T09:36:07Z</time>
      </trkpt>
      <trkpt lat="49.80022" lon="2.38836">
        <ele>37.2</ele>
        <time>2024-07-24T09:36:08Z</time>
      </trkpt>
      <trkpt lat="49.80021" lon="2.38835">
        <ele>37.2</ele>
        <time>2024-07-24T09:36:09Z</time>
      </trkpt>
      <trkpt lat="49.80021" lon="2.38834">
        <ele>37.2</ele>
        <time>2024-07-24T09:36:10Z</time>
      </trkpt>
      <trkpt lat="49.8002" lon="2.38832">
        <ele>37.2</ele>
        <time>2024-07-24T09:36:11Z</time>
      </trkpt>
      <trkpt lat="49.8002" lon="2.38831">
        <ele>37.2</ele>
        <time>2024-07-24T09:36:12Z</time>
      </trkpt>
      <trkpt lat="49.8002" lon="2.3883">
        <ele>37.2</ele>
        <time>2024-07-24T09:36:13Z</time>
      </trkpt>
      <trkpt lat="49.80019" lon="2.38828">
        <ele>37.2</ele>
        <time>2024-07-24T09:36:14Z</time>
      </trkpt>
      <trkpt lat="49.80018" lon="2.38826">
        <ele>37.2</ele>
        <time>2024-07-24T09:36:15Z</time>
      </trkpt>
      <trkpt lat="49.80017" lon="2.38825">
        <ele>37.1</ele>
        <time>2024-07-24T09:36:16Z</time>
      </trkpt>
      <trkpt lat="49.80017" lon="2.38824">
        <ele>37.1</ele>
        <time>2024-07-24T09:36:17Z</time>
      </trkpt>
      <trkpt lat="49.80016" lon="2.38824">
        <ele>37.1</ele>
        <time>2024-07-24T09:36:18Z</time>
      </trkpt>
      <trkpt lat="49.80015" lon="2.38823">
        <ele>37.1</ele>
        <time>2024-07-24T09:36:19Z</time>
      </trkpt>
      <trkpt lat="49.80014" lon="2.38822">
        <ele>37.1</ele>
        <time>2024-07-24T09:36:20Z</time>
      </trkpt>
      <trkpt lat="49.80014" lon="2.38821">
        <ele>37.1</ele>
        <time>2024-07-24T09:36:21Z</time>
      </trkpt>
      <trkpt lat="49.80013" lon="2.3882">
        <ele>37.1</ele>
        <time>2024-07-24T09:36:22Z</time>
      </trkpt>
      <trkpt lat="49.80012" lon="2.38818">
        <ele>37.1</ele>
        <time>2024-07-24T09:36:23Z</time>
      </trkpt>
      <trkpt lat="49.80012" lon="2.38817">
        <ele>37.1</ele>
        <time>2024-07-24T09:36:24Z</time>
      </trkpt>
      <trkpt lat="49.80011" lon="2.38816">
        <ele>37.1</ele>
        <time>2024-07-24T09:36:25Z</time>
      </trkpt>
      <trkpt lat="49.8001" lon="2.38815">
        <ele>37.1</ele>
        <time>2024-07-24T09:36:26Z</time>
      </trkpt>
      <trkpt lat="49.80009" lon="2.38814">
        <ele>37.1</ele>
        <time>2024-07-24T09:36:27Z</time>
      </trkpt>
      <trkpt lat="49.80008" lon="2.38813">
        <ele>37.1</ele>
        <time>2024-07-24T09:36:28Z</time>
      </trkpt>
      <trkpt lat="49.80007" lon="2.38812">
        <ele>37.1</ele>
        <time>2024-07-24T09:36:29Z</time>
      </trkpt>
      <trkpt lat="49.80007" lon="2.38811">
        <ele>37.1</ele>
        <time>2024-07-24T09:36:30Z</time>
      </trkpt>
      <trkpt lat="49.80006" lon="2.3881">
        <ele>37.1</ele>
        <time>2024-07-24T09:36:31Z</time>
      </trkpt>
      <trkpt lat="49.80005" lon="2.38809">
        <ele>37.1</ele>
        <time>2024-07-24T09:36:32Z</time>
      </trkpt>
      <trkpt lat="49.80005" lon="2.38808">
        <ele>37.1</ele>
        <time>2024-07-24T09:36:33Z</time>
      </trkpt>
      <trkpt lat="49.80004" lon="2.38807">
        <ele>37.1</ele>
        <time>2024-07-24T09:36:34Z</time>
      </trkpt>
      <trkpt lat="49.80003" lon="2.38807">
        <ele>37.1</ele>
        <time>2024-07-24T09:36:35Z</time>
      </trkpt>
      <trkpt lat="49.80003" lon="2.38806">
        <ele>37.1</ele>
        <time>2024-07-24T09:36:36Z</time>
      </trkpt>
      <trkpt lat="49.80002" lon="2.38805">
        <ele>37.1</ele>
        <time>2024-07-24T09:36:37Z</time>
      </trkpt>
      <trkpt lat="49.80001" lon="2.38804">
        <ele>37.1</ele>
        <time>2024-07-24T09:36:38Z</time>
      </trkpt>
      <trkpt lat="49.80001" lon="2.38803">
        <ele>37.1</ele>
        <time>2024-07-24T09:36:39Z</time>
      </trkpt>
      <trkpt lat="49.8" lon="2.38802">
        <ele>37.1</ele>
        <time>2024-07-24T09:36:40Z</time>
      </trkpt>
      <trkpt lat="49.8" lon="2.38801">
        <ele>37.1</ele>
        <time>2024-07-24T09:36:41Z</time>
      </trkpt>
      <trkpt lat="49.8" lon="2.38799">
        <ele>37.1</ele>
        <time>2024-07-24T09:36:42Z</time>
      </trkpt>
      <trkpt lat="49.79999" lon="2.38798">
        <ele>37.1</ele>
        <time>2024-07-24T09:36:43Z</time>
      </trkpt>
      <trkpt lat="49.79999" lon="2.38797">
        <ele>37.1</ele>
        <time>2024-07-24T09:36:44Z</time>
      </trkpt>
      <trkpt lat="49.79998" lon="2.38797">
        <ele>37.1</ele>
        <time>2024-07-24T09:36:45Z</time>
      </trkpt>
      <trkpt lat="49.79997" lon="2.38796">
        <ele>37.1</ele>
        <time>2024-07-24T09:36:46Z</time>
      </trkpt>
      <trkpt lat="49.79996" lon="2.38795">
        <ele>37.1</ele>
        <time>2024-07-24T09:36:47Z</time>
      </trkpt>
      <trkpt lat="49.79996" lon="2.38794">
        <ele>37.1</ele>
        <time>2024-07-24T09:36:48Z</time>
      </trkpt>
      <trkpt lat="49.79995" lon="2.38793">
        <ele>37.1</ele>
        <time>2024-07-24T09:36:49Z</time>
      </trkpt>
      <trkpt lat="49.79994" lon="2.38792">
        <ele>37.1</ele>
        <time>2024-07-24T09:36:50Z</time>
      </trkpt>
      <trkpt lat="49.79993" lon="2.38792">
        <ele>37.1</ele>
        <time>2024-07-24T09:36:51Z</time>
      </trkpt>
      <trkpt lat="49.79993" lon="2.38791">
        <ele>37.1</ele>
        <time>2024-07-24T09:36:52Z</time>
      </trkpt>
      <trkpt lat="49.79992" lon="2.3879">
        <ele>37.1</ele>
        <time>2024-07-24T09:36:53Z</time>
      </trkpt>
      <trkpt lat="49.79991" lon="2.38789">
        <ele>37.1</ele>
        <time>2024-07-24T09:36:54Z</time>
      </trkpt>
      <trkpt lat="49.79991" lon="2.38788">
        <ele>37.1</ele>
        <time>2024-07-24T09:36:55Z</time>
      </trkpt>
      <trkpt lat="49.7999" lon="2.38787">
        <ele>37.1</ele>
        <time>2024-07-24T09:36:56Z</time>
      </trkpt>
      <trkpt lat="49.7999" lon="2.38786">
        <ele>37.1</ele>
        <time>2024-07-24T09:36:57Z</time>
      </trkpt>
      <trkpt lat="49.79989" lon="2.38785">
        <ele>37.1</ele>
        <time>2024-07-24T09:36:58Z</time>
      </trkpt>
      <trkpt lat="49.79988" lon="2.38784">
        <ele>37.1</ele>
        <time>2024-07-24T09:36:59Z</time>
      </trkpt>
      <trkpt lat="49.79988" lon="2.38784">
        <ele>37.1</ele>
        <time>2024-07-24T09:37:00Z</time>
      </trkpt>
      <trkpt lat="49.79987" lon="2.38783">
        <ele>37.1</ele>
        <time>2024-07-24T09:37:01Z</time>
      </trkpt>
      <trkpt lat="49.79986" lon="2.38782">
        <ele>37.1</ele>
        <time>2024-07-24T09:37:02Z</time>
      </trkpt>
      <trkpt lat="49.79985" lon="2.38782">
        <ele>37.1</ele>
        <time>2024-07-24T09:37:03Z</time>
      </trkpt>
      <trkpt lat="49.79984" lon="2.38781">
        <ele>37.1</ele>
        <time>2024-07-24T09:37:04Z</time>
      </trkpt>
      <trkpt lat="49.79984" lon="2.3878">
        <ele>37.1</ele>
        <time>2024-07-24T09:37:05Z</time>
      </trkpt>
      <trkpt lat="49.79983" lon="2.38779">
        <ele>37.1</ele>
        <time>2024-07-24T09:37:06Z</time>
      </trkpt>
      <trkpt lat="49.79982" lon="2.38778">
        <ele>37.1</ele>
        <time>2024-07-24T09:37:07Z</time>
      </trkpt>
      <trkpt lat="49.79982" lon="2.38777">
        <ele>37.1</ele>
        <time>2024-07-24T09:37:08Z</time>
      </trkpt>
      <trkpt lat="49.7998" lon="2.38776">
        <ele>37</ele>
        <time>2024-07-24T09:37:09Z</time>
      </trkpt>
      <trkpt lat="49.7998" lon="2.38776">
        <ele>37</ele>
        <time>2024-07-24T09:37:10Z</time>
      </trkpt>
      <trkpt lat="49.79979" lon="2.38776">
        <ele>37</ele>
        <time>2024-07-24T09:37:11Z</time>
      </trkpt>
      <trkpt lat="49.79978" lon="2.38775">
        <ele>37</ele>
        <time>2024-07-24T09:37:12Z</time>
      </trkpt>
      <trkpt lat="49.79977" lon="2.38775">
        <ele>37</ele>
        <time>2024-07-24T09:37:13Z</time>
      </trkpt>
      <trkpt lat="49.79976" lon="2.38774">
        <ele>37</ele>
        <time>2024-07-24T09:37:14Z</time>
      </trkpt>
      <trkpt lat="49.79976" lon="2.38773">
        <ele>37</ele>
        <time>2024-07-24T09:37:15Z</time>
      </trkpt>
      <trkpt lat="49.79975" lon="2.38773">
        <ele>37</ele>
        <time>2024-07-24T09:37:16Z</time>
      </trkpt>
      <trkpt lat="49.79974" lon="2.38773">
        <ele>37</ele>
        <time>2024-07-24T09:37:17Z</time>
      </trkpt>
      <trkpt lat="49.79974" lon="2.38772">
        <ele>37</ele>
        <time>2024-07-24T09:37:18Z</time>
      </trkpt>
      <trkpt lat="49.79974" lon="2.38772">
        <ele>37</ele>
        <time>2024-07-24T09:37:19Z</time>
      </trkpt>
      <trkpt lat="49.79974" lon="2.38772">
        <ele>37</ele>
        <time>2024-07-24T09:37:20Z</time>
      </trkpt>
      <trkpt lat="49.79974" lon="2.38772">
        <ele>37</ele>
        <time>2024-07-24T09:37:21Z</time>
      </trkpt>
      <trkpt lat="49.79974" lon="2.38772">
        <ele>37</ele>
        <time>2024-07-24T09:37:22Z</time>
      </trkpt>
      <trkpt lat="49.79973" lon="2.38772">
        <ele>37</ele>
        <time>2024-07-24T09:37:23Z</time>
      </trkpt>
      <trkpt lat="49.79973" lon="2.38772">
        <ele>37</ele>
        <time>2024-07-24T09:37:24Z</time>
      </trkpt>
      <trkpt lat="49.79973" lon="2.38772">
        <ele>37</ele>
        <time>2024-07-24T09:37:25Z</time>
      </trkpt>
      <trkpt lat="49.79973" lon="2.38772">
        <ele>37</ele>
        <time>2024-07-24T09:37:26Z</time>
      </trkpt>
      <trkpt lat="49.79973" lon="2.38772">
        <ele>37</ele>
        <time>2024-07-24T09:37:27Z</time>
      </trkpt>
      <trkpt lat="49.79973" lon="2.38772">
        <ele>37</ele>
        <time>2024-07-24T09:37:28Z</time>
      </trkpt>
      <trkpt lat="49.79973" lon="2.38772">
        <ele>37</ele>
        <time>2024-07-24T09:37:29Z</time>
      </trkpt>
      <trkpt lat="49.79973" lon="2.38772">
        <ele>37</ele>
        <time>2024-07-24T09:37:30Z</time>
      </trkpt>
      <trkpt lat="49.79973" lon="2.38772">
        <ele>37</ele>
        <time>2024-07-24T09:37:31Z</time>
      </trkpt>
      <trkpt lat="49.79973" lon="2.38772">
        <ele>37</ele>
        <time>2024-07-24T09:37:32Z</time>
      </trkpt>
      <trkpt lat="49.79973" lon="2.38772">
        <ele>37</ele>
        <time>2024-07-24T09:37:33Z</time>
      </trkpt>
      <trkpt lat="49.79973" lon="2.38772">
        <ele>37</ele>
        <time>2024-07-24T09:37:34Z</time>
      </trkpt>
      <trkpt lat="49.79973" lon="2.38772">
        <ele>37</ele>
        <time>2024-07-24T09:37:35Z</time>
      </trkpt>
      <trkpt lat="49.79973" lon="2.38772">
        <ele>37</ele>
        <time>2024-07-24T09:37:36Z</time>
      </trkpt>
      <trkpt lat="49.79973" lon="2.38773">
        <ele>37</ele>
        <time>2024-07-24T09:37:37Z</time>
      </trkpt>
      <trkpt lat="49.79973" lon="2.38773">
        <ele>37</ele>
        <time>2024-07-24T09:37:38Z</time>
      </trkpt>
      <trkpt lat="49.79973" lon="2.38773">
        <ele>37</ele>
        <time>2024-07-24T09:37:39Z</time>
      </trkpt>
      <trkpt lat="49.79973" lon="2.38773">
        <ele>37</ele>
        <time>2024-07-24T09:37:40Z</time>
      </trkpt>
      <trkpt lat="49.79973" lon="2.38773">
        <ele>37</ele>
        <time>2024-07-24T09:37:41Z</time>
      </trkpt>
      <trkpt lat="49.79973" lon="2.38773">
        <ele>37</ele>
        <time>2024-07-24T09:37:42Z</time>
      </trkpt>
      <trkpt lat="49.79973" lon="2.38773">
        <ele>37</ele>
        <time>2024-07-24T09:37:43Z</time>
      </trkpt>
      <trkpt lat="49.79973" lon="2.38773">
        <ele>37</ele>
        <time>2024-07-24T09:37:44Z</time>
      </trkpt>
      <trkpt lat="49.79973" lon="2.38773">
        <ele>37</ele>
        <time>2024-07-24T09:37:45Z</time>
      </trkpt>
      <trkpt lat="49.79973" lon="2.38773">
        <ele>37</ele>
        <time>2024-07-24T09:37:46Z</time>
      </trkpt>
      <trkpt lat="49.79973" lon="2.38773">
        <ele>37</ele>
        <time>2024-07-24T09:37:47Z</time>
      </trkpt>
      <trkpt lat="49.79973" lon="2.38773">
        <ele>37</ele>
        <time>2024-07-24T09:37:48Z</time>
      </trkpt>
      <trkpt lat="49.79973" lon="2.38773">
        <ele>37</ele>
        <time>2024-07-24T09:37:49Z</time>
      </trkpt>
      <trkpt lat="49.79973" lon="2.38773">
        <ele>37</ele>
        <time>2024-07-24T09:37:50Z</time>
      </trkpt>
      <trkpt lat="49.79973" lon="2.38773">
        <ele>37</ele>
        <time>2024-07-24T09:37:51Z</time>
      </trkpt>
      <trkpt lat="49.79973" lon="2.38773">
        <ele>37</ele>
        <time>2024-07-24T09:37:52Z</time>
      </trkpt>
      <trkpt lat="49.79973" lon="2.38773">
        <ele>37</ele>
        <time>2024-07-24T09:37:53Z</time>
      </trkpt>
      <trkpt lat="49.79973" lon="2.38773">
        <ele>37</ele>
        <time>2024-07-24T09:37:54Z</time>
      </trkpt>
      <trkpt lat="49.79973" lon="2.38773">
        <ele>37</ele>
        <time>2024-07-24T09:37:55Z</time>
      </trkpt>
      <trkpt lat="49.79973" lon="2.38773">
        <ele>37</ele>
        <time>2024-07-24T09:37:56Z</time>
      </trkpt>
      <trkpt lat="49.79973" lon="2.38773">
        <ele>37</ele>
        <time>2024-07-24T09:37:57Z</time>
      </trkpt>
      <trkpt lat="49.79973" lon="2.38773">
        <ele>37</ele>
        <time>2024-07-24T09:37:58Z</time>
      </trkpt>
      <trkpt lat="49.79973" lon="2.38773">
        <ele>37</ele>
        <time>2024-07-24T09:37:59Z</time>
      </trkpt>
      <trkpt lat="49.79973" lon="2.38773">
        <ele>37</ele>
        <time>2024-07-24T09:38:00Z</time>
      </trkpt>
      <trkpt lat="49.79973" lon="2.38773">
        <ele>37</ele>
        <time>2024-07-24T09:38:01Z</time>
      </trkpt>
      <trkpt lat="49.79973" lon="2.38773">
        <ele>37</ele>
        <time>2024-07-24T09:38:02Z</time>
      </trkpt>
      <trkpt lat="49.79973" lon="2.38773">
        <ele>37</ele>
        <time>2024-07-24T09:38:03Z</time>
      </trkpt>
      <trkpt lat="49.79973" lon="2.38773">
        <ele>37</ele>
        <time>2024-07-24T09:38:04Z</time>
      </trkpt>
      <trkpt lat="49.79973" lon="2.38773">
        <ele>37</ele>
        <time>2024-07-24T09:38:05Z</time>
      </trkpt>
      <trkpt lat="49.79973" lon="2.38773">
        <ele>37</ele>
        <time>2024-07-24T09:38:06Z</time>
      </trkpt>
      <trkpt lat="49.79973" lon="2.38773">
        <ele>37</ele>
        <time>2024-07-24T09:38:07Z</time>
      </trkpt>
      <trkpt lat="49.79973" lon="2.38773">
        <ele>37</ele>
        <time>2024-07-24T09:38:08Z</time>
      </trkpt>
      <trkpt lat="49.79973" lon="2.38773">
        <ele>37</ele>
        <time>2024-07-24T09:38:09Z</time>
      </trkpt>
      <trkpt lat="49.79973" lon="2.38773">
        <ele>37</ele>
        <time>2024-07-24T09:38:10Z</time>
      </trkpt>
      <trkpt lat="49.79973" lon="2.38773">
        <ele>37</ele>
        <time>2024-07-24T09:38:11Z</time>
      </trkpt>
      <trkpt lat="49.79973" lon="2.38773">
        <ele>37</ele>
        <time>2024-07-24T09:38:12Z</time>
      </trkpt>
      <trkpt lat="49.79973" lon="2.38773">
        <ele>37</ele>
        <time>2024-07-24T09:38:13Z</time>
      </trkpt>
      <trkpt lat="49.79973" lon="2.38773">
        <ele>37</ele>
        <time>2024-07-24T09:38:14Z</time>
      </trkpt>
      <trkpt lat="49.79973" lon="2.38773">
        <ele>37</ele>
        <time>2024-07-24T09:38:15Z</time>
      </trkpt>
      <trkpt lat="49.79973" lon="2.38773">
        <ele>37</ele>
        <time>2024-07-24T09:38:16Z</time>
      </trkpt>
      <trkpt lat="49.79973" lon="2.38773">
        <ele>37</ele>
        <time>2024-07-24T09:38:17Z</time>
      </trkpt>
      <trkpt lat="49.79973" lon="2.38773">
        <ele>37</ele>
        <time>2024-07-24T09:38:18Z</time>
      </trkpt>
      <trkpt lat="49.79973" lon="2.38773">
        <ele>37</ele>
        <time>2024-07-24T09:38:19Z</time>
      </trkpt>
      <trkpt lat="49.79973" lon="2.38773">
        <ele>37</ele>
        <time>2024-07-24T09:38:20Z</time>
      </trkpt>
      <trkpt lat="49.79973" lon="2.38773">
        <ele>37</ele>
        <time>2024-07-24T09:38:21Z</time>
      </trkpt>
      <trkpt lat="49.79973" lon="2.38773">
        <ele>37</ele>
        <time>2024-07-24T09:38:22Z</time>
      </trkpt>
      <trkpt lat="49.79973" lon="2.38773">
        <ele>37</ele>
        <time>2024-07-24T09:38:23Z</time>
      </trkpt>
      <trkpt lat="49.79973" lon="2.38773">
        <ele>37</ele>
        <time>2024-07-24T09:38:24Z</time>
      </trkpt>
      <trkpt lat="49.79973" lon="2.38773">
        <ele>37</ele>
        <time>2024-07-24T09:38:25Z</time>
      </trkpt>
      <trkpt lat="49.79973" lon="2.38773">
        <ele>37</ele>
        <time>2024-07-24T09:38:26Z</time>
      </trkpt>
      <trkpt lat="49.79973" lon="2.38773">
        <ele>37</ele>
        <time>2024-07-24T09:38:27Z</time>
      </trkpt>
      <trkpt lat="49.79973" lon="2.38773">
        <ele>37</ele>
        <time>2024-07-24T09:38:28Z</time>
      </trkpt>
      <trkpt lat="49.79973" lon="2.38773">
        <ele>37</ele>
        <time>2024-07-24T09:38:29Z</time>
      </trkpt>
      <trkpt lat="49.79973" lon="2.38773">
        <ele>37</ele>
        <time>2024-07-24T09:38:30Z</time>
      </trkpt>
      <trkpt lat="49.79973" lon="2.38773">
        <ele>37</ele>
        <time>2024-07-24T09:38:31Z</time>
      </trkpt>
      <trkpt lat="49.79973" lon="2.38773">
        <ele>37</ele>
        <time>2024-07-24T09:38:32Z</time>
      </trkpt>
      <trkpt lat="49.79973" lon="2.38773">
        <ele>37</ele>
        <time>2024-07-24T09:38:33Z</time>
      </trkpt>
      <trkpt lat="49.79973" lon="2.38773">
        <ele>37</ele>
        <time>2024-07-24T09:38:34Z</time>
      </trkpt>
      <trkpt lat="49.79973" lon="2.38773">
        <ele>37</ele>
        <time>2024-07-24T09:38:35Z</time>
      </trkpt>
      <trkpt lat="49.79973" lon="2.38773">
        <ele>37</ele>
        <time>2024-07-24T09:38:36Z</time>
      </trkpt>
      <trkpt lat="49.79973" lon="2.38773">
        <ele>37</ele>
        <time>2024-07-24T09:38:37Z</time>
      </trkpt>
      <trkpt lat="49.79973" lon="2.38773">
        <ele>37</ele>
        <time>2024-07-24T09:38:38Z</time>
      </trkpt>
      <trkpt lat="49.79973" lon="2.38773">
        <ele>37</ele>
        <time>2024-07-24T09:38:39Z</time>
      </trkpt>
      <trkpt lat="49.79973" lon="2.38773">
        <ele>37</ele>
        <time>2024-07-24T09:38:40Z</time>
      </trkpt>
      <trkpt lat="49.79973" lon="2.38773">
        <ele>37</ele>
        <time>2024-07-24T09:38:41Z</time>
      </trkpt>
      <trkpt lat="49.79973" lon="2.38773">
        <ele>37</ele>
        <time>2024-07-24T09:38:42Z</time>
      </trkpt>
      <trkpt lat="49.79973" lon="2.38773">
        <ele>37</ele>
        <time>2024-07-24T09:38:43Z</time>
      </trkpt>
      <trkpt lat="49.79973" lon="2.38773">
        <ele>37</ele>
        <time>2024-07-24T09:38:44Z</time>
      </trkpt>
      <trkpt lat="49.79973" lon="2.38773">
        <ele>37</ele>
        <time>2024-07-24T09:38:45Z</time>
      </trkpt>
      <trkpt lat="49.79973" lon="2.38773">
        <ele>37</ele>
        <time>2024-07-24T09:38:46Z</time>
      </trkpt>
      <trkpt lat="49.79973" lon="2.38773">
        <ele>37</ele>
        <time>2024-07-24T09:38:47Z</time>
      </trkpt>
      <trkpt lat="49.79973" lon="2.38773">
        <ele>37</ele>
        <time>2024-07-24T09:38:48Z</time>
      </trkpt>
      <trkpt lat="49.79973" lon="2.38773">
        <ele>37</ele>
        <time>2024-07-24T09:38:49Z</time>
      </trkpt>
      <trkpt lat="49.79973" lon="2.38773">
        <ele>37</ele>
        <time>2024-07-24T09:38:50Z</time>
      </trkpt>
      <trkpt lat="49.79973" lon="2.38773">
        <ele>37</ele>
        <time>2024-07-24T09:38:51Z</time>
      </trkpt>
      <trkpt lat="49.79973" lon="2.38773">
        <ele>37</ele>
        <time>2024-07-24T09:38:52Z</time>
      </trkpt>
      <trkpt lat="49.79973" lon="2.38773">
        <ele>37</ele>
        <time>2024-07-24T09:38:53Z</time>
      </trkpt>
      <trkpt lat="49.79973" lon="2.38773">
        <ele>37</ele>
        <time>2024-07-24T09:38:54Z</time>
      </trkpt>
      <trkpt lat="49.79973" lon="2.38773">
        <ele>37</ele>
        <time>2024-07-24T09:38:55Z</time>
      </trkpt>
      <trkpt lat="49.79973" lon="2.38773">
        <ele>37</ele>
        <time>2024-07-24T09:38:56Z</time>
      </trkpt>
      <trkpt lat="49.79973" lon="2.38773">
        <ele>37</ele>
        <time>2024-07-24T09:38:57Z</time>
      </trkpt>
      <trkpt lat="49.79973" lon="2.38773">
        <ele>37</ele>
        <time>2024-07-24T09:38:58Z</time>
      </trkpt>
      <trkpt lat="49.79973" lon="2.38773">
        <ele>37</ele>
        <time>2024-07-24T09:38:59Z</time>
      </trkpt>
      <trkpt lat="49.79973" lon="2.38773">
        <ele>37</ele>
        <time>2024-07-24T09:39:00Z</time>
      </trkpt>
      <trkpt lat="49.79973" lon="2.38773">
        <ele>37</ele>
        <time>2024-07-24T09:39:01Z</time>
      </trkpt>
      <trkpt lat="49.79973" lon="2.38773">
        <ele>37</ele>
        <time>2024-07-24T09:39:02Z</time>
      </trkpt>
      <trkpt lat="49.79973" lon="2.38773">
        <ele>37</ele>
        <time>2024-07-24T09:39:03Z</time>
      </trkpt>
      <trkpt lat="49.79973" lon="2.38773">
        <ele>37</ele>
        <time>2024-07-24T09:39:04Z</time>
      </trkpt>
      <trkpt lat="49.79973" lon="2.38773">
        <ele>37</ele>
        <time>2024-07-24T09:39:05Z</time>
      </trkpt>
      <trkpt lat="49.79973" lon="2.38773">
        <ele>37</ele>
        <time>2024-07-24T09:39:06Z</time>
      </trkpt>
      <trkpt lat="49.79973" lon="2.38773">
        <ele>37</ele>
        <time>2024-07-24T09:39:07Z</time>
      </trkpt>
      <trkpt lat="49.79973" lon="2.38773">
        <ele>37</ele>
        <time>2024-07-24T09:39:08Z</time>
      </trkpt>
      <trkpt lat="49.79973" lon="2.38773">
        <ele>37</ele>
        <time>2024-07-24T09:39:09Z</time>
      </trkpt>
      <trkpt lat="49.79973" lon="2.38773">
        <ele>37</ele>
        <time>2024-07-24T09:39:10Z</time>
      </trkpt>
      <trkpt lat="49.79973" lon="2.38773">
        <ele>37</ele>
        <time>2024-07-24T09:39:11Z</time>
      </trkpt>
      <trkpt lat="49.79973" lon="2.38773">
        <ele>37</ele>
        <time>2024-07-24T09:39:12Z</time>
      </trkpt>
      <trkpt lat="49.79973" lon="2.38773">
        <ele>37</ele>
        <time>2024-07-24T09:39:13Z</time>
      </trkpt>
      <trkpt lat="49.79973" lon="2.38773">
        <ele>37</ele>
        <time>2024-07-24T09:39:14Z</time>
      </trkpt>
      <trkpt lat="49.79973" lon="2.38773">
        <ele>37</ele>
        <time>2024-07-24T09:39:15Z</time>
      </trkpt>
      <trkpt lat="49.79973" lon="2.38773">
        <ele>37</ele>
        <time>2024-07-24T09:39:16Z</time>
      </trkpt>
      <trkpt lat="49.79973" lon="2.38773">
        <ele>37</ele>
        <time>2024-07-24T09:39:17Z</time>
      </trkpt>
      <trkpt lat="49.79973" lon="2.38773">
        <ele>37</ele>
        <time>2024-07-24T09:39:18Z</time>
      </trkpt>
      <trkpt lat="49.79973" lon="2.38773">
        <ele>37</ele>
        <time>2024-07-24T09:39:19Z</time>
      </trkpt>
      <trkpt lat="49.79973" lon="2.38773">
        <ele>37</ele>
        <time>2024-07-24T09:39:20Z</time>
      </trkpt>
      <trkpt lat="49.79973" lon="2.38773">
        <ele>37</ele>
        <time>2024-07-24T09:39:21Z</time>
      </trkpt>
      <trkpt lat="49.79973" lon="2.38773">
        <ele>37</ele>
        <time>2024-07-24T09:39:22Z</time>
      </trkpt>
      <trkpt lat="49.79973" lon="2.38773">
        <ele>37</ele>
        <time>2024-07-24T09:39:23Z</time>
      </trkpt>
      <trkpt lat="49.79973" lon="2.38773">
        <ele>37</ele>
        <time>2024-07-24T09:39:24Z</time>
      </trkpt>
      <trkpt lat="49.79973" lon="2.38773">
        <ele>37</ele>
        <time>2024-07-24T09:39:25Z</time>
      </trkpt>
      <trkpt lat="49.79973" lon="2.38773">
        <ele>37</ele>
        <time>2024-07-24T09:39:26Z</time>
      </trkpt>
      <trkpt lat="49.79973" lon="2.38773">
        <ele>37</ele>
        <time>2024-07-24T09:39:27Z</time>
      </trkpt>
      <trkpt lat="49.79973" lon="2.38773">
        <ele>37</ele>
        <time>2024-07-24T09:39:28Z</time>
      </trkpt>
      <trkpt lat="49.79973" lon="2.38773">
        <ele>37</ele>
        <time>2024-07-24T09:39:29Z</time>
      </trkpt>
      <trkpt lat="49.79973" lon="2.38773">
        <ele>37</ele>
        <time>2024-07-24T09:39:30Z</time>
      </trkpt>
      <trkpt lat="49.79973" lon="2.38773">
        <ele>37</ele>
        <time>2024-07-24T09:39:31Z</time>
      </trkpt>
      <trkpt lat="49.79973" lon="2.38773">
        <ele>37</ele>
        <time>2024-07-24T09:39:32Z</time>
      </trkpt>
      <trkpt lat="49.79973" lon="2.38773">
        <ele>37</ele>
        <time>2024-07-24T09:39:33Z</time>
      </trkpt>
      <trkpt lat="49.79973" lon="2.38773">
        <ele>37</ele>
        <time>2024-07-24T09:39:34Z</time>
      </trkpt>
      <trkpt lat="49.79973" lon="2.38773">
        <ele>37</ele>
        <time>2024-07-24T09:39:35Z</time>
      </trkpt>
      <trkpt lat="49.79973" lon="2.38773">
        <ele>37</ele>
        <time>2024-07-24T09:39:36Z</time>
      </trkpt>
      <trkpt lat="49.79973" lon="2.38773">
        <ele>37</ele>
        <time>2024-07-24T09:39:37Z</time>
      </trkpt>
      <trkpt lat="49.79973" lon="2.38773">
        <ele>37</ele>
        <time>2024-07-24T09:39:38Z</time>
      </trkpt>
      <trkpt lat="49.79973" lon="2.38773">
        <ele>37</ele>
        <time>2024-07-24T09:39:39Z</time>
      </trkpt>
      <trkpt lat="49.79973" lon="2.38773">
        <ele>37</ele>
        <time>2024-07-24T09:39:40Z</time>
      </trkpt>
      <trkpt lat="49.79973" lon="2.38773">
        <ele>37</ele>
        <time>2024-07-24T09:39:41Z</time>
      </trkpt>
      <trkpt lat="49.79973" lon="2.38773">
        <ele>37</ele>
        <time>2024-07-24T09:39:42Z</time>
      </trkpt>
      <trkpt lat="49.79973" lon="2.38773">
        <ele>37</ele>
        <time>2024-07-24T09:39:43Z</time>
      </trkpt>
      <trkpt lat="49.79973" lon="2.38773">
        <ele>37</ele>
        <time>2024-07-24T09:39:44Z</time>
      </trkpt>
      <trkpt lat="49.79973" lon="2.38773">
        <ele>37</ele>
        <time>2024-07-24T09:39:45Z</time>
      </trkpt>
      <trkpt lat="49.79973" lon="2.38773">
        <ele>37</ele>
        <time>2024-07-24T09:39:46Z</time>
      </trkpt>
      <trkpt lat="49.79973" lon="2.38773">
        <ele>37</ele>
        <time>2024-07-24T09:39:47Z</time>
      </trkpt>
      <trkpt lat="49.79973" lon="2.38773">
        <ele>37</ele>
        <time>2024-07-24T09:39:48Z</time>
      </trkpt>
      <trkpt lat="49.79973" lon="2.38773">
        <ele>37</ele>
        <time>2024-07-24T09:39:49Z</time>
      </trkpt>
      <trkpt lat="49.79973" lon="2.38773">
        <ele>37</ele>
        <time>2024-07-24T09:39:50Z</time>
      </trkpt>
      <trkpt lat="49.79973" lon="2.38773">
        <ele>37</ele>
        <time>2024-07-24T09:39:51Z</time>
      </trkpt>
      <trkpt lat="49.79973" lon="2.38773">
        <ele>37</ele>
        <time>2024-07-24T09:39:52Z</time>
      </trkpt>
      <trkpt lat="49.79973" lon="2.38773">
        <ele>37</ele>
        <time>2024-07-24T09:39:53Z</time>
      </trkpt>
      <trkpt lat="49.79973" lon="2.38773">
        <ele>37</ele>
        <time>2024-07-24T09:39:54Z</time>
      </trkpt>
      <trkpt lat="49.79973" lon="2.38773">
        <ele>37</ele>
        <time>2024-07-24T09:39:55Z</time>
      </trkpt>
      <trkpt lat="49.79973" lon="2.38773">
        <ele>37</ele>
        <time>2024-07-24T09:39:56Z</time>
      </trkpt>
      <trkpt lat="49.79973" lon="2.38773">
        <ele>37</ele>
        <time>2024-07-24T09:39:57Z</time>
      </trkpt>
      <trkpt lat="49.79973" lon="2.38773">
        <ele>37</ele>
        <time>2024-07-24T09:39:58Z</time>
      </trkpt>
      <trkpt lat="49.79973" lon="2.38773">
        <ele>37</ele>
        <time>2024-07-24T09:39:59Z</time>
      </trkpt>
      <trkpt lat="49.79973" lon="2.38773">
        <ele>37</ele>
        <time>2024-07-24T09:40:00Z</time>
      </trkpt>
      <trkpt lat="49.79973" lon="2.38773">
        <ele>37</ele>
        <time>2024-07-24T09:40:01Z</time>
      </trkpt>
      <trkpt lat="49.79973" lon="2.38773">
        <ele>37</ele>
        <time>2024-07-24T09:40:02Z</time>
      </trkpt>
      <trkpt lat="49.79973" lon="2.38773">
        <ele>37</ele>
        <time>2024-07-24T09:40:03Z</time>
      </trkpt>
      <trkpt lat="49.79973" lon="2.38773">
        <ele>37</ele>
        <time>2024-07-24T09:40:04Z</time>
      </trkpt>
      <trkpt lat="49.79973" lon="2.38773">
        <ele>37</ele>
        <time>2024-07-24T09:40:05Z</time>
      </trkpt>
      <trkpt lat="49.79973" lon="2.38773">
        <ele>37</ele>
        <time>2024-07-24T09:40:06Z</time>
      </trkpt>
      <trkpt lat="49.79973" lon="2.38773">
        <ele>37</ele>
        <time>2024-07-24T09:40:07Z</time>
      </trkpt>
      <trkpt lat="49.79973" lon="2.38773">
        <ele>37</ele>
        <time>2024-07-24T09:40:08Z</time>
      </trkpt>
      <trkpt lat="49.79973" lon="2.38773">
        <ele>37</ele>
        <time>2024-07-24T09:40:09Z</time>
      </trkpt>
      <trkpt lat="49.79973" lon="2.38773">
        <ele>37</ele>
        <time>2024-07-24T09:40:10Z</time>
      </trkpt>
      <trkpt lat="49.79973" lon="2.38773">
        <ele>37</ele>
        <time>2024-07-24T09:40:11Z</time>
      </trkpt>
      <trkpt lat="49.79973" lon="2.38773">
        <ele>37</ele>
        <time>2024-07-24T09:40:12Z</time>
      </trkpt>
      <trkpt lat="49.79973" lon="2.38773">
        <ele>37</ele>
        <time>2024-07-24T09:40:13Z</time>
      </trkpt>
      <trkpt lat="49.79973" lon="2.38773">
        <ele>37</ele>
        <time>2024-07-24T09:40:14Z</time>
      </trkpt>
      <trkpt lat="49.79973" lon="2.38773">
        <ele>37</ele>
        <time>2024-07-24T09:40:15Z</time>
      </trkpt>
      <trkpt lat="49.79973" lon="2.38773">
        <ele>37</ele>
        <time>2024-07-24T09:40:16Z</time>
      </trkpt>
      <trkpt lat="49.79973" lon="2.38773">
        <ele>37</ele>
        <time>2024-07-24T09:40:17Z</time>
      </trkpt>
      <trkpt lat="49.79973" lon="2.38773">
        <ele>37</ele>
        <time>2024-07-24T09:40:18Z</time>
      </trkpt>
      <trkpt lat="49.79973" lon="2.38773">
        <ele>37</ele>
        <time>2024-07-24T09:40:19Z</time>
      </trkpt>
      <trkpt lat="49.79973" lon="2.38773">
        <ele>37</ele>
        <time>2024-07-24T09:40:20Z</time>
      </trkpt>
      <trkpt lat="49.79973" lon="2.38773">
        <ele>37</ele>
        <time>2024-07-24T09:40:21Z</time>
      </trkpt>
      <trkpt lat="49.79973" lon="2.38773">
        <ele>37</ele>
        <time>2024-07-24T09:40:22Z</time>
      </trkpt>
      <trkpt lat="49.79973" lon="2.38773">
        <ele>37</ele>
        <time>2024-07-24T09:40:23Z</time>
      </trkpt>
      <trkpt lat="49.79973" lon="2.38773">
        <ele>37</ele>
        <time>2024-07-24T09:40:24Z</time>
      </trkpt>
      <trkpt lat="49.79973" lon="2.38773">
        <ele>37</ele>
        <time>2024-07-24T09:40:25Z</time>
      </trkpt>
      <trkpt lat="49.79973" lon="2.38773">
        <ele>37</ele>
        <time>2024-07-24T09:40:26Z</time>
      </trkpt>
      <trkpt lat="49.79973" lon="2.38773">
        <ele>37</ele>
        <time>2024-07-24T09:40:27Z</time>
      </trkpt>
      <trkpt lat="49.79973" lon="2.38773">
        <ele>37</ele>
        <time>2024-07-24T09:40:28Z</time>
      </trkpt>
      <trkpt lat="49.79973" lon="2.38773">
        <ele>37</ele>
        <time>2024-07-24T09:40:29Z</time>
      </trkpt>
      <trkpt lat="49.79973" lon="2.38773">
        <ele>37</ele>
        <time>2024-07-24T09:40:30Z</time>
      </trkpt>
      <trkpt lat="49.79973" lon="2.38773">
        <ele>37</ele>
        <time>2024-07-24T09:40:31Z</time>
      </trkpt>
      <trkpt lat="49.79973" lon="2.38773">
        <ele>37</ele>
        <time>2024-07-24T09:40:32Z</time>
      </trkpt>
      <trkpt lat="49.79973" lon="2.38773">
        <ele>37</ele>
        <time>2024-07-24T09:40:33Z</time>
      </trkpt>
      <trkpt lat="49.79973" lon="2.38773">
        <ele>37</ele>
        <time>2024-07-24T09:40:34Z</time>
      </trkpt>
      <trkpt lat="49.79973" lon="2.38773">
        <ele>37</ele>
        <time>2024-07-24T09:40:35Z</time>
      </trkpt>
      <trkpt lat="49.79973" lon="2.38773">
        <ele>37</ele>
        <time>2024-07-24T09:40:36Z</time>
      </trkpt>
      <trkpt lat="49.79973" lon="2.38773">
        <ele>37</ele>
        <time>2024-07-24T09:40:37Z</time>
      </trkpt>
      <trkpt lat="49.79973" lon="2.38773">
        <ele>37</ele>
        <time>2024-07-24T09:40:38Z</time>
      </trkpt>
      <trkpt lat="49.79973" lon="2.38773">
        <ele>37</ele>
        <time>2024-07-24T09:40:39Z</time>
      </trkpt>
      <trkpt lat="49.79973" lon="2.38773">
        <ele>37</ele>
        <time>2024-07-24T09:40:40Z</time>
      </trkpt>
      <trkpt lat="49.79973" lon="2.38773">
        <ele>37</ele>
        <time>2024-07-24T09:40:41Z</time>
      </trkpt>
      <trkpt lat="49.79973" lon="2.38773">
        <ele>37</ele>
        <time>2024-07-24T09:40:42Z</time>
      </trkpt>
      <trkpt lat="49.79973" lon="2.38773">
        <ele>37</ele>
        <time>2024-07-24T09:40:43Z</time>
      </trkpt>
      <trkpt lat="49.79973" lon="2.38773">
        <ele>37</ele>
        <time>2024-07-24T09:40:44Z</time>
      </trkpt>
      <trkpt lat="49.79973" lon="2.38773">
        <ele>37</ele>
        <time>2024-07-24T09:40:45Z</time>
      </trkpt>
      <trkpt lat="49.79973" lon="2.38773">
        <ele>37</ele>
        <time>2024-07-24T09:40:46Z</time>
      </trkpt>
      <trkpt lat="49.79973" lon="2.38773">
        <ele>37</ele>
        <time>2024-07-24T09:40:47Z</time>
      </trkpt>
      <trkpt lat="49.79973" lon="2.38773">
        <ele>37</ele>
        <time>2024-07-24T09:42:14Z</time>
      </trkpt>
      <trkpt lat="49.79973" lon="2.38773">
        <ele>37</ele>
        <time>2024-07-24T09:42:15Z</time>
      </trkpt>
      <trkpt lat="49.79973" lon="2.38773">
        <ele>37</ele>
        <time>2024-07-24T09:42:16Z</time>
      </trkpt>
      <trkpt lat="49.79973" lon="2.38773">
        <ele>37</ele>
        <time>2024-07-24T09:42:17Z</time>
      </trkpt>
      <trkpt lat="49.79973" lon="2.38773">
        <ele>37</ele>
        <time>2024-07-24T09:42:18Z</time>
      </trkpt>
      <trkpt lat="49.79973" lon="2.38773">
        <ele>37</ele>
        <time>2024-07-24T09:42:19Z</time>
      </trkpt>
      <trkpt lat="49.79976" lon="2.38774">
        <ele>37</ele>
        <time>2024-07-24T09:42:20Z</time>
      </trkpt>
      <trkpt lat="49.79977" lon="2.38774">
        <ele>37</ele>
        <time>2024-07-24T09:42:21Z</time>
      </trkpt>
      <trkpt lat="49.79977" lon="2.38774">
        <ele>37</ele>
        <time>2024-07-24T09:42:22Z</time>
      </trkpt>
      <trkpt lat="49.79977" lon="2.38774">
        <ele>37</ele>
        <time>2024-07-24T09:42:23Z</time>
      </trkpt>
      <trkpt lat="49.79977" lon="2.38774">
        <ele>37</ele>
        <time>2024-07-24T09:42:24Z</time>
      </trkpt>
      <trkpt lat="49.79977" lon="2.38774">
        <ele>37</ele>
        <time>2024-07-24T09:42:25Z</time>
      </trkpt>
      <trkpt lat="49.79977" lon="2.38774">
        <ele>37</ele>
        <time>2024-07-24T09:42:26Z</time>
      </trkpt>
      <trkpt lat="49.79977" lon="2.38774">
        <ele>37</ele>
        <time>2024-07-24T09:42:27Z</time>
      </trkpt>
      <trkpt lat="49.79977" lon="2.38774">
        <ele>37</ele>
        <time>2024-07-24T09:42:28Z</time>
      </trkpt>
      <trkpt lat="49.79977" lon="2.38774">
        <ele>37</ele>
        <time>2024-07-24T09:42:29Z</time>
      </trkpt>
      <trkpt lat="49.79976" lon="2.38774">
        <ele>37</ele>
        <time>2024-07-24T09:42:30Z</time>
      </trkpt>
      <trkpt lat="49.79976" lon="2.38774">
        <ele>37</ele>
        <time>2024-07-24T09:42:31Z</time>
      </trkpt>
      <trkpt lat="49.79977" lon="2.38774">
        <ele>37</ele>
        <time>2024-07-24T09:42:32Z</time>
      </trkpt>
      <trkpt lat="49.79977" lon="2.38774">
        <ele>37</ele>
        <time>2024-07-24T09:42:33Z</time>
      </trkpt>
      <trkpt lat="49.79977" lon="2.38774">
        <ele>37</ele>
        <time>2024-07-24T09:42:34Z</time>
      </trkpt>
      <trkpt lat="49.79977" lon="2.38774">
        <ele>37</ele>
        <time>2024-07-24T09:42:35Z</time>
      </trkpt>
      <trkpt lat="49.79977" lon="2.38774">
        <ele>37</ele>
        <time>2024-07-24T09:42:36Z</time>
      </trkpt>
      <trkpt lat="49.79977" lon="2.38774">
        <ele>37</ele>
        <time>2024-07-24T09:42:37Z</time>
      </trkpt>
      <trkpt lat="49.79977" lon="2.38774">
        <ele>37</ele>
        <time>2024-07-24T09:42:38Z</time>
      </trkpt>
      <trkpt lat="49.79977" lon="2.38774">
        <ele>37</ele>
        <time>2024-07-24T09:42:39Z</time>
      </trkpt>
      <trkpt lat="49.79977" lon="2.38774">
        <ele>37</ele>
        <time>2024-07-24T09:42:40Z</time>
      </trkpt>
      <trkpt lat="49.79977" lon="2.38774">
        <ele>37</ele>
        <time>2024-07-24T09:42:41Z</time>
      </trkpt>
      <trkpt lat="49.79977" lon="2.38774">
        <ele>37</ele>
        <time>2024-07-24T09:42:42Z</time>
      </trkpt>
      <trkpt lat="49.79977" lon="2.38774">
        <ele>37</ele>
        <time>2024-07-24T09:42:43Z</time>
      </trkpt>
      <trkpt lat="49.79977" lon="2.38774">
        <ele>37</ele>
        <time>2024-07-24T09:42:44Z</time>
      </trkpt>
      <trkpt lat="49.79977" lon="2.38774">
        <ele>37</ele>
        <time>2024-07-24T09:42:45Z</time>
      </trkpt>
      <trkpt lat="49.79977" lon="2.38774">
        <ele>37</ele>
        <time>2024-07-24T09:42:46Z</time>
      </trkpt>
      <trkpt lat="49.79977" lon="2.38774">
        <ele>37</ele>
        <time>2024-07-24T09:42:47Z</time>
      </trkpt>
      <trkpt lat="49.79977" lon="2.38774">
        <ele>37</ele>
        <time>2024-07-24T09:42:48Z</time>
      </trkpt>
      <trkpt lat="49.79977" lon="2.38774">
        <ele>37</ele>
        <time>2024-07-24T09:42:49Z</time>
      </trkpt>
      <trkpt lat="49.79977" lon="2.38774">
        <ele>37</ele>
        <time>2024-07-24T09:42:50Z</time>
      </trkpt>
      <trkpt lat="49.79976" lon="2.38774">
        <ele>37</ele>
        <time>2024-07-24T09:42:51Z</time>
      </trkpt>
      <trkpt lat="49.79976" lon="2.38773">
        <ele>37</ele>
        <time>2024-07-24T09:42:52Z</time>
      </trkpt>
      <trkpt lat="49.79976" lon="2.38773">
        <ele>37</ele>
        <time>2024-07-24T09:42:53Z</time>
      </trkpt>
      <trkpt lat="49.79976" lon="2.38773">
        <ele>37</ele>
        <time>2024-07-24T09:42:54Z</time>
      </trkpt>
      <trkpt lat="49.79976" lon="2.38773">
        <ele>37</ele>
        <time>2024-07-24T09:42:55Z</time>
      </trkpt>
      <trkpt lat="49.79975" lon="2.38774">
        <ele>37</ele>
        <time>2024-07-24T09:42:56Z</time>
      </trkpt>
      <trkpt lat="49.79975" lon="2.38774">
        <ele>37</ele>
        <time>2024-07-24T09:42:57Z</time>
      </trkpt>
      <trkpt lat="49.79975" lon="2.38775">
        <ele>37</ele>
        <time>2024-07-24T09:42:58Z</time>
      </trkpt>
      <trkpt lat="49.79976" lon="2.38776">
        <ele>37</ele>
        <time>2024-07-24T09:42:59Z</time>
      </trkpt>
      <trkpt lat="49.79976" lon="2.38777">
        <ele>37</ele>
        <time>2024-07-24T09:43:00Z</time>
      </trkpt>
      <trkpt lat="49.79976" lon="2.38779">
        <ele>37</ele>
        <time>2024-07-24T09:43:01Z</time>
      </trkpt>
      <trkpt lat="49.79975" lon="2.3878">
        <ele>37</ele>
        <time>2024-07-24T09:43:02Z</time>
      </trkpt>
      <trkpt lat="49.79974" lon="2.38781">
        <ele>37</ele>
        <time>2024-07-24T09:43:03Z</time>
      </trkpt>
      <trkpt lat="49.79973" lon="2.38783">
        <ele>37</ele>
        <time>2024-07-24T09:43:04Z</time>
      </trkpt>
      <trkpt lat="49.79972" lon="2.38783">
        <ele>37</ele>
        <time>2024-07-24T09:43:05Z</time>
      </trkpt>
      <trkpt lat="49.79972" lon="2.38783">
        <ele>37</ele>
        <time>2024-07-24T09:43:06Z</time>
      </trkpt>
      <trkpt lat="49.79971" lon="2.38783">
        <ele>37</ele>
        <time>2024-07-24T09:43:07Z</time>
      </trkpt>
      <trkpt lat="49.79971" lon="2.38784">
        <ele>37</ele>
        <time>2024-07-24T09:43:08Z</time>
      </trkpt>
      <trkpt lat="49.7997" lon="2.38784">
        <ele>37</ele>
        <time>2024-07-24T09:43:09Z</time>
      </trkpt>
      <trkpt lat="49.79969" lon="2.38785">
        <ele>37</ele>
        <time>2024-07-24T09:43:10Z</time>
      </trkpt>
      <trkpt lat="49.7997" lon="2.38786">
        <ele>37</ele>
        <time>2024-07-24T09:43:11Z</time>
      </trkpt>
      <trkpt lat="49.79971" lon="2.38788">
        <ele>37</ele>
        <time>2024-07-24T09:43:12Z</time>
      </trkpt>
      <trkpt lat="49.79971" lon="2.38789">
        <ele>37</ele>
        <time>2024-07-24T09:43:13Z</time>
      </trkpt>
      <trkpt lat="49.79971" lon="2.38789">
        <ele>37</ele>
        <time>2024-07-24T09:43:14Z</time>
      </trkpt>
      <trkpt lat="49.7997" lon="2.3879">
        <ele>37</ele>
        <time>2024-07-24T09:43:15Z</time>
      </trkpt>
      <trkpt lat="49.79971" lon="2.38789">
        <ele>37</ele>
        <time>2024-07-24T09:43:16Z</time>
      </trkpt>
      <trkpt lat="49.79971" lon="2.38789">
        <ele>37</ele>
        <time>2024-07-24T09:43:17Z</time>
      </trkpt>
      <trkpt lat="49.79971" lon="2.3879">
        <ele>37</ele>
        <time>2024-07-24T09:43:18Z</time>
      </trkpt>
      <trkpt lat="49.79971" lon="2.38791">
        <ele>37</ele>
        <time>2024-07-24T09:43:19Z</time>
      </trkpt>
      <trkpt lat="49.79971" lon="2.38791">
        <ele>37</ele>
        <time>2024-07-24T09:43:20Z</time>
      </trkpt>
      <trkpt lat="49.79971" lon="2.3879">
        <ele>37</ele>
        <time>2024-07-24T09:43:21Z</time>
      </trkpt>
      <trkpt lat="49.79972" lon="2.38789">
        <ele>36.9</ele>
        <time>2024-07-24T09:43:22Z</time>
      </trkpt>
      <trkpt lat="49.79973" lon="2.38789">
        <ele>36.8</ele>
        <time>2024-07-24T09:43:23Z</time>
      </trkpt>
      <trkpt lat="49.79973" lon="2.38788">
        <ele>36.6</ele>
        <time>2024-07-24T09:43:24Z</time>
      </trkpt>
      <trkpt lat="49.79973" lon="2.38788">
        <ele>36.5</ele>
        <time>2024-07-24T09:43:25Z</time>
      </trkpt>
      <trkpt lat="49.79973" lon="2.38788">
        <ele>36.4</ele>
        <time>2024-07-24T09:43:26Z</time>
      </trkpt>
      <trkpt lat="49.79973" lon="2.38788">
        <ele>36.3</ele>
        <time>2024-07-24T09:43:27Z</time>
      </trkpt>
      <trkpt lat="49.79973" lon="2.38788">
        <ele>36.2</ele>
        <time>2024-07-24T09:43:28Z</time>
      </trkpt>
      <trkpt lat="49.79974" lon="2.38788">
        <ele>36</ele>
        <time>2024-07-24T09:43:29Z</time>
      </trkpt>
      <trkpt lat="49.79974" lon="2.38788">
        <ele>35.9</ele>
        <time>2024-07-24T09:43:30Z</time>
      </trkpt>
      <trkpt lat="49.79974" lon="2.38788">
        <ele>35.8</ele>
        <time>2024-07-24T09:43:31Z</time>
      </trkpt>
      <trkpt lat="49.7998" lon="2.38781">
        <ele>35.6</ele>
        <time>2024-07-24T09:43:32Z</time>
      </trkpt>
      <trkpt lat="49.79987" lon="2.38774">
        <ele>35.5</ele>
        <time>2024-07-24T09:43:33Z</time>
      </trkpt>
      <trkpt lat="49.79994" lon="2.38767">
        <ele>35.3</ele>
        <time>2024-07-24T09:43:34Z</time>
      </trkpt>
      <trkpt lat="49.80001" lon="2.38761">
        <ele>35.1</ele>
        <time>2024-07-24T09:43:35Z</time>
      </trkpt>
      <trkpt lat="49.80007" lon="2.38754">
        <ele>34.9</ele>
        <time>2024-07-24T09:43:36Z</time>
      </trkpt>
      <trkpt lat="49.80014" lon="2.38747">
        <ele>34.6</ele>
        <time>2024-07-24T09:43:37Z</time>
      </trkpt>
      <trkpt lat="49.80021" lon="2.3874">
        <ele>34.4</ele>
        <time>2024-07-24T09:43:38Z</time>
      </trkpt>
      <trkpt lat="49.80028" lon="2.38734">
        <ele>34.1</ele>
        <time>2024-07-24T09:43:39Z</time>
      </trkpt>
      <trkpt lat="49.80034" lon="2.38727">
        <ele>33.8</ele>
        <time>2024-07-24T09:43:40Z</time>
      </trkpt>
      <trkpt lat="49.80041" lon="2.3872">
        <ele>33.5</ele>
        <time>2024-07-24T09:43:41Z</time>
      </trkpt>
      <trkpt lat="49.80048" lon="2.38713">
        <ele>33.3</ele>
        <time>2024-07-24T09:43:42Z</time>
      </trkpt>
      <trkpt lat="49.80055" lon="2.38706">
        <ele>33</ele>
        <time>2024-07-24T09:43:43Z</time>
      </trkpt>
      <trkpt lat="49.80061" lon="2.387">
        <ele>32.9</ele>
        <time>2024-07-24T09:43:44Z</time>
      </trkpt>
      <trkpt lat="49.80068" lon="2.38693">
        <ele>32.8</ele>
        <time>2024-07-24T09:43:45Z</time>
      </trkpt>
      <trkpt lat="49.80075" lon="2.38686">
        <ele>32.9</ele>
        <time>2024-07-24T09:43:46Z</time>
      </trkpt>
      <trkpt lat="49.80082" lon="2.38679">
        <ele>32.9</ele>
        <time>2024-07-24T09:43:47Z</time>
      </trkpt>
      <trkpt lat="49.80088" lon="2.38673">
        <ele>33.1</ele>
        <time>2024-07-24T09:43:48Z</time>
      </trkpt>
      <trkpt lat="49.80095" lon="2.38666">
        <ele>33.2</ele>
        <time>2024-07-24T09:43:49Z</time>
      </trkpt>
      <trkpt lat="49.80102" lon="2.38659">
        <ele>33.5</ele>
        <time>2024-07-24T09:43:50Z</time>
      </trkpt>
      <trkpt lat="49.80109" lon="2.38652">
        <ele>33.9</ele>
        <time>2024-07-24T09:43:51Z</time>
      </trkpt>
      <trkpt lat="49.80115" lon="2.38645">
        <ele>34.2</ele>
        <time>2024-07-24T09:43:52Z</time>
      </trkpt>
      <trkpt lat="49.80122" lon="2.38639">
        <ele>34.7</ele>
        <time>2024-07-24T09:43:53Z</time>
      </trkpt>
      <trkpt lat="49.80129" lon="2.38632">
        <ele>34.9</ele>
        <time>2024-07-24T09:43:54Z</time>
      </trkpt>
      <trkpt lat="49.80136" lon="2.38625">
        <ele>35.4</ele>
        <time>2024-07-24T09:43:55Z</time>
      </trkpt>
      <trkpt lat="49.80142" lon="2.38618">
        <ele>35.6</ele>
        <time>2024-07-24T09:43:56Z</time>
      </trkpt>
      <trkpt lat="49.80149" lon="2.38611">
        <ele>36</ele>
        <time>2024-07-24T09:43:57Z</time>
      </trkpt>
      <trkpt lat="49.80156" lon="2.38605">
        <ele>36.2</ele>
        <time>2024-07-24T09:43:58Z</time>
      </trkpt>
      <trkpt lat="49.80163" lon="2.38598">
        <ele>36.2</ele>
        <time>2024-07-24T09:43:59Z</time>
      </trkpt>
      <trkpt lat="49.80169" lon="2.38591">
        <ele>36.2</ele>
        <time>2024-07-24T09:44:00Z</time>
      </trkpt>
      <trkpt lat="49.80176" lon="2.38584">
        <ele>36.2</ele>
        <time>2024-07-24T09:44:01Z</time>
      </trkpt>
      <trkpt lat="49.80183" lon="2.38578">
        <ele>36.2</ele>
        <time>2024-07-24T09:44:02Z</time>
      </trkpt>
      <trkpt lat="49.8019" lon="2.38571">
        <ele>36.2</ele>
        <time>2024-07-24T09:44:03Z</time>
      </trkpt>
      <trkpt lat="49.80196" lon="2.38564">
        <ele>36.2</ele>
        <time>2024-07-24T09:44:04Z</time>
      </trkpt>
      <trkpt lat="49.80203" lon="2.38557">
        <ele>36.2</ele>
        <time>2024-07-24T09:44:05Z</time>
      </trkpt>
      <trkpt lat="49.8021" lon="2.3855">
        <ele>36.3</ele>
        <time>2024-07-24T09:44:06Z</time>
      </trkpt>
      <trkpt lat="49.80217" lon="2.38544">
        <ele>36.3</ele>
        <time>2024-07-24T09:44:07Z</time>
      </trkpt>
      <trkpt lat="49.80223" lon="2.38537">
        <ele>36.4</ele>
        <time>2024-07-24T09:44:08Z</time>
      </trkpt>
      <trkpt lat="49.8023" lon="2.3853">
        <ele>36.4</ele>
        <time>2024-07-24T09:44:09Z</time>
      </trkpt>
      <trkpt lat="49.80237" lon="2.38523">
        <ele>36.5</ele>
        <time>2024-07-24T09:44:10Z</time>
      </trkpt>
      <trkpt lat="49.80244" lon="2.38517">
        <ele>36.5</ele>
        <time>2024-07-24T09:44:11Z</time>
      </trkpt>
      <trkpt lat="49.8025" lon="2.3851">
        <ele>36.6</ele>
        <time>2024-07-24T09:44:12Z</time>
      </trkpt>
      <trkpt lat="49.80257" lon="2.38503">
        <ele>36.7</ele>
        <time>2024-07-24T09:44:13Z</time>
      </trkpt>
      <trkpt lat="49.80264" lon="2.38496">
        <ele>36.8</ele>
        <time>2024-07-24T09:44:14Z</time>
      </trkpt>
      <trkpt lat="49.80271" lon="2.38489">
        <ele>36.9</ele>
        <time>2024-07-24T09:44:15Z</time>
      </trkpt>
      <trkpt lat="49.80277" lon="2.38483">
        <ele>37</ele>
        <time>2024-07-24T09:44:16Z</time>
      </trkpt>
      <trkpt lat="49.80284" lon="2.38476">
        <ele>37.1</ele>
        <time>2024-07-24T09:44:17Z</time>
      </trkpt>
      <trkpt lat="49.80291" lon="2.38469">
        <ele>37.2</ele>
        <time>2024-07-24T09:44:18Z</time>
      </trkpt>
      <trkpt lat="49.80298" lon="2.38462">
        <ele>37.2</ele>
        <time>2024-07-24T09:44:19Z</time>
      </trkpt>
      <trkpt lat="49.80305" lon="2.38455">
        <ele>37.3</ele>
        <time>2024-07-24T09:44:20Z</time>
      </trkpt>
      <trkpt lat="49.80311" lon="2.38449">
        <ele>37.4</ele>
        <time>2024-07-24T09:44:21Z</time>
      </trkpt>
      <trkpt lat="49.80318" lon="2.38442">
        <ele>37.5</ele>
        <time>2024-07-24T09:44:22Z</time>
      </trkpt>
      <trkpt lat="49.80325" lon="2.38435">
        <ele>37.6</ele>
        <time>2024-07-24T09:44:23Z</time>
      </trkpt>
      <trkpt lat="49.80332" lon="2.38428">
        <ele>37.7</ele>
        <time>2024-07-24T09:44:24Z</time>
      </trkpt>
      <trkpt lat="49.80338" lon="2.38422">
        <ele>37.6</ele>
        <time>2024-07-24T09:44:25Z</time>
      </trkpt>
      <trkpt lat="49.80345" lon="2.38415">
        <ele>37.7</ele>
        <time>2024-07-24T09:44:26Z</time>
      </trkpt>
      <trkpt lat="49.80352" lon="2.38408">
        <ele>37.9</ele>
        <time>2024-07-24T09:44:27Z</time>
      </trkpt>
      <trkpt lat="49.80359" lon="2.38401">
        <ele>38.4</ele>
        <time>2024-07-24T09:44:28Z</time>
      </trkpt>
      <trkpt lat="49.80365" lon="2.38394">
        <ele>39.1</ele>
        <time>2024-07-24T09:44:29Z</time>
      </trkpt>
      <trkpt lat="49.80372" lon="2.38388">
        <ele>39.6</ele>
        <time>2024-07-24T09:44:30Z</time>
      </trkpt>
      <trkpt lat="49.80379" lon="2.38381">
        <ele>40.1</ele>
        <time>2024-07-24T09:44:31Z</time>
      </trkpt>
      <trkpt lat="49.80386" lon="2.38374">
        <ele>40.8</ele>
        <time>2024-07-24T09:44:32Z</time>
      </trkpt>
      <trkpt lat="49.80392" lon="2.38367">
        <ele>41.4</ele>
        <time>2024-07-24T09:44:33Z</time>
      </trkpt>
      <trkpt lat="49.80399" lon="2.3836">
        <ele>42.1</ele>
        <time>2024-07-24T09:44:34Z</time>
      </trkpt>
      <trkpt lat="49.80406" lon="2.38354">
        <ele>42.6</ele>
        <time>2024-07-24T09:44:35Z</time>
      </trkpt>
      <trkpt lat="49.80413" lon="2.38347">
        <ele>43.4</ele>
        <time>2024-07-24T09:44:36Z</time>
      </trkpt>
      <trkpt lat="49.80419" lon="2.3834">
        <ele>44</ele>
        <time>2024-07-24T09:44:37Z</time>
      </trkpt>
      <trkpt lat="49.80426" lon="2.38333">
        <ele>45</ele>
        <time>2024-07-24T09:44:38Z</time>
      </trkpt>
      <trkpt lat="49.80433" lon="2.38327">
        <ele>45.6</ele>
        <time>2024-07-24T09:44:39Z</time>
      </trkpt>
      <trkpt lat="49.8044" lon="2.3832">
        <ele>46.4</ele>
        <time>2024-07-24T09:44:40Z</time>
      </trkpt>
      <trkpt lat="49.80446" lon="2.38313">
        <ele>47.5</ele>
        <time>2024-07-24T09:44:41Z</time>
      </trkpt>
      <trkpt lat="49.80453" lon="2.38306">
        <ele>48</ele>
        <time>2024-07-24T09:44:42Z</time>
      </trkpt>
      <trkpt lat="49.8046" lon="2.38299">
        <ele>49</ele>
        <time>2024-07-24T09:44:43Z</time>
      </trkpt>
      <trkpt lat="49.80467" lon="2.38293">
        <ele>49.6</ele>
        <time>2024-07-24T09:44:44Z</time>
      </trkpt>
      <trkpt lat="49.80473" lon="2.38286">
        <ele>50.6</ele>
        <time>2024-07-24T09:44:45Z</time>
      </trkpt>
      <trkpt lat="49.8048" lon="2.38279">
        <ele>51</ele>
        <time>2024-07-24T09:44:46Z</time>
      </trkpt>
      <trkpt lat="49.80487" lon="2.38272">
        <ele>51.6</ele>
        <time>2024-07-24T09:44:47Z</time>
      </trkpt>
      <trkpt lat="49.80494" lon="2.38266">
        <ele>51.9</ele>
        <time>2024-07-24T09:44:48Z</time>
      </trkpt>
      <trkpt lat="49.805" lon="2.38259">
        <ele>52</ele>
        <time>2024-07-24T09:44:49Z</time>
      </trkpt>
      <trkpt lat="49.80507" lon="2.38252">
        <ele>52.2</ele>
        <time>2024-07-24T09:44:50Z</time>
      </trkpt>
      <trkpt lat="49.80514" lon="2.38245">
        <ele>52.3</ele>
        <time>2024-07-24T09:44:51Z</time>
      </trkpt>
      <trkpt lat="49.80521" lon="2.38238">
        <ele>52.6</ele>
        <time>2024-07-24T09:44:52Z</time>
      </trkpt>
      <trkpt lat="49.80527" lon="2.38232">
        <ele>53</ele>
        <time>2024-07-24T09:44:53Z</time>
      </trkpt>
      <trkpt lat="49.80534" lon="2.38225">
        <ele>53.4</ele>
        <time>2024-07-24T09:44:54Z</time>
      </trkpt>
      <trkpt lat="49.80541" lon="2.38218">
        <ele>54.2</ele>
        <time>2024-07-24T09:44:55Z</time>
      </trkpt>
      <trkpt lat="49.80548" lon="2.38211">
        <ele>54.7</ele>
        <time>2024-07-24T09:44:56Z</time>
      </trkpt>
      <trkpt lat="49.80554" lon="2.38204">
        <ele>55.6</ele>
        <time>2024-07-24T09:44:57Z</time>
      </trkpt>
      <trkpt lat="49.80561" lon="2.38198">
        <ele>56</ele>
        <time>2024-07-24T09:44:58Z</time>
      </trkpt>
      <trkpt lat="49.80568" lon="2.38191">
        <ele>56.2</ele>
        <time>2024-07-24T09:44:59Z</time>
      </trkpt>
      <trkpt lat="49.80575" lon="2.38184">
        <ele>55.8</ele>
        <time>2024-07-24T09:45:00Z</time>
      </trkpt>
      <trkpt lat="49.80581" lon="2.38177">
        <ele>54.7</ele>
        <time>2024-07-24T09:45:01Z</time>
      </trkpt>
      <trkpt lat="49.80588" lon="2.38171">
        <ele>53.3</ele>
        <time>2024-07-24T09:45:02Z</time>
      </trkpt>
      <trkpt lat="49.80595" lon="2.38164">
        <ele>51.9</ele>
        <time>2024-07-24T09:45:03Z</time>
      </trkpt>
      <trkpt lat="49.80602" lon="2.38157">
        <ele>49.6</ele>
        <time>2024-07-24T09:45:04Z</time>
      </trkpt>
      <trkpt lat="49.80608" lon="2.3815">
        <ele>47.4</ele>
        <time>2024-07-24T09:45:05Z</time>
      </trkpt>
      <trkpt lat="49.80615" lon="2.38143">
        <ele>45.1</ele>
        <time>2024-07-24T09:45:06Z</time>
      </trkpt>
      <trkpt lat="49.80622" lon="2.38137">
        <ele>43.2</ele>
        <time>2024-07-24T09:45:07Z</time>
      </trkpt>
      <trkpt lat="49.80629" lon="2.3813">
        <ele>42</ele>
        <time>2024-07-24T09:45:08Z</time>
      </trkpt>
      <trkpt lat="49.80635" lon="2.38123">
        <ele>41.3</ele>
        <time>2024-07-24T09:45:09Z</time>
      </trkpt>
      <trkpt lat="49.80642" lon="2.38116">
        <ele>41</ele>
        <time>2024-07-24T09:45:10Z</time>
      </trkpt>
      <trkpt lat="49.80649" lon="2.38109">
        <ele>41.1</ele>
        <time>2024-07-24T09:45:11Z</time>
      </trkpt>
      <trkpt lat="49.80656" lon="2.38103">
        <ele>41.3</ele>
        <time>2024-07-24T09:45:12Z</time>
      </trkpt>
      <trkpt lat="49.80662" lon="2.38096">
        <ele>41.4</ele>
        <time>2024-07-24T09:45:13Z</time>
      </trkpt>
      <trkpt lat="49.80669" lon="2.38089">
        <ele>41.5</ele>
        <time>2024-07-24T09:45:14Z</time>
      </trkpt>
      <trkpt lat="49.80676" lon="2.38082">
        <ele>41.5</ele>
        <time>2024-07-24T09:45:15Z</time>
      </trkpt>
      <trkpt lat="49.80683" lon="2.38076">
        <ele>41.7</ele>
        <time>2024-07-24T09:45:16Z</time>
      </trkpt>
      <trkpt lat="49.80689" lon="2.38069">
        <ele>41.8</ele>
        <time>2024-07-24T09:45:17Z</time>
      </trkpt>
      <trkpt lat="49.80696" lon="2.38062">
        <ele>42</ele>
        <time>2024-07-24T09:45:18Z</time>
      </trkpt>
      <trkpt lat="49.80703" lon="2.38055">
        <ele>42.3</ele>
        <time>2024-07-24T09:45:19Z</time>
      </trkpt>
      <trkpt lat="49.8071" lon="2.38048">
        <ele>42.5</ele>
        <time>2024-07-24T09:45:20Z</time>
      </trkpt>
      <trkpt lat="49.80716" lon="2.38042">
        <ele>42.9</ele>
        <time>2024-07-24T09:45:21Z</time>
      </trkpt>
      <trkpt lat="49.80723" lon="2.38035">
        <ele>43.3</ele>
        <time>2024-07-24T09:45:22Z</time>
      </trkpt>
      <trkpt lat="49.8073" lon="2.38028">
        <ele>43.7</ele>
        <time>2024-07-24T09:45:23Z</time>
      </trkpt>
      <trkpt lat="49.80737" lon="2.38021">
        <ele>44.2</ele>
        <time>2024-07-24T09:45:24Z</time>
      </trkpt>
      <trkpt lat="49.80743" lon="2.38015">
        <ele>44.5</ele>
        <time>2024-07-24T09:45:25Z</time>
      </trkpt>
      <trkpt lat="49.8075" lon="2.38008">
        <ele>45.1</ele>
        <time>2024-07-24T09:45:26Z</time>
      </trkpt>
      <trkpt lat="49.80757" lon="2.38001">
        <ele>45.4</ele>
        <time>2024-07-24T09:45:27Z</time>
      </trkpt>
      <trkpt lat="49.80764" lon="2.37994">
        <ele>45.9</ele>
        <time>2024-07-24T09:45:28Z</time>
      </trkpt>
      <trkpt lat="49.8077" lon="2.37987">
        <ele>46.3</ele>
        <time>2024-07-24T09:45:29Z</time>
      </trkpt>
      <trkpt lat="49.80777" lon="2.37981">
        <ele>46.8</ele>
        <time>2024-07-24T09:45:30Z</time>
      </trkpt>
      <trkpt lat="49.80784" lon="2.37974">
        <ele>47.5</ele>
        <time>2024-07-24T09:45:31Z</time>
      </trkpt>
      <trkpt lat="49.80791" lon="2.37967">
        <ele>47.8</ele>
        <time>2024-07-24T09:45:32Z</time>
      </trkpt>
      <trkpt lat="49.80797" lon="2.3796">
        <ele>48.3</ele>
        <time>2024-07-24T09:45:33Z</time>
      </trkpt>
      <trkpt lat="49.80804" lon="2.37953">
        <ele>48.6</ele>
        <time>2024-07-24T09:45:34Z</time>
      </trkpt>
      <trkpt lat="49.80811" lon="2.37947">
        <ele>48.9</ele>
        <time>2024-07-24T09:45:35Z</time>
      </trkpt>
      <trkpt lat="49.80818" lon="2.3794">
        <ele>49.2</ele>
        <time>2024-07-24T09:45:36Z</time>
      </trkpt>
      <trkpt lat="49.80824" lon="2.37933">
        <ele>49.4</ele>
        <time>2024-07-24T09:45:37Z</time>
      </trkpt>
      <trkpt lat="49.80831" lon="2.37926">
        <ele>49.7</ele>
        <time>2024-07-24T09:45:38Z</time>
      </trkpt>
      <trkpt lat="49.80838" lon="2.3792">
        <ele>50</ele>
        <time>2024-07-24T09:45:39Z</time>
      </trkpt>
      <trkpt lat="49.80845" lon="2.37913">
        <ele>50.5</ele>
        <time>2024-07-24T09:45:40Z</time>
      </trkpt>
      <trkpt lat="49.80851" lon="2.37906">
        <ele>50.8</ele>
        <time>2024-07-24T09:45:41Z</time>
      </trkpt>
      <trkpt lat="49.80858" lon="2.37899">
        <ele>51.3</ele>
        <time>2024-07-24T09:45:42Z</time>
      </trkpt>
      <trkpt lat="49.80865" lon="2.37892">
        <ele>51.7</ele>
        <time>2024-07-24T09:45:43Z</time>
      </trkpt>
      <trkpt lat="49.80872" lon="2.37886">
        <ele>52</ele>
        <time>2024-07-24T09:45:44Z</time>
      </trkpt>
      <trkpt lat="49.80878" lon="2.37879">
        <ele>52.7</ele>
        <time>2024-07-24T09:45:45Z</time>
      </trkpt>
      <trkpt lat="49.80885" lon="2.37872">
        <ele>53.1</ele>
        <time>2024-07-24T09:45:46Z</time>
      </trkpt>
      <trkpt lat="49.80892" lon="2.37865">
        <ele>54</ele>
        <time>2024-07-24T09:45:47Z</time>
      </trkpt>
      <trkpt lat="49.80899" lon="2.37858">
        <ele>54.4</ele>
        <time>2024-07-24T09:45:48Z</time>
      </trkpt>
      <trkpt lat="49.80905" lon="2.37852">
        <ele>55.1</ele>
        <time>2024-07-24T09:45:49Z</time>
      </trkpt>
      <trkpt lat="49.80912" lon="2.37845">
        <ele>55.8</ele>
        <time>2024-07-24T09:45:50Z</time>
      </trkpt>
      <trkpt lat="49.80919" lon="2.37838">
        <ele>56.4</ele>
        <time>2024-07-24T09:45:51Z</time>
      </trkpt>
      <trkpt lat="49.80926" lon="2.37831">
        <ele>57.7</ele>
        <time>2024-07-24T09:45:52Z</time>
      </trkpt>
      <trkpt lat="49.80932" lon="2.37825">
        <ele>58.3</ele>
        <time>2024-07-24T09:45:53Z</time>
      </trkpt>
      <trkpt lat="49.80939" lon="2.37818">
        <ele>59.3</ele>
        <time>2024-07-24T09:45:54Z</time>
      </trkpt>
      <trkpt lat="49.80946" lon="2.37811">
        <ele>60.1</ele>
        <time>2024-07-24T09:45:55Z</time>
      </trkpt>
      <trkpt lat="49.80953" lon="2.37804">
        <ele>61.2</ele>
        <time>2024-07-24T09:45:56Z</time>
      </trkpt>
      <trkpt lat="49.80959" lon="2.37797">
        <ele>62.4</ele>
        <time>2024-07-24T09:45:57Z</time>
      </trkpt>
      <trkpt lat="49.80966" lon="2.37791">
        <ele>64</ele>
        <time>2024-07-24T09:45:58Z</time>
      </trkpt>
      <trkpt lat="49.80973" lon="2.37784">
        <ele>65.4</ele>
        <time>2024-07-24T09:45:59Z</time>
      </trkpt>
      <trkpt lat="49.8098" lon="2.37777">
        <ele>66.4</ele>
        <time>2024-07-24T09:46:00Z</time>
      </trkpt>
      <trkpt lat="49.80986" lon="2.3777">
        <ele>67.8</ele>
        <time>2024-07-24T09:46:01Z</time>
      </trkpt>
      <trkpt lat="49.80993" lon="2.37763">
        <ele>68.9</ele>
        <time>2024-07-24T09:46:02Z</time>
      </trkpt>
      <trkpt lat="49.81" lon="2.37757">
        <ele>70.4</ele>
        <time>2024-07-24T09:46:03Z</time>
      </trkpt>
      <trkpt lat="49.81007" lon="2.3775">
        <ele>71.7</ele>
        <time>2024-07-24T09:46:04Z</time>
      </trkpt>
      <trkpt lat="49.81013" lon="2.37743">
        <ele>73.3</ele>
        <time>2024-07-24T09:46:05Z</time>
      </trkpt>
      <trkpt lat="49.8102" lon="2.37736">
        <ele>74.8</ele>
        <time>2024-07-24T09:46:06Z</time>
      </trkpt>
      <trkpt lat="49.81027" lon="2.3773">
        <ele>76.9</ele>
        <time>2024-07-24T09:46:07Z</time>
      </trkpt>
      <trkpt lat="49.81034" lon="2.37723">
        <ele>78.3</ele>
        <time>2024-07-24T09:46:08Z</time>
      </trkpt>
      <trkpt lat="49.8104" lon="2.37716">
        <ele>79.8</ele>
        <time>2024-07-24T09:46:09Z</time>
      </trkpt>
      <trkpt lat="49.81047" lon="2.37709">
        <ele>81.5</ele>
        <time>2024-07-24T09:46:10Z</time>
      </trkpt>
      <trkpt lat="49.81054" lon="2.37702">
        <ele>83.3</ele>
        <time>2024-07-24T09:46:11Z</time>
      </trkpt>
      <trkpt lat="49.81061" lon="2.37696">
        <ele>85.2</ele>
        <time>2024-07-24T09:46:12Z</time>
      </trkpt>
      <trkpt lat="49.81067" lon="2.37689">
        <ele>86.7</ele>
        <time>2024-07-24T09:46:13Z</time>
      </trkpt>
      <trkpt lat="49.81074" lon="2.37682">
        <ele>88.4</ele>
        <time>2024-07-24T09:46:14Z</time>
      </trkpt>
      <trkpt lat="49.81081" lon="2.37675">
        <ele>89.5</ele>
        <time>2024-07-24T09:46:15Z</time>
      </trkpt>
      <trkpt lat="49.81088" lon="2.37668">
        <ele>91.2</ele>
        <time>2024-07-24T09:46:16Z</time>
      </trkpt>
      <trkpt lat="49.81094" lon="2.37662">
        <ele>92.4</ele>
        <time>2024-07-24T09:46:17Z</time>
      </trkpt>
      <trkpt lat="49.81101" lon="2.37655">
        <ele>93.5</ele>
        <time>2024-07-24T09:46:18Z</time>
      </trkpt>
      <trkpt lat="49.81108" lon="2.37648">
        <ele>93.9</ele>
        <time>2024-07-24T09:46:19Z</time>
      </trkpt>
      <trkpt lat="49.81115" lon="2.37641">
        <ele>94.3</ele>
        <time>2024-07-24T09:46:20Z</time>
      </trkpt>
      <trkpt lat="49.81121" lon="2.37635">
        <ele>94.3</ele>
        <time>2024-07-24T09:46:21Z</time>
      </trkpt>
      <trkpt lat="49.81128" lon="2.37628">
        <ele>94.2</ele>
        <time>2024-07-24T09:46:22Z</time>
      </trkpt>
      <trkpt lat="49.81135" lon="2.37621">
        <ele>94.3</ele>
        <time>2024-07-24T09:46:23Z</time>
      </trkpt>
      <trkpt lat="49.81142" lon="2.37614">
        <ele>94.4</ele>
        <time>2024-07-24T09:46:24Z</time>
      </trkpt>
      <trkpt lat="49.81148" lon="2.37607">
        <ele>94.5</ele>
        <time>2024-07-24T09:46:25Z</time>
      </trkpt>
      <trkpt lat="49.81155" lon="2.37601">
        <ele>94.5</ele>
        <time>2024-07-24T09:46:26Z</time>
      </trkpt>
      <trkpt lat="49.81162" lon="2.37594">
        <ele>94.5</ele>
        <time>2024-07-24T09:46:27Z</time>
      </trkpt>
      <trkpt lat="49.81169" lon="2.37587">
        <ele>94.7</ele>
        <time>2024-07-24T09:46:28Z</time>
      </trkpt>
      <trkpt lat="49.81175" lon="2.3758">
        <ele>95</ele>
        <time>2024-07-24T09:46:29Z</time>
      </trkpt>
      <trkpt lat="49.81182" lon="2.37573">
        <ele>95.5</ele>
        <time>2024-07-24T09:46:30Z</time>
      </trkpt>
      <trkpt lat="49.81189" lon="2.37567">
        <ele>95.8</ele>
        <time>2024-07-24T09:46:31Z</time>
      </trkpt>
      <trkpt lat="49.81196" lon="2.3756">
        <ele>96.1</ele>
        <time>2024-07-24T09:46:32Z</time>
      </trkpt>
      <trkpt lat="49.81202" lon="2.37553">
        <ele>96.5</ele>
        <time>2024-07-24T09:46:33Z</time>
      </trkpt>
      <trkpt lat="49.81209" lon="2.37546">
        <ele>96.7</ele>
        <time>2024-07-24T09:46:34Z</time>
      </trkpt>
      <trkpt lat="49.81216" lon="2.3754">
        <ele>97.1</ele>
        <time>2024-07-24T09:46:35Z</time>
      </trkpt>
      <trkpt lat="49.81223" lon="2.37533">
        <ele>97.2</ele>
        <time>2024-07-24T09:46:36Z</time>
      </trkpt>
      <trkpt lat="49.81229" lon="2.37526">
        <ele>97.5</ele>
        <time>2024-07-24T09:46:37Z</time>
      </trkpt>
      <trkpt lat="49.81236" lon="2.37519">
        <ele>97.7</ele>
        <time>2024-07-24T09:46:38Z</time>
      </trkpt>
      <trkpt lat="49.81243" lon="2.37512">
        <ele>97.7</ele>
        <time>2024-07-24T09:46:39Z</time>
      </trkpt>
      <trkpt lat="49.8125" lon="2.37506">
        <ele>97.7</ele>
        <time>2024-07-24T09:46:40Z</time>
      </trkpt>
      <trkpt lat="49.81256" lon="2.37499">
        <ele>97.7</ele>
        <time>2024-07-24T09:46:41Z</time>
      </trkpt>
      <trkpt lat="49.81263" lon="2.37492">
        <ele>97.6</ele>
        <time>2024-07-24T09:46:42Z</time>
      </trkpt>
      <trkpt lat="49.8127" lon="2.37485">
        <ele>97.6</ele>
        <time>2024-07-24T09:46:43Z</time>
      </trkpt>
      <trkpt lat="49.81277" lon="2.37478">
        <ele>97.7</ele>
        <time>2024-07-24T09:46:44Z</time>
      </trkpt>
      <trkpt lat="49.81283" lon="2.37472">
        <ele>97.9</ele>
        <time>2024-07-24T09:46:45Z</time>
      </trkpt>
      <trkpt lat="49.8129" lon="2.37465">
        <ele>97.9</ele>
        <time>2024-07-24T09:46:46Z</time>
      </trkpt>
      <trkpt lat="49.81297" lon="2.37458">
        <ele>98.1</ele>
        <time>2024-07-24T09:46:47Z</time>
      </trkpt>
      <trkpt lat="49.81304" lon="2.37451">
        <ele>98.2</ele>
        <time>2024-07-24T09:46:48Z</time>
      </trkpt>
      <trkpt lat="49.8131" lon="2.37445">
        <ele>98.4</ele>
        <time>2024-07-24T09:46:49Z</time>
      </trkpt>
      <trkpt lat="49.81317" lon="2.37438">
        <ele>98.7</ele>
        <time>2024-07-24T09:46:50Z</time>
      </trkpt>
      <trkpt lat="49.81324" lon="2.37431">
        <ele>98.8</ele>
        <time>2024-07-24T09:46:51Z</time>
      </trkpt>
      <trkpt lat="49.81331" lon="2.37424">
        <ele>99.1</ele>
        <time>2024-07-24T09:46:52Z</time>
      </trkpt>
      <trkpt lat="49.81337" lon="2.37417">
        <ele>99.2</ele>
        <time>2024-07-24T09:46:53Z</time>
      </trkpt>
      <trkpt lat="49.81344" lon="2.37411">
        <ele>99.5</ele>
        <time>2024-07-24T09:46:54Z</time>
      </trkpt>
      <trkpt lat="49.81351" lon="2.37404">
        <ele>99.7</ele>
        <time>2024-07-24T09:46:55Z</time>
      </trkpt>
      <trkpt lat="49.81358" lon="2.37397">
        <ele>100</ele>
        <time>2024-07-24T09:46:56Z</time>
      </trkpt>
      <trkpt lat="49.81364" lon="2.3739">
        <ele>100.3</ele>
        <time>2024-07-24T09:46:57Z</time>
      </trkpt>
      <trkpt lat="49.81371" lon="2.37383">
        <ele>100.6</ele>
        <time>2024-07-24T09:46:58Z</time>
      </trkpt>
      <trkpt lat="49.81378" lon="2.37377">
        <ele>100.9</ele>
        <time>2024-07-24T09:46:59Z</time>
      </trkpt>
      <trkpt lat="49.81385" lon="2.3737">
        <ele>101.1</ele>
        <time>2024-07-24T09:47:01Z</time>
      </trkpt>
      <trkpt lat="49.81391" lon="2.37363">
        <ele>101.4</ele>
        <time>2024-07-24T09:47:03Z</time>
      </trkpt>
      <trkpt lat="49.81398" lon="2.37356">
        <ele>101.6</ele>
        <time>2024-07-24T09:47:05Z</time>
      </trkpt>
      <trkpt lat="49.81405" lon="2.3735">
        <ele>101.9</ele>
        <time>2024-07-24T09:47:07Z</time>
      </trkpt>
      <trkpt lat="49.81412" lon="2.37343">
        <ele>102.1</ele>
        <time>2024-07-24T09:47:09Z</time>
      </trkpt>
      <trkpt lat="49.81418" lon="2.37336">
        <ele>102.2</ele>
        <time>2024-07-24T09:47:11Z</time>
      </trkpt>
      <trkpt lat="49.81425" lon="2.37329">
        <ele>102.3</ele>
        <time>2024-07-24T09:47:13Z</time>
      </trkpt>
      <trkpt lat="49.81432" lon="2.37322">
        <ele>102.4</ele>
        <time>2024-07-24T09:47:15Z</time>
      </trkpt>
      <trkpt lat="49.81439" lon="2.37316">
        <ele>102.5</ele>
        <time>2024-07-24T09:47:17Z</time>
      </trkpt>
      <trkpt lat="49.81445" lon="2.37309">
        <ele>102.6</ele>
        <time>2024-07-24T09:47:19Z</time>
      </trkpt>
      <trkpt lat="49.81452" lon="2.37302">
        <ele>102.7</ele>
        <time>2024-07-24T09:47:21Z</time>
      </trkpt>
      <trkpt lat="49.81459" lon="2.37295">
        <ele>102.8</ele>
        <time>2024-07-24T09:47:23Z</time>
      </trkpt>
      <trkpt lat="49.81466" lon="2.37288">
        <ele>102.9</ele>
        <time>2024-07-24T09:47:25Z</time>
      </trkpt>
      <trkpt lat="49.81472" lon="2.37282">
        <ele>103</ele>
        <time>2024-07-24T09:47:27Z</time>
      </trkpt>
      <trkpt lat="49.81479" lon="2.37275">
        <ele>103</ele>
        <time>2024-07-24T09:47:29Z</time>
      </trkpt>
      <trkpt lat="49.81486" lon="2.37268">
        <ele>103.2</ele>
        <time>2024-07-24T09:47:31Z</time>
      </trkpt>
      <trkpt lat="49.81493" lon="2.37261">
        <ele>103.5</ele>
        <time>2024-07-24T09:47:33Z</time>
      </trkpt>
      <trkpt lat="49.81499" lon="2.37255">
        <ele>103.6</ele>
        <time>2024-07-24T09:47:35Z</time>
      </trkpt>
      <trkpt lat="49.81506" lon="2.37248">
        <ele>103.9</ele>
        <time>2024-07-24T09:47:37Z</time>
      </trkpt>
      <trkpt lat="49.81513" lon="2.37241">
        <ele>104</ele>
        <time>2024-07-24T09:47:39Z</time>
      </trkpt>
      <trkpt lat="49.8152" lon="2.37234">
        <ele>104.2</ele>
        <time>2024-07-24T09:47:41Z</time>
      </trkpt>
      <trkpt lat="49.81527" lon="2.37227">
        <ele>104.3</ele>
        <time>2024-07-24T09:47:43Z</time>
      </trkpt>
      <trkpt lat="49.81533" lon="2.37221">
        <ele>104.3</ele>
        <time>2024-07-24T09:47:45Z</time>
      </trkpt>
      <trkpt lat="49.8154" lon="2.37214">
        <ele>104.4</ele>
        <time>2024-07-24T09:47:47Z</time>
      </trkpt>
      <trkpt lat="49.81547" lon="2.37207">
        <ele>104.4</ele>
        <time>2024-07-24T09:47:49Z</time>
      </trkpt>
      <trkpt lat="49.81554" lon="2.372">
        <ele>104.3</ele>
        <time>2024-07-24T09:47:51Z</time>
      </trkpt>
      <trkpt lat="49.8156" lon="2.37193">
        <ele>104.2</ele>
        <time>2024-07-24T09:47:53Z</time>
      </trkpt>
      <trkpt lat="49.81567" lon="2.37187">
        <ele>104</ele>
        <time>2024-07-24T09:47:55Z</time>
      </trkpt>
      <trkpt lat="49.81574" lon="2.3718">
        <ele>103.9</ele>
        <time>2024-07-24T09:47:57Z</time>
      </trkpt>
      <trkpt lat="49.81581" lon="2.37173">
        <ele>103.7</ele>
        <time>2024-07-24T09:47:59Z</time>
      </trkpt>
      <trkpt lat="49.81587" lon="2.37166">
        <ele>103.2</ele>
        <time>2024-07-24T09:48:01Z</time>
      </trkpt>
      <trkpt lat="49.81594" lon="2.37159">
        <ele>102.7</ele>
        <time>2024-07-24T09:48:03Z</time>
      </trkpt>
      <trkpt lat="49.81601" lon="2.37153">
        <ele>102.1</ele>
        <time>2024-07-24T09:48:05Z</time>
      </trkpt>
      <trkpt lat="49.81608" lon="2.37146">
        <ele>101.6</ele>
        <time>2024-07-24T09:48:07Z</time>
      </trkpt>
      <trkpt lat="49.81614" lon="2.37139">
        <ele>100.8</ele>
        <time>2024-07-24T09:48:09Z</time>
      </trkpt>
      <trkpt lat="49.81621" lon="2.37132">
        <ele>100.3</ele>
        <time>2024-07-24T09:48:11Z</time>
      </trkpt>
      <trkpt lat="49.81628" lon="2.37126">
        <ele>99.8</ele>
        <time>2024-07-24T09:48:13Z</time>
      </trkpt>
      <trkpt lat="49.81635" lon="2.37119">
        <ele>98.7</ele>
        <time>2024-07-24T09:48:15Z</time>
      </trkpt>
      <trkpt lat="49.81641" lon="2.37112">
        <ele>97.8</ele>
        <time>2024-07-24T09:48:17Z</time>
      </trkpt>
      <trkpt lat="49.81648" lon="2.37105">
        <ele>96.3</ele>
        <time>2024-07-24T09:48:19Z</time>
      </trkpt>
      <trkpt lat="49.81655" lon="2.37098">
        <ele>95.3</ele>
        <time>2024-07-24T09:48:21Z</time>
      </trkpt>
      <trkpt lat="49.81662" lon="2.37092">
        <ele>94</ele>
        <time>2024-07-24T09:48:23Z</time>
      </trkpt>
      <trkpt lat="49.81668" lon="2.37085">
        <ele>93.1</ele>
        <time>2024-07-24T09:48:25Z</time>
      </trkpt>
      <trkpt lat="49.81675" lon="2.37078">
        <ele>91.9</ele>
        <time>2024-07-24T09:48:27Z</time>
      </trkpt>
      <trkpt lat="49.81682" lon="2.37071">
        <ele>91.1</ele>
        <time>2024-07-24T09:48:29Z</time>
      </trkpt>
      <trkpt lat="49.81689" lon="2.37064">
        <ele>90.6</ele>
        <time>2024-07-24T09:48:31Z</time>
      </trkpt>
      <trkpt lat="49.81695" lon="2.37058">
        <ele>89.9</ele>
        <time>2024-07-24T09:48:33Z</time>
      </trkpt>
      <trkpt lat="49.81702" lon="2.37051">
        <ele>89.6</ele>
        <time>2024-07-24T09:48:35Z</time>
      </trkpt>
      <trkpt lat="49.81709" lon="2.37044">
        <ele>89.2</ele>
        <time>2024-07-24T09:48:37Z</time>
      </trkpt>
      <trkpt lat="49.81716" lon="2.37037">
        <ele>88.7</ele>
        <time>2024-07-24T09:48:39Z</time>
      </trkpt>
      <trkpt lat="49.81722" lon="2.37031">
        <ele>88.1</ele>
        <time>2024-07-24T09:48:41Z</time>
      </trkpt>
      <trkpt lat="49.81729" lon="2.37024">
        <ele>87.7</ele>
        <time>2024-07-24T09:48:43Z</time>
      </trkpt>
      <trkpt lat="49.81736" lon="2.37017">
        <ele>87.5</ele>
        <time>2024-07-24T09:48:45Z</time>
      </trkpt>
      <trkpt lat="49.81743" lon="2.3701">
        <ele>87.4</ele>
        <time>2024-07-24T09:48:47Z</time>
      </trkpt>
      <trkpt lat="49.81749" lon="2.37003">
        <ele>87.5</ele>
        <time>2024-07-24T09:48:49Z</time>
      </trkpt>
      <trkpt lat="49.81756" lon="2.36997">
        <ele>87.7</ele>
        <time>2024-07-24T09:48:51Z</time>
      </trkpt>
      <trkpt lat="49.81763" lon="2.3699">
        <ele>88.3</ele>
        <time>2024-07-24T09:48:53Z</time>
      </trkpt>
      <trkpt lat="49.8177" lon="2.36983">
        <ele>89.1</ele>
        <time>2024-07-24T09:48:55Z</time>
      </trkpt>
      <trkpt lat="49.81776" lon="2.36976">
        <ele>90</ele>
        <time>2024-07-24T09:48:57Z</time>
      </trkpt>
      <trkpt lat="49.81783" lon="2.36969">
        <ele>91.1</ele>
        <time>2024-07-24T09:48:59Z</time>
      </trkpt>
      <trkpt lat="49.8179" lon="2.36963">
        <ele>91.8</ele>
        <time>2024-07-24T09:49:01Z</time>
      </trkpt>
      <trkpt lat="49.81797" lon="2.36956">
        <ele>92.7</ele>
        <time>2024-07-24T09:49:03Z</time>
      </trkpt>
      <trkpt lat="49.81803" lon="2.36949">
        <ele>93.9</ele>
        <time>2024-07-24T09:49:05Z</time>
      </trkpt>
      <trkpt lat="49.8181" lon="2.36942">
        <ele>95</ele>
        <time>2024-07-24T09:49:07Z</time>
      </trkpt>
      <trkpt lat="49.81817" lon="2.36936">
        <ele>96.1</ele>
        <time>2024-07-24T09:49:09Z</time>
      </trkpt>
      <trkpt lat="49.81824" lon="2.36929">
        <ele>96.7</ele>
        <time>2024-07-24T09:49:11Z</time>
      </trkpt>
      <trkpt lat="49.8183" lon="2.36922">
        <ele>97.4</ele>
        <time>2024-07-24T09:49:13Z</time>
      </trkpt>
      <trkpt lat="49.81837" lon="2.36915">
        <ele>97.7</ele>
        <time>2024-07-24T09:49:15Z</time>
      </trkpt>
      <trkpt lat="49.81844" lon="2.36908">
        <ele>98.1</ele>
        <time>2024-07-24T09:49:17Z</time>
      </trkpt>
      <trkpt lat="49.81851" lon="2.36902">
        <ele>98.5</ele>
        <time>2024-07-24T09:49:19Z</time>
      </trkpt>
      <trkpt lat="49.81857" lon="2.36895">
        <ele>99.2</ele>
        <time>2024-07-24T09:49:21Z</time>
      </trkpt>
      <trkpt lat="49.81864" lon="2.36888">
        <ele>100.2</ele>
        <time>2024-07-24T09:49:23Z</time>
      </trkpt>
      <trkpt lat="49.81871" lon="2.36881">
        <ele>100.8</ele>
        <time>2024-07-24T09:49:25Z</time>
      </trkpt>
      <trkpt lat="49.81878" lon="2.36874">
        <ele>101.9</ele>
        <time>2024-07-24T09:49:27Z</time>
      </trkpt>
      <trkpt lat="49.81884" lon="2.36868">
        <ele>102.6</ele>
        <time>2024-07-24T09:49:29Z</time>
      </trkpt>
      <trkpt lat="49.81891" lon="2.36861">
        <ele>103.9</ele>
        <time>2024-07-24T09:49:31Z</time>
      </trkpt>
      <trkpt lat="49.81898" lon="2.36854">
        <ele>104.8</ele>
        <time>2024-07-24T09:49:33Z</time>
      </trkpt>
      <trkpt lat="49.81905" lon="2.36847">
        <ele>105.5</ele>
        <time>2024-07-24T09:49:35Z</time>
      </trkpt>
      <trkpt lat="49.81911" lon="2.3684">
        <ele>106.9</ele>
        <time>2024-07-24T09:49:37Z</time>
      </trkpt>
      <trkpt lat="49.81918" lon="2.36834">
        <ele>107.9</ele>
        <time>2024-07-24T09:49:39Z</time>
      </trkpt>
      <trkpt lat="49.81925" lon="2.36827">
        <ele>109.4</ele>
        <time>2024-07-24T09:49:41Z</time>
      </trkpt>
      <trkpt lat="49.81932" lon="2.3682">
        <ele>110.2</ele>
        <time>2024-07-24T09:49:43Z</time>
      </trkpt>
      <trkpt lat="49.81938" lon="2.36813">
        <ele>112</ele>
        <time>2024-07-24T09:49:45Z</time>
      </trkpt>
      <trkpt lat="49.81945" lon="2.36807">
        <ele>113.5</ele>
        <time>2024-07-24T09:51:32Z</time>
      </trkpt>
      <trkpt lat="49.81952" lon="2.368">
        <ele>114.8</ele>
        <time>2024-07-24T09:51:34Z</time>
      </trkpt>
      <trkpt lat="49.81959" lon="2.36793">
        <ele>115.7</ele>
        <time>2024-07-24T09:51:36Z</time>
      </trkpt>
      <trkpt lat="49.81965" lon="2.36786">
        <ele>116.1</ele>
        <time>2024-07-24T09:52:34Z</time>
      </trkpt>
      <trkpt lat="49.81972" lon="2.36779">
        <ele>116.7</ele>
        <time>2024-07-24T09:52:36Z</time>
      </trkpt>
      <trkpt lat="49.81979" lon="2.36773">
        <ele>117</ele>
        <time>2024-07-24T09:52:38Z</time>
      </trkpt>
      <trkpt lat="49.81986" lon="2.36766">
        <ele>117.1</ele>
        <time>2024-07-24T09:52:40Z</time>
      </trkpt>
      <trkpt lat="49.81992" lon="2.36759">
        <ele>117</ele>
        <time>2024-07-24T09:52:42Z</time>
      </trkpt>
      <trkpt lat="49.81999" lon="2.36752">
        <ele>117.1</ele>
        <time>2024-07-24T09:52:44Z</time>
      </trkpt>
      <trkpt lat="49.82006" lon="2.36745">
        <ele>117</ele>
        <time>2024-07-24T09:52:46Z</time>
      </trkpt>
      <trkpt lat="49.82013" lon="2.36739">
        <ele>117</ele>
        <time>2024-07-24T09:52:48Z</time>
      </trkpt>
      <trkpt lat="49.82019" lon="2.36732">
        <ele>116.9</ele>
        <time>2024-07-24T09:52:50Z</time>
      </trkpt>
      <trkpt lat="49.82026" lon="2.36725">
        <ele>116.8</ele>
        <time>2024-07-24T09:52:52Z</time>
      </trkpt>
      <trkpt lat="49.82033" lon="2.36718">
        <ele>116.9</ele>
        <time>2024-07-24T09:52:54Z</time>
      </trkpt>
      <trkpt lat="49.8204" lon="2.36712">
        <ele>116.9</ele>
        <time>2024-07-24T09:52:56Z</time>
      </trkpt>
      <trkpt lat="49.82046" lon="2.36705">
        <ele>117</ele>
        <time>2024-07-24T09:52:58Z</time>
      </trkpt>
      <trkpt lat="49.82053" lon="2.36698">
        <ele>117.1</ele>
        <time>2024-07-24T09:53:00Z</time>
      </trkpt>
      <trkpt lat="49.8206" lon="2.36691">
        <ele>117.3</ele>
        <time>2024-07-24T09:53:02Z</time>
      </trkpt>
      <trkpt lat="49.82067" lon="2.36684">
        <ele>117.5</ele>
        <time>2024-07-24T09:53:04Z</time>
      </trkpt>
      <trkpt lat="49.82073" lon="2.36678">
        <ele>117.7</ele>
        <time>2024-07-24T09:53:06Z</time>
      </trkpt>
      <trkpt lat="49.8208" lon="2.36671">
        <ele>117.9</ele>
        <time>2024-07-24T09:53:08Z</time>
      </trkpt>
      <trkpt lat="49.82087" lon="2.36664">
        <ele>118.2</ele>
        <time>2024-07-24T09:53:10Z</time>
      </trkpt>
      <trkpt lat="49.82094" lon="2.36657">
        <ele>118.4</ele>
        <time>2024-07-24T09:53:12Z</time>
      </trkpt>
      <trkpt lat="49.821" lon="2.3665">
        <ele>118.8</ele>
        <time>2024-07-24T09:53:14Z</time>
      </trkpt>
      <trkpt lat="49.82107" lon="2.36644">
        <ele>119.2</ele>
        <time>2024-07-24T09:53:16Z</time>
      </trkpt>
      <trkpt lat="49.82114" lon="2.36637">
        <ele>119.4</ele>
        <time>2024-07-24T09:53:18Z</time>
      </trkpt>
      <trkpt lat="49.82121" lon="2.3663">
        <ele>119.6</ele>
        <time>2024-07-24T09:53:20Z</time>
      </trkpt>
      <trkpt lat="49.82127" lon="2.36623">
        <ele>119.5</ele>
        <time>2024-07-24T09:53:22Z</time>
      </trkpt>
      <trkpt lat="49.82134" lon="2.36616">
        <ele>119.4</ele>
        <time>2024-07-24T09:53:24Z</time>
      </trkpt>
      <trkpt lat="49.82141" lon="2.3661">
        <ele>118.8</ele>
        <time>2024-07-24T09:53:26Z</time>
      </trkpt>
      <trkpt lat="49.82148" lon="2.36603">
        <ele>118.3</ele>
        <time>2024-07-24T09:53:28Z</time>
      </trkpt>
      <trkpt lat="49.82154" lon="2.36596">
        <ele>117.4</ele>
        <time>2024-07-24T09:53:30Z</time>
      </trkpt>
      <trkpt lat="49.82161" lon="2.36589">
        <ele>116.7</ele>
        <time>2024-07-24T09:53:32Z</time>
      </trkpt>
      <trkpt lat="49.82168" lon="2.36583">
        <ele>115.6</ele>
        <time>2024-07-24T09:53:34Z</time>
      </trkpt>
      <trkpt lat="49.82175" lon="2.36576">
        <ele>114.9</ele>
        <time>2024-07-24T09:53:36Z</time>
      </trkpt>
      <trkpt lat="49.82181" lon="2.36569">
        <ele>114.6</ele>
        <time>2024-07-24T09:53:38Z</time>
      </trkpt>
      <trkpt lat="49.82188" lon="2.36562">
        <ele>114.4</ele>
        <time>2024-07-24T09:53:41Z</time>
      </trkpt>
      <trkpt lat="49.82195" lon="2.36555">
        <ele>114.3</ele>
        <time>2024-07-24T09:53:43Z</time>
      </trkpt>
      <trkpt lat="49.82202" lon="2.36549">
        <ele>114.6</ele>
        <time>2024-07-24T09:53:45Z</time>
      </trkpt>
      <trkpt lat="49.82208" lon="2.36542">
        <ele>114.8</ele>
        <time>2024-07-24T09:53:47Z</time>
      </trkpt>
      <trkpt lat="49.82215" lon="2.36535">
        <ele>115.4</ele>
        <time>2024-07-24T09:53:49Z</time>
      </trkpt>
      <trkpt lat="49.82222" lon="2.36528">
        <ele>115.7</ele>
        <time>2024-07-24T09:53:51Z</time>
      </trkpt>
      <trkpt lat="49.82229" lon="2.36521">
        <ele>116.1</ele>
        <time>2024-07-24T09:53:53Z</time>
      </trkpt>
      <trkpt lat="49.82235" lon="2.36515">
        <ele>116.2</ele>
        <time>2024-07-24T09:53:55Z</time>
      </trkpt>
      <trkpt lat="49.82242" lon="2.36508">
        <ele>116.3</ele>
        <time>2024-07-24T09:53:57Z</time>
      </trkpt>
      <trkpt lat="49.82249" lon="2.36501">
        <ele>116.3</ele>
        <time>2024-07-24T09:53:59Z</time>
      </trkpt>
      <trkpt lat="49.82256" lon="2.36494">
        <ele>116.4</ele>
        <time>2024-07-24T09:54:01Z</time>
      </trkpt>
      <trkpt lat="49.82262" lon="2.36487">
        <ele>116.5</ele>
        <time>2024-07-24T09:54:03Z</time>
      </trkpt>
      <trkpt lat="49.82269" lon="2.36481">
        <ele>116.3</ele>
        <time>2024-07-24T09:54:05Z</time>
      </trkpt>
      <trkpt lat="49.82276" lon="2.36474">
        <ele>115.7</ele>
        <time>2024-07-24T09:54:07Z</time>
      </trkpt>
      <trkpt lat="49.82283" lon="2.36467">
        <ele>114.9</ele>
        <time>2024-07-24T09:54:09Z</time>
      </trkpt>
      <trkpt lat="49.82289" lon="2.3646">
        <ele>114.2</ele>
        <time>2024-07-24T09:54:11Z</time>
      </trkpt>
      <trkpt lat="49.82296" lon="2.36454">
        <ele>113.2</ele>
        <time>2024-07-24T09:54:13Z</time>
      </trkpt>
      <trkpt lat="49.82303" lon="2.36447">
        <ele>112.8</ele>
        <time>2024-07-24T09:54:15Z</time>
      </trkpt>
      <trkpt lat="49.8231" lon="2.3644">
        <ele>112.4</ele>
        <time>2024-07-24T09:54:17Z</time>
      </trkpt>
      <trkpt lat="49.82316" lon="2.36433">
        <ele>112.4</ele>
        <time>2024-07-24T09:54:19Z</time>
      </trkpt>
      <trkpt lat="49.82323" lon="2.36426">
        <ele>112.6</ele>
        <time>2024-07-24T09:54:21Z</time>
      </trkpt>
      <trkpt lat="49.8233" lon="2.3642">
        <ele>112.8</ele>
        <time>2024-07-24T09:54:23Z</time>
      </trkpt>
      <trkpt lat="49.82337" lon="2.36413">
        <ele>113</ele>
        <time>2024-07-24T09:54:25Z</time>
      </trkpt>
      <trkpt lat="49.82343" lon="2.36406">
        <ele>113.5</ele>
        <time>2024-07-24T09:54:27Z</time>
      </trkpt>
      <trkpt lat="49.8235" lon="2.36399">
        <ele>113.7</ele>
        <time>2024-07-24T09:54:29Z</time>
      </trkpt>
      <trkpt lat="49.82357" lon="2.36392">
        <ele>114.1</ele>
        <time>2024-07-24T09:54:31Z</time>
      </trkpt>
      <trkpt lat="49.82364" lon="2.36386">
        <ele>114.4</ele>
        <time>2024-07-24T09:54:33Z</time>
      </trkpt>
      <trkpt lat="49.8237" lon="2.36379">
        <ele>114.4</ele>
        <time>2024-07-24T09:54:35Z</time>
      </trkpt>
      <trkpt lat="49.82377" lon="2.36372">
        <ele>114.6</ele>
        <time>2024-07-24T09:54:37Z</time>
      </trkpt>
      <trkpt lat="49.82384" lon="2.36365">
        <ele>114.6</ele>
        <time>2024-07-24T09:54:39Z</time>
      </trkpt>
      <trkpt lat="49.82391" lon="2.36358">
        <ele>114.5</ele>
        <time>2024-07-24T09:54:41Z</time>
      </trkpt>
      <trkpt lat="49.82397" lon="2.36352">
        <ele>114.4</ele>
        <time>2024-07-24T09:54:43Z</time>
      </trkpt>
      <trkpt lat="49.82404" lon="2.36345">
        <ele>114.2</ele>
        <time>2024-07-24T09:54:45Z</time>
      </trkpt>
      <trkpt lat="49.82411" lon="2.36338">
        <ele>113.8</ele>
        <time>2024-07-24T09:54:47Z</time>
      </trkpt>
      <trkpt lat="49.82418" lon="2.36331">
        <ele>113.5</ele>
        <time>2024-07-24T09:54:49Z</time>
      </trkpt>
      <trkpt lat="49.82424" lon="2.36325">
        <ele>112.9</ele>
        <time>2024-07-24T09:54:51Z</time>
      </trkpt>
      <trkpt lat="49.82431" lon="2.36318">
        <ele>112.6</ele>
        <time>2024-07-24T09:54:53Z</time>
      </trkpt>
      <trkpt lat="49.82438" lon="2.36311">
        <ele>112.1</ele>
        <time>2024-07-24T09:54:55Z</time>
      </trkpt>
      <trkpt lat="49.82445" lon="2.36304">
        <ele>111.9</ele>
        <time>2024-07-24T09:54:57Z</time>
      </trkpt>
      <trkpt lat="49.82451" lon="2.36297">
        <ele>111.9</ele>
        <time>2024-07-24T09:54:59Z</time>
      </trkpt>
      <trkpt lat="49.82458" lon="2.36291">
        <ele>111.9</ele>
        <time>2024-07-24T09:55:01Z</time>
      </trkpt>
      <trkpt lat="49.82465" lon="2.36284">
        <ele>112.2</ele>
        <time>2024-07-24T09:55:03Z</time>
      </trkpt>
      <trkpt lat="49.82472" lon="2.36277">
        <ele>112.3</ele>
        <time>2024-07-24T09:55:05Z</time>
      </trkpt>
      <trkpt lat="49.82478" lon="2.3627">
        <ele>112.5</ele>
        <time>2024-07-24T09:55:07Z</time>
      </trkpt>
      <trkpt lat="49.82485" lon="2.36263">
        <ele>112.6</ele>
        <time>2024-07-24T09:55:09Z</time>
      </trkpt>
      <trkpt lat="49.82492" lon="2.36257">
        <ele>112.7</ele>
        <time>2024-07-24T09:55:11Z</time>
      </trkpt>
      <trkpt lat="49.82499" lon="2.3625">
        <ele>112.9</ele>
        <time>2024-07-24T09:55:13Z</time>
      </trkpt>
      <trkpt lat="49.82505" lon="2.36243">
        <ele>113</ele>
        <time>2024-07-24T09:55:15Z</time>
      </trkpt>
      <trkpt lat="49.82512" lon="2.36236">
        <ele>113.3</ele>
        <time>2024-07-24T09:55:17Z</time>
      </trkpt>
      <trkpt lat="49.82519" lon="2.36229">
        <ele>113.4</ele>
        <time>2024-07-24T09:55:19Z</time>
      </trkpt>
      <trkpt lat="49.82526" lon="2.36223">
        <ele>113.6</ele>
        <time>2024-07-24T09:55:21Z</time>
      </trkpt>
      <trkpt lat="49.82532" lon="2.36216">
        <ele>113.7</ele>
        <time>2024-07-24T09:55:23Z</time>
      </trkpt>
      <trkpt lat="49.82539" lon="2.36209">
        <ele>113.6</ele>
        <time>2024-07-24T09:55:25Z</time>
      </trkpt>
      <trkpt lat="49.82546" lon="2.36202">
        <ele>113.6</ele>
        <time>2024-07-24T09:55:27Z</time>
      </trkpt>
      <trkpt lat="49.82553" lon="2.36196">
        <ele>113.4</ele>
        <time>2024-07-24T09:55:29Z</time>
      </trkpt>
      <trkpt lat="49.82559" lon="2.36189">
        <ele>113.2</ele>
        <time>2024-07-24T09:55:31Z</time>
      </trkpt>
      <trkpt lat="49.82566" lon="2.36182">
        <ele>113</ele>
        <time>2024-07-24T09:55:33Z</time>
      </trkpt>
      <trkpt lat="49.82573" lon="2.36175">
        <ele>112.6</ele>
        <time>2024-07-24T09:55:35Z</time>
      </trkpt>
      <trkpt lat="49.8258" lon="2.36168">
        <ele>112.3</ele>
        <time>2024-07-24T09:55:37Z</time>
      </trkpt>
      <trkpt lat="49.82586" lon="2.36162">
        <ele>111.5</ele>
        <time>2024-07-24T09:55:39Z</time>
      </trkpt>
      <trkpt lat="49.82593" lon="2.36155">
        <ele>111</ele>
        <time>2024-07-24T09:55:41Z</time>
      </trkpt>
      <trkpt lat="49.826" lon="2.36148">
        <ele>110.3</ele>
        <time>2024-07-24T09:55:43Z</time>
      </trkpt>
      <trkpt lat="49.82607" lon="2.36141">
        <ele>109.8</ele>
        <time>2024-07-24T09:55:45Z</time>
      </trkpt>
      <trkpt lat="49.82613" lon="2.36134">
        <ele>109.3</ele>
        <time>2024-07-24T09:55:47Z</time>
      </trkpt>
      <trkpt lat="49.8262" lon="2.36128">
        <ele>108.6</ele>
        <time>2024-07-24T09:55:49Z</time>
      </trkpt>
      <trkpt lat="49.82627" lon="2.36121">
        <ele>108.3</ele>
        <time>2024-07-24T09:55:51Z</time>
      </trkpt>
      <trkpt lat="49.82634" lon="2.36114">
        <ele>108.1</ele>
        <time>2024-07-24T09:55:53Z</time>
      </trkpt>
      <trkpt lat="49.8264" lon="2.36107">
        <ele>108.1</ele>
        <time>2024-07-24T09:55:55Z</time>
      </trkpt>
      <trkpt lat="49.82647" lon="2.361">
        <ele>108</ele>
        <time>2024-07-24T09:55:57Z</time>
      </trkpt>
      <trkpt lat="49.82654" lon="2.36094">
        <ele>108.1</ele>
        <time>2024-07-24T09:55:59Z</time>
      </trkpt>
      <trkpt lat="49.82661" lon="2.36087">
        <ele>108.4</ele>
        <time>2024-07-24T09:56:01Z</time>
      </trkpt>
      <trkpt lat="49.82667" lon="2.3608">
        <ele>108.7</ele>
        <time>2024-07-24T09:56:03Z</time>
      </trkpt>
      <trkpt lat="49.82674" lon="2.36073">
        <ele>108.7</ele>
        <time>2024-07-24T09:56:05Z</time>
      </trkpt>
      <trkpt lat="49.82681" lon="2.36067">
        <ele>108.4</ele>
        <time>2024-07-24T09:56:07Z</time>
      </trkpt>
      <trkpt lat="49.82688" lon="2.3606">
        <ele>107.8</ele>
        <time>2024-07-24T09:56:09Z</time>
      </trkpt>
      <trkpt lat="49.82694" lon="2.36053">
        <ele>106.9</ele>
        <time>2024-07-24T09:56:11Z</time>
      </trkpt>
      <trkpt lat="49.82701" lon="2.36046">
        <ele>106</ele>
        <time>2024-07-24T09:56:13Z</time>
      </trkpt>
      <trkpt lat="49.82708" lon="2.36039">
        <ele>105.2</ele>
        <time>2024-07-24T09:56:15Z</time>
      </trkpt>
      <trkpt lat="49.82715" lon="2.36033">
        <ele>104.5</ele>
        <time>2024-07-24T09:56:17Z</time>
      </trkpt>
      <trkpt lat="49.82721" lon="2.36026">
        <ele>103.8</ele>
        <time>2024-07-24T09:56:19Z</time>
      </trkpt>
      <trkpt lat="49.82728" lon="2.36019">
        <ele>102.9</ele>
        <time>2024-07-24T09:56:21Z</time>
      </trkpt>
      <trkpt lat="49.82735" lon="2.36012">
        <ele>101.8</ele>
        <time>2024-07-24T09:56:23Z</time>
      </trkpt>
      <trkpt lat="49.82742" lon="2.36005">
        <ele>100.5</ele>
        <time>2024-07-24T09:56:25Z</time>
      </trkpt>
      <trkpt lat="49.82748" lon="2.35999">
        <ele>98.8</ele>
        <time>2024-07-24T09:56:27Z</time>
      </trkpt>
      <trkpt lat="49.82755" lon="2.35992">
        <ele>97.3</ele>
        <time>2024-07-24T09:56:29Z</time>
      </trkpt>
      <trkpt lat="49.82762" lon="2.35985">
        <ele>95.8</ele>
        <time>2024-07-24T09:56:31Z</time>
      </trkpt>
      <trkpt lat="49.82769" lon="2.35978">
        <ele>93.9</ele>
        <time>2024-07-24T09:56:33Z</time>
      </trkpt>
      <trkpt lat="49.82775" lon="2.35971">
        <ele>92.6</ele>
        <time>2024-07-24T09:56:35Z</time>
      </trkpt>
      <trkpt lat="49.82782" lon="2.35965">
        <ele>90.7</ele>
        <time>2024-07-24T09:56:37Z</time>
      </trkpt>
      <trkpt lat="49.82789" lon="2.35958">
        <ele>88.8</ele>
        <time>2024-07-24T09:56:39Z</time>
      </trkpt>
      <trkpt lat="49.82796" lon="2.35951">
        <ele>86.8</ele>
        <time>2024-07-24T09:56:41Z</time>
      </trkpt>
      <trkpt lat="49.82802" lon="2.35944">
        <ele>84.9</ele>
        <time>2024-07-24T09:56:43Z</time>
      </trkpt>
      <trkpt lat="49.82809" lon="2.35938">
        <ele>83.1</ele>
        <time>2024-07-24T09:56:45Z</time>
      </trkpt>
      <trkpt lat="49.82816" lon="2.35931">
        <ele>81.2</ele>
        <time>2024-07-24T09:56:47Z</time>
      </trkpt>
      <trkpt lat="49.82823" lon="2.35924">
        <ele>80.2</ele>
        <time>2024-07-24T09:56:49Z</time>
      </trkpt>
      <trkpt lat="49.82829" lon="2.35917">
        <ele>78.4</ele>
        <time>2024-07-24T09:56:51Z</time>
      </trkpt>
      <trkpt lat="49.82836" lon="2.3591">
        <ele>76.5</ele>
        <time>2024-07-24T09:56:53Z</time>
      </trkpt>
      <trkpt lat="49.82843" lon="2.35904">
        <ele>74.3</ele>
        <time>2024-07-24T09:56:55Z</time>
      </trkpt>
      <trkpt lat="49.8285" lon="2.35897">
        <ele>71.9</ele>
        <time>2024-07-24T09:56:57Z</time>
      </trkpt>
      <trkpt lat="49.82856" lon="2.3589">
        <ele>70.6</ele>
        <time>2024-07-24T09:56:59Z</time>
      </trkpt>
      <trkpt lat="49.82863" lon="2.35883">
        <ele>69</ele>
        <time>2024-07-24T09:57:01Z</time>
      </trkpt>
      <trkpt lat="49.8287" lon="2.35876">
        <ele>68.4</ele>
        <time>2024-07-24T09:57:03Z</time>
      </trkpt>
      <trkpt lat="49.82877" lon="2.3587">
        <ele>67.7</ele>
        <time>2024-07-24T09:57:05Z</time>
      </trkpt>
      <trkpt lat="49.82883" lon="2.35863">
        <ele>67.3</ele>
        <time>2024-07-24T09:57:07Z</time>
      </trkpt>
      <trkpt lat="49.8289" lon="2.35856">
        <ele>66.9</ele>
        <time>2024-07-24T09:57:09Z</time>
      </trkpt>
      <trkpt lat="49.82897" lon="2.35849">
        <ele>66.5</ele>
        <time>2024-07-24T09:57:11Z</time>
      </trkpt>
      <trkpt lat="49.82904" lon="2.35842">
        <ele>66.4</ele>
        <time>2024-07-24T09:57:13Z</time>
      </trkpt>
      <trkpt lat="49.8291" lon="2.35836">
        <ele>66.3</ele>
        <time>2024-07-24T09:57:15Z</time>
      </trkpt>
      <trkpt lat="49.82917" lon="2.35829">
        <ele>66.2</ele>
        <time>2024-07-24T09:57:17Z</time>
      </trkpt>
      <trkpt lat="49.82924" lon="2.35822">
        <ele>66.2</ele>
        <time>2024-07-24T09:57:19Z</time>
      </trkpt>
      <trkpt lat="49.82931" lon="2.35815">
        <ele>66.3</ele>
        <time>2024-07-24T09:57:21Z</time>
      </trkpt>
      <trkpt lat="49.82937" lon="2.35809">
        <ele>66.5</ele>
        <time>2024-07-24T09:57:23Z</time>
      </trkpt>
      <trkpt lat="49.82944" lon="2.35802">
        <ele>66.5</ele>
        <time>2024-07-24T09:57:25Z</time>
      </trkpt>
      <trkpt lat="49.82951" lon="2.35795">
        <ele>66.4</ele>
        <time>2024-07-24T09:57:27Z</time>
      </trkpt>
      <trkpt lat="49.82958" lon="2.35788">
        <ele>65.7</ele>
        <time>2024-07-24T09:57:29Z</time>
      </trkpt>
      <trkpt lat="49.82964" lon="2.35781">
        <ele>65.2</ele>
        <time>2024-07-24T09:57:31Z</time>
      </trkpt>
      <trkpt lat="49.82971" lon="2.35775">
        <ele>63.8</ele>
        <time>2024-07-24T09:57:33Z</time>
      </trkpt>
      <trkpt lat="49.82978" lon="2.35768">
        <ele>62.5</ele>
        <time>2024-07-24T09:57:35Z</time>
      </trkpt>
      <trkpt lat="49.82985" lon="2.35761">
        <ele>61.3</ele>
        <time>2024-07-24T09:57:37Z</time>
      </trkpt>
      <trkpt lat="49.82991" lon="2.35754">
        <ele>59.5</ele>
        <time>2024-07-24T09:57:39Z</time>
      </trkpt>
      <trkpt lat="49.82998" lon="2.35747">
        <ele>58.1</ele>
        <time>2024-07-24T09:57:41Z</time>
      </trkpt>
      <trkpt lat="49.83005" lon="2.35741">
        <ele>55.6</ele>
        <time>2024-07-24T09:57:43Z</time>
      </trkpt>
      <trkpt lat="49.83012" lon="2.35734">
        <ele>53.6</ele>
        <time>2024-07-24T09:57:45Z</time>
      </trkpt>
      <trkpt lat="49.83018" lon="2.35727">
        <ele>51.8</ele>
        <time>2024-07-24T09:57:47Z</time>
      </trkpt>
      <trkpt lat="49.83025" lon="2.3572">
        <ele>50.3</ele>
        <time>2024-07-24T09:57:49Z</time>
      </trkpt>
      <trkpt lat="49.83032" lon="2.35713">
        <ele>49.2</ele>
        <time>2024-07-24T09:57:51Z</time>
      </trkpt>
      <trkpt lat="49.83039" lon="2.35707">
        <ele>48.9</ele>
        <time>2024-07-24T09:57:53Z</time>
      </trkpt>
      <trkpt lat="49.83045" lon="2.357">
        <ele>48.8</ele>
        <time>2024-07-24T09:57:55Z</time>
      </trkpt>
      <trkpt lat="49.83052" lon="2.35693">
        <ele>48.6</ele>
        <time>2024-07-24T09:57:57Z</time>
      </trkpt>
      <trkpt lat="49.83059" lon="2.35686">
        <ele>48.2</ele>
        <time>2024-07-24T09:57:59Z</time>
      </trkpt>
      <trkpt lat="49.83066" lon="2.35679">
        <ele>47.6</ele>
        <time>2024-07-24T09:58:01Z</time>
      </trkpt>
      <trkpt lat="49.83072" lon="2.35673">
        <ele>47.3</ele>
        <time>2024-07-24T09:58:03Z</time>
      </trkpt>
      <trkpt lat="49.83079" lon="2.35666">
        <ele>47.1</ele>
        <time>2024-07-24T09:58:05Z</time>
      </trkpt>
      <trkpt lat="49.83086" lon="2.35659">
        <ele>47.2</ele>
        <time>2024-07-24T09:58:07Z</time>
      </trkpt>
      <trkpt lat="49.83093" lon="2.35652">
        <ele>47.3</ele>
        <time>2024-07-24T09:58:09Z</time>
      </trkpt>
      <trkpt lat="49.83099" lon="2.35646">
        <ele>47.2</ele>
        <time>2024-07-24T09:58:11Z</time>
      </trkpt>
      <trkpt lat="49.83106" lon="2.35639">
        <ele>47.2</ele>
        <time>2024-07-24T09:58:13Z</time>
      </trkpt>
      <trkpt lat="49.83113" lon="2.35632">
        <ele>47.2</ele>
        <time>2024-07-24T09:58:15Z</time>
      </trkpt>
      <trkpt lat="49.8312" lon="2.35625">
        <ele>47.6</ele>
        <time>2024-07-24T09:58:17Z</time>
      </trkpt>
      <trkpt lat="49.83126" lon="2.35618">
        <ele>48</ele>
        <time>2024-07-24T09:59:16Z</time>
      </trkpt>
      <trkpt lat="49.83133" lon="2.35612">
        <ele>48.7</ele>
        <time>2024-07-24T09:59:18Z</time>
      </trkpt>
      <trkpt lat="49.8314" lon="2.35605">
        <ele>49.7</ele>
        <time>2024-07-24T09:59:20Z</time>
      </trkpt>
      <trkpt lat="49.83147" lon="2.35598">
        <ele>50.5</ele>
        <time>2024-07-24T09:59:22Z</time>
      </trkpt>
      <trkpt lat="49.83153" lon="2.35591">
        <ele>52</ele>
        <time>2024-07-24T09:59:24Z</time>
      </trkpt>
      <trkpt lat="49.8316" lon="2.35584">
        <ele>53</ele>
        <time>2024-07-24T09:59:26Z</time>
      </trkpt>
      <trkpt lat="49.83167" lon="2.35578">
        <ele>54.1</ele>
        <time>2024-07-24T09:59:28Z</time>
      </trkpt>
      <trkpt lat="49.83174" lon="2.35571">
        <ele>54.9</ele>
        <time>2024-07-24T09:59:30Z</time>
      </trkpt>
      <trkpt lat="49.8318" lon="2.35564">
        <ele>55.2</ele>
        <time>2024-07-24T09:59:32Z</time>
      </trkpt>
      <trkpt lat="49.83187" lon="2.35557">
        <ele>55.6</ele>
        <time>2024-07-24T09:59:34Z</time>
      </trkpt>
      <trkpt lat="49.83194" lon="2.3555">
        <ele>56.1</ele>
        <time>2024-07-24T09:59:36Z</time>
      </trkpt>
      <trkpt lat="49.83201" lon="2.35544">
        <ele>57</ele>
        <time>2024-07-24T09:59:38Z</time>
      </trkpt>
      <trkpt lat="49.83207" lon="2.35537">
        <ele>57.5</ele>
        <time>2024-07-24T09:59:40Z</time>
      </trkpt>
      <trkpt lat="49.83214" lon="2.3553">
        <ele>58.3</ele>
        <time>2024-07-24T09:59:42Z</time>
      </trkpt>
      <trkpt lat="49.83221" lon="2.35523">
        <ele>59.3</ele>
        <time>2024-07-24T09:59:44Z</time>
      </trkpt>
      <trkpt lat="49.83228" lon="2.35516">
        <ele>59.8</ele>
        <time>2024-07-24T09:59:46Z</time>
      </trkpt>
      <trkpt lat="49.83234" lon="2.3551">
        <ele>60.8</ele>
        <time>2024-07-24T09:59:48Z</time>
      </trkpt>
      <trkpt lat="49.83241" lon="2.35503">
        <ele>61.2</ele>
        <time>2024-07-24T09:59:50Z</time>
      </trkpt>
      <trkpt lat="49.83248" lon="2.35496">
        <ele>61.9</ele>
        <time>2024-07-24T09:59:52Z</time>
      </trkpt>
      <trkpt lat="49.83255" lon="2.35489">
        <ele>62.3</ele>
        <time>2024-07-24T09:59:54Z</time>
      </trkpt>
      <trkpt lat="49.83261" lon="2.35483">
        <ele>62.3</ele>
        <time>2024-07-24T09:59:56Z</time>
      </trkpt>
      <trkpt lat="49.83268" lon="2.35476">
        <ele>62.5</ele>
        <time>2024-07-24T09:59:58Z</time>
      </trkpt>
      <trkpt lat="49.83275" lon="2.35469">
        <ele>62.6</ele>
        <time>2024-07-24T10:00:00Z</time>
      </trkpt>
      <trkpt lat="49.83282" lon="2.35462">
        <ele>62.8</ele>
        <time>2024-07-24T10:00:02Z</time>
      </trkpt>
      <trkpt lat="49.83288" lon="2.35455">
        <ele>62.9</ele>
        <time>2024-07-24T10:00:04Z</time>
      </trkpt>
      <trkpt lat="49.83295" lon="2.35449">
        <ele>63.2</ele>
        <time>2024-07-24T10:00:06Z</time>
      </trkpt>
      <trkpt lat="49.83302" lon="2.35442">
        <ele>63.6</ele>
        <time>2024-07-24T10:00:08Z</time>
      </trkpt>
      <trkpt lat="49.83309" lon="2.35435">
        <ele>63.4</ele>
        <time>2024-07-24T10:00:10Z</time>
      </trkpt>
      <trkpt lat="49.83315" lon="2.35428">
        <ele>63.5</ele>
        <time>2024-07-24T10:00:12Z</time>
      </trkpt>
      <trkpt lat="49.83322" lon="2.35421">
        <ele>63.5</ele>
        <time>2024-07-24T10:00:14Z</time>
      </trkpt>
      <trkpt lat="49.83329" lon="2.35415">
        <ele>63.8</ele>
        <time>2024-07-24T10:00:16Z</time>
      </trkpt>
      <trkpt lat="49.83336" lon="2.35408">
        <ele>64.4</ele>
        <time>2024-07-24T10:00:18Z</time>
      </trkpt>
      <trkpt lat="49.83342" lon="2.35401">
        <ele>64.9</ele>
        <time>2024-07-24T10:00:20Z</time>
      </trkpt>
      <trkpt lat="49.83349" lon="2.35394">
        <ele>65.7</ele>
        <time>2024-07-24T10:00:22Z</time>
      </trkpt>
      <trkpt lat="49.83356" lon="2.35387">
        <ele>66.2</ele>
        <time>2024-07-24T10:00:24Z</time>
      </trkpt>
      <trkpt lat="49.83363" lon="2.35381">
        <ele>66.9</ele>
        <time>2024-07-24T10:00:26Z</time>
      </trkpt>
      <trkpt lat="49.83369" lon="2.35374">
        <ele>67.2</ele>
        <time>2024-07-24T10:00:28Z</time>
      </trkpt>
      <trkpt lat="49.83376" lon="2.35367">
        <ele>67.4</ele>
        <time>2024-07-24T10:00:30Z</time>
      </trkpt>
      <trkpt lat="49.83383" lon="2.3536">
        <ele>67.6</ele>
        <time>2024-07-24T10:00:32Z</time>
      </trkpt>
      <trkpt lat="49.8339" lon="2.35353">
        <ele>67.8</ele>
        <time>2024-07-24T10:00:34Z</time>
      </trkpt>
      <trkpt lat="49.83396" lon="2.35347">
        <ele>68.3</ele>
        <time>2024-07-24T10:00:36Z</time>
      </trkpt>
      <trkpt lat="49.83403" lon="2.3534">
        <ele>68.9</ele>
        <time>2024-07-24T10:00:38Z</time>
      </trkpt>
      <trkpt lat="49.8341" lon="2.35333">
        <ele>69.9</ele>
        <time>2024-07-24T10:00:40Z</time>
      </trkpt>
      <trkpt lat="49.83417" lon="2.35326">
        <ele>71</ele>
        <time>2024-07-24T10:00:42Z</time>
      </trkpt>
      <trkpt lat="49.83423" lon="2.3532">
        <ele>72.4</ele>
        <time>2024-07-24T10:00:44Z</time>
      </trkpt>
      <trkpt lat="49.8343" lon="2.35313">
        <ele>73.9</ele>
        <time>2024-07-24T10:00:46Z</time>
      </trkpt>
      <trkpt lat="49.83437" lon="2.35306">
        <ele>75.4</ele>
        <time>2024-07-24T10:00:48Z</time>
      </trkpt>
      <trkpt lat="49.83444" lon="2.35299">
        <ele>77.2</ele>
        <time>2024-07-24T10:00:50Z</time>
      </trkpt>
      <trkpt lat="49.8345" lon="2.35292">
        <ele>79.2</ele>
        <time>2024-07-24T10:00:52Z</time>
      </trkpt>
      <trkpt lat="49.83457" lon="2.35286">
        <ele>80.8</ele>
        <time>2024-07-24T10:00:54Z</time>
      </trkpt>
      <trkpt lat="49.83464" lon="2.35279">
        <ele>82.6</ele>
        <time>2024-07-24T10:00:56Z</time>
      </trkpt>
      <trkpt lat="49.83471" lon="2.35272">
        <ele>83.8</ele>
        <time>2024-07-24T10:00:58Z</time>
      </trkpt>
      <trkpt lat="49.83477" lon="2.35265">
        <ele>85.9</ele>
        <time>2024-07-24T10:01:00Z</time>
      </trkpt>
      <trkpt lat="49.83484" lon="2.35258">
        <ele>87.2</ele>
        <time>2024-07-24T10:01:02Z</time>
      </trkpt>
      <trkpt lat="49.83491" lon="2.35252">
        <ele>88.8</ele>
        <time>2024-07-24T10:01:04Z</time>
      </trkpt>
      <trkpt lat="49.83498" lon="2.35245">
        <ele>90.4</ele>
        <time>2024-07-24T10:01:06Z</time>
      </trkpt>
      <trkpt lat="49.83504" lon="2.35238">
        <ele>91.9</ele>
        <time>2024-07-24T10:01:08Z</time>
      </trkpt>
      <trkpt lat="49.83511" lon="2.35231">
        <ele>93.8</ele>
        <time>2024-07-24T10:01:10Z</time>
      </trkpt>
      <trkpt lat="49.83518" lon="2.35224">
        <ele>95</ele>
        <time>2024-07-24T10:01:12Z</time>
      </trkpt>
      <trkpt lat="49.83525" lon="2.35218">
        <ele>97.1</ele>
        <time>2024-07-24T10:01:14Z</time>
      </trkpt>
      <trkpt lat="49.83531" lon="2.35211">
        <ele>98.3</ele>
        <time>2024-07-24T10:01:16Z</time>
      </trkpt>
      <trkpt lat="49.83538" lon="2.35204">
        <ele>100</ele>
        <time>2024-07-24T10:01:18Z</time>
      </trkpt>
      <trkpt lat="49.83545" lon="2.35197">
        <ele>101.5</ele>
        <time>2024-07-24T10:01:20Z</time>
      </trkpt>
      <trkpt lat="49.83552" lon="2.3519">
        <ele>102.8</ele>
        <time>2024-07-24T10:01:22Z</time>
      </trkpt>
      <trkpt lat="49.83558" lon="2.35184">
        <ele>105</ele>
        <time>2024-07-24T10:01:24Z</time>
      </trkpt>
      <trkpt lat="49.83565" lon="2.35177">
        <ele>106.2</ele>
        <time>2024-07-24T10:01:26Z</time>
      </trkpt>
      <trkpt lat="49.83572" lon="2.3517">
        <ele>107.5</ele>
        <time>2024-07-24T10:01:28Z</time>
      </trkpt>
      <trkpt lat="49.83579" lon="2.35163">
        <ele>108.2</ele>
        <time>2024-07-24T10:01:30Z</time>
      </trkpt>
      <trkpt lat="49.83585" lon="2.35157">
        <ele>108.5</ele>
        <time>2024-07-24T10:01:32Z</time>
      </trkpt>
      <trkpt lat="49.83592" lon="2.3515">
        <ele>108.5</ele>
        <time>2024-07-24T10:01:34Z</time>
      </trkpt>
      <trkpt lat="49.83599" lon="2.35143">
        <ele>108.4</ele>
        <time>2024-07-24T10:01:36Z</time>
      </trkpt>
      <trkpt lat="49.83606" lon="2.35136">
        <ele>108.3</ele>
        <time>2024-07-24T10:01:38Z</time>
      </trkpt>
      <trkpt lat="49.83612" lon="2.35129">
        <ele>108.3</ele>
        <time>2024-07-24T10:04:17Z</time>
      </trkpt>
      <trkpt lat="49.83619" lon="2.35123">
        <ele>108.5</ele>
        <time>2024-07-24T10:04:19Z</time>
      </trkpt>
      <trkpt lat="49.83626" lon="2.35116">
        <ele>108.7</ele>
        <time>2024-07-24T10:04:21Z</time>
      </trkpt>
      <trkpt lat="49.83633" lon="2.35109">
        <ele>108.9</ele>
        <time>2024-07-24T10:04:23Z</time>
      </trkpt>
      <trkpt lat="49.83639" lon="2.35102">
        <ele>108.8</ele>
        <time>2024-07-24T10:04:25Z</time>
      </trkpt>
      <trkpt lat="49.83646" lon="2.35095">
        <ele>108.6</ele>
        <time>2024-07-24T10:04:27Z</time>
      </trkpt>
      <trkpt lat="49.83653" lon="2.35089">
        <ele>108.1</ele>
        <time>2024-07-24T10:04:29Z</time>
      </trkpt>
      <trkpt lat="49.8366" lon="2.35082">
        <ele>107.6</ele>
        <time>2024-07-24T10:04:31Z</time>
      </trkpt>
      <trkpt lat="49.83666" lon="2.35075">
        <ele>106.6</ele>
        <time>2024-07-24T10:04:33Z</time>
      </trkpt>
      <trkpt lat="49.83673" lon="2.35068">
        <ele>105.8</ele>
        <time>2024-07-24T10:04:35Z</time>
      </trkpt>
      <trkpt lat="49.8368" lon="2.35061">
        <ele>104.9</ele>
        <time>2024-07-24T10:04:37Z</time>
      </trkpt>
      <trkpt lat="49.83687" lon="2.35055">
        <ele>103.9</ele>
        <time>2024-07-24T10:04:39Z</time>
      </trkpt>
      <trkpt lat="49.83693" lon="2.35048">
        <ele>102.6</ele>
        <time>2024-07-24T10:04:41Z</time>
      </trkpt>
      <trkpt lat="49.837" lon="2.35041">
        <ele>101.5</ele>
        <time>2024-07-24T10:04:43Z</time>
      </trkpt>
      <trkpt lat="49.83707" lon="2.35034">
        <ele>100.4</ele>
        <time>2024-07-24T10:04:45Z</time>
      </trkpt>
      <trkpt lat="49.83714" lon="2.35027">
        <ele>99.4</ele>
        <time>2024-07-24T10:04:47Z</time>
      </trkpt>
      <trkpt lat="49.8372" lon="2.35021">
        <ele>98.8</ele>
        <time>2024-07-24T10:04:49Z</time>
      </trkpt>
      <trkpt lat="49.83727" lon="2.35014">
        <ele>98.4</ele>
        <time>2024-07-24T10:04:51Z</time>
      </trkpt>
      <trkpt lat="49.83734" lon="2.35007">
        <ele>98.3</ele>
        <time>2024-07-24T10:04:53Z</time>
      </trkpt>
      <trkpt lat="49.83741" lon="2.35">
        <ele>98.3</ele>
        <time>2024-07-24T10:04:55Z</time>
      </trkpt>
      <trkpt lat="49.83747" lon="2.34993">
        <ele>98.3</ele>
        <time>2024-07-24T10:04:57Z</time>
      </trkpt>
      <trkpt lat="49.83754" lon="2.34987">
        <ele>98.4</ele>
        <time>2024-07-24T10:04:59Z</time>
      </trkpt>
      <trkpt lat="49.83761" lon="2.3498">
        <ele>98.5</ele>
        <time>2024-07-24T10:05:01Z</time>
      </trkpt>
      <trkpt lat="49.83768" lon="2.34973">
        <ele>98.5</ele>
        <time>2024-07-24T10:05:03Z</time>
      </trkpt>
      <trkpt lat="49.83774" lon="2.34966">
        <ele>98.5</ele>
        <time>2024-07-24T10:05:05Z</time>
      </trkpt>
      <trkpt lat="49.83781" lon="2.3496">
        <ele>98.5</ele>
        <time>2024-07-24T10:05:07Z</time>
      </trkpt>
      <trkpt lat="49.83788" lon="2.34953">
        <ele>98.5</ele>
        <time>2024-07-24T10:05:09Z</time>
      </trkpt>
      <trkpt lat="49.83795" lon="2.34946">
        <ele>98.5</ele>
        <time>2024-07-24T10:05:11Z</time>
      </trkpt>
      <trkpt lat="49.83801" lon="2.34939">
        <ele>98.6</ele>
        <time>2024-07-24T10:05:13Z</time>
      </trkpt>
      <trkpt lat="49.83808" lon="2.34932">
        <ele>98.7</ele>
        <time>2024-07-24T10:05:15Z</time>
      </trkpt>
      <trkpt lat="49.83815" lon="2.34926">
        <ele>98.8</ele>
        <time>2024-07-24T10:05:17Z</time>
      </trkpt>
      <trkpt lat="49.83822" lon="2.34919">
        <ele>98.9</ele>
        <time>2024-07-24T10:05:19Z</time>
      </trkpt>
      <trkpt lat="49.83828" lon="2.34912">
        <ele>99.2</ele>
        <time>2024-07-24T10:05:21Z</time>
      </trkpt>
      <trkpt lat="49.83835" lon="2.34905">
        <ele>99.5</ele>
        <time>2024-07-24T10:05:23Z</time>
      </trkpt>
      <trkpt lat="49.83842" lon="2.34898">
        <ele>99.7</ele>
        <time>2024-07-24T10:05:25Z</time>
      </trkpt>
      <trkpt lat="49.83849" lon="2.34892">
        <ele>100.2</ele>
        <time>2024-07-24T10:05:27Z</time>
      </trkpt>
      <trkpt lat="49.83855" lon="2.34885">
        <ele>100.5</ele>
        <time>2024-07-24T10:05:29Z</time>
      </trkpt>
      <trkpt lat="49.83862" lon="2.34878">
        <ele>101</ele>
        <time>2024-07-24T10:05:31Z</time>
      </trkpt>
      <trkpt lat="49.83869" lon="2.34871">
        <ele>101.4</ele>
        <time>2024-07-24T10:05:33Z</time>
      </trkpt>
      <trkpt lat="49.83876" lon="2.34864">
        <ele>101.7</ele>
        <time>2024-07-24T10:05:35Z</time>
      </trkpt>
      <trkpt lat="49.83882" lon="2.34858">
        <ele>102.2</ele>
        <time>2024-07-24T10:05:37Z</time>
      </trkpt>
      <trkpt lat="49.83889" lon="2.34851">
        <ele>102.4</ele>
        <time>2024-07-24T10:05:39Z</time>
      </trkpt>
      <trkpt lat="49.83896" lon="2.34844">
        <ele>102.7</ele>
        <time>2024-07-24T10:05:41Z</time>
      </trkpt>
      <trkpt lat="49.83903" lon="2.34837">
        <ele>102.8</ele>
        <time>2024-07-24T10:05:43Z</time>
      </trkpt>
      <trkpt lat="49.83909" lon="2.3483">
        <ele>103.1</ele>
        <time>2024-07-24T10:05:45Z</time>
      </trkpt>
      <trkpt lat="49.83916" lon="2.34824">
        <ele>103.2</ele>
        <time>2024-07-24T10:05:47Z</time>
      </trkpt>
      <trkpt lat="49.83923" lon="2.34817">
        <ele>103.3</ele>
        <time>2024-07-24T10:05:49Z</time>
      </trkpt>
      <trkpt lat="49.8393" lon="2.3481">
        <ele>103.4</ele>
        <time>2024-07-24T10:05:51Z</time>
      </trkpt>
      <trkpt lat="49.83936" lon="2.34803">
        <ele>103.4</ele>
        <time>2024-07-24T10:05:53Z</time>
      </trkpt>
      <trkpt lat="49.83943" lon="2.34796">
        <ele>103.3</ele>
        <time>2024-07-24T10:05:55Z</time>
      </trkpt>
      <trkpt lat="49.8395" lon="2.3479">
        <ele>103.2</ele>
        <time>2024-07-24T10:05:57Z</time>
      </trkpt>
      <trkpt lat="49.83957" lon="2.34783">
        <ele>103</ele>
        <time>2024-07-24T10:05:59Z</time>
      </trkpt>
      <trkpt lat="49.83963" lon="2.34776">
        <ele>102.7</ele>
        <time>2024-07-24T10:06:01Z</time>
      </trkpt>
      <trkpt lat="49.8397" lon="2.34769">
        <ele>102.3</ele>
        <time>2024-07-24T10:06:03Z</time>
      </trkpt>
      <trkpt lat="49.83977" lon="2.34763">
        <ele>101.8</ele>
        <time>2024-07-24T10:06:05Z</time>
      </trkpt>
      <trkpt lat="49.83984" lon="2.34756">
        <ele>101.4</ele>
        <time>2024-07-24T10:06:07Z</time>
      </trkpt>
      <trkpt lat="49.8399" lon="2.34749">
        <ele>100.6</ele>
        <time>2024-07-24T10:06:09Z</time>
      </trkpt>
      <trkpt lat="49.83997" lon="2.34742">
        <ele>100</ele>
        <time>2024-07-24T10:06:11Z</time>
      </trkpt>
      <trkpt lat="49.84004" lon="2.34735">
        <ele>99.3</ele>
        <time>2024-07-24T10:06:13Z</time>
      </trkpt>
      <trkpt lat="49.84011" lon="2.34729">
        <ele>98.7</ele>
        <time>2024-07-24T10:06:15Z</time>
      </trkpt>
      <trkpt lat="49.84017" lon="2.34722">
        <ele>98</ele>
        <time>2024-07-24T10:06:17Z</time>
      </trkpt>
      <trkpt lat="49.84024" lon="2.34715">
        <ele>97.5</ele>
        <time>2024-07-24T10:06:19Z</time>
      </trkpt>
      <trkpt lat="49.84031" lon="2.34708">
        <ele>96.8</ele>
        <time>2024-07-24T10:06:21Z</time>
      </trkpt>
      <trkpt lat="49.84038" lon="2.34701">
        <ele>96.5</ele>
        <time>2024-07-24T10:06:23Z</time>
      </trkpt>
      <trkpt lat="49.84044" lon="2.34695">
        <ele>96.2</ele>
        <time>2024-07-24T10:06:25Z</time>
      </trkpt>
      <trkpt lat="49.84051" lon="2.34688">
        <ele>95.8</ele>
        <time>2024-07-24T10:06:27Z</time>
      </trkpt>
      <trkpt lat="49.84058" lon="2.34681">
        <ele>95.7</ele>
        <time>2024-07-24T10:06:29Z</time>
      </trkpt>
      <trkpt lat="49.84065" lon="2.34674">
        <ele>95.4</ele>
        <time>2024-07-24T10:06:31Z</time>
      </trkpt>
      <trkpt lat="49.84071" lon="2.34667">
        <ele>95.4</ele>
        <time>2024-07-24T10:06:33Z</time>
      </trkpt>
      <trkpt lat="49.84078" lon="2.34661">
        <ele>95.4</ele>
        <time>2024-07-24T10:06:35Z</time>
      </trkpt>
      <trkpt lat="49.84085" lon="2.34654">
        <ele>95.4</ele>
        <time>2024-07-24T10:06:37Z</time>
      </trkpt>
      <trkpt lat="49.84092" lon="2.34647">
        <ele>95.5</ele>
        <time>2024-07-24T10:06:39Z</time>
      </trkpt>
      <trkpt lat="49.84098" lon="2.3464">
        <ele>95.5</ele>
        <time>2024-07-24T10:06:41Z</time>
      </trkpt>
      <trkpt lat="49.84105" lon="2.34633">
        <ele>95.6</ele>
        <time>2024-07-24T10:06:43Z</time>
      </trkpt>
      <trkpt lat="49.84112" lon="2.34627">
        <ele>95.8</ele>
        <time>2024-07-24T10:06:45Z</time>
      </trkpt>
      <trkpt lat="49.84119" lon="2.3462">
        <ele>95.8</ele>
        <time>2024-07-24T10:06:47Z</time>
      </trkpt>
      <trkpt lat="49.84125" lon="2.34613">
        <ele>96</ele>
        <time>2024-07-24T10:06:49Z</time>
      </trkpt>
      <trkpt lat="49.84132" lon="2.34606">
        <ele>96.1</ele>
        <time>2024-07-24T10:06:51Z</time>
      </trkpt>
      <trkpt lat="49.84139" lon="2.34599">
        <ele>96.3</ele>
        <time>2024-07-24T10:06:53Z</time>
      </trkpt>
      <trkpt lat="49.84146" lon="2.34593">
        <ele>96.3</ele>
        <time>2024-07-24T10:06:55Z</time>
      </trkpt>
      <trkpt lat="49.84152" lon="2.34586">
        <ele>96.5</ele>
        <time>2024-07-24T10:06:57Z</time>
      </trkpt>
      <trkpt lat="49.84159" lon="2.34579">
        <ele>96.6</ele>
        <time>2024-07-24T10:06:59Z</time>
      </trkpt>
      <trkpt lat="49.84166" lon="2.34572">
        <ele>96.6</ele>
        <time>2024-07-24T10:07:01Z</time>
      </trkpt>
      <trkpt lat="49.84173" lon="2.34565">
        <ele>96.7</ele>
        <time>2024-07-24T10:07:03Z</time>
      </trkpt>
      <trkpt lat="49.84179" lon="2.34559">
        <ele>96.7</ele>
        <time>2024-07-24T10:07:05Z</time>
      </trkpt>
      <trkpt lat="49.84186" lon="2.34552">
        <ele>96.7</ele>
        <time>2024-07-24T10:07:07Z</time>
      </trkpt>
      <trkpt lat="49.84193" lon="2.34545">
        <ele>96.8</ele>
        <time>2024-07-24T10:07:09Z</time>
      </trkpt>
      <trkpt lat="49.842" lon="2.34538">
        <ele>96.7</ele>
        <time>2024-07-24T10:07:11Z</time>
      </trkpt>
      <trkpt lat="49.84206" lon="2.34532">
        <ele>96.8</ele>
        <time>2024-07-24T10:07:13Z</time>
      </trkpt>
      <trkpt lat="49.84213" lon="2.34525">
        <ele>96.8</ele>
        <time>2024-07-24T10:07:15Z</time>
      </trkpt>
      <trkpt lat="49.8422" lon="2.34518">
        <ele>96.8</ele>
        <time>2024-07-24T10:07:17Z</time>
      </trkpt>
      <trkpt lat="49.84227" lon="2.34511">
        <ele>96.9</ele>
        <time>2024-07-24T10:07:19Z</time>
      </trkpt>
      <trkpt lat="49.84233" lon="2.34504">
        <ele>96.9</ele>
        <time>2024-07-24T10:07:21Z</time>
      </trkpt>
      <trkpt lat="49.8424" lon="2.34498">
        <ele>97</ele>
        <time>2024-07-24T10:07:23Z</time>
      </trkpt>
      <trkpt lat="49.84247" lon="2.34491">
        <ele>97</ele>
        <time>2024-07-24T10:07:25Z</time>
      </trkpt>
      <trkpt lat="49.84254" lon="2.34484">
        <ele>97.1</ele>
        <time>2024-07-24T10:07:27Z</time>
      </trkpt>
      <trkpt lat="49.8426" lon="2.34477">
        <ele>97</ele>
        <time>2024-07-24T10:07:29Z</time>
      </trkpt>
      <trkpt lat="49.84267" lon="2.3447">
        <ele>97</ele>
        <time>2024-07-24T10:07:31Z</time>
      </trkpt>
      <trkpt lat="49.84274" lon="2.34464">
        <ele>96.9</ele>
        <time>2024-07-24T10:07:33Z</time>
      </trkpt>
      <trkpt lat="49.84281" lon="2.34457">
        <ele>96.7</ele>
        <time>2024-07-24T10:07:35Z</time>
      </trkpt>
      <trkpt lat="49.84287" lon="2.3445">
        <ele>96.5</ele>
        <time>2024-07-24T10:07:37Z</time>
      </trkpt>
      <trkpt lat="49.84294" lon="2.34443">
        <ele>96.3</ele>
        <time>2024-07-24T10:07:39Z</time>
      </trkpt>
      <trkpt lat="49.84301" lon="2.34436">
        <ele>96.2</ele>
        <time>2024-07-24T10:07:41Z</time>
      </trkpt>
      <trkpt lat="49.84308" lon="2.3443">
        <ele>95.9</ele>
        <time>2024-07-24T10:07:43Z</time>
      </trkpt>
      <trkpt lat="49.84314" lon="2.34423">
        <ele>95.8</ele>
        <time>2024-07-24T10:07:45Z</time>
      </trkpt>
      <trkpt lat="49.84321" lon="2.34416">
        <ele>95.7</ele>
        <time>2024-07-24T10:07:47Z</time>
      </trkpt>
      <trkpt lat="49.84328" lon="2.34409">
        <ele>95.5</ele>
        <time>2024-07-24T10:07:49Z</time>
      </trkpt>
      <trkpt lat="49.84335" lon="2.34402">
        <ele>95.4</ele>
        <time>2024-07-24T10:07:51Z</time>
      </trkpt>
      <trkpt lat="49.84341" lon="2.34396">
        <ele>95.2</ele>
        <time>2024-07-24T10:07:53Z</time>
      </trkpt>
      <trkpt lat="49.84348" lon="2.34389">
        <ele>95.1</ele>
        <time>2024-07-24T10:07:55Z</time>
      </trkpt>
      <trkpt lat="49.84355" lon="2.34382">
        <ele>94.8</ele>
        <time>2024-07-24T10:07:57Z</time>
      </trkpt>
      <trkpt lat="49.84362" lon="2.34375">
        <ele>94.6</ele>
        <time>2024-07-24T10:07:59Z</time>
      </trkpt>
      <trkpt lat="49.84368" lon="2.34368">
        <ele>94.3</ele>
        <time>2024-07-24T10:08:01Z</time>
      </trkpt>
      <trkpt lat="49.84375" lon="2.34362">
        <ele>93.8</ele>
        <time>2024-07-24T10:08:03Z</time>
      </trkpt>
      <trkpt lat="49.84382" lon="2.34355">
        <ele>93.4</ele>
        <time>2024-07-24T10:08:05Z</time>
      </trkpt>
      <trkpt lat="49.84389" lon="2.34348">
        <ele>92.7</ele>
        <time>2024-07-24T10:08:07Z</time>
      </trkpt>
      <trkpt lat="49.84395" lon="2.34341">
        <ele>92.1</ele>
        <time>2024-07-24T10:08:09Z</time>
      </trkpt>
      <trkpt lat="49.84402" lon="2.34334">
        <ele>91.4</ele>
        <time>2024-07-24T10:08:11Z</time>
      </trkpt>
      <trkpt lat="49.84409" lon="2.34328">
        <ele>91.1</ele>
        <time>2024-07-24T10:08:13Z</time>
      </trkpt>
      <trkpt lat="49.84416" lon="2.34321">
        <ele>90.7</ele>
        <time>2024-07-24T10:08:15Z</time>
      </trkpt>
      <trkpt lat="49.84422" lon="2.34314">
        <ele>90.5</ele>
        <time>2024-07-24T10:08:17Z</time>
      </trkpt>
      <trkpt lat="49.84429" lon="2.34307">
        <ele>90.1</ele>
        <time>2024-07-24T10:08:19Z</time>
      </trkpt>
      <trkpt lat="49.84436" lon="2.343">
        <ele>89.4</ele>
        <time>2024-07-24T10:08:21Z</time>
      </trkpt>
      <trkpt lat="49.84443" lon="2.34294">
        <ele>88.9</ele>
        <time>2024-07-24T10:08:23Z</time>
      </trkpt>
      <trkpt lat="49.84449" lon="2.34287">
        <ele>87.8</ele>
        <time>2024-07-24T10:08:25Z</time>
      </trkpt>
      <trkpt lat="49.84456" lon="2.3428">
        <ele>87</ele>
        <time>2024-07-24T10:08:27Z</time>
      </trkpt>
      <trkpt lat="49.84463" lon="2.34273">
        <ele>85.4</ele>
        <time>2024-07-24T10:08:29Z</time>
      </trkpt>
      <trkpt lat="49.8447" lon="2.34267">
        <ele>84.3</ele>
        <time>2024-07-24T10:08:31Z</time>
      </trkpt>
      <trkpt lat="49.84476" lon="2.3426">
        <ele>82.8</ele>
        <time>2024-07-24T10:08:33Z</time>
      </trkpt>
      <trkpt lat="49.84483" lon="2.34253">
        <ele>80.9</ele>
        <time>2024-07-24T10:08:35Z</time>
      </trkpt>
      <trkpt lat="49.8449" lon="2.34246">
        <ele>79.8</ele>
        <time>2024-07-24T10:08:37Z</time>
      </trkpt>
      <trkpt lat="49.84497" lon="2.34239">
        <ele>78.1</ele>
        <time>2024-07-24T10:08:39Z</time>
      </trkpt>
      <trkpt lat="49.84503" lon="2.34233">
        <ele>77.1</ele>
        <time>2024-07-24T10:08:41Z</time>
      </trkpt>
      <trkpt lat="49.8451" lon="2.34226">
        <ele>75.3</ele>
        <time>2024-07-24T10:08:43Z</time>
      </trkpt>
      <trkpt lat="49.84517" lon="2.34219">
        <ele>74.1</ele>
        <time>2024-07-24T10:08:45Z</time>
      </trkpt>
      <trkpt lat="49.84524" lon="2.34212">
        <ele>72.8</ele>
        <time>2024-07-24T10:08:47Z</time>
      </trkpt>
      <trkpt lat="49.8453" lon="2.34205">
        <ele>71.7</ele>
        <time>2024-07-24T10:08:49Z</time>
      </trkpt>
      <trkpt lat="49.84537" lon="2.34199">
        <ele>71</ele>
        <time>2024-07-24T10:08:51Z</time>
      </trkpt>
      <trkpt lat="49.84544" lon="2.34192">
        <ele>69.8</ele>
        <time>2024-07-24T10:08:53Z</time>
      </trkpt>
      <trkpt lat="49.84551" lon="2.34185">
        <ele>69.1</ele>
        <time>2024-07-24T10:08:55Z</time>
      </trkpt>
      <trkpt lat="49.84557" lon="2.34178">
        <ele>67.8</ele>
        <time>2024-07-24T10:08:57Z</time>
      </trkpt>
      <trkpt lat="49.84564" lon="2.34171">
        <ele>66.5</ele>
        <time>2024-07-24T10:08:59Z</time>
      </trkpt>
      <trkpt lat="49.84571" lon="2.34165">
        <ele>65.2</ele>
        <time>2024-07-24T10:09:01Z</time>
      </trkpt>
      <trkpt lat="49.84578" lon="2.34158">
        <ele>63.8</ele>
        <time>2024-07-24T10:09:03Z</time>
      </trkpt>
      <trkpt lat="49.84584" lon="2.34151">
        <ele>62.8</ele>
        <time>2024-07-24T10:09:05Z</time>
      </trkpt>
      <trkpt lat="49.84591" lon="2.34144">
        <ele>62</ele>
        <time>2024-07-24T10:09:07Z</time>
      </trkpt>
      <trkpt lat="49.84598" lon="2.34137">
        <ele>61.6</ele>
        <time>2024-07-24T10:09:09Z</time>
      </trkpt>
      <trkpt lat="49.84605" lon="2.34131">
        <ele>61.5</ele>
        <time>2024-07-24T10:09:11Z</time>
      </trkpt>
      <trkpt lat="49.84611" lon="2.34124">
        <ele>61.5</ele>
        <time>2024-07-24T10:09:13Z</time>
      </trkpt>
      <trkpt lat="49.84618" lon="2.34117">
        <ele>61.5</ele>
        <time>2024-07-24T10:09:15Z</time>
      </trkpt>
      <trkpt lat="49.84625" lon="2.3411">
        <ele>61.6</ele>
        <time>2024-07-24T10:09:17Z</time>
      </trkpt>
      <trkpt lat="49.84632" lon="2.34103">
        <ele>61.6</ele>
        <time>2024-07-24T10:09:19Z</time>
      </trkpt>
      <trkpt lat="49.84638" lon="2.34097">
        <ele>61.7</ele>
        <time>2024-07-24T10:09:21Z</time>
      </trkpt>
      <trkpt lat="49.84645" lon="2.3409">
        <ele>61.9</ele>
        <time>2024-07-24T10:09:23Z</time>
      </trkpt>
      <trkpt lat="49.84652" lon="2.34083">
        <ele>62.1</ele>
        <time>2024-07-24T10:09:25Z</time>
      </trkpt>
      <trkpt lat="49.84659" lon="2.34076">
        <ele>62.5</ele>
        <time>2024-07-24T10:09:27Z</time>
      </trkpt>
      <trkpt lat="49.84665" lon="2.34069">
        <ele>63.1</ele>
        <time>2024-07-24T10:09:29Z</time>
      </trkpt>
      <trkpt lat="49.84672" lon="2.34063">
        <ele>63.9</ele>
        <time>2024-07-24T10:09:31Z</time>
      </trkpt>
      <trkpt lat="49.84679" lon="2.34056">
        <ele>65</ele>
        <time>2024-07-24T10:09:33Z</time>
      </trkpt>
      <trkpt lat="49.84686" lon="2.34049">
        <ele>65.7</ele>
        <time>2024-07-24T10:09:35Z</time>
      </trkpt>
      <trkpt lat="49.84692" lon="2.34042">
        <ele>66.9</ele>
        <time>2024-07-24T10:09:37Z</time>
      </trkpt>
      <trkpt lat="49.84699" lon="2.34035">
        <ele>67.6</ele>
        <time>2024-07-24T10:09:39Z</time>
      </trkpt>
      <trkpt lat="49.84706" lon="2.34029">
        <ele>68.8</ele>
        <time>2024-07-24T10:09:41Z</time>
      </trkpt>
      <trkpt lat="49.84713" lon="2.34022">
        <ele>69.6</ele>
        <time>2024-07-24T10:09:43Z</time>
      </trkpt>
      <trkpt lat="49.84719" lon="2.34015">
        <ele>70.9</ele>
        <time>2024-07-24T10:09:45Z</time>
      </trkpt>
      <trkpt lat="49.84726" lon="2.34008">
        <ele>72.5</ele>
        <time>2024-07-24T10:09:47Z</time>
      </trkpt>
      <trkpt lat="49.84733" lon="2.34001">
        <ele>73.2</ele>
        <time>2024-07-24T10:09:49Z</time>
      </trkpt>
      <trkpt lat="49.8474" lon="2.33995">
        <ele>74.4</ele>
        <time>2024-07-24T10:09:51Z</time>
      </trkpt>
      <trkpt lat="49.84746" lon="2.33988">
        <ele>75</ele>
        <time>2024-07-24T10:09:53Z</time>
      </trkpt>
      <trkpt lat="49.84753" lon="2.33981">
        <ele>75.9</ele>
        <time>2024-07-24T10:09:55Z</time>
      </trkpt>
      <trkpt lat="49.8476" lon="2.33974">
        <ele>76.6</ele>
        <time>2024-07-24T10:09:57Z</time>
      </trkpt>
      <trkpt lat="49.84767" lon="2.33968">
        <ele>76.9</ele>
        <time>2024-07-24T10:09:59Z</time>
      </trkpt>
      <trkpt lat="49.84773" lon="2.33961">
        <ele>77.3</ele>
        <time>2024-07-24T10:10:01Z</time>
      </trkpt>
      <trkpt lat="49.8478" lon="2.33954">
        <ele>77.5</ele>
        <time>2024-07-24T10:10:03Z</time>
      </trkpt>
      <trkpt lat="49.84787" lon="2.33947">
        <ele>77.8</ele>
        <time>2024-07-24T10:10:05Z</time>
      </trkpt>
      <trkpt lat="49.84794" lon="2.3394">
        <ele>77.9</ele>
        <time>2024-07-24T10:10:07Z</time>
      </trkpt>
      <trkpt lat="49.848" lon="2.33934">
        <ele>78.1</ele>
        <time>2024-07-24T10:10:09Z</time>
      </trkpt>
      <trkpt lat="49.84807" lon="2.33927">
        <ele>78.2</ele>
        <time>2024-07-24T10:10:11Z</time>
      </trkpt>
      <trkpt lat="49.84814" lon="2.3392">
        <ele>78.2</ele>
        <time>2024-07-24T10:10:13Z</time>
      </trkpt>
      <trkpt lat="49.84821" lon="2.33913">
        <ele>78.3</ele>
        <time>2024-07-24T10:10:15Z</time>
      </trkpt>
      <trkpt lat="49.84827" lon="2.33906">
        <ele>78.4</ele>
        <time>2024-07-24T10:10:17Z</time>
      </trkpt>
      <trkpt lat="49.84834" lon="2.339">
        <ele>78.5</ele>
        <time>2024-07-24T10:10:19Z</time>
      </trkpt>
      <trkpt lat="49.84841" lon="2.33893">
        <ele>78.7</ele>
        <time>2024-07-24T10:10:21Z</time>
      </trkpt>
      <trkpt lat="49.84848" lon="2.33886">
        <ele>78.9</ele>
        <time>2024-07-24T10:10:23Z</time>
      </trkpt>
      <trkpt lat="49.84854" lon="2.33879">
        <ele>79</ele>
        <time>2024-07-24T10:10:25Z</time>
      </trkpt>
      <trkpt lat="49.84861" lon="2.33872">
        <ele>79.2</ele>
        <time>2024-07-24T10:10:27Z</time>
      </trkpt>
      <trkpt lat="49.84868" lon="2.33866">
        <ele>79.3</ele>
        <time>2024-07-24T10:10:29Z</time>
      </trkpt>
      <trkpt lat="49.84875" lon="2.33859">
        <ele>79.4</ele>
        <time>2024-07-24T10:10:31Z</time>
      </trkpt>
      <trkpt lat="49.84881" lon="2.33852">
        <ele>79.5</ele>
        <time>2024-07-24T10:10:33Z</time>
      </trkpt>
      <trkpt lat="49.84888" lon="2.33845">
        <ele>79.6</ele>
        <time>2024-07-24T10:10:35Z</time>
      </trkpt>
      <trkpt lat="49.84895" lon="2.33838">
        <ele>79.7</ele>
        <time>2024-07-24T10:10:37Z</time>
      </trkpt>
      <trkpt lat="49.84902" lon="2.33832">
        <ele>79.8</ele>
        <time>2024-07-24T10:10:39Z</time>
      </trkpt>
      <trkpt lat="49.84908" lon="2.33825">
        <ele>79.9</ele>
        <time>2024-07-24T10:10:41Z</time>
      </trkpt>
      <trkpt lat="49.84915" lon="2.33818">
        <ele>80</ele>
        <time>2024-07-24T10:10:43Z</time>
      </trkpt>
      <trkpt lat="49.84922" lon="2.33811">
        <ele>80.1</ele>
        <time>2024-07-24T10:10:45Z</time>
      </trkpt>
      <trkpt lat="49.84929" lon="2.33804">
        <ele>80.1</ele>
        <time>2024-07-24T10:10:47Z</time>
      </trkpt>
      <trkpt lat="49.84935" lon="2.33798">
        <ele>80.2</ele>
        <time>2024-07-24T10:10:49Z</time>
      </trkpt>
      <trkpt lat="49.84942" lon="2.33791">
        <ele>80.2</ele>
        <time>2024-07-24T10:10:51Z</time>
      </trkpt>
      <trkpt lat="49.84949" lon="2.33784">
        <ele>80.2</ele>
        <time>2024-07-24T10:10:53Z</time>
      </trkpt>
      <trkpt lat="49.84956" lon="2.33777">
        <ele>80.1</ele>
        <time>2024-07-24T10:10:55Z</time>
      </trkpt>
      <trkpt lat="49.84962" lon="2.3377">
        <ele>79.9</ele>
        <time>2024-07-24T10:10:57Z</time>
      </trkpt>
      <trkpt lat="49.84969" lon="2.33764">
        <ele>79.5</ele>
        <time>2024-07-24T10:10:59Z</time>
      </trkpt>
      <trkpt lat="49.84976" lon="2.33757">
        <ele>79.1</ele>
        <time>2024-07-24T10:11:01Z</time>
      </trkpt>
      <trkpt lat="49.84982" lon="2.3375">
        <ele>78.5</ele>
        <time>2024-07-24T10:11:03Z</time>
      </trkpt>
      <trkpt lat="49.84989" lon="2.33743">
        <ele>77.8</ele>
        <time>2024-07-24T10:11:05Z</time>
      </trkpt>
      <trkpt lat="49.84996" lon="2.33736">
        <ele>76.7</ele>
        <time>2024-07-24T10:11:07Z</time>
      </trkpt>
      <trkpt lat="49.85003" lon="2.3373">
        <ele>75.3</ele>
        <time>2024-07-24T10:11:09Z</time>
      </trkpt>
      <trkpt lat="49.85009" lon="2.33723">
        <ele>74.3</ele>
        <time>2024-07-24T10:11:11Z</time>
      </trkpt>
      <trkpt lat="49.85016" lon="2.33716">
        <ele>72.6</ele>
        <time>2024-07-24T10:11:13Z</time>
      </trkpt>
      <trkpt lat="49.85023" lon="2.33709">
        <ele>71.7</ele>
        <time>2024-07-24T10:11:15Z</time>
      </trkpt>
      <trkpt lat="49.8503" lon="2.33702">
        <ele>70.4</ele>
        <time>2024-07-24T10:11:17Z</time>
      </trkpt>
      <trkpt lat="49.85036" lon="2.33696">
        <ele>69.5</ele>
        <time>2024-07-24T10:11:19Z</time>
      </trkpt>
      <trkpt lat="49.85043" lon="2.33689">
        <ele>68.5</ele>
        <time>2024-07-24T10:11:21Z</time>
      </trkpt>
      <trkpt lat="49.8505" lon="2.33682">
        <ele>67.7</ele>
        <time>2024-07-24T10:11:23Z</time>
      </trkpt>
      <trkpt lat="49.85057" lon="2.33675">
        <ele>67.4</ele>
        <time>2024-07-24T10:11:25Z</time>
      </trkpt>
      <trkpt lat="49.85063" lon="2.33668">
        <ele>67</ele>
        <time>2024-07-24T10:11:27Z</time>
      </trkpt>
      <trkpt lat="49.8507" lon="2.33662">
        <ele>66.9</ele>
        <time>2024-07-24T10:11:29Z</time>
      </trkpt>
      <trkpt lat="49.85077" lon="2.33655">
        <ele>66.6</ele>
        <time>2024-07-24T10:11:31Z</time>
      </trkpt>
      <trkpt lat="49.85084" lon="2.33648">
        <ele>66.3</ele>
        <time>2024-07-24T10:11:33Z</time>
      </trkpt>
      <trkpt lat="49.8509" lon="2.33641">
        <ele>66.2</ele>
        <time>2024-07-24T10:11:35Z</time>
      </trkpt>
      <trkpt lat="49.85097" lon="2.33634">
        <ele>66</ele>
        <time>2024-07-24T10:11:37Z</time>
      </trkpt>
      <trkpt lat="49.85104" lon="2.33628">
        <ele>65.9</ele>
        <time>2024-07-24T10:11:39Z</time>
      </trkpt>
      <trkpt lat="49.85111" lon="2.33621">
        <ele>65.7</ele>
        <time>2024-07-24T10:11:41Z</time>
      </trkpt>
      <trkpt lat="49.85117" lon="2.33614">
        <ele>65.5</ele>
        <time>2024-07-24T10:11:43Z</time>
      </trkpt>
      <trkpt lat="49.85124" lon="2.33607">
        <ele>65.2</ele>
        <time>2024-07-24T10:11:45Z</time>
      </trkpt>
      <trkpt lat="49.85131" lon="2.33601">
        <ele>65</ele>
        <time>2024-07-24T10:11:47Z</time>
      </trkpt>
      <trkpt lat="49.85138" lon="2.33594">
        <ele>64.8</ele>
        <time>2024-07-24T10:11:49Z</time>
      </trkpt>
      <trkpt lat="49.85144" lon="2.33587">
        <ele>64.5</ele>
        <time>2024-07-24T10:11:51Z</time>
      </trkpt>
      <trkpt lat="49.85151" lon="2.3358">
        <ele>64.4</ele>
        <time>2024-07-24T10:11:53Z</time>
      </trkpt>
      <trkpt lat="49.85158" lon="2.33573">
        <ele>64.1</ele>
        <time>2024-07-24T10:11:55Z</time>
      </trkpt>
      <trkpt lat="49.85165" lon="2.33567">
        <ele>63.9</ele>
        <time>2024-07-24T10:11:57Z</time>
      </trkpt>
      <trkpt lat="49.85171" lon="2.3356">
        <ele>63.7</ele>
        <time>2024-07-24T10:11:59Z</time>
      </trkpt>
      <trkpt lat="49.85178" lon="2.33553">
        <ele>63.4</ele>
        <time>2024-07-24T10:12:01Z</time>
      </trkpt>
      <trkpt lat="49.85185" lon="2.33546">
        <ele>63.3</ele>
        <time>2024-07-24T10:12:03Z</time>
      </trkpt>
      <trkpt lat="49.85192" lon="2.33539">
        <ele>63.1</ele>
        <time>2024-07-24T10:12:05Z</time>
      </trkpt>
      <trkpt lat="49.85198" lon="2.33533">
        <ele>63</ele>
        <time>2024-07-24T10:12:07Z</time>
      </trkpt>
      <trkpt lat="49.85205" lon="2.33526">
        <ele>62.8</ele>
        <time>2024-07-24T10:12:09Z</time>
      </trkpt>
      <trkpt lat="49.85212" lon="2.33519">
        <ele>62.6</ele>
        <time>2024-07-24T10:12:11Z</time>
      </trkpt>
      <trkpt lat="49.85219" lon="2.33512">
        <ele>62.6</ele>
        <time>2024-07-24T10:12:13Z</time>
      </trkpt>
      <trkpt lat="49.85225" lon="2.33505">
        <ele>62.4</ele>
        <time>2024-07-24T10:12:15Z</time>
      </trkpt>
      <trkpt lat="49.85232" lon="2.33499">
        <ele>62.4</ele>
        <time>2024-07-24T10:12:17Z</time>
      </trkpt>
      <trkpt lat="49.85239" lon="2.33492">
        <ele>62.2</ele>
        <time>2024-07-24T10:12:19Z</time>
      </trkpt>
      <trkpt lat="49.85246" lon="2.33485">
        <ele>62</ele>
        <time>2024-07-24T10:12:21Z</time>
      </trkpt>
      <trkpt lat="49.85252" lon="2.33478">
        <ele>62</ele>
        <time>2024-07-24T10:12:23Z</time>
      </trkpt>
      <trkpt lat="49.85259" lon="2.33471">
        <ele>61.8</ele>
        <time>2024-07-24T10:12:25Z</time>
      </trkpt>
      <trkpt lat="49.85266" lon="2.33465">
        <ele>61.8</ele>
        <time>2024-07-24T10:12:27Z</time>
      </trkpt>
      <trkpt lat="49.85273" lon="2.33458">
        <ele>61.6</ele>
        <time>2024-07-24T10:12:29Z</time>
      </trkpt>
      <trkpt lat="49.85279" lon="2.33451">
        <ele>61.7</ele>
        <time>2024-07-24T10:12:31Z</time>
      </trkpt>
      <trkpt lat="49.85286" lon="2.33444">
        <ele>61.5</ele>
        <time>2024-07-24T10:12:33Z</time>
      </trkpt>
      <trkpt lat="49.85293" lon="2.33437">
        <ele>61.4</ele>
        <time>2024-07-24T10:12:35Z</time>
      </trkpt>
      <trkpt lat="49.853" lon="2.33431">
        <ele>61.3</ele>
        <time>2024-07-24T10:12:37Z</time>
      </trkpt>
      <trkpt lat="49.85306" lon="2.33424">
        <ele>60.9</ele>
        <time>2024-07-24T10:12:39Z</time>
      </trkpt>
      <trkpt lat="49.85313" lon="2.33417">
        <ele>60.8</ele>
        <time>2024-07-24T10:12:41Z</time>
      </trkpt>
      <trkpt lat="49.8532" lon="2.3341">
        <ele>60.3</ele>
        <time>2024-07-24T10:12:43Z</time>
      </trkpt>
      <trkpt lat="49.85327" lon="2.33403">
        <ele>59.7</ele>
        <time>2024-07-24T10:12:45Z</time>
      </trkpt>
      <trkpt lat="49.85333" lon="2.33397">
        <ele>59.3</ele>
        <time>2024-07-24T10:12:47Z</time>
      </trkpt>
      <trkpt lat="49.8534" lon="2.3339">
        <ele>58.5</ele>
        <time>2024-07-24T10:12:49Z</time>
      </trkpt>
      <trkpt lat="49.85347" lon="2.33383">
        <ele>58.1</ele>
        <time>2024-07-24T10:12:51Z</time>
      </trkpt>
      <trkpt lat="49.85354" lon="2.33376">
        <ele>57.2</ele>
        <time>2024-07-24T10:12:53Z</time>
      </trkpt>
      <trkpt lat="49.8536" lon="2.33369">
        <ele>56.7</ele>
        <time>2024-07-24T10:12:55Z</time>
      </trkpt>
      <trkpt lat="49.85367" lon="2.33363">
        <ele>56</ele>
        <time>2024-07-24T10:12:57Z</time>
      </trkpt>
      <trkpt lat="49.85374" lon="2.33356">
        <ele>55.3</ele>
        <time>2024-07-24T10:12:59Z</time>
      </trkpt>
      <trkpt lat="49.85381" lon="2.33349">
        <ele>54.9</ele>
        <time>2024-07-24T10:13:01Z</time>
      </trkpt>
      <trkpt lat="49.85387" lon="2.33342">
        <ele>54.4</ele>
        <time>2024-07-24T10:13:03Z</time>
      </trkpt>
      <trkpt lat="49.85394" lon="2.33335">
        <ele>54.2</ele>
        <time>2024-07-24T10:13:05Z</time>
      </trkpt>
      <trkpt lat="49.85401" lon="2.33329">
        <ele>54</ele>
        <time>2024-07-24T10:13:07Z</time>
      </trkpt>
      <trkpt lat="49.85408" lon="2.33322">
        <ele>53.9</ele>
        <time>2024-07-24T10:13:09Z</time>
      </trkpt>
      <trkpt lat="49.85414" lon="2.33315">
        <ele>53.9</ele>
        <time>2024-07-24T10:13:11Z</time>
      </trkpt>
      <trkpt lat="49.85421" lon="2.33308">
        <ele>53.8</ele>
        <time>2024-07-24T10:13:13Z</time>
      </trkpt>
      <trkpt lat="49.85428" lon="2.33301">
        <ele>53.8</ele>
        <time>2024-07-24T10:13:15Z</time>
      </trkpt>
      <trkpt lat="49.85435" lon="2.33295">
        <ele>53.7</ele>
        <time>2024-07-24T10:13:17Z</time>
      </trkpt>
      <trkpt lat="49.85441" lon="2.33288">
        <ele>53.6</ele>
        <time>2024-07-24T10:13:19Z</time>
      </trkpt>
      <trkpt lat="49.85448" lon="2.33281">
        <ele>53.6</ele>
        <time>2024-07-24T10:13:21Z</time>
      </trkpt>
      <trkpt lat="49.85455" lon="2.33274">
        <ele>53.6</ele>
        <time>2024-07-24T10:13:23Z</time>
      </trkpt>
      <trkpt lat="49.85462" lon="2.33267">
        <ele>53.6</ele>
        <time>2024-07-24T10:13:25Z</time>
      </trkpt>
      <trkpt lat="49.85468" lon="2.33261">
        <ele>53.8</ele>
        <time>2024-07-24T10:13:27Z</time>
      </trkpt>
      <trkpt lat="49.85475" lon="2.33254">
        <ele>54</ele>
        <time>2024-07-24T10:13:29Z</time>
      </trkpt>
      <trkpt lat="49.85482" lon="2.33247">
        <ele>54.6</ele>
        <time>2024-07-24T10:13:31Z</time>
      </trkpt>
      <trkpt lat="49.85489" lon="2.3324">
        <ele>55.3</ele>
        <time>2024-07-24T10:13:33Z</time>
      </trkpt>
      <trkpt lat="49.85495" lon="2.33233">
        <ele>56.2</ele>
        <time>2024-07-24T10:13:35Z</time>
      </trkpt>
      <trkpt lat="49.85502" lon="2.33227">
        <ele>57.2</ele>
        <time>2024-07-24T10:13:37Z</time>
      </trkpt>
      <trkpt lat="49.85509" lon="2.3322">
        <ele>58.5</ele>
        <time>2024-07-24T10:13:39Z</time>
      </trkpt>
      <trkpt lat="49.85516" lon="2.33213">
        <ele>59.7</ele>
        <time>2024-07-24T10:13:41Z</time>
      </trkpt>
      <trkpt lat="49.85522" lon="2.33206">
        <ele>61.4</ele>
        <time>2024-07-24T10:13:43Z</time>
      </trkpt>
      <trkpt lat="49.85529" lon="2.33199">
        <ele>62.5</ele>
        <time>2024-07-24T10:13:45Z</time>
      </trkpt>
      <trkpt lat="49.85536" lon="2.33193">
        <ele>63.9</ele>
        <time>2024-07-24T10:13:47Z</time>
      </trkpt>
      <trkpt lat="49.85543" lon="2.33186">
        <ele>65.5</ele>
        <time>2024-07-24T10:13:49Z</time>
      </trkpt>
      <trkpt lat="49.85549" lon="2.33179">
        <ele>66.8</ele>
        <time>2024-07-24T10:13:51Z</time>
      </trkpt>
      <trkpt lat="49.85556" lon="2.33172">
        <ele>68.1</ele>
        <time>2024-07-24T10:13:53Z</time>
      </trkpt>
      <trkpt lat="49.85563" lon="2.33165">
        <ele>69.2</ele>
        <time>2024-07-24T10:13:55Z</time>
      </trkpt>
      <trkpt lat="49.8557" lon="2.33159">
        <ele>70.3</ele>
        <time>2024-07-24T10:13:57Z</time>
      </trkpt>
      <trkpt lat="49.85576" lon="2.33152">
        <ele>70.9</ele>
        <time>2024-07-24T10:13:59Z</time>
      </trkpt>
      <trkpt lat="49.85583" lon="2.33145">
        <ele>71.5</ele>
        <time>2024-07-24T10:14:01Z</time>
      </trkpt>
      <trkpt lat="49.8559" lon="2.33138">
        <ele>71.8</ele>
        <time>2024-07-24T10:14:03Z</time>
      </trkpt>
      <trkpt lat="49.85597" lon="2.33131">
        <ele>72.1</ele>
        <time>2024-07-24T10:14:05Z</time>
      </trkpt>
      <trkpt lat="49.85603" lon="2.33125">
        <ele>72.2</ele>
        <time>2024-07-24T10:14:07Z</time>
      </trkpt>
      <trkpt lat="49.8561" lon="2.33118">
        <ele>72.2</ele>
        <time>2024-07-24T10:14:09Z</time>
      </trkpt>
      <trkpt lat="49.85617" lon="2.33111">
        <ele>72.1</ele>
        <time>2024-07-24T10:14:11Z</time>
      </trkpt>
      <trkpt lat="49.85624" lon="2.33104">
        <ele>72.1</ele>
        <time>2024-07-24T10:14:13Z</time>
      </trkpt>
      <trkpt lat="49.8563" lon="2.33097">
        <ele>72</ele>
        <time>2024-07-24T10:14:15Z</time>
      </trkpt>
      <trkpt lat="49.85637" lon="2.33091">
        <ele>72</ele>
        <time>2024-07-24T10:14:17Z</time>
      </trkpt>
      <trkpt lat="49.85644" lon="2.33084">
        <ele>72</ele>
        <time>2024-07-24T10:14:19Z</time>
      </trkpt>
      <trkpt lat="49.85651" lon="2.33077">
        <ele>72</ele>
        <time>2024-07-24T10:14:21Z</time>
      </trkpt>
      <trkpt lat="49.85657" lon="2.3307">
        <ele>71.9</ele>
        <time>2024-07-24T10:14:23Z</time>
      </trkpt>
      <trkpt lat="49.85664" lon="2.33063">
        <ele>71.9</ele>
        <time>2024-07-24T10:14:25Z</time>
      </trkpt>
      <trkpt lat="49.85671" lon="2.33057">
        <ele>71.8</ele>
        <time>2024-07-24T10:14:27Z</time>
      </trkpt>
      <trkpt lat="49.85678" lon="2.3305">
        <ele>71.8</ele>
        <time>2024-07-24T10:14:29Z</time>
      </trkpt>
      <trkpt lat="49.85684" lon="2.33043">
        <ele>71.7</ele>
        <time>2024-07-24T10:14:31Z</time>
      </trkpt>
      <trkpt lat="49.85691" lon="2.33036">
        <ele>71.7</ele>
        <time>2024-07-24T10:14:33Z</time>
      </trkpt>
      <trkpt lat="49.85698" lon="2.33029">
        <ele>71.6</ele>
        <time>2024-07-24T10:14:35Z</time>
      </trkpt>
      <trkpt lat="49.85705" lon="2.33023">
        <ele>71.7</ele>
        <time>2024-07-24T10:14:37Z</time>
      </trkpt>
      <trkpt lat="49.85711" lon="2.33016">
        <ele>71.7</ele>
        <time>2024-07-24T10:14:39Z</time>
      </trkpt>
      <trkpt lat="49.85718" lon="2.33009">
        <ele>71.8</ele>
        <time>2024-07-24T10:14:41Z</time>
      </trkpt>
      <trkpt lat="49.85725" lon="2.33002">
        <ele>71.8</ele>
        <time>2024-07-24T10:14:43Z</time>
      </trkpt>
      <trkpt lat="49.85732" lon="2.32996">
        <ele>71.7</ele>
        <time>2024-07-24T10:14:45Z</time>
      </trkpt>
      <trkpt lat="49.85738" lon="2.32989">
        <ele>71.6</ele>
        <time>2024-07-24T10:14:47Z</time>
      </trkpt>
      <trkpt lat="49.85745" lon="2.32982">
        <ele>71.3</ele>
        <time>2024-07-24T10:14:49Z</time>
      </trkpt>
      <trkpt lat="49.85752" lon="2.32975">
        <ele>71</ele>
        <time>2024-07-24T10:14:51Z</time>
      </trkpt>
      <trkpt lat="49.85759" lon="2.32968">
        <ele>70.3</ele>
        <time>2024-07-24T10:14:53Z</time>
      </trkpt>
      <trkpt lat="49.85765" lon="2.32962">
        <ele>69.7</ele>
        <time>2024-07-24T10:14:55Z</time>
      </trkpt>
      <trkpt lat="49.85772" lon="2.32955">
        <ele>68.9</ele>
        <time>2024-07-24T10:14:57Z</time>
      </trkpt>
      <trkpt lat="49.85779" lon="2.32948">
        <ele>68.2</ele>
        <time>2024-07-24T10:14:59Z</time>
      </trkpt>
      <trkpt lat="49.85786" lon="2.32941">
        <ele>67.3</ele>
        <time>2024-07-24T10:15:01Z</time>
      </trkpt>
      <trkpt lat="49.85792" lon="2.32934">
        <ele>66.5</ele>
        <time>2024-07-24T10:15:03Z</time>
      </trkpt>
      <trkpt lat="49.85799" lon="2.32928">
        <ele>65.4</ele>
        <time>2024-07-24T10:15:05Z</time>
      </trkpt>
      <trkpt lat="49.85806" lon="2.32921">
        <ele>64.4</ele>
        <time>2024-07-24T10:15:07Z</time>
      </trkpt>
      <trkpt lat="49.85813" lon="2.32914">
        <ele>63.4</ele>
        <time>2024-07-24T10:15:09Z</time>
      </trkpt>
      <trkpt lat="49.85819" lon="2.32907">
        <ele>61.7</ele>
        <time>2024-07-24T10:15:11Z</time>
      </trkpt>
      <trkpt lat="49.85826" lon="2.329">
        <ele>60.3</ele>
        <time>2024-07-24T10:15:13Z</time>
      </trkpt>
      <trkpt lat="49.85833" lon="2.32894">
        <ele>58.2</ele>
        <time>2024-07-24T10:15:15Z</time>
      </trkpt>
      <trkpt lat="49.8584" lon="2.32887">
        <ele>56.4</ele>
        <time>2024-07-24T10:15:17Z</time>
      </trkpt>
      <trkpt lat="49.85846" lon="2.3288">
        <ele>54</ele>
        <time>2024-07-24T10:15:19Z</time>
      </trkpt>
      <trkpt lat="49.85853" lon="2.32873">
        <ele>52.4</ele>
        <time>2024-07-24T10:15:21Z</time>
      </trkpt>
      <trkpt lat="49.8586" lon="2.32866">
        <ele>50.6</ele>
        <time>2024-07-24T10:15:23Z</time>
      </trkpt>
      <trkpt lat="49.85867" lon="2.3286">
        <ele>48.5</ele>
        <time>2024-07-24T10:15:25Z</time>
      </trkpt>
      <trkpt lat="49.85873" lon="2.32853">
        <ele>46.8</ele>
        <time>2024-07-24T10:15:27Z</time>
      </trkpt>
      <trkpt lat="49.8588" lon="2.32846">
        <ele>44.7</ele>
        <time>2024-07-24T10:15:29Z</time>
      </trkpt>
      <trkpt lat="49.85887" lon="2.32839">
        <ele>43</ele>
        <time>2024-07-24T10:15:31Z</time>
      </trkpt>
      <trkpt lat="49.85894" lon="2.32832">
        <ele>40.9</ele>
        <time>2024-07-24T10:15:33Z</time>
      </trkpt>
      <trkpt lat="49.859" lon="2.32826">
        <ele>39.6</ele>
        <time>2024-07-24T10:15:35Z</time>
      </trkpt>
      <trkpt lat="49.85907" lon="2.32819">
        <ele>37.9</ele>
        <time>2024-07-24T10:15:37Z</time>
      </trkpt>
      <trkpt lat="49.85914" lon="2.32812">
        <ele>37</ele>
        <time>2024-07-24T10:15:39Z</time>
      </trkpt>
      <trkpt lat="49.85921" lon="2.32805">
        <ele>36.1</ele>
        <time>2024-07-24T10:15:41Z</time>
      </trkpt>
      <trkpt lat="49.85927" lon="2.32798">
        <ele>35.2</ele>
        <time>2024-07-24T10:15:43Z</time>
      </trkpt>
      <trkpt lat="49.85934" lon="2.32792">
        <ele>34.9</ele>
        <time>2024-07-24T10:15:45Z</time>
      </trkpt>
      <trkpt lat="49.85941" lon="2.32785">
        <ele>34.7</ele>
        <time>2024-07-24T10:15:47Z</time>
      </trkpt>
      <trkpt lat="49.85948" lon="2.32778">
        <ele>34.7</ele>
        <time>2024-07-24T10:15:49Z</time>
      </trkpt>
      <trkpt lat="49.85954" lon="2.32771">
        <ele>34.7</ele>
        <time>2024-07-24T10:15:51Z</time>
      </trkpt>
      <trkpt lat="49.85961" lon="2.32764">
        <ele>34.6</ele>
        <time>2024-07-24T10:15:53Z</time>
      </trkpt>
      <trkpt lat="49.85968" lon="2.32758">
        <ele>34.5</ele>
        <time>2024-07-24T10:15:55Z</time>
      </trkpt>
      <trkpt lat="49.85975" lon="2.32751">
        <ele>34.4</ele>
        <time>2024-07-24T10:15:57Z</time>
      </trkpt>
      <trkpt lat="49.85981" lon="2.32744">
        <ele>34.4</ele>
        <time>2024-07-24T10:15:59Z</time>
      </trkpt>
      <trkpt lat="49.85988" lon="2.32737">
        <ele>34.5</ele>
        <time>2024-07-24T10:16:01Z</time>
      </trkpt>
      <trkpt lat="49.85995" lon="2.3273">
        <ele>34.7</ele>
        <time>2024-07-24T10:16:03Z</time>
      </trkpt>
      <trkpt lat="49.86002" lon="2.32724">
        <ele>35.2</ele>
        <time>2024-07-24T10:16:05Z</time>
      </trkpt>
      <trkpt lat="49.86008" lon="2.32717">
        <ele>35.7</ele>
        <time>2024-07-24T10:16:07Z</time>
      </trkpt>
      <trkpt lat="49.86015" lon="2.3271">
        <ele>36.3</ele>
        <time>2024-07-24T10:16:09Z</time>
      </trkpt>
      <trkpt lat="49.86022" lon="2.32703">
        <ele>36.8</ele>
        <time>2024-07-24T10:16:11Z</time>
      </trkpt>
      <trkpt lat="49.86029" lon="2.32696">
        <ele>37.2</ele>
        <time>2024-07-24T10:16:13Z</time>
      </trkpt>
      <trkpt lat="49.86035" lon="2.3269">
        <ele>37.8</ele>
        <time>2024-07-24T10:16:15Z</time>
      </trkpt>
      <trkpt lat="49.86042" lon="2.32683">
        <ele>38.1</ele>
        <time>2024-07-24T10:16:17Z</time>
      </trkpt>
      <trkpt lat="49.86049" lon="2.32676">
        <ele>38.3</ele>
        <time>2024-07-24T10:16:19Z</time>
      </trkpt>
      <trkpt lat="49.86056" lon="2.32669">
        <ele>38.3</ele>
        <time>2024-07-24T10:16:21Z</time>
      </trkpt>
      <trkpt lat="49.86062" lon="2.32662">
        <ele>38.5</ele>
        <time>2024-07-24T10:16:23Z</time>
      </trkpt>
      <trkpt lat="49.86069" lon="2.32656">
        <ele>38.5</ele>
        <time>2024-07-24T10:16:25Z</time>
      </trkpt>
      <trkpt lat="49.86076" lon="2.32649">
        <ele>38.9</ele>
        <time>2024-07-24T10:16:27Z</time>
      </trkpt>
      <trkpt lat="49.86083" lon="2.32642">
        <ele>39.2</ele>
        <time>2024-07-24T10:16:29Z</time>
      </trkpt>
      <trkpt lat="49.86089" lon="2.32635">
        <ele>39.7</ele>
        <time>2024-07-24T10:16:31Z</time>
      </trkpt>
      <trkpt lat="49.86096" lon="2.32628">
        <ele>40.4</ele>
        <time>2024-07-24T10:16:33Z</time>
      </trkpt>
      <trkpt lat="49.86103" lon="2.32622">
        <ele>41.2</ele>
        <time>2024-07-24T10:16:35Z</time>
      </trkpt>
      <trkpt lat="49.8611" lon="2.32615">
        <ele>41.7</ele>
        <time>2024-07-24T10:16:37Z</time>
      </trkpt>
      <trkpt lat="49.86116" lon="2.32608">
        <ele>42.3</ele>
        <time>2024-07-24T10:16:39Z</time>
      </trkpt>
      <trkpt lat="49.86123" lon="2.32601">
        <ele>42.9</ele>
        <time>2024-07-24T10:16:41Z</time>
      </trkpt>
      <trkpt lat="49.8613" lon="2.32594">
        <ele>43.5</ele>
        <time>2024-07-24T10:16:43Z</time>
      </trkpt>
      <trkpt lat="49.86137" lon="2.32588">
        <ele>44.1</ele>
        <time>2024-07-24T10:16:45Z</time>
      </trkpt>
      <trkpt lat="49.86143" lon="2.32581">
        <ele>44.6</ele>
        <time>2024-07-24T10:16:47Z</time>
      </trkpt>
      <trkpt lat="49.8615" lon="2.32574">
        <ele>45.2</ele>
        <time>2024-07-24T10:16:49Z</time>
      </trkpt>
      <trkpt lat="49.86157" lon="2.32567">
        <ele>45.7</ele>
        <time>2024-07-24T10:16:51Z</time>
      </trkpt>
      <trkpt lat="49.86164" lon="2.3256">
        <ele>46.2</ele>
        <time>2024-07-24T10:16:53Z</time>
      </trkpt>
      <trkpt lat="49.8617" lon="2.32554">
        <ele>46.6</ele>
        <time>2024-07-24T10:16:55Z</time>
      </trkpt>
      <trkpt lat="49.86177" lon="2.32547">
        <ele>47.1</ele>
        <time>2024-07-24T10:16:57Z</time>
      </trkpt>
      <trkpt lat="49.86184" lon="2.3254">
        <ele>47.5</ele>
        <time>2024-07-24T10:16:59Z</time>
      </trkpt>
      <trkpt lat="49.86191" lon="2.32533">
        <ele>48</ele>
        <time>2024-07-24T10:17:01Z</time>
      </trkpt>
      <trkpt lat="49.86197" lon="2.32526">
        <ele>48.4</ele>
        <time>2024-07-24T10:17:03Z</time>
      </trkpt>
      <trkpt lat="49.86204" lon="2.3252">
        <ele>48.9</ele>
        <time>2024-07-24T10:17:05Z</time>
      </trkpt>
      <trkpt lat="49.86211" lon="2.32513">
        <ele>49.4</ele>
        <time>2024-07-24T10:17:07Z</time>
      </trkpt>
      <trkpt lat="49.86217" lon="2.32506">
        <ele>49.8</ele>
        <time>2024-07-24T10:17:09Z</time>
      </trkpt>
      <trkpt lat="49.86224" lon="2.32499">
        <ele>50.3</ele>
        <time>2024-07-24T10:17:11Z</time>
      </trkpt>
      <trkpt lat="49.86231" lon="2.32492">
        <ele>50.7</ele>
        <time>2024-07-24T10:17:13Z</time>
      </trkpt>
      <trkpt lat="49.86238" lon="2.32486">
        <ele>51.2</ele>
        <time>2024-07-24T10:17:15Z</time>
      </trkpt>
      <trkpt lat="49.86244" lon="2.32479">
        <ele>51.7</ele>
        <time>2024-07-24T10:17:17Z</time>
      </trkpt>
      <trkpt lat="49.86251" lon="2.32472">
        <ele>52.2</ele>
        <time>2024-07-24T10:17:19Z</time>
      </trkpt>
      <trkpt lat="49.86258" lon="2.32465">
        <ele>52.7</ele>
        <time>2024-07-24T10:17:21Z</time>
      </trkpt>
      <trkpt lat="49.86265" lon="2.32458">
        <ele>53.2</ele>
        <time>2024-07-24T10:17:23Z</time>
      </trkpt>
      <trkpt lat="49.86271" lon="2.32452">
        <ele>53.6</ele>
        <time>2024-07-24T10:17:25Z</time>
      </trkpt>
      <trkpt lat="49.86278" lon="2.32445">
        <ele>54.1</ele>
        <time>2024-07-24T10:17:27Z</time>
      </trkpt>
      <trkpt lat="49.86285" lon="2.32438">
        <ele>54.6</ele>
        <time>2024-07-24T10:17:29Z</time>
      </trkpt>
      <trkpt lat="49.86292" lon="2.32431">
        <ele>55</ele>
        <time>2024-07-24T10:17:31Z</time>
      </trkpt>
      <trkpt lat="49.86298" lon="2.32424">
        <ele>55.5</ele>
        <time>2024-07-24T10:17:33Z</time>
      </trkpt>
      <trkpt lat="49.86305" lon="2.32418">
        <ele>55.9</ele>
        <time>2024-07-24T10:17:35Z</time>
      </trkpt>
      <trkpt lat="49.86312" lon="2.32411">
        <ele>56.3</ele>
        <time>2024-07-24T10:17:37Z</time>
      </trkpt>
      <trkpt lat="49.86319" lon="2.32404">
        <ele>56.7</ele>
        <time>2024-07-24T10:17:39Z</time>
      </trkpt>
      <trkpt lat="49.86325" lon="2.32397">
        <ele>57.2</ele>
        <time>2024-07-24T10:17:41Z</time>
      </trkpt>
      <trkpt lat="49.86332" lon="2.3239">
        <ele>57.6</ele>
        <time>2024-07-24T10:17:43Z</time>
      </trkpt>
      <trkpt lat="49.86339" lon="2.32384">
        <ele>58</ele>
        <time>2024-07-24T10:17:45Z</time>
      </trkpt>
      <trkpt lat="49.86346" lon="2.32377">
        <ele>58.5</ele>
        <time>2024-07-24T10:17:47Z</time>
      </trkpt>
      <trkpt lat="49.86352" lon="2.3237">
        <ele>58.9</ele>
        <time>2024-07-24T10:17:49Z</time>
      </trkpt>
      <trkpt lat="49.86359" lon="2.32363">
        <ele>59.4</ele>
        <time>2024-07-24T10:17:51Z</time>
      </trkpt>
      <trkpt lat="49.86366" lon="2.32356">
        <ele>59.8</ele>
        <time>2024-07-24T10:17:53Z</time>
      </trkpt>
      <trkpt lat="49.86373" lon="2.3235">
        <ele>60.4</ele>
        <time>2024-07-24T10:17:55Z</time>
      </trkpt>
      <trkpt lat="49.86379" lon="2.32343">
        <ele>60.7</ele>
        <time>2024-07-24T10:17:57Z</time>
      </trkpt>
      <trkpt lat="49.86386" lon="2.32336">
        <ele>61.1</ele>
        <time>2024-07-24T10:17:59Z</time>
      </trkpt>
      <trkpt lat="49.86393" lon="2.32329">
        <ele>61.5</ele>
        <time>2024-07-24T10:18:01Z</time>
      </trkpt>
      <trkpt lat="49.864" lon="2.32322">
        <ele>61.9</ele>
        <time>2024-07-24T10:18:03Z</time>
      </trkpt>
      <trkpt lat="49.86406" lon="2.32316">
        <ele>62.2</ele>
        <time>2024-07-24T10:18:05Z</time>
      </trkpt>
      <trkpt lat="49.86413" lon="2.32309">
        <ele>62.6</ele>
        <time>2024-07-24T10:18:07Z</time>
      </trkpt>
      <trkpt lat="49.8642" lon="2.32302">
        <ele>62.9</ele>
        <time>2024-07-24T10:18:09Z</time>
      </trkpt>
      <trkpt lat="49.86427" lon="2.32295">
        <ele>63.2</ele>
        <time>2024-07-24T10:18:11Z</time>
      </trkpt>
      <trkpt lat="49.86433" lon="2.32288">
        <ele>63.6</ele>
        <time>2024-07-24T10:18:13Z</time>
      </trkpt>
      <trkpt lat="49.8644" lon="2.32282">
        <ele>63.9</ele>
        <time>2024-07-24T10:18:15Z</time>
      </trkpt>
      <trkpt lat="49.86447" lon="2.32275">
        <ele>64.2</ele>
        <time>2024-07-24T10:18:17Z</time>
      </trkpt>
      <trkpt lat="49.86454" lon="2.32268">
        <ele>64.6</ele>
        <time>2024-07-24T10:18:19Z</time>
      </trkpt>
      <trkpt lat="49.8646" lon="2.32261">
        <ele>64.9</ele>
        <time>2024-07-24T10:18:21Z</time>
      </trkpt>
      <trkpt lat="49.86467" lon="2.32254">
        <ele>65.2</ele>
        <time>2024-07-24T10:18:23Z</time>
      </trkpt>
      <trkpt lat="49.86474" lon="2.32248">
        <ele>65.4</ele>
        <time>2024-07-24T10:18:25Z</time>
      </trkpt>
      <trkpt lat="49.86481" lon="2.32241">
        <ele>65.7</ele>
        <time>2024-07-24T10:18:27Z</time>
      </trkpt>
      <trkpt lat="49.86487" lon="2.32234">
        <ele>66</ele>
        <time>2024-07-24T10:18:29Z</time>
      </trkpt>
      <trkpt lat="49.86494" lon="2.32227">
        <ele>66.2</ele>
        <time>2024-07-24T10:18:31Z</time>
      </trkpt>
      <trkpt lat="49.86501" lon="2.3222">
        <ele>66.5</ele>
        <time>2024-07-24T10:18:33Z</time>
      </trkpt>
      <trkpt lat="49.86508" lon="2.32214">
        <ele>66.7</ele>
        <time>2024-07-24T10:18:35Z</time>
      </trkpt>
      <trkpt lat="49.86514" lon="2.32207">
        <ele>67</ele>
        <time>2024-07-24T10:18:37Z</time>
      </trkpt>
      <trkpt lat="49.86521" lon="2.322">
        <ele>67.2</ele>
        <time>2024-07-24T10:18:39Z</time>
      </trkpt>
      <trkpt lat="49.86528" lon="2.32193">
        <ele>67.4</ele>
        <time>2024-07-24T10:18:41Z</time>
      </trkpt>
      <trkpt lat="49.86535" lon="2.32186">
        <ele>67.6</ele>
        <time>2024-07-24T10:18:43Z</time>
      </trkpt>
      <trkpt lat="49.86541" lon="2.3218">
        <ele>67.8</ele>
        <time>2024-07-24T10:18:45Z</time>
      </trkpt>
      <trkpt lat="49.86548" lon="2.32173">
        <ele>67.9</ele>
        <time>2024-07-24T10:18:47Z</time>
      </trkpt>
      <trkpt lat="49.86555" lon="2.32166">
        <ele>68</ele>
        <time>2024-07-24T10:18:49Z</time>
      </trkpt>
      <trkpt lat="49.86562" lon="2.32159">
        <ele>68.1</ele>
        <time>2024-07-24T10:18:51Z</time>
      </trkpt>
      <trkpt lat="49.86568" lon="2.32152">
        <ele>68.2</ele>
        <time>2024-07-24T10:18:53Z</time>
      </trkpt>
      <trkpt lat="49.86575" lon="2.32146">
        <ele>68.3</ele>
        <time>2024-07-24T10:18:55Z</time>
      </trkpt>
      <trkpt lat="49.86582" lon="2.32139">
        <ele>68.3</ele>
        <time>2024-07-24T10:18:57Z</time>
      </trkpt>
      <trkpt lat="49.86589" lon="2.32132">
        <ele>68.4</ele>
        <time>2024-07-24T10:18:59Z</time>
      </trkpt>
      <trkpt lat="49.86595" lon="2.32125">
        <ele>68.4</ele>
        <time>2024-07-24T10:19:01Z</time>
      </trkpt>
      <trkpt lat="49.86602" lon="2.32118">
        <ele>68.3</ele>
        <time>2024-07-24T10:19:03Z</time>
      </trkpt>
      <trkpt lat="49.86609" lon="2.32112">
        <ele>68.3</ele>
        <time>2024-07-24T10:19:05Z</time>
      </trkpt>
      <trkpt lat="49.86616" lon="2.32105">
        <ele>68.3</ele>
        <time>2024-07-24T10:19:07Z</time>
      </trkpt>
      <trkpt lat="49.86622" lon="2.32098">
        <ele>68.3</ele>
        <time>2024-07-24T10:19:09Z</time>
      </trkpt>
      <trkpt lat="49.86629" lon="2.32091">
        <ele>68.2</ele>
        <time>2024-07-24T10:19:11Z</time>
      </trkpt>
      <trkpt lat="49.86636" lon="2.32084">
        <ele>68.1</ele>
        <time>2024-07-24T10:19:13Z</time>
      </trkpt>
      <trkpt lat="49.86643" lon="2.32078">
        <ele>67.9</ele>
        <time>2024-07-24T10:19:15Z</time>
      </trkpt>
      <trkpt lat="49.86649" lon="2.32071">
        <ele>67.8</ele>
        <time>2024-07-24T10:19:17Z</time>
      </trkpt>
      <trkpt lat="49.86656" lon="2.32064">
        <ele>67.5</ele>
        <time>2024-07-24T10:19:19Z</time>
      </trkpt>
      <trkpt lat="49.86663" lon="2.32057">
        <ele>67.3</ele>
        <time>2024-07-24T10:19:21Z</time>
      </trkpt>
      <trkpt lat="49.8667" lon="2.3205">
        <ele>67</ele>
        <time>2024-07-24T10:19:23Z</time>
      </trkpt>
      <trkpt lat="49.86676" lon="2.32044">
        <ele>66.7</ele>
        <time>2024-07-24T10:19:25Z</time>
      </trkpt>
      <trkpt lat="49.86683" lon="2.32037">
        <ele>66.4</ele>
        <time>2024-07-24T10:19:27Z</time>
      </trkpt>
      <trkpt lat="49.8669" lon="2.3203">
        <ele>66</ele>
        <time>2024-07-24T10:19:29Z</time>
      </trkpt>
      <trkpt lat="49.86697" lon="2.32023">
        <ele>65.7</ele>
        <time>2024-07-24T10:19:31Z</time>
      </trkpt>
      <trkpt lat="49.86703" lon="2.32016">
        <ele>65.4</ele>
        <time>2024-07-24T10:19:33Z</time>
      </trkpt>
      <trkpt lat="49.8671" lon="2.3201">
        <ele>65.1</ele>
        <time>2024-07-24T10:19:35Z</time>
      </trkpt>
      <trkpt lat="49.86717" lon="2.32003">
        <ele>64.8</ele>
        <time>2024-07-24T10:19:37Z</time>
      </trkpt>
      <trkpt lat="49.86724" lon="2.31996">
        <ele>64.4</ele>
        <time>2024-07-24T10:19:39Z</time>
      </trkpt>
      <trkpt lat="49.8673" lon="2.31989">
        <ele>64.2</ele>
        <time>2024-07-24T10:19:41Z</time>
      </trkpt>
      <trkpt lat="49.86737" lon="2.31982">
        <ele>63.9</ele>
        <time>2024-07-24T10:19:43Z</time>
      </trkpt>
      <trkpt lat="49.86744" lon="2.31976">
        <ele>63.7</ele>
        <time>2024-07-24T10:19:45Z</time>
      </trkpt>
      <trkpt lat="49.86751" lon="2.31969">
        <ele>63.5</ele>
        <time>2024-07-24T10:19:47Z</time>
      </trkpt>
      <trkpt lat="49.86757" lon="2.31962">
        <ele>63.2</ele>
        <time>2024-07-24T10:19:49Z</time>
      </trkpt>
      <trkpt lat="49.86764" lon="2.31955">
        <ele>63.1</ele>
        <time>2024-07-24T10:19:51Z</time>
      </trkpt>
      <trkpt lat="49.86771" lon="2.31948">
        <ele>62.9</ele>
        <time>2024-07-24T10:19:53Z</time>
      </trkpt>
      <trkpt lat="49.86778" lon="2.31941">
        <ele>62.8</ele>
        <time>2024-07-24T10:19:55Z</time>
      </trkpt>
      <trkpt lat="49.86784" lon="2.31935">
        <ele>62.7</ele>
        <time>2024-07-24T10:19:57Z</time>
      </trkpt>
      <trkpt lat="49.86791" lon="2.31928">
        <ele>62.6</ele>
        <time>2024-07-24T10:19:59Z</time>
      </trkpt>
      <trkpt lat="49.86798" lon="2.31921">
        <ele>62.5</ele>
        <time>2024-07-24T10:20:01Z</time>
      </trkpt>
      <trkpt lat="49.86805" lon="2.31914">
        <ele>62.5</ele>
        <time>2024-07-24T10:20:03Z</time>
      </trkpt>
      <trkpt lat="49.86811" lon="2.31907">
        <ele>62.4</ele>
        <time>2024-07-24T10:20:05Z</time>
      </trkpt>
      <trkpt lat="49.86818" lon="2.31901">
        <ele>62.4</ele>
        <time>2024-07-24T10:20:07Z</time>
      </trkpt>
      <trkpt lat="49.86825" lon="2.31894">
        <ele>62.4</ele>
        <time>2024-07-24T10:20:09Z</time>
      </trkpt>
      <trkpt lat="49.86832" lon="2.31887">
        <ele>62.4</ele>
        <time>2024-07-24T10:20:11Z</time>
      </trkpt>
      <trkpt lat="49.86838" lon="2.3188">
        <ele>62.4</ele>
        <time>2024-07-24T10:20:13Z</time>
      </trkpt>
      <trkpt lat="49.86845" lon="2.31873">
        <ele>62.5</ele>
        <time>2024-07-24T10:20:15Z</time>
      </trkpt>
      <trkpt lat="49.86852" lon="2.31867">
        <ele>62.5</ele>
        <time>2024-07-24T10:20:17Z</time>
      </trkpt>
      <trkpt lat="49.86859" lon="2.3186">
        <ele>62.6</ele>
        <time>2024-07-24T10:20:19Z</time>
      </trkpt>
      <trkpt lat="49.86865" lon="2.31853">
        <ele>62.6</ele>
        <time>2024-07-24T10:20:21Z</time>
      </trkpt>
      <trkpt lat="49.86872" lon="2.31846">
        <ele>62.7</ele>
        <time>2024-07-24T10:20:23Z</time>
      </trkpt>
      <trkpt lat="49.86879" lon="2.31839">
        <ele>62.7</ele>
        <time>2024-07-24T10:20:25Z</time>
      </trkpt>
      <trkpt lat="49.86886" lon="2.31833">
        <ele>62.8</ele>
        <time>2024-07-24T10:20:27Z</time>
      </trkpt>
      <trkpt lat="49.86892" lon="2.31826">
        <ele>62.8</ele>
        <time>2024-07-24T10:20:29Z</time>
      </trkpt>
      <trkpt lat="49.86899" lon="2.31819">
        <ele>62.8</ele>
        <time>2024-07-24T10:20:31Z</time>
      </trkpt>
      <trkpt lat="49.86906" lon="2.31812">
        <ele>62.9</ele>
        <time>2024-07-24T10:20:33Z</time>
      </trkpt>
      <trkpt lat="49.86913" lon="2.31805">
        <ele>62.9</ele>
        <time>2024-07-24T10:20:35Z</time>
      </trkpt>
      <trkpt lat="49.86919" lon="2.31799">
        <ele>62.8</ele>
        <time>2024-07-24T10:20:37Z</time>
      </trkpt>
      <trkpt lat="49.86926" lon="2.31792">
        <ele>62.9</ele>
        <time>2024-07-24T10:20:39Z</time>
      </trkpt>
      <trkpt lat="49.86933" lon="2.31785">
        <ele>62.8</ele>
        <time>2024-07-24T10:20:41Z</time>
      </trkpt>
      <trkpt lat="49.8694" lon="2.31778">
        <ele>62.9</ele>
        <time>2024-07-24T10:20:43Z</time>
      </trkpt>
      <trkpt lat="49.86946" lon="2.31771">
        <ele>62.7</ele>
        <time>2024-07-24T10:20:45Z</time>
      </trkpt>
      <trkpt lat="49.86953" lon="2.31765">
        <ele>62.8</ele>
        <time>2024-07-24T10:20:47Z</time>
      </trkpt>
      <trkpt lat="49.8696" lon="2.31758">
        <ele>62.7</ele>
        <time>2024-07-24T10:20:49Z</time>
      </trkpt>
      <trkpt lat="49.86967" lon="2.31751">
        <ele>62.7</ele>
        <time>2024-07-24T10:20:51Z</time>
      </trkpt>
      <trkpt lat="49.86973" lon="2.31744">
        <ele>62.8</ele>
        <time>2024-07-24T10:20:53Z</time>
      </trkpt>
      <trkpt lat="49.8698" lon="2.31737">
        <ele>62.8</ele>
        <time>2024-07-24T10:20:55Z</time>
      </trkpt>
      <trkpt lat="49.86987" lon="2.31731">
        <ele>63</ele>
        <time>2024-07-24T10:20:57Z</time>
      </trkpt>
      <trkpt lat="49.86994" lon="2.31724">
        <ele>63.2</ele>
        <time>2024-07-24T10:20:59Z</time>
      </trkpt>
      <trkpt lat="49.87" lon="2.31717">
        <ele>63.5</ele>
        <time>2024-07-24T10:21:01Z</time>
      </trkpt>
      <trkpt lat="49.87007" lon="2.3171">
        <ele>63.8</ele>
        <time>2024-07-24T10:21:03Z</time>
      </trkpt>
      <trkpt lat="49.87014" lon="2.31703">
        <ele>64.2</ele>
        <time>2024-07-24T10:21:05Z</time>
      </trkpt>
      <trkpt lat="49.87021" lon="2.31697">
        <ele>64.5</ele>
        <time>2024-07-24T10:21:07Z</time>
      </trkpt>
      <trkpt lat="49.87027" lon="2.3169">
        <ele>64.7</ele>
        <time>2024-07-24T10:21:09Z</time>
      </trkpt>
      <trkpt lat="49.87034" lon="2.31683">
        <ele>65.1</ele>
        <time>2024-07-24T10:21:11Z</time>
      </trkpt>
      <trkpt lat="49.87041" lon="2.31676">
        <ele>65.3</ele>
        <time>2024-07-24T10:21:13Z</time>
      </trkpt>
      <trkpt lat="49.87047" lon="2.31669">
        <ele>65.5</ele>
        <time>2024-07-24T10:21:15Z</time>
      </trkpt>
      <trkpt lat="49.87054" lon="2.31663">
        <ele>65.7</ele>
        <time>2024-07-24T10:21:17Z</time>
      </trkpt>
      <trkpt lat="49.87061" lon="2.31656">
        <ele>66</ele>
        <time>2024-07-24T10:21:19Z</time>
      </trkpt>
      <trkpt lat="49.87068" lon="2.31649">
        <ele>66.2</ele>
        <time>2024-07-24T10:21:21Z</time>
      </trkpt>
      <trkpt lat="49.87074" lon="2.31642">
        <ele>66.5</ele>
        <time>2024-07-24T10:21:23Z</time>
      </trkpt>
      <trkpt lat="49.87081" lon="2.31635">
        <ele>66.6</ele>
        <time>2024-07-24T10:21:25Z</time>
      </trkpt>
      <trkpt lat="49.87088" lon="2.31629">
        <ele>66.8</ele>
        <time>2024-07-24T10:21:27Z</time>
      </trkpt>
      <trkpt lat="49.87095" lon="2.31622">
        <ele>67</ele>
        <time>2024-07-24T10:21:29Z</time>
      </trkpt>
      <trkpt lat="49.87101" lon="2.31615">
        <ele>67.1</ele>
        <time>2024-07-24T10:21:31Z</time>
      </trkpt>
      <trkpt lat="49.87108" lon="2.31608">
        <ele>67.1</ele>
        <time>2024-07-24T10:21:33Z</time>
      </trkpt>
      <trkpt lat="49.87115" lon="2.31601">
        <ele>67.1</ele>
        <time>2024-07-24T10:21:35Z</time>
      </trkpt>
      <trkpt lat="49.87122" lon="2.31595">
        <ele>67</ele>
        <time>2024-07-24T10:21:37Z</time>
      </trkpt>
      <trkpt lat="49.87128" lon="2.31588">
        <ele>66.8</ele>
        <time>2024-07-24T10:21:39Z</time>
      </trkpt>
      <trkpt lat="49.87135" lon="2.31581">
        <ele>66.9</ele>
        <time>2024-07-24T10:21:41Z</time>
      </trkpt>
      <trkpt lat="49.87142" lon="2.31574">
        <ele>66.8</ele>
        <time>2024-07-24T10:21:43Z</time>
      </trkpt>
      <trkpt lat="49.87149" lon="2.31567">
        <ele>66.9</ele>
        <time>2024-07-24T10:21:45Z</time>
      </trkpt>
      <trkpt lat="49.87155" lon="2.31561">
        <ele>67.1</ele>
        <time>2024-07-24T10:21:47Z</time>
      </trkpt>
      <trkpt lat="49.87162" lon="2.31554">
        <ele>67.2</ele>
        <time>2024-07-24T10:21:49Z</time>
      </trkpt>
      <trkpt lat="49.87169" lon="2.31547">
        <ele>67.5</ele>
        <time>2024-07-24T10:21:51Z</time>
      </trkpt>
      <trkpt lat="49.87176" lon="2.3154">
        <ele>67.6</ele>
        <time>2024-07-24T10:21:53Z</time>
      </trkpt>
      <trkpt lat="49.87182" lon="2.31533">
        <ele>68</ele>
        <time>2024-07-24T10:21:55Z</time>
      </trkpt>
      <trkpt lat="49.87189" lon="2.31527">
        <ele>68.2</ele>
        <time>2024-07-24T10:21:57Z</time>
      </trkpt>
      <trkpt lat="49.87196" lon="2.3152">
        <ele>68.4</ele>
        <time>2024-07-24T10:21:59Z</time>
      </trkpt>
      <trkpt lat="49.87203" lon="2.31513">
        <ele>68.6</ele>
        <time>2024-07-24T10:22:01Z</time>
      </trkpt>
      <trkpt lat="49.87209" lon="2.31506">
        <ele>68.8</ele>
        <time>2024-07-24T10:22:03Z</time>
      </trkpt>
      <trkpt lat="49.87216" lon="2.31499">
        <ele>69.1</ele>
        <time>2024-07-24T10:22:05Z</time>
      </trkpt>
      <trkpt lat="49.87223" lon="2.31493">
        <ele>69.2</ele>
        <time>2024-07-24T10:22:07Z</time>
      </trkpt>
      <trkpt lat="49.8723" lon="2.31486">
        <ele>69.5</ele>
        <time>2024-07-24T10:22:09Z</time>
      </trkpt>
      <trkpt lat="49.87236" lon="2.31479">
        <ele>69.7</ele>
        <time>2024-07-24T10:22:11Z</time>
      </trkpt>
      <trkpt lat="49.87243" lon="2.31472">
        <ele>70</ele>
        <time>2024-07-24T10:22:13Z</time>
      </trkpt>
      <trkpt lat="49.8725" lon="2.31465">
        <ele>70.2</ele>
        <time>2024-07-24T10:22:15Z</time>
      </trkpt>
      <trkpt lat="49.87257" lon="2.31459">
        <ele>70.5</ele>
        <time>2024-07-24T10:22:17Z</time>
      </trkpt>
      <trkpt lat="49.87263" lon="2.31452">
        <ele>70.8</ele>
        <time>2024-07-24T10:22:19Z</time>
      </trkpt>
      <trkpt lat="49.8727" lon="2.31445">
        <ele>70.9</ele>
        <time>2024-07-24T10:22:21Z</time>
      </trkpt>
      <trkpt lat="49.87277" lon="2.31438">
        <ele>71.2</ele>
        <time>2024-07-24T10:22:23Z</time>
      </trkpt>
      <trkpt lat="49.87284" lon="2.31431">
        <ele>71.3</ele>
        <time>2024-07-24T10:22:25Z</time>
      </trkpt>
      <trkpt lat="49.8729" lon="2.31425">
        <ele>71.4</ele>
        <time>2024-07-24T10:22:27Z</time>
      </trkpt>
      <trkpt lat="49.87297" lon="2.31418">
        <ele>71.5</ele>
        <time>2024-07-24T10:22:29Z</time>
      </trkpt>
      <trkpt lat="49.87304" lon="2.31411">
        <ele>71.5</ele>
        <time>2024-07-24T10:22:31Z</time>
      </trkpt>
      <trkpt lat="49.87311" lon="2.31404">
        <ele>71.5</ele>
        <time>2024-07-24T10:22:33Z</time>
      </trkpt>
      <trkpt lat="49.87317" lon="2.31397">
        <ele>71.4</ele>
        <time>2024-07-24T10:22:35Z</time>
      </trkpt>
      <trkpt lat="49.87324" lon="2.31391">
        <ele>71.2</ele>
        <time>2024-07-24T10:22:37Z</time>
      </trkpt>
      <trkpt lat="49.87331" lon="2.31384">
        <ele>71.2</ele>
        <time>2024-07-24T10:22:39Z</time>
      </trkpt>
      <trkpt lat="49.87338" lon="2.31377">
        <ele>71</ele>
        <time>2024-07-24T10:22:41Z</time>
      </trkpt>
      <trkpt lat="49.87344" lon="2.3137">
        <ele>70.9</ele>
        <time>2024-07-24T10:22:43Z</time>
      </trkpt>
      <trkpt lat="49.87351" lon="2.31363">
        <ele>70.7</ele>
        <time>2024-07-24T10:22:45Z</time>
      </trkpt>
      <trkpt lat="49.87358" lon="2.31356">
        <ele>70.5</ele>
        <time>2024-07-24T10:22:47Z</time>
      </trkpt>
      <trkpt lat="49.87365" lon="2.3135">
        <ele>70.5</ele>
        <time>2024-07-24T10:22:49Z</time>
      </trkpt>
      <trkpt lat="49.87371" lon="2.31343">
        <ele>70.3</ele>
        <time>2024-07-24T10:22:51Z</time>
      </trkpt>
      <trkpt lat="49.87378" lon="2.31336">
        <ele>70.3</ele>
        <time>2024-07-24T10:22:53Z</time>
      </trkpt>
      <trkpt lat="49.87385" lon="2.31329">
        <ele>70.1</ele>
        <time>2024-07-24T10:22:55Z</time>
      </trkpt>
      <trkpt lat="49.87392" lon="2.31322">
        <ele>70.1</ele>
        <time>2024-07-24T10:22:57Z</time>
      </trkpt>
      <trkpt lat="49.87398" lon="2.31316">
        <ele>69.9</ele>
        <time>2024-07-24T10:22:59Z</time>
      </trkpt>
      <trkpt lat="49.87405" lon="2.31309">
        <ele>69.6</ele>
        <time>2024-07-24T10:23:01Z</time>
      </trkpt>
      <trkpt lat="49.87412" lon="2.31302">
        <ele>69.5</ele>
        <time>2024-07-24T10:23:03Z</time>
      </trkpt>
      <trkpt lat="49.87419" lon="2.31295">
        <ele>69.3</ele>
        <time>2024-07-24T10:23:05Z</time>
      </trkpt>
      <trkpt lat="49.87425" lon="2.31288">
        <ele>69.2</ele>
        <time>2024-07-24T10:23:07Z</time>
      </trkpt>
      <trkpt lat="49.87432" lon="2.31282">
        <ele>68.9</ele>
        <time>2024-07-24T10:23:09Z</time>
      </trkpt>
      <trkpt lat="49.87439" lon="2.31275">
        <ele>68.7</ele>
        <time>2024-07-24T10:23:11Z</time>
      </trkpt>
      <trkpt lat="49.87446" lon="2.31268">
        <ele>68.6</ele>
        <time>2024-07-24T10:23:13Z</time>
      </trkpt>
      <trkpt lat="49.87452" lon="2.31261">
        <ele>68.4</ele>
        <time>2024-07-24T10:23:15Z</time>
      </trkpt>
      <trkpt lat="49.87459" lon="2.31254">
        <ele>68.3</ele>
        <time>2024-07-24T10:23:17Z</time>
      </trkpt>
      <trkpt lat="49.87466" lon="2.31248">
        <ele>68</ele>
        <time>2024-07-24T10:23:19Z</time>
      </trkpt>
      <trkpt lat="49.87473" lon="2.31241">
        <ele>67.9</ele>
        <time>2024-07-24T10:23:21Z</time>
      </trkpt>
      <trkpt lat="49.87479" lon="2.31234">
        <ele>67.7</ele>
        <time>2024-07-24T10:23:23Z</time>
      </trkpt>
      <trkpt lat="49.87486" lon="2.31227">
        <ele>67.4</ele>
        <time>2024-07-24T10:23:25Z</time>
      </trkpt>
      <trkpt lat="49.87493" lon="2.3122">
        <ele>67.4</ele>
        <time>2024-07-24T10:23:27Z</time>
      </trkpt>
      <trkpt lat="49.875" lon="2.31214">
        <ele>67.1</ele>
        <time>2024-07-24T10:23:29Z</time>
      </trkpt>
      <trkpt lat="49.87506" lon="2.31207">
        <ele>67</ele>
        <time>2024-07-24T10:23:31Z</time>
      </trkpt>
      <trkpt lat="49.87513" lon="2.312">
        <ele>66.7</ele>
        <time>2024-07-24T10:23:33Z</time>
      </trkpt>
      <trkpt lat="49.8752" lon="2.31193">
        <ele>66.5</ele>
        <time>2024-07-24T10:23:35Z</time>
      </trkpt>
      <trkpt lat="49.87527" lon="2.31186">
        <ele>66.4</ele>
        <time>2024-07-24T10:23:37Z</time>
      </trkpt>
      <trkpt lat="49.87533" lon="2.3118">
        <ele>66.1</ele>
        <time>2024-07-24T10:23:39Z</time>
      </trkpt>
      <trkpt lat="49.8754" lon="2.31173">
        <ele>66.2</ele>
        <time>2024-07-24T10:23:41Z</time>
      </trkpt>
      <trkpt lat="49.87547" lon="2.31166">
        <ele>66</ele>
        <time>2024-07-24T10:23:43Z</time>
      </trkpt>
      <trkpt lat="49.87554" lon="2.31159">
        <ele>65.9</ele>
        <time>2024-07-24T10:23:45Z</time>
      </trkpt>
      <trkpt lat="49.8756" lon="2.31152">
        <ele>65.9</ele>
        <time>2024-07-24T10:23:47Z</time>
      </trkpt>
      <trkpt lat="49.87567" lon="2.31146">
        <ele>65.9</ele>
        <time>2024-07-24T10:23:49Z</time>
      </trkpt>
      <trkpt lat="49.87574" lon="2.31139">
        <ele>66</ele>
        <time>2024-07-24T10:23:51Z</time>
      </trkpt>
      <trkpt lat="49.87581" lon="2.31132">
        <ele>66</ele>
        <time>2024-07-24T10:23:53Z</time>
      </trkpt>
      <trkpt lat="49.87587" lon="2.31125">
        <ele>66</ele>
        <time>2024-07-24T10:23:55Z</time>
      </trkpt>
      <trkpt lat="49.87594" lon="2.31118">
        <ele>65.9</ele>
        <time>2024-07-24T10:23:57Z</time>
      </trkpt>
      <trkpt lat="49.87601" lon="2.31112">
        <ele>65.8</ele>
        <time>2024-07-24T10:23:59Z</time>
      </trkpt>
      <trkpt lat="49.87608" lon="2.31105">
        <ele>65.8</ele>
        <time>2024-07-24T10:24:01Z</time>
      </trkpt>
      <trkpt lat="49.87614" lon="2.31098">
        <ele>65.6</ele>
        <time>2024-07-24T10:24:03Z</time>
      </trkpt>
      <trkpt lat="49.87621" lon="2.31091">
        <ele>65.6</ele>
        <time>2024-07-24T10:24:05Z</time>
      </trkpt>
      <trkpt lat="49.87628" lon="2.31084">
        <ele>65.4</ele>
        <time>2024-07-24T10:24:07Z</time>
      </trkpt>
      <trkpt lat="49.87635" lon="2.31078">
        <ele>65.1</ele>
        <time>2024-07-24T10:24:09Z</time>
      </trkpt>
      <trkpt lat="49.87641" lon="2.31071">
        <ele>65</ele>
        <time>2024-07-24T10:24:11Z</time>
      </trkpt>
      <trkpt lat="49.87648" lon="2.31064">
        <ele>64.7</ele>
        <time>2024-07-24T10:24:13Z</time>
      </trkpt>
      <trkpt lat="49.87655" lon="2.31057">
        <ele>64.5</ele>
        <time>2024-07-24T10:24:15Z</time>
      </trkpt>
      <trkpt lat="49.87662" lon="2.3105">
        <ele>64.1</ele>
        <time>2024-07-24T10:24:17Z</time>
      </trkpt>
      <trkpt lat="49.87668" lon="2.31044">
        <ele>63.8</ele>
        <time>2024-07-24T10:24:19Z</time>
      </trkpt>
      <trkpt lat="49.87675" lon="2.31037">
        <ele>63.4</ele>
        <time>2024-07-24T10:24:21Z</time>
      </trkpt>
      <trkpt lat="49.87682" lon="2.3103">
        <ele>63.2</ele>
        <time>2024-07-24T10:24:23Z</time>
      </trkpt>
      <trkpt lat="49.87689" lon="2.31023">
        <ele>63.1</ele>
        <time>2024-07-24T10:24:25Z</time>
      </trkpt>
      <trkpt lat="49.87695" lon="2.31016">
        <ele>63</ele>
        <time>2024-07-24T10:24:27Z</time>
      </trkpt>
      <trkpt lat="49.87702" lon="2.3101">
        <ele>63</ele>
        <time>2024-07-24T10:24:29Z</time>
      </trkpt>
      <trkpt lat="49.87709" lon="2.31003">
        <ele>63.1</ele>
        <time>2024-07-24T10:24:31Z</time>
      </trkpt>
      <trkpt lat="49.87716" lon="2.30996">
        <ele>63.2</ele>
        <time>2024-07-24T10:24:33Z</time>
      </trkpt>
      <trkpt lat="49.87722" lon="2.30989">
        <ele>63.3</ele>
        <time>2024-07-24T10:24:35Z</time>
      </trkpt>
      <trkpt lat="49.87729" lon="2.30982">
        <ele>63.4</ele>
        <time>2024-07-24T10:24:37Z</time>
      </trkpt>
      <trkpt lat="49.87736" lon="2.30975">
        <ele>63.6</ele>
        <time>2024-07-24T10:24:39Z</time>
      </trkpt>
      <trkpt lat="49.87742" lon="2.30969">
        <ele>63.7</ele>
        <time>2024-07-24T10:24:41Z</time>
      </trkpt>
      <trkpt lat="49.87749" lon="2.30962">
        <ele>63.8</ele>
        <time>2024-07-24T10:24:43Z</time>
      </trkpt>
      <trkpt lat="49.87756" lon="2.30955">
        <ele>63.8</ele>
        <time>2024-07-24T10:24:45Z</time>
      </trkpt>
      <trkpt lat="49.87763" lon="2.30948">
        <ele>63.9</ele>
        <time>2024-07-24T10:24:47Z</time>
      </trkpt>
      <trkpt lat="49.87769" lon="2.30941">
        <ele>63.8</ele>
        <time>2024-07-24T10:24:49Z</time>
      </trkpt>
      <trkpt lat="49.87776" lon="2.30935">
        <ele>63.8</ele>
        <time>2024-07-24T10:24:51Z</time>
      </trkpt>
      <trkpt lat="49.87783" lon="2.30928">
        <ele>63.7</ele>
        <time>2024-07-24T10:24:53Z</time>
      </trkpt>
      <trkpt lat="49.8779" lon="2.30921">
        <ele>63.6</ele>
        <time>2024-07-24T10:24:55Z</time>
      </trkpt>
      <trkpt lat="49.87796" lon="2.30914">
        <ele>63.5</ele>
        <time>2024-07-24T10:24:57Z</time>
      </trkpt>
      <trkpt lat="49.87803" lon="2.30907">
        <ele>63.3</ele>
        <time>2024-07-24T10:24:59Z</time>
      </trkpt>
      <trkpt lat="49.8781" lon="2.30901">
        <ele>63.2</ele>
        <time>2024-07-24T10:25:01Z</time>
      </trkpt>
      <trkpt lat="49.87817" lon="2.30894">
        <ele>63</ele>
        <time>2024-07-24T10:25:03Z</time>
      </trkpt>
      <trkpt lat="49.87823" lon="2.30887">
        <ele>62.9</ele>
        <time>2024-07-24T10:25:05Z</time>
      </trkpt>
      <trkpt lat="49.8783" lon="2.3088">
        <ele>62.7</ele>
        <time>2024-07-24T10:25:07Z</time>
      </trkpt>
      <trkpt lat="49.87837" lon="2.30873">
        <ele>62.7</ele>
        <time>2024-07-24T10:25:09Z</time>
      </trkpt>
      <trkpt lat="49.87844" lon="2.30867">
        <ele>62.6</ele>
        <time>2024-07-24T10:25:11Z</time>
      </trkpt>
      <trkpt lat="49.8785" lon="2.3086">
        <ele>62.6</ele>
        <time>2024-07-24T10:25:13Z</time>
      </trkpt>
      <trkpt lat="49.87857" lon="2.30853">
        <ele>62.7</ele>
        <time>2024-07-24T10:25:15Z</time>
      </trkpt>
      <trkpt lat="49.87864" lon="2.30846">
        <ele>62.8</ele>
        <time>2024-07-24T10:25:17Z</time>
      </trkpt>
      <trkpt lat="49.87871" lon="2.30839">
        <ele>62.8</ele>
        <time>2024-07-24T10:25:19Z</time>
      </trkpt>
      <trkpt lat="49.87877" lon="2.30833">
        <ele>62.9</ele>
        <time>2024-07-24T10:25:21Z</time>
      </trkpt>
      <trkpt lat="49.87884" lon="2.30826">
        <ele>62.9</ele>
        <time>2024-07-24T10:25:23Z</time>
      </trkpt>
      <trkpt lat="49.87891" lon="2.30819">
        <ele>63</ele>
        <time>2024-07-24T10:25:25Z</time>
      </trkpt>
      <trkpt lat="49.87898" lon="2.30812">
        <ele>63</ele>
        <time>2024-07-24T10:25:26Z</time>
      </trkpt>
      <trkpt lat="49.87904" lon="2.30778">
        <ele>63.1</ele>
        <time>2024-07-24T10:25:27Z</time>
      </trkpt>
      <trkpt lat="49.87905" lon="2.30778">
        <ele>63.1</ele>
        <time>2024-07-24T10:25:29Z</time>
      </trkpt>
      <trkpt lat="49.87905" lon="2.30779">
        <ele>63.1</ele>
        <time>2024-07-24T10:25:31Z</time>
      </trkpt>
      <trkpt lat="49.87905" lon="2.30779">
        <ele>63.1</ele>
        <time>2024-07-24T10:25:32Z</time>
      </trkpt>
      <trkpt lat="49.87905" lon="2.30779">
        <ele>63.1</ele>
        <time>2024-07-24T10:25:33Z</time>
      </trkpt>
      <trkpt lat="49.87905" lon="2.30779">
        <ele>63.1</ele>
        <time>2024-07-24T10:25:34Z</time>
      </trkpt>
    </trkseg>
  </trk>
</gpx>